<?xml version="1.0" encoding="UTF-8" standalone="no" ?>
<gpx xmlns="http://www.topografix.com/GPX/1/1" xmlns:xsi="http://www.w3.org/2001/XMLSchema-instance" xsi:schemaLocation="http://www.topografix.com/GPX/1/1 http://www.topografix.com/GPX/1/1/gpx.xsd" version="1.1" creator="VisuGPX - https://www.visugpx.com">
  <metadata>
    <name>Arêtes de Pène Nègre - Col du Tourmalet (2.382 m)</name>
    <desc><![CDATA[Départ de La Mongie (Hautes-Pyrénées) ]]></desc>
  </metadata>
  <trk>
    <name><![CDATA[Arêtes de Pène Nègre - Col du Tourmalet (2.382 m)_1]]></name>
    <trkseg>
      <trkpt lat="42.90995" lon="0.1809">
        <ele>1688</ele>
        <time>2020-07-29T08:26:57.000Z</time>
      </trkpt>
      <trkpt lat="42.90995" lon="0.1809">
        <ele>1688</ele>
        <time>2020-07-29T08:26:58.000Z</time>
      </trkpt>
      <trkpt lat="42.90996" lon="0.18088">
        <ele>1688</ele>
        <time>2020-07-29T08:26:59.000Z</time>
      </trkpt>
      <trkpt lat="42.90998" lon="0.18087">
        <ele>1688</ele>
        <time>2020-07-29T08:27:00.000Z</time>
      </trkpt>
      <trkpt lat="42.91" lon="0.18084">
        <ele>1688</ele>
        <time>2020-07-29T08:27:01.000Z</time>
      </trkpt>
      <trkpt lat="42.91002" lon="0.18082">
        <ele>1689</ele>
        <time>2020-07-29T08:27:02.000Z</time>
      </trkpt>
      <trkpt lat="42.91003" lon="0.1808">
        <ele>1691</ele>
        <time>2020-07-29T08:27:03.000Z</time>
      </trkpt>
      <trkpt lat="42.91005" lon="0.18077">
        <ele>1693</ele>
        <time>2020-07-29T08:27:04.000Z</time>
      </trkpt>
      <trkpt lat="42.91008" lon="0.18074">
        <ele>1694</ele>
        <time>2020-07-29T08:27:05.000Z</time>
      </trkpt>
      <trkpt lat="42.9101" lon="0.18072">
        <ele>1697</ele>
        <time>2020-07-29T08:27:06.000Z</time>
      </trkpt>
      <trkpt lat="42.91012" lon="0.18068">
        <ele>1698</ele>
        <time>2020-07-29T08:27:07.000Z</time>
      </trkpt>
      <trkpt lat="42.91014" lon="0.18065">
        <ele>1697</ele>
        <time>2020-07-29T08:27:08.000Z</time>
      </trkpt>
      <trkpt lat="42.91015" lon="0.18062">
        <ele>1698</ele>
        <time>2020-07-29T08:27:09.000Z</time>
      </trkpt>
      <trkpt lat="42.91015" lon="0.18058">
        <ele>1702</ele>
        <time>2020-07-29T08:27:10.000Z</time>
      </trkpt>
      <trkpt lat="42.91015" lon="0.18053">
        <ele>1707</ele>
        <time>2020-07-29T08:27:11.000Z</time>
      </trkpt>
      <trkpt lat="42.91014" lon="0.18047">
        <ele>1709</ele>
        <time>2020-07-29T08:27:12.000Z</time>
      </trkpt>
      <trkpt lat="42.91014" lon="0.18042">
        <ele>1711</ele>
        <time>2020-07-29T08:27:13.000Z</time>
      </trkpt>
      <trkpt lat="42.91013" lon="0.18037">
        <ele>1713</ele>
        <time>2020-07-29T08:27:14.000Z</time>
      </trkpt>
      <trkpt lat="42.91012" lon="0.18033">
        <ele>1715</ele>
        <time>2020-07-29T08:27:15.000Z</time>
      </trkpt>
      <trkpt lat="42.91011" lon="0.18028">
        <ele>1717</ele>
        <time>2020-07-29T08:27:16.000Z</time>
      </trkpt>
      <trkpt lat="42.9101" lon="0.18023">
        <ele>1718</ele>
        <time>2020-07-29T08:27:17.000Z</time>
      </trkpt>
      <trkpt lat="42.9101" lon="0.18018">
        <ele>1719</ele>
        <time>2020-07-29T08:27:18.000Z</time>
      </trkpt>
      <trkpt lat="42.9101" lon="0.18014">
        <ele>1719</ele>
        <time>2020-07-29T08:27:19.000Z</time>
      </trkpt>
      <trkpt lat="42.9101" lon="0.18009">
        <ele>1721</ele>
        <time>2020-07-29T08:27:20.000Z</time>
      </trkpt>
      <trkpt lat="42.9101" lon="0.18005">
        <ele>1720</ele>
        <time>2020-07-29T08:27:21.000Z</time>
      </trkpt>
      <trkpt lat="42.9101" lon="0.18">
        <ele>1720</ele>
        <time>2020-07-29T08:27:22.000Z</time>
      </trkpt>
      <trkpt lat="42.9101" lon="0.17996">
        <ele>1720</ele>
        <time>2020-07-29T08:27:23.000Z</time>
      </trkpt>
      <trkpt lat="42.91011" lon="0.17992">
        <ele>1721</ele>
        <time>2020-07-29T08:27:24.000Z</time>
      </trkpt>
      <trkpt lat="42.91011" lon="0.17988">
        <ele>1722</ele>
        <time>2020-07-29T08:27:25.000Z</time>
      </trkpt>
      <trkpt lat="42.91011" lon="0.17984">
        <ele>1722</ele>
        <time>2020-07-29T08:27:26.000Z</time>
      </trkpt>
      <trkpt lat="42.91011" lon="0.1798">
        <ele>1723</ele>
        <time>2020-07-29T08:27:27.000Z</time>
      </trkpt>
      <trkpt lat="42.91011" lon="0.17977">
        <ele>1723</ele>
        <time>2020-07-29T08:27:28.000Z</time>
      </trkpt>
      <trkpt lat="42.91011" lon="0.17973">
        <ele>1722</ele>
        <time>2020-07-29T08:27:29.000Z</time>
      </trkpt>
      <trkpt lat="42.91011" lon="0.17969">
        <ele>1722</ele>
        <time>2020-07-29T08:27:30.000Z</time>
      </trkpt>
      <trkpt lat="42.91012" lon="0.17965">
        <ele>1722</ele>
        <time>2020-07-29T08:27:31.000Z</time>
      </trkpt>
      <trkpt lat="42.91012" lon="0.17962">
        <ele>1722</ele>
        <time>2020-07-29T08:27:32.000Z</time>
      </trkpt>
      <trkpt lat="42.91013" lon="0.17958">
        <ele>1723</ele>
        <time>2020-07-29T08:27:33.000Z</time>
      </trkpt>
      <trkpt lat="42.91014" lon="0.17954">
        <ele>1723</ele>
        <time>2020-07-29T08:27:34.000Z</time>
      </trkpt>
      <trkpt lat="42.91015" lon="0.17951">
        <ele>1724</ele>
        <time>2020-07-29T08:27:35.000Z</time>
      </trkpt>
      <trkpt lat="42.91017" lon="0.17948">
        <ele>1723</ele>
        <time>2020-07-29T08:27:36.000Z</time>
      </trkpt>
      <trkpt lat="42.91018" lon="0.17945">
        <ele>1723</ele>
        <time>2020-07-29T08:27:37.000Z</time>
      </trkpt>
      <trkpt lat="42.9102" lon="0.17942">
        <ele>1724</ele>
        <time>2020-07-29T08:27:38.000Z</time>
      </trkpt>
      <trkpt lat="42.91022" lon="0.17939">
        <ele>1724</ele>
        <time>2020-07-29T08:27:39.000Z</time>
      </trkpt>
      <trkpt lat="42.91024" lon="0.17936">
        <ele>1723</ele>
        <time>2020-07-29T08:27:40.000Z</time>
      </trkpt>
      <trkpt lat="42.91026" lon="0.17934">
        <ele>1724</ele>
        <time>2020-07-29T08:27:41.000Z</time>
      </trkpt>
      <trkpt lat="42.91028" lon="0.17931">
        <ele>1724</ele>
        <time>2020-07-29T08:27:42.000Z</time>
      </trkpt>
      <trkpt lat="42.9103" lon="0.17929">
        <ele>1724</ele>
        <time>2020-07-29T08:27:43.000Z</time>
      </trkpt>
      <trkpt lat="42.91033" lon="0.17927">
        <ele>1725</ele>
        <time>2020-07-29T08:27:44.000Z</time>
      </trkpt>
      <trkpt lat="42.91036" lon="0.17926">
        <ele>1725</ele>
        <time>2020-07-29T08:27:45.000Z</time>
      </trkpt>
      <trkpt lat="42.91039" lon="0.17925">
        <ele>1725</ele>
        <time>2020-07-29T08:27:46.000Z</time>
      </trkpt>
      <trkpt lat="42.91041" lon="0.17924">
        <ele>1724</ele>
        <time>2020-07-29T08:27:47.000Z</time>
      </trkpt>
      <trkpt lat="42.91044" lon="0.17922">
        <ele>1723</ele>
        <time>2020-07-29T08:27:48.000Z</time>
      </trkpt>
      <trkpt lat="42.91046" lon="0.17921">
        <ele>1723</ele>
        <time>2020-07-29T08:27:49.000Z</time>
      </trkpt>
      <trkpt lat="42.91049" lon="0.1792">
        <ele>1723</ele>
        <time>2020-07-29T08:27:50.000Z</time>
      </trkpt>
      <trkpt lat="42.91051" lon="0.1792">
        <ele>1723</ele>
        <time>2020-07-29T08:27:51.000Z</time>
      </trkpt>
      <trkpt lat="42.91054" lon="0.17919">
        <ele>1723</ele>
        <time>2020-07-29T08:27:52.000Z</time>
      </trkpt>
      <trkpt lat="42.91057" lon="0.17918">
        <ele>1723</ele>
        <time>2020-07-29T08:27:53.000Z</time>
      </trkpt>
      <trkpt lat="42.91059" lon="0.17917">
        <ele>1724</ele>
        <time>2020-07-29T08:27:54.000Z</time>
      </trkpt>
      <trkpt lat="42.91062" lon="0.17916">
        <ele>1723</ele>
        <time>2020-07-29T08:27:55.000Z</time>
      </trkpt>
      <trkpt lat="42.91065" lon="0.17915">
        <ele>1722</ele>
        <time>2020-07-29T08:27:56.000Z</time>
      </trkpt>
      <trkpt lat="42.91068" lon="0.17914">
        <ele>1723</ele>
        <time>2020-07-29T08:27:57.000Z</time>
      </trkpt>
      <trkpt lat="42.9107" lon="0.17913">
        <ele>1722</ele>
        <time>2020-07-29T08:27:58.000Z</time>
      </trkpt>
      <trkpt lat="42.91073" lon="0.17913">
        <ele>1723</ele>
        <time>2020-07-29T08:27:59.000Z</time>
      </trkpt>
      <trkpt lat="42.91076" lon="0.17912">
        <ele>1723</ele>
        <time>2020-07-29T08:28:00.000Z</time>
      </trkpt>
      <trkpt lat="42.91079" lon="0.17912">
        <ele>1723</ele>
        <time>2020-07-29T08:28:01.000Z</time>
      </trkpt>
      <trkpt lat="42.91082" lon="0.17912">
        <ele>1723</ele>
        <time>2020-07-29T08:28:02.000Z</time>
      </trkpt>
      <trkpt lat="42.91084" lon="0.17911">
        <ele>1722</ele>
        <time>2020-07-29T08:28:03.000Z</time>
      </trkpt>
      <trkpt lat="42.91087" lon="0.1791">
        <ele>1722</ele>
        <time>2020-07-29T08:28:04.000Z</time>
      </trkpt>
      <trkpt lat="42.9109" lon="0.1791">
        <ele>1719</ele>
        <time>2020-07-29T08:28:05.000Z</time>
      </trkpt>
      <trkpt lat="42.91093" lon="0.1791">
        <ele>1719</ele>
        <time>2020-07-29T08:28:06.000Z</time>
      </trkpt>
      <trkpt lat="42.91096" lon="0.1791">
        <ele>1717</ele>
        <time>2020-07-29T08:28:07.000Z</time>
      </trkpt>
      <trkpt lat="42.91098" lon="0.17909">
        <ele>1718</ele>
        <time>2020-07-29T08:28:08.000Z</time>
      </trkpt>
      <trkpt lat="42.91101" lon="0.17907">
        <ele>1717</ele>
        <time>2020-07-29T08:28:09.000Z</time>
      </trkpt>
      <trkpt lat="42.91103" lon="0.17906">
        <ele>1716</ele>
        <time>2020-07-29T08:28:10.000Z</time>
      </trkpt>
      <trkpt lat="42.91105" lon="0.17904">
        <ele>1714</ele>
        <time>2020-07-29T08:28:11.000Z</time>
      </trkpt>
      <trkpt lat="42.91107" lon="0.17902">
        <ele>1714</ele>
        <time>2020-07-29T08:28:12.000Z</time>
      </trkpt>
      <trkpt lat="42.9111" lon="0.179">
        <ele>1715</ele>
        <time>2020-07-29T08:28:13.000Z</time>
      </trkpt>
      <trkpt lat="42.91111" lon="0.17897">
        <ele>1716</ele>
        <time>2020-07-29T08:28:14.000Z</time>
      </trkpt>
      <trkpt lat="42.91113" lon="0.17894">
        <ele>1719</ele>
        <time>2020-07-29T08:28:15.000Z</time>
      </trkpt>
      <trkpt lat="42.91114" lon="0.17891">
        <ele>1719</ele>
        <time>2020-07-29T08:28:16.000Z</time>
      </trkpt>
      <trkpt lat="42.91116" lon="0.17888">
        <ele>1718</ele>
        <time>2020-07-29T08:28:17.000Z</time>
      </trkpt>
      <trkpt lat="42.91117" lon="0.17885">
        <ele>1718</ele>
        <time>2020-07-29T08:28:18.000Z</time>
      </trkpt>
      <trkpt lat="42.91118" lon="0.17882">
        <ele>1717</ele>
        <time>2020-07-29T08:28:19.000Z</time>
      </trkpt>
      <trkpt lat="42.91119" lon="0.17879">
        <ele>1718</ele>
        <time>2020-07-29T08:28:20.000Z</time>
      </trkpt>
      <trkpt lat="42.9112" lon="0.17875">
        <ele>1719</ele>
        <time>2020-07-29T08:28:21.000Z</time>
      </trkpt>
      <trkpt lat="42.91121" lon="0.17872">
        <ele>1719</ele>
        <time>2020-07-29T08:28:22.000Z</time>
      </trkpt>
      <trkpt lat="42.91122" lon="0.17868">
        <ele>1720</ele>
        <time>2020-07-29T08:28:23.000Z</time>
      </trkpt>
      <trkpt lat="42.91123" lon="0.17864">
        <ele>1719</ele>
        <time>2020-07-29T08:28:24.000Z</time>
      </trkpt>
      <trkpt lat="42.91123" lon="0.17861">
        <ele>1719</ele>
        <time>2020-07-29T08:28:25.000Z</time>
      </trkpt>
      <trkpt lat="42.91124" lon="0.17858">
        <ele>1719</ele>
        <time>2020-07-29T08:28:26.000Z</time>
      </trkpt>
      <trkpt lat="42.91124" lon="0.17854">
        <ele>1719</ele>
        <time>2020-07-29T08:28:27.000Z</time>
      </trkpt>
      <trkpt lat="42.91124" lon="0.17851">
        <ele>1721</ele>
        <time>2020-07-29T08:28:28.000Z</time>
      </trkpt>
      <trkpt lat="42.91124" lon="0.17847">
        <ele>1722</ele>
        <time>2020-07-29T08:28:29.000Z</time>
      </trkpt>
      <trkpt lat="42.91124" lon="0.17843">
        <ele>1722</ele>
        <time>2020-07-29T08:28:30.000Z</time>
      </trkpt>
      <trkpt lat="42.91124" lon="0.17839">
        <ele>1724</ele>
        <time>2020-07-29T08:28:31.000Z</time>
      </trkpt>
      <trkpt lat="42.91124" lon="0.17835">
        <ele>1724</ele>
        <time>2020-07-29T08:28:32.000Z</time>
      </trkpt>
      <trkpt lat="42.91124" lon="0.1783">
        <ele>1724</ele>
        <time>2020-07-29T08:28:33.000Z</time>
      </trkpt>
      <trkpt lat="42.91124" lon="0.17827">
        <ele>1724</ele>
        <time>2020-07-29T08:28:34.000Z</time>
      </trkpt>
      <trkpt lat="42.91124" lon="0.17823">
        <ele>1724</ele>
        <time>2020-07-29T08:28:35.000Z</time>
      </trkpt>
      <trkpt lat="42.91124" lon="0.1782">
        <ele>1725</ele>
        <time>2020-07-29T08:28:36.000Z</time>
      </trkpt>
      <trkpt lat="42.91124" lon="0.17816">
        <ele>1726</ele>
        <time>2020-07-29T08:28:37.000Z</time>
      </trkpt>
      <trkpt lat="42.91123" lon="0.17812">
        <ele>1727</ele>
        <time>2020-07-29T08:28:38.000Z</time>
      </trkpt>
      <trkpt lat="42.91123" lon="0.17807">
        <ele>1727</ele>
        <time>2020-07-29T08:28:39.000Z</time>
      </trkpt>
      <trkpt lat="42.91123" lon="0.17804">
        <ele>1728</ele>
        <time>2020-07-29T08:28:40.000Z</time>
      </trkpt>
      <trkpt lat="42.91123" lon="0.178">
        <ele>1728</ele>
        <time>2020-07-29T08:28:41.000Z</time>
      </trkpt>
      <trkpt lat="42.91123" lon="0.17796">
        <ele>1728</ele>
        <time>2020-07-29T08:28:42.000Z</time>
      </trkpt>
      <trkpt lat="42.91123" lon="0.17792">
        <ele>1729</ele>
        <time>2020-07-29T08:28:43.000Z</time>
      </trkpt>
      <trkpt lat="42.91123" lon="0.17788">
        <ele>1729</ele>
        <time>2020-07-29T08:28:44.000Z</time>
      </trkpt>
      <trkpt lat="42.91123" lon="0.17784">
        <ele>1729</ele>
        <time>2020-07-29T08:28:45.000Z</time>
      </trkpt>
      <trkpt lat="42.91122" lon="0.17781">
        <ele>1730</ele>
        <time>2020-07-29T08:28:46.000Z</time>
      </trkpt>
      <trkpt lat="42.91122" lon="0.17777">
        <ele>1731</ele>
        <time>2020-07-29T08:28:47.000Z</time>
      </trkpt>
      <trkpt lat="42.91121" lon="0.17773">
        <ele>1731</ele>
        <time>2020-07-29T08:28:48.000Z</time>
      </trkpt>
      <trkpt lat="42.91121" lon="0.1777">
        <ele>1729</ele>
        <time>2020-07-29T08:28:49.000Z</time>
      </trkpt>
      <trkpt lat="42.9112" lon="0.17766">
        <ele>1729</ele>
        <time>2020-07-29T08:28:50.000Z</time>
      </trkpt>
      <trkpt lat="42.9112" lon="0.17763">
        <ele>1730</ele>
        <time>2020-07-29T08:28:51.000Z</time>
      </trkpt>
      <trkpt lat="42.9112" lon="0.1776">
        <ele>1730</ele>
        <time>2020-07-29T08:28:52.000Z</time>
      </trkpt>
      <trkpt lat="42.9112" lon="0.17756">
        <ele>1729</ele>
        <time>2020-07-29T08:28:53.000Z</time>
      </trkpt>
      <trkpt lat="42.91119" lon="0.17753">
        <ele>1730</ele>
        <time>2020-07-29T08:28:54.000Z</time>
      </trkpt>
      <trkpt lat="42.91118" lon="0.1775">
        <ele>1732</ele>
        <time>2020-07-29T08:28:55.000Z</time>
      </trkpt>
      <trkpt lat="42.91117" lon="0.17747">
        <ele>1734</ele>
        <time>2020-07-29T08:28:56.000Z</time>
      </trkpt>
      <trkpt lat="42.91115" lon="0.17744">
        <ele>1734</ele>
        <time>2020-07-29T08:28:57.000Z</time>
      </trkpt>
      <trkpt lat="42.91114" lon="0.17742">
        <ele>1733</ele>
        <time>2020-07-29T08:28:58.000Z</time>
      </trkpt>
      <trkpt lat="42.91113" lon="0.17739">
        <ele>1735</ele>
        <time>2020-07-29T08:28:59.000Z</time>
      </trkpt>
      <trkpt lat="42.91112" lon="0.17736">
        <ele>1736</ele>
        <time>2020-07-29T08:29:00.000Z</time>
      </trkpt>
      <trkpt lat="42.91112" lon="0.17732">
        <ele>1736</ele>
        <time>2020-07-29T08:29:01.000Z</time>
      </trkpt>
      <trkpt lat="42.91111" lon="0.17729">
        <ele>1737</ele>
        <time>2020-07-29T08:29:02.000Z</time>
      </trkpt>
      <trkpt lat="42.9111" lon="0.17725">
        <ele>1739</ele>
        <time>2020-07-29T08:29:03.000Z</time>
      </trkpt>
      <trkpt lat="42.91109" lon="0.17721">
        <ele>1741</ele>
        <time>2020-07-29T08:29:04.000Z</time>
      </trkpt>
      <trkpt lat="42.91107" lon="0.17718">
        <ele>1742</ele>
        <time>2020-07-29T08:29:05.000Z</time>
      </trkpt>
      <trkpt lat="42.91106" lon="0.17714">
        <ele>1743</ele>
        <time>2020-07-29T08:29:06.000Z</time>
      </trkpt>
      <trkpt lat="42.91105" lon="0.17711">
        <ele>1745</ele>
        <time>2020-07-29T08:29:07.000Z</time>
      </trkpt>
      <trkpt lat="42.91103" lon="0.17708">
        <ele>1746</ele>
        <time>2020-07-29T08:29:08.000Z</time>
      </trkpt>
      <trkpt lat="42.91102" lon="0.17705">
        <ele>1747</ele>
        <time>2020-07-29T08:29:09.000Z</time>
      </trkpt>
      <trkpt lat="42.91101" lon="0.17702">
        <ele>1749</ele>
        <time>2020-07-29T08:29:10.000Z</time>
      </trkpt>
      <trkpt lat="42.91099" lon="0.17699">
        <ele>1750</ele>
        <time>2020-07-29T08:29:11.000Z</time>
      </trkpt>
      <trkpt lat="42.91098" lon="0.17696">
        <ele>1752</ele>
        <time>2020-07-29T08:29:12.000Z</time>
      </trkpt>
      <trkpt lat="42.91097" lon="0.17692">
        <ele>1754</ele>
        <time>2020-07-29T08:29:13.000Z</time>
      </trkpt>
      <trkpt lat="42.91095" lon="0.17689">
        <ele>1755</ele>
        <time>2020-07-29T08:29:14.000Z</time>
      </trkpt>
      <trkpt lat="42.91094" lon="0.17686">
        <ele>1757</ele>
        <time>2020-07-29T08:29:15.000Z</time>
      </trkpt>
      <trkpt lat="42.91092" lon="0.17683">
        <ele>1758</ele>
        <time>2020-07-29T08:29:16.000Z</time>
      </trkpt>
      <trkpt lat="42.91091" lon="0.1768">
        <ele>1759</ele>
        <time>2020-07-29T08:29:17.000Z</time>
      </trkpt>
      <trkpt lat="42.9109" lon="0.17678">
        <ele>1760</ele>
        <time>2020-07-29T08:29:18.000Z</time>
      </trkpt>
      <trkpt lat="42.91089" lon="0.17675">
        <ele>1761</ele>
        <time>2020-07-29T08:29:19.000Z</time>
      </trkpt>
      <trkpt lat="42.91088" lon="0.17672">
        <ele>1761</ele>
        <time>2020-07-29T08:29:20.000Z</time>
      </trkpt>
      <trkpt lat="42.91086" lon="0.17669">
        <ele>1763</ele>
        <time>2020-07-29T08:29:21.000Z</time>
      </trkpt>
      <trkpt lat="42.91085" lon="0.17667">
        <ele>1764</ele>
        <time>2020-07-29T08:29:22.000Z</time>
      </trkpt>
      <trkpt lat="42.91083" lon="0.17665">
        <ele>1764</ele>
        <time>2020-07-29T08:29:23.000Z</time>
      </trkpt>
      <trkpt lat="42.91082" lon="0.17663">
        <ele>1764</ele>
        <time>2020-07-29T08:29:24.000Z</time>
      </trkpt>
      <trkpt lat="42.91081" lon="0.1766">
        <ele>1766</ele>
        <time>2020-07-29T08:29:25.000Z</time>
      </trkpt>
      <trkpt lat="42.9108" lon="0.17657">
        <ele>1766</ele>
        <time>2020-07-29T08:29:26.000Z</time>
      </trkpt>
      <trkpt lat="42.91078" lon="0.17654">
        <ele>1766</ele>
        <time>2020-07-29T08:29:27.000Z</time>
      </trkpt>
      <trkpt lat="42.91076" lon="0.17652">
        <ele>1765</ele>
        <time>2020-07-29T08:29:28.000Z</time>
      </trkpt>
      <trkpt lat="42.91074" lon="0.17649">
        <ele>1766</ele>
        <time>2020-07-29T08:29:29.000Z</time>
      </trkpt>
      <trkpt lat="42.91072" lon="0.17647">
        <ele>1765</ele>
        <time>2020-07-29T08:29:30.000Z</time>
      </trkpt>
      <trkpt lat="42.9107" lon="0.17644">
        <ele>1764</ele>
        <time>2020-07-29T08:29:31.000Z</time>
      </trkpt>
      <trkpt lat="42.91069" lon="0.1764">
        <ele>1763</ele>
        <time>2020-07-29T08:29:32.000Z</time>
      </trkpt>
      <trkpt lat="42.91068" lon="0.17635">
        <ele>1760</ele>
        <time>2020-07-29T08:29:33.000Z</time>
      </trkpt>
      <trkpt lat="42.91068" lon="0.17631">
        <ele>1759</ele>
        <time>2020-07-29T08:29:34.000Z</time>
      </trkpt>
      <trkpt lat="42.91067" lon="0.17626">
        <ele>1758</ele>
        <time>2020-07-29T08:29:35.000Z</time>
      </trkpt>
      <trkpt lat="42.91066" lon="0.17622">
        <ele>1757</ele>
        <time>2020-07-29T08:29:36.000Z</time>
      </trkpt>
      <trkpt lat="42.91066" lon="0.17619">
        <ele>1756</ele>
        <time>2020-07-29T08:29:37.000Z</time>
      </trkpt>
      <trkpt lat="42.91065" lon="0.17615">
        <ele>1756</ele>
        <time>2020-07-29T08:29:38.000Z</time>
      </trkpt>
      <trkpt lat="42.91064" lon="0.17612">
        <ele>1756</ele>
        <time>2020-07-29T08:29:39.000Z</time>
      </trkpt>
      <trkpt lat="42.91064" lon="0.17608">
        <ele>1756</ele>
        <time>2020-07-29T08:29:40.000Z</time>
      </trkpt>
      <trkpt lat="42.91063" lon="0.17604">
        <ele>1756</ele>
        <time>2020-07-29T08:29:41.000Z</time>
      </trkpt>
      <trkpt lat="42.91063" lon="0.176">
        <ele>1755</ele>
        <time>2020-07-29T08:29:42.000Z</time>
      </trkpt>
      <trkpt lat="42.91062" lon="0.17596">
        <ele>1756</ele>
        <time>2020-07-29T08:29:43.000Z</time>
      </trkpt>
      <trkpt lat="42.91062" lon="0.17592">
        <ele>1756</ele>
        <time>2020-07-29T08:29:44.000Z</time>
      </trkpt>
      <trkpt lat="42.91062" lon="0.17589">
        <ele>1755</ele>
        <time>2020-07-29T08:29:45.000Z</time>
      </trkpt>
      <trkpt lat="42.91062" lon="0.17585">
        <ele>1756</ele>
        <time>2020-07-29T08:29:46.000Z</time>
      </trkpt>
      <trkpt lat="42.91062" lon="0.17581">
        <ele>1756</ele>
        <time>2020-07-29T08:29:47.000Z</time>
      </trkpt>
      <trkpt lat="42.91063" lon="0.17578">
        <ele>1756</ele>
        <time>2020-07-29T08:29:48.000Z</time>
      </trkpt>
      <trkpt lat="42.91063" lon="0.17574">
        <ele>1757</ele>
        <time>2020-07-29T08:29:49.000Z</time>
      </trkpt>
      <trkpt lat="42.91063" lon="0.1757">
        <ele>1757</ele>
        <time>2020-07-29T08:29:50.000Z</time>
      </trkpt>
      <trkpt lat="42.91063" lon="0.17566">
        <ele>1757</ele>
        <time>2020-07-29T08:29:51.000Z</time>
      </trkpt>
      <trkpt lat="42.91063" lon="0.17563">
        <ele>1758</ele>
        <time>2020-07-29T08:29:52.000Z</time>
      </trkpt>
      <trkpt lat="42.91063" lon="0.1756">
        <ele>1758</ele>
        <time>2020-07-29T08:29:53.000Z</time>
      </trkpt>
      <trkpt lat="42.91063" lon="0.17556">
        <ele>1758</ele>
        <time>2020-07-29T08:29:54.000Z</time>
      </trkpt>
      <trkpt lat="42.91064" lon="0.17553">
        <ele>1758</ele>
        <time>2020-07-29T08:29:55.000Z</time>
      </trkpt>
      <trkpt lat="42.91064" lon="0.17549">
        <ele>1759</ele>
        <time>2020-07-29T08:29:56.000Z</time>
      </trkpt>
      <trkpt lat="42.91064" lon="0.17546">
        <ele>1760</ele>
        <time>2020-07-29T08:29:57.000Z</time>
      </trkpt>
      <trkpt lat="42.91064" lon="0.17543">
        <ele>1760</ele>
        <time>2020-07-29T08:29:58.000Z</time>
      </trkpt>
      <trkpt lat="42.91065" lon="0.17539">
        <ele>1760</ele>
        <time>2020-07-29T08:29:59.000Z</time>
      </trkpt>
      <trkpt lat="42.91065" lon="0.17536">
        <ele>1761</ele>
        <time>2020-07-29T08:30:00.000Z</time>
      </trkpt>
      <trkpt lat="42.91065" lon="0.17532">
        <ele>1761</ele>
        <time>2020-07-29T08:30:01.000Z</time>
      </trkpt>
      <trkpt lat="42.91065" lon="0.17528">
        <ele>1759</ele>
        <time>2020-07-29T08:30:02.000Z</time>
      </trkpt>
      <trkpt lat="42.91066" lon="0.17525">
        <ele>1759</ele>
        <time>2020-07-29T08:30:03.000Z</time>
      </trkpt>
      <trkpt lat="42.91066" lon="0.17522">
        <ele>1760</ele>
        <time>2020-07-29T08:30:04.000Z</time>
      </trkpt>
      <trkpt lat="42.91066" lon="0.17518">
        <ele>1759</ele>
        <time>2020-07-29T08:30:05.000Z</time>
      </trkpt>
      <trkpt lat="42.91066" lon="0.17515">
        <ele>1760</ele>
        <time>2020-07-29T08:30:06.000Z</time>
      </trkpt>
      <trkpt lat="42.91066" lon="0.17511">
        <ele>1760</ele>
        <time>2020-07-29T08:30:07.000Z</time>
      </trkpt>
      <trkpt lat="42.91066" lon="0.17508">
        <ele>1761</ele>
        <time>2020-07-29T08:30:08.000Z</time>
      </trkpt>
      <trkpt lat="42.91066" lon="0.17505">
        <ele>1761</ele>
        <time>2020-07-29T08:30:09.000Z</time>
      </trkpt>
      <trkpt lat="42.91066" lon="0.17501">
        <ele>1761</ele>
        <time>2020-07-29T08:30:10.000Z</time>
      </trkpt>
      <trkpt lat="42.91065" lon="0.17498">
        <ele>1761</ele>
        <time>2020-07-29T08:30:11.000Z</time>
      </trkpt>
      <trkpt lat="42.91065" lon="0.17494">
        <ele>1761</ele>
        <time>2020-07-29T08:30:12.000Z</time>
      </trkpt>
      <trkpt lat="42.91065" lon="0.17491">
        <ele>1762</ele>
        <time>2020-07-29T08:30:13.000Z</time>
      </trkpt>
      <trkpt lat="42.91065" lon="0.17487">
        <ele>1763</ele>
        <time>2020-07-29T08:30:14.000Z</time>
      </trkpt>
      <trkpt lat="42.91065" lon="0.17484">
        <ele>1763</ele>
        <time>2020-07-29T08:30:15.000Z</time>
      </trkpt>
      <trkpt lat="42.91064" lon="0.1748">
        <ele>1764</ele>
        <time>2020-07-29T08:30:16.000Z</time>
      </trkpt>
      <trkpt lat="42.91064" lon="0.17477">
        <ele>1765</ele>
        <time>2020-07-29T08:30:17.000Z</time>
      </trkpt>
      <trkpt lat="42.91064" lon="0.17473">
        <ele>1766</ele>
        <time>2020-07-29T08:30:18.000Z</time>
      </trkpt>
      <trkpt lat="42.91064" lon="0.1747">
        <ele>1767</ele>
        <time>2020-07-29T08:30:19.000Z</time>
      </trkpt>
      <trkpt lat="42.91064" lon="0.17466">
        <ele>1767</ele>
        <time>2020-07-29T08:30:20.000Z</time>
      </trkpt>
      <trkpt lat="42.91064" lon="0.17463">
        <ele>1767</ele>
        <time>2020-07-29T08:30:21.000Z</time>
      </trkpt>
      <trkpt lat="42.91064" lon="0.17459">
        <ele>1767</ele>
        <time>2020-07-29T08:30:22.000Z</time>
      </trkpt>
      <trkpt lat="42.91063" lon="0.17456">
        <ele>1768</ele>
        <time>2020-07-29T08:30:23.000Z</time>
      </trkpt>
      <trkpt lat="42.91063" lon="0.17452">
        <ele>1767</ele>
        <time>2020-07-29T08:30:24.000Z</time>
      </trkpt>
      <trkpt lat="42.91062" lon="0.17449">
        <ele>1767</ele>
        <time>2020-07-29T08:30:25.000Z</time>
      </trkpt>
      <trkpt lat="42.91062" lon="0.17445">
        <ele>1767</ele>
        <time>2020-07-29T08:30:26.000Z</time>
      </trkpt>
      <trkpt lat="42.91062" lon="0.17441">
        <ele>1768</ele>
        <time>2020-07-29T08:30:27.000Z</time>
      </trkpt>
      <trkpt lat="42.91061" lon="0.17438">
        <ele>1768</ele>
        <time>2020-07-29T08:30:28.000Z</time>
      </trkpt>
      <trkpt lat="42.91061" lon="0.17434">
        <ele>1767</ele>
        <time>2020-07-29T08:30:29.000Z</time>
      </trkpt>
      <trkpt lat="42.9106" lon="0.1743">
        <ele>1767</ele>
        <time>2020-07-29T08:30:30.000Z</time>
      </trkpt>
      <trkpt lat="42.9106" lon="0.17426">
        <ele>1768</ele>
        <time>2020-07-29T08:30:31.000Z</time>
      </trkpt>
      <trkpt lat="42.9106" lon="0.17423">
        <ele>1767</ele>
        <time>2020-07-29T08:30:32.000Z</time>
      </trkpt>
      <trkpt lat="42.9106" lon="0.17419">
        <ele>1768</ele>
        <time>2020-07-29T08:30:33.000Z</time>
      </trkpt>
      <trkpt lat="42.91059" lon="0.17416">
        <ele>1768</ele>
        <time>2020-07-29T08:30:34.000Z</time>
      </trkpt>
      <trkpt lat="42.91058" lon="0.17413">
        <ele>1767</ele>
        <time>2020-07-29T08:30:35.000Z</time>
      </trkpt>
      <trkpt lat="42.91058" lon="0.17409">
        <ele>1766</ele>
        <time>2020-07-29T08:30:36.000Z</time>
      </trkpt>
      <trkpt lat="42.91057" lon="0.17406">
        <ele>1766</ele>
        <time>2020-07-29T08:30:37.000Z</time>
      </trkpt>
      <trkpt lat="42.91057" lon="0.17402">
        <ele>1765</ele>
        <time>2020-07-29T08:30:38.000Z</time>
      </trkpt>
      <trkpt lat="42.91056" lon="0.17399">
        <ele>1766</ele>
        <time>2020-07-29T08:30:39.000Z</time>
      </trkpt>
      <trkpt lat="42.91055" lon="0.17396">
        <ele>1766</ele>
        <time>2020-07-29T08:30:40.000Z</time>
      </trkpt>
      <trkpt lat="42.91054" lon="0.17392">
        <ele>1765</ele>
        <time>2020-07-29T08:30:41.000Z</time>
      </trkpt>
      <trkpt lat="42.91054" lon="0.17389">
        <ele>1766</ele>
        <time>2020-07-29T08:30:42.000Z</time>
      </trkpt>
      <trkpt lat="42.91053" lon="0.17385">
        <ele>1766</ele>
        <time>2020-07-29T08:30:43.000Z</time>
      </trkpt>
      <trkpt lat="42.91052" lon="0.17382">
        <ele>1766</ele>
        <time>2020-07-29T08:30:44.000Z</time>
      </trkpt>
      <trkpt lat="42.91051" lon="0.17378">
        <ele>1767</ele>
        <time>2020-07-29T08:30:45.000Z</time>
      </trkpt>
      <trkpt lat="42.9105" lon="0.17375">
        <ele>1766</ele>
        <time>2020-07-29T08:30:46.000Z</time>
      </trkpt>
      <trkpt lat="42.91049" lon="0.17372">
        <ele>1767</ele>
        <time>2020-07-29T08:30:47.000Z</time>
      </trkpt>
      <trkpt lat="42.91048" lon="0.17368">
        <ele>1767</ele>
        <time>2020-07-29T08:30:48.000Z</time>
      </trkpt>
      <trkpt lat="42.91047" lon="0.17365">
        <ele>1767</ele>
        <time>2020-07-29T08:30:49.000Z</time>
      </trkpt>
      <trkpt lat="42.91046" lon="0.17362">
        <ele>1768</ele>
        <time>2020-07-29T08:30:50.000Z</time>
      </trkpt>
      <trkpt lat="42.91045" lon="0.17359">
        <ele>1768</ele>
        <time>2020-07-29T08:30:51.000Z</time>
      </trkpt>
      <trkpt lat="42.91044" lon="0.17356">
        <ele>1769</ele>
        <time>2020-07-29T08:30:52.000Z</time>
      </trkpt>
      <trkpt lat="42.91042" lon="0.17353">
        <ele>1768</ele>
        <time>2020-07-29T08:30:53.000Z</time>
      </trkpt>
      <trkpt lat="42.91041" lon="0.1735">
        <ele>1769</ele>
        <time>2020-07-29T08:30:54.000Z</time>
      </trkpt>
      <trkpt lat="42.9104" lon="0.17347">
        <ele>1770</ele>
        <time>2020-07-29T08:30:55.000Z</time>
      </trkpt>
      <trkpt lat="42.91039" lon="0.17343">
        <ele>1770</ele>
        <time>2020-07-29T08:30:56.000Z</time>
      </trkpt>
      <trkpt lat="42.91038" lon="0.1734">
        <ele>1771</ele>
        <time>2020-07-29T08:30:57.000Z</time>
      </trkpt>
      <trkpt lat="42.91037" lon="0.17337">
        <ele>1771</ele>
        <time>2020-07-29T08:30:58.000Z</time>
      </trkpt>
      <trkpt lat="42.91036" lon="0.17334">
        <ele>1771</ele>
        <time>2020-07-29T08:30:59.000Z</time>
      </trkpt>
      <trkpt lat="42.91035" lon="0.1733">
        <ele>1771</ele>
        <time>2020-07-29T08:31:00.000Z</time>
      </trkpt>
      <trkpt lat="42.91035" lon="0.17327">
        <ele>1772</ele>
        <time>2020-07-29T08:31:01.000Z</time>
      </trkpt>
      <trkpt lat="42.91034" lon="0.17324">
        <ele>1773</ele>
        <time>2020-07-29T08:31:02.000Z</time>
      </trkpt>
      <trkpt lat="42.91034" lon="0.1732">
        <ele>1774</ele>
        <time>2020-07-29T08:31:03.000Z</time>
      </trkpt>
      <trkpt lat="42.91033" lon="0.17317">
        <ele>1774</ele>
        <time>2020-07-29T08:31:04.000Z</time>
      </trkpt>
      <trkpt lat="42.91033" lon="0.17313">
        <ele>1775</ele>
        <time>2020-07-29T08:31:05.000Z</time>
      </trkpt>
      <trkpt lat="42.91033" lon="0.1731">
        <ele>1775</ele>
        <time>2020-07-29T08:31:06.000Z</time>
      </trkpt>
      <trkpt lat="42.91033" lon="0.17307">
        <ele>1775</ele>
        <time>2020-07-29T08:31:07.000Z</time>
      </trkpt>
      <trkpt lat="42.91032" lon="0.17304">
        <ele>1776</ele>
        <time>2020-07-29T08:31:08.000Z</time>
      </trkpt>
      <trkpt lat="42.91032" lon="0.173">
        <ele>1775</ele>
        <time>2020-07-29T08:31:09.000Z</time>
      </trkpt>
      <trkpt lat="42.91032" lon="0.17297">
        <ele>1776</ele>
        <time>2020-07-29T08:31:10.000Z</time>
      </trkpt>
      <trkpt lat="42.91032" lon="0.17293">
        <ele>1777</ele>
        <time>2020-07-29T08:31:11.000Z</time>
      </trkpt>
      <trkpt lat="42.91032" lon="0.1729">
        <ele>1776</ele>
        <time>2020-07-29T08:31:12.000Z</time>
      </trkpt>
      <trkpt lat="42.91032" lon="0.17286">
        <ele>1777</ele>
        <time>2020-07-29T08:31:13.000Z</time>
      </trkpt>
      <trkpt lat="42.91032" lon="0.17283">
        <ele>1777</ele>
        <time>2020-07-29T08:31:14.000Z</time>
      </trkpt>
      <trkpt lat="42.91032" lon="0.17279">
        <ele>1778</ele>
        <time>2020-07-29T08:31:15.000Z</time>
      </trkpt>
      <trkpt lat="42.91032" lon="0.17276">
        <ele>1778</ele>
        <time>2020-07-29T08:31:16.000Z</time>
      </trkpt>
      <trkpt lat="42.91032" lon="0.17273">
        <ele>1778</ele>
        <time>2020-07-29T08:31:17.000Z</time>
      </trkpt>
      <trkpt lat="42.91032" lon="0.17269">
        <ele>1779</ele>
        <time>2020-07-29T08:31:18.000Z</time>
      </trkpt>
      <trkpt lat="42.91033" lon="0.17266">
        <ele>1779</ele>
        <time>2020-07-29T08:31:19.000Z</time>
      </trkpt>
      <trkpt lat="42.91033" lon="0.17263">
        <ele>1779</ele>
        <time>2020-07-29T08:31:20.000Z</time>
      </trkpt>
      <trkpt lat="42.91033" lon="0.17259">
        <ele>1779</ele>
        <time>2020-07-29T08:31:21.000Z</time>
      </trkpt>
      <trkpt lat="42.91033" lon="0.17256">
        <ele>1779</ele>
        <time>2020-07-29T08:31:22.000Z</time>
      </trkpt>
      <trkpt lat="42.91034" lon="0.17252">
        <ele>1780</ele>
        <time>2020-07-29T08:31:23.000Z</time>
      </trkpt>
      <trkpt lat="42.91034" lon="0.17249">
        <ele>1780</ele>
        <time>2020-07-29T08:31:24.000Z</time>
      </trkpt>
      <trkpt lat="42.91034" lon="0.17245">
        <ele>1781</ele>
        <time>2020-07-29T08:31:25.000Z</time>
      </trkpt>
      <trkpt lat="42.91034" lon="0.17241">
        <ele>1781</ele>
        <time>2020-07-29T08:31:26.000Z</time>
      </trkpt>
      <trkpt lat="42.91034" lon="0.17238">
        <ele>1781</ele>
        <time>2020-07-29T08:31:27.000Z</time>
      </trkpt>
      <trkpt lat="42.91035" lon="0.17234">
        <ele>1781</ele>
        <time>2020-07-29T08:31:28.000Z</time>
      </trkpt>
      <trkpt lat="42.91035" lon="0.1723">
        <ele>1781</ele>
        <time>2020-07-29T08:31:29.000Z</time>
      </trkpt>
      <trkpt lat="42.91035" lon="0.17227">
        <ele>1782</ele>
        <time>2020-07-29T08:31:30.000Z</time>
      </trkpt>
      <trkpt lat="42.91036" lon="0.17223">
        <ele>1782</ele>
        <time>2020-07-29T08:31:31.000Z</time>
      </trkpt>
      <trkpt lat="42.91036" lon="0.1722">
        <ele>1782</ele>
        <time>2020-07-29T08:31:32.000Z</time>
      </trkpt>
      <trkpt lat="42.91036" lon="0.17216">
        <ele>1783</ele>
        <time>2020-07-29T08:31:33.000Z</time>
      </trkpt>
      <trkpt lat="42.91036" lon="0.17212">
        <ele>1783</ele>
        <time>2020-07-29T08:31:34.000Z</time>
      </trkpt>
      <trkpt lat="42.91037" lon="0.17209">
        <ele>1784</ele>
        <time>2020-07-29T08:31:35.000Z</time>
      </trkpt>
      <trkpt lat="42.91037" lon="0.17205">
        <ele>1783</ele>
        <time>2020-07-29T08:31:36.000Z</time>
      </trkpt>
      <trkpt lat="42.91037" lon="0.17202">
        <ele>1782</ele>
        <time>2020-07-29T08:31:37.000Z</time>
      </trkpt>
      <trkpt lat="42.91037" lon="0.17198">
        <ele>1783</ele>
        <time>2020-07-29T08:31:38.000Z</time>
      </trkpt>
      <trkpt lat="42.91038" lon="0.17195">
        <ele>1783</ele>
        <time>2020-07-29T08:31:39.000Z</time>
      </trkpt>
      <trkpt lat="42.91038" lon="0.17191">
        <ele>1782</ele>
        <time>2020-07-29T08:31:40.000Z</time>
      </trkpt>
      <trkpt lat="42.91038" lon="0.17188">
        <ele>1782</ele>
        <time>2020-07-29T08:31:41.000Z</time>
      </trkpt>
      <trkpt lat="42.91038" lon="0.17184">
        <ele>1783</ele>
        <time>2020-07-29T08:31:42.000Z</time>
      </trkpt>
      <trkpt lat="42.91038" lon="0.17181">
        <ele>1784</ele>
        <time>2020-07-29T08:31:43.000Z</time>
      </trkpt>
      <trkpt lat="42.91037" lon="0.17177">
        <ele>1783</ele>
        <time>2020-07-29T08:31:44.000Z</time>
      </trkpt>
      <trkpt lat="42.91037" lon="0.17174">
        <ele>1782</ele>
        <time>2020-07-29T08:31:45.000Z</time>
      </trkpt>
      <trkpt lat="42.91037" lon="0.17171">
        <ele>1782</ele>
        <time>2020-07-29T08:31:46.000Z</time>
      </trkpt>
      <trkpt lat="42.91037" lon="0.17167">
        <ele>1782</ele>
        <time>2020-07-29T08:31:47.000Z</time>
      </trkpt>
      <trkpt lat="42.91037" lon="0.17164">
        <ele>1782</ele>
        <time>2020-07-29T08:31:48.000Z</time>
      </trkpt>
      <trkpt lat="42.91037" lon="0.17161">
        <ele>1783</ele>
        <time>2020-07-29T08:31:49.000Z</time>
      </trkpt>
      <trkpt lat="42.91037" lon="0.17157">
        <ele>1783</ele>
        <time>2020-07-29T08:31:50.000Z</time>
      </trkpt>
      <trkpt lat="42.91037" lon="0.17154">
        <ele>1783</ele>
        <time>2020-07-29T08:31:51.000Z</time>
      </trkpt>
      <trkpt lat="42.91038" lon="0.17151">
        <ele>1785</ele>
        <time>2020-07-29T08:31:52.000Z</time>
      </trkpt>
      <trkpt lat="42.91038" lon="0.17147">
        <ele>1785</ele>
        <time>2020-07-29T08:31:53.000Z</time>
      </trkpt>
      <trkpt lat="42.91038" lon="0.17144">
        <ele>1786</ele>
        <time>2020-07-29T08:31:54.000Z</time>
      </trkpt>
      <trkpt lat="42.91038" lon="0.1714">
        <ele>1786</ele>
        <time>2020-07-29T08:31:55.000Z</time>
      </trkpt>
      <trkpt lat="42.91038" lon="0.17136">
        <ele>1787</ele>
        <time>2020-07-29T08:31:56.000Z</time>
      </trkpt>
      <trkpt lat="42.91038" lon="0.17133">
        <ele>1788</ele>
        <time>2020-07-29T08:31:57.000Z</time>
      </trkpt>
      <trkpt lat="42.91038" lon="0.1713">
        <ele>1788</ele>
        <time>2020-07-29T08:31:58.000Z</time>
      </trkpt>
      <trkpt lat="42.91038" lon="0.17126">
        <ele>1789</ele>
        <time>2020-07-29T08:31:59.000Z</time>
      </trkpt>
      <trkpt lat="42.91038" lon="0.17123">
        <ele>1789</ele>
        <time>2020-07-29T08:32:00.000Z</time>
      </trkpt>
      <trkpt lat="42.91038" lon="0.17119">
        <ele>1790</ele>
        <time>2020-07-29T08:32:01.000Z</time>
      </trkpt>
      <trkpt lat="42.91038" lon="0.17115">
        <ele>1790</ele>
        <time>2020-07-29T08:32:02.000Z</time>
      </trkpt>
      <trkpt lat="42.91038" lon="0.17112">
        <ele>1790</ele>
        <time>2020-07-29T08:32:03.000Z</time>
      </trkpt>
      <trkpt lat="42.91038" lon="0.17108">
        <ele>1790</ele>
        <time>2020-07-29T08:32:04.000Z</time>
      </trkpt>
      <trkpt lat="42.91038" lon="0.17105">
        <ele>1790</ele>
        <time>2020-07-29T08:32:05.000Z</time>
      </trkpt>
      <trkpt lat="42.91038" lon="0.17101">
        <ele>1791</ele>
        <time>2020-07-29T08:32:06.000Z</time>
      </trkpt>
      <trkpt lat="42.91037" lon="0.17098">
        <ele>1791</ele>
        <time>2020-07-29T08:32:07.000Z</time>
      </trkpt>
      <trkpt lat="42.91037" lon="0.17094">
        <ele>1791</ele>
        <time>2020-07-29T08:32:08.000Z</time>
      </trkpt>
      <trkpt lat="42.91037" lon="0.1709">
        <ele>1791</ele>
        <time>2020-07-29T08:32:09.000Z</time>
      </trkpt>
      <trkpt lat="42.91037" lon="0.17087">
        <ele>1791</ele>
        <time>2020-07-29T08:32:10.000Z</time>
      </trkpt>
      <trkpt lat="42.91037" lon="0.17083">
        <ele>1791</ele>
        <time>2020-07-29T08:32:11.000Z</time>
      </trkpt>
      <trkpt lat="42.91036" lon="0.17079">
        <ele>1791</ele>
        <time>2020-07-29T08:32:12.000Z</time>
      </trkpt>
      <trkpt lat="42.91036" lon="0.17076">
        <ele>1791</ele>
        <time>2020-07-29T08:32:13.000Z</time>
      </trkpt>
      <trkpt lat="42.91036" lon="0.17072">
        <ele>1791</ele>
        <time>2020-07-29T08:32:14.000Z</time>
      </trkpt>
      <trkpt lat="42.91036" lon="0.17069">
        <ele>1791</ele>
        <time>2020-07-29T08:32:15.000Z</time>
      </trkpt>
      <trkpt lat="42.91036" lon="0.17065">
        <ele>1791</ele>
        <time>2020-07-29T08:32:16.000Z</time>
      </trkpt>
      <trkpt lat="42.91036" lon="0.17062">
        <ele>1791</ele>
        <time>2020-07-29T08:32:17.000Z</time>
      </trkpt>
      <trkpt lat="42.91036" lon="0.17058">
        <ele>1792</ele>
        <time>2020-07-29T08:32:18.000Z</time>
      </trkpt>
      <trkpt lat="42.91036" lon="0.17055">
        <ele>1791</ele>
        <time>2020-07-29T08:32:19.000Z</time>
      </trkpt>
      <trkpt lat="42.91036" lon="0.17052">
        <ele>1790</ele>
        <time>2020-07-29T08:32:20.000Z</time>
      </trkpt>
      <trkpt lat="42.91036" lon="0.17048">
        <ele>1791</ele>
        <time>2020-07-29T08:32:21.000Z</time>
      </trkpt>
      <trkpt lat="42.91036" lon="0.17045">
        <ele>1790</ele>
        <time>2020-07-29T08:32:22.000Z</time>
      </trkpt>
      <trkpt lat="42.91036" lon="0.17041">
        <ele>1790</ele>
        <time>2020-07-29T08:32:23.000Z</time>
      </trkpt>
      <trkpt lat="42.91036" lon="0.17038">
        <ele>1790</ele>
        <time>2020-07-29T08:32:24.000Z</time>
      </trkpt>
      <trkpt lat="42.91036" lon="0.17034">
        <ele>1792</ele>
        <time>2020-07-29T08:32:25.000Z</time>
      </trkpt>
      <trkpt lat="42.91035" lon="0.1703">
        <ele>1792</ele>
        <time>2020-07-29T08:32:26.000Z</time>
      </trkpt>
      <trkpt lat="42.91035" lon="0.17027">
        <ele>1793</ele>
        <time>2020-07-29T08:32:27.000Z</time>
      </trkpt>
      <trkpt lat="42.91035" lon="0.17023">
        <ele>1793</ele>
        <time>2020-07-29T08:32:28.000Z</time>
      </trkpt>
      <trkpt lat="42.91034" lon="0.1702">
        <ele>1794</ele>
        <time>2020-07-29T08:32:29.000Z</time>
      </trkpt>
      <trkpt lat="42.91034" lon="0.17016">
        <ele>1795</ele>
        <time>2020-07-29T08:32:30.000Z</time>
      </trkpt>
      <trkpt lat="42.91034" lon="0.17013">
        <ele>1796</ele>
        <time>2020-07-29T08:32:31.000Z</time>
      </trkpt>
      <trkpt lat="42.91033" lon="0.17009">
        <ele>1797</ele>
        <time>2020-07-29T08:32:32.000Z</time>
      </trkpt>
      <trkpt lat="42.91033" lon="0.17006">
        <ele>1797</ele>
        <time>2020-07-29T08:32:33.000Z</time>
      </trkpt>
      <trkpt lat="42.91033" lon="0.17002">
        <ele>1798</ele>
        <time>2020-07-29T08:32:34.000Z</time>
      </trkpt>
      <trkpt lat="42.91032" lon="0.16999">
        <ele>1799</ele>
        <time>2020-07-29T08:32:35.000Z</time>
      </trkpt>
      <trkpt lat="42.91032" lon="0.16996">
        <ele>1798</ele>
        <time>2020-07-29T08:32:36.000Z</time>
      </trkpt>
      <trkpt lat="42.91032" lon="0.16992">
        <ele>1798</ele>
        <time>2020-07-29T08:32:37.000Z</time>
      </trkpt>
      <trkpt lat="42.91031" lon="0.16989">
        <ele>1799</ele>
        <time>2020-07-29T08:32:38.000Z</time>
      </trkpt>
      <trkpt lat="42.91031" lon="0.16986">
        <ele>1800</ele>
        <time>2020-07-29T08:32:39.000Z</time>
      </trkpt>
      <trkpt lat="42.9103" lon="0.16982">
        <ele>1801</ele>
        <time>2020-07-29T08:32:40.000Z</time>
      </trkpt>
      <trkpt lat="42.9103" lon="0.16978">
        <ele>1801</ele>
        <time>2020-07-29T08:32:41.000Z</time>
      </trkpt>
      <trkpt lat="42.9103" lon="0.16974">
        <ele>1801</ele>
        <time>2020-07-29T08:32:42.000Z</time>
      </trkpt>
      <trkpt lat="42.9103" lon="0.1697">
        <ele>1802</ele>
        <time>2020-07-29T08:32:43.000Z</time>
      </trkpt>
      <trkpt lat="42.9103" lon="0.16967">
        <ele>1802</ele>
        <time>2020-07-29T08:32:44.000Z</time>
      </trkpt>
      <trkpt lat="42.91029" lon="0.16963">
        <ele>1803</ele>
        <time>2020-07-29T08:32:45.000Z</time>
      </trkpt>
      <trkpt lat="42.91029" lon="0.16959">
        <ele>1803</ele>
        <time>2020-07-29T08:32:46.000Z</time>
      </trkpt>
      <trkpt lat="42.91028" lon="0.16955">
        <ele>1803</ele>
        <time>2020-07-29T08:32:47.000Z</time>
      </trkpt>
      <trkpt lat="42.91027" lon="0.16951">
        <ele>1803</ele>
        <time>2020-07-29T08:32:48.000Z</time>
      </trkpt>
      <trkpt lat="42.91027" lon="0.16948">
        <ele>1804</ele>
        <time>2020-07-29T08:32:49.000Z</time>
      </trkpt>
      <trkpt lat="42.91026" lon="0.16945">
        <ele>1803</ele>
        <time>2020-07-29T08:32:50.000Z</time>
      </trkpt>
      <trkpt lat="42.91025" lon="0.16941">
        <ele>1803</ele>
        <time>2020-07-29T08:32:51.000Z</time>
      </trkpt>
      <trkpt lat="42.91024" lon="0.16938">
        <ele>1802</ele>
        <time>2020-07-29T08:32:52.000Z</time>
      </trkpt>
      <trkpt lat="42.91023" lon="0.16935">
        <ele>1802</ele>
        <time>2020-07-29T08:32:53.000Z</time>
      </trkpt>
      <trkpt lat="42.91022" lon="0.16931">
        <ele>1802</ele>
        <time>2020-07-29T08:32:54.000Z</time>
      </trkpt>
      <trkpt lat="42.91021" lon="0.16928">
        <ele>1802</ele>
        <time>2020-07-29T08:32:55.000Z</time>
      </trkpt>
      <trkpt lat="42.9102" lon="0.16924">
        <ele>1803</ele>
        <time>2020-07-29T08:32:56.000Z</time>
      </trkpt>
      <trkpt lat="42.91019" lon="0.16921">
        <ele>1803</ele>
        <time>2020-07-29T08:32:57.000Z</time>
      </trkpt>
      <trkpt lat="42.91018" lon="0.16918">
        <ele>1802</ele>
        <time>2020-07-29T08:32:58.000Z</time>
      </trkpt>
      <trkpt lat="42.91016" lon="0.16915">
        <ele>1802</ele>
        <time>2020-07-29T08:32:59.000Z</time>
      </trkpt>
      <trkpt lat="42.91015" lon="0.16911">
        <ele>1801</ele>
        <time>2020-07-29T08:33:00.000Z</time>
      </trkpt>
      <trkpt lat="42.91014" lon="0.16908">
        <ele>1801</ele>
        <time>2020-07-29T08:33:01.000Z</time>
      </trkpt>
      <trkpt lat="42.91012" lon="0.16904">
        <ele>1800</ele>
        <time>2020-07-29T08:33:02.000Z</time>
      </trkpt>
      <trkpt lat="42.91011" lon="0.16901">
        <ele>1800</ele>
        <time>2020-07-29T08:33:03.000Z</time>
      </trkpt>
      <trkpt lat="42.9101" lon="0.16898">
        <ele>1801</ele>
        <time>2020-07-29T08:33:04.000Z</time>
      </trkpt>
      <trkpt lat="42.91009" lon="0.16895">
        <ele>1802</ele>
        <time>2020-07-29T08:33:05.000Z</time>
      </trkpt>
      <trkpt lat="42.91007" lon="0.16892">
        <ele>1801</ele>
        <time>2020-07-29T08:33:06.000Z</time>
      </trkpt>
      <trkpt lat="42.91006" lon="0.16889">
        <ele>1801</ele>
        <time>2020-07-29T08:33:07.000Z</time>
      </trkpt>
      <trkpt lat="42.91005" lon="0.16886">
        <ele>1801</ele>
        <time>2020-07-29T08:33:08.000Z</time>
      </trkpt>
      <trkpt lat="42.91003" lon="0.16882">
        <ele>1801</ele>
        <time>2020-07-29T08:33:09.000Z</time>
      </trkpt>
      <trkpt lat="42.91002" lon="0.16879">
        <ele>1800</ele>
        <time>2020-07-29T08:33:10.000Z</time>
      </trkpt>
      <trkpt lat="42.91001" lon="0.16876">
        <ele>1801</ele>
        <time>2020-07-29T08:33:11.000Z</time>
      </trkpt>
      <trkpt lat="42.91" lon="0.16872">
        <ele>1801</ele>
        <time>2020-07-29T08:33:12.000Z</time>
      </trkpt>
      <trkpt lat="42.90999" lon="0.16869">
        <ele>1802</ele>
        <time>2020-07-29T08:33:13.000Z</time>
      </trkpt>
      <trkpt lat="42.90998" lon="0.16865">
        <ele>1802</ele>
        <time>2020-07-29T08:33:14.000Z</time>
      </trkpt>
      <trkpt lat="42.90998" lon="0.16861">
        <ele>1801</ele>
        <time>2020-07-29T08:33:15.000Z</time>
      </trkpt>
      <trkpt lat="42.90997" lon="0.16857">
        <ele>1802</ele>
        <time>2020-07-29T08:33:16.000Z</time>
      </trkpt>
      <trkpt lat="42.90996" lon="0.16854">
        <ele>1802</ele>
        <time>2020-07-29T08:33:17.000Z</time>
      </trkpt>
      <trkpt lat="42.90995" lon="0.16851">
        <ele>1804</ele>
        <time>2020-07-29T08:33:18.000Z</time>
      </trkpt>
      <trkpt lat="42.90994" lon="0.16848">
        <ele>1805</ele>
        <time>2020-07-29T08:33:19.000Z</time>
      </trkpt>
      <trkpt lat="42.90993" lon="0.16845">
        <ele>1805</ele>
        <time>2020-07-29T08:33:20.000Z</time>
      </trkpt>
      <trkpt lat="42.90992" lon="0.16841">
        <ele>1805</ele>
        <time>2020-07-29T08:33:21.000Z</time>
      </trkpt>
      <trkpt lat="42.90991" lon="0.16837">
        <ele>1806</ele>
        <time>2020-07-29T08:33:22.000Z</time>
      </trkpt>
      <trkpt lat="42.9099" lon="0.16834">
        <ele>1806</ele>
        <time>2020-07-29T08:33:23.000Z</time>
      </trkpt>
      <trkpt lat="42.90989" lon="0.1683">
        <ele>1807</ele>
        <time>2020-07-29T08:33:24.000Z</time>
      </trkpt>
      <trkpt lat="42.90989" lon="0.16827">
        <ele>1807</ele>
        <time>2020-07-29T08:33:25.000Z</time>
      </trkpt>
      <trkpt lat="42.90988" lon="0.16824">
        <ele>1806</ele>
        <time>2020-07-29T08:33:26.000Z</time>
      </trkpt>
      <trkpt lat="42.90987" lon="0.16821">
        <ele>1807</ele>
        <time>2020-07-29T08:33:27.000Z</time>
      </trkpt>
      <trkpt lat="42.90986" lon="0.16818">
        <ele>1807</ele>
        <time>2020-07-29T08:33:28.000Z</time>
      </trkpt>
      <trkpt lat="42.90985" lon="0.16815">
        <ele>1807</ele>
        <time>2020-07-29T08:33:29.000Z</time>
      </trkpt>
      <trkpt lat="42.90983" lon="0.16811">
        <ele>1807</ele>
        <time>2020-07-29T08:33:30.000Z</time>
      </trkpt>
      <trkpt lat="42.90982" lon="0.16808">
        <ele>1806</ele>
        <time>2020-07-29T08:33:31.000Z</time>
      </trkpt>
      <trkpt lat="42.9098" lon="0.16806">
        <ele>1806</ele>
        <time>2020-07-29T08:33:32.000Z</time>
      </trkpt>
      <trkpt lat="42.90979" lon="0.16803">
        <ele>1806</ele>
        <time>2020-07-29T08:33:33.000Z</time>
      </trkpt>
      <trkpt lat="42.90977" lon="0.168">
        <ele>1807</ele>
        <time>2020-07-29T08:33:34.000Z</time>
      </trkpt>
      <trkpt lat="42.90975" lon="0.16797">
        <ele>1808</ele>
        <time>2020-07-29T08:33:35.000Z</time>
      </trkpt>
      <trkpt lat="42.90974" lon="0.16795">
        <ele>1808</ele>
        <time>2020-07-29T08:33:36.000Z</time>
      </trkpt>
      <trkpt lat="42.90972" lon="0.16792">
        <ele>1808</ele>
        <time>2020-07-29T08:33:37.000Z</time>
      </trkpt>
      <trkpt lat="42.9097" lon="0.1679">
        <ele>1808</ele>
        <time>2020-07-29T08:33:38.000Z</time>
      </trkpt>
      <trkpt lat="42.90969" lon="0.16787">
        <ele>1809</ele>
        <time>2020-07-29T08:33:39.000Z</time>
      </trkpt>
      <trkpt lat="42.90967" lon="0.16784">
        <ele>1810</ele>
        <time>2020-07-29T08:33:40.000Z</time>
      </trkpt>
      <trkpt lat="42.90965" lon="0.16781">
        <ele>1810</ele>
        <time>2020-07-29T08:33:41.000Z</time>
      </trkpt>
      <trkpt lat="42.90964" lon="0.16778">
        <ele>1810</ele>
        <time>2020-07-29T08:33:42.000Z</time>
      </trkpt>
      <trkpt lat="42.90962" lon="0.16775">
        <ele>1811</ele>
        <time>2020-07-29T08:33:43.000Z</time>
      </trkpt>
      <trkpt lat="42.90961" lon="0.16773">
        <ele>1811</ele>
        <time>2020-07-29T08:33:44.000Z</time>
      </trkpt>
      <trkpt lat="42.9096" lon="0.1677">
        <ele>1811</ele>
        <time>2020-07-29T08:33:45.000Z</time>
      </trkpt>
      <trkpt lat="42.90958" lon="0.16767">
        <ele>1811</ele>
        <time>2020-07-29T08:33:46.000Z</time>
      </trkpt>
      <trkpt lat="42.90957" lon="0.16764">
        <ele>1811</ele>
        <time>2020-07-29T08:33:47.000Z</time>
      </trkpt>
      <trkpt lat="42.90956" lon="0.16761">
        <ele>1812</ele>
        <time>2020-07-29T08:33:48.000Z</time>
      </trkpt>
      <trkpt lat="42.90955" lon="0.16758">
        <ele>1811</ele>
        <time>2020-07-29T08:33:49.000Z</time>
      </trkpt>
      <trkpt lat="42.90954" lon="0.16755">
        <ele>1812</ele>
        <time>2020-07-29T08:33:50.000Z</time>
      </trkpt>
      <trkpt lat="42.90953" lon="0.16752">
        <ele>1812</ele>
        <time>2020-07-29T08:33:51.000Z</time>
      </trkpt>
      <trkpt lat="42.90952" lon="0.16748">
        <ele>1812</ele>
        <time>2020-07-29T08:33:52.000Z</time>
      </trkpt>
      <trkpt lat="42.90951" lon="0.16745">
        <ele>1812</ele>
        <time>2020-07-29T08:33:53.000Z</time>
      </trkpt>
      <trkpt lat="42.90951" lon="0.16741">
        <ele>1813</ele>
        <time>2020-07-29T08:33:54.000Z</time>
      </trkpt>
      <trkpt lat="42.9095" lon="0.16738">
        <ele>1812</ele>
        <time>2020-07-29T08:33:55.000Z</time>
      </trkpt>
      <trkpt lat="42.9095" lon="0.16734">
        <ele>1813</ele>
        <time>2020-07-29T08:33:56.000Z</time>
      </trkpt>
      <trkpt lat="42.90949" lon="0.16731">
        <ele>1814</ele>
        <time>2020-07-29T08:33:57.000Z</time>
      </trkpt>
      <trkpt lat="42.90949" lon="0.16728">
        <ele>1815</ele>
        <time>2020-07-29T08:33:58.000Z</time>
      </trkpt>
      <trkpt lat="42.90948" lon="0.16724">
        <ele>1815</ele>
        <time>2020-07-29T08:33:59.000Z</time>
      </trkpt>
      <trkpt lat="42.90948" lon="0.1672">
        <ele>1815</ele>
        <time>2020-07-29T08:34:00.000Z</time>
      </trkpt>
      <trkpt lat="42.90948" lon="0.16717">
        <ele>1816</ele>
        <time>2020-07-29T08:34:01.000Z</time>
      </trkpt>
      <trkpt lat="42.90948" lon="0.16713">
        <ele>1816</ele>
        <time>2020-07-29T08:34:02.000Z</time>
      </trkpt>
      <trkpt lat="42.90948" lon="0.1671">
        <ele>1817</ele>
        <time>2020-07-29T08:34:03.000Z</time>
      </trkpt>
      <trkpt lat="42.90947" lon="0.16706">
        <ele>1817</ele>
        <time>2020-07-29T08:34:04.000Z</time>
      </trkpt>
      <trkpt lat="42.90947" lon="0.16703">
        <ele>1818</ele>
        <time>2020-07-29T08:34:05.000Z</time>
      </trkpt>
      <trkpt lat="42.90947" lon="0.167">
        <ele>1819</ele>
        <time>2020-07-29T08:34:06.000Z</time>
      </trkpt>
      <trkpt lat="42.90947" lon="0.16697">
        <ele>1819</ele>
        <time>2020-07-29T08:34:07.000Z</time>
      </trkpt>
      <trkpt lat="42.90947" lon="0.16694">
        <ele>1819</ele>
        <time>2020-07-29T08:34:08.000Z</time>
      </trkpt>
      <trkpt lat="42.90947" lon="0.1669">
        <ele>1819</ele>
        <time>2020-07-29T08:34:09.000Z</time>
      </trkpt>
      <trkpt lat="42.90947" lon="0.16687">
        <ele>1820</ele>
        <time>2020-07-29T08:34:10.000Z</time>
      </trkpt>
      <trkpt lat="42.90947" lon="0.16684">
        <ele>1820</ele>
        <time>2020-07-29T08:34:11.000Z</time>
      </trkpt>
      <trkpt lat="42.90948" lon="0.1668">
        <ele>1820</ele>
        <time>2020-07-29T08:34:12.000Z</time>
      </trkpt>
      <trkpt lat="42.90948" lon="0.16677">
        <ele>1821</ele>
        <time>2020-07-29T08:34:13.000Z</time>
      </trkpt>
      <trkpt lat="42.90948" lon="0.16674">
        <ele>1822</ele>
        <time>2020-07-29T08:34:14.000Z</time>
      </trkpt>
      <trkpt lat="42.90948" lon="0.1667">
        <ele>1823</ele>
        <time>2020-07-29T08:34:15.000Z</time>
      </trkpt>
      <trkpt lat="42.90948" lon="0.16666">
        <ele>1823</ele>
        <time>2020-07-29T08:34:16.000Z</time>
      </trkpt>
      <trkpt lat="42.90948" lon="0.16663">
        <ele>1823</ele>
        <time>2020-07-29T08:34:17.000Z</time>
      </trkpt>
      <trkpt lat="42.90948" lon="0.16659">
        <ele>1823</ele>
        <time>2020-07-29T08:34:18.000Z</time>
      </trkpt>
      <trkpt lat="42.90948" lon="0.16656">
        <ele>1823</ele>
        <time>2020-07-29T08:34:19.000Z</time>
      </trkpt>
      <trkpt lat="42.90948" lon="0.16652">
        <ele>1823</ele>
        <time>2020-07-29T08:34:20.000Z</time>
      </trkpt>
      <trkpt lat="42.90948" lon="0.16649">
        <ele>1824</ele>
        <time>2020-07-29T08:34:21.000Z</time>
      </trkpt>
      <trkpt lat="42.90948" lon="0.16645">
        <ele>1825</ele>
        <time>2020-07-29T08:34:22.000Z</time>
      </trkpt>
      <trkpt lat="42.90948" lon="0.16642">
        <ele>1826</ele>
        <time>2020-07-29T08:34:23.000Z</time>
      </trkpt>
      <trkpt lat="42.90948" lon="0.16638">
        <ele>1827</ele>
        <time>2020-07-29T08:34:24.000Z</time>
      </trkpt>
      <trkpt lat="42.90948" lon="0.16635">
        <ele>1827</ele>
        <time>2020-07-29T08:34:25.000Z</time>
      </trkpt>
      <trkpt lat="42.90948" lon="0.16632">
        <ele>1828</ele>
        <time>2020-07-29T08:34:26.000Z</time>
      </trkpt>
      <trkpt lat="42.90948" lon="0.16629">
        <ele>1828</ele>
        <time>2020-07-29T08:34:27.000Z</time>
      </trkpt>
      <trkpt lat="42.90948" lon="0.16625">
        <ele>1828</ele>
        <time>2020-07-29T08:34:28.000Z</time>
      </trkpt>
      <trkpt lat="42.90949" lon="0.16622">
        <ele>1827</ele>
        <time>2020-07-29T08:34:29.000Z</time>
      </trkpt>
      <trkpt lat="42.90949" lon="0.16618">
        <ele>1828</ele>
        <time>2020-07-29T08:34:30.000Z</time>
      </trkpt>
      <trkpt lat="42.90949" lon="0.16615">
        <ele>1829</ele>
        <time>2020-07-29T08:34:31.000Z</time>
      </trkpt>
      <trkpt lat="42.9095" lon="0.16611">
        <ele>1829</ele>
        <time>2020-07-29T08:34:32.000Z</time>
      </trkpt>
      <trkpt lat="42.90951" lon="0.16608">
        <ele>1829</ele>
        <time>2020-07-29T08:34:33.000Z</time>
      </trkpt>
      <trkpt lat="42.90951" lon="0.16605">
        <ele>1830</ele>
        <time>2020-07-29T08:34:34.000Z</time>
      </trkpt>
      <trkpt lat="42.90952" lon="0.16601">
        <ele>1829</ele>
        <time>2020-07-29T08:34:35.000Z</time>
      </trkpt>
      <trkpt lat="42.90952" lon="0.16598">
        <ele>1830</ele>
        <time>2020-07-29T08:34:36.000Z</time>
      </trkpt>
      <trkpt lat="42.90953" lon="0.16594">
        <ele>1830</ele>
        <time>2020-07-29T08:34:37.000Z</time>
      </trkpt>
      <trkpt lat="42.90953" lon="0.16591">
        <ele>1830</ele>
        <time>2020-07-29T08:34:38.000Z</time>
      </trkpt>
      <trkpt lat="42.90954" lon="0.16587">
        <ele>1832</ele>
        <time>2020-07-29T08:34:39.000Z</time>
      </trkpt>
      <trkpt lat="42.90954" lon="0.16584">
        <ele>1831</ele>
        <time>2020-07-29T08:34:40.000Z</time>
      </trkpt>
      <trkpt lat="42.90955" lon="0.1658">
        <ele>1832</ele>
        <time>2020-07-29T08:34:41.000Z</time>
      </trkpt>
      <trkpt lat="42.90955" lon="0.16577">
        <ele>1832</ele>
        <time>2020-07-29T08:34:42.000Z</time>
      </trkpt>
      <trkpt lat="42.90956" lon="0.16573">
        <ele>1832</ele>
        <time>2020-07-29T08:34:43.000Z</time>
      </trkpt>
      <trkpt lat="42.90957" lon="0.1657">
        <ele>1831</ele>
        <time>2020-07-29T08:34:44.000Z</time>
      </trkpt>
      <trkpt lat="42.90957" lon="0.16567">
        <ele>1832</ele>
        <time>2020-07-29T08:34:45.000Z</time>
      </trkpt>
      <trkpt lat="42.90958" lon="0.16563">
        <ele>1832</ele>
        <time>2020-07-29T08:34:46.000Z</time>
      </trkpt>
      <trkpt lat="42.9096" lon="0.1656">
        <ele>1832</ele>
        <time>2020-07-29T08:34:47.000Z</time>
      </trkpt>
      <trkpt lat="42.90961" lon="0.16557">
        <ele>1832</ele>
        <time>2020-07-29T08:34:48.000Z</time>
      </trkpt>
      <trkpt lat="42.90962" lon="0.16553">
        <ele>1832</ele>
        <time>2020-07-29T08:34:49.000Z</time>
      </trkpt>
      <trkpt lat="42.90962" lon="0.16549">
        <ele>1833</ele>
        <time>2020-07-29T08:34:50.000Z</time>
      </trkpt>
      <trkpt lat="42.90963" lon="0.16545">
        <ele>1833</ele>
        <time>2020-07-29T08:34:51.000Z</time>
      </trkpt>
      <trkpt lat="42.90963" lon="0.16542">
        <ele>1832</ele>
        <time>2020-07-29T08:34:52.000Z</time>
      </trkpt>
      <trkpt lat="42.90964" lon="0.16539">
        <ele>1833</ele>
        <time>2020-07-29T08:34:53.000Z</time>
      </trkpt>
      <trkpt lat="42.90964" lon="0.16535">
        <ele>1834</ele>
        <time>2020-07-29T08:34:54.000Z</time>
      </trkpt>
      <trkpt lat="42.90965" lon="0.16531">
        <ele>1834</ele>
        <time>2020-07-29T08:34:55.000Z</time>
      </trkpt>
      <trkpt lat="42.90965" lon="0.16528">
        <ele>1835</ele>
        <time>2020-07-29T08:34:56.000Z</time>
      </trkpt>
      <trkpt lat="42.90966" lon="0.16525">
        <ele>1835</ele>
        <time>2020-07-29T08:34:57.000Z</time>
      </trkpt>
      <trkpt lat="42.90966" lon="0.16521">
        <ele>1835</ele>
        <time>2020-07-29T08:34:58.000Z</time>
      </trkpt>
      <trkpt lat="42.90966" lon="0.16518">
        <ele>1835</ele>
        <time>2020-07-29T08:34:59.000Z</time>
      </trkpt>
      <trkpt lat="42.90966" lon="0.16514">
        <ele>1835</ele>
        <time>2020-07-29T08:35:00.000Z</time>
      </trkpt>
      <trkpt lat="42.90966" lon="0.16511">
        <ele>1836</ele>
        <time>2020-07-29T08:35:01.000Z</time>
      </trkpt>
      <trkpt lat="42.90966" lon="0.16507">
        <ele>1836</ele>
        <time>2020-07-29T08:35:02.000Z</time>
      </trkpt>
      <trkpt lat="42.90966" lon="0.16504">
        <ele>1836</ele>
        <time>2020-07-29T08:35:03.000Z</time>
      </trkpt>
      <trkpt lat="42.90966" lon="0.16501">
        <ele>1836</ele>
        <time>2020-07-29T08:35:04.000Z</time>
      </trkpt>
      <trkpt lat="42.90966" lon="0.16497">
        <ele>1836</ele>
        <time>2020-07-29T08:35:05.000Z</time>
      </trkpt>
      <trkpt lat="42.90967" lon="0.16494">
        <ele>1835</ele>
        <time>2020-07-29T08:35:06.000Z</time>
      </trkpt>
      <trkpt lat="42.90967" lon="0.16491">
        <ele>1835</ele>
        <time>2020-07-29T08:35:07.000Z</time>
      </trkpt>
      <trkpt lat="42.90967" lon="0.16487">
        <ele>1835</ele>
        <time>2020-07-29T08:35:08.000Z</time>
      </trkpt>
      <trkpt lat="42.90968" lon="0.16484">
        <ele>1835</ele>
        <time>2020-07-29T08:35:09.000Z</time>
      </trkpt>
      <trkpt lat="42.90968" lon="0.1648">
        <ele>1834</ele>
        <time>2020-07-29T08:35:10.000Z</time>
      </trkpt>
      <trkpt lat="42.90969" lon="0.16477">
        <ele>1834</ele>
        <time>2020-07-29T08:35:11.000Z</time>
      </trkpt>
      <trkpt lat="42.9097" lon="0.16474">
        <ele>1833</ele>
        <time>2020-07-29T08:35:12.000Z</time>
      </trkpt>
      <trkpt lat="42.90971" lon="0.16471">
        <ele>1833</ele>
        <time>2020-07-29T08:35:13.000Z</time>
      </trkpt>
      <trkpt lat="42.90972" lon="0.16468">
        <ele>1832</ele>
        <time>2020-07-29T08:35:14.000Z</time>
      </trkpt>
      <trkpt lat="42.90972" lon="0.16464">
        <ele>1833</ele>
        <time>2020-07-29T08:35:15.000Z</time>
      </trkpt>
      <trkpt lat="42.90973" lon="0.16461">
        <ele>1834</ele>
        <time>2020-07-29T08:35:16.000Z</time>
      </trkpt>
      <trkpt lat="42.90974" lon="0.16458">
        <ele>1834</ele>
        <time>2020-07-29T08:35:17.000Z</time>
      </trkpt>
      <trkpt lat="42.90974" lon="0.16454">
        <ele>1834</ele>
        <time>2020-07-29T08:35:18.000Z</time>
      </trkpt>
      <trkpt lat="42.90975" lon="0.16451">
        <ele>1835</ele>
        <time>2020-07-29T08:35:19.000Z</time>
      </trkpt>
      <trkpt lat="42.90976" lon="0.16447">
        <ele>1836</ele>
        <time>2020-07-29T08:35:20.000Z</time>
      </trkpt>
      <trkpt lat="42.90976" lon="0.16444">
        <ele>1836</ele>
        <time>2020-07-29T08:35:21.000Z</time>
      </trkpt>
      <trkpt lat="42.90976" lon="0.1644">
        <ele>1834</ele>
        <time>2020-07-29T08:35:22.000Z</time>
      </trkpt>
      <trkpt lat="42.90976" lon="0.16436">
        <ele>1834</ele>
        <time>2020-07-29T08:35:23.000Z</time>
      </trkpt>
      <trkpt lat="42.90975" lon="0.16433">
        <ele>1835</ele>
        <time>2020-07-29T08:35:24.000Z</time>
      </trkpt>
      <trkpt lat="42.90975" lon="0.16429">
        <ele>1835</ele>
        <time>2020-07-29T08:35:25.000Z</time>
      </trkpt>
      <trkpt lat="42.90974" lon="0.16425">
        <ele>1835</ele>
        <time>2020-07-29T08:35:26.000Z</time>
      </trkpt>
      <trkpt lat="42.90974" lon="0.16422">
        <ele>1835</ele>
        <time>2020-07-29T08:35:27.000Z</time>
      </trkpt>
      <trkpt lat="42.90973" lon="0.16418">
        <ele>1836</ele>
        <time>2020-07-29T08:35:28.000Z</time>
      </trkpt>
      <trkpt lat="42.90972" lon="0.16414">
        <ele>1836</ele>
        <time>2020-07-29T08:35:29.000Z</time>
      </trkpt>
      <trkpt lat="42.9097" lon="0.1641">
        <ele>1836</ele>
        <time>2020-07-29T08:35:30.000Z</time>
      </trkpt>
      <trkpt lat="42.9097" lon="0.16406">
        <ele>1836</ele>
        <time>2020-07-29T08:35:31.000Z</time>
      </trkpt>
      <trkpt lat="42.90969" lon="0.16403">
        <ele>1836</ele>
        <time>2020-07-29T08:35:32.000Z</time>
      </trkpt>
      <trkpt lat="42.90968" lon="0.16399">
        <ele>1836</ele>
        <time>2020-07-29T08:35:33.000Z</time>
      </trkpt>
      <trkpt lat="42.90967" lon="0.16396">
        <ele>1835</ele>
        <time>2020-07-29T08:35:34.000Z</time>
      </trkpt>
      <trkpt lat="42.90966" lon="0.16393">
        <ele>1835</ele>
        <time>2020-07-29T08:35:35.000Z</time>
      </trkpt>
      <trkpt lat="42.90965" lon="0.16389">
        <ele>1834</ele>
        <time>2020-07-29T08:35:36.000Z</time>
      </trkpt>
      <trkpt lat="42.90965" lon="0.16385">
        <ele>1835</ele>
        <time>2020-07-29T08:35:37.000Z</time>
      </trkpt>
      <trkpt lat="42.90964" lon="0.16382">
        <ele>1835</ele>
        <time>2020-07-29T08:35:38.000Z</time>
      </trkpt>
      <trkpt lat="42.90963" lon="0.16378">
        <ele>1836</ele>
        <time>2020-07-29T08:35:39.000Z</time>
      </trkpt>
      <trkpt lat="42.90962" lon="0.16375">
        <ele>1837</ele>
        <time>2020-07-29T08:35:40.000Z</time>
      </trkpt>
      <trkpt lat="42.90962" lon="0.16372">
        <ele>1839</ele>
        <time>2020-07-29T08:35:41.000Z</time>
      </trkpt>
      <trkpt lat="42.90961" lon="0.16368">
        <ele>1840</ele>
        <time>2020-07-29T08:35:42.000Z</time>
      </trkpt>
      <trkpt lat="42.9096" lon="0.16365">
        <ele>1840</ele>
        <time>2020-07-29T08:35:43.000Z</time>
      </trkpt>
      <trkpt lat="42.9096" lon="0.16361">
        <ele>1841</ele>
        <time>2020-07-29T08:35:44.000Z</time>
      </trkpt>
      <trkpt lat="42.90959" lon="0.16358">
        <ele>1842</ele>
        <time>2020-07-29T08:35:45.000Z</time>
      </trkpt>
      <trkpt lat="42.90958" lon="0.16354">
        <ele>1842</ele>
        <time>2020-07-29T08:35:46.000Z</time>
      </trkpt>
      <trkpt lat="42.90957" lon="0.16351">
        <ele>1843</ele>
        <time>2020-07-29T08:35:47.000Z</time>
      </trkpt>
      <trkpt lat="42.90957" lon="0.16348">
        <ele>1843</ele>
        <time>2020-07-29T08:35:48.000Z</time>
      </trkpt>
      <trkpt lat="42.90956" lon="0.16344">
        <ele>1844</ele>
        <time>2020-07-29T08:35:49.000Z</time>
      </trkpt>
      <trkpt lat="42.90956" lon="0.1634">
        <ele>1845</ele>
        <time>2020-07-29T08:35:50.000Z</time>
      </trkpt>
      <trkpt lat="42.90955" lon="0.16337">
        <ele>1844</ele>
        <time>2020-07-29T08:35:51.000Z</time>
      </trkpt>
      <trkpt lat="42.90955" lon="0.16334">
        <ele>1845</ele>
        <time>2020-07-29T08:35:52.000Z</time>
      </trkpt>
      <trkpt lat="42.90954" lon="0.1633">
        <ele>1845</ele>
        <time>2020-07-29T08:35:53.000Z</time>
      </trkpt>
      <trkpt lat="42.90954" lon="0.16327">
        <ele>1845</ele>
        <time>2020-07-29T08:35:54.000Z</time>
      </trkpt>
      <trkpt lat="42.90953" lon="0.16323">
        <ele>1845</ele>
        <time>2020-07-29T08:35:55.000Z</time>
      </trkpt>
      <trkpt lat="42.90953" lon="0.1632">
        <ele>1845</ele>
        <time>2020-07-29T08:35:56.000Z</time>
      </trkpt>
      <trkpt lat="42.90952" lon="0.16317">
        <ele>1845</ele>
        <time>2020-07-29T08:35:57.000Z</time>
      </trkpt>
      <trkpt lat="42.90951" lon="0.16314">
        <ele>1844</ele>
        <time>2020-07-29T08:35:58.000Z</time>
      </trkpt>
      <trkpt lat="42.9095" lon="0.1631">
        <ele>1845</ele>
        <time>2020-07-29T08:35:59.000Z</time>
      </trkpt>
      <trkpt lat="42.90949" lon="0.16307">
        <ele>1844</ele>
        <time>2020-07-29T08:36:00.000Z</time>
      </trkpt>
      <trkpt lat="42.90948" lon="0.16303">
        <ele>1845</ele>
        <time>2020-07-29T08:36:01.000Z</time>
      </trkpt>
      <trkpt lat="42.90947" lon="0.163">
        <ele>1845</ele>
        <time>2020-07-29T08:36:02.000Z</time>
      </trkpt>
      <trkpt lat="42.90947" lon="0.16297">
        <ele>1845</ele>
        <time>2020-07-29T08:36:03.000Z</time>
      </trkpt>
      <trkpt lat="42.90946" lon="0.16294">
        <ele>1845</ele>
        <time>2020-07-29T08:36:04.000Z</time>
      </trkpt>
      <trkpt lat="42.90945" lon="0.16291">
        <ele>1845</ele>
        <time>2020-07-29T08:36:05.000Z</time>
      </trkpt>
      <trkpt lat="42.90944" lon="0.16288">
        <ele>1844</ele>
        <time>2020-07-29T08:36:06.000Z</time>
      </trkpt>
      <trkpt lat="42.90943" lon="0.16285">
        <ele>1843</ele>
        <time>2020-07-29T08:36:07.000Z</time>
      </trkpt>
      <trkpt lat="42.90942" lon="0.16282">
        <ele>1844</ele>
        <time>2020-07-29T08:36:08.000Z</time>
      </trkpt>
      <trkpt lat="42.9094" lon="0.16279">
        <ele>1844</ele>
        <time>2020-07-29T08:36:09.000Z</time>
      </trkpt>
      <trkpt lat="42.90939" lon="0.16276">
        <ele>1844</ele>
        <time>2020-07-29T08:36:10.000Z</time>
      </trkpt>
      <trkpt lat="42.90937" lon="0.16273">
        <ele>1845</ele>
        <time>2020-07-29T08:36:11.000Z</time>
      </trkpt>
      <trkpt lat="42.90935" lon="0.1627">
        <ele>1845</ele>
        <time>2020-07-29T08:36:12.000Z</time>
      </trkpt>
      <trkpt lat="42.90933" lon="0.16267">
        <ele>1846</ele>
        <time>2020-07-29T08:36:13.000Z</time>
      </trkpt>
      <trkpt lat="42.90931" lon="0.16264">
        <ele>1847</ele>
        <time>2020-07-29T08:36:14.000Z</time>
      </trkpt>
      <trkpt lat="42.9093" lon="0.16261">
        <ele>1848</ele>
        <time>2020-07-29T08:36:15.000Z</time>
      </trkpt>
      <trkpt lat="42.90928" lon="0.16258">
        <ele>1847</ele>
        <time>2020-07-29T08:36:16.000Z</time>
      </trkpt>
      <trkpt lat="42.90927" lon="0.16255">
        <ele>1848</ele>
        <time>2020-07-29T08:36:17.000Z</time>
      </trkpt>
      <trkpt lat="42.90925" lon="0.16252">
        <ele>1849</ele>
        <time>2020-07-29T08:36:18.000Z</time>
      </trkpt>
      <trkpt lat="42.90924" lon="0.16249">
        <ele>1849</ele>
        <time>2020-07-29T08:36:19.000Z</time>
      </trkpt>
      <trkpt lat="42.90923" lon="0.16246">
        <ele>1850</ele>
        <time>2020-07-29T08:36:20.000Z</time>
      </trkpt>
      <trkpt lat="42.90921" lon="0.16243">
        <ele>1850</ele>
        <time>2020-07-29T08:36:21.000Z</time>
      </trkpt>
      <trkpt lat="42.9092" lon="0.1624">
        <ele>1850</ele>
        <time>2020-07-29T08:36:22.000Z</time>
      </trkpt>
      <trkpt lat="42.90919" lon="0.16236">
        <ele>1851</ele>
        <time>2020-07-29T08:36:23.000Z</time>
      </trkpt>
      <trkpt lat="42.90918" lon="0.16233">
        <ele>1851</ele>
        <time>2020-07-29T08:36:24.000Z</time>
      </trkpt>
      <trkpt lat="42.90917" lon="0.1623">
        <ele>1852</ele>
        <time>2020-07-29T08:36:25.000Z</time>
      </trkpt>
      <trkpt lat="42.90915" lon="0.16228">
        <ele>1853</ele>
        <time>2020-07-29T08:36:26.000Z</time>
      </trkpt>
      <trkpt lat="42.90914" lon="0.16225">
        <ele>1853</ele>
        <time>2020-07-29T08:36:27.000Z</time>
      </trkpt>
      <trkpt lat="42.90913" lon="0.16222">
        <ele>1853</ele>
        <time>2020-07-29T08:36:28.000Z</time>
      </trkpt>
      <trkpt lat="42.90911" lon="0.16219">
        <ele>1852</ele>
        <time>2020-07-29T08:36:29.000Z</time>
      </trkpt>
      <trkpt lat="42.9091" lon="0.16217">
        <ele>1853</ele>
        <time>2020-07-29T08:36:30.000Z</time>
      </trkpt>
      <trkpt lat="42.90909" lon="0.16213">
        <ele>1852</ele>
        <time>2020-07-29T08:36:31.000Z</time>
      </trkpt>
      <trkpt lat="42.90908" lon="0.16211">
        <ele>1853</ele>
        <time>2020-07-29T08:36:32.000Z</time>
      </trkpt>
      <trkpt lat="42.90907" lon="0.16207">
        <ele>1852</ele>
        <time>2020-07-29T08:36:33.000Z</time>
      </trkpt>
      <trkpt lat="42.90906" lon="0.16204">
        <ele>1853</ele>
        <time>2020-07-29T08:36:34.000Z</time>
      </trkpt>
      <trkpt lat="42.90905" lon="0.16201">
        <ele>1852</ele>
        <time>2020-07-29T08:36:35.000Z</time>
      </trkpt>
      <trkpt lat="42.90904" lon="0.16198">
        <ele>1852</ele>
        <time>2020-07-29T08:36:36.000Z</time>
      </trkpt>
      <trkpt lat="42.90903" lon="0.16195">
        <ele>1853</ele>
        <time>2020-07-29T08:36:37.000Z</time>
      </trkpt>
      <trkpt lat="42.90902" lon="0.16192">
        <ele>1853</ele>
        <time>2020-07-29T08:36:38.000Z</time>
      </trkpt>
      <trkpt lat="42.90901" lon="0.16188">
        <ele>1853</ele>
        <time>2020-07-29T08:36:39.000Z</time>
      </trkpt>
      <trkpt lat="42.909" lon="0.16185">
        <ele>1853</ele>
        <time>2020-07-29T08:36:40.000Z</time>
      </trkpt>
      <trkpt lat="42.90899" lon="0.16182">
        <ele>1854</ele>
        <time>2020-07-29T08:36:41.000Z</time>
      </trkpt>
      <trkpt lat="42.90898" lon="0.16179">
        <ele>1855</ele>
        <time>2020-07-29T08:36:42.000Z</time>
      </trkpt>
      <trkpt lat="42.90897" lon="0.16176">
        <ele>1855</ele>
        <time>2020-07-29T08:36:43.000Z</time>
      </trkpt>
      <trkpt lat="42.90896" lon="0.16173">
        <ele>1855</ele>
        <time>2020-07-29T08:36:44.000Z</time>
      </trkpt>
      <trkpt lat="42.90895" lon="0.16169">
        <ele>1854</ele>
        <time>2020-07-29T08:36:45.000Z</time>
      </trkpt>
      <trkpt lat="42.90895" lon="0.16166">
        <ele>1855</ele>
        <time>2020-07-29T08:36:46.000Z</time>
      </trkpt>
      <trkpt lat="42.90894" lon="0.16163">
        <ele>1855</ele>
        <time>2020-07-29T08:36:47.000Z</time>
      </trkpt>
      <trkpt lat="42.90893" lon="0.16159">
        <ele>1856</ele>
        <time>2020-07-29T08:36:48.000Z</time>
      </trkpt>
      <trkpt lat="42.90893" lon="0.16156">
        <ele>1856</ele>
        <time>2020-07-29T08:36:49.000Z</time>
      </trkpt>
      <trkpt lat="42.90892" lon="0.16152">
        <ele>1856</ele>
        <time>2020-07-29T08:36:50.000Z</time>
      </trkpt>
      <trkpt lat="42.90891" lon="0.16149">
        <ele>1857</ele>
        <time>2020-07-29T08:36:51.000Z</time>
      </trkpt>
      <trkpt lat="42.90891" lon="0.16146">
        <ele>1857</ele>
        <time>2020-07-29T08:36:52.000Z</time>
      </trkpt>
      <trkpt lat="42.9089" lon="0.16143">
        <ele>1858</ele>
        <time>2020-07-29T08:36:53.000Z</time>
      </trkpt>
      <trkpt lat="42.90889" lon="0.16139">
        <ele>1859</ele>
        <time>2020-07-29T08:36:54.000Z</time>
      </trkpt>
      <trkpt lat="42.90888" lon="0.16136">
        <ele>1859</ele>
        <time>2020-07-29T08:36:55.000Z</time>
      </trkpt>
      <trkpt lat="42.90887" lon="0.16132">
        <ele>1859</ele>
        <time>2020-07-29T08:36:56.000Z</time>
      </trkpt>
      <trkpt lat="42.90887" lon="0.16129">
        <ele>1860</ele>
        <time>2020-07-29T08:36:57.000Z</time>
      </trkpt>
      <trkpt lat="42.90886" lon="0.16125">
        <ele>1861</ele>
        <time>2020-07-29T08:36:58.000Z</time>
      </trkpt>
      <trkpt lat="42.90885" lon="0.16122">
        <ele>1860</ele>
        <time>2020-07-29T08:36:59.000Z</time>
      </trkpt>
      <trkpt lat="42.90884" lon="0.16118">
        <ele>1860</ele>
        <time>2020-07-29T08:37:00.000Z</time>
      </trkpt>
      <trkpt lat="42.90883" lon="0.16115">
        <ele>1861</ele>
        <time>2020-07-29T08:37:01.000Z</time>
      </trkpt>
      <trkpt lat="42.90883" lon="0.16111">
        <ele>1862</ele>
        <time>2020-07-29T08:37:02.000Z</time>
      </trkpt>
      <trkpt lat="42.90882" lon="0.16108">
        <ele>1862</ele>
        <time>2020-07-29T08:37:03.000Z</time>
      </trkpt>
      <trkpt lat="42.90881" lon="0.16104">
        <ele>1862</ele>
        <time>2020-07-29T08:37:04.000Z</time>
      </trkpt>
      <trkpt lat="42.9088" lon="0.16101">
        <ele>1863</ele>
        <time>2020-07-29T08:37:05.000Z</time>
      </trkpt>
      <trkpt lat="42.90879" lon="0.16098">
        <ele>1863</ele>
        <time>2020-07-29T08:37:06.000Z</time>
      </trkpt>
      <trkpt lat="42.90879" lon="0.16095">
        <ele>1863</ele>
        <time>2020-07-29T08:37:07.000Z</time>
      </trkpt>
      <trkpt lat="42.90878" lon="0.16091">
        <ele>1863</ele>
        <time>2020-07-29T08:37:08.000Z</time>
      </trkpt>
      <trkpt lat="42.90877" lon="0.16087">
        <ele>1863</ele>
        <time>2020-07-29T08:37:09.000Z</time>
      </trkpt>
      <trkpt lat="42.90877" lon="0.16084">
        <ele>1864</ele>
        <time>2020-07-29T08:37:10.000Z</time>
      </trkpt>
      <trkpt lat="42.90876" lon="0.1608">
        <ele>1864</ele>
        <time>2020-07-29T08:37:11.000Z</time>
      </trkpt>
      <trkpt lat="42.90875" lon="0.16077">
        <ele>1864</ele>
        <time>2020-07-29T08:37:12.000Z</time>
      </trkpt>
      <trkpt lat="42.90875" lon="0.16073">
        <ele>1864</ele>
        <time>2020-07-29T08:37:13.000Z</time>
      </trkpt>
      <trkpt lat="42.90874" lon="0.16069">
        <ele>1864</ele>
        <time>2020-07-29T08:37:14.000Z</time>
      </trkpt>
      <trkpt lat="42.90874" lon="0.16066">
        <ele>1864</ele>
        <time>2020-07-29T08:37:15.000Z</time>
      </trkpt>
      <trkpt lat="42.90873" lon="0.16062">
        <ele>1865</ele>
        <time>2020-07-29T08:37:16.000Z</time>
      </trkpt>
      <trkpt lat="42.90872" lon="0.16058">
        <ele>1865</ele>
        <time>2020-07-29T08:37:17.000Z</time>
      </trkpt>
      <trkpt lat="42.90872" lon="0.16054">
        <ele>1865</ele>
        <time>2020-07-29T08:37:18.000Z</time>
      </trkpt>
      <trkpt lat="42.90872" lon="0.16051">
        <ele>1866</ele>
        <time>2020-07-29T08:37:19.000Z</time>
      </trkpt>
      <trkpt lat="42.90871" lon="0.16047">
        <ele>1866</ele>
        <time>2020-07-29T08:37:20.000Z</time>
      </trkpt>
      <trkpt lat="42.90871" lon="0.16044">
        <ele>1866</ele>
        <time>2020-07-29T08:37:21.000Z</time>
      </trkpt>
      <trkpt lat="42.9087" lon="0.1604">
        <ele>1866</ele>
        <time>2020-07-29T08:37:22.000Z</time>
      </trkpt>
      <trkpt lat="42.9087" lon="0.16037">
        <ele>1866</ele>
        <time>2020-07-29T08:37:23.000Z</time>
      </trkpt>
      <trkpt lat="42.90869" lon="0.16034">
        <ele>1868</ele>
        <time>2020-07-29T08:37:24.000Z</time>
      </trkpt>
      <trkpt lat="42.90868" lon="0.1603">
        <ele>1869</ele>
        <time>2020-07-29T08:37:25.000Z</time>
      </trkpt>
      <trkpt lat="42.90868" lon="0.16027">
        <ele>1869</ele>
        <time>2020-07-29T08:37:26.000Z</time>
      </trkpt>
      <trkpt lat="42.90867" lon="0.16023">
        <ele>1868</ele>
        <time>2020-07-29T08:37:27.000Z</time>
      </trkpt>
      <trkpt lat="42.90867" lon="0.1602">
        <ele>1869</ele>
        <time>2020-07-29T08:37:28.000Z</time>
      </trkpt>
      <trkpt lat="42.90866" lon="0.16017">
        <ele>1869</ele>
        <time>2020-07-29T08:37:29.000Z</time>
      </trkpt>
      <trkpt lat="42.90866" lon="0.16014">
        <ele>1870</ele>
        <time>2020-07-29T08:37:30.000Z</time>
      </trkpt>
      <trkpt lat="42.90865" lon="0.1601">
        <ele>1870</ele>
        <time>2020-07-29T08:37:31.000Z</time>
      </trkpt>
      <trkpt lat="42.90865" lon="0.16007">
        <ele>1871</ele>
        <time>2020-07-29T08:37:32.000Z</time>
      </trkpt>
      <trkpt lat="42.90864" lon="0.16004">
        <ele>1871</ele>
        <time>2020-07-29T08:37:33.000Z</time>
      </trkpt>
      <trkpt lat="42.90864" lon="0.16">
        <ele>1871</ele>
        <time>2020-07-29T08:37:34.000Z</time>
      </trkpt>
      <trkpt lat="42.90863" lon="0.15997">
        <ele>1871</ele>
        <time>2020-07-29T08:37:35.000Z</time>
      </trkpt>
      <trkpt lat="42.90863" lon="0.15994">
        <ele>1872</ele>
        <time>2020-07-29T08:37:36.000Z</time>
      </trkpt>
      <trkpt lat="42.90862" lon="0.1599">
        <ele>1872</ele>
        <time>2020-07-29T08:37:37.000Z</time>
      </trkpt>
      <trkpt lat="42.90861" lon="0.15987">
        <ele>1872</ele>
        <time>2020-07-29T08:37:38.000Z</time>
      </trkpt>
      <trkpt lat="42.90861" lon="0.15983">
        <ele>1872</ele>
        <time>2020-07-29T08:37:39.000Z</time>
      </trkpt>
      <trkpt lat="42.9086" lon="0.1598">
        <ele>1873</ele>
        <time>2020-07-29T08:37:40.000Z</time>
      </trkpt>
      <trkpt lat="42.90859" lon="0.15977">
        <ele>1872</ele>
        <time>2020-07-29T08:37:41.000Z</time>
      </trkpt>
      <trkpt lat="42.90859" lon="0.15973">
        <ele>1872</ele>
        <time>2020-07-29T08:37:42.000Z</time>
      </trkpt>
      <trkpt lat="42.90858" lon="0.1597">
        <ele>1872</ele>
        <time>2020-07-29T08:37:43.000Z</time>
      </trkpt>
      <trkpt lat="42.90857" lon="0.15967">
        <ele>1872</ele>
        <time>2020-07-29T08:37:44.000Z</time>
      </trkpt>
      <trkpt lat="42.90856" lon="0.15963">
        <ele>1873</ele>
        <time>2020-07-29T08:37:45.000Z</time>
      </trkpt>
      <trkpt lat="42.90854" lon="0.1596">
        <ele>1873</ele>
        <time>2020-07-29T08:37:46.000Z</time>
      </trkpt>
      <trkpt lat="42.90853" lon="0.15956">
        <ele>1873</ele>
        <time>2020-07-29T08:37:47.000Z</time>
      </trkpt>
      <trkpt lat="42.90852" lon="0.15953">
        <ele>1872</ele>
        <time>2020-07-29T08:37:48.000Z</time>
      </trkpt>
      <trkpt lat="42.90851" lon="0.1595">
        <ele>1873</ele>
        <time>2020-07-29T08:37:49.000Z</time>
      </trkpt>
      <trkpt lat="42.90849" lon="0.15947">
        <ele>1874</ele>
        <time>2020-07-29T08:37:50.000Z</time>
      </trkpt>
      <trkpt lat="42.90848" lon="0.15944">
        <ele>1875</ele>
        <time>2020-07-29T08:37:51.000Z</time>
      </trkpt>
      <trkpt lat="42.90847" lon="0.1594">
        <ele>1875</ele>
        <time>2020-07-29T08:37:52.000Z</time>
      </trkpt>
      <trkpt lat="42.90845" lon="0.15937">
        <ele>1874</ele>
        <time>2020-07-29T08:37:53.000Z</time>
      </trkpt>
      <trkpt lat="42.90844" lon="0.15934">
        <ele>1875</ele>
        <time>2020-07-29T08:37:54.000Z</time>
      </trkpt>
      <trkpt lat="42.90843" lon="0.15931">
        <ele>1875</ele>
        <time>2020-07-29T08:37:55.000Z</time>
      </trkpt>
      <trkpt lat="42.90842" lon="0.15928">
        <ele>1874</ele>
        <time>2020-07-29T08:37:56.000Z</time>
      </trkpt>
      <trkpt lat="42.90841" lon="0.15925">
        <ele>1875</ele>
        <time>2020-07-29T08:37:57.000Z</time>
      </trkpt>
      <trkpt lat="42.9084" lon="0.15922">
        <ele>1875</ele>
        <time>2020-07-29T08:37:58.000Z</time>
      </trkpt>
      <trkpt lat="42.90839" lon="0.15919">
        <ele>1875</ele>
        <time>2020-07-29T08:37:59.000Z</time>
      </trkpt>
      <trkpt lat="42.90837" lon="0.15915">
        <ele>1875</ele>
        <time>2020-07-29T08:38:00.000Z</time>
      </trkpt>
      <trkpt lat="42.90835" lon="0.15913">
        <ele>1876</ele>
        <time>2020-07-29T08:38:01.000Z</time>
      </trkpt>
      <trkpt lat="42.90834" lon="0.1591">
        <ele>1875</ele>
        <time>2020-07-29T08:38:02.000Z</time>
      </trkpt>
      <trkpt lat="42.90832" lon="0.15908">
        <ele>1876</ele>
        <time>2020-07-29T08:38:03.000Z</time>
      </trkpt>
      <trkpt lat="42.9083" lon="0.15906">
        <ele>1876</ele>
        <time>2020-07-29T08:38:04.000Z</time>
      </trkpt>
      <trkpt lat="42.90828" lon="0.15903">
        <ele>1877</ele>
        <time>2020-07-29T08:38:05.000Z</time>
      </trkpt>
      <trkpt lat="42.90826" lon="0.15901">
        <ele>1878</ele>
        <time>2020-07-29T08:38:06.000Z</time>
      </trkpt>
      <trkpt lat="42.90824" lon="0.15899">
        <ele>1878</ele>
        <time>2020-07-29T08:38:07.000Z</time>
      </trkpt>
      <trkpt lat="42.90822" lon="0.15897">
        <ele>1879</ele>
        <time>2020-07-29T08:38:08.000Z</time>
      </trkpt>
      <trkpt lat="42.9082" lon="0.15894">
        <ele>1879</ele>
        <time>2020-07-29T08:38:09.000Z</time>
      </trkpt>
      <trkpt lat="42.90818" lon="0.15892">
        <ele>1880</ele>
        <time>2020-07-29T08:38:10.000Z</time>
      </trkpt>
      <trkpt lat="42.90816" lon="0.1589">
        <ele>1880</ele>
        <time>2020-07-29T08:38:11.000Z</time>
      </trkpt>
      <trkpt lat="42.90814" lon="0.15888">
        <ele>1881</ele>
        <time>2020-07-29T08:38:12.000Z</time>
      </trkpt>
      <trkpt lat="42.90813" lon="0.15885">
        <ele>1880</ele>
        <time>2020-07-29T08:38:13.000Z</time>
      </trkpt>
      <trkpt lat="42.90811" lon="0.15883">
        <ele>1880</ele>
        <time>2020-07-29T08:38:14.000Z</time>
      </trkpt>
      <trkpt lat="42.9081" lon="0.15881">
        <ele>1880</ele>
        <time>2020-07-29T08:38:15.000Z</time>
      </trkpt>
      <trkpt lat="42.90808" lon="0.15878">
        <ele>1882</ele>
        <time>2020-07-29T08:38:16.000Z</time>
      </trkpt>
      <trkpt lat="42.90806" lon="0.15875">
        <ele>1882</ele>
        <time>2020-07-29T08:38:17.000Z</time>
      </trkpt>
      <trkpt lat="42.90804" lon="0.15873">
        <ele>1882</ele>
        <time>2020-07-29T08:38:18.000Z</time>
      </trkpt>
      <trkpt lat="42.90802" lon="0.1587">
        <ele>1882</ele>
        <time>2020-07-29T08:38:19.000Z</time>
      </trkpt>
      <trkpt lat="42.90801" lon="0.15868">
        <ele>1880</ele>
        <time>2020-07-29T08:38:20.000Z</time>
      </trkpt>
      <trkpt lat="42.90799" lon="0.15865">
        <ele>1882</ele>
        <time>2020-07-29T08:38:21.000Z</time>
      </trkpt>
      <trkpt lat="42.90798" lon="0.15863">
        <ele>1882</ele>
        <time>2020-07-29T08:38:22.000Z</time>
      </trkpt>
      <trkpt lat="42.90796" lon="0.15861">
        <ele>1882</ele>
        <time>2020-07-29T08:38:23.000Z</time>
      </trkpt>
      <trkpt lat="42.90794" lon="0.15859">
        <ele>1883</ele>
        <time>2020-07-29T08:38:24.000Z</time>
      </trkpt>
      <trkpt lat="42.90792" lon="0.15856">
        <ele>1883</ele>
        <time>2020-07-29T08:38:25.000Z</time>
      </trkpt>
      <trkpt lat="42.9079" lon="0.15853">
        <ele>1883</ele>
        <time>2020-07-29T08:38:26.000Z</time>
      </trkpt>
      <trkpt lat="42.90788" lon="0.1585">
        <ele>1884</ele>
        <time>2020-07-29T08:38:27.000Z</time>
      </trkpt>
      <trkpt lat="42.90787" lon="0.15847">
        <ele>1885</ele>
        <time>2020-07-29T08:38:28.000Z</time>
      </trkpt>
      <trkpt lat="42.90785" lon="0.15844">
        <ele>1886</ele>
        <time>2020-07-29T08:38:29.000Z</time>
      </trkpt>
      <trkpt lat="42.90783" lon="0.15841">
        <ele>1885</ele>
        <time>2020-07-29T08:38:30.000Z</time>
      </trkpt>
      <trkpt lat="42.90781" lon="0.15838">
        <ele>1885</ele>
        <time>2020-07-29T08:38:31.000Z</time>
      </trkpt>
      <trkpt lat="42.9078" lon="0.15835">
        <ele>1886</ele>
        <time>2020-07-29T08:38:32.000Z</time>
      </trkpt>
      <trkpt lat="42.90778" lon="0.15832">
        <ele>1887</ele>
        <time>2020-07-29T08:38:33.000Z</time>
      </trkpt>
      <trkpt lat="42.90777" lon="0.15829">
        <ele>1887</ele>
        <time>2020-07-29T08:38:34.000Z</time>
      </trkpt>
      <trkpt lat="42.90775" lon="0.15826">
        <ele>1888</ele>
        <time>2020-07-29T08:38:35.000Z</time>
      </trkpt>
      <trkpt lat="42.90773" lon="0.15823">
        <ele>1888</ele>
        <time>2020-07-29T08:38:36.000Z</time>
      </trkpt>
      <trkpt lat="42.90771" lon="0.1582">
        <ele>1888</ele>
        <time>2020-07-29T08:38:37.000Z</time>
      </trkpt>
      <trkpt lat="42.9077" lon="0.15817">
        <ele>1888</ele>
        <time>2020-07-29T08:38:38.000Z</time>
      </trkpt>
      <trkpt lat="42.90768" lon="0.15815">
        <ele>1888</ele>
        <time>2020-07-29T08:38:39.000Z</time>
      </trkpt>
      <trkpt lat="42.90766" lon="0.15812">
        <ele>1888</ele>
        <time>2020-07-29T08:38:40.000Z</time>
      </trkpt>
      <trkpt lat="42.90764" lon="0.15809">
        <ele>1887</ele>
        <time>2020-07-29T08:38:41.000Z</time>
      </trkpt>
      <trkpt lat="42.90763" lon="0.15807">
        <ele>1888</ele>
        <time>2020-07-29T08:38:42.000Z</time>
      </trkpt>
      <trkpt lat="42.90761" lon="0.15804">
        <ele>1889</ele>
        <time>2020-07-29T08:38:43.000Z</time>
      </trkpt>
      <trkpt lat="42.90759" lon="0.15801">
        <ele>1890</ele>
        <time>2020-07-29T08:38:44.000Z</time>
      </trkpt>
      <trkpt lat="42.90757" lon="0.15798">
        <ele>1890</ele>
        <time>2020-07-29T08:38:45.000Z</time>
      </trkpt>
      <trkpt lat="42.90755" lon="0.15796">
        <ele>1890</ele>
        <time>2020-07-29T08:38:46.000Z</time>
      </trkpt>
      <trkpt lat="42.90753" lon="0.15794">
        <ele>1890</ele>
        <time>2020-07-29T08:38:47.000Z</time>
      </trkpt>
      <trkpt lat="42.90751" lon="0.15792">
        <ele>1890</ele>
        <time>2020-07-29T08:38:48.000Z</time>
      </trkpt>
      <trkpt lat="42.9075" lon="0.15789">
        <ele>1891</ele>
        <time>2020-07-29T08:38:49.000Z</time>
      </trkpt>
      <trkpt lat="42.90748" lon="0.15786">
        <ele>1891</ele>
        <time>2020-07-29T08:38:50.000Z</time>
      </trkpt>
      <trkpt lat="42.90747" lon="0.15783">
        <ele>1892</ele>
        <time>2020-07-29T08:38:51.000Z</time>
      </trkpt>
      <trkpt lat="42.90745" lon="0.1578">
        <ele>1892</ele>
        <time>2020-07-29T08:38:52.000Z</time>
      </trkpt>
      <trkpt lat="42.90744" lon="0.15777">
        <ele>1892</ele>
        <time>2020-07-29T08:38:53.000Z</time>
      </trkpt>
      <trkpt lat="42.90743" lon="0.15773">
        <ele>1892</ele>
        <time>2020-07-29T08:38:54.000Z</time>
      </trkpt>
      <trkpt lat="42.90742" lon="0.1577">
        <ele>1892</ele>
        <time>2020-07-29T08:38:55.000Z</time>
      </trkpt>
      <trkpt lat="42.90741" lon="0.15766">
        <ele>1893</ele>
        <time>2020-07-29T08:38:56.000Z</time>
      </trkpt>
      <trkpt lat="42.9074" lon="0.15763">
        <ele>1893</ele>
        <time>2020-07-29T08:38:57.000Z</time>
      </trkpt>
      <trkpt lat="42.90738" lon="0.1576">
        <ele>1895</ele>
        <time>2020-07-29T08:38:58.000Z</time>
      </trkpt>
      <trkpt lat="42.90737" lon="0.15757">
        <ele>1894</ele>
        <time>2020-07-29T08:38:59.000Z</time>
      </trkpt>
      <trkpt lat="42.90736" lon="0.15754">
        <ele>1895</ele>
        <time>2020-07-29T08:39:00.000Z</time>
      </trkpt>
      <trkpt lat="42.90735" lon="0.15751">
        <ele>1895</ele>
        <time>2020-07-29T08:39:01.000Z</time>
      </trkpt>
      <trkpt lat="42.90734" lon="0.15747">
        <ele>1895</ele>
        <time>2020-07-29T08:39:02.000Z</time>
      </trkpt>
      <trkpt lat="42.90732" lon="0.15744">
        <ele>1895</ele>
        <time>2020-07-29T08:39:03.000Z</time>
      </trkpt>
      <trkpt lat="42.90731" lon="0.15741">
        <ele>1895</ele>
        <time>2020-07-29T08:39:04.000Z</time>
      </trkpt>
      <trkpt lat="42.9073" lon="0.15738">
        <ele>1895</ele>
        <time>2020-07-29T08:39:05.000Z</time>
      </trkpt>
      <trkpt lat="42.90729" lon="0.15735">
        <ele>1895</ele>
        <time>2020-07-29T08:39:06.000Z</time>
      </trkpt>
      <trkpt lat="42.90727" lon="0.15732">
        <ele>1895</ele>
        <time>2020-07-29T08:39:07.000Z</time>
      </trkpt>
      <trkpt lat="42.90726" lon="0.15729">
        <ele>1896</ele>
        <time>2020-07-29T08:39:08.000Z</time>
      </trkpt>
      <trkpt lat="42.90724" lon="0.15726">
        <ele>1896</ele>
        <time>2020-07-29T08:39:09.000Z</time>
      </trkpt>
      <trkpt lat="42.90723" lon="0.15724">
        <ele>1897</ele>
        <time>2020-07-29T08:39:10.000Z</time>
      </trkpt>
      <trkpt lat="42.90721" lon="0.15721">
        <ele>1897</ele>
        <time>2020-07-29T08:39:11.000Z</time>
      </trkpt>
      <trkpt lat="42.90719" lon="0.15719">
        <ele>1898</ele>
        <time>2020-07-29T08:39:12.000Z</time>
      </trkpt>
      <trkpt lat="42.90717" lon="0.15716">
        <ele>1899</ele>
        <time>2020-07-29T08:39:13.000Z</time>
      </trkpt>
      <trkpt lat="42.90716" lon="0.15713">
        <ele>1899</ele>
        <time>2020-07-29T08:39:14.000Z</time>
      </trkpt>
      <trkpt lat="42.90714" lon="0.15711">
        <ele>1900</ele>
        <time>2020-07-29T08:39:15.000Z</time>
      </trkpt>
      <trkpt lat="42.90712" lon="0.15708">
        <ele>1901</ele>
        <time>2020-07-29T08:39:16.000Z</time>
      </trkpt>
      <trkpt lat="42.9071" lon="0.15706">
        <ele>1902</ele>
        <time>2020-07-29T08:39:17.000Z</time>
      </trkpt>
      <trkpt lat="42.90709" lon="0.15703">
        <ele>1903</ele>
        <time>2020-07-29T08:39:18.000Z</time>
      </trkpt>
      <trkpt lat="42.90707" lon="0.157">
        <ele>1904</ele>
        <time>2020-07-29T08:39:19.000Z</time>
      </trkpt>
      <trkpt lat="42.90706" lon="0.15697">
        <ele>1904</ele>
        <time>2020-07-29T08:39:20.000Z</time>
      </trkpt>
      <trkpt lat="42.90705" lon="0.15694">
        <ele>1905</ele>
        <time>2020-07-29T08:39:21.000Z</time>
      </trkpt>
      <trkpt lat="42.90704" lon="0.15692">
        <ele>1905</ele>
        <time>2020-07-29T08:39:22.000Z</time>
      </trkpt>
      <trkpt lat="42.90702" lon="0.15689">
        <ele>1905</ele>
        <time>2020-07-29T08:39:23.000Z</time>
      </trkpt>
      <trkpt lat="42.90701" lon="0.15686">
        <ele>1906</ele>
        <time>2020-07-29T08:39:24.000Z</time>
      </trkpt>
      <trkpt lat="42.907" lon="0.15683">
        <ele>1907</ele>
        <time>2020-07-29T08:39:25.000Z</time>
      </trkpt>
      <trkpt lat="42.90699" lon="0.15681">
        <ele>1908</ele>
        <time>2020-07-29T08:39:26.000Z</time>
      </trkpt>
      <trkpt lat="42.90699" lon="0.15677">
        <ele>1908</ele>
        <time>2020-07-29T08:39:27.000Z</time>
      </trkpt>
      <trkpt lat="42.90697" lon="0.15674">
        <ele>1910</ele>
        <time>2020-07-29T08:39:28.000Z</time>
      </trkpt>
      <trkpt lat="42.90696" lon="0.15671">
        <ele>1911</ele>
        <time>2020-07-29T08:39:29.000Z</time>
      </trkpt>
      <trkpt lat="42.90695" lon="0.15668">
        <ele>1911</ele>
        <time>2020-07-29T08:39:30.000Z</time>
      </trkpt>
      <trkpt lat="42.90694" lon="0.15665">
        <ele>1912</ele>
        <time>2020-07-29T08:39:31.000Z</time>
      </trkpt>
      <trkpt lat="42.90693" lon="0.15662">
        <ele>1912</ele>
        <time>2020-07-29T08:39:32.000Z</time>
      </trkpt>
      <trkpt lat="42.90692" lon="0.15659">
        <ele>1913</ele>
        <time>2020-07-29T08:39:33.000Z</time>
      </trkpt>
      <trkpt lat="42.90691" lon="0.15655">
        <ele>1913</ele>
        <time>2020-07-29T08:39:34.000Z</time>
      </trkpt>
      <trkpt lat="42.9069" lon="0.15652">
        <ele>1914</ele>
        <time>2020-07-29T08:39:35.000Z</time>
      </trkpt>
      <trkpt lat="42.90689" lon="0.15649">
        <ele>1915</ele>
        <time>2020-07-29T08:39:36.000Z</time>
      </trkpt>
      <trkpt lat="42.90687" lon="0.15646">
        <ele>1915</ele>
        <time>2020-07-29T08:39:37.000Z</time>
      </trkpt>
      <trkpt lat="42.90686" lon="0.15643">
        <ele>1916</ele>
        <time>2020-07-29T08:39:38.000Z</time>
      </trkpt>
      <trkpt lat="42.90685" lon="0.1564">
        <ele>1917</ele>
        <time>2020-07-29T08:39:39.000Z</time>
      </trkpt>
      <trkpt lat="42.90684" lon="0.15637">
        <ele>1917</ele>
        <time>2020-07-29T08:39:40.000Z</time>
      </trkpt>
      <trkpt lat="42.90683" lon="0.15634">
        <ele>1917</ele>
        <time>2020-07-29T08:39:41.000Z</time>
      </trkpt>
      <trkpt lat="42.90683" lon="0.15631">
        <ele>1918</ele>
        <time>2020-07-29T08:39:42.000Z</time>
      </trkpt>
      <trkpt lat="42.90682" lon="0.15627">
        <ele>1918</ele>
        <time>2020-07-29T08:39:43.000Z</time>
      </trkpt>
      <trkpt lat="42.90681" lon="0.15624">
        <ele>1918</ele>
        <time>2020-07-29T08:39:44.000Z</time>
      </trkpt>
      <trkpt lat="42.9068" lon="0.1562">
        <ele>1919</ele>
        <time>2020-07-29T08:39:45.000Z</time>
      </trkpt>
      <trkpt lat="42.90679" lon="0.15617">
        <ele>1918</ele>
        <time>2020-07-29T08:39:46.000Z</time>
      </trkpt>
      <trkpt lat="42.90678" lon="0.15613">
        <ele>1919</ele>
        <time>2020-07-29T08:39:47.000Z</time>
      </trkpt>
      <trkpt lat="42.90678" lon="0.15609">
        <ele>1920</ele>
        <time>2020-07-29T08:39:48.000Z</time>
      </trkpt>
      <trkpt lat="42.90677" lon="0.15606">
        <ele>1921</ele>
        <time>2020-07-29T08:39:49.000Z</time>
      </trkpt>
      <trkpt lat="42.90676" lon="0.15603">
        <ele>1921</ele>
        <time>2020-07-29T08:39:50.000Z</time>
      </trkpt>
      <trkpt lat="42.90675" lon="0.15599">
        <ele>1922</ele>
        <time>2020-07-29T08:39:51.000Z</time>
      </trkpt>
      <trkpt lat="42.90675" lon="0.15596">
        <ele>1922</ele>
        <time>2020-07-29T08:39:52.000Z</time>
      </trkpt>
      <trkpt lat="42.90674" lon="0.15592">
        <ele>1922</ele>
        <time>2020-07-29T08:39:53.000Z</time>
      </trkpt>
      <trkpt lat="42.90674" lon="0.15588">
        <ele>1922</ele>
        <time>2020-07-29T08:39:54.000Z</time>
      </trkpt>
      <trkpt lat="42.90674" lon="0.15584">
        <ele>1921</ele>
        <time>2020-07-29T08:39:55.000Z</time>
      </trkpt>
      <trkpt lat="42.90674" lon="0.1558">
        <ele>1921</ele>
        <time>2020-07-29T08:39:56.000Z</time>
      </trkpt>
      <trkpt lat="42.90674" lon="0.15576">
        <ele>1921</ele>
        <time>2020-07-29T08:39:57.000Z</time>
      </trkpt>
      <trkpt lat="42.90674" lon="0.15573">
        <ele>1921</ele>
        <time>2020-07-29T08:39:58.000Z</time>
      </trkpt>
      <trkpt lat="42.90674" lon="0.15569">
        <ele>1922</ele>
        <time>2020-07-29T08:39:59.000Z</time>
      </trkpt>
      <trkpt lat="42.90673" lon="0.15565">
        <ele>1922</ele>
        <time>2020-07-29T08:40:00.000Z</time>
      </trkpt>
      <trkpt lat="42.90673" lon="0.15562">
        <ele>1922</ele>
        <time>2020-07-29T08:40:01.000Z</time>
      </trkpt>
      <trkpt lat="42.90672" lon="0.15559">
        <ele>1922</ele>
        <time>2020-07-29T08:40:02.000Z</time>
      </trkpt>
      <trkpt lat="42.90672" lon="0.15556">
        <ele>1922</ele>
        <time>2020-07-29T08:40:03.000Z</time>
      </trkpt>
      <trkpt lat="42.90672" lon="0.15553">
        <ele>1922</ele>
        <time>2020-07-29T08:40:04.000Z</time>
      </trkpt>
      <trkpt lat="42.90671" lon="0.1555">
        <ele>1923</ele>
        <time>2020-07-29T08:40:05.000Z</time>
      </trkpt>
      <trkpt lat="42.9067" lon="0.15547">
        <ele>1922</ele>
        <time>2020-07-29T08:40:06.000Z</time>
      </trkpt>
      <trkpt lat="42.90669" lon="0.15544">
        <ele>1923</ele>
        <time>2020-07-29T08:40:07.000Z</time>
      </trkpt>
      <trkpt lat="42.90668" lon="0.15541">
        <ele>1924</ele>
        <time>2020-07-29T08:40:08.000Z</time>
      </trkpt>
      <trkpt lat="42.90667" lon="0.15538">
        <ele>1924</ele>
        <time>2020-07-29T08:40:09.000Z</time>
      </trkpt>
      <trkpt lat="42.90666" lon="0.15534">
        <ele>1925</ele>
        <time>2020-07-29T08:40:10.000Z</time>
      </trkpt>
      <trkpt lat="42.90666" lon="0.15531">
        <ele>1926</ele>
        <time>2020-07-29T08:40:11.000Z</time>
      </trkpt>
      <trkpt lat="42.90665" lon="0.15528">
        <ele>1927</ele>
        <time>2020-07-29T08:40:12.000Z</time>
      </trkpt>
      <trkpt lat="42.90665" lon="0.15525">
        <ele>1927</ele>
        <time>2020-07-29T08:40:13.000Z</time>
      </trkpt>
      <trkpt lat="42.90664" lon="0.15522">
        <ele>1928</ele>
        <time>2020-07-29T08:40:14.000Z</time>
      </trkpt>
      <trkpt lat="42.90664" lon="0.15519">
        <ele>1929</ele>
        <time>2020-07-29T08:40:15.000Z</time>
      </trkpt>
      <trkpt lat="42.90664" lon="0.15515">
        <ele>1928</ele>
        <time>2020-07-29T08:40:16.000Z</time>
      </trkpt>
      <trkpt lat="42.90664" lon="0.15512">
        <ele>1930</ele>
        <time>2020-07-29T08:40:17.000Z</time>
      </trkpt>
      <trkpt lat="42.90664" lon="0.15508">
        <ele>1929</ele>
        <time>2020-07-29T08:40:18.000Z</time>
      </trkpt>
      <trkpt lat="42.90664" lon="0.15505">
        <ele>1929</ele>
        <time>2020-07-29T08:40:19.000Z</time>
      </trkpt>
      <trkpt lat="42.90664" lon="0.15501">
        <ele>1930</ele>
        <time>2020-07-29T08:40:20.000Z</time>
      </trkpt>
      <trkpt lat="42.90664" lon="0.15497">
        <ele>1930</ele>
        <time>2020-07-29T08:40:21.000Z</time>
      </trkpt>
      <trkpt lat="42.90665" lon="0.15493">
        <ele>1930</ele>
        <time>2020-07-29T08:40:22.000Z</time>
      </trkpt>
      <trkpt lat="42.90664" lon="0.15489">
        <ele>1930</ele>
        <time>2020-07-29T08:40:23.000Z</time>
      </trkpt>
      <trkpt lat="42.90664" lon="0.15486">
        <ele>1931</ele>
        <time>2020-07-29T08:40:24.000Z</time>
      </trkpt>
      <trkpt lat="42.90664" lon="0.15483">
        <ele>1930</ele>
        <time>2020-07-29T08:40:25.000Z</time>
      </trkpt>
      <trkpt lat="42.90664" lon="0.15479">
        <ele>1931</ele>
        <time>2020-07-29T08:40:26.000Z</time>
      </trkpt>
      <trkpt lat="42.90665" lon="0.15476">
        <ele>1930</ele>
        <time>2020-07-29T08:40:27.000Z</time>
      </trkpt>
      <trkpt lat="42.90665" lon="0.15472">
        <ele>1931</ele>
        <time>2020-07-29T08:40:28.000Z</time>
      </trkpt>
      <trkpt lat="42.90665" lon="0.15469">
        <ele>1931</ele>
        <time>2020-07-29T08:40:29.000Z</time>
      </trkpt>
      <trkpt lat="42.90665" lon="0.15466">
        <ele>1932</ele>
        <time>2020-07-29T08:40:30.000Z</time>
      </trkpt>
      <trkpt lat="42.90666" lon="0.15462">
        <ele>1932</ele>
        <time>2020-07-29T08:40:31.000Z</time>
      </trkpt>
      <trkpt lat="42.90666" lon="0.15459">
        <ele>1931</ele>
        <time>2020-07-29T08:40:32.000Z</time>
      </trkpt>
      <trkpt lat="42.90667" lon="0.15456">
        <ele>1931</ele>
        <time>2020-07-29T08:40:33.000Z</time>
      </trkpt>
      <trkpt lat="42.90667" lon="0.15452">
        <ele>1932</ele>
        <time>2020-07-29T08:40:34.000Z</time>
      </trkpt>
      <trkpt lat="42.90667" lon="0.15449">
        <ele>1932</ele>
        <time>2020-07-29T08:40:35.000Z</time>
      </trkpt>
      <trkpt lat="42.90667" lon="0.15446">
        <ele>1932</ele>
        <time>2020-07-29T08:40:36.000Z</time>
      </trkpt>
      <trkpt lat="42.90668" lon="0.15442">
        <ele>1932</ele>
        <time>2020-07-29T08:40:37.000Z</time>
      </trkpt>
      <trkpt lat="42.90668" lon="0.15439">
        <ele>1932</ele>
        <time>2020-07-29T08:40:38.000Z</time>
      </trkpt>
      <trkpt lat="42.90668" lon="0.15435">
        <ele>1932</ele>
        <time>2020-07-29T08:40:39.000Z</time>
      </trkpt>
      <trkpt lat="42.90668" lon="0.15432">
        <ele>1932</ele>
        <time>2020-07-29T08:40:40.000Z</time>
      </trkpt>
      <trkpt lat="42.90669" lon="0.15428">
        <ele>1931</ele>
        <time>2020-07-29T08:40:41.000Z</time>
      </trkpt>
      <trkpt lat="42.9067" lon="0.15424">
        <ele>1931</ele>
        <time>2020-07-29T08:40:42.000Z</time>
      </trkpt>
      <trkpt lat="42.9067" lon="0.15421">
        <ele>1932</ele>
        <time>2020-07-29T08:40:43.000Z</time>
      </trkpt>
      <trkpt lat="42.90671" lon="0.15418">
        <ele>1930</ele>
        <time>2020-07-29T08:40:44.000Z</time>
      </trkpt>
      <trkpt lat="42.90672" lon="0.15415">
        <ele>1930</ele>
        <time>2020-07-29T08:40:45.000Z</time>
      </trkpt>
      <trkpt lat="42.90673" lon="0.15411">
        <ele>1930</ele>
        <time>2020-07-29T08:40:46.000Z</time>
      </trkpt>
      <trkpt lat="42.90674" lon="0.15409">
        <ele>1930</ele>
        <time>2020-07-29T08:40:47.000Z</time>
      </trkpt>
      <trkpt lat="42.90676" lon="0.15406">
        <ele>1930</ele>
        <time>2020-07-29T08:40:48.000Z</time>
      </trkpt>
      <trkpt lat="42.90678" lon="0.15403">
        <ele>1930</ele>
        <time>2020-07-29T08:40:49.000Z</time>
      </trkpt>
      <trkpt lat="42.9068" lon="0.15401">
        <ele>1930</ele>
        <time>2020-07-29T08:40:50.000Z</time>
      </trkpt>
      <trkpt lat="42.90682" lon="0.15399">
        <ele>1930</ele>
        <time>2020-07-29T08:40:51.000Z</time>
      </trkpt>
      <trkpt lat="42.90685" lon="0.15398">
        <ele>1929</ele>
        <time>2020-07-29T08:40:52.000Z</time>
      </trkpt>
      <trkpt lat="42.90687" lon="0.15396">
        <ele>1929</ele>
        <time>2020-07-29T08:40:53.000Z</time>
      </trkpt>
      <trkpt lat="42.90689" lon="0.15397">
        <ele>1930</ele>
        <time>2020-07-29T08:40:54.000Z</time>
      </trkpt>
      <trkpt lat="42.90691" lon="0.15399">
        <ele>1931</ele>
        <time>2020-07-29T08:40:55.000Z</time>
      </trkpt>
      <trkpt lat="42.90693" lon="0.15402">
        <ele>1932</ele>
        <time>2020-07-29T08:40:56.000Z</time>
      </trkpt>
      <trkpt lat="42.90695" lon="0.15404">
        <ele>1931</ele>
        <time>2020-07-29T08:40:57.000Z</time>
      </trkpt>
      <trkpt lat="42.90696" lon="0.15407">
        <ele>1931</ele>
        <time>2020-07-29T08:40:58.000Z</time>
      </trkpt>
      <trkpt lat="42.90696" lon="0.1541">
        <ele>1930</ele>
        <time>2020-07-29T08:40:59.000Z</time>
      </trkpt>
      <trkpt lat="42.90696" lon="0.15414">
        <ele>1931</ele>
        <time>2020-07-29T08:41:00.000Z</time>
      </trkpt>
      <trkpt lat="42.90696" lon="0.15418">
        <ele>1931</ele>
        <time>2020-07-29T08:41:01.000Z</time>
      </trkpt>
      <trkpt lat="42.90695" lon="0.15421">
        <ele>1932</ele>
        <time>2020-07-29T08:41:02.000Z</time>
      </trkpt>
      <trkpt lat="42.90695" lon="0.15425">
        <ele>1932</ele>
        <time>2020-07-29T08:41:03.000Z</time>
      </trkpt>
      <trkpt lat="42.90695" lon="0.15429">
        <ele>1933</ele>
        <time>2020-07-29T08:41:04.000Z</time>
      </trkpt>
      <trkpt lat="42.90694" lon="0.15433">
        <ele>1933</ele>
        <time>2020-07-29T08:41:05.000Z</time>
      </trkpt>
      <trkpt lat="42.90694" lon="0.15436">
        <ele>1933</ele>
        <time>2020-07-29T08:41:06.000Z</time>
      </trkpt>
      <trkpt lat="42.90693" lon="0.1544">
        <ele>1935</ele>
        <time>2020-07-29T08:41:07.000Z</time>
      </trkpt>
      <trkpt lat="42.90693" lon="0.15443">
        <ele>1936</ele>
        <time>2020-07-29T08:41:08.000Z</time>
      </trkpt>
      <trkpt lat="42.90692" lon="0.15447">
        <ele>1937</ele>
        <time>2020-07-29T08:41:09.000Z</time>
      </trkpt>
      <trkpt lat="42.90691" lon="0.1545">
        <ele>1939</ele>
        <time>2020-07-29T08:41:10.000Z</time>
      </trkpt>
      <trkpt lat="42.9069" lon="0.15454">
        <ele>1940</ele>
        <time>2020-07-29T08:41:11.000Z</time>
      </trkpt>
      <trkpt lat="42.9069" lon="0.15458">
        <ele>1942</ele>
        <time>2020-07-29T08:41:12.000Z</time>
      </trkpt>
      <trkpt lat="42.90689" lon="0.15461">
        <ele>1943</ele>
        <time>2020-07-29T08:41:13.000Z</time>
      </trkpt>
      <trkpt lat="42.90689" lon="0.15465">
        <ele>1943</ele>
        <time>2020-07-29T08:41:14.000Z</time>
      </trkpt>
      <trkpt lat="42.90689" lon="0.15468">
        <ele>1943</ele>
        <time>2020-07-29T08:41:15.000Z</time>
      </trkpt>
      <trkpt lat="42.90689" lon="0.15472">
        <ele>1943</ele>
        <time>2020-07-29T08:41:16.000Z</time>
      </trkpt>
      <trkpt lat="42.9069" lon="0.15475">
        <ele>1944</ele>
        <time>2020-07-29T08:41:17.000Z</time>
      </trkpt>
      <trkpt lat="42.9069" lon="0.15478">
        <ele>1944</ele>
        <time>2020-07-29T08:41:18.000Z</time>
      </trkpt>
      <trkpt lat="42.90691" lon="0.15482">
        <ele>1946</ele>
        <time>2020-07-29T08:41:19.000Z</time>
      </trkpt>
      <trkpt lat="42.90691" lon="0.15484">
        <ele>1946</ele>
        <time>2020-07-29T08:41:20.000Z</time>
      </trkpt>
      <trkpt lat="42.90693" lon="0.15487">
        <ele>1947</ele>
        <time>2020-07-29T08:41:21.000Z</time>
      </trkpt>
      <trkpt lat="42.90694" lon="0.1549">
        <ele>1946</ele>
        <time>2020-07-29T08:41:22.000Z</time>
      </trkpt>
      <trkpt lat="42.90696" lon="0.15492">
        <ele>1946</ele>
        <time>2020-07-29T08:41:23.000Z</time>
      </trkpt>
      <trkpt lat="42.90698" lon="0.15494">
        <ele>1946</ele>
        <time>2020-07-29T08:41:24.000Z</time>
      </trkpt>
      <trkpt lat="42.907" lon="0.15497">
        <ele>1947</ele>
        <time>2020-07-29T08:41:25.000Z</time>
      </trkpt>
      <trkpt lat="42.90702" lon="0.15499">
        <ele>1948</ele>
        <time>2020-07-29T08:41:26.000Z</time>
      </trkpt>
      <trkpt lat="42.90703" lon="0.15502">
        <ele>1948</ele>
        <time>2020-07-29T08:41:27.000Z</time>
      </trkpt>
      <trkpt lat="42.90705" lon="0.15504">
        <ele>1948</ele>
        <time>2020-07-29T08:41:28.000Z</time>
      </trkpt>
      <trkpt lat="42.90707" lon="0.15507">
        <ele>1948</ele>
        <time>2020-07-29T08:41:29.000Z</time>
      </trkpt>
      <trkpt lat="42.90708" lon="0.15509">
        <ele>1948</ele>
        <time>2020-07-29T08:41:30.000Z</time>
      </trkpt>
      <trkpt lat="42.9071" lon="0.15512">
        <ele>1949</ele>
        <time>2020-07-29T08:41:31.000Z</time>
      </trkpt>
      <trkpt lat="42.90711" lon="0.15514">
        <ele>1949</ele>
        <time>2020-07-29T08:41:32.000Z</time>
      </trkpt>
      <trkpt lat="42.90713" lon="0.15516">
        <ele>1949</ele>
        <time>2020-07-29T08:41:33.000Z</time>
      </trkpt>
      <trkpt lat="42.90714" lon="0.15518">
        <ele>1950</ele>
        <time>2020-07-29T08:41:34.000Z</time>
      </trkpt>
      <trkpt lat="42.90716" lon="0.1552">
        <ele>1950</ele>
        <time>2020-07-29T08:41:35.000Z</time>
      </trkpt>
      <trkpt lat="42.90718" lon="0.15522">
        <ele>1951</ele>
        <time>2020-07-29T08:41:36.000Z</time>
      </trkpt>
      <trkpt lat="42.90719" lon="0.15525">
        <ele>1951</ele>
        <time>2020-07-29T08:41:37.000Z</time>
      </trkpt>
      <trkpt lat="42.90721" lon="0.15527">
        <ele>1951</ele>
        <time>2020-07-29T08:41:38.000Z</time>
      </trkpt>
      <trkpt lat="42.90723" lon="0.15529">
        <ele>1952</ele>
        <time>2020-07-29T08:41:39.000Z</time>
      </trkpt>
      <trkpt lat="42.90725" lon="0.15532">
        <ele>1952</ele>
        <time>2020-07-29T08:41:40.000Z</time>
      </trkpt>
      <trkpt lat="42.90726" lon="0.15534">
        <ele>1952</ele>
        <time>2020-07-29T08:41:41.000Z</time>
      </trkpt>
      <trkpt lat="42.90728" lon="0.15536">
        <ele>1952</ele>
        <time>2020-07-29T08:41:42.000Z</time>
      </trkpt>
      <trkpt lat="42.9073" lon="0.15539">
        <ele>1953</ele>
        <time>2020-07-29T08:41:43.000Z</time>
      </trkpt>
      <trkpt lat="42.90732" lon="0.15541">
        <ele>1952</ele>
        <time>2020-07-29T08:41:44.000Z</time>
      </trkpt>
      <trkpt lat="42.90734" lon="0.15544">
        <ele>1952</ele>
        <time>2020-07-29T08:41:45.000Z</time>
      </trkpt>
      <trkpt lat="42.90736" lon="0.15546">
        <ele>1953</ele>
        <time>2020-07-29T08:41:46.000Z</time>
      </trkpt>
      <trkpt lat="42.90737" lon="0.15549">
        <ele>1953</ele>
        <time>2020-07-29T08:41:47.000Z</time>
      </trkpt>
      <trkpt lat="42.90739" lon="0.15551">
        <ele>1953</ele>
        <time>2020-07-29T08:41:48.000Z</time>
      </trkpt>
      <trkpt lat="42.90741" lon="0.15554">
        <ele>1953</ele>
        <time>2020-07-29T08:41:49.000Z</time>
      </trkpt>
      <trkpt lat="42.90743" lon="0.15556">
        <ele>1953</ele>
        <time>2020-07-29T08:41:50.000Z</time>
      </trkpt>
      <trkpt lat="42.90746" lon="0.15557">
        <ele>1953</ele>
        <time>2020-07-29T08:41:51.000Z</time>
      </trkpt>
      <trkpt lat="42.90748" lon="0.15559">
        <ele>1953</ele>
        <time>2020-07-29T08:41:52.000Z</time>
      </trkpt>
      <trkpt lat="42.90751" lon="0.1556">
        <ele>1953</ele>
        <time>2020-07-29T08:41:53.000Z</time>
      </trkpt>
      <trkpt lat="42.90753" lon="0.15561">
        <ele>1952</ele>
        <time>2020-07-29T08:41:54.000Z</time>
      </trkpt>
      <trkpt lat="42.90755" lon="0.15563">
        <ele>1953</ele>
        <time>2020-07-29T08:41:55.000Z</time>
      </trkpt>
      <trkpt lat="42.90758" lon="0.15564">
        <ele>1953</ele>
        <time>2020-07-29T08:41:56.000Z</time>
      </trkpt>
      <trkpt lat="42.9076" lon="0.15566">
        <ele>1953</ele>
        <time>2020-07-29T08:41:57.000Z</time>
      </trkpt>
      <trkpt lat="42.90762" lon="0.15567">
        <ele>1954</ele>
        <time>2020-07-29T08:41:58.000Z</time>
      </trkpt>
      <trkpt lat="42.90765" lon="0.15569">
        <ele>1954</ele>
        <time>2020-07-29T08:41:59.000Z</time>
      </trkpt>
      <trkpt lat="42.90767" lon="0.1557">
        <ele>1953</ele>
        <time>2020-07-29T08:42:00.000Z</time>
      </trkpt>
      <trkpt lat="42.90769" lon="0.15572">
        <ele>1954</ele>
        <time>2020-07-29T08:42:01.000Z</time>
      </trkpt>
      <trkpt lat="42.90771" lon="0.15574">
        <ele>1953</ele>
        <time>2020-07-29T08:42:02.000Z</time>
      </trkpt>
      <trkpt lat="42.90773" lon="0.15576">
        <ele>1953</ele>
        <time>2020-07-29T08:42:03.000Z</time>
      </trkpt>
      <trkpt lat="42.90774" lon="0.15578">
        <ele>1953</ele>
        <time>2020-07-29T08:42:04.000Z</time>
      </trkpt>
      <trkpt lat="42.90776" lon="0.1558">
        <ele>1953</ele>
        <time>2020-07-29T08:42:05.000Z</time>
      </trkpt>
      <trkpt lat="42.90778" lon="0.15583">
        <ele>1954</ele>
        <time>2020-07-29T08:42:06.000Z</time>
      </trkpt>
      <trkpt lat="42.90779" lon="0.15585">
        <ele>1954</ele>
        <time>2020-07-29T08:42:07.000Z</time>
      </trkpt>
      <trkpt lat="42.90781" lon="0.15587">
        <ele>1954</ele>
        <time>2020-07-29T08:42:08.000Z</time>
      </trkpt>
      <trkpt lat="42.90783" lon="0.15589">
        <ele>1954</ele>
        <time>2020-07-29T08:42:09.000Z</time>
      </trkpt>
      <trkpt lat="42.90785" lon="0.15591">
        <ele>1954</ele>
        <time>2020-07-29T08:42:10.000Z</time>
      </trkpt>
      <trkpt lat="42.90787" lon="0.15594">
        <ele>1955</ele>
        <time>2020-07-29T08:42:11.000Z</time>
      </trkpt>
      <trkpt lat="42.90789" lon="0.15596">
        <ele>1955</ele>
        <time>2020-07-29T08:42:12.000Z</time>
      </trkpt>
      <trkpt lat="42.90791" lon="0.15599">
        <ele>1956</ele>
        <time>2020-07-29T08:42:13.000Z</time>
      </trkpt>
      <trkpt lat="42.90793" lon="0.15602">
        <ele>1956</ele>
        <time>2020-07-29T08:42:14.000Z</time>
      </trkpt>
      <trkpt lat="42.90795" lon="0.15605">
        <ele>1957</ele>
        <time>2020-07-29T08:42:15.000Z</time>
      </trkpt>
      <trkpt lat="42.90796" lon="0.15608">
        <ele>1957</ele>
        <time>2020-07-29T08:42:16.000Z</time>
      </trkpt>
      <trkpt lat="42.90798" lon="0.15611">
        <ele>1957</ele>
        <time>2020-07-29T08:42:17.000Z</time>
      </trkpt>
      <trkpt lat="42.90799" lon="0.15613">
        <ele>1957</ele>
        <time>2020-07-29T08:42:18.000Z</time>
      </trkpt>
      <trkpt lat="42.90801" lon="0.15615">
        <ele>1957</ele>
        <time>2020-07-29T08:42:19.000Z</time>
      </trkpt>
      <trkpt lat="42.90803" lon="0.15618">
        <ele>1958</ele>
        <time>2020-07-29T08:42:20.000Z</time>
      </trkpt>
      <trkpt lat="42.90805" lon="0.1562">
        <ele>1958</ele>
        <time>2020-07-29T08:42:21.000Z</time>
      </trkpt>
      <trkpt lat="42.90807" lon="0.15623">
        <ele>1958</ele>
        <time>2020-07-29T08:42:22.000Z</time>
      </trkpt>
      <trkpt lat="42.90809" lon="0.15625">
        <ele>1957</ele>
        <time>2020-07-29T08:42:23.000Z</time>
      </trkpt>
      <trkpt lat="42.90811" lon="0.15627">
        <ele>1957</ele>
        <time>2020-07-29T08:42:24.000Z</time>
      </trkpt>
      <trkpt lat="42.90814" lon="0.15628">
        <ele>1957</ele>
        <time>2020-07-29T08:42:25.000Z</time>
      </trkpt>
      <trkpt lat="42.90816" lon="0.1563">
        <ele>1958</ele>
        <time>2020-07-29T08:42:26.000Z</time>
      </trkpt>
      <trkpt lat="42.90819" lon="0.1563">
        <ele>1957</ele>
        <time>2020-07-29T08:42:27.000Z</time>
      </trkpt>
      <trkpt lat="42.90821" lon="0.15631">
        <ele>1957</ele>
        <time>2020-07-29T08:42:28.000Z</time>
      </trkpt>
      <trkpt lat="42.90824" lon="0.15631">
        <ele>1957</ele>
        <time>2020-07-29T08:42:29.000Z</time>
      </trkpt>
      <trkpt lat="42.90828" lon="0.15631">
        <ele>1958</ele>
        <time>2020-07-29T08:42:30.000Z</time>
      </trkpt>
      <trkpt lat="42.90831" lon="0.15631">
        <ele>1960</ele>
        <time>2020-07-29T08:42:31.000Z</time>
      </trkpt>
      <trkpt lat="42.90833" lon="0.1563">
        <ele>1961</ele>
        <time>2020-07-29T08:42:32.000Z</time>
      </trkpt>
      <trkpt lat="42.90836" lon="0.15628">
        <ele>1962</ele>
        <time>2020-07-29T08:42:33.000Z</time>
      </trkpt>
      <trkpt lat="42.90838" lon="0.15627">
        <ele>1963</ele>
        <time>2020-07-29T08:42:34.000Z</time>
      </trkpt>
      <trkpt lat="42.90841" lon="0.15626">
        <ele>1964</ele>
        <time>2020-07-29T08:42:35.000Z</time>
      </trkpt>
      <trkpt lat="42.90844" lon="0.15625">
        <ele>1964</ele>
        <time>2020-07-29T08:42:36.000Z</time>
      </trkpt>
      <trkpt lat="42.90846" lon="0.15625">
        <ele>1964</ele>
        <time>2020-07-29T08:42:37.000Z</time>
      </trkpt>
      <trkpt lat="42.90849" lon="0.15626">
        <ele>1965</ele>
        <time>2020-07-29T08:42:38.000Z</time>
      </trkpt>
      <trkpt lat="42.90852" lon="0.15627">
        <ele>1965</ele>
        <time>2020-07-29T08:42:39.000Z</time>
      </trkpt>
      <trkpt lat="42.90854" lon="0.15628">
        <ele>1965</ele>
        <time>2020-07-29T08:42:40.000Z</time>
      </trkpt>
      <trkpt lat="42.90857" lon="0.15629">
        <ele>1966</ele>
        <time>2020-07-29T08:42:41.000Z</time>
      </trkpt>
      <trkpt lat="42.90859" lon="0.1563">
        <ele>1966</ele>
        <time>2020-07-29T08:42:42.000Z</time>
      </trkpt>
      <trkpt lat="42.90862" lon="0.15632">
        <ele>1967</ele>
        <time>2020-07-29T08:42:43.000Z</time>
      </trkpt>
      <trkpt lat="42.90865" lon="0.15633">
        <ele>1966</ele>
        <time>2020-07-29T08:42:44.000Z</time>
      </trkpt>
      <trkpt lat="42.90868" lon="0.15635">
        <ele>1966</ele>
        <time>2020-07-29T08:42:45.000Z</time>
      </trkpt>
      <trkpt lat="42.90871" lon="0.15636">
        <ele>1967</ele>
        <time>2020-07-29T08:42:46.000Z</time>
      </trkpt>
      <trkpt lat="42.90873" lon="0.15637">
        <ele>1967</ele>
        <time>2020-07-29T08:42:47.000Z</time>
      </trkpt>
      <trkpt lat="42.90876" lon="0.15639">
        <ele>1967</ele>
        <time>2020-07-29T08:42:48.000Z</time>
      </trkpt>
      <trkpt lat="42.90879" lon="0.1564">
        <ele>1967</ele>
        <time>2020-07-29T08:42:49.000Z</time>
      </trkpt>
      <trkpt lat="42.90881" lon="0.15641">
        <ele>1968</ele>
        <time>2020-07-29T08:42:50.000Z</time>
      </trkpt>
      <trkpt lat="42.90884" lon="0.15642">
        <ele>1967</ele>
        <time>2020-07-29T08:42:51.000Z</time>
      </trkpt>
      <trkpt lat="42.90886" lon="0.15643">
        <ele>1967</ele>
        <time>2020-07-29T08:42:52.000Z</time>
      </trkpt>
      <trkpt lat="42.90889" lon="0.15644">
        <ele>1968</ele>
        <time>2020-07-29T08:42:53.000Z</time>
      </trkpt>
      <trkpt lat="42.90892" lon="0.15645">
        <ele>1967</ele>
        <time>2020-07-29T08:42:54.000Z</time>
      </trkpt>
      <trkpt lat="42.90894" lon="0.15646">
        <ele>1967</ele>
        <time>2020-07-29T08:42:55.000Z</time>
      </trkpt>
      <trkpt lat="42.90897" lon="0.15646">
        <ele>1967</ele>
        <time>2020-07-29T08:42:56.000Z</time>
      </trkpt>
      <trkpt lat="42.90899" lon="0.15647">
        <ele>1968</ele>
        <time>2020-07-29T08:42:57.000Z</time>
      </trkpt>
      <trkpt lat="42.90902" lon="0.15647">
        <ele>1967</ele>
        <time>2020-07-29T08:42:58.000Z</time>
      </trkpt>
      <trkpt lat="42.90905" lon="0.15646">
        <ele>1967</ele>
        <time>2020-07-29T08:42:59.000Z</time>
      </trkpt>
      <trkpt lat="42.90907" lon="0.15646">
        <ele>1967</ele>
        <time>2020-07-29T08:43:00.000Z</time>
      </trkpt>
      <trkpt lat="42.9091" lon="0.15645">
        <ele>1966</ele>
        <time>2020-07-29T08:43:01.000Z</time>
      </trkpt>
      <trkpt lat="42.90913" lon="0.15644">
        <ele>1966</ele>
        <time>2020-07-29T08:43:02.000Z</time>
      </trkpt>
      <trkpt lat="42.90915" lon="0.15643">
        <ele>1965</ele>
        <time>2020-07-29T08:43:03.000Z</time>
      </trkpt>
      <trkpt lat="42.90917" lon="0.15641">
        <ele>1964</ele>
        <time>2020-07-29T08:43:04.000Z</time>
      </trkpt>
      <trkpt lat="42.90919" lon="0.15639">
        <ele>1963</ele>
        <time>2020-07-29T08:43:05.000Z</time>
      </trkpt>
      <trkpt lat="42.90921" lon="0.15637">
        <ele>1964</ele>
        <time>2020-07-29T08:43:06.000Z</time>
      </trkpt>
      <trkpt lat="42.90924" lon="0.15636">
        <ele>1964</ele>
        <time>2020-07-29T08:43:07.000Z</time>
      </trkpt>
      <trkpt lat="42.90926" lon="0.15634">
        <ele>1964</ele>
        <time>2020-07-29T08:43:08.000Z</time>
      </trkpt>
      <trkpt lat="42.90928" lon="0.15632">
        <ele>1964</ele>
        <time>2020-07-29T08:43:09.000Z</time>
      </trkpt>
      <trkpt lat="42.9093" lon="0.15631">
        <ele>1964</ele>
        <time>2020-07-29T08:43:10.000Z</time>
      </trkpt>
      <trkpt lat="42.90933" lon="0.15629">
        <ele>1963</ele>
        <time>2020-07-29T08:43:11.000Z</time>
      </trkpt>
      <trkpt lat="42.90935" lon="0.15627">
        <ele>1963</ele>
        <time>2020-07-29T08:43:12.000Z</time>
      </trkpt>
      <trkpt lat="42.90937" lon="0.15625">
        <ele>1963</ele>
        <time>2020-07-29T08:43:13.000Z</time>
      </trkpt>
      <trkpt lat="42.9094" lon="0.15623">
        <ele>1963</ele>
        <time>2020-07-29T08:43:14.000Z</time>
      </trkpt>
      <trkpt lat="42.90942" lon="0.15621">
        <ele>1964</ele>
        <time>2020-07-29T08:43:15.000Z</time>
      </trkpt>
      <trkpt lat="42.90944" lon="0.1562">
        <ele>1964</ele>
        <time>2020-07-29T08:43:16.000Z</time>
      </trkpt>
      <trkpt lat="42.90947" lon="0.15618">
        <ele>1964</ele>
        <time>2020-07-29T08:43:17.000Z</time>
      </trkpt>
      <trkpt lat="42.90949" lon="0.15617">
        <ele>1964</ele>
        <time>2020-07-29T08:43:18.000Z</time>
      </trkpt>
      <trkpt lat="42.90951" lon="0.15615">
        <ele>1964</ele>
        <time>2020-07-29T08:43:19.000Z</time>
      </trkpt>
      <trkpt lat="42.90953" lon="0.15614">
        <ele>1964</ele>
        <time>2020-07-29T08:43:20.000Z</time>
      </trkpt>
      <trkpt lat="42.90955" lon="0.15612">
        <ele>1964</ele>
        <time>2020-07-29T08:43:21.000Z</time>
      </trkpt>
      <trkpt lat="42.90957" lon="0.15611">
        <ele>1964</ele>
        <time>2020-07-29T08:43:22.000Z</time>
      </trkpt>
      <trkpt lat="42.90959" lon="0.15609">
        <ele>1964</ele>
        <time>2020-07-29T08:43:23.000Z</time>
      </trkpt>
      <trkpt lat="42.90962" lon="0.15608">
        <ele>1964</ele>
        <time>2020-07-29T08:43:24.000Z</time>
      </trkpt>
      <trkpt lat="42.90964" lon="0.15607">
        <ele>1965</ele>
        <time>2020-07-29T08:43:25.000Z</time>
      </trkpt>
      <trkpt lat="42.90966" lon="0.15607">
        <ele>1965</ele>
        <time>2020-07-29T08:43:26.000Z</time>
      </trkpt>
      <trkpt lat="42.90968" lon="0.15606">
        <ele>1965</ele>
        <time>2020-07-29T08:43:27.000Z</time>
      </trkpt>
      <trkpt lat="42.90971" lon="0.15606">
        <ele>1966</ele>
        <time>2020-07-29T08:43:28.000Z</time>
      </trkpt>
      <trkpt lat="42.90973" lon="0.15606">
        <ele>1966</ele>
        <time>2020-07-29T08:43:29.000Z</time>
      </trkpt>
      <trkpt lat="42.90975" lon="0.15607">
        <ele>1967</ele>
        <time>2020-07-29T08:43:30.000Z</time>
      </trkpt>
      <trkpt lat="42.90978" lon="0.15608">
        <ele>1968</ele>
        <time>2020-07-29T08:43:31.000Z</time>
      </trkpt>
      <trkpt lat="42.9098" lon="0.1561">
        <ele>1969</ele>
        <time>2020-07-29T08:43:32.000Z</time>
      </trkpt>
      <trkpt lat="42.90982" lon="0.15611">
        <ele>1970</ele>
        <time>2020-07-29T08:43:33.000Z</time>
      </trkpt>
      <trkpt lat="42.90984" lon="0.15613">
        <ele>1970</ele>
        <time>2020-07-29T08:43:34.000Z</time>
      </trkpt>
      <trkpt lat="42.90986" lon="0.15615">
        <ele>1971</ele>
        <time>2020-07-29T08:43:35.000Z</time>
      </trkpt>
      <trkpt lat="42.90988" lon="0.15617">
        <ele>1972</ele>
        <time>2020-07-29T08:43:36.000Z</time>
      </trkpt>
      <trkpt lat="42.90989" lon="0.1562">
        <ele>1972</ele>
        <time>2020-07-29T08:43:37.000Z</time>
      </trkpt>
      <trkpt lat="42.90992" lon="0.15622">
        <ele>1973</ele>
        <time>2020-07-29T08:43:38.000Z</time>
      </trkpt>
      <trkpt lat="42.90994" lon="0.15624">
        <ele>1973</ele>
        <time>2020-07-29T08:43:39.000Z</time>
      </trkpt>
      <trkpt lat="42.90996" lon="0.15626">
        <ele>1974</ele>
        <time>2020-07-29T08:43:40.000Z</time>
      </trkpt>
      <trkpt lat="42.90998" lon="0.15628">
        <ele>1975</ele>
        <time>2020-07-29T08:43:41.000Z</time>
      </trkpt>
      <trkpt lat="42.91001" lon="0.15629">
        <ele>1976</ele>
        <time>2020-07-29T08:43:42.000Z</time>
      </trkpt>
      <trkpt lat="42.91003" lon="0.1563">
        <ele>1976</ele>
        <time>2020-07-29T08:43:43.000Z</time>
      </trkpt>
      <trkpt lat="42.91005" lon="0.15631">
        <ele>1976</ele>
        <time>2020-07-29T08:43:44.000Z</time>
      </trkpt>
      <trkpt lat="42.91008" lon="0.15632">
        <ele>1975</ele>
        <time>2020-07-29T08:43:45.000Z</time>
      </trkpt>
      <trkpt lat="42.91011" lon="0.15632">
        <ele>1976</ele>
        <time>2020-07-29T08:43:46.000Z</time>
      </trkpt>
      <trkpt lat="42.91013" lon="0.15632">
        <ele>1976</ele>
        <time>2020-07-29T08:43:47.000Z</time>
      </trkpt>
      <trkpt lat="42.91015" lon="0.1563">
        <ele>1975</ele>
        <time>2020-07-29T08:43:48.000Z</time>
      </trkpt>
      <trkpt lat="42.91017" lon="0.15629">
        <ele>1975</ele>
        <time>2020-07-29T08:43:49.000Z</time>
      </trkpt>
      <trkpt lat="42.9102" lon="0.15628">
        <ele>1975</ele>
        <time>2020-07-29T08:43:50.000Z</time>
      </trkpt>
      <trkpt lat="42.91022" lon="0.15626">
        <ele>1974</ele>
        <time>2020-07-29T08:43:51.000Z</time>
      </trkpt>
      <trkpt lat="42.91024" lon="0.15623">
        <ele>1974</ele>
        <time>2020-07-29T08:43:52.000Z</time>
      </trkpt>
      <trkpt lat="42.91025" lon="0.15621">
        <ele>1973</ele>
        <time>2020-07-29T08:43:53.000Z</time>
      </trkpt>
      <trkpt lat="42.91027" lon="0.15618">
        <ele>1972</ele>
        <time>2020-07-29T08:43:54.000Z</time>
      </trkpt>
      <trkpt lat="42.91028" lon="0.15615">
        <ele>1971</ele>
        <time>2020-07-29T08:43:55.000Z</time>
      </trkpt>
      <trkpt lat="42.91029" lon="0.15611">
        <ele>1971</ele>
        <time>2020-07-29T08:43:56.000Z</time>
      </trkpt>
      <trkpt lat="42.91029" lon="0.15608">
        <ele>1971</ele>
        <time>2020-07-29T08:43:57.000Z</time>
      </trkpt>
      <trkpt lat="42.91029" lon="0.15605">
        <ele>1972</ele>
        <time>2020-07-29T08:43:58.000Z</time>
      </trkpt>
      <trkpt lat="42.91029" lon="0.15601">
        <ele>1972</ele>
        <time>2020-07-29T08:43:59.000Z</time>
      </trkpt>
      <trkpt lat="42.91027" lon="0.15597">
        <ele>1972</ele>
        <time>2020-07-29T08:44:00.000Z</time>
      </trkpt>
      <trkpt lat="42.91026" lon="0.15593">
        <ele>1972</ele>
        <time>2020-07-29T08:44:01.000Z</time>
      </trkpt>
      <trkpt lat="42.91023" lon="0.1559">
        <ele>1971</ele>
        <time>2020-07-29T08:44:02.000Z</time>
      </trkpt>
      <trkpt lat="42.91021" lon="0.15586">
        <ele>1970</ele>
        <time>2020-07-29T08:44:03.000Z</time>
      </trkpt>
      <trkpt lat="42.91019" lon="0.15582">
        <ele>1970</ele>
        <time>2020-07-29T08:44:04.000Z</time>
      </trkpt>
      <trkpt lat="42.91018" lon="0.15579">
        <ele>1972</ele>
        <time>2020-07-29T08:44:05.000Z</time>
      </trkpt>
      <trkpt lat="42.91016" lon="0.15576">
        <ele>1971</ele>
        <time>2020-07-29T08:44:06.000Z</time>
      </trkpt>
      <trkpt lat="42.91014" lon="0.15573">
        <ele>1971</ele>
        <time>2020-07-29T08:44:07.000Z</time>
      </trkpt>
      <trkpt lat="42.91012" lon="0.1557">
        <ele>1971</ele>
        <time>2020-07-29T08:44:08.000Z</time>
      </trkpt>
      <trkpt lat="42.9101" lon="0.15567">
        <ele>1971</ele>
        <time>2020-07-29T08:44:09.000Z</time>
      </trkpt>
      <trkpt lat="42.91008" lon="0.15564">
        <ele>1972</ele>
        <time>2020-07-29T08:44:10.000Z</time>
      </trkpt>
      <trkpt lat="42.91006" lon="0.15561">
        <ele>1973</ele>
        <time>2020-07-29T08:44:11.000Z</time>
      </trkpt>
      <trkpt lat="42.91004" lon="0.15559">
        <ele>1975</ele>
        <time>2020-07-29T08:44:12.000Z</time>
      </trkpt>
      <trkpt lat="42.91001" lon="0.15556">
        <ele>1975</ele>
        <time>2020-07-29T08:44:13.000Z</time>
      </trkpt>
      <trkpt lat="42.90998" lon="0.15554">
        <ele>1976</ele>
        <time>2020-07-29T08:44:14.000Z</time>
      </trkpt>
      <trkpt lat="42.90995" lon="0.15552">
        <ele>1977</ele>
        <time>2020-07-29T08:44:15.000Z</time>
      </trkpt>
      <trkpt lat="42.90993" lon="0.15551">
        <ele>1977</ele>
        <time>2020-07-29T08:44:16.000Z</time>
      </trkpt>
      <trkpt lat="42.9099" lon="0.15549">
        <ele>1978</ele>
        <time>2020-07-29T08:44:17.000Z</time>
      </trkpt>
      <trkpt lat="42.90988" lon="0.15547">
        <ele>1978</ele>
        <time>2020-07-29T08:44:18.000Z</time>
      </trkpt>
      <trkpt lat="42.90985" lon="0.15546">
        <ele>1978</ele>
        <time>2020-07-29T08:44:19.000Z</time>
      </trkpt>
      <trkpt lat="42.90983" lon="0.15545">
        <ele>1979</ele>
        <time>2020-07-29T08:44:20.000Z</time>
      </trkpt>
      <trkpt lat="42.9098" lon="0.15543">
        <ele>1980</ele>
        <time>2020-07-29T08:44:21.000Z</time>
      </trkpt>
      <trkpt lat="42.90978" lon="0.15541">
        <ele>1980</ele>
        <time>2020-07-29T08:44:22.000Z</time>
      </trkpt>
      <trkpt lat="42.90975" lon="0.1554">
        <ele>1981</ele>
        <time>2020-07-29T08:44:23.000Z</time>
      </trkpt>
      <trkpt lat="42.90973" lon="0.15538">
        <ele>1980</ele>
        <time>2020-07-29T08:44:24.000Z</time>
      </trkpt>
      <trkpt lat="42.90971" lon="0.15536">
        <ele>1981</ele>
        <time>2020-07-29T08:44:25.000Z</time>
      </trkpt>
      <trkpt lat="42.90969" lon="0.15534">
        <ele>1981</ele>
        <time>2020-07-29T08:44:26.000Z</time>
      </trkpt>
      <trkpt lat="42.90967" lon="0.15531">
        <ele>1982</ele>
        <time>2020-07-29T08:44:27.000Z</time>
      </trkpt>
      <trkpt lat="42.90965" lon="0.15529">
        <ele>1982</ele>
        <time>2020-07-29T08:44:28.000Z</time>
      </trkpt>
      <trkpt lat="42.90963" lon="0.15526">
        <ele>1982</ele>
        <time>2020-07-29T08:44:29.000Z</time>
      </trkpt>
      <trkpt lat="42.90961" lon="0.15524">
        <ele>1982</ele>
        <time>2020-07-29T08:44:30.000Z</time>
      </trkpt>
      <trkpt lat="42.9096" lon="0.15521">
        <ele>1983</ele>
        <time>2020-07-29T08:44:31.000Z</time>
      </trkpt>
      <trkpt lat="42.90958" lon="0.15519">
        <ele>1983</ele>
        <time>2020-07-29T08:44:32.000Z</time>
      </trkpt>
      <trkpt lat="42.90956" lon="0.15517">
        <ele>1984</ele>
        <time>2020-07-29T08:44:33.000Z</time>
      </trkpt>
      <trkpt lat="42.90954" lon="0.15514">
        <ele>1984</ele>
        <time>2020-07-29T08:44:34.000Z</time>
      </trkpt>
      <trkpt lat="42.90953" lon="0.15512">
        <ele>1984</ele>
        <time>2020-07-29T08:44:35.000Z</time>
      </trkpt>
      <trkpt lat="42.90951" lon="0.15509">
        <ele>1984</ele>
        <time>2020-07-29T08:44:36.000Z</time>
      </trkpt>
      <trkpt lat="42.90949" lon="0.15507">
        <ele>1985</ele>
        <time>2020-07-29T08:44:37.000Z</time>
      </trkpt>
      <trkpt lat="42.90947" lon="0.15504">
        <ele>1985</ele>
        <time>2020-07-29T08:44:38.000Z</time>
      </trkpt>
      <trkpt lat="42.90946" lon="0.15501">
        <ele>1985</ele>
        <time>2020-07-29T08:44:39.000Z</time>
      </trkpt>
      <trkpt lat="42.90944" lon="0.15499">
        <ele>1986</ele>
        <time>2020-07-29T08:44:40.000Z</time>
      </trkpt>
      <trkpt lat="42.90942" lon="0.15496">
        <ele>1985</ele>
        <time>2020-07-29T08:44:41.000Z</time>
      </trkpt>
      <trkpt lat="42.90941" lon="0.15494">
        <ele>1986</ele>
        <time>2020-07-29T08:44:42.000Z</time>
      </trkpt>
      <trkpt lat="42.90939" lon="0.15491">
        <ele>1986</ele>
        <time>2020-07-29T08:44:43.000Z</time>
      </trkpt>
      <trkpt lat="42.90937" lon="0.15488">
        <ele>1986</ele>
        <time>2020-07-29T08:44:44.000Z</time>
      </trkpt>
      <trkpt lat="42.90936" lon="0.15486">
        <ele>1986</ele>
        <time>2020-07-29T08:44:45.000Z</time>
      </trkpt>
      <trkpt lat="42.90934" lon="0.15483">
        <ele>1987</ele>
        <time>2020-07-29T08:44:46.000Z</time>
      </trkpt>
      <trkpt lat="42.90932" lon="0.1548">
        <ele>1987</ele>
        <time>2020-07-29T08:44:47.000Z</time>
      </trkpt>
      <trkpt lat="42.9093" lon="0.15478">
        <ele>1988</ele>
        <time>2020-07-29T08:44:48.000Z</time>
      </trkpt>
      <trkpt lat="42.90928" lon="0.15476">
        <ele>1989</ele>
        <time>2020-07-29T08:44:49.000Z</time>
      </trkpt>
      <trkpt lat="42.90926" lon="0.15474">
        <ele>1990</ele>
        <time>2020-07-29T08:44:50.000Z</time>
      </trkpt>
      <trkpt lat="42.90923" lon="0.15472">
        <ele>1990</ele>
        <time>2020-07-29T08:44:51.000Z</time>
      </trkpt>
      <trkpt lat="42.90921" lon="0.15471">
        <ele>1990</ele>
        <time>2020-07-29T08:44:52.000Z</time>
      </trkpt>
      <trkpt lat="42.90919" lon="0.15469">
        <ele>1991</ele>
        <time>2020-07-29T08:44:53.000Z</time>
      </trkpt>
      <trkpt lat="42.90916" lon="0.15468">
        <ele>1992</ele>
        <time>2020-07-29T08:44:54.000Z</time>
      </trkpt>
      <trkpt lat="42.90914" lon="0.15467">
        <ele>1992</ele>
        <time>2020-07-29T08:44:55.000Z</time>
      </trkpt>
      <trkpt lat="42.90912" lon="0.15466">
        <ele>1992</ele>
        <time>2020-07-29T08:44:56.000Z</time>
      </trkpt>
      <trkpt lat="42.90909" lon="0.15465">
        <ele>1993</ele>
        <time>2020-07-29T08:44:57.000Z</time>
      </trkpt>
      <trkpt lat="42.90906" lon="0.15465">
        <ele>1993</ele>
        <time>2020-07-29T08:44:58.000Z</time>
      </trkpt>
      <trkpt lat="42.90903" lon="0.15465">
        <ele>1994</ele>
        <time>2020-07-29T08:44:59.000Z</time>
      </trkpt>
      <trkpt lat="42.90901" lon="0.15465">
        <ele>1994</ele>
        <time>2020-07-29T08:45:00.000Z</time>
      </trkpt>
      <trkpt lat="42.90898" lon="0.15465">
        <ele>1995</ele>
        <time>2020-07-29T08:45:01.000Z</time>
      </trkpt>
      <trkpt lat="42.90895" lon="0.15464">
        <ele>1996</ele>
        <time>2020-07-29T08:45:02.000Z</time>
      </trkpt>
      <trkpt lat="42.90892" lon="0.15464">
        <ele>1996</ele>
        <time>2020-07-29T08:45:03.000Z</time>
      </trkpt>
      <trkpt lat="42.9089" lon="0.15463">
        <ele>1996</ele>
        <time>2020-07-29T08:45:04.000Z</time>
      </trkpt>
      <trkpt lat="42.90887" lon="0.15461">
        <ele>1996</ele>
        <time>2020-07-29T08:45:05.000Z</time>
      </trkpt>
      <trkpt lat="42.90885" lon="0.15459">
        <ele>1997</ele>
        <time>2020-07-29T08:45:06.000Z</time>
      </trkpt>
      <trkpt lat="42.90882" lon="0.15457">
        <ele>1998</ele>
        <time>2020-07-29T08:45:07.000Z</time>
      </trkpt>
      <trkpt lat="42.9088" lon="0.15455">
        <ele>1997</ele>
        <time>2020-07-29T08:45:08.000Z</time>
      </trkpt>
      <trkpt lat="42.90878" lon="0.15453">
        <ele>1998</ele>
        <time>2020-07-29T08:45:09.000Z</time>
      </trkpt>
      <trkpt lat="42.90877" lon="0.1545">
        <ele>1999</ele>
        <time>2020-07-29T08:45:10.000Z</time>
      </trkpt>
      <trkpt lat="42.90875" lon="0.15447">
        <ele>1999</ele>
        <time>2020-07-29T08:45:11.000Z</time>
      </trkpt>
      <trkpt lat="42.90873" lon="0.15444">
        <ele>1999</ele>
        <time>2020-07-29T08:45:12.000Z</time>
      </trkpt>
      <trkpt lat="42.90872" lon="0.15442">
        <ele>1999</ele>
        <time>2020-07-29T08:45:13.000Z</time>
      </trkpt>
      <trkpt lat="42.90871" lon="0.15439">
        <ele>2000</ele>
        <time>2020-07-29T08:45:14.000Z</time>
      </trkpt>
      <trkpt lat="42.90869" lon="0.15436">
        <ele>1999</ele>
        <time>2020-07-29T08:45:15.000Z</time>
      </trkpt>
      <trkpt lat="42.90868" lon="0.15432">
        <ele>2000</ele>
        <time>2020-07-29T08:45:16.000Z</time>
      </trkpt>
      <trkpt lat="42.90867" lon="0.15429">
        <ele>1999</ele>
        <time>2020-07-29T08:45:17.000Z</time>
      </trkpt>
      <trkpt lat="42.90866" lon="0.15426">
        <ele>1999</ele>
        <time>2020-07-29T08:45:18.000Z</time>
      </trkpt>
      <trkpt lat="42.90865" lon="0.15423">
        <ele>1999</ele>
        <time>2020-07-29T08:45:19.000Z</time>
      </trkpt>
      <trkpt lat="42.90864" lon="0.1542">
        <ele>1999</ele>
        <time>2020-07-29T08:45:20.000Z</time>
      </trkpt>
      <trkpt lat="42.90863" lon="0.15417">
        <ele>1999</ele>
        <time>2020-07-29T08:45:21.000Z</time>
      </trkpt>
      <trkpt lat="42.90862" lon="0.15413">
        <ele>1999</ele>
        <time>2020-07-29T08:45:22.000Z</time>
      </trkpt>
      <trkpt lat="42.9086" lon="0.1541">
        <ele>1999</ele>
        <time>2020-07-29T08:45:23.000Z</time>
      </trkpt>
      <trkpt lat="42.90859" lon="0.15407">
        <ele>1999</ele>
        <time>2020-07-29T08:45:24.000Z</time>
      </trkpt>
      <trkpt lat="42.90858" lon="0.15404">
        <ele>1999</ele>
        <time>2020-07-29T08:45:25.000Z</time>
      </trkpt>
      <trkpt lat="42.90857" lon="0.15401">
        <ele>2000</ele>
        <time>2020-07-29T08:45:26.000Z</time>
      </trkpt>
      <trkpt lat="42.90856" lon="0.15397">
        <ele>2000</ele>
        <time>2020-07-29T08:45:27.000Z</time>
      </trkpt>
      <trkpt lat="42.90854" lon="0.15394">
        <ele>2001</ele>
        <time>2020-07-29T08:45:28.000Z</time>
      </trkpt>
      <trkpt lat="42.90853" lon="0.15391">
        <ele>2001</ele>
        <time>2020-07-29T08:45:29.000Z</time>
      </trkpt>
      <trkpt lat="42.90852" lon="0.15388">
        <ele>2001</ele>
        <time>2020-07-29T08:45:30.000Z</time>
      </trkpt>
      <trkpt lat="42.90851" lon="0.15384">
        <ele>2001</ele>
        <time>2020-07-29T08:45:31.000Z</time>
      </trkpt>
      <trkpt lat="42.9085" lon="0.15381">
        <ele>2001</ele>
        <time>2020-07-29T08:45:32.000Z</time>
      </trkpt>
      <trkpt lat="42.90849" lon="0.15377">
        <ele>2001</ele>
        <time>2020-07-29T08:45:33.000Z</time>
      </trkpt>
      <trkpt lat="42.90849" lon="0.15373">
        <ele>2001</ele>
        <time>2020-07-29T08:45:34.000Z</time>
      </trkpt>
      <trkpt lat="42.90848" lon="0.1537">
        <ele>2001</ele>
        <time>2020-07-29T08:45:35.000Z</time>
      </trkpt>
      <trkpt lat="42.90848" lon="0.15366">
        <ele>2001</ele>
        <time>2020-07-29T08:45:36.000Z</time>
      </trkpt>
      <trkpt lat="42.90848" lon="0.15363">
        <ele>2001</ele>
        <time>2020-07-29T08:45:37.000Z</time>
      </trkpt>
      <trkpt lat="42.90848" lon="0.15359">
        <ele>2002</ele>
        <time>2020-07-29T08:45:38.000Z</time>
      </trkpt>
      <trkpt lat="42.90847" lon="0.15356">
        <ele>2002</ele>
        <time>2020-07-29T08:45:39.000Z</time>
      </trkpt>
      <trkpt lat="42.90847" lon="0.15353">
        <ele>2003</ele>
        <time>2020-07-29T08:45:40.000Z</time>
      </trkpt>
      <trkpt lat="42.90848" lon="0.15349">
        <ele>2003</ele>
        <time>2020-07-29T08:45:41.000Z</time>
      </trkpt>
      <trkpt lat="42.90848" lon="0.15346">
        <ele>2003</ele>
        <time>2020-07-29T08:45:42.000Z</time>
      </trkpt>
      <trkpt lat="42.90849" lon="0.15342">
        <ele>2004</ele>
        <time>2020-07-29T08:45:43.000Z</time>
      </trkpt>
      <trkpt lat="42.90849" lon="0.15339">
        <ele>2005</ele>
        <time>2020-07-29T08:45:44.000Z</time>
      </trkpt>
      <trkpt lat="42.9085" lon="0.15336">
        <ele>2005</ele>
        <time>2020-07-29T08:45:45.000Z</time>
      </trkpt>
      <trkpt lat="42.90851" lon="0.15332">
        <ele>2006</ele>
        <time>2020-07-29T08:45:46.000Z</time>
      </trkpt>
      <trkpt lat="42.90852" lon="0.15329">
        <ele>2006</ele>
        <time>2020-07-29T08:45:47.000Z</time>
      </trkpt>
      <trkpt lat="42.90853" lon="0.15326">
        <ele>2006</ele>
        <time>2020-07-29T08:45:48.000Z</time>
      </trkpt>
      <trkpt lat="42.90854" lon="0.15323">
        <ele>2006</ele>
        <time>2020-07-29T08:45:49.000Z</time>
      </trkpt>
      <trkpt lat="42.90856" lon="0.1532">
        <ele>2006</ele>
        <time>2020-07-29T08:45:50.000Z</time>
      </trkpt>
      <trkpt lat="42.90857" lon="0.15316">
        <ele>2006</ele>
        <time>2020-07-29T08:45:51.000Z</time>
      </trkpt>
      <trkpt lat="42.90859" lon="0.15313">
        <ele>2006</ele>
        <time>2020-07-29T08:45:52.000Z</time>
      </trkpt>
      <trkpt lat="42.9086" lon="0.1531">
        <ele>2006</ele>
        <time>2020-07-29T08:45:53.000Z</time>
      </trkpt>
      <trkpt lat="42.90862" lon="0.15307">
        <ele>2006</ele>
        <time>2020-07-29T08:45:54.000Z</time>
      </trkpt>
      <trkpt lat="42.90863" lon="0.15305">
        <ele>2007</ele>
        <time>2020-07-29T08:45:55.000Z</time>
      </trkpt>
      <trkpt lat="42.90865" lon="0.15302">
        <ele>2006</ele>
        <time>2020-07-29T08:45:56.000Z</time>
      </trkpt>
      <trkpt lat="42.90867" lon="0.15299">
        <ele>2006</ele>
        <time>2020-07-29T08:45:57.000Z</time>
      </trkpt>
      <trkpt lat="42.90869" lon="0.15296">
        <ele>2006</ele>
        <time>2020-07-29T08:45:58.000Z</time>
      </trkpt>
      <trkpt lat="42.9087" lon="0.15293">
        <ele>2006</ele>
        <time>2020-07-29T08:45:59.000Z</time>
      </trkpt>
      <trkpt lat="42.90872" lon="0.1529">
        <ele>2006</ele>
        <time>2020-07-29T08:46:00.000Z</time>
      </trkpt>
      <trkpt lat="42.90873" lon="0.15287">
        <ele>2006</ele>
        <time>2020-07-29T08:46:01.000Z</time>
      </trkpt>
      <trkpt lat="42.90874" lon="0.15284">
        <ele>2007</ele>
        <time>2020-07-29T08:46:02.000Z</time>
      </trkpt>
      <trkpt lat="42.90875" lon="0.15281">
        <ele>2006</ele>
        <time>2020-07-29T08:46:03.000Z</time>
      </trkpt>
      <trkpt lat="42.90877" lon="0.15278">
        <ele>2005</ele>
        <time>2020-07-29T08:46:04.000Z</time>
      </trkpt>
      <trkpt lat="42.90878" lon="0.15275">
        <ele>2005</ele>
        <time>2020-07-29T08:46:05.000Z</time>
      </trkpt>
      <trkpt lat="42.90879" lon="0.15271">
        <ele>2005</ele>
        <time>2020-07-29T08:46:06.000Z</time>
      </trkpt>
      <trkpt lat="42.90881" lon="0.15268">
        <ele>2005</ele>
        <time>2020-07-29T08:46:07.000Z</time>
      </trkpt>
      <trkpt lat="42.90882" lon="0.15265">
        <ele>2005</ele>
        <time>2020-07-29T08:46:08.000Z</time>
      </trkpt>
      <trkpt lat="42.90883" lon="0.15262">
        <ele>2006</ele>
        <time>2020-07-29T08:46:09.000Z</time>
      </trkpt>
      <trkpt lat="42.90885" lon="0.15259">
        <ele>2007</ele>
        <time>2020-07-29T08:46:10.000Z</time>
      </trkpt>
      <trkpt lat="42.90886" lon="0.15255">
        <ele>2007</ele>
        <time>2020-07-29T08:46:11.000Z</time>
      </trkpt>
      <trkpt lat="42.90887" lon="0.15252">
        <ele>2007</ele>
        <time>2020-07-29T08:46:12.000Z</time>
      </trkpt>
      <trkpt lat="42.90888" lon="0.15249">
        <ele>2007</ele>
        <time>2020-07-29T08:46:13.000Z</time>
      </trkpt>
      <trkpt lat="42.90889" lon="0.15245">
        <ele>2007</ele>
        <time>2020-07-29T08:46:14.000Z</time>
      </trkpt>
      <trkpt lat="42.9089" lon="0.15242">
        <ele>2007</ele>
        <time>2020-07-29T08:46:15.000Z</time>
      </trkpt>
      <trkpt lat="42.90891" lon="0.15238">
        <ele>2008</ele>
        <time>2020-07-29T08:46:16.000Z</time>
      </trkpt>
      <trkpt lat="42.90892" lon="0.15235">
        <ele>2008</ele>
        <time>2020-07-29T08:46:17.000Z</time>
      </trkpt>
      <trkpt lat="42.90892" lon="0.15232">
        <ele>2008</ele>
        <time>2020-07-29T08:46:18.000Z</time>
      </trkpt>
      <trkpt lat="42.90893" lon="0.15229">
        <ele>2007</ele>
        <time>2020-07-29T08:46:19.000Z</time>
      </trkpt>
      <trkpt lat="42.90893" lon="0.15226">
        <ele>2008</ele>
        <time>2020-07-29T08:46:20.000Z</time>
      </trkpt>
      <trkpt lat="42.90894" lon="0.15223">
        <ele>2008</ele>
        <time>2020-07-29T08:46:21.000Z</time>
      </trkpt>
      <trkpt lat="42.90895" lon="0.1522">
        <ele>2008</ele>
        <time>2020-07-29T08:46:22.000Z</time>
      </trkpt>
      <trkpt lat="42.90896" lon="0.15217">
        <ele>2007</ele>
        <time>2020-07-29T08:46:23.000Z</time>
      </trkpt>
      <trkpt lat="42.90896" lon="0.15214">
        <ele>2009</ele>
        <time>2020-07-29T08:46:24.000Z</time>
      </trkpt>
      <trkpt lat="42.90897" lon="0.15211">
        <ele>2010</ele>
        <time>2020-07-29T08:46:25.000Z</time>
      </trkpt>
      <trkpt lat="42.90897" lon="0.15208">
        <ele>2011</ele>
        <time>2020-07-29T08:46:26.000Z</time>
      </trkpt>
      <trkpt lat="42.90898" lon="0.15205">
        <ele>2012</ele>
        <time>2020-07-29T08:46:27.000Z</time>
      </trkpt>
      <trkpt lat="42.90898" lon="0.15203">
        <ele>2012</ele>
        <time>2020-07-29T08:46:28.000Z</time>
      </trkpt>
      <trkpt lat="42.90898" lon="0.15201">
        <ele>2014</ele>
        <time>2020-07-29T08:46:29.000Z</time>
      </trkpt>
      <trkpt lat="42.90898" lon="0.15199">
        <ele>2014</ele>
        <time>2020-07-29T08:46:30.000Z</time>
      </trkpt>
      <trkpt lat="42.90898" lon="0.15198">
        <ele>2015</ele>
        <time>2020-07-29T08:46:31.000Z</time>
      </trkpt>
      <trkpt lat="42.90899" lon="0.15196">
        <ele>2015</ele>
        <time>2020-07-29T08:46:32.000Z</time>
      </trkpt>
      <trkpt lat="42.90899" lon="0.15194">
        <ele>2015</ele>
        <time>2020-07-29T08:46:33.000Z</time>
      </trkpt>
      <trkpt lat="42.909" lon="0.15191">
        <ele>2015</ele>
        <time>2020-07-29T08:46:34.000Z</time>
      </trkpt>
      <trkpt lat="42.909" lon="0.15189">
        <ele>2014</ele>
        <time>2020-07-29T08:46:35.000Z</time>
      </trkpt>
      <trkpt lat="42.90901" lon="0.15186">
        <ele>2014</ele>
        <time>2020-07-29T08:46:36.000Z</time>
      </trkpt>
      <trkpt lat="42.90902" lon="0.15183">
        <ele>2015</ele>
        <time>2020-07-29T08:46:37.000Z</time>
      </trkpt>
      <trkpt lat="42.90903" lon="0.1518">
        <ele>2015</ele>
        <time>2020-07-29T08:46:38.000Z</time>
      </trkpt>
      <trkpt lat="42.90903" lon="0.15177">
        <ele>2016</ele>
        <time>2020-07-29T08:46:39.000Z</time>
      </trkpt>
      <trkpt lat="42.90904" lon="0.15174">
        <ele>2016</ele>
        <time>2020-07-29T08:46:40.000Z</time>
      </trkpt>
      <trkpt lat="42.90905" lon="0.15171">
        <ele>2015</ele>
        <time>2020-07-29T08:46:41.000Z</time>
      </trkpt>
      <trkpt lat="42.90906" lon="0.15168">
        <ele>2015</ele>
        <time>2020-07-29T08:46:42.000Z</time>
      </trkpt>
      <trkpt lat="42.90907" lon="0.15165">
        <ele>2015</ele>
        <time>2020-07-29T08:46:43.000Z</time>
      </trkpt>
      <trkpt lat="42.90908" lon="0.15162">
        <ele>2015</ele>
        <time>2020-07-29T08:46:44.000Z</time>
      </trkpt>
      <trkpt lat="42.9091" lon="0.15159">
        <ele>2015</ele>
        <time>2020-07-29T08:46:45.000Z</time>
      </trkpt>
      <trkpt lat="42.90911" lon="0.15156">
        <ele>2015</ele>
        <time>2020-07-29T08:46:46.000Z</time>
      </trkpt>
      <trkpt lat="42.90912" lon="0.15153">
        <ele>2015</ele>
        <time>2020-07-29T08:46:47.000Z</time>
      </trkpt>
      <trkpt lat="42.90913" lon="0.15149">
        <ele>2015</ele>
        <time>2020-07-29T08:46:48.000Z</time>
      </trkpt>
      <trkpt lat="42.90915" lon="0.15146">
        <ele>2015</ele>
        <time>2020-07-29T08:46:49.000Z</time>
      </trkpt>
      <trkpt lat="42.90915" lon="0.15143">
        <ele>2015</ele>
        <time>2020-07-29T08:46:50.000Z</time>
      </trkpt>
      <trkpt lat="42.90916" lon="0.15139">
        <ele>2015</ele>
        <time>2020-07-29T08:46:51.000Z</time>
      </trkpt>
      <trkpt lat="42.90916" lon="0.15135">
        <ele>2015</ele>
        <time>2020-07-29T08:46:52.000Z</time>
      </trkpt>
      <trkpt lat="42.90916" lon="0.15132">
        <ele>2016</ele>
        <time>2020-07-29T08:46:53.000Z</time>
      </trkpt>
      <trkpt lat="42.90916" lon="0.15128">
        <ele>2016</ele>
        <time>2020-07-29T08:46:54.000Z</time>
      </trkpt>
      <trkpt lat="42.90916" lon="0.15125">
        <ele>2017</ele>
        <time>2020-07-29T08:46:55.000Z</time>
      </trkpt>
      <trkpt lat="42.90915" lon="0.15121">
        <ele>2018</ele>
        <time>2020-07-29T08:46:56.000Z</time>
      </trkpt>
      <trkpt lat="42.90914" lon="0.15117">
        <ele>2019</ele>
        <time>2020-07-29T08:46:57.000Z</time>
      </trkpt>
      <trkpt lat="42.90913" lon="0.15113">
        <ele>2019</ele>
        <time>2020-07-29T08:46:58.000Z</time>
      </trkpt>
      <trkpt lat="42.90912" lon="0.1511">
        <ele>2019</ele>
        <time>2020-07-29T08:46:59.000Z</time>
      </trkpt>
      <trkpt lat="42.90911" lon="0.15106">
        <ele>2019</ele>
        <time>2020-07-29T08:47:00.000Z</time>
      </trkpt>
      <trkpt lat="42.9091" lon="0.15102">
        <ele>2019</ele>
        <time>2020-07-29T08:47:01.000Z</time>
      </trkpt>
      <trkpt lat="42.9091" lon="0.15099">
        <ele>2019</ele>
        <time>2020-07-29T08:47:02.000Z</time>
      </trkpt>
      <trkpt lat="42.90909" lon="0.15095">
        <ele>2020</ele>
        <time>2020-07-29T08:47:03.000Z</time>
      </trkpt>
      <trkpt lat="42.90908" lon="0.15091">
        <ele>2021</ele>
        <time>2020-07-29T08:47:04.000Z</time>
      </trkpt>
      <trkpt lat="42.90906" lon="0.15088">
        <ele>2021</ele>
        <time>2020-07-29T08:47:05.000Z</time>
      </trkpt>
      <trkpt lat="42.90905" lon="0.15085">
        <ele>2021</ele>
        <time>2020-07-29T08:47:06.000Z</time>
      </trkpt>
      <trkpt lat="42.90904" lon="0.15081">
        <ele>2022</ele>
        <time>2020-07-29T08:47:07.000Z</time>
      </trkpt>
      <trkpt lat="42.90903" lon="0.15078">
        <ele>2023</ele>
        <time>2020-07-29T08:47:08.000Z</time>
      </trkpt>
      <trkpt lat="42.90901" lon="0.15075">
        <ele>2024</ele>
        <time>2020-07-29T08:47:09.000Z</time>
      </trkpt>
      <trkpt lat="42.909" lon="0.15071">
        <ele>2024</ele>
        <time>2020-07-29T08:47:10.000Z</time>
      </trkpt>
      <trkpt lat="42.90899" lon="0.15068">
        <ele>2024</ele>
        <time>2020-07-29T08:47:11.000Z</time>
      </trkpt>
      <trkpt lat="42.90897" lon="0.15064">
        <ele>2024</ele>
        <time>2020-07-29T08:47:12.000Z</time>
      </trkpt>
      <trkpt lat="42.90896" lon="0.15061">
        <ele>2023</ele>
        <time>2020-07-29T08:47:13.000Z</time>
      </trkpt>
      <trkpt lat="42.90895" lon="0.15057">
        <ele>2023</ele>
        <time>2020-07-29T08:47:14.000Z</time>
      </trkpt>
      <trkpt lat="42.90893" lon="0.15053">
        <ele>2023</ele>
        <time>2020-07-29T08:47:15.000Z</time>
      </trkpt>
      <trkpt lat="42.90892" lon="0.15049">
        <ele>2023</ele>
        <time>2020-07-29T08:47:16.000Z</time>
      </trkpt>
      <trkpt lat="42.9089" lon="0.15046">
        <ele>2023</ele>
        <time>2020-07-29T08:47:17.000Z</time>
      </trkpt>
      <trkpt lat="42.90888" lon="0.15043">
        <ele>2023</ele>
        <time>2020-07-29T08:47:18.000Z</time>
      </trkpt>
      <trkpt lat="42.90887" lon="0.15039">
        <ele>2024</ele>
        <time>2020-07-29T08:47:19.000Z</time>
      </trkpt>
      <trkpt lat="42.90885" lon="0.15036">
        <ele>2023</ele>
        <time>2020-07-29T08:47:20.000Z</time>
      </trkpt>
      <trkpt lat="42.90884" lon="0.15033">
        <ele>2023</ele>
        <time>2020-07-29T08:47:21.000Z</time>
      </trkpt>
      <trkpt lat="42.90882" lon="0.1503">
        <ele>2023</ele>
        <time>2020-07-29T08:47:22.000Z</time>
      </trkpt>
      <trkpt lat="42.90881" lon="0.15027">
        <ele>2024</ele>
        <time>2020-07-29T08:47:23.000Z</time>
      </trkpt>
      <trkpt lat="42.90879" lon="0.15025">
        <ele>2023</ele>
        <time>2020-07-29T08:47:24.000Z</time>
      </trkpt>
      <trkpt lat="42.90877" lon="0.15022">
        <ele>2023</ele>
        <time>2020-07-29T08:47:25.000Z</time>
      </trkpt>
      <trkpt lat="42.90876" lon="0.15019">
        <ele>2023</ele>
        <time>2020-07-29T08:47:26.000Z</time>
      </trkpt>
      <trkpt lat="42.90874" lon="0.15016">
        <ele>2024</ele>
        <time>2020-07-29T08:47:27.000Z</time>
      </trkpt>
      <trkpt lat="42.90873" lon="0.15013">
        <ele>2024</ele>
        <time>2020-07-29T08:47:28.000Z</time>
      </trkpt>
      <trkpt lat="42.90871" lon="0.15009">
        <ele>2025</ele>
        <time>2020-07-29T08:47:29.000Z</time>
      </trkpt>
      <trkpt lat="42.9087" lon="0.15006">
        <ele>2025</ele>
        <time>2020-07-29T08:47:30.000Z</time>
      </trkpt>
      <trkpt lat="42.90869" lon="0.15003">
        <ele>2025</ele>
        <time>2020-07-29T08:47:31.000Z</time>
      </trkpt>
      <trkpt lat="42.90869" lon="0.14999">
        <ele>2024</ele>
        <time>2020-07-29T08:47:32.000Z</time>
      </trkpt>
      <trkpt lat="42.90868" lon="0.14996">
        <ele>2025</ele>
        <time>2020-07-29T08:47:33.000Z</time>
      </trkpt>
      <trkpt lat="42.90868" lon="0.14992">
        <ele>2025</ele>
        <time>2020-07-29T08:47:34.000Z</time>
      </trkpt>
      <trkpt lat="42.90867" lon="0.14989">
        <ele>2026</ele>
        <time>2020-07-29T08:47:35.000Z</time>
      </trkpt>
      <trkpt lat="42.90867" lon="0.14985">
        <ele>2027</ele>
        <time>2020-07-29T08:47:36.000Z</time>
      </trkpt>
      <trkpt lat="42.90867" lon="0.14982">
        <ele>2027</ele>
        <time>2020-07-29T08:47:37.000Z</time>
      </trkpt>
      <trkpt lat="42.90867" lon="0.14978">
        <ele>2027</ele>
        <time>2020-07-29T08:47:38.000Z</time>
      </trkpt>
      <trkpt lat="42.90867" lon="0.14974">
        <ele>2027</ele>
        <time>2020-07-29T08:47:39.000Z</time>
      </trkpt>
      <trkpt lat="42.90867" lon="0.14971">
        <ele>2028</ele>
        <time>2020-07-29T08:47:40.000Z</time>
      </trkpt>
      <trkpt lat="42.90867" lon="0.14967">
        <ele>2028</ele>
        <time>2020-07-29T08:47:41.000Z</time>
      </trkpt>
      <trkpt lat="42.90867" lon="0.14964">
        <ele>2029</ele>
        <time>2020-07-29T08:47:42.000Z</time>
      </trkpt>
      <trkpt lat="42.90867" lon="0.1496">
        <ele>2029</ele>
        <time>2020-07-29T08:47:43.000Z</time>
      </trkpt>
      <trkpt lat="42.90868" lon="0.14957">
        <ele>2029</ele>
        <time>2020-07-29T08:47:44.000Z</time>
      </trkpt>
      <trkpt lat="42.90868" lon="0.14953">
        <ele>2030</ele>
        <time>2020-07-29T08:47:45.000Z</time>
      </trkpt>
      <trkpt lat="42.90869" lon="0.1495">
        <ele>2029</ele>
        <time>2020-07-29T08:47:46.000Z</time>
      </trkpt>
      <trkpt lat="42.9087" lon="0.14947">
        <ele>2030</ele>
        <time>2020-07-29T08:47:47.000Z</time>
      </trkpt>
      <trkpt lat="42.90871" lon="0.14943">
        <ele>2030</ele>
        <time>2020-07-29T08:47:48.000Z</time>
      </trkpt>
      <trkpt lat="42.90871" lon="0.1494">
        <ele>2031</ele>
        <time>2020-07-29T08:47:49.000Z</time>
      </trkpt>
      <trkpt lat="42.90872" lon="0.14937">
        <ele>2031</ele>
        <time>2020-07-29T08:47:50.000Z</time>
      </trkpt>
      <trkpt lat="42.90873" lon="0.14934">
        <ele>2032</ele>
        <time>2020-07-29T08:47:51.000Z</time>
      </trkpt>
      <trkpt lat="42.90874" lon="0.1493">
        <ele>2032</ele>
        <time>2020-07-29T08:47:52.000Z</time>
      </trkpt>
      <trkpt lat="42.90874" lon="0.14927">
        <ele>2032</ele>
        <time>2020-07-29T08:47:53.000Z</time>
      </trkpt>
      <trkpt lat="42.90875" lon="0.14924">
        <ele>2032</ele>
        <time>2020-07-29T08:47:54.000Z</time>
      </trkpt>
      <trkpt lat="42.90876" lon="0.1492">
        <ele>2032</ele>
        <time>2020-07-29T08:47:55.000Z</time>
      </trkpt>
      <trkpt lat="42.90876" lon="0.14917">
        <ele>2032</ele>
        <time>2020-07-29T08:47:56.000Z</time>
      </trkpt>
      <trkpt lat="42.90876" lon="0.14913">
        <ele>2032</ele>
        <time>2020-07-29T08:47:57.000Z</time>
      </trkpt>
      <trkpt lat="42.90876" lon="0.14909">
        <ele>2032</ele>
        <time>2020-07-29T08:47:58.000Z</time>
      </trkpt>
      <trkpt lat="42.90875" lon="0.14905">
        <ele>2032</ele>
        <time>2020-07-29T08:47:59.000Z</time>
      </trkpt>
      <trkpt lat="42.90874" lon="0.14901">
        <ele>2032</ele>
        <time>2020-07-29T08:48:00.000Z</time>
      </trkpt>
      <trkpt lat="42.90872" lon="0.14898">
        <ele>2034</ele>
        <time>2020-07-29T08:48:01.000Z</time>
      </trkpt>
      <trkpt lat="42.90871" lon="0.14895">
        <ele>2034</ele>
        <time>2020-07-29T08:48:02.000Z</time>
      </trkpt>
      <trkpt lat="42.90868" lon="0.14892">
        <ele>2034</ele>
        <time>2020-07-29T08:48:03.000Z</time>
      </trkpt>
      <trkpt lat="42.90865" lon="0.14889">
        <ele>2034</ele>
        <time>2020-07-29T08:48:04.000Z</time>
      </trkpt>
      <trkpt lat="42.90862" lon="0.14888">
        <ele>2034</ele>
        <time>2020-07-29T08:48:05.000Z</time>
      </trkpt>
      <trkpt lat="42.90859" lon="0.14886">
        <ele>2034</ele>
        <time>2020-07-29T08:48:06.000Z</time>
      </trkpt>
      <trkpt lat="42.90856" lon="0.14886">
        <ele>2035</ele>
        <time>2020-07-29T08:48:07.000Z</time>
      </trkpt>
      <trkpt lat="42.90853" lon="0.14885">
        <ele>2035</ele>
        <time>2020-07-29T08:48:08.000Z</time>
      </trkpt>
      <trkpt lat="42.9085" lon="0.14885">
        <ele>2036</ele>
        <time>2020-07-29T08:48:09.000Z</time>
      </trkpt>
      <trkpt lat="42.90847" lon="0.14885">
        <ele>2037</ele>
        <time>2020-07-29T08:48:10.000Z</time>
      </trkpt>
      <trkpt lat="42.90844" lon="0.14885">
        <ele>2037</ele>
        <time>2020-07-29T08:48:11.000Z</time>
      </trkpt>
      <trkpt lat="42.90841" lon="0.14885">
        <ele>2037</ele>
        <time>2020-07-29T08:48:12.000Z</time>
      </trkpt>
      <trkpt lat="42.90838" lon="0.14885">
        <ele>2037</ele>
        <time>2020-07-29T08:48:13.000Z</time>
      </trkpt>
      <trkpt lat="42.90836" lon="0.14886">
        <ele>2038</ele>
        <time>2020-07-29T08:48:14.000Z</time>
      </trkpt>
      <trkpt lat="42.90833" lon="0.14886">
        <ele>2039</ele>
        <time>2020-07-29T08:48:15.000Z</time>
      </trkpt>
      <trkpt lat="42.9083" lon="0.14886">
        <ele>2039</ele>
        <time>2020-07-29T08:48:16.000Z</time>
      </trkpt>
      <trkpt lat="42.90827" lon="0.14887">
        <ele>2040</ele>
        <time>2020-07-29T08:48:17.000Z</time>
      </trkpt>
      <trkpt lat="42.90824" lon="0.14888">
        <ele>2041</ele>
        <time>2020-07-29T08:48:18.000Z</time>
      </trkpt>
      <trkpt lat="42.90821" lon="0.14888">
        <ele>2043</ele>
        <time>2020-07-29T08:48:19.000Z</time>
      </trkpt>
      <trkpt lat="42.90819" lon="0.14889">
        <ele>2043</ele>
        <time>2020-07-29T08:48:20.000Z</time>
      </trkpt>
      <trkpt lat="42.90816" lon="0.14889">
        <ele>2043</ele>
        <time>2020-07-29T08:48:21.000Z</time>
      </trkpt>
      <trkpt lat="42.90813" lon="0.14888">
        <ele>2044</ele>
        <time>2020-07-29T08:48:22.000Z</time>
      </trkpt>
      <trkpt lat="42.9081" lon="0.14888">
        <ele>2044</ele>
        <time>2020-07-29T08:48:23.000Z</time>
      </trkpt>
      <trkpt lat="42.90807" lon="0.14887">
        <ele>2045</ele>
        <time>2020-07-29T08:48:24.000Z</time>
      </trkpt>
      <trkpt lat="42.90804" lon="0.14886">
        <ele>2045</ele>
        <time>2020-07-29T08:48:25.000Z</time>
      </trkpt>
      <trkpt lat="42.90801" lon="0.14885">
        <ele>2045</ele>
        <time>2020-07-29T08:48:26.000Z</time>
      </trkpt>
      <trkpt lat="42.90798" lon="0.14884">
        <ele>2046</ele>
        <time>2020-07-29T08:48:27.000Z</time>
      </trkpt>
      <trkpt lat="42.90796" lon="0.14883">
        <ele>2046</ele>
        <time>2020-07-29T08:48:28.000Z</time>
      </trkpt>
      <trkpt lat="42.90793" lon="0.14881">
        <ele>2047</ele>
        <time>2020-07-29T08:48:29.000Z</time>
      </trkpt>
      <trkpt lat="42.90791" lon="0.1488">
        <ele>2046</ele>
        <time>2020-07-29T08:48:30.000Z</time>
      </trkpt>
      <trkpt lat="42.90788" lon="0.14879">
        <ele>2046</ele>
        <time>2020-07-29T08:48:31.000Z</time>
      </trkpt>
      <trkpt lat="42.90786" lon="0.14878">
        <ele>2048</ele>
        <time>2020-07-29T08:48:32.000Z</time>
      </trkpt>
      <trkpt lat="42.90783" lon="0.14877">
        <ele>2049</ele>
        <time>2020-07-29T08:48:33.000Z</time>
      </trkpt>
      <trkpt lat="42.9078" lon="0.14876">
        <ele>2049</ele>
        <time>2020-07-29T08:48:34.000Z</time>
      </trkpt>
      <trkpt lat="42.90778" lon="0.14876">
        <ele>2049</ele>
        <time>2020-07-29T08:48:35.000Z</time>
      </trkpt>
      <trkpt lat="42.90775" lon="0.14875">
        <ele>2050</ele>
        <time>2020-07-29T08:48:36.000Z</time>
      </trkpt>
      <trkpt lat="42.90772" lon="0.14875">
        <ele>2051</ele>
        <time>2020-07-29T08:48:37.000Z</time>
      </trkpt>
      <trkpt lat="42.90769" lon="0.14875">
        <ele>2051</ele>
        <time>2020-07-29T08:48:38.000Z</time>
      </trkpt>
      <trkpt lat="42.90766" lon="0.14875">
        <ele>2052</ele>
        <time>2020-07-29T08:48:39.000Z</time>
      </trkpt>
      <trkpt lat="42.90764" lon="0.14875">
        <ele>2052</ele>
        <time>2020-07-29T08:48:40.000Z</time>
      </trkpt>
      <trkpt lat="42.90761" lon="0.14875">
        <ele>2053</ele>
        <time>2020-07-29T08:48:41.000Z</time>
      </trkpt>
      <trkpt lat="42.90758" lon="0.14876">
        <ele>2053</ele>
        <time>2020-07-29T08:48:42.000Z</time>
      </trkpt>
      <trkpt lat="42.90755" lon="0.14876">
        <ele>2053</ele>
        <time>2020-07-29T08:48:43.000Z</time>
      </trkpt>
      <trkpt lat="42.90753" lon="0.14876">
        <ele>2053</ele>
        <time>2020-07-29T08:48:44.000Z</time>
      </trkpt>
      <trkpt lat="42.9075" lon="0.14876">
        <ele>2053</ele>
        <time>2020-07-29T08:48:45.000Z</time>
      </trkpt>
      <trkpt lat="42.90748" lon="0.14876">
        <ele>2053</ele>
        <time>2020-07-29T08:48:46.000Z</time>
      </trkpt>
      <trkpt lat="42.90745" lon="0.14875">
        <ele>2053</ele>
        <time>2020-07-29T08:48:47.000Z</time>
      </trkpt>
      <trkpt lat="42.90742" lon="0.14874">
        <ele>2053</ele>
        <time>2020-07-29T08:48:48.000Z</time>
      </trkpt>
      <trkpt lat="42.90739" lon="0.14873">
        <ele>2054</ele>
        <time>2020-07-29T08:48:49.000Z</time>
      </trkpt>
      <trkpt lat="42.90737" lon="0.14872">
        <ele>2054</ele>
        <time>2020-07-29T08:48:50.000Z</time>
      </trkpt>
      <trkpt lat="42.90734" lon="0.14871">
        <ele>2054</ele>
        <time>2020-07-29T08:48:51.000Z</time>
      </trkpt>
      <trkpt lat="42.90732" lon="0.14869">
        <ele>2055</ele>
        <time>2020-07-29T08:48:52.000Z</time>
      </trkpt>
      <trkpt lat="42.90729" lon="0.14868">
        <ele>2055</ele>
        <time>2020-07-29T08:48:53.000Z</time>
      </trkpt>
      <trkpt lat="42.90727" lon="0.14866">
        <ele>2054</ele>
        <time>2020-07-29T08:48:54.000Z</time>
      </trkpt>
      <trkpt lat="42.90725" lon="0.14864">
        <ele>2054</ele>
        <time>2020-07-29T08:48:55.000Z</time>
      </trkpt>
      <trkpt lat="42.90723" lon="0.14861">
        <ele>2053</ele>
        <time>2020-07-29T08:48:56.000Z</time>
      </trkpt>
      <trkpt lat="42.90721" lon="0.14859">
        <ele>2054</ele>
        <time>2020-07-29T08:48:57.000Z</time>
      </trkpt>
      <trkpt lat="42.90719" lon="0.14857">
        <ele>2054</ele>
        <time>2020-07-29T08:48:58.000Z</time>
      </trkpt>
      <trkpt lat="42.90716" lon="0.14856">
        <ele>2055</ele>
        <time>2020-07-29T08:48:59.000Z</time>
      </trkpt>
      <trkpt lat="42.90714" lon="0.14854">
        <ele>2055</ele>
        <time>2020-07-29T08:49:00.000Z</time>
      </trkpt>
      <trkpt lat="42.90711" lon="0.14852">
        <ele>2055</ele>
        <time>2020-07-29T08:49:01.000Z</time>
      </trkpt>
      <trkpt lat="42.90709" lon="0.1485">
        <ele>2056</ele>
        <time>2020-07-29T08:49:02.000Z</time>
      </trkpt>
      <trkpt lat="42.90707" lon="0.14849">
        <ele>2056</ele>
        <time>2020-07-29T08:49:03.000Z</time>
      </trkpt>
      <trkpt lat="42.90705" lon="0.14847">
        <ele>2056</ele>
        <time>2020-07-29T08:49:04.000Z</time>
      </trkpt>
      <trkpt lat="42.90702" lon="0.14845">
        <ele>2057</ele>
        <time>2020-07-29T08:49:05.000Z</time>
      </trkpt>
      <trkpt lat="42.907" lon="0.14843">
        <ele>2056</ele>
        <time>2020-07-29T08:49:06.000Z</time>
      </trkpt>
      <trkpt lat="42.90698" lon="0.14841">
        <ele>2056</ele>
        <time>2020-07-29T08:49:07.000Z</time>
      </trkpt>
      <trkpt lat="42.90696" lon="0.14839">
        <ele>2057</ele>
        <time>2020-07-29T08:49:08.000Z</time>
      </trkpt>
      <trkpt lat="42.90693" lon="0.14837">
        <ele>2057</ele>
        <time>2020-07-29T08:49:09.000Z</time>
      </trkpt>
      <trkpt lat="42.90691" lon="0.14835">
        <ele>2057</ele>
        <time>2020-07-29T08:49:10.000Z</time>
      </trkpt>
      <trkpt lat="42.90689" lon="0.14834">
        <ele>2057</ele>
        <time>2020-07-29T08:49:11.000Z</time>
      </trkpt>
      <trkpt lat="42.90686" lon="0.14832">
        <ele>2057</ele>
        <time>2020-07-29T08:49:12.000Z</time>
      </trkpt>
      <trkpt lat="42.90684" lon="0.14831">
        <ele>2057</ele>
        <time>2020-07-29T08:49:13.000Z</time>
      </trkpt>
      <trkpt lat="42.90682" lon="0.14829">
        <ele>2058</ele>
        <time>2020-07-29T08:49:14.000Z</time>
      </trkpt>
      <trkpt lat="42.90679" lon="0.14828">
        <ele>2058</ele>
        <time>2020-07-29T08:49:15.000Z</time>
      </trkpt>
      <trkpt lat="42.90677" lon="0.14827">
        <ele>2059</ele>
        <time>2020-07-29T08:49:16.000Z</time>
      </trkpt>
      <trkpt lat="42.90675" lon="0.14825">
        <ele>2059</ele>
        <time>2020-07-29T08:49:17.000Z</time>
      </trkpt>
      <trkpt lat="42.90672" lon="0.14824">
        <ele>2060</ele>
        <time>2020-07-29T08:49:18.000Z</time>
      </trkpt>
      <trkpt lat="42.9067" lon="0.14822">
        <ele>2060</ele>
        <time>2020-07-29T08:49:19.000Z</time>
      </trkpt>
      <trkpt lat="42.90667" lon="0.14822">
        <ele>2061</ele>
        <time>2020-07-29T08:49:20.000Z</time>
      </trkpt>
      <trkpt lat="42.90665" lon="0.14821">
        <ele>2061</ele>
        <time>2020-07-29T08:49:21.000Z</time>
      </trkpt>
      <trkpt lat="42.90663" lon="0.1482">
        <ele>2062</ele>
        <time>2020-07-29T08:49:22.000Z</time>
      </trkpt>
      <trkpt lat="42.9066" lon="0.14819">
        <ele>2062</ele>
        <time>2020-07-29T08:49:23.000Z</time>
      </trkpt>
      <trkpt lat="42.90658" lon="0.14819">
        <ele>2062</ele>
        <time>2020-07-29T08:49:24.000Z</time>
      </trkpt>
      <trkpt lat="42.90655" lon="0.14819">
        <ele>2063</ele>
        <time>2020-07-29T08:49:25.000Z</time>
      </trkpt>
      <trkpt lat="42.90653" lon="0.14819">
        <ele>2065</ele>
        <time>2020-07-29T08:49:26.000Z</time>
      </trkpt>
      <trkpt lat="42.90651" lon="0.14819">
        <ele>2065</ele>
        <time>2020-07-29T08:49:27.000Z</time>
      </trkpt>
      <trkpt lat="42.90649" lon="0.1482">
        <ele>2066</ele>
        <time>2020-07-29T08:49:28.000Z</time>
      </trkpt>
      <trkpt lat="42.90646" lon="0.14822">
        <ele>2067</ele>
        <time>2020-07-29T08:49:29.000Z</time>
      </trkpt>
      <trkpt lat="42.90644" lon="0.14823">
        <ele>2067</ele>
        <time>2020-07-29T08:49:30.000Z</time>
      </trkpt>
      <trkpt lat="42.90641" lon="0.14824">
        <ele>2068</ele>
        <time>2020-07-29T08:49:31.000Z</time>
      </trkpt>
      <trkpt lat="42.90638" lon="0.14826">
        <ele>2069</ele>
        <time>2020-07-29T08:49:32.000Z</time>
      </trkpt>
      <trkpt lat="42.90636" lon="0.14827">
        <ele>2070</ele>
        <time>2020-07-29T08:49:33.000Z</time>
      </trkpt>
      <trkpt lat="42.90633" lon="0.14829">
        <ele>2071</ele>
        <time>2020-07-29T08:49:34.000Z</time>
      </trkpt>
      <trkpt lat="42.90631" lon="0.14831">
        <ele>2071</ele>
        <time>2020-07-29T08:49:35.000Z</time>
      </trkpt>
      <trkpt lat="42.90628" lon="0.14833">
        <ele>2072</ele>
        <time>2020-07-29T08:49:36.000Z</time>
      </trkpt>
      <trkpt lat="42.90626" lon="0.14834">
        <ele>2072</ele>
        <time>2020-07-29T08:49:37.000Z</time>
      </trkpt>
      <trkpt lat="42.90624" lon="0.14835">
        <ele>2073</ele>
        <time>2020-07-29T08:49:38.000Z</time>
      </trkpt>
      <trkpt lat="42.90621" lon="0.14836">
        <ele>2073</ele>
        <time>2020-07-29T08:49:39.000Z</time>
      </trkpt>
      <trkpt lat="42.90619" lon="0.14836">
        <ele>2074</ele>
        <time>2020-07-29T08:49:40.000Z</time>
      </trkpt>
      <trkpt lat="42.90617" lon="0.14836">
        <ele>2075</ele>
        <time>2020-07-29T08:49:41.000Z</time>
      </trkpt>
      <trkpt lat="42.90615" lon="0.14836">
        <ele>2076</ele>
        <time>2020-07-29T08:49:42.000Z</time>
      </trkpt>
      <trkpt lat="42.90613" lon="0.14835">
        <ele>2076</ele>
        <time>2020-07-29T08:49:43.000Z</time>
      </trkpt>
      <trkpt lat="42.90612" lon="0.14832">
        <ele>2076</ele>
        <time>2020-07-29T08:49:44.000Z</time>
      </trkpt>
      <trkpt lat="42.90611" lon="0.14829">
        <ele>2077</ele>
        <time>2020-07-29T08:49:45.000Z</time>
      </trkpt>
      <trkpt lat="42.90611" lon="0.14826">
        <ele>2075</ele>
        <time>2020-07-29T08:49:46.000Z</time>
      </trkpt>
      <trkpt lat="42.90612" lon="0.14822">
        <ele>2072</ele>
        <time>2020-07-29T08:49:47.000Z</time>
      </trkpt>
      <trkpt lat="42.90613" lon="0.14818">
        <ele>2071</ele>
        <time>2020-07-29T08:49:48.000Z</time>
      </trkpt>
      <trkpt lat="42.90615" lon="0.14814">
        <ele>2071</ele>
        <time>2020-07-29T08:49:49.000Z</time>
      </trkpt>
      <trkpt lat="42.90617" lon="0.14812">
        <ele>2071</ele>
        <time>2020-07-29T08:49:50.000Z</time>
      </trkpt>
      <trkpt lat="42.90618" lon="0.1481">
        <ele>2071</ele>
        <time>2020-07-29T08:49:51.000Z</time>
      </trkpt>
      <trkpt lat="42.9062" lon="0.14808">
        <ele>2072</ele>
        <time>2020-07-29T08:49:52.000Z</time>
      </trkpt>
      <trkpt lat="42.90622" lon="0.14806">
        <ele>2072</ele>
        <time>2020-07-29T08:49:53.000Z</time>
      </trkpt>
      <trkpt lat="42.90624" lon="0.14804">
        <ele>2072</ele>
        <time>2020-07-29T08:49:54.000Z</time>
      </trkpt>
      <trkpt lat="42.90627" lon="0.14802">
        <ele>2074</ele>
        <time>2020-07-29T08:49:55.000Z</time>
      </trkpt>
      <trkpt lat="42.90629" lon="0.14801">
        <ele>2074</ele>
        <time>2020-07-29T08:49:56.000Z</time>
      </trkpt>
      <trkpt lat="42.90632" lon="0.14799">
        <ele>2074</ele>
        <time>2020-07-29T08:49:57.000Z</time>
      </trkpt>
      <trkpt lat="42.90634" lon="0.14798">
        <ele>2074</ele>
        <time>2020-07-29T08:49:58.000Z</time>
      </trkpt>
      <trkpt lat="42.90636" lon="0.14796">
        <ele>2075</ele>
        <time>2020-07-29T08:49:59.000Z</time>
      </trkpt>
      <trkpt lat="42.90639" lon="0.14796">
        <ele>2076</ele>
        <time>2020-07-29T08:50:00.000Z</time>
      </trkpt>
      <trkpt lat="42.90643" lon="0.14795">
        <ele>2076</ele>
        <time>2020-07-29T08:50:01.000Z</time>
      </trkpt>
      <trkpt lat="42.90647" lon="0.14794">
        <ele>2076</ele>
        <time>2020-07-29T08:50:02.000Z</time>
      </trkpt>
      <trkpt lat="42.9065" lon="0.14794">
        <ele>2077</ele>
        <time>2020-07-29T08:50:03.000Z</time>
      </trkpt>
      <trkpt lat="42.90652" lon="0.14793">
        <ele>2077</ele>
        <time>2020-07-29T08:50:04.000Z</time>
      </trkpt>
      <trkpt lat="42.90654" lon="0.14793">
        <ele>2077</ele>
        <time>2020-07-29T08:50:05.000Z</time>
      </trkpt>
      <trkpt lat="42.90655" lon="0.14793">
        <ele>2077</ele>
        <time>2020-07-29T08:50:06.000Z</time>
      </trkpt>
      <trkpt lat="42.90657" lon="0.14793">
        <ele>2076</ele>
        <time>2020-07-29T08:50:07.000Z</time>
      </trkpt>
      <trkpt lat="42.90658" lon="0.14793">
        <ele>2077</ele>
        <time>2020-07-29T08:50:08.000Z</time>
      </trkpt>
      <trkpt lat="42.9066" lon="0.14793">
        <ele>2077</ele>
        <time>2020-07-29T08:50:09.000Z</time>
      </trkpt>
      <trkpt lat="42.90661" lon="0.14792">
        <ele>2076</ele>
        <time>2020-07-29T08:50:10.000Z</time>
      </trkpt>
      <trkpt lat="42.90663" lon="0.14792">
        <ele>2076</ele>
        <time>2020-07-29T08:50:11.000Z</time>
      </trkpt>
      <trkpt lat="42.90664" lon="0.14792">
        <ele>2075</ele>
        <time>2020-07-29T08:50:12.000Z</time>
      </trkpt>
      <trkpt lat="42.90666" lon="0.14791">
        <ele>2075</ele>
        <time>2020-07-29T08:50:13.000Z</time>
      </trkpt>
      <trkpt lat="42.90668" lon="0.1479">
        <ele>2075</ele>
        <time>2020-07-29T08:50:14.000Z</time>
      </trkpt>
      <trkpt lat="42.90671" lon="0.1479">
        <ele>2074</ele>
        <time>2020-07-29T08:50:15.000Z</time>
      </trkpt>
      <trkpt lat="42.90673" lon="0.14789">
        <ele>2074</ele>
        <time>2020-07-29T08:50:16.000Z</time>
      </trkpt>
      <trkpt lat="42.90676" lon="0.14788">
        <ele>2074</ele>
        <time>2020-07-29T08:50:17.000Z</time>
      </trkpt>
      <trkpt lat="42.90679" lon="0.14787">
        <ele>2075</ele>
        <time>2020-07-29T08:50:18.000Z</time>
      </trkpt>
      <trkpt lat="42.90682" lon="0.14787">
        <ele>2076</ele>
        <time>2020-07-29T08:50:19.000Z</time>
      </trkpt>
      <trkpt lat="42.90686" lon="0.14787">
        <ele>2076</ele>
        <time>2020-07-29T08:50:20.000Z</time>
      </trkpt>
      <trkpt lat="42.90688" lon="0.14786">
        <ele>2077</ele>
        <time>2020-07-29T08:50:21.000Z</time>
      </trkpt>
      <trkpt lat="42.9069" lon="0.14785">
        <ele>2077</ele>
        <time>2020-07-29T08:50:22.000Z</time>
      </trkpt>
      <trkpt lat="42.90692" lon="0.14785">
        <ele>2078</ele>
        <time>2020-07-29T08:50:23.000Z</time>
      </trkpt>
      <trkpt lat="42.90694" lon="0.14785">
        <ele>2078</ele>
        <time>2020-07-29T08:50:24.000Z</time>
      </trkpt>
      <trkpt lat="42.90695" lon="0.14784">
        <ele>2077</ele>
        <time>2020-07-29T08:50:25.000Z</time>
      </trkpt>
      <trkpt lat="42.90697" lon="0.14784">
        <ele>2077</ele>
        <time>2020-07-29T08:50:26.000Z</time>
      </trkpt>
      <trkpt lat="42.90698" lon="0.14783">
        <ele>2078</ele>
        <time>2020-07-29T08:50:27.000Z</time>
      </trkpt>
      <trkpt lat="42.90699" lon="0.14782">
        <ele>2079</ele>
        <time>2020-07-29T08:50:28.000Z</time>
      </trkpt>
      <trkpt lat="42.907" lon="0.14781">
        <ele>2079</ele>
        <time>2020-07-29T08:50:29.000Z</time>
      </trkpt>
      <trkpt lat="42.907" lon="0.1478">
        <ele>2080</ele>
        <time>2020-07-29T08:50:30.000Z</time>
      </trkpt>
      <trkpt lat="42.90701" lon="0.14779">
        <ele>2080</ele>
        <time>2020-07-29T08:50:31.000Z</time>
      </trkpt>
      <trkpt lat="42.90702" lon="0.14778">
        <ele>2080</ele>
        <time>2020-07-29T08:50:32.000Z</time>
      </trkpt>
      <trkpt lat="42.90704" lon="0.14778">
        <ele>2080</ele>
        <time>2020-07-29T08:50:33.000Z</time>
      </trkpt>
      <trkpt lat="42.90705" lon="0.14778">
        <ele>2081</ele>
        <time>2020-07-29T08:50:34.000Z</time>
      </trkpt>
      <trkpt lat="42.90706" lon="0.14777">
        <ele>2082</ele>
        <time>2020-07-29T08:50:35.000Z</time>
      </trkpt>
      <trkpt lat="42.90708" lon="0.14776">
        <ele>2082</ele>
        <time>2020-07-29T08:50:36.000Z</time>
      </trkpt>
      <trkpt lat="42.9071" lon="0.14776">
        <ele>2082</ele>
        <time>2020-07-29T08:50:37.000Z</time>
      </trkpt>
      <trkpt lat="42.90712" lon="0.14775">
        <ele>2083</ele>
        <time>2020-07-29T08:50:38.000Z</time>
      </trkpt>
      <trkpt lat="42.90714" lon="0.14774">
        <ele>2083</ele>
        <time>2020-07-29T08:50:39.000Z</time>
      </trkpt>
      <trkpt lat="42.90716" lon="0.14773">
        <ele>2083</ele>
        <time>2020-07-29T08:50:40.000Z</time>
      </trkpt>
      <trkpt lat="42.90718" lon="0.14772">
        <ele>2083</ele>
        <time>2020-07-29T08:50:41.000Z</time>
      </trkpt>
      <trkpt lat="42.90721" lon="0.14772">
        <ele>2084</ele>
        <time>2020-07-29T08:50:42.000Z</time>
      </trkpt>
      <trkpt lat="42.90724" lon="0.14771">
        <ele>2084</ele>
        <time>2020-07-29T08:50:43.000Z</time>
      </trkpt>
      <trkpt lat="42.90726" lon="0.1477">
        <ele>2084</ele>
        <time>2020-07-29T08:50:44.000Z</time>
      </trkpt>
      <trkpt lat="42.90729" lon="0.14769">
        <ele>2084</ele>
        <time>2020-07-29T08:50:45.000Z</time>
      </trkpt>
      <trkpt lat="42.90731" lon="0.14768">
        <ele>2084</ele>
        <time>2020-07-29T08:50:46.000Z</time>
      </trkpt>
      <trkpt lat="42.90733" lon="0.14767">
        <ele>2085</ele>
        <time>2020-07-29T08:50:47.000Z</time>
      </trkpt>
      <trkpt lat="42.90736" lon="0.14766">
        <ele>2085</ele>
        <time>2020-07-29T08:50:48.000Z</time>
      </trkpt>
      <trkpt lat="42.90738" lon="0.14764">
        <ele>2084</ele>
        <time>2020-07-29T08:50:49.000Z</time>
      </trkpt>
      <trkpt lat="42.9074" lon="0.14763">
        <ele>2085</ele>
        <time>2020-07-29T08:50:50.000Z</time>
      </trkpt>
      <trkpt lat="42.90743" lon="0.14761">
        <ele>2085</ele>
        <time>2020-07-29T08:50:51.000Z</time>
      </trkpt>
      <trkpt lat="42.90745" lon="0.14759">
        <ele>2086</ele>
        <time>2020-07-29T08:50:52.000Z</time>
      </trkpt>
      <trkpt lat="42.90747" lon="0.14758">
        <ele>2086</ele>
        <time>2020-07-29T08:50:53.000Z</time>
      </trkpt>
      <trkpt lat="42.90749" lon="0.14756">
        <ele>2086</ele>
        <time>2020-07-29T08:50:54.000Z</time>
      </trkpt>
      <trkpt lat="42.90751" lon="0.14754">
        <ele>2086</ele>
        <time>2020-07-29T08:50:55.000Z</time>
      </trkpt>
      <trkpt lat="42.90753" lon="0.14752">
        <ele>2086</ele>
        <time>2020-07-29T08:50:56.000Z</time>
      </trkpt>
      <trkpt lat="42.90755" lon="0.1475">
        <ele>2087</ele>
        <time>2020-07-29T08:50:57.000Z</time>
      </trkpt>
      <trkpt lat="42.90757" lon="0.14748">
        <ele>2088</ele>
        <time>2020-07-29T08:50:58.000Z</time>
      </trkpt>
      <trkpt lat="42.90759" lon="0.14745">
        <ele>2089</ele>
        <time>2020-07-29T08:50:59.000Z</time>
      </trkpt>
      <trkpt lat="42.90761" lon="0.14743">
        <ele>2089</ele>
        <time>2020-07-29T08:51:00.000Z</time>
      </trkpt>
      <trkpt lat="42.90763" lon="0.14741">
        <ele>2090</ele>
        <time>2020-07-29T08:51:01.000Z</time>
      </trkpt>
      <trkpt lat="42.90766" lon="0.14739">
        <ele>2089</ele>
        <time>2020-07-29T08:51:02.000Z</time>
      </trkpt>
      <trkpt lat="42.90767" lon="0.14737">
        <ele>2090</ele>
        <time>2020-07-29T08:51:03.000Z</time>
      </trkpt>
      <trkpt lat="42.90769" lon="0.14734">
        <ele>2090</ele>
        <time>2020-07-29T08:51:04.000Z</time>
      </trkpt>
      <trkpt lat="42.90771" lon="0.14732">
        <ele>2091</ele>
        <time>2020-07-29T08:51:05.000Z</time>
      </trkpt>
      <trkpt lat="42.90773" lon="0.14729">
        <ele>2091</ele>
        <time>2020-07-29T08:51:06.000Z</time>
      </trkpt>
      <trkpt lat="42.90775" lon="0.14727">
        <ele>2092</ele>
        <time>2020-07-29T08:51:07.000Z</time>
      </trkpt>
      <trkpt lat="42.90777" lon="0.14724">
        <ele>2092</ele>
        <time>2020-07-29T08:51:08.000Z</time>
      </trkpt>
      <trkpt lat="42.90778" lon="0.14721">
        <ele>2093</ele>
        <time>2020-07-29T08:51:09.000Z</time>
      </trkpt>
      <trkpt lat="42.9078" lon="0.14718">
        <ele>2093</ele>
        <time>2020-07-29T08:51:10.000Z</time>
      </trkpt>
      <trkpt lat="42.90782" lon="0.14716">
        <ele>2093</ele>
        <time>2020-07-29T08:51:11.000Z</time>
      </trkpt>
      <trkpt lat="42.90784" lon="0.14713">
        <ele>2094</ele>
        <time>2020-07-29T08:51:12.000Z</time>
      </trkpt>
      <trkpt lat="42.90786" lon="0.14711">
        <ele>2094</ele>
        <time>2020-07-29T08:51:13.000Z</time>
      </trkpt>
      <trkpt lat="42.90788" lon="0.14708">
        <ele>2094</ele>
        <time>2020-07-29T08:51:14.000Z</time>
      </trkpt>
      <trkpt lat="42.9079" lon="0.14706">
        <ele>2094</ele>
        <time>2020-07-29T08:51:15.000Z</time>
      </trkpt>
      <trkpt lat="42.90792" lon="0.14703">
        <ele>2094</ele>
        <time>2020-07-29T08:51:16.000Z</time>
      </trkpt>
      <trkpt lat="42.90794" lon="0.14701">
        <ele>2094</ele>
        <time>2020-07-29T08:51:17.000Z</time>
      </trkpt>
      <trkpt lat="42.90796" lon="0.14699">
        <ele>2095</ele>
        <time>2020-07-29T08:51:18.000Z</time>
      </trkpt>
      <trkpt lat="42.90797" lon="0.14696">
        <ele>2096</ele>
        <time>2020-07-29T08:51:19.000Z</time>
      </trkpt>
      <trkpt lat="42.90799" lon="0.14694">
        <ele>2096</ele>
        <time>2020-07-29T08:51:20.000Z</time>
      </trkpt>
      <trkpt lat="42.90801" lon="0.14691">
        <ele>2097</ele>
        <time>2020-07-29T08:51:21.000Z</time>
      </trkpt>
      <trkpt lat="42.90803" lon="0.14689">
        <ele>2097</ele>
        <time>2020-07-29T08:51:22.000Z</time>
      </trkpt>
      <trkpt lat="42.90804" lon="0.14687">
        <ele>2098</ele>
        <time>2020-07-29T08:51:23.000Z</time>
      </trkpt>
      <trkpt lat="42.90806" lon="0.14684">
        <ele>2098</ele>
        <time>2020-07-29T08:51:24.000Z</time>
      </trkpt>
      <trkpt lat="42.90808" lon="0.14682">
        <ele>2098</ele>
        <time>2020-07-29T08:51:25.000Z</time>
      </trkpt>
      <trkpt lat="42.9081" lon="0.1468">
        <ele>2099</ele>
        <time>2020-07-29T08:51:26.000Z</time>
      </trkpt>
      <trkpt lat="42.90812" lon="0.14678">
        <ele>2099</ele>
        <time>2020-07-29T08:51:27.000Z</time>
      </trkpt>
      <trkpt lat="42.90814" lon="0.14675">
        <ele>2100</ele>
        <time>2020-07-29T08:51:28.000Z</time>
      </trkpt>
      <trkpt lat="42.90816" lon="0.14673">
        <ele>2100</ele>
        <time>2020-07-29T08:51:29.000Z</time>
      </trkpt>
      <trkpt lat="42.90818" lon="0.14671">
        <ele>2101</ele>
        <time>2020-07-29T08:51:30.000Z</time>
      </trkpt>
      <trkpt lat="42.90819" lon="0.14668">
        <ele>2101</ele>
        <time>2020-07-29T08:51:31.000Z</time>
      </trkpt>
      <trkpt lat="42.90821" lon="0.14666">
        <ele>2102</ele>
        <time>2020-07-29T08:51:32.000Z</time>
      </trkpt>
      <trkpt lat="42.90823" lon="0.14663">
        <ele>2102</ele>
        <time>2020-07-29T08:51:33.000Z</time>
      </trkpt>
      <trkpt lat="42.90825" lon="0.14661">
        <ele>2102</ele>
        <time>2020-07-29T08:51:34.000Z</time>
      </trkpt>
      <trkpt lat="42.90827" lon="0.14659">
        <ele>2103</ele>
        <time>2020-07-29T08:51:35.000Z</time>
      </trkpt>
      <trkpt lat="42.90829" lon="0.14656">
        <ele>2103</ele>
        <time>2020-07-29T08:51:36.000Z</time>
      </trkpt>
      <trkpt lat="42.90831" lon="0.14654">
        <ele>2103</ele>
        <time>2020-07-29T08:51:37.000Z</time>
      </trkpt>
      <trkpt lat="42.90832" lon="0.14651">
        <ele>2104</ele>
        <time>2020-07-29T08:51:38.000Z</time>
      </trkpt>
      <trkpt lat="42.90834" lon="0.14648">
        <ele>2104</ele>
        <time>2020-07-29T08:51:39.000Z</time>
      </trkpt>
      <trkpt lat="42.90836" lon="0.14646">
        <ele>2103</ele>
        <time>2020-07-29T08:51:40.000Z</time>
      </trkpt>
      <trkpt lat="42.90838" lon="0.14643">
        <ele>2104</ele>
        <time>2020-07-29T08:51:41.000Z</time>
      </trkpt>
      <trkpt lat="42.9084" lon="0.14641">
        <ele>2105</ele>
        <time>2020-07-29T08:51:42.000Z</time>
      </trkpt>
      <trkpt lat="42.90841" lon="0.14638">
        <ele>2105</ele>
        <time>2020-07-29T08:51:43.000Z</time>
      </trkpt>
      <trkpt lat="42.90843" lon="0.14636">
        <ele>2106</ele>
        <time>2020-07-29T08:51:44.000Z</time>
      </trkpt>
      <trkpt lat="42.90845" lon="0.14633">
        <ele>2105</ele>
        <time>2020-07-29T08:51:45.000Z</time>
      </trkpt>
      <trkpt lat="42.90847" lon="0.14631">
        <ele>2106</ele>
        <time>2020-07-29T08:51:46.000Z</time>
      </trkpt>
      <trkpt lat="42.90848" lon="0.14628">
        <ele>2105</ele>
        <time>2020-07-29T08:51:47.000Z</time>
      </trkpt>
      <trkpt lat="42.9085" lon="0.14626">
        <ele>2105</ele>
        <time>2020-07-29T08:51:48.000Z</time>
      </trkpt>
      <trkpt lat="42.90852" lon="0.14623">
        <ele>2105</ele>
        <time>2020-07-29T08:51:49.000Z</time>
      </trkpt>
      <trkpt lat="42.90854" lon="0.14621">
        <ele>2105</ele>
        <time>2020-07-29T08:51:50.000Z</time>
      </trkpt>
      <trkpt lat="42.90855" lon="0.14618">
        <ele>2106</ele>
        <time>2020-07-29T08:51:51.000Z</time>
      </trkpt>
      <trkpt lat="42.90857" lon="0.14616">
        <ele>2106</ele>
        <time>2020-07-29T08:51:52.000Z</time>
      </trkpt>
      <trkpt lat="42.90859" lon="0.14613">
        <ele>2106</ele>
        <time>2020-07-29T08:51:53.000Z</time>
      </trkpt>
      <trkpt lat="42.9086" lon="0.1461">
        <ele>2107</ele>
        <time>2020-07-29T08:51:54.000Z</time>
      </trkpt>
      <trkpt lat="42.90861" lon="0.14607">
        <ele>2107</ele>
        <time>2020-07-29T08:51:55.000Z</time>
      </trkpt>
      <trkpt lat="42.90862" lon="0.14603">
        <ele>2107</ele>
        <time>2020-07-29T08:51:56.000Z</time>
      </trkpt>
      <trkpt lat="42.90863" lon="0.146">
        <ele>2107</ele>
        <time>2020-07-29T08:51:57.000Z</time>
      </trkpt>
      <trkpt lat="42.90864" lon="0.14597">
        <ele>2108</ele>
        <time>2020-07-29T08:51:58.000Z</time>
      </trkpt>
      <trkpt lat="42.90864" lon="0.14594">
        <ele>2108</ele>
        <time>2020-07-29T08:51:59.000Z</time>
      </trkpt>
      <trkpt lat="42.90865" lon="0.1459">
        <ele>2108</ele>
        <time>2020-07-29T08:52:00.000Z</time>
      </trkpt>
      <trkpt lat="42.90865" lon="0.14587">
        <ele>2108</ele>
        <time>2020-07-29T08:52:01.000Z</time>
      </trkpt>
      <trkpt lat="42.90865" lon="0.14584">
        <ele>2109</ele>
        <time>2020-07-29T08:52:02.000Z</time>
      </trkpt>
      <trkpt lat="42.90865" lon="0.14581">
        <ele>2109</ele>
        <time>2020-07-29T08:52:03.000Z</time>
      </trkpt>
      <trkpt lat="42.90864" lon="0.14577">
        <ele>2109</ele>
        <time>2020-07-29T08:52:04.000Z</time>
      </trkpt>
      <trkpt lat="42.90863" lon="0.14574">
        <ele>2111</ele>
        <time>2020-07-29T08:52:05.000Z</time>
      </trkpt>
      <trkpt lat="42.90862" lon="0.1457">
        <ele>2111</ele>
        <time>2020-07-29T08:52:06.000Z</time>
      </trkpt>
      <trkpt lat="42.90861" lon="0.14567">
        <ele>2112</ele>
        <time>2020-07-29T08:52:07.000Z</time>
      </trkpt>
      <trkpt lat="42.9086" lon="0.14563">
        <ele>2112</ele>
        <time>2020-07-29T08:52:08.000Z</time>
      </trkpt>
      <trkpt lat="42.90859" lon="0.1456">
        <ele>2113</ele>
        <time>2020-07-29T08:52:09.000Z</time>
      </trkpt>
      <trkpt lat="42.90858" lon="0.14557">
        <ele>2114</ele>
        <time>2020-07-29T08:52:10.000Z</time>
      </trkpt>
      <trkpt lat="42.90856" lon="0.14555">
        <ele>2114</ele>
        <time>2020-07-29T08:52:11.000Z</time>
      </trkpt>
      <trkpt lat="42.90854" lon="0.14552">
        <ele>2114</ele>
        <time>2020-07-29T08:52:12.000Z</time>
      </trkpt>
      <trkpt lat="42.90853" lon="0.1455">
        <ele>2114</ele>
        <time>2020-07-29T08:52:13.000Z</time>
      </trkpt>
      <trkpt lat="42.90851" lon="0.14547">
        <ele>2113</ele>
        <time>2020-07-29T08:52:14.000Z</time>
      </trkpt>
      <trkpt lat="42.90849" lon="0.14544">
        <ele>2113</ele>
        <time>2020-07-29T08:52:15.000Z</time>
      </trkpt>
      <trkpt lat="42.90848" lon="0.14541">
        <ele>2113</ele>
        <time>2020-07-29T08:52:16.000Z</time>
      </trkpt>
      <trkpt lat="42.90846" lon="0.14538">
        <ele>2113</ele>
        <time>2020-07-29T08:52:17.000Z</time>
      </trkpt>
      <trkpt lat="42.90884" lon="0.14606">
        <ele>2109</ele>
        <time>2020-07-29T08:52:18.004Z</time>
      </trkpt>
      <trkpt lat="42.90886" lon="0.14606">
        <ele>2109</ele>
        <time>2020-07-29T08:52:19.004Z</time>
      </trkpt>
      <trkpt lat="42.90888" lon="0.14605">
        <ele>2109</ele>
        <time>2020-07-29T08:52:20.004Z</time>
      </trkpt>
      <trkpt lat="42.9089" lon="0.14605">
        <ele>2109</ele>
        <time>2020-07-29T08:52:21.004Z</time>
      </trkpt>
      <trkpt lat="42.90893" lon="0.14605">
        <ele>2109</ele>
        <time>2020-07-29T08:52:22.004Z</time>
      </trkpt>
      <trkpt lat="42.90896" lon="0.14605">
        <ele>2108</ele>
        <time>2020-07-29T08:52:23.004Z</time>
      </trkpt>
      <trkpt lat="42.90898" lon="0.14605">
        <ele>2109</ele>
        <time>2020-07-29T08:52:24.004Z</time>
      </trkpt>
      <trkpt lat="42.909" lon="0.14606">
        <ele>2110</ele>
        <time>2020-07-29T08:52:25.004Z</time>
      </trkpt>
      <trkpt lat="42.90902" lon="0.14606">
        <ele>2110</ele>
        <time>2020-07-29T08:52:26.004Z</time>
      </trkpt>
      <trkpt lat="42.90905" lon="0.14607">
        <ele>2110</ele>
        <time>2020-07-29T08:52:27.004Z</time>
      </trkpt>
      <trkpt lat="42.90907" lon="0.14607">
        <ele>2110</ele>
        <time>2020-07-29T08:52:28.004Z</time>
      </trkpt>
      <trkpt lat="42.9091" lon="0.14608">
        <ele>2110</ele>
        <time>2020-07-29T08:52:29.004Z</time>
      </trkpt>
      <trkpt lat="42.90913" lon="0.14609">
        <ele>2112</ele>
        <time>2020-07-29T08:52:30.004Z</time>
      </trkpt>
      <trkpt lat="42.90915" lon="0.14609">
        <ele>2112</ele>
        <time>2020-07-29T08:52:31.004Z</time>
      </trkpt>
      <trkpt lat="42.90918" lon="0.1461">
        <ele>2113</ele>
        <time>2020-07-29T08:52:32.004Z</time>
      </trkpt>
      <trkpt lat="42.9092" lon="0.14611">
        <ele>2113</ele>
        <time>2020-07-29T08:52:33.004Z</time>
      </trkpt>
      <trkpt lat="42.90923" lon="0.14612">
        <ele>2114</ele>
        <time>2020-07-29T08:52:34.004Z</time>
      </trkpt>
      <trkpt lat="42.90926" lon="0.14612">
        <ele>2114</ele>
        <time>2020-07-29T08:52:35.004Z</time>
      </trkpt>
      <trkpt lat="42.90928" lon="0.14613">
        <ele>2115</ele>
        <time>2020-07-29T08:52:36.004Z</time>
      </trkpt>
      <trkpt lat="42.90931" lon="0.14614">
        <ele>2115</ele>
        <time>2020-07-29T08:52:37.004Z</time>
      </trkpt>
      <trkpt lat="42.90933" lon="0.14615">
        <ele>2115</ele>
        <time>2020-07-29T08:52:38.004Z</time>
      </trkpt>
      <trkpt lat="42.90936" lon="0.14616">
        <ele>2116</ele>
        <time>2020-07-29T08:52:39.004Z</time>
      </trkpt>
      <trkpt lat="42.90939" lon="0.14617">
        <ele>2116</ele>
        <time>2020-07-29T08:52:40.004Z</time>
      </trkpt>
      <trkpt lat="42.90941" lon="0.14618">
        <ele>2116</ele>
        <time>2020-07-29T08:52:41.004Z</time>
      </trkpt>
      <trkpt lat="42.90944" lon="0.14619">
        <ele>2116</ele>
        <time>2020-07-29T08:52:42.004Z</time>
      </trkpt>
      <trkpt lat="42.90946" lon="0.1462">
        <ele>2116</ele>
        <time>2020-07-29T08:52:43.004Z</time>
      </trkpt>
      <trkpt lat="42.90948" lon="0.14621">
        <ele>2117</ele>
        <time>2020-07-29T08:52:44.004Z</time>
      </trkpt>
      <trkpt lat="42.90951" lon="0.14622">
        <ele>2117</ele>
        <time>2020-07-29T08:52:45.004Z</time>
      </trkpt>
      <trkpt lat="42.90953" lon="0.14624">
        <ele>2117</ele>
        <time>2020-07-29T08:52:46.004Z</time>
      </trkpt>
      <trkpt lat="42.90955" lon="0.14625">
        <ele>2117</ele>
        <time>2020-07-29T08:52:47.004Z</time>
      </trkpt>
      <trkpt lat="42.90957" lon="0.14627">
        <ele>2117</ele>
        <time>2020-07-29T08:52:48.004Z</time>
      </trkpt>
      <trkpt lat="42.9096" lon="0.14629">
        <ele>2118</ele>
        <time>2020-07-29T08:52:49.004Z</time>
      </trkpt>
      <trkpt lat="42.90962" lon="0.14631">
        <ele>2118</ele>
        <time>2020-07-29T08:52:50.004Z</time>
      </trkpt>
      <trkpt lat="42.90964" lon="0.14634">
        <ele>2119</ele>
        <time>2020-07-29T08:52:51.004Z</time>
      </trkpt>
      <trkpt lat="42.90967" lon="0.14636">
        <ele>2119</ele>
        <time>2020-07-29T08:52:52.004Z</time>
      </trkpt>
      <trkpt lat="42.90969" lon="0.14638">
        <ele>2120</ele>
        <time>2020-07-29T08:52:53.004Z</time>
      </trkpt>
      <trkpt lat="42.90971" lon="0.1464">
        <ele>2120</ele>
        <time>2020-07-29T08:52:54.004Z</time>
      </trkpt>
      <trkpt lat="42.90973" lon="0.14642">
        <ele>2121</ele>
        <time>2020-07-29T08:52:55.004Z</time>
      </trkpt>
      <trkpt lat="42.90975" lon="0.14644">
        <ele>2120</ele>
        <time>2020-07-29T08:52:56.004Z</time>
      </trkpt>
      <trkpt lat="42.90977" lon="0.14646">
        <ele>2121</ele>
        <time>2020-07-29T08:52:57.004Z</time>
      </trkpt>
      <trkpt lat="42.9098" lon="0.14649">
        <ele>2121</ele>
        <time>2020-07-29T08:52:58.004Z</time>
      </trkpt>
      <trkpt lat="42.90982" lon="0.14651">
        <ele>2121</ele>
        <time>2020-07-29T08:52:59.004Z</time>
      </trkpt>
      <trkpt lat="42.90984" lon="0.14653">
        <ele>2121</ele>
        <time>2020-07-29T08:53:00.004Z</time>
      </trkpt>
      <trkpt lat="42.90987" lon="0.14655">
        <ele>2122</ele>
        <time>2020-07-29T08:53:01.004Z</time>
      </trkpt>
      <trkpt lat="42.90989" lon="0.14657">
        <ele>2122</ele>
        <time>2020-07-29T08:53:02.004Z</time>
      </trkpt>
      <trkpt lat="42.90991" lon="0.14659">
        <ele>2123</ele>
        <time>2020-07-29T08:53:03.004Z</time>
      </trkpt>
      <trkpt lat="42.90993" lon="0.14662">
        <ele>2123</ele>
        <time>2020-07-29T08:53:04.004Z</time>
      </trkpt>
      <trkpt lat="42.90995" lon="0.14664">
        <ele>2123</ele>
        <time>2020-07-29T08:53:05.004Z</time>
      </trkpt>
      <trkpt lat="42.90997" lon="0.14666">
        <ele>2122</ele>
        <time>2020-07-29T08:53:06.004Z</time>
      </trkpt>
      <trkpt lat="42.90999" lon="0.14669">
        <ele>2122</ele>
        <time>2020-07-29T08:53:07.004Z</time>
      </trkpt>
      <trkpt lat="42.91002" lon="0.14672">
        <ele>2123</ele>
        <time>2020-07-29T08:53:08.004Z</time>
      </trkpt>
      <trkpt lat="42.91004" lon="0.14674">
        <ele>2123</ele>
        <time>2020-07-29T08:53:09.004Z</time>
      </trkpt>
      <trkpt lat="42.91006" lon="0.14677">
        <ele>2123</ele>
        <time>2020-07-29T08:53:10.004Z</time>
      </trkpt>
      <trkpt lat="42.91008" lon="0.14679">
        <ele>2123</ele>
        <time>2020-07-29T08:53:11.004Z</time>
      </trkpt>
      <trkpt lat="42.9101" lon="0.14681">
        <ele>2124</ele>
        <time>2020-07-29T08:53:12.004Z</time>
      </trkpt>
      <trkpt lat="42.91012" lon="0.14684">
        <ele>2125</ele>
        <time>2020-07-29T08:53:13.004Z</time>
      </trkpt>
      <trkpt lat="42.91014" lon="0.14686">
        <ele>2126</ele>
        <time>2020-07-29T08:53:14.004Z</time>
      </trkpt>
      <trkpt lat="42.91016" lon="0.14687">
        <ele>2127</ele>
        <time>2020-07-29T08:53:15.004Z</time>
      </trkpt>
      <trkpt lat="42.91018" lon="0.14689">
        <ele>2127</ele>
        <time>2020-07-29T08:53:16.004Z</time>
      </trkpt>
      <trkpt lat="42.9102" lon="0.1469">
        <ele>2128</ele>
        <time>2020-07-29T08:53:17.004Z</time>
      </trkpt>
      <trkpt lat="42.91022" lon="0.14692">
        <ele>2129</ele>
        <time>2020-07-29T08:53:18.004Z</time>
      </trkpt>
      <trkpt lat="42.91025" lon="0.14693">
        <ele>2129</ele>
        <time>2020-07-29T08:53:19.004Z</time>
      </trkpt>
      <trkpt lat="42.91027" lon="0.14694">
        <ele>2129</ele>
        <time>2020-07-29T08:53:20.004Z</time>
      </trkpt>
      <trkpt lat="42.9103" lon="0.14695">
        <ele>2129</ele>
        <time>2020-07-29T08:53:21.004Z</time>
      </trkpt>
      <trkpt lat="42.91033" lon="0.14695">
        <ele>2130</ele>
        <time>2020-07-29T08:53:22.004Z</time>
      </trkpt>
      <trkpt lat="42.91036" lon="0.14696">
        <ele>2130</ele>
        <time>2020-07-29T08:53:23.004Z</time>
      </trkpt>
      <trkpt lat="42.91038" lon="0.14697">
        <ele>2130</ele>
        <time>2020-07-29T08:53:24.004Z</time>
      </trkpt>
      <trkpt lat="42.91041" lon="0.14697">
        <ele>2130</ele>
        <time>2020-07-29T08:53:25.004Z</time>
      </trkpt>
      <trkpt lat="42.91044" lon="0.14697">
        <ele>2130</ele>
        <time>2020-07-29T08:53:26.004Z</time>
      </trkpt>
      <trkpt lat="42.91046" lon="0.14698">
        <ele>2130</ele>
        <time>2020-07-29T08:53:27.004Z</time>
      </trkpt>
      <trkpt lat="42.91049" lon="0.14697">
        <ele>2130</ele>
        <time>2020-07-29T08:53:28.004Z</time>
      </trkpt>
      <trkpt lat="42.91051" lon="0.14697">
        <ele>2129</ele>
        <time>2020-07-29T08:53:29.004Z</time>
      </trkpt>
      <trkpt lat="42.91054" lon="0.14697">
        <ele>2129</ele>
        <time>2020-07-29T08:53:30.004Z</time>
      </trkpt>
      <trkpt lat="42.91056" lon="0.14696">
        <ele>2130</ele>
        <time>2020-07-29T08:53:31.004Z</time>
      </trkpt>
      <trkpt lat="42.91058" lon="0.14695">
        <ele>2129</ele>
        <time>2020-07-29T08:53:32.004Z</time>
      </trkpt>
      <trkpt lat="42.9106" lon="0.14694">
        <ele>2129</ele>
        <time>2020-07-29T08:53:33.004Z</time>
      </trkpt>
      <trkpt lat="42.91062" lon="0.14692">
        <ele>2130</ele>
        <time>2020-07-29T08:53:34.004Z</time>
      </trkpt>
      <trkpt lat="42.91064" lon="0.14691">
        <ele>2130</ele>
        <time>2020-07-29T08:53:35.004Z</time>
      </trkpt>
      <trkpt lat="42.91066" lon="0.14689">
        <ele>2130</ele>
        <time>2020-07-29T08:53:36.004Z</time>
      </trkpt>
      <trkpt lat="42.91068" lon="0.14687">
        <ele>2130</ele>
        <time>2020-07-29T08:53:37.004Z</time>
      </trkpt>
      <trkpt lat="42.91069" lon="0.14685">
        <ele>2131</ele>
        <time>2020-07-29T08:53:38.004Z</time>
      </trkpt>
      <trkpt lat="42.91071" lon="0.14683">
        <ele>2131</ele>
        <time>2020-07-29T08:53:39.004Z</time>
      </trkpt>
      <trkpt lat="42.91072" lon="0.14681">
        <ele>2131</ele>
        <time>2020-07-29T08:53:40.004Z</time>
      </trkpt>
      <trkpt lat="42.91074" lon="0.14679">
        <ele>2130</ele>
        <time>2020-07-29T08:53:41.004Z</time>
      </trkpt>
      <trkpt lat="42.91076" lon="0.14677">
        <ele>2130</ele>
        <time>2020-07-29T08:53:42.004Z</time>
      </trkpt>
      <trkpt lat="42.91078" lon="0.14675">
        <ele>2130</ele>
        <time>2020-07-29T08:53:43.004Z</time>
      </trkpt>
      <trkpt lat="42.9108" lon="0.14673">
        <ele>2130</ele>
        <time>2020-07-29T08:53:44.004Z</time>
      </trkpt>
      <trkpt lat="42.91082" lon="0.14671">
        <ele>2130</ele>
        <time>2020-07-29T08:53:45.004Z</time>
      </trkpt>
      <trkpt lat="42.91084" lon="0.1467">
        <ele>2131</ele>
        <time>2020-07-29T08:53:46.004Z</time>
      </trkpt>
      <trkpt lat="42.91086" lon="0.14669">
        <ele>2131</ele>
        <time>2020-07-29T08:53:47.004Z</time>
      </trkpt>
      <trkpt lat="42.91088" lon="0.14667">
        <ele>2132</ele>
        <time>2020-07-29T08:53:48.004Z</time>
      </trkpt>
      <trkpt lat="42.9109" lon="0.14666">
        <ele>2132</ele>
        <time>2020-07-29T08:53:49.004Z</time>
      </trkpt>
      <trkpt lat="42.91093" lon="0.14665">
        <ele>2133</ele>
        <time>2020-07-29T08:53:50.004Z</time>
      </trkpt>
      <trkpt lat="42.91096" lon="0.14664">
        <ele>2132</ele>
        <time>2020-07-29T08:53:51.004Z</time>
      </trkpt>
      <trkpt lat="42.91098" lon="0.14663">
        <ele>2134</ele>
        <time>2020-07-29T08:53:52.004Z</time>
      </trkpt>
      <trkpt lat="42.91101" lon="0.14662">
        <ele>2134</ele>
        <time>2020-07-29T08:53:53.004Z</time>
      </trkpt>
      <trkpt lat="42.91102" lon="0.1466">
        <ele>2134</ele>
        <time>2020-07-29T08:53:54.004Z</time>
      </trkpt>
      <trkpt lat="42.91104" lon="0.14659">
        <ele>2135</ele>
        <time>2020-07-29T08:53:55.004Z</time>
      </trkpt>
      <trkpt lat="42.91106" lon="0.14658">
        <ele>2135</ele>
        <time>2020-07-29T08:53:56.004Z</time>
      </trkpt>
      <trkpt lat="42.91108" lon="0.14657">
        <ele>2135</ele>
        <time>2020-07-29T08:53:57.004Z</time>
      </trkpt>
      <trkpt lat="42.9111" lon="0.14656">
        <ele>2135</ele>
        <time>2020-07-29T08:53:58.004Z</time>
      </trkpt>
      <trkpt lat="42.91112" lon="0.14656">
        <ele>2136</ele>
        <time>2020-07-29T08:53:59.004Z</time>
      </trkpt>
      <trkpt lat="42.91114" lon="0.14655">
        <ele>2136</ele>
        <time>2020-07-29T08:54:00.004Z</time>
      </trkpt>
      <trkpt lat="42.91116" lon="0.14654">
        <ele>2136</ele>
        <time>2020-07-29T08:54:01.004Z</time>
      </trkpt>
      <trkpt lat="42.91118" lon="0.14653">
        <ele>2136</ele>
        <time>2020-07-29T08:54:02.004Z</time>
      </trkpt>
      <trkpt lat="42.9112" lon="0.14652">
        <ele>2136</ele>
        <time>2020-07-29T08:54:03.004Z</time>
      </trkpt>
      <trkpt lat="42.91122" lon="0.14651">
        <ele>2136</ele>
        <time>2020-07-29T08:54:04.004Z</time>
      </trkpt>
      <trkpt lat="42.91124" lon="0.14651">
        <ele>2137</ele>
        <time>2020-07-29T08:54:05.004Z</time>
      </trkpt>
      <trkpt lat="42.91127" lon="0.1465">
        <ele>2137</ele>
        <time>2020-07-29T08:54:06.004Z</time>
      </trkpt>
      <trkpt lat="42.91129" lon="0.14651">
        <ele>2137</ele>
        <time>2020-07-29T08:54:07.004Z</time>
      </trkpt>
      <trkpt lat="42.91131" lon="0.14651">
        <ele>2138</ele>
        <time>2020-07-29T08:54:08.004Z</time>
      </trkpt>
      <trkpt lat="42.91133" lon="0.14653">
        <ele>2138</ele>
        <time>2020-07-29T08:54:09.004Z</time>
      </trkpt>
      <trkpt lat="42.91135" lon="0.14654">
        <ele>2139</ele>
        <time>2020-07-29T08:54:10.004Z</time>
      </trkpt>
      <trkpt lat="42.91138" lon="0.14656">
        <ele>2139</ele>
        <time>2020-07-29T08:54:11.004Z</time>
      </trkpt>
      <trkpt lat="42.9114" lon="0.14658">
        <ele>2140</ele>
        <time>2020-07-29T08:54:12.004Z</time>
      </trkpt>
      <trkpt lat="42.91142" lon="0.14659">
        <ele>2140</ele>
        <time>2020-07-29T08:54:13.004Z</time>
      </trkpt>
      <trkpt lat="42.91144" lon="0.1466">
        <ele>2140</ele>
        <time>2020-07-29T08:54:14.004Z</time>
      </trkpt>
      <trkpt lat="42.91146" lon="0.14661">
        <ele>2141</ele>
        <time>2020-07-29T08:54:15.004Z</time>
      </trkpt>
      <trkpt lat="42.91148" lon="0.14663">
        <ele>2142</ele>
        <time>2020-07-29T08:54:16.004Z</time>
      </trkpt>
      <trkpt lat="42.91149" lon="0.14664">
        <ele>2142</ele>
        <time>2020-07-29T08:54:17.004Z</time>
      </trkpt>
      <trkpt lat="42.91151" lon="0.14666">
        <ele>2143</ele>
        <time>2020-07-29T08:54:18.004Z</time>
      </trkpt>
      <trkpt lat="42.91153" lon="0.14668">
        <ele>2144</ele>
        <time>2020-07-29T08:54:19.004Z</time>
      </trkpt>
      <trkpt lat="42.91154" lon="0.14669">
        <ele>2145</ele>
        <time>2020-07-29T08:54:20.004Z</time>
      </trkpt>
      <trkpt lat="42.91156" lon="0.14671">
        <ele>2145</ele>
        <time>2020-07-29T08:54:21.004Z</time>
      </trkpt>
      <trkpt lat="42.91158" lon="0.14672">
        <ele>2145</ele>
        <time>2020-07-29T08:54:22.004Z</time>
      </trkpt>
      <trkpt lat="42.9116" lon="0.14674">
        <ele>2146</ele>
        <time>2020-07-29T08:54:23.004Z</time>
      </trkpt>
      <trkpt lat="42.91162" lon="0.14675">
        <ele>2146</ele>
        <time>2020-07-29T08:54:24.004Z</time>
      </trkpt>
      <trkpt lat="42.91164" lon="0.14677">
        <ele>2146</ele>
        <time>2020-07-29T08:54:25.004Z</time>
      </trkpt>
      <trkpt lat="42.91166" lon="0.14678">
        <ele>2147</ele>
        <time>2020-07-29T08:54:26.004Z</time>
      </trkpt>
      <trkpt lat="42.91168" lon="0.1468">
        <ele>2147</ele>
        <time>2020-07-29T08:54:27.004Z</time>
      </trkpt>
      <trkpt lat="42.9117" lon="0.14682">
        <ele>2147</ele>
        <time>2020-07-29T08:54:28.004Z</time>
      </trkpt>
      <trkpt lat="42.91172" lon="0.14683">
        <ele>2148</ele>
        <time>2020-07-29T08:54:29.004Z</time>
      </trkpt>
      <trkpt lat="42.91174" lon="0.14685">
        <ele>2148</ele>
        <time>2020-07-29T08:54:30.004Z</time>
      </trkpt>
      <trkpt lat="42.91176" lon="0.14686">
        <ele>2148</ele>
        <time>2020-07-29T08:54:31.004Z</time>
      </trkpt>
      <trkpt lat="42.91178" lon="0.14688">
        <ele>2149</ele>
        <time>2020-07-29T08:54:32.004Z</time>
      </trkpt>
      <trkpt lat="42.9118" lon="0.14689">
        <ele>2150</ele>
        <time>2020-07-29T08:54:33.004Z</time>
      </trkpt>
      <trkpt lat="42.91181" lon="0.14691">
        <ele>2151</ele>
        <time>2020-07-29T08:54:34.004Z</time>
      </trkpt>
      <trkpt lat="42.91183" lon="0.14692">
        <ele>2152</ele>
        <time>2020-07-29T08:54:35.004Z</time>
      </trkpt>
      <trkpt lat="42.91185" lon="0.14693">
        <ele>2153</ele>
        <time>2020-07-29T08:54:36.004Z</time>
      </trkpt>
      <trkpt lat="42.91186" lon="0.14694">
        <ele>2153</ele>
        <time>2020-07-29T08:54:37.004Z</time>
      </trkpt>
      <trkpt lat="42.91188" lon="0.14694">
        <ele>2154</ele>
        <time>2020-07-29T08:54:38.004Z</time>
      </trkpt>
      <trkpt lat="42.9119" lon="0.14694">
        <ele>2155</ele>
        <time>2020-07-29T08:54:39.004Z</time>
      </trkpt>
      <trkpt lat="42.91191" lon="0.14693">
        <ele>2153</ele>
        <time>2020-07-29T08:54:40.004Z</time>
      </trkpt>
      <trkpt lat="42.91191" lon="0.14691">
        <ele>2152</ele>
        <time>2020-07-29T08:54:41.004Z</time>
      </trkpt>
      <trkpt lat="42.91191" lon="0.14689">
        <ele>2152</ele>
        <time>2020-07-29T08:54:42.004Z</time>
      </trkpt>
      <trkpt lat="42.91191" lon="0.14686">
        <ele>2152</ele>
        <time>2020-07-29T08:54:43.004Z</time>
      </trkpt>
      <trkpt lat="42.91191" lon="0.14683">
        <ele>2153</ele>
        <time>2020-07-29T08:54:44.004Z</time>
      </trkpt>
      <trkpt lat="42.91191" lon="0.1468">
        <ele>2153</ele>
        <time>2020-07-29T08:54:45.004Z</time>
      </trkpt>
      <trkpt lat="42.91191" lon="0.14677">
        <ele>2153</ele>
        <time>2020-07-29T08:54:46.004Z</time>
      </trkpt>
      <trkpt lat="42.91191" lon="0.14674">
        <ele>2154</ele>
        <time>2020-07-29T08:54:47.004Z</time>
      </trkpt>
      <trkpt lat="42.9119" lon="0.14671">
        <ele>2154</ele>
        <time>2020-07-29T08:54:48.004Z</time>
      </trkpt>
      <trkpt lat="42.91189" lon="0.14668">
        <ele>2154</ele>
        <time>2020-07-29T08:54:49.004Z</time>
      </trkpt>
      <trkpt lat="42.91188" lon="0.14665">
        <ele>2156</ele>
        <time>2020-07-29T08:54:50.004Z</time>
      </trkpt>
      <trkpt lat="42.91187" lon="0.14662">
        <ele>2156</ele>
        <time>2020-07-29T08:54:51.004Z</time>
      </trkpt>
      <trkpt lat="42.91186" lon="0.14659">
        <ele>2156</ele>
        <time>2020-07-29T08:54:52.004Z</time>
      </trkpt>
      <trkpt lat="42.91185" lon="0.14657">
        <ele>2157</ele>
        <time>2020-07-29T08:54:53.004Z</time>
      </trkpt>
      <trkpt lat="42.91184" lon="0.14654">
        <ele>2157</ele>
        <time>2020-07-29T08:54:54.004Z</time>
      </trkpt>
      <trkpt lat="42.91183" lon="0.14652">
        <ele>2157</ele>
        <time>2020-07-29T08:54:55.004Z</time>
      </trkpt>
      <trkpt lat="42.91181" lon="0.1465">
        <ele>2157</ele>
        <time>2020-07-29T08:54:56.004Z</time>
      </trkpt>
      <trkpt lat="42.9118" lon="0.14647">
        <ele>2158</ele>
        <time>2020-07-29T08:54:57.004Z</time>
      </trkpt>
      <trkpt lat="42.91179" lon="0.14645">
        <ele>2159</ele>
        <time>2020-07-29T08:54:58.004Z</time>
      </trkpt>
      <trkpt lat="42.91178" lon="0.14641">
        <ele>2159</ele>
        <time>2020-07-29T08:54:59.004Z</time>
      </trkpt>
      <trkpt lat="42.91177" lon="0.14638">
        <ele>2159</ele>
        <time>2020-07-29T08:55:00.004Z</time>
      </trkpt>
      <trkpt lat="42.91178" lon="0.14635">
        <ele>2159</ele>
        <time>2020-07-29T08:55:01.004Z</time>
      </trkpt>
      <trkpt lat="42.91179" lon="0.14632">
        <ele>2159</ele>
        <time>2020-07-29T08:55:02.004Z</time>
      </trkpt>
      <trkpt lat="42.91181" lon="0.14629">
        <ele>2158</ele>
        <time>2020-07-29T08:55:03.004Z</time>
      </trkpt>
      <trkpt lat="42.91182" lon="0.14628">
        <ele>2158</ele>
        <time>2020-07-29T08:55:04.004Z</time>
      </trkpt>
      <trkpt lat="42.91184" lon="0.14627">
        <ele>2158</ele>
        <time>2020-07-29T08:55:05.004Z</time>
      </trkpt>
      <trkpt lat="42.91186" lon="0.14628">
        <ele>2158</ele>
        <time>2020-07-29T08:55:06.004Z</time>
      </trkpt>
      <trkpt lat="42.91188" lon="0.1463">
        <ele>2157</ele>
        <time>2020-07-29T08:55:07.004Z</time>
      </trkpt>
      <trkpt lat="42.91191" lon="0.14633">
        <ele>2158</ele>
        <time>2020-07-29T08:55:08.004Z</time>
      </trkpt>
      <trkpt lat="42.91193" lon="0.14636">
        <ele>2158</ele>
        <time>2020-07-29T08:55:09.004Z</time>
      </trkpt>
      <trkpt lat="42.91195" lon="0.14639">
        <ele>2157</ele>
        <time>2020-07-29T08:55:10.004Z</time>
      </trkpt>
      <trkpt lat="42.91197" lon="0.14642">
        <ele>2157</ele>
        <time>2020-07-29T08:55:11.004Z</time>
      </trkpt>
      <trkpt lat="42.91199" lon="0.14645">
        <ele>2157</ele>
        <time>2020-07-29T08:55:12.004Z</time>
      </trkpt>
      <trkpt lat="42.91201" lon="0.14648">
        <ele>2157</ele>
        <time>2020-07-29T08:55:13.004Z</time>
      </trkpt>
      <trkpt lat="42.91202" lon="0.14651">
        <ele>2156</ele>
        <time>2020-07-29T08:55:14.004Z</time>
      </trkpt>
      <trkpt lat="42.91204" lon="0.14654">
        <ele>2157</ele>
        <time>2020-07-29T08:55:15.004Z</time>
      </trkpt>
      <trkpt lat="42.91205" lon="0.14657">
        <ele>2157</ele>
        <time>2020-07-29T08:55:16.004Z</time>
      </trkpt>
      <trkpt lat="42.91207" lon="0.1466">
        <ele>2157</ele>
        <time>2020-07-29T08:55:17.004Z</time>
      </trkpt>
      <trkpt lat="42.91209" lon="0.14662">
        <ele>2158</ele>
        <time>2020-07-29T08:55:18.004Z</time>
      </trkpt>
      <trkpt lat="42.9121" lon="0.14665">
        <ele>2159</ele>
        <time>2020-07-29T08:55:19.004Z</time>
      </trkpt>
      <trkpt lat="42.91212" lon="0.14667">
        <ele>2160</ele>
        <time>2020-07-29T08:55:20.004Z</time>
      </trkpt>
      <trkpt lat="42.91214" lon="0.14669">
        <ele>2159</ele>
        <time>2020-07-29T08:55:21.004Z</time>
      </trkpt>
      <trkpt lat="42.91216" lon="0.14671">
        <ele>2159</ele>
        <time>2020-07-29T08:55:22.004Z</time>
      </trkpt>
      <trkpt lat="42.91219" lon="0.14673">
        <ele>2159</ele>
        <time>2020-07-29T08:55:23.004Z</time>
      </trkpt>
      <trkpt lat="42.91221" lon="0.14675">
        <ele>2160</ele>
        <time>2020-07-29T08:55:24.004Z</time>
      </trkpt>
      <trkpt lat="42.91223" lon="0.14677">
        <ele>2160</ele>
        <time>2020-07-29T08:55:25.004Z</time>
      </trkpt>
      <trkpt lat="42.91225" lon="0.14679">
        <ele>2160</ele>
        <time>2020-07-29T08:55:26.004Z</time>
      </trkpt>
      <trkpt lat="42.91227" lon="0.14681">
        <ele>2161</ele>
        <time>2020-07-29T08:55:27.004Z</time>
      </trkpt>
      <trkpt lat="42.91229" lon="0.14682">
        <ele>2161</ele>
        <time>2020-07-29T08:55:28.004Z</time>
      </trkpt>
      <trkpt lat="42.91231" lon="0.14684">
        <ele>2161</ele>
        <time>2020-07-29T08:55:29.004Z</time>
      </trkpt>
      <trkpt lat="42.91233" lon="0.14685">
        <ele>2161</ele>
        <time>2020-07-29T08:55:30.004Z</time>
      </trkpt>
      <trkpt lat="42.91235" lon="0.14686">
        <ele>2161</ele>
        <time>2020-07-29T08:55:31.004Z</time>
      </trkpt>
      <trkpt lat="42.91236" lon="0.14687">
        <ele>2161</ele>
        <time>2020-07-29T08:55:32.004Z</time>
      </trkpt>
      <trkpt lat="42.91238" lon="0.14687">
        <ele>2162</ele>
        <time>2020-07-29T08:55:33.004Z</time>
      </trkpt>
      <trkpt lat="42.9124" lon="0.14688">
        <ele>2162</ele>
        <time>2020-07-29T08:55:34.004Z</time>
      </trkpt>
      <trkpt lat="42.91242" lon="0.14688">
        <ele>2163</ele>
        <time>2020-07-29T08:55:35.004Z</time>
      </trkpt>
      <trkpt lat="42.91243" lon="0.14687">
        <ele>2163</ele>
        <time>2020-07-29T08:55:36.004Z</time>
      </trkpt>
      <trkpt lat="42.91245" lon="0.14687">
        <ele>2163</ele>
        <time>2020-07-29T08:55:37.004Z</time>
      </trkpt>
      <trkpt lat="42.91246" lon="0.14686">
        <ele>2164</ele>
        <time>2020-07-29T08:55:38.004Z</time>
      </trkpt>
      <trkpt lat="42.91248" lon="0.14685">
        <ele>2165</ele>
        <time>2020-07-29T08:55:39.004Z</time>
      </trkpt>
      <trkpt lat="42.91249" lon="0.14683">
        <ele>2166</ele>
        <time>2020-07-29T08:55:40.004Z</time>
      </trkpt>
      <trkpt lat="42.9125" lon="0.14682">
        <ele>2168</ele>
        <time>2020-07-29T08:55:41.004Z</time>
      </trkpt>
      <trkpt lat="42.91251" lon="0.14681">
        <ele>2168</ele>
        <time>2020-07-29T08:55:42.004Z</time>
      </trkpt>
      <trkpt lat="42.91252" lon="0.1468">
        <ele>2168</ele>
        <time>2020-07-29T08:55:43.004Z</time>
      </trkpt>
      <trkpt lat="42.91253" lon="0.14678">
        <ele>2167</ele>
        <time>2020-07-29T08:55:44.004Z</time>
      </trkpt>
      <trkpt lat="42.91254" lon="0.14677">
        <ele>2168</ele>
        <time>2020-07-29T08:55:45.004Z</time>
      </trkpt>
      <trkpt lat="42.91255" lon="0.14676">
        <ele>2169</ele>
        <time>2020-07-29T08:55:46.004Z</time>
      </trkpt>
      <trkpt lat="42.91255" lon="0.14675">
        <ele>2169</ele>
        <time>2020-07-29T08:55:47.004Z</time>
      </trkpt>
      <trkpt lat="42.91256" lon="0.14674">
        <ele>2170</ele>
        <time>2020-07-29T08:55:48.004Z</time>
      </trkpt>
      <trkpt lat="42.91257" lon="0.14673">
        <ele>2171</ele>
        <time>2020-07-29T08:55:49.004Z</time>
      </trkpt>
      <trkpt lat="42.91258" lon="0.14672">
        <ele>2171</ele>
        <time>2020-07-29T08:55:50.004Z</time>
      </trkpt>
      <trkpt lat="42.91259" lon="0.1467">
        <ele>2172</ele>
        <time>2020-07-29T08:55:51.004Z</time>
      </trkpt>
      <trkpt lat="42.9126" lon="0.1467">
        <ele>2171</ele>
        <time>2020-07-29T08:55:52.004Z</time>
      </trkpt>
      <trkpt lat="42.91261" lon="0.14669">
        <ele>2171</ele>
        <time>2020-07-29T08:55:53.004Z</time>
      </trkpt>
      <trkpt lat="42.91262" lon="0.14668">
        <ele>2171</ele>
        <time>2020-07-29T08:55:54.004Z</time>
      </trkpt>
      <trkpt lat="42.91263" lon="0.14667">
        <ele>2172</ele>
        <time>2020-07-29T08:55:55.004Z</time>
      </trkpt>
      <trkpt lat="42.91264" lon="0.14666">
        <ele>2172</ele>
        <time>2020-07-29T08:55:56.004Z</time>
      </trkpt>
      <trkpt lat="42.91265" lon="0.14665">
        <ele>2173</ele>
        <time>2020-07-29T08:55:57.004Z</time>
      </trkpt>
      <trkpt lat="42.91266" lon="0.14665">
        <ele>2173</ele>
        <time>2020-07-29T08:55:58.004Z</time>
      </trkpt>
      <trkpt lat="42.91266" lon="0.14664">
        <ele>2174</ele>
        <time>2020-07-29T08:55:59.004Z</time>
      </trkpt>
      <trkpt lat="42.91267" lon="0.14663">
        <ele>2173</ele>
        <time>2020-07-29T08:56:00.004Z</time>
      </trkpt>
      <trkpt lat="42.91268" lon="0.14662">
        <ele>2174</ele>
        <time>2020-07-29T08:56:01.004Z</time>
      </trkpt>
      <trkpt lat="42.91269" lon="0.14661">
        <ele>2174</ele>
        <time>2020-07-29T08:56:02.004Z</time>
      </trkpt>
      <trkpt lat="42.9127" lon="0.1466">
        <ele>2175</ele>
        <time>2020-07-29T08:56:03.004Z</time>
      </trkpt>
      <trkpt lat="42.9127" lon="0.14658">
        <ele>2175</ele>
        <time>2020-07-29T08:56:04.004Z</time>
      </trkpt>
      <trkpt lat="42.91271" lon="0.14657">
        <ele>2175</ele>
        <time>2020-07-29T08:56:05.004Z</time>
      </trkpt>
      <trkpt lat="42.91271" lon="0.14656">
        <ele>2176</ele>
        <time>2020-07-29T08:56:06.004Z</time>
      </trkpt>
      <trkpt lat="42.91272" lon="0.14655">
        <ele>2176</ele>
        <time>2020-07-29T08:56:07.004Z</time>
      </trkpt>
      <trkpt lat="42.91273" lon="0.14654">
        <ele>2176</ele>
        <time>2020-07-29T08:56:08.004Z</time>
      </trkpt>
      <trkpt lat="42.91273" lon="0.14652">
        <ele>2178</ele>
        <time>2020-07-29T08:56:09.004Z</time>
      </trkpt>
      <trkpt lat="42.91273" lon="0.14651">
        <ele>2179</ele>
        <time>2020-07-29T08:56:10.004Z</time>
      </trkpt>
      <trkpt lat="42.91273" lon="0.1465">
        <ele>2180</ele>
        <time>2020-07-29T08:56:11.004Z</time>
      </trkpt>
      <trkpt lat="42.91274" lon="0.1465">
        <ele>2181</ele>
        <time>2020-07-29T08:56:12.004Z</time>
      </trkpt>
      <trkpt lat="42.91275" lon="0.14649">
        <ele>2181</ele>
        <time>2020-07-29T08:56:13.004Z</time>
      </trkpt>
      <trkpt lat="42.91275" lon="0.14647">
        <ele>2182</ele>
        <time>2020-07-29T08:56:14.004Z</time>
      </trkpt>
      <trkpt lat="42.91276" lon="0.14646">
        <ele>2182</ele>
        <time>2020-07-29T08:56:15.004Z</time>
      </trkpt>
      <trkpt lat="42.91277" lon="0.14645">
        <ele>2183</ele>
        <time>2020-07-29T08:56:16.004Z</time>
      </trkpt>
      <trkpt lat="42.91278" lon="0.14644">
        <ele>2183</ele>
        <time>2020-07-29T08:56:17.004Z</time>
      </trkpt>
      <trkpt lat="42.91278" lon="0.14643">
        <ele>2183</ele>
        <time>2020-07-29T08:56:18.004Z</time>
      </trkpt>
      <trkpt lat="42.91279" lon="0.14642">
        <ele>2184</ele>
        <time>2020-07-29T08:56:19.004Z</time>
      </trkpt>
      <trkpt lat="42.9128" lon="0.14641">
        <ele>2183</ele>
        <time>2020-07-29T08:56:20.004Z</time>
      </trkpt>
      <trkpt lat="42.91281" lon="0.1464">
        <ele>2182</ele>
        <time>2020-07-29T08:56:21.004Z</time>
      </trkpt>
      <trkpt lat="42.91281" lon="0.14638">
        <ele>2183</ele>
        <time>2020-07-29T08:56:22.004Z</time>
      </trkpt>
      <trkpt lat="42.91282" lon="0.14637">
        <ele>2183</ele>
        <time>2020-07-29T08:56:23.004Z</time>
      </trkpt>
      <trkpt lat="42.91282" lon="0.14635">
        <ele>2184</ele>
        <time>2020-07-29T08:56:24.004Z</time>
      </trkpt>
      <trkpt lat="42.91282" lon="0.14632">
        <ele>2184</ele>
        <time>2020-07-29T08:56:25.004Z</time>
      </trkpt>
      <trkpt lat="42.91282" lon="0.1463">
        <ele>2183</ele>
        <time>2020-07-29T08:56:26.004Z</time>
      </trkpt>
      <trkpt lat="42.91283" lon="0.14627">
        <ele>2184</ele>
        <time>2020-07-29T08:56:27.004Z</time>
      </trkpt>
      <trkpt lat="42.91283" lon="0.14625">
        <ele>2184</ele>
        <time>2020-07-29T08:56:28.004Z</time>
      </trkpt>
      <trkpt lat="42.91282" lon="0.14623">
        <ele>2184</ele>
        <time>2020-07-29T08:56:29.004Z</time>
      </trkpt>
      <trkpt lat="42.91282" lon="0.1462">
        <ele>2186</ele>
        <time>2020-07-29T08:56:30.004Z</time>
      </trkpt>
      <trkpt lat="42.91281" lon="0.14617">
        <ele>2186</ele>
        <time>2020-07-29T08:56:31.004Z</time>
      </trkpt>
      <trkpt lat="42.9128" lon="0.14614">
        <ele>2186</ele>
        <time>2020-07-29T08:56:32.004Z</time>
      </trkpt>
      <trkpt lat="42.9128" lon="0.14611">
        <ele>2187</ele>
        <time>2020-07-29T08:56:33.004Z</time>
      </trkpt>
      <trkpt lat="42.91279" lon="0.14608">
        <ele>2187</ele>
        <time>2020-07-29T08:56:34.004Z</time>
      </trkpt>
      <trkpt lat="42.91279" lon="0.14606">
        <ele>2187</ele>
        <time>2020-07-29T08:56:35.004Z</time>
      </trkpt>
      <trkpt lat="42.91278" lon="0.14603">
        <ele>2188</ele>
        <time>2020-07-29T08:56:36.004Z</time>
      </trkpt>
      <trkpt lat="42.91277" lon="0.14601">
        <ele>2188</ele>
        <time>2020-07-29T08:56:37.004Z</time>
      </trkpt>
      <trkpt lat="42.91276" lon="0.14599">
        <ele>2189</ele>
        <time>2020-07-29T08:56:38.004Z</time>
      </trkpt>
      <trkpt lat="42.91275" lon="0.14597">
        <ele>2189</ele>
        <time>2020-07-29T08:56:39.004Z</time>
      </trkpt>
      <trkpt lat="42.91274" lon="0.14595">
        <ele>2190</ele>
        <time>2020-07-29T08:56:40.004Z</time>
      </trkpt>
      <trkpt lat="42.91273" lon="0.14593">
        <ele>2191</ele>
        <time>2020-07-29T08:56:41.004Z</time>
      </trkpt>
      <trkpt lat="42.91271" lon="0.14591">
        <ele>2191</ele>
        <time>2020-07-29T08:56:42.004Z</time>
      </trkpt>
      <trkpt lat="42.9127" lon="0.14589">
        <ele>2192</ele>
        <time>2020-07-29T08:56:43.004Z</time>
      </trkpt>
      <trkpt lat="42.91268" lon="0.14586">
        <ele>2192</ele>
        <time>2020-07-29T08:56:44.004Z</time>
      </trkpt>
      <trkpt lat="42.91267" lon="0.14584">
        <ele>2192</ele>
        <time>2020-07-29T08:56:45.004Z</time>
      </trkpt>
      <trkpt lat="42.91266" lon="0.14582">
        <ele>2192</ele>
        <time>2020-07-29T08:56:46.004Z</time>
      </trkpt>
      <trkpt lat="42.91265" lon="0.1458">
        <ele>2193</ele>
        <time>2020-07-29T08:56:47.004Z</time>
      </trkpt>
      <trkpt lat="42.91264" lon="0.14578">
        <ele>2194</ele>
        <time>2020-07-29T08:56:48.004Z</time>
      </trkpt>
      <trkpt lat="42.91263" lon="0.14576">
        <ele>2194</ele>
        <time>2020-07-29T08:56:49.004Z</time>
      </trkpt>
      <trkpt lat="42.91261" lon="0.14574">
        <ele>2194</ele>
        <time>2020-07-29T08:56:50.004Z</time>
      </trkpt>
      <trkpt lat="42.9126" lon="0.14572">
        <ele>2195</ele>
        <time>2020-07-29T08:56:51.004Z</time>
      </trkpt>
      <trkpt lat="42.9126" lon="0.1457">
        <ele>2195</ele>
        <time>2020-07-29T08:56:52.004Z</time>
      </trkpt>
      <trkpt lat="42.91259" lon="0.14568">
        <ele>2194</ele>
        <time>2020-07-29T08:56:53.004Z</time>
      </trkpt>
      <trkpt lat="42.91259" lon="0.14566">
        <ele>2195</ele>
        <time>2020-07-29T08:56:54.004Z</time>
      </trkpt>
      <trkpt lat="42.91258" lon="0.14564">
        <ele>2195</ele>
        <time>2020-07-29T08:56:55.004Z</time>
      </trkpt>
      <trkpt lat="42.91259" lon="0.14562">
        <ele>2194</ele>
        <time>2020-07-29T08:56:56.004Z</time>
      </trkpt>
      <trkpt lat="42.91259" lon="0.1456">
        <ele>2194</ele>
        <time>2020-07-29T08:56:57.004Z</time>
      </trkpt>
      <trkpt lat="42.91261" lon="0.14558">
        <ele>2194</ele>
        <time>2020-07-29T08:56:58.004Z</time>
      </trkpt>
      <trkpt lat="42.91262" lon="0.14557">
        <ele>2194</ele>
        <time>2020-07-29T08:56:59.004Z</time>
      </trkpt>
      <trkpt lat="42.91263" lon="0.14557">
        <ele>2194</ele>
        <time>2020-07-29T08:57:00.004Z</time>
      </trkpt>
      <trkpt lat="42.91265" lon="0.14558">
        <ele>2194</ele>
        <time>2020-07-29T08:57:01.004Z</time>
      </trkpt>
      <trkpt lat="42.91266" lon="0.14558">
        <ele>2194</ele>
        <time>2020-07-29T08:57:02.004Z</time>
      </trkpt>
      <trkpt lat="42.91268" lon="0.14558">
        <ele>2194</ele>
        <time>2020-07-29T08:57:03.004Z</time>
      </trkpt>
      <trkpt lat="42.91268" lon="0.14559">
        <ele>2195</ele>
        <time>2020-07-29T08:57:04.004Z</time>
      </trkpt>
      <trkpt lat="42.91269" lon="0.14559">
        <ele>2195</ele>
        <time>2020-07-29T08:57:05.004Z</time>
      </trkpt>
      <trkpt lat="42.9127" lon="0.1456">
        <ele>2195</ele>
        <time>2020-07-29T08:57:06.004Z</time>
      </trkpt>
      <trkpt lat="42.91271" lon="0.1456">
        <ele>2195</ele>
        <time>2020-07-29T08:57:07.004Z</time>
      </trkpt>
      <trkpt lat="42.91272" lon="0.14561">
        <ele>2196</ele>
        <time>2020-07-29T08:57:08.004Z</time>
      </trkpt>
      <trkpt lat="42.91273" lon="0.14561">
        <ele>2196</ele>
        <time>2020-07-29T08:57:09.004Z</time>
      </trkpt>
      <trkpt lat="42.91274" lon="0.14562">
        <ele>2197</ele>
        <time>2020-07-29T08:57:10.004Z</time>
      </trkpt>
      <trkpt lat="42.91275" lon="0.14563">
        <ele>2197</ele>
        <time>2020-07-29T08:57:11.004Z</time>
      </trkpt>
      <trkpt lat="42.91276" lon="0.14564">
        <ele>2197</ele>
        <time>2020-07-29T08:57:12.004Z</time>
      </trkpt>
      <trkpt lat="42.91277" lon="0.14565">
        <ele>2198</ele>
        <time>2020-07-29T08:57:13.004Z</time>
      </trkpt>
      <trkpt lat="42.91278" lon="0.14565">
        <ele>2198</ele>
        <time>2020-07-29T08:57:14.004Z</time>
      </trkpt>
      <trkpt lat="42.91279" lon="0.14567">
        <ele>2199</ele>
        <time>2020-07-29T08:57:15.004Z</time>
      </trkpt>
      <trkpt lat="42.91281" lon="0.14568">
        <ele>2199</ele>
        <time>2020-07-29T08:57:16.004Z</time>
      </trkpt>
      <trkpt lat="42.91283" lon="0.14569">
        <ele>2199</ele>
        <time>2020-07-29T08:57:17.004Z</time>
      </trkpt>
      <trkpt lat="42.91284" lon="0.1457">
        <ele>2199</ele>
        <time>2020-07-29T08:57:18.004Z</time>
      </trkpt>
      <trkpt lat="42.91286" lon="0.14571">
        <ele>2200</ele>
        <time>2020-07-29T08:57:19.004Z</time>
      </trkpt>
      <trkpt lat="42.91287" lon="0.14573">
        <ele>2201</ele>
        <time>2020-07-29T08:57:20.004Z</time>
      </trkpt>
      <trkpt lat="42.91289" lon="0.14575">
        <ele>2201</ele>
        <time>2020-07-29T08:57:21.004Z</time>
      </trkpt>
      <trkpt lat="42.91291" lon="0.14576">
        <ele>2201</ele>
        <time>2020-07-29T08:57:22.004Z</time>
      </trkpt>
      <trkpt lat="42.91293" lon="0.14578">
        <ele>2201</ele>
        <time>2020-07-29T08:57:23.004Z</time>
      </trkpt>
      <trkpt lat="42.91295" lon="0.14579">
        <ele>2202</ele>
        <time>2020-07-29T08:57:24.004Z</time>
      </trkpt>
      <trkpt lat="42.91297" lon="0.14581">
        <ele>2202</ele>
        <time>2020-07-29T08:57:25.004Z</time>
      </trkpt>
      <trkpt lat="42.91299" lon="0.14583">
        <ele>2203</ele>
        <time>2020-07-29T08:57:26.004Z</time>
      </trkpt>
      <trkpt lat="42.91301" lon="0.14585">
        <ele>2203</ele>
        <time>2020-07-29T08:57:27.004Z</time>
      </trkpt>
      <trkpt lat="42.91302" lon="0.14586">
        <ele>2203</ele>
        <time>2020-07-29T08:57:28.004Z</time>
      </trkpt>
      <trkpt lat="42.91304" lon="0.14588">
        <ele>2204</ele>
        <time>2020-07-29T08:57:29.004Z</time>
      </trkpt>
      <trkpt lat="42.91305" lon="0.14589">
        <ele>2203</ele>
        <time>2020-07-29T08:57:30.004Z</time>
      </trkpt>
      <trkpt lat="42.91306" lon="0.1459">
        <ele>2203</ele>
        <time>2020-07-29T08:57:31.004Z</time>
      </trkpt>
      <trkpt lat="42.91308" lon="0.14592">
        <ele>2203</ele>
        <time>2020-07-29T08:57:32.004Z</time>
      </trkpt>
      <trkpt lat="42.91309" lon="0.14593">
        <ele>2203</ele>
        <time>2020-07-29T08:57:33.004Z</time>
      </trkpt>
      <trkpt lat="42.91311" lon="0.14595">
        <ele>2203</ele>
        <time>2020-07-29T08:57:34.004Z</time>
      </trkpt>
      <trkpt lat="42.91312" lon="0.14596">
        <ele>2204</ele>
        <time>2020-07-29T08:57:35.004Z</time>
      </trkpt>
      <trkpt lat="42.91313" lon="0.14597">
        <ele>2204</ele>
        <time>2020-07-29T08:57:36.004Z</time>
      </trkpt>
      <trkpt lat="42.91314" lon="0.14598">
        <ele>2205</ele>
        <time>2020-07-29T08:57:37.004Z</time>
      </trkpt>
      <trkpt lat="42.91316" lon="0.14599">
        <ele>2205</ele>
        <time>2020-07-29T08:57:38.004Z</time>
      </trkpt>
      <trkpt lat="42.91317" lon="0.146">
        <ele>2205</ele>
        <time>2020-07-29T08:57:39.004Z</time>
      </trkpt>
      <trkpt lat="42.91319" lon="0.14601">
        <ele>2205</ele>
        <time>2020-07-29T08:57:40.004Z</time>
      </trkpt>
      <trkpt lat="42.9132" lon="0.14601">
        <ele>2205</ele>
        <time>2020-07-29T08:57:41.004Z</time>
      </trkpt>
      <trkpt lat="42.91321" lon="0.14602">
        <ele>2206</ele>
        <time>2020-07-29T08:57:42.004Z</time>
      </trkpt>
      <trkpt lat="42.91323" lon="0.14603">
        <ele>2206</ele>
        <time>2020-07-29T08:57:43.004Z</time>
      </trkpt>
      <trkpt lat="42.91324" lon="0.14605">
        <ele>2206</ele>
        <time>2020-07-29T08:57:44.004Z</time>
      </trkpt>
      <trkpt lat="42.91326" lon="0.14607">
        <ele>2206</ele>
        <time>2020-07-29T08:57:45.004Z</time>
      </trkpt>
      <trkpt lat="42.91327" lon="0.14608">
        <ele>2206</ele>
        <time>2020-07-29T08:57:46.004Z</time>
      </trkpt>
      <trkpt lat="42.91329" lon="0.1461">
        <ele>2206</ele>
        <time>2020-07-29T08:57:47.004Z</time>
      </trkpt>
      <trkpt lat="42.91331" lon="0.14612">
        <ele>2206</ele>
        <time>2020-07-29T08:57:48.004Z</time>
      </trkpt>
      <trkpt lat="42.91332" lon="0.14614">
        <ele>2205</ele>
        <time>2020-07-29T08:57:49.004Z</time>
      </trkpt>
      <trkpt lat="42.91334" lon="0.14616">
        <ele>2205</ele>
        <time>2020-07-29T08:57:50.004Z</time>
      </trkpt>
      <trkpt lat="42.91334" lon="0.14619">
        <ele>2206</ele>
        <time>2020-07-29T08:57:51.004Z</time>
      </trkpt>
      <trkpt lat="42.91335" lon="0.14621">
        <ele>2207</ele>
        <time>2020-07-29T08:57:52.004Z</time>
      </trkpt>
      <trkpt lat="42.91336" lon="0.14622">
        <ele>2208</ele>
        <time>2020-07-29T08:57:53.004Z</time>
      </trkpt>
      <trkpt lat="42.91337" lon="0.14624">
        <ele>2207</ele>
        <time>2020-07-29T08:57:54.004Z</time>
      </trkpt>
      <trkpt lat="42.91338" lon="0.14626">
        <ele>2207</ele>
        <time>2020-07-29T08:57:55.004Z</time>
      </trkpt>
      <trkpt lat="42.91338" lon="0.14628">
        <ele>2207</ele>
        <time>2020-07-29T08:57:56.004Z</time>
      </trkpt>
      <trkpt lat="42.91338" lon="0.1463">
        <ele>2208</ele>
        <time>2020-07-29T08:57:57.004Z</time>
      </trkpt>
      <trkpt lat="42.91338" lon="0.14633">
        <ele>2209</ele>
        <time>2020-07-29T08:57:58.004Z</time>
      </trkpt>
      <trkpt lat="42.91339" lon="0.14636">
        <ele>2209</ele>
        <time>2020-07-29T08:57:59.004Z</time>
      </trkpt>
      <trkpt lat="42.91339" lon="0.14638">
        <ele>2209</ele>
        <time>2020-07-29T08:58:00.004Z</time>
      </trkpt>
      <trkpt lat="42.91339" lon="0.14641">
        <ele>2209</ele>
        <time>2020-07-29T08:58:01.004Z</time>
      </trkpt>
      <trkpt lat="42.91339" lon="0.14643">
        <ele>2210</ele>
        <time>2020-07-29T08:58:02.004Z</time>
      </trkpt>
      <trkpt lat="42.91339" lon="0.14646">
        <ele>2211</ele>
        <time>2020-07-29T08:58:03.004Z</time>
      </trkpt>
      <trkpt lat="42.91339" lon="0.14648">
        <ele>2212</ele>
        <time>2020-07-29T08:58:04.004Z</time>
      </trkpt>
      <trkpt lat="42.91339" lon="0.1465">
        <ele>2213</ele>
        <time>2020-07-29T08:58:05.004Z</time>
      </trkpt>
      <trkpt lat="42.91338" lon="0.14653">
        <ele>2213</ele>
        <time>2020-07-29T08:58:06.004Z</time>
      </trkpt>
      <trkpt lat="42.91338" lon="0.14655">
        <ele>2214</ele>
        <time>2020-07-29T08:58:07.004Z</time>
      </trkpt>
      <trkpt lat="42.91337" lon="0.14658">
        <ele>2214</ele>
        <time>2020-07-29T08:58:08.004Z</time>
      </trkpt>
      <trkpt lat="42.91337" lon="0.14661">
        <ele>2215</ele>
        <time>2020-07-29T08:58:09.004Z</time>
      </trkpt>
      <trkpt lat="42.91337" lon="0.14663">
        <ele>2216</ele>
        <time>2020-07-29T08:58:10.004Z</time>
      </trkpt>
      <trkpt lat="42.91336" lon="0.14666">
        <ele>2216</ele>
        <time>2020-07-29T08:58:11.004Z</time>
      </trkpt>
      <trkpt lat="42.91336" lon="0.14669">
        <ele>2216</ele>
        <time>2020-07-29T08:58:12.004Z</time>
      </trkpt>
      <trkpt lat="42.91336" lon="0.14672">
        <ele>2217</ele>
        <time>2020-07-29T08:58:13.004Z</time>
      </trkpt>
      <trkpt lat="42.91336" lon="0.14674">
        <ele>2218</ele>
        <time>2020-07-29T08:58:14.004Z</time>
      </trkpt>
      <trkpt lat="42.91336" lon="0.14677">
        <ele>2220</ele>
        <time>2020-07-29T08:58:15.004Z</time>
      </trkpt>
      <trkpt lat="42.91335" lon="0.1468">
        <ele>2220</ele>
        <time>2020-07-29T08:58:16.004Z</time>
      </trkpt>
      <trkpt lat="42.91335" lon="0.14683">
        <ele>2221</ele>
        <time>2020-07-29T08:58:17.004Z</time>
      </trkpt>
      <trkpt lat="42.91335" lon="0.14686">
        <ele>2220</ele>
        <time>2020-07-29T08:58:18.004Z</time>
      </trkpt>
      <trkpt lat="42.91335" lon="0.14689">
        <ele>2221</ele>
        <time>2020-07-29T08:58:19.004Z</time>
      </trkpt>
      <trkpt lat="42.91335" lon="0.14692">
        <ele>2222</ele>
        <time>2020-07-29T08:58:20.004Z</time>
      </trkpt>
      <trkpt lat="42.91335" lon="0.14695">
        <ele>2222</ele>
        <time>2020-07-29T08:58:21.004Z</time>
      </trkpt>
      <trkpt lat="42.91335" lon="0.14697">
        <ele>2222</ele>
        <time>2020-07-29T08:58:22.004Z</time>
      </trkpt>
      <trkpt lat="42.91336" lon="0.147">
        <ele>2222</ele>
        <time>2020-07-29T08:58:23.004Z</time>
      </trkpt>
      <trkpt lat="42.91336" lon="0.14702">
        <ele>2221</ele>
        <time>2020-07-29T08:58:24.004Z</time>
      </trkpt>
      <trkpt lat="42.91337" lon="0.14705">
        <ele>2221</ele>
        <time>2020-07-29T08:58:25.004Z</time>
      </trkpt>
      <trkpt lat="42.91337" lon="0.14707">
        <ele>2222</ele>
        <time>2020-07-29T08:58:26.004Z</time>
      </trkpt>
      <trkpt lat="42.91338" lon="0.1471">
        <ele>2221</ele>
        <time>2020-07-29T08:58:27.004Z</time>
      </trkpt>
      <trkpt lat="42.91339" lon="0.14712">
        <ele>2222</ele>
        <time>2020-07-29T08:58:28.004Z</time>
      </trkpt>
      <trkpt lat="42.9134" lon="0.14715">
        <ele>2223</ele>
        <time>2020-07-29T08:58:29.004Z</time>
      </trkpt>
      <trkpt lat="42.91341" lon="0.14718">
        <ele>2223</ele>
        <time>2020-07-29T08:58:30.004Z</time>
      </trkpt>
      <trkpt lat="42.91342" lon="0.14721">
        <ele>2223</ele>
        <time>2020-07-29T08:58:31.004Z</time>
      </trkpt>
      <trkpt lat="42.91342" lon="0.14723">
        <ele>2224</ele>
        <time>2020-07-29T08:58:32.004Z</time>
      </trkpt>
      <trkpt lat="42.91343" lon="0.14726">
        <ele>2224</ele>
        <time>2020-07-29T08:58:33.004Z</time>
      </trkpt>
      <trkpt lat="42.91343" lon="0.14729">
        <ele>2224</ele>
        <time>2020-07-29T08:58:34.004Z</time>
      </trkpt>
      <trkpt lat="42.91344" lon="0.14731">
        <ele>2225</ele>
        <time>2020-07-29T08:58:35.004Z</time>
      </trkpt>
      <trkpt lat="42.91344" lon="0.14733">
        <ele>2226</ele>
        <time>2020-07-29T08:58:36.004Z</time>
      </trkpt>
      <trkpt lat="42.91344" lon="0.14736">
        <ele>2226</ele>
        <time>2020-07-29T08:58:37.004Z</time>
      </trkpt>
      <trkpt lat="42.91345" lon="0.14738">
        <ele>2227</ele>
        <time>2020-07-29T08:58:38.004Z</time>
      </trkpt>
      <trkpt lat="42.91345" lon="0.1474">
        <ele>2227</ele>
        <time>2020-07-29T08:58:39.004Z</time>
      </trkpt>
      <trkpt lat="42.91346" lon="0.14742">
        <ele>2228</ele>
        <time>2020-07-29T08:58:40.004Z</time>
      </trkpt>
      <trkpt lat="42.91346" lon="0.14744">
        <ele>2228</ele>
        <time>2020-07-29T08:58:41.004Z</time>
      </trkpt>
      <trkpt lat="42.91346" lon="0.14746">
        <ele>2228</ele>
        <time>2020-07-29T08:58:42.004Z</time>
      </trkpt>
      <trkpt lat="42.91346" lon="0.14748">
        <ele>2228</ele>
        <time>2020-07-29T08:58:43.004Z</time>
      </trkpt>
      <trkpt lat="42.91347" lon="0.1475">
        <ele>2228</ele>
        <time>2020-07-29T08:58:44.004Z</time>
      </trkpt>
      <trkpt lat="42.91347" lon="0.14752">
        <ele>2229</ele>
        <time>2020-07-29T08:58:45.004Z</time>
      </trkpt>
      <trkpt lat="42.91347" lon="0.14754">
        <ele>2229</ele>
        <time>2020-07-29T08:58:46.004Z</time>
      </trkpt>
      <trkpt lat="42.91347" lon="0.14755">
        <ele>2229</ele>
        <time>2020-07-29T08:58:47.004Z</time>
      </trkpt>
      <trkpt lat="42.91348" lon="0.14757">
        <ele>2228</ele>
        <time>2020-07-29T08:58:48.004Z</time>
      </trkpt>
      <trkpt lat="42.91348" lon="0.14758">
        <ele>2229</ele>
        <time>2020-07-29T08:58:49.004Z</time>
      </trkpt>
      <trkpt lat="42.91349" lon="0.1476">
        <ele>2229</ele>
        <time>2020-07-29T08:58:50.004Z</time>
      </trkpt>
      <trkpt lat="42.91349" lon="0.14762">
        <ele>2230</ele>
        <time>2020-07-29T08:58:51.004Z</time>
      </trkpt>
      <trkpt lat="42.91349" lon="0.14765">
        <ele>2231</ele>
        <time>2020-07-29T08:58:52.004Z</time>
      </trkpt>
      <trkpt lat="42.91349" lon="0.14767">
        <ele>2232</ele>
        <time>2020-07-29T08:58:53.004Z</time>
      </trkpt>
      <trkpt lat="42.9135" lon="0.1477">
        <ele>2233</ele>
        <time>2020-07-29T08:58:54.004Z</time>
      </trkpt>
      <trkpt lat="42.9135" lon="0.14772">
        <ele>2233</ele>
        <time>2020-07-29T08:58:55.004Z</time>
      </trkpt>
      <trkpt lat="42.9135" lon="0.14775">
        <ele>2234</ele>
        <time>2020-07-29T08:58:56.004Z</time>
      </trkpt>
      <trkpt lat="42.9135" lon="0.14777">
        <ele>2235</ele>
        <time>2020-07-29T08:58:57.004Z</time>
      </trkpt>
      <trkpt lat="42.9135" lon="0.1478">
        <ele>2234</ele>
        <time>2020-07-29T08:58:58.004Z</time>
      </trkpt>
      <trkpt lat="42.91351" lon="0.14783">
        <ele>2235</ele>
        <time>2020-07-29T08:58:59.004Z</time>
      </trkpt>
      <trkpt lat="42.91351" lon="0.14784">
        <ele>2235</ele>
        <time>2020-07-29T08:59:00.004Z</time>
      </trkpt>
      <trkpt lat="42.91352" lon="0.14786">
        <ele>2235</ele>
        <time>2020-07-29T08:59:01.004Z</time>
      </trkpt>
      <trkpt lat="42.91353" lon="0.14787">
        <ele>2236</ele>
        <time>2020-07-29T08:59:02.004Z</time>
      </trkpt>
      <trkpt lat="42.91354" lon="0.14788">
        <ele>2236</ele>
        <time>2020-07-29T08:59:03.004Z</time>
      </trkpt>
      <trkpt lat="42.91355" lon="0.14788">
        <ele>2236</ele>
        <time>2020-07-29T08:59:04.004Z</time>
      </trkpt>
      <trkpt lat="42.91356" lon="0.14788">
        <ele>2236</ele>
        <time>2020-07-29T08:59:05.004Z</time>
      </trkpt>
      <trkpt lat="42.91357" lon="0.14787">
        <ele>2236</ele>
        <time>2020-07-29T08:59:06.004Z</time>
      </trkpt>
      <trkpt lat="42.91358" lon="0.14787">
        <ele>2238</ele>
        <time>2020-07-29T08:59:07.004Z</time>
      </trkpt>
      <trkpt lat="42.9136" lon="0.14787">
        <ele>2238</ele>
        <time>2020-07-29T08:59:08.004Z</time>
      </trkpt>
      <trkpt lat="42.91361" lon="0.14787">
        <ele>2238</ele>
        <time>2020-07-29T08:59:09.004Z</time>
      </trkpt>
      <trkpt lat="42.91362" lon="0.14787">
        <ele>2238</ele>
        <time>2020-07-29T08:59:10.004Z</time>
      </trkpt>
      <trkpt lat="42.91362" lon="0.14787">
        <ele>2239</ele>
        <time>2020-07-29T08:59:11.004Z</time>
      </trkpt>
      <trkpt lat="42.91364" lon="0.14788">
        <ele>2239</ele>
        <time>2020-07-29T08:59:12.004Z</time>
      </trkpt>
      <trkpt lat="42.91365" lon="0.14789">
        <ele>2239</ele>
        <time>2020-07-29T08:59:13.004Z</time>
      </trkpt>
      <trkpt lat="42.91366" lon="0.1479">
        <ele>2239</ele>
        <time>2020-07-29T08:59:14.004Z</time>
      </trkpt>
      <trkpt lat="42.91366" lon="0.14791">
        <ele>2240</ele>
        <time>2020-07-29T08:59:15.004Z</time>
      </trkpt>
      <trkpt lat="42.91366" lon="0.14792">
        <ele>2241</ele>
        <time>2020-07-29T08:59:16.004Z</time>
      </trkpt>
      <trkpt lat="42.91367" lon="0.14793">
        <ele>2240</ele>
        <time>2020-07-29T08:59:17.004Z</time>
      </trkpt>
      <trkpt lat="42.91367" lon="0.14794">
        <ele>2241</ele>
        <time>2020-07-29T08:59:18.004Z</time>
      </trkpt>
      <trkpt lat="42.91367" lon="0.14795">
        <ele>2241</ele>
        <time>2020-07-29T08:59:19.004Z</time>
      </trkpt>
      <trkpt lat="42.91368" lon="0.14796">
        <ele>2241</ele>
        <time>2020-07-29T08:59:20.004Z</time>
      </trkpt>
      <trkpt lat="42.91368" lon="0.14797">
        <ele>2241</ele>
        <time>2020-07-29T08:59:21.004Z</time>
      </trkpt>
      <trkpt lat="42.91369" lon="0.14798">
        <ele>2242</ele>
        <time>2020-07-29T08:59:22.004Z</time>
      </trkpt>
      <trkpt lat="42.91369" lon="0.14799">
        <ele>2243</ele>
        <time>2020-07-29T08:59:23.004Z</time>
      </trkpt>
      <trkpt lat="42.91369" lon="0.14801">
        <ele>2243</ele>
        <time>2020-07-29T08:59:24.004Z</time>
      </trkpt>
      <trkpt lat="42.9137" lon="0.14802">
        <ele>2243</ele>
        <time>2020-07-29T08:59:25.004Z</time>
      </trkpt>
      <trkpt lat="42.9137" lon="0.14803">
        <ele>2244</ele>
        <time>2020-07-29T08:59:26.004Z</time>
      </trkpt>
      <trkpt lat="42.91371" lon="0.14804">
        <ele>2244</ele>
        <time>2020-07-29T08:59:27.004Z</time>
      </trkpt>
      <trkpt lat="42.91372" lon="0.14806">
        <ele>2245</ele>
        <time>2020-07-29T08:59:28.004Z</time>
      </trkpt>
      <trkpt lat="42.91372" lon="0.14807">
        <ele>2246</ele>
        <time>2020-07-29T08:59:29.004Z</time>
      </trkpt>
      <trkpt lat="42.91373" lon="0.14808">
        <ele>2246</ele>
        <time>2020-07-29T08:59:30.004Z</time>
      </trkpt>
      <trkpt lat="42.91374" lon="0.14809">
        <ele>2246</ele>
        <time>2020-07-29T08:59:31.004Z</time>
      </trkpt>
      <trkpt lat="42.91375" lon="0.1481">
        <ele>2247</ele>
        <time>2020-07-29T08:59:32.004Z</time>
      </trkpt>
      <trkpt lat="42.91376" lon="0.14811">
        <ele>2248</ele>
        <time>2020-07-29T08:59:33.004Z</time>
      </trkpt>
      <trkpt lat="42.91376" lon="0.14812">
        <ele>2248</ele>
        <time>2020-07-29T08:59:34.004Z</time>
      </trkpt>
      <trkpt lat="42.91376" lon="0.14813">
        <ele>2249</ele>
        <time>2020-07-29T08:59:35.004Z</time>
      </trkpt>
      <trkpt lat="42.91377" lon="0.14814">
        <ele>2249</ele>
        <time>2020-07-29T08:59:36.004Z</time>
      </trkpt>
      <trkpt lat="42.91377" lon="0.14815">
        <ele>2250</ele>
        <time>2020-07-29T08:59:37.004Z</time>
      </trkpt>
      <trkpt lat="42.91377" lon="0.14816">
        <ele>2250</ele>
        <time>2020-07-29T08:59:38.004Z</time>
      </trkpt>
      <trkpt lat="42.91378" lon="0.14817">
        <ele>2250</ele>
        <time>2020-07-29T08:59:39.004Z</time>
      </trkpt>
      <trkpt lat="42.91378" lon="0.14818">
        <ele>2251</ele>
        <time>2020-07-29T08:59:40.004Z</time>
      </trkpt>
      <trkpt lat="42.91378" lon="0.14818">
        <ele>2250</ele>
        <time>2020-07-29T08:59:41.004Z</time>
      </trkpt>
      <trkpt lat="42.91379" lon="0.14819">
        <ele>2251</ele>
        <time>2020-07-29T08:59:42.004Z</time>
      </trkpt>
      <trkpt lat="42.91379" lon="0.1482">
        <ele>2251</ele>
        <time>2020-07-29T08:59:43.004Z</time>
      </trkpt>
      <trkpt lat="42.91379" lon="0.14821">
        <ele>2251</ele>
        <time>2020-07-29T08:59:44.004Z</time>
      </trkpt>
      <trkpt lat="42.91379" lon="0.14822">
        <ele>2251</ele>
        <time>2020-07-29T08:59:45.004Z</time>
      </trkpt>
      <trkpt lat="42.9138" lon="0.14823">
        <ele>2251</ele>
        <time>2020-07-29T08:59:46.004Z</time>
      </trkpt>
      <trkpt lat="42.9138" lon="0.14823">
        <ele>2252</ele>
        <time>2020-07-29T08:59:47.004Z</time>
      </trkpt>
      <trkpt lat="42.9138" lon="0.14824">
        <ele>2253</ele>
        <time>2020-07-29T08:59:48.004Z</time>
      </trkpt>
      <trkpt lat="42.9138" lon="0.14824">
        <ele>2253</ele>
        <time>2020-07-29T08:59:49.004Z</time>
      </trkpt>
      <trkpt lat="42.9138" lon="0.14825">
        <ele>2253</ele>
        <time>2020-07-29T08:59:50.004Z</time>
      </trkpt>
      <trkpt lat="42.9138" lon="0.14826">
        <ele>2254</ele>
        <time>2020-07-29T08:59:51.004Z</time>
      </trkpt>
      <trkpt lat="42.9138" lon="0.14827">
        <ele>2253</ele>
        <time>2020-07-29T08:59:52.004Z</time>
      </trkpt>
      <trkpt lat="42.91381" lon="0.14828">
        <ele>2254</ele>
        <time>2020-07-29T08:59:53.004Z</time>
      </trkpt>
      <trkpt lat="42.91381" lon="0.14829">
        <ele>2253</ele>
        <time>2020-07-29T08:59:54.004Z</time>
      </trkpt>
      <trkpt lat="42.91381" lon="0.1483">
        <ele>2254</ele>
        <time>2020-07-29T08:59:55.004Z</time>
      </trkpt>
      <trkpt lat="42.91381" lon="0.1483">
        <ele>2254</ele>
        <time>2020-07-29T08:59:56.004Z</time>
      </trkpt>
      <trkpt lat="42.91381" lon="0.14831">
        <ele>2255</ele>
        <time>2020-07-29T08:59:57.004Z</time>
      </trkpt>
      <trkpt lat="42.91381" lon="0.14832">
        <ele>2256</ele>
        <time>2020-07-29T08:59:58.004Z</time>
      </trkpt>
      <trkpt lat="42.91381" lon="0.14832">
        <ele>2256</ele>
        <time>2020-07-29T08:59:59.004Z</time>
      </trkpt>
      <trkpt lat="42.9138" lon="0.14833">
        <ele>2256</ele>
        <time>2020-07-29T09:00:00.004Z</time>
      </trkpt>
      <trkpt lat="42.91375" lon="0.14837">
        <ele>2257</ele>
        <time>2020-07-29T09:00:01.024Z</time>
      </trkpt>
      <trkpt lat="42.91376" lon="0.14838">
        <ele>2257</ele>
        <time>2020-07-29T09:00:02.024Z</time>
      </trkpt>
      <trkpt lat="42.91376" lon="0.14838">
        <ele>2257</ele>
        <time>2020-07-29T09:00:03.024Z</time>
      </trkpt>
      <trkpt lat="42.91377" lon="0.14839">
        <ele>2257</ele>
        <time>2020-07-29T09:00:04.024Z</time>
      </trkpt>
      <trkpt lat="42.91377" lon="0.1484">
        <ele>2257</ele>
        <time>2020-07-29T09:00:05.024Z</time>
      </trkpt>
      <trkpt lat="42.91378" lon="0.14841">
        <ele>2257</ele>
        <time>2020-07-29T09:00:06.024Z</time>
      </trkpt>
      <trkpt lat="42.91379" lon="0.14843">
        <ele>2257</ele>
        <time>2020-07-29T09:00:07.024Z</time>
      </trkpt>
      <trkpt lat="42.9138" lon="0.14845">
        <ele>2257</ele>
        <time>2020-07-29T09:00:08.024Z</time>
      </trkpt>
      <trkpt lat="42.9138" lon="0.14846">
        <ele>2257</ele>
        <time>2020-07-29T09:00:09.024Z</time>
      </trkpt>
      <trkpt lat="42.91381" lon="0.14848">
        <ele>2258</ele>
        <time>2020-07-29T09:00:10.024Z</time>
      </trkpt>
      <trkpt lat="42.91382" lon="0.14849">
        <ele>2258</ele>
        <time>2020-07-29T09:00:11.024Z</time>
      </trkpt>
      <trkpt lat="42.91383" lon="0.1485">
        <ele>2258</ele>
        <time>2020-07-29T09:00:12.024Z</time>
      </trkpt>
      <trkpt lat="42.91383" lon="0.14851">
        <ele>2259</ele>
        <time>2020-07-29T09:00:13.024Z</time>
      </trkpt>
      <trkpt lat="42.91384" lon="0.14852">
        <ele>2259</ele>
        <time>2020-07-29T09:00:14.024Z</time>
      </trkpt>
      <trkpt lat="42.91385" lon="0.14854">
        <ele>2260</ele>
        <time>2020-07-29T09:00:15.024Z</time>
      </trkpt>
      <trkpt lat="42.91385" lon="0.14855">
        <ele>2260</ele>
        <time>2020-07-29T09:00:16.024Z</time>
      </trkpt>
      <trkpt lat="42.91385" lon="0.14857">
        <ele>2261</ele>
        <time>2020-07-29T09:00:17.024Z</time>
      </trkpt>
      <trkpt lat="42.91386" lon="0.14858">
        <ele>2261</ele>
        <time>2020-07-29T09:00:18.024Z</time>
      </trkpt>
      <trkpt lat="42.91386" lon="0.14859">
        <ele>2261</ele>
        <time>2020-07-29T09:00:19.024Z</time>
      </trkpt>
      <trkpt lat="42.91386" lon="0.1486">
        <ele>2262</ele>
        <time>2020-07-29T09:00:20.024Z</time>
      </trkpt>
      <trkpt lat="42.91386" lon="0.14861">
        <ele>2262</ele>
        <time>2020-07-29T09:00:21.024Z</time>
      </trkpt>
      <trkpt lat="42.91387" lon="0.14862">
        <ele>2263</ele>
        <time>2020-07-29T09:00:22.024Z</time>
      </trkpt>
      <trkpt lat="42.91387" lon="0.14863">
        <ele>2263</ele>
        <time>2020-07-29T09:00:23.024Z</time>
      </trkpt>
      <trkpt lat="42.91387" lon="0.14864">
        <ele>2263</ele>
        <time>2020-07-29T09:00:24.024Z</time>
      </trkpt>
      <trkpt lat="42.91387" lon="0.14865">
        <ele>2263</ele>
        <time>2020-07-29T09:00:25.024Z</time>
      </trkpt>
      <trkpt lat="42.91387" lon="0.14866">
        <ele>2264</ele>
        <time>2020-07-29T09:00:26.024Z</time>
      </trkpt>
      <trkpt lat="42.91387" lon="0.14867">
        <ele>2264</ele>
        <time>2020-07-29T09:00:27.024Z</time>
      </trkpt>
      <trkpt lat="42.91387" lon="0.14868">
        <ele>2264</ele>
        <time>2020-07-29T09:00:28.024Z</time>
      </trkpt>
      <trkpt lat="42.91387" lon="0.14868">
        <ele>2265</ele>
        <time>2020-07-29T09:00:29.024Z</time>
      </trkpt>
      <trkpt lat="42.91388" lon="0.14869">
        <ele>2264</ele>
        <time>2020-07-29T09:00:30.024Z</time>
      </trkpt>
      <trkpt lat="42.91388" lon="0.1487">
        <ele>2265</ele>
        <time>2020-07-29T09:00:31.024Z</time>
      </trkpt>
      <trkpt lat="42.91388" lon="0.14871">
        <ele>2266</ele>
        <time>2020-07-29T09:00:32.024Z</time>
      </trkpt>
      <trkpt lat="42.91389" lon="0.14871">
        <ele>2267</ele>
        <time>2020-07-29T09:00:33.024Z</time>
      </trkpt>
      <trkpt lat="42.9139" lon="0.14872">
        <ele>2267</ele>
        <time>2020-07-29T09:00:34.024Z</time>
      </trkpt>
      <trkpt lat="42.9139" lon="0.14873">
        <ele>2268</ele>
        <time>2020-07-29T09:00:35.024Z</time>
      </trkpt>
      <trkpt lat="42.91391" lon="0.14874">
        <ele>2268</ele>
        <time>2020-07-29T09:00:36.024Z</time>
      </trkpt>
      <trkpt lat="42.91391" lon="0.14875">
        <ele>2268</ele>
        <time>2020-07-29T09:00:37.024Z</time>
      </trkpt>
      <trkpt lat="42.91392" lon="0.14876">
        <ele>2269</ele>
        <time>2020-07-29T09:00:38.024Z</time>
      </trkpt>
      <trkpt lat="42.91392" lon="0.14877">
        <ele>2270</ele>
        <time>2020-07-29T09:00:39.024Z</time>
      </trkpt>
      <trkpt lat="42.91393" lon="0.14878">
        <ele>2271</ele>
        <time>2020-07-29T09:00:40.024Z</time>
      </trkpt>
      <trkpt lat="42.91393" lon="0.14879">
        <ele>2271</ele>
        <time>2020-07-29T09:00:41.024Z</time>
      </trkpt>
      <trkpt lat="42.91393" lon="0.1488">
        <ele>2272</ele>
        <time>2020-07-29T09:00:42.024Z</time>
      </trkpt>
      <trkpt lat="42.91394" lon="0.14881">
        <ele>2273</ele>
        <time>2020-07-29T09:00:43.024Z</time>
      </trkpt>
      <trkpt lat="42.91394" lon="0.14882">
        <ele>2274</ele>
        <time>2020-07-29T09:00:44.024Z</time>
      </trkpt>
      <trkpt lat="42.91395" lon="0.14883">
        <ele>2274</ele>
        <time>2020-07-29T09:00:45.024Z</time>
      </trkpt>
      <trkpt lat="42.91396" lon="0.14884">
        <ele>2274</ele>
        <time>2020-07-29T09:00:46.024Z</time>
      </trkpt>
      <trkpt lat="42.91396" lon="0.14886">
        <ele>2274</ele>
        <time>2020-07-29T09:00:47.024Z</time>
      </trkpt>
      <trkpt lat="42.91396" lon="0.14887">
        <ele>2275</ele>
        <time>2020-07-29T09:00:48.024Z</time>
      </trkpt>
      <trkpt lat="42.91396" lon="0.14888">
        <ele>2275</ele>
        <time>2020-07-29T09:00:49.024Z</time>
      </trkpt>
      <trkpt lat="42.91397" lon="0.14889">
        <ele>2276</ele>
        <time>2020-07-29T09:00:50.024Z</time>
      </trkpt>
      <trkpt lat="42.91397" lon="0.14891">
        <ele>2276</ele>
        <time>2020-07-29T09:00:51.024Z</time>
      </trkpt>
      <trkpt lat="42.91397" lon="0.14892">
        <ele>2277</ele>
        <time>2020-07-29T09:00:52.024Z</time>
      </trkpt>
      <trkpt lat="42.91398" lon="0.14893">
        <ele>2277</ele>
        <time>2020-07-29T09:00:53.024Z</time>
      </trkpt>
      <trkpt lat="42.91398" lon="0.14894">
        <ele>2277</ele>
        <time>2020-07-29T09:00:54.024Z</time>
      </trkpt>
      <trkpt lat="42.91398" lon="0.14895">
        <ele>2278</ele>
        <time>2020-07-29T09:00:55.024Z</time>
      </trkpt>
      <trkpt lat="42.91399" lon="0.14895">
        <ele>2278</ele>
        <time>2020-07-29T09:00:56.024Z</time>
      </trkpt>
      <trkpt lat="42.91399" lon="0.14896">
        <ele>2279</ele>
        <time>2020-07-29T09:00:57.024Z</time>
      </trkpt>
      <trkpt lat="42.914" lon="0.14897">
        <ele>2279</ele>
        <time>2020-07-29T09:00:58.024Z</time>
      </trkpt>
      <trkpt lat="42.914" lon="0.14899">
        <ele>2279</ele>
        <time>2020-07-29T09:00:59.024Z</time>
      </trkpt>
      <trkpt lat="42.91401" lon="0.149">
        <ele>2279</ele>
        <time>2020-07-29T09:01:00.024Z</time>
      </trkpt>
      <trkpt lat="42.91401" lon="0.14901">
        <ele>2279</ele>
        <time>2020-07-29T09:01:01.024Z</time>
      </trkpt>
      <trkpt lat="42.91401" lon="0.14902">
        <ele>2278</ele>
        <time>2020-07-29T09:01:02.024Z</time>
      </trkpt>
      <trkpt lat="42.91402" lon="0.14904">
        <ele>2279</ele>
        <time>2020-07-29T09:01:03.024Z</time>
      </trkpt>
      <trkpt lat="42.91402" lon="0.14904">
        <ele>2278</ele>
        <time>2020-07-29T09:01:04.024Z</time>
      </trkpt>
      <trkpt lat="42.91402" lon="0.14905">
        <ele>2279</ele>
        <time>2020-07-29T09:01:05.024Z</time>
      </trkpt>
      <trkpt lat="42.91403" lon="0.14905">
        <ele>2279</ele>
        <time>2020-07-29T09:01:06.024Z</time>
      </trkpt>
      <trkpt lat="42.91404" lon="0.14905">
        <ele>2279</ele>
        <time>2020-07-29T09:01:07.024Z</time>
      </trkpt>
      <trkpt lat="42.91404" lon="0.14905">
        <ele>2280</ele>
        <time>2020-07-29T09:01:08.024Z</time>
      </trkpt>
      <trkpt lat="42.91405" lon="0.14905">
        <ele>2280</ele>
        <time>2020-07-29T09:01:09.024Z</time>
      </trkpt>
      <trkpt lat="42.91405" lon="0.14905">
        <ele>2280</ele>
        <time>2020-07-29T09:01:10.024Z</time>
      </trkpt>
      <trkpt lat="42.91406" lon="0.14905">
        <ele>2280</ele>
        <time>2020-07-29T09:01:11.024Z</time>
      </trkpt>
      <trkpt lat="42.91407" lon="0.14905">
        <ele>2280</ele>
        <time>2020-07-29T09:01:12.024Z</time>
      </trkpt>
      <trkpt lat="42.91411" lon="0.149">
        <ele>2280</ele>
        <time>2020-07-29T09:01:13.044Z</time>
      </trkpt>
      <trkpt lat="42.91411" lon="0.149">
        <ele>2280</ele>
        <time>2020-07-29T09:01:14.044Z</time>
      </trkpt>
      <trkpt lat="42.91411" lon="0.14899">
        <ele>2279</ele>
        <time>2020-07-29T09:01:15.044Z</time>
      </trkpt>
      <trkpt lat="42.91412" lon="0.14899">
        <ele>2279</ele>
        <time>2020-07-29T09:01:16.044Z</time>
      </trkpt>
      <trkpt lat="42.91412" lon="0.14898">
        <ele>2280</ele>
        <time>2020-07-29T09:01:17.044Z</time>
      </trkpt>
      <trkpt lat="42.91414" lon="0.14897">
        <ele>2279</ele>
        <time>2020-07-29T09:01:18.044Z</time>
      </trkpt>
      <trkpt lat="42.91415" lon="0.14896">
        <ele>2279</ele>
        <time>2020-07-29T09:01:19.044Z</time>
      </trkpt>
      <trkpt lat="42.91417" lon="0.14894">
        <ele>2280</ele>
        <time>2020-07-29T09:01:20.044Z</time>
      </trkpt>
      <trkpt lat="42.9142" lon="0.14893">
        <ele>2280</ele>
        <time>2020-07-29T09:01:21.044Z</time>
      </trkpt>
      <trkpt lat="42.91422" lon="0.14891">
        <ele>2280</ele>
        <time>2020-07-29T09:01:22.044Z</time>
      </trkpt>
      <trkpt lat="42.91424" lon="0.14889">
        <ele>2280</ele>
        <time>2020-07-29T09:01:23.044Z</time>
      </trkpt>
      <trkpt lat="42.91426" lon="0.14887">
        <ele>2281</ele>
        <time>2020-07-29T09:01:24.044Z</time>
      </trkpt>
      <trkpt lat="42.91428" lon="0.14884">
        <ele>2281</ele>
        <time>2020-07-29T09:01:25.044Z</time>
      </trkpt>
      <trkpt lat="42.9143" lon="0.14882">
        <ele>2281</ele>
        <time>2020-07-29T09:01:26.044Z</time>
      </trkpt>
      <trkpt lat="42.91432" lon="0.14879">
        <ele>2282</ele>
        <time>2020-07-29T09:01:27.044Z</time>
      </trkpt>
      <trkpt lat="42.91433" lon="0.14877">
        <ele>2281</ele>
        <time>2020-07-29T09:01:28.044Z</time>
      </trkpt>
      <trkpt lat="42.91435" lon="0.14874">
        <ele>2281</ele>
        <time>2020-07-29T09:01:29.044Z</time>
      </trkpt>
      <trkpt lat="42.91436" lon="0.14872">
        <ele>2281</ele>
        <time>2020-07-29T09:01:30.044Z</time>
      </trkpt>
      <trkpt lat="42.91438" lon="0.14869">
        <ele>2282</ele>
        <time>2020-07-29T09:01:31.044Z</time>
      </trkpt>
      <trkpt lat="42.9144" lon="0.14866">
        <ele>2282</ele>
        <time>2020-07-29T09:01:32.044Z</time>
      </trkpt>
      <trkpt lat="42.91441" lon="0.14863">
        <ele>2283</ele>
        <time>2020-07-29T09:01:33.044Z</time>
      </trkpt>
      <trkpt lat="42.91443" lon="0.14861">
        <ele>2283</ele>
        <time>2020-07-29T09:01:34.044Z</time>
      </trkpt>
      <trkpt lat="42.91444" lon="0.14859">
        <ele>2283</ele>
        <time>2020-07-29T09:01:35.044Z</time>
      </trkpt>
      <trkpt lat="42.91446" lon="0.14858">
        <ele>2283</ele>
        <time>2020-07-29T09:01:36.044Z</time>
      </trkpt>
      <trkpt lat="42.91447" lon="0.14857">
        <ele>2285</ele>
        <time>2020-07-29T09:01:37.044Z</time>
      </trkpt>
      <trkpt lat="42.91447" lon="0.14855">
        <ele>2285</ele>
        <time>2020-07-29T09:01:38.044Z</time>
      </trkpt>
      <trkpt lat="42.91448" lon="0.14854">
        <ele>2286</ele>
        <time>2020-07-29T09:01:39.044Z</time>
      </trkpt>
      <trkpt lat="42.91448" lon="0.14852">
        <ele>2286</ele>
        <time>2020-07-29T09:01:40.044Z</time>
      </trkpt>
      <trkpt lat="42.91449" lon="0.1485">
        <ele>2286</ele>
        <time>2020-07-29T09:01:41.044Z</time>
      </trkpt>
      <trkpt lat="42.91449" lon="0.14849">
        <ele>2286</ele>
        <time>2020-07-29T09:01:42.044Z</time>
      </trkpt>
      <trkpt lat="42.9145" lon="0.14847">
        <ele>2287</ele>
        <time>2020-07-29T09:01:43.044Z</time>
      </trkpt>
      <trkpt lat="42.91451" lon="0.14846">
        <ele>2287</ele>
        <time>2020-07-29T09:01:44.044Z</time>
      </trkpt>
      <trkpt lat="42.91451" lon="0.14845">
        <ele>2287</ele>
        <time>2020-07-29T09:01:45.044Z</time>
      </trkpt>
      <trkpt lat="42.91452" lon="0.14843">
        <ele>2287</ele>
        <time>2020-07-29T09:01:46.044Z</time>
      </trkpt>
      <trkpt lat="42.91452" lon="0.1484">
        <ele>2287</ele>
        <time>2020-07-29T09:01:47.044Z</time>
      </trkpt>
      <trkpt lat="42.91453" lon="0.14836">
        <ele>2288</ele>
        <time>2020-07-29T09:01:48.044Z</time>
      </trkpt>
      <trkpt lat="42.91454" lon="0.14832">
        <ele>2288</ele>
        <time>2020-07-29T09:01:49.044Z</time>
      </trkpt>
      <trkpt lat="42.91454" lon="0.14829">
        <ele>2288</ele>
        <time>2020-07-29T09:01:50.044Z</time>
      </trkpt>
      <trkpt lat="42.91455" lon="0.14826">
        <ele>2288</ele>
        <time>2020-07-29T09:01:51.044Z</time>
      </trkpt>
      <trkpt lat="42.91456" lon="0.14823">
        <ele>2289</ele>
        <time>2020-07-29T09:01:52.044Z</time>
      </trkpt>
      <trkpt lat="42.91457" lon="0.14821">
        <ele>2290</ele>
        <time>2020-07-29T09:01:53.044Z</time>
      </trkpt>
      <trkpt lat="42.91457" lon="0.14819">
        <ele>2291</ele>
        <time>2020-07-29T09:01:54.044Z</time>
      </trkpt>
      <trkpt lat="42.91458" lon="0.14817">
        <ele>2292</ele>
        <time>2020-07-29T09:01:55.044Z</time>
      </trkpt>
      <trkpt lat="42.91458" lon="0.14816">
        <ele>2292</ele>
        <time>2020-07-29T09:01:56.044Z</time>
      </trkpt>
      <trkpt lat="42.91459" lon="0.14814">
        <ele>2292</ele>
        <time>2020-07-29T09:01:57.044Z</time>
      </trkpt>
      <trkpt lat="42.9146" lon="0.14811">
        <ele>2292</ele>
        <time>2020-07-29T09:01:58.044Z</time>
      </trkpt>
      <trkpt lat="42.91461" lon="0.14809">
        <ele>2291</ele>
        <time>2020-07-29T09:01:59.044Z</time>
      </trkpt>
      <trkpt lat="42.91462" lon="0.14806">
        <ele>2291</ele>
        <time>2020-07-29T09:02:00.044Z</time>
      </trkpt>
      <trkpt lat="42.91463" lon="0.14803">
        <ele>2292</ele>
        <time>2020-07-29T09:02:01.044Z</time>
      </trkpt>
      <trkpt lat="42.91463" lon="0.14799">
        <ele>2292</ele>
        <time>2020-07-29T09:02:02.044Z</time>
      </trkpt>
      <trkpt lat="42.91464" lon="0.14796">
        <ele>2292</ele>
        <time>2020-07-29T09:02:03.044Z</time>
      </trkpt>
      <trkpt lat="42.91464" lon="0.14792">
        <ele>2292</ele>
        <time>2020-07-29T09:02:04.044Z</time>
      </trkpt>
      <trkpt lat="42.91465" lon="0.14789">
        <ele>2292</ele>
        <time>2020-07-29T09:02:05.044Z</time>
      </trkpt>
      <trkpt lat="42.91465" lon="0.14785">
        <ele>2292</ele>
        <time>2020-07-29T09:02:06.044Z</time>
      </trkpt>
      <trkpt lat="42.91466" lon="0.14781">
        <ele>2293</ele>
        <time>2020-07-29T09:02:07.044Z</time>
      </trkpt>
      <trkpt lat="42.91466" lon="0.14778">
        <ele>2292</ele>
        <time>2020-07-29T09:02:08.044Z</time>
      </trkpt>
      <trkpt lat="42.91466" lon="0.14775">
        <ele>2292</ele>
        <time>2020-07-29T09:02:09.044Z</time>
      </trkpt>
      <trkpt lat="42.91467" lon="0.14773">
        <ele>2293</ele>
        <time>2020-07-29T09:02:10.044Z</time>
      </trkpt>
      <trkpt lat="42.91467" lon="0.14772">
        <ele>2293</ele>
        <time>2020-07-29T09:02:11.044Z</time>
      </trkpt>
      <trkpt lat="42.91467" lon="0.1477">
        <ele>2291</ele>
        <time>2020-07-29T09:02:12.044Z</time>
      </trkpt>
      <trkpt lat="42.91467" lon="0.14768">
        <ele>2292</ele>
        <time>2020-07-29T09:02:13.044Z</time>
      </trkpt>
      <trkpt lat="42.91467" lon="0.14766">
        <ele>2293</ele>
        <time>2020-07-29T09:02:14.044Z</time>
      </trkpt>
      <trkpt lat="42.91468" lon="0.14765">
        <ele>2293</ele>
        <time>2020-07-29T09:02:15.044Z</time>
      </trkpt>
      <trkpt lat="42.91468" lon="0.14763">
        <ele>2293</ele>
        <time>2020-07-29T09:02:16.044Z</time>
      </trkpt>
      <trkpt lat="42.91468" lon="0.14761">
        <ele>2293</ele>
        <time>2020-07-29T09:02:17.044Z</time>
      </trkpt>
      <trkpt lat="42.91469" lon="0.14759">
        <ele>2294</ele>
        <time>2020-07-29T09:02:18.044Z</time>
      </trkpt>
      <trkpt lat="42.91469" lon="0.14758">
        <ele>2294</ele>
        <time>2020-07-29T09:02:19.044Z</time>
      </trkpt>
      <trkpt lat="42.91469" lon="0.14757">
        <ele>2294</ele>
        <time>2020-07-29T09:02:20.044Z</time>
      </trkpt>
      <trkpt lat="42.9147" lon="0.14757">
        <ele>2294</ele>
        <time>2020-07-29T09:02:21.044Z</time>
      </trkpt>
      <trkpt lat="42.9147" lon="0.14756">
        <ele>2294</ele>
        <time>2020-07-29T09:02:22.044Z</time>
      </trkpt>
      <trkpt lat="42.91471" lon="0.14755">
        <ele>2295</ele>
        <time>2020-07-29T09:02:23.044Z</time>
      </trkpt>
      <trkpt lat="42.91471" lon="0.14754">
        <ele>2295</ele>
        <time>2020-07-29T09:02:24.044Z</time>
      </trkpt>
      <trkpt lat="42.91473" lon="0.14753">
        <ele>2295</ele>
        <time>2020-07-29T09:02:25.044Z</time>
      </trkpt>
      <trkpt lat="42.91475" lon="0.14752">
        <ele>2294</ele>
        <time>2020-07-29T09:02:26.044Z</time>
      </trkpt>
      <trkpt lat="42.91477" lon="0.1475">
        <ele>2295</ele>
        <time>2020-07-29T09:02:27.044Z</time>
      </trkpt>
      <trkpt lat="42.9148" lon="0.14748">
        <ele>2295</ele>
        <time>2020-07-29T09:02:28.044Z</time>
      </trkpt>
      <trkpt lat="42.91482" lon="0.14746">
        <ele>2296</ele>
        <time>2020-07-29T09:02:29.044Z</time>
      </trkpt>
      <trkpt lat="42.91485" lon="0.14744">
        <ele>2296</ele>
        <time>2020-07-29T09:02:30.044Z</time>
      </trkpt>
      <trkpt lat="42.91487" lon="0.14742">
        <ele>2296</ele>
        <time>2020-07-29T09:02:31.044Z</time>
      </trkpt>
      <trkpt lat="42.91489" lon="0.1474">
        <ele>2296</ele>
        <time>2020-07-29T09:02:32.044Z</time>
      </trkpt>
      <trkpt lat="42.91491" lon="0.14738">
        <ele>2297</ele>
        <time>2020-07-29T09:02:33.044Z</time>
      </trkpt>
      <trkpt lat="42.91493" lon="0.14736">
        <ele>2298</ele>
        <time>2020-07-29T09:02:34.044Z</time>
      </trkpt>
      <trkpt lat="42.91495" lon="0.14734">
        <ele>2298</ele>
        <time>2020-07-29T09:02:35.044Z</time>
      </trkpt>
      <trkpt lat="42.91497" lon="0.14732">
        <ele>2299</ele>
        <time>2020-07-29T09:02:36.044Z</time>
      </trkpt>
      <trkpt lat="42.91498" lon="0.1473">
        <ele>2299</ele>
        <time>2020-07-29T09:02:37.044Z</time>
      </trkpt>
      <trkpt lat="42.915" lon="0.14728">
        <ele>2299</ele>
        <time>2020-07-29T09:02:38.044Z</time>
      </trkpt>
      <trkpt lat="42.91502" lon="0.14726">
        <ele>2299</ele>
        <time>2020-07-29T09:02:39.044Z</time>
      </trkpt>
      <trkpt lat="42.91504" lon="0.14724">
        <ele>2300</ele>
        <time>2020-07-29T09:02:40.044Z</time>
      </trkpt>
      <trkpt lat="42.91505" lon="0.14722">
        <ele>2300</ele>
        <time>2020-07-29T09:02:41.044Z</time>
      </trkpt>
      <trkpt lat="42.91506" lon="0.1472">
        <ele>2300</ele>
        <time>2020-07-29T09:02:42.044Z</time>
      </trkpt>
      <trkpt lat="42.91507" lon="0.14719">
        <ele>2300</ele>
        <time>2020-07-29T09:02:43.044Z</time>
      </trkpt>
      <trkpt lat="42.91508" lon="0.14717">
        <ele>2300</ele>
        <time>2020-07-29T09:02:44.044Z</time>
      </trkpt>
      <trkpt lat="42.91509" lon="0.14716">
        <ele>2300</ele>
        <time>2020-07-29T09:02:45.044Z</time>
      </trkpt>
      <trkpt lat="42.9151" lon="0.14715">
        <ele>2300</ele>
        <time>2020-07-29T09:02:46.044Z</time>
      </trkpt>
      <trkpt lat="42.91511" lon="0.14714">
        <ele>2300</ele>
        <time>2020-07-29T09:02:47.044Z</time>
      </trkpt>
      <trkpt lat="42.91513" lon="0.14712">
        <ele>2301</ele>
        <time>2020-07-29T09:02:48.044Z</time>
      </trkpt>
      <trkpt lat="42.91514" lon="0.1471">
        <ele>2303</ele>
        <time>2020-07-29T09:02:49.044Z</time>
      </trkpt>
      <trkpt lat="42.91515" lon="0.14708">
        <ele>2303</ele>
        <time>2020-07-29T09:02:50.044Z</time>
      </trkpt>
      <trkpt lat="42.91517" lon="0.14706">
        <ele>2302</ele>
        <time>2020-07-29T09:02:51.044Z</time>
      </trkpt>
      <trkpt lat="42.91519" lon="0.14704">
        <ele>2302</ele>
        <time>2020-07-29T09:02:52.044Z</time>
      </trkpt>
      <trkpt lat="42.9152" lon="0.14702">
        <ele>2302</ele>
        <time>2020-07-29T09:02:53.044Z</time>
      </trkpt>
      <trkpt lat="42.91521" lon="0.14699">
        <ele>2302</ele>
        <time>2020-07-29T09:02:54.044Z</time>
      </trkpt>
      <trkpt lat="42.91522" lon="0.14696">
        <ele>2302</ele>
        <time>2020-07-29T09:02:55.044Z</time>
      </trkpt>
      <trkpt lat="42.91523" lon="0.14693">
        <ele>2302</ele>
        <time>2020-07-29T09:02:56.044Z</time>
      </trkpt>
      <trkpt lat="42.91524" lon="0.14689">
        <ele>2302</ele>
        <time>2020-07-29T09:02:57.044Z</time>
      </trkpt>
      <trkpt lat="42.91525" lon="0.14686">
        <ele>2302</ele>
        <time>2020-07-29T09:02:58.044Z</time>
      </trkpt>
      <trkpt lat="42.91525" lon="0.14683">
        <ele>2302</ele>
        <time>2020-07-29T09:02:59.044Z</time>
      </trkpt>
      <trkpt lat="42.91526" lon="0.14679">
        <ele>2302</ele>
        <time>2020-07-29T09:03:00.044Z</time>
      </trkpt>
      <trkpt lat="42.91527" lon="0.14676">
        <ele>2303</ele>
        <time>2020-07-29T09:03:01.044Z</time>
      </trkpt>
      <trkpt lat="42.91528" lon="0.14673">
        <ele>2302</ele>
        <time>2020-07-29T09:03:02.044Z</time>
      </trkpt>
      <trkpt lat="42.91528" lon="0.1467">
        <ele>2302</ele>
        <time>2020-07-29T09:03:03.044Z</time>
      </trkpt>
      <trkpt lat="42.91528" lon="0.14666">
        <ele>2303</ele>
        <time>2020-07-29T09:03:04.044Z</time>
      </trkpt>
      <trkpt lat="42.91528" lon="0.14664">
        <ele>2303</ele>
        <time>2020-07-29T09:03:05.044Z</time>
      </trkpt>
      <trkpt lat="42.91528" lon="0.14661">
        <ele>2305</ele>
        <time>2020-07-29T09:03:06.044Z</time>
      </trkpt>
      <trkpt lat="42.91527" lon="0.14659">
        <ele>2306</ele>
        <time>2020-07-29T09:03:07.044Z</time>
      </trkpt>
      <trkpt lat="42.91527" lon="0.14649">
        <ele>2305</ele>
        <time>2020-07-29T09:03:08.095Z</time>
      </trkpt>
      <trkpt lat="42.91527" lon="0.14647">
        <ele>2306</ele>
        <time>2020-07-29T09:03:09.095Z</time>
      </trkpt>
      <trkpt lat="42.91528" lon="0.14646">
        <ele>2306</ele>
        <time>2020-07-29T09:03:10.095Z</time>
      </trkpt>
      <trkpt lat="42.91528" lon="0.14643">
        <ele>2305</ele>
        <time>2020-07-29T09:03:11.095Z</time>
      </trkpt>
      <trkpt lat="42.91529" lon="0.14642">
        <ele>2305</ele>
        <time>2020-07-29T09:03:12.095Z</time>
      </trkpt>
      <trkpt lat="42.9153" lon="0.1464">
        <ele>2306</ele>
        <time>2020-07-29T09:03:13.095Z</time>
      </trkpt>
      <trkpt lat="42.91531" lon="0.14638">
        <ele>2306</ele>
        <time>2020-07-29T09:03:14.095Z</time>
      </trkpt>
      <trkpt lat="42.91532" lon="0.14636">
        <ele>2307</ele>
        <time>2020-07-29T09:03:15.095Z</time>
      </trkpt>
      <trkpt lat="42.91534" lon="0.14633">
        <ele>2307</ele>
        <time>2020-07-29T09:03:16.095Z</time>
      </trkpt>
      <trkpt lat="42.91535" lon="0.14631">
        <ele>2308</ele>
        <time>2020-07-29T09:03:17.095Z</time>
      </trkpt>
      <trkpt lat="42.91537" lon="0.14629">
        <ele>2308</ele>
        <time>2020-07-29T09:03:18.095Z</time>
      </trkpt>
      <trkpt lat="42.91539" lon="0.14628">
        <ele>2309</ele>
        <time>2020-07-29T09:03:19.095Z</time>
      </trkpt>
      <trkpt lat="42.91541" lon="0.14626">
        <ele>2309</ele>
        <time>2020-07-29T09:03:20.095Z</time>
      </trkpt>
      <trkpt lat="42.91543" lon="0.14624">
        <ele>2310</ele>
        <time>2020-07-29T09:03:21.095Z</time>
      </trkpt>
      <trkpt lat="42.91545" lon="0.14623">
        <ele>2310</ele>
        <time>2020-07-29T09:03:22.095Z</time>
      </trkpt>
      <trkpt lat="42.91546" lon="0.14621">
        <ele>2311</ele>
        <time>2020-07-29T09:03:23.095Z</time>
      </trkpt>
      <trkpt lat="42.91548" lon="0.1462">
        <ele>2312</ele>
        <time>2020-07-29T09:03:24.095Z</time>
      </trkpt>
      <trkpt lat="42.91549" lon="0.14618">
        <ele>2313</ele>
        <time>2020-07-29T09:03:25.095Z</time>
      </trkpt>
      <trkpt lat="42.91551" lon="0.14617">
        <ele>2314</ele>
        <time>2020-07-29T09:03:26.095Z</time>
      </trkpt>
      <trkpt lat="42.91552" lon="0.14615">
        <ele>2315</ele>
        <time>2020-07-29T09:03:27.095Z</time>
      </trkpt>
      <trkpt lat="42.91553" lon="0.14614">
        <ele>2315</ele>
        <time>2020-07-29T09:03:28.095Z</time>
      </trkpt>
      <trkpt lat="42.91554" lon="0.14613">
        <ele>2316</ele>
        <time>2020-07-29T09:03:29.095Z</time>
      </trkpt>
      <trkpt lat="42.91555" lon="0.14612">
        <ele>2316</ele>
        <time>2020-07-29T09:03:30.095Z</time>
      </trkpt>
      <trkpt lat="42.91557" lon="0.14611">
        <ele>2315</ele>
        <time>2020-07-29T09:03:31.095Z</time>
      </trkpt>
      <trkpt lat="42.91558" lon="0.14611">
        <ele>2316</ele>
        <time>2020-07-29T09:03:32.095Z</time>
      </trkpt>
      <trkpt lat="42.91563" lon="0.14608">
        <ele>2316</ele>
        <time>2020-07-29T09:03:33.115Z</time>
      </trkpt>
      <trkpt lat="42.91563" lon="0.14608">
        <ele>2317</ele>
        <time>2020-07-29T09:03:34.115Z</time>
      </trkpt>
      <trkpt lat="42.91564" lon="0.14608">
        <ele>2317</ele>
        <time>2020-07-29T09:03:35.115Z</time>
      </trkpt>
      <trkpt lat="42.91565" lon="0.14608">
        <ele>2317</ele>
        <time>2020-07-29T09:03:36.115Z</time>
      </trkpt>
      <trkpt lat="42.91566" lon="0.14609">
        <ele>2318</ele>
        <time>2020-07-29T09:03:37.115Z</time>
      </trkpt>
      <trkpt lat="42.91568" lon="0.14609">
        <ele>2319</ele>
        <time>2020-07-29T09:03:38.115Z</time>
      </trkpt>
      <trkpt lat="42.91569" lon="0.14609">
        <ele>2319</ele>
        <time>2020-07-29T09:03:39.115Z</time>
      </trkpt>
      <trkpt lat="42.91571" lon="0.1461">
        <ele>2320</ele>
        <time>2020-07-29T09:03:40.115Z</time>
      </trkpt>
      <trkpt lat="42.91573" lon="0.14611">
        <ele>2321</ele>
        <time>2020-07-29T09:03:41.115Z</time>
      </trkpt>
      <trkpt lat="42.91575" lon="0.14611">
        <ele>2321</ele>
        <time>2020-07-29T09:03:42.115Z</time>
      </trkpt>
      <trkpt lat="42.91578" lon="0.14612">
        <ele>2322</ele>
        <time>2020-07-29T09:03:43.115Z</time>
      </trkpt>
      <trkpt lat="42.9158" lon="0.14613">
        <ele>2322</ele>
        <time>2020-07-29T09:03:44.115Z</time>
      </trkpt>
      <trkpt lat="42.91582" lon="0.14614">
        <ele>2322</ele>
        <time>2020-07-29T09:03:45.115Z</time>
      </trkpt>
      <trkpt lat="42.91585" lon="0.14616">
        <ele>2322</ele>
        <time>2020-07-29T09:03:46.115Z</time>
      </trkpt>
      <trkpt lat="42.91588" lon="0.14618">
        <ele>2322</ele>
        <time>2020-07-29T09:03:47.115Z</time>
      </trkpt>
      <trkpt lat="42.9159" lon="0.1462">
        <ele>2322</ele>
        <time>2020-07-29T09:03:48.115Z</time>
      </trkpt>
      <trkpt lat="42.91592" lon="0.14622">
        <ele>2324</ele>
        <time>2020-07-29T09:03:49.115Z</time>
      </trkpt>
      <trkpt lat="42.91594" lon="0.14624">
        <ele>2324</ele>
        <time>2020-07-29T09:03:50.115Z</time>
      </trkpt>
      <trkpt lat="42.91597" lon="0.14626">
        <ele>2323</ele>
        <time>2020-07-29T09:03:51.115Z</time>
      </trkpt>
      <trkpt lat="42.91599" lon="0.14628">
        <ele>2325</ele>
        <time>2020-07-29T09:03:52.115Z</time>
      </trkpt>
      <trkpt lat="42.91601" lon="0.1463">
        <ele>2325</ele>
        <time>2020-07-29T09:03:53.115Z</time>
      </trkpt>
      <trkpt lat="42.91602" lon="0.14632">
        <ele>2325</ele>
        <time>2020-07-29T09:03:54.115Z</time>
      </trkpt>
      <trkpt lat="42.91604" lon="0.14634">
        <ele>2326</ele>
        <time>2020-07-29T09:03:55.115Z</time>
      </trkpt>
      <trkpt lat="42.91606" lon="0.14636">
        <ele>2326</ele>
        <time>2020-07-29T09:03:56.115Z</time>
      </trkpt>
      <trkpt lat="42.91608" lon="0.14639">
        <ele>2327</ele>
        <time>2020-07-29T09:03:57.115Z</time>
      </trkpt>
      <trkpt lat="42.9161" lon="0.14641">
        <ele>2327</ele>
        <time>2020-07-29T09:03:58.115Z</time>
      </trkpt>
      <trkpt lat="42.91612" lon="0.14643">
        <ele>2328</ele>
        <time>2020-07-29T09:03:59.115Z</time>
      </trkpt>
      <trkpt lat="42.91614" lon="0.14645">
        <ele>2328</ele>
        <time>2020-07-29T09:04:00.115Z</time>
      </trkpt>
      <trkpt lat="42.91615" lon="0.14647">
        <ele>2329</ele>
        <time>2020-07-29T09:04:01.115Z</time>
      </trkpt>
      <trkpt lat="42.91617" lon="0.1465">
        <ele>2329</ele>
        <time>2020-07-29T09:04:02.115Z</time>
      </trkpt>
      <trkpt lat="42.91618" lon="0.14652">
        <ele>2330</ele>
        <time>2020-07-29T09:04:03.115Z</time>
      </trkpt>
      <trkpt lat="42.9162" lon="0.14654">
        <ele>2329</ele>
        <time>2020-07-29T09:04:04.115Z</time>
      </trkpt>
      <trkpt lat="42.91622" lon="0.14657">
        <ele>2329</ele>
        <time>2020-07-29T09:04:05.115Z</time>
      </trkpt>
      <trkpt lat="42.91623" lon="0.14659">
        <ele>2330</ele>
        <time>2020-07-29T09:04:06.115Z</time>
      </trkpt>
      <trkpt lat="42.91624" lon="0.14662">
        <ele>2329</ele>
        <time>2020-07-29T09:04:07.115Z</time>
      </trkpt>
      <trkpt lat="42.91626" lon="0.14664">
        <ele>2329</ele>
        <time>2020-07-29T09:04:08.115Z</time>
      </trkpt>
      <trkpt lat="42.91627" lon="0.14667">
        <ele>2329</ele>
        <time>2020-07-29T09:04:09.115Z</time>
      </trkpt>
      <trkpt lat="42.91628" lon="0.1467">
        <ele>2329</ele>
        <time>2020-07-29T09:04:10.115Z</time>
      </trkpt>
      <trkpt lat="42.91629" lon="0.14673">
        <ele>2329</ele>
        <time>2020-07-29T09:04:11.115Z</time>
      </trkpt>
      <trkpt lat="42.9163" lon="0.14676">
        <ele>2330</ele>
        <time>2020-07-29T09:04:12.115Z</time>
      </trkpt>
      <trkpt lat="42.9163" lon="0.14679">
        <ele>2330</ele>
        <time>2020-07-29T09:04:13.115Z</time>
      </trkpt>
      <trkpt lat="42.91631" lon="0.14682">
        <ele>2330</ele>
        <time>2020-07-29T09:04:14.115Z</time>
      </trkpt>
      <trkpt lat="42.91632" lon="0.14685">
        <ele>2330</ele>
        <time>2020-07-29T09:04:15.115Z</time>
      </trkpt>
      <trkpt lat="42.91633" lon="0.14688">
        <ele>2330</ele>
        <time>2020-07-29T09:04:16.115Z</time>
      </trkpt>
      <trkpt lat="42.91634" lon="0.1469">
        <ele>2331</ele>
        <time>2020-07-29T09:04:17.115Z</time>
      </trkpt>
      <trkpt lat="42.91634" lon="0.14693">
        <ele>2332</ele>
        <time>2020-07-29T09:04:18.115Z</time>
      </trkpt>
      <trkpt lat="42.91635" lon="0.14695">
        <ele>2332</ele>
        <time>2020-07-29T09:04:19.115Z</time>
      </trkpt>
      <trkpt lat="42.91635" lon="0.14697">
        <ele>2332</ele>
        <time>2020-07-29T09:04:20.115Z</time>
      </trkpt>
      <trkpt lat="42.91635" lon="0.14699">
        <ele>2333</ele>
        <time>2020-07-29T09:04:21.115Z</time>
      </trkpt>
      <trkpt lat="42.91635" lon="0.14701">
        <ele>2334</ele>
        <time>2020-07-29T09:04:22.115Z</time>
      </trkpt>
      <trkpt lat="42.91636" lon="0.14703">
        <ele>2335</ele>
        <time>2020-07-29T09:04:23.115Z</time>
      </trkpt>
      <trkpt lat="42.91636" lon="0.14705">
        <ele>2335</ele>
        <time>2020-07-29T09:04:24.115Z</time>
      </trkpt>
      <trkpt lat="42.91637" lon="0.14707">
        <ele>2336</ele>
        <time>2020-07-29T09:04:25.115Z</time>
      </trkpt>
      <trkpt lat="42.91637" lon="0.14709">
        <ele>2337</ele>
        <time>2020-07-29T09:04:26.115Z</time>
      </trkpt>
      <trkpt lat="42.91637" lon="0.14711">
        <ele>2337</ele>
        <time>2020-07-29T09:04:27.115Z</time>
      </trkpt>
      <trkpt lat="42.91638" lon="0.14713">
        <ele>2338</ele>
        <time>2020-07-29T09:04:28.115Z</time>
      </trkpt>
      <trkpt lat="42.91638" lon="0.14716">
        <ele>2339</ele>
        <time>2020-07-29T09:04:29.115Z</time>
      </trkpt>
      <trkpt lat="42.91638" lon="0.14719">
        <ele>2339</ele>
        <time>2020-07-29T09:04:30.115Z</time>
      </trkpt>
      <trkpt lat="42.91638" lon="0.14722">
        <ele>2339</ele>
        <time>2020-07-29T09:04:31.115Z</time>
      </trkpt>
      <trkpt lat="42.91638" lon="0.14726">
        <ele>2340</ele>
        <time>2020-07-29T09:04:32.115Z</time>
      </trkpt>
      <trkpt lat="42.91639" lon="0.14729">
        <ele>2340</ele>
        <time>2020-07-29T09:04:33.115Z</time>
      </trkpt>
      <trkpt lat="42.91639" lon="0.14732">
        <ele>2340</ele>
        <time>2020-07-29T09:04:34.115Z</time>
      </trkpt>
      <trkpt lat="42.91639" lon="0.14736">
        <ele>2341</ele>
        <time>2020-07-29T09:04:35.115Z</time>
      </trkpt>
      <trkpt lat="42.91639" lon="0.14739">
        <ele>2341</ele>
        <time>2020-07-29T09:04:36.115Z</time>
      </trkpt>
      <trkpt lat="42.91639" lon="0.14742">
        <ele>2342</ele>
        <time>2020-07-29T09:04:37.115Z</time>
      </trkpt>
      <trkpt lat="42.91639" lon="0.14745">
        <ele>2343</ele>
        <time>2020-07-29T09:04:38.115Z</time>
      </trkpt>
      <trkpt lat="42.91639" lon="0.14747">
        <ele>2343</ele>
        <time>2020-07-29T09:04:39.115Z</time>
      </trkpt>
      <trkpt lat="42.91639" lon="0.14749">
        <ele>2343</ele>
        <time>2020-07-29T09:04:40.115Z</time>
      </trkpt>
      <trkpt lat="42.9164" lon="0.14751">
        <ele>2344</ele>
        <time>2020-07-29T09:04:41.115Z</time>
      </trkpt>
      <trkpt lat="42.9164" lon="0.14752">
        <ele>2344</ele>
        <time>2020-07-29T09:04:42.115Z</time>
      </trkpt>
      <trkpt lat="42.9164" lon="0.14754">
        <ele>2345</ele>
        <time>2020-07-29T09:04:43.115Z</time>
      </trkpt>
      <trkpt lat="42.91641" lon="0.14756">
        <ele>2346</ele>
        <time>2020-07-29T09:04:44.115Z</time>
      </trkpt>
      <trkpt lat="42.91641" lon="0.14758">
        <ele>2347</ele>
        <time>2020-07-29T09:04:45.115Z</time>
      </trkpt>
      <trkpt lat="42.91641" lon="0.1476">
        <ele>2348</ele>
        <time>2020-07-29T09:04:46.115Z</time>
      </trkpt>
      <trkpt lat="42.91641" lon="0.14762">
        <ele>2348</ele>
        <time>2020-07-29T09:04:47.115Z</time>
      </trkpt>
      <trkpt lat="42.91641" lon="0.14763">
        <ele>2349</ele>
        <time>2020-07-29T09:04:48.115Z</time>
      </trkpt>
      <trkpt lat="42.91641" lon="0.14765">
        <ele>2349</ele>
        <time>2020-07-29T09:04:49.115Z</time>
      </trkpt>
      <trkpt lat="42.91641" lon="0.14768">
        <ele>2350</ele>
        <time>2020-07-29T09:04:50.115Z</time>
      </trkpt>
      <trkpt lat="42.91641" lon="0.14771">
        <ele>2350</ele>
        <time>2020-07-29T09:04:51.115Z</time>
      </trkpt>
      <trkpt lat="42.91642" lon="0.14774">
        <ele>2351</ele>
        <time>2020-07-29T09:04:52.115Z</time>
      </trkpt>
      <trkpt lat="42.91642" lon="0.14777">
        <ele>2351</ele>
        <time>2020-07-29T09:04:53.115Z</time>
      </trkpt>
      <trkpt lat="42.91643" lon="0.14781">
        <ele>2352</ele>
        <time>2020-07-29T09:04:54.115Z</time>
      </trkpt>
      <trkpt lat="42.91644" lon="0.14784">
        <ele>2351</ele>
        <time>2020-07-29T09:04:55.115Z</time>
      </trkpt>
      <trkpt lat="42.91644" lon="0.14787">
        <ele>2351</ele>
        <time>2020-07-29T09:04:56.115Z</time>
      </trkpt>
      <trkpt lat="42.91643" lon="0.14789">
        <ele>2351</ele>
        <time>2020-07-29T09:04:57.115Z</time>
      </trkpt>
      <trkpt lat="42.91651" lon="0.14808">
        <ele>2350</ele>
        <time>2020-07-29T09:04:58.088Z</time>
      </trkpt>
      <trkpt lat="42.91652" lon="0.14807">
        <ele>2351</ele>
        <time>2020-07-29T09:04:59.088Z</time>
      </trkpt>
      <trkpt lat="42.91652" lon="0.14806">
        <ele>2350</ele>
        <time>2020-07-29T09:05:00.088Z</time>
      </trkpt>
      <trkpt lat="42.91654" lon="0.14804">
        <ele>2351</ele>
        <time>2020-07-29T09:05:01.088Z</time>
      </trkpt>
      <trkpt lat="42.91656" lon="0.14802">
        <ele>2351</ele>
        <time>2020-07-29T09:05:02.088Z</time>
      </trkpt>
      <trkpt lat="42.91658" lon="0.148">
        <ele>2351</ele>
        <time>2020-07-29T09:05:03.088Z</time>
      </trkpt>
      <trkpt lat="42.91659" lon="0.14797">
        <ele>2351</ele>
        <time>2020-07-29T09:05:04.088Z</time>
      </trkpt>
      <trkpt lat="42.91661" lon="0.14795">
        <ele>2351</ele>
        <time>2020-07-29T09:05:05.088Z</time>
      </trkpt>
      <trkpt lat="42.91663" lon="0.14792">
        <ele>2351</ele>
        <time>2020-07-29T09:05:06.088Z</time>
      </trkpt>
      <trkpt lat="42.91665" lon="0.1479">
        <ele>2353</ele>
        <time>2020-07-29T09:05:07.088Z</time>
      </trkpt>
      <trkpt lat="42.91667" lon="0.14788">
        <ele>2353</ele>
        <time>2020-07-29T09:05:08.088Z</time>
      </trkpt>
      <trkpt lat="42.91669" lon="0.14786">
        <ele>2353</ele>
        <time>2020-07-29T09:05:09.088Z</time>
      </trkpt>
      <trkpt lat="42.91671" lon="0.14784">
        <ele>2354</ele>
        <time>2020-07-29T09:05:10.088Z</time>
      </trkpt>
      <trkpt lat="42.91673" lon="0.14782">
        <ele>2355</ele>
        <time>2020-07-29T09:05:11.088Z</time>
      </trkpt>
      <trkpt lat="42.91675" lon="0.1478">
        <ele>2356</ele>
        <time>2020-07-29T09:05:12.088Z</time>
      </trkpt>
      <trkpt lat="42.91677" lon="0.14779">
        <ele>2356</ele>
        <time>2020-07-29T09:05:13.088Z</time>
      </trkpt>
      <trkpt lat="42.91679" lon="0.14777">
        <ele>2357</ele>
        <time>2020-07-29T09:05:14.088Z</time>
      </trkpt>
      <trkpt lat="42.91681" lon="0.14776">
        <ele>2357</ele>
        <time>2020-07-29T09:05:15.088Z</time>
      </trkpt>
      <trkpt lat="42.91682" lon="0.14775">
        <ele>2358</ele>
        <time>2020-07-29T09:05:16.088Z</time>
      </trkpt>
      <trkpt lat="42.91684" lon="0.14773">
        <ele>2357</ele>
        <time>2020-07-29T09:05:17.088Z</time>
      </trkpt>
      <trkpt lat="42.91685" lon="0.14772">
        <ele>2358</ele>
        <time>2020-07-29T09:05:18.088Z</time>
      </trkpt>
      <trkpt lat="42.91687" lon="0.14771">
        <ele>2358</ele>
        <time>2020-07-29T09:05:19.088Z</time>
      </trkpt>
      <trkpt lat="42.91689" lon="0.1477">
        <ele>2358</ele>
        <time>2020-07-29T09:05:20.088Z</time>
      </trkpt>
      <trkpt lat="42.91691" lon="0.14769">
        <ele>2359</ele>
        <time>2020-07-29T09:05:21.088Z</time>
      </trkpt>
      <trkpt lat="42.91693" lon="0.14768">
        <ele>2358</ele>
        <time>2020-07-29T09:05:22.088Z</time>
      </trkpt>
      <trkpt lat="42.91695" lon="0.14767">
        <ele>2358</ele>
        <time>2020-07-29T09:05:23.088Z</time>
      </trkpt>
      <trkpt lat="42.91696" lon="0.14767">
        <ele>2357</ele>
        <time>2020-07-29T09:05:24.088Z</time>
      </trkpt>
      <trkpt lat="42.91698" lon="0.14767">
        <ele>2357</ele>
        <time>2020-07-29T09:05:25.088Z</time>
      </trkpt>
      <trkpt lat="42.91699" lon="0.14768">
        <ele>2357</ele>
        <time>2020-07-29T09:05:26.088Z</time>
      </trkpt>
      <trkpt lat="42.91701" lon="0.14767">
        <ele>2357</ele>
        <time>2020-07-29T09:05:27.088Z</time>
      </trkpt>
      <trkpt lat="42.91702" lon="0.14767">
        <ele>2357</ele>
        <time>2020-07-29T09:05:28.088Z</time>
      </trkpt>
      <trkpt lat="42.91703" lon="0.14767">
        <ele>2357</ele>
        <time>2020-07-29T09:05:29.088Z</time>
      </trkpt>
      <trkpt lat="42.91704" lon="0.14767">
        <ele>2357</ele>
        <time>2020-07-29T09:05:30.088Z</time>
      </trkpt>
      <trkpt lat="42.91704" lon="0.14766">
        <ele>2358</ele>
        <time>2020-07-29T09:05:31.088Z</time>
      </trkpt>
      <trkpt lat="42.91704" lon="0.14766">
        <ele>2358</ele>
        <time>2020-07-29T09:05:32.088Z</time>
      </trkpt>
      <trkpt lat="42.91705" lon="0.14765">
        <ele>2358</ele>
        <time>2020-07-29T09:05:33.088Z</time>
      </trkpt>
      <trkpt lat="42.91707" lon="0.14765">
        <ele>2358</ele>
        <time>2020-07-29T09:05:34.088Z</time>
      </trkpt>
      <trkpt lat="42.91708" lon="0.14764">
        <ele>2358</ele>
        <time>2020-07-29T09:05:35.088Z</time>
      </trkpt>
      <trkpt lat="42.91709" lon="0.14763">
        <ele>2358</ele>
        <time>2020-07-29T09:05:36.088Z</time>
      </trkpt>
      <trkpt lat="42.9171" lon="0.14761">
        <ele>2358</ele>
        <time>2020-07-29T09:05:37.088Z</time>
      </trkpt>
      <trkpt lat="42.91712" lon="0.1476">
        <ele>2358</ele>
        <time>2020-07-29T09:05:38.088Z</time>
      </trkpt>
      <trkpt lat="42.91714" lon="0.14758">
        <ele>2358</ele>
        <time>2020-07-29T09:05:39.088Z</time>
      </trkpt>
      <trkpt lat="42.91716" lon="0.14757">
        <ele>2359</ele>
        <time>2020-07-29T09:05:40.088Z</time>
      </trkpt>
      <trkpt lat="42.91718" lon="0.14755">
        <ele>2359</ele>
        <time>2020-07-29T09:05:41.088Z</time>
      </trkpt>
      <trkpt lat="42.91721" lon="0.14754">
        <ele>2359</ele>
        <time>2020-07-29T09:05:42.088Z</time>
      </trkpt>
      <trkpt lat="42.91723" lon="0.14753">
        <ele>2359</ele>
        <time>2020-07-29T09:05:43.088Z</time>
      </trkpt>
      <trkpt lat="42.91726" lon="0.14752">
        <ele>2359</ele>
        <time>2020-07-29T09:05:44.088Z</time>
      </trkpt>
      <trkpt lat="42.91729" lon="0.14751">
        <ele>2359</ele>
        <time>2020-07-29T09:05:45.088Z</time>
      </trkpt>
      <trkpt lat="42.91731" lon="0.1475">
        <ele>2360</ele>
        <time>2020-07-29T09:05:46.088Z</time>
      </trkpt>
      <trkpt lat="42.91734" lon="0.14749">
        <ele>2359</ele>
        <time>2020-07-29T09:05:47.088Z</time>
      </trkpt>
      <trkpt lat="42.91737" lon="0.14749">
        <ele>2359</ele>
        <time>2020-07-29T09:05:48.088Z</time>
      </trkpt>
      <trkpt lat="42.9174" lon="0.1475">
        <ele>2359</ele>
        <time>2020-07-29T09:05:49.088Z</time>
      </trkpt>
      <trkpt lat="42.91743" lon="0.14751">
        <ele>2359</ele>
        <time>2020-07-29T09:05:50.088Z</time>
      </trkpt>
      <trkpt lat="42.91746" lon="0.14752">
        <ele>2360</ele>
        <time>2020-07-29T09:05:51.088Z</time>
      </trkpt>
      <trkpt lat="42.9175" lon="0.14753">
        <ele>2360</ele>
        <time>2020-07-29T09:05:52.088Z</time>
      </trkpt>
      <trkpt lat="42.91753" lon="0.14755">
        <ele>2359</ele>
        <time>2020-07-29T09:05:53.088Z</time>
      </trkpt>
      <trkpt lat="42.91755" lon="0.14756">
        <ele>2360</ele>
        <time>2020-07-29T09:05:54.088Z</time>
      </trkpt>
      <trkpt lat="42.91758" lon="0.14757">
        <ele>2361</ele>
        <time>2020-07-29T09:05:55.088Z</time>
      </trkpt>
      <trkpt lat="42.91759" lon="0.14758">
        <ele>2361</ele>
        <time>2020-07-29T09:05:56.088Z</time>
      </trkpt>
      <trkpt lat="42.9176" lon="0.14758">
        <ele>2363</ele>
        <time>2020-07-29T09:05:57.088Z</time>
      </trkpt>
      <trkpt lat="42.91761" lon="0.14757">
        <ele>2363</ele>
        <time>2020-07-29T09:05:58.088Z</time>
      </trkpt>
      <trkpt lat="42.91761" lon="0.14757">
        <ele>2362</ele>
        <time>2020-07-29T09:05:59.088Z</time>
      </trkpt>
      <trkpt lat="42.91762" lon="0.14756">
        <ele>2362</ele>
        <time>2020-07-29T09:06:00.088Z</time>
      </trkpt>
      <trkpt lat="42.91763" lon="0.14756">
        <ele>2363</ele>
        <time>2020-07-29T09:06:01.088Z</time>
      </trkpt>
      <trkpt lat="42.91763" lon="0.14755">
        <ele>2363</ele>
        <time>2020-07-29T09:06:02.088Z</time>
      </trkpt>
      <trkpt lat="42.91764" lon="0.14754">
        <ele>2364</ele>
        <time>2020-07-29T09:06:03.088Z</time>
      </trkpt>
      <trkpt lat="42.91765" lon="0.14753">
        <ele>2364</ele>
        <time>2020-07-29T09:06:04.088Z</time>
      </trkpt>
      <trkpt lat="42.91766" lon="0.14752">
        <ele>2364</ele>
        <time>2020-07-29T09:06:05.088Z</time>
      </trkpt>
      <trkpt lat="42.91767" lon="0.14751">
        <ele>2364</ele>
        <time>2020-07-29T09:06:06.088Z</time>
      </trkpt>
      <trkpt lat="42.91768" lon="0.1475">
        <ele>2365</ele>
        <time>2020-07-29T09:06:07.088Z</time>
      </trkpt>
      <trkpt lat="42.91769" lon="0.1475">
        <ele>2366</ele>
        <time>2020-07-29T09:06:08.088Z</time>
      </trkpt>
      <trkpt lat="42.9177" lon="0.14749">
        <ele>2367</ele>
        <time>2020-07-29T09:06:09.088Z</time>
      </trkpt>
      <trkpt lat="42.91771" lon="0.14748">
        <ele>2367</ele>
        <time>2020-07-29T09:06:10.088Z</time>
      </trkpt>
      <trkpt lat="42.91772" lon="0.14747">
        <ele>2367</ele>
        <time>2020-07-29T09:06:11.088Z</time>
      </trkpt>
      <trkpt lat="42.91773" lon="0.14747">
        <ele>2367</ele>
        <time>2020-07-29T09:06:12.088Z</time>
      </trkpt>
      <trkpt lat="42.91775" lon="0.14747">
        <ele>2367</ele>
        <time>2020-07-29T09:06:13.088Z</time>
      </trkpt>
      <trkpt lat="42.91776" lon="0.14747">
        <ele>2367</ele>
        <time>2020-07-29T09:06:14.088Z</time>
      </trkpt>
      <trkpt lat="42.91778" lon="0.14748">
        <ele>2367</ele>
        <time>2020-07-29T09:06:15.088Z</time>
      </trkpt>
      <trkpt lat="42.9178" lon="0.14748">
        <ele>2367</ele>
        <time>2020-07-29T09:06:16.088Z</time>
      </trkpt>
      <trkpt lat="42.91781" lon="0.14749">
        <ele>2368</ele>
        <time>2020-07-29T09:06:17.088Z</time>
      </trkpt>
      <trkpt lat="42.91782" lon="0.1475">
        <ele>2369</ele>
        <time>2020-07-29T09:06:18.088Z</time>
      </trkpt>
      <trkpt lat="42.91783" lon="0.1475">
        <ele>2369</ele>
        <time>2020-07-29T09:06:19.088Z</time>
      </trkpt>
      <trkpt lat="42.91784" lon="0.14751">
        <ele>2370</ele>
        <time>2020-07-29T09:06:20.088Z</time>
      </trkpt>
      <trkpt lat="42.91785" lon="0.14751">
        <ele>2370</ele>
        <time>2020-07-29T09:06:21.088Z</time>
      </trkpt>
      <trkpt lat="42.91785" lon="0.14751">
        <ele>2371</ele>
        <time>2020-07-29T09:06:22.088Z</time>
      </trkpt>
      <trkpt lat="42.91786" lon="0.14751">
        <ele>2371</ele>
        <time>2020-07-29T09:06:23.088Z</time>
      </trkpt>
      <trkpt lat="42.91786" lon="0.14751">
        <ele>2371</ele>
        <time>2020-07-29T09:06:24.088Z</time>
      </trkpt>
      <trkpt lat="42.91786" lon="0.14751">
        <ele>2371</ele>
        <time>2020-07-29T09:06:25.088Z</time>
      </trkpt>
      <trkpt lat="42.91786" lon="0.14751">
        <ele>2371</ele>
        <time>2020-07-29T09:06:26.088Z</time>
      </trkpt>
      <trkpt lat="42.91786" lon="0.14751">
        <ele>2371</ele>
        <time>2020-07-29T09:06:27.088Z</time>
      </trkpt>
      <trkpt lat="42.91786" lon="0.1475">
        <ele>2372</ele>
        <time>2020-07-29T09:06:28.088Z</time>
      </trkpt>
      <trkpt lat="42.91787" lon="0.1475">
        <ele>2372</ele>
        <time>2020-07-29T09:06:29.088Z</time>
      </trkpt>
      <trkpt lat="42.91787" lon="0.14749">
        <ele>2372</ele>
        <time>2020-07-29T09:06:30.088Z</time>
      </trkpt>
      <trkpt lat="42.91788" lon="0.14748">
        <ele>2372</ele>
        <time>2020-07-29T09:06:31.088Z</time>
      </trkpt>
      <trkpt lat="42.91788" lon="0.14748">
        <ele>2372</ele>
        <time>2020-07-29T09:06:32.088Z</time>
      </trkpt>
      <trkpt lat="42.91789" lon="0.14746">
        <ele>2372</ele>
        <time>2020-07-29T09:06:33.088Z</time>
      </trkpt>
      <trkpt lat="42.91789" lon="0.14745">
        <ele>2373</ele>
        <time>2020-07-29T09:06:34.088Z</time>
      </trkpt>
      <trkpt lat="42.91789" lon="0.14744">
        <ele>2373</ele>
        <time>2020-07-29T09:06:35.088Z</time>
      </trkpt>
      <trkpt lat="42.91789" lon="0.14743">
        <ele>2373</ele>
        <time>2020-07-29T09:06:36.088Z</time>
      </trkpt>
      <trkpt lat="42.91789" lon="0.14743">
        <ele>2373</ele>
        <time>2020-07-29T09:06:37.088Z</time>
      </trkpt>
      <trkpt lat="42.91789" lon="0.14742">
        <ele>2373</ele>
        <time>2020-07-29T09:06:38.088Z</time>
      </trkpt>
      <trkpt lat="42.9179" lon="0.14741">
        <ele>2374</ele>
        <time>2020-07-29T09:06:39.088Z</time>
      </trkpt>
      <trkpt lat="42.9179" lon="0.1474">
        <ele>2374</ele>
        <time>2020-07-29T09:06:40.088Z</time>
      </trkpt>
      <trkpt lat="42.9179" lon="0.1474">
        <ele>2375</ele>
        <time>2020-07-29T09:06:41.088Z</time>
      </trkpt>
      <trkpt lat="42.91791" lon="0.14739">
        <ele>2375</ele>
        <time>2020-07-29T09:06:42.088Z</time>
      </trkpt>
      <trkpt lat="42.91791" lon="0.14738">
        <ele>2375</ele>
        <time>2020-07-29T09:06:43.088Z</time>
      </trkpt>
      <trkpt lat="42.91793" lon="0.14738">
        <ele>2375</ele>
        <time>2020-07-29T09:06:44.088Z</time>
      </trkpt>
      <trkpt lat="42.91794" lon="0.14738">
        <ele>2375</ele>
        <time>2020-07-29T09:06:45.088Z</time>
      </trkpt>
      <trkpt lat="42.91794" lon="0.14738">
        <ele>2375</ele>
        <time>2020-07-29T09:06:46.088Z</time>
      </trkpt>
      <trkpt lat="42.91794" lon="0.14738">
        <ele>2375</ele>
        <time>2020-07-29T09:06:47.088Z</time>
      </trkpt>
      <trkpt lat="42.91794" lon="0.14738">
        <ele>2375</ele>
        <time>2020-07-29T09:06:48.088Z</time>
      </trkpt>
      <trkpt lat="42.91794" lon="0.14738">
        <ele>2375</ele>
        <time>2020-07-29T09:06:49.088Z</time>
      </trkpt>
      <trkpt lat="42.91794" lon="0.14738">
        <ele>2375</ele>
        <time>2020-07-29T09:06:50.088Z</time>
      </trkpt>
      <trkpt lat="42.91794" lon="0.14738">
        <ele>2375</ele>
        <time>2020-07-29T09:06:51.088Z</time>
      </trkpt>
      <trkpt lat="42.91794" lon="0.14738">
        <ele>2375</ele>
        <time>2020-07-29T09:06:52.088Z</time>
      </trkpt>
      <trkpt lat="42.91794" lon="0.14738">
        <ele>2375</ele>
        <time>2020-07-29T09:06:53.088Z</time>
      </trkpt>
      <trkpt lat="42.91794" lon="0.14738">
        <ele>2375</ele>
        <time>2020-07-29T09:06:54.088Z</time>
      </trkpt>
      <trkpt lat="42.91794" lon="0.14738">
        <ele>2375</ele>
        <time>2020-07-29T09:06:55.088Z</time>
      </trkpt>
      <trkpt lat="42.91794" lon="0.14738">
        <ele>2375</ele>
        <time>2020-07-29T09:06:56.088Z</time>
      </trkpt>
      <trkpt lat="42.91794" lon="0.14738">
        <ele>2375</ele>
        <time>2020-07-29T09:06:57.088Z</time>
      </trkpt>
      <trkpt lat="42.91795" lon="0.14737">
        <ele>2375</ele>
        <time>2020-07-29T09:06:58.088Z</time>
      </trkpt>
      <trkpt lat="42.91795" lon="0.14737">
        <ele>2376</ele>
        <time>2020-07-29T09:06:59.088Z</time>
      </trkpt>
      <trkpt lat="42.91796" lon="0.14736">
        <ele>2376</ele>
        <time>2020-07-29T09:07:00.088Z</time>
      </trkpt>
      <trkpt lat="42.91796" lon="0.14736">
        <ele>2376</ele>
        <time>2020-07-29T09:07:01.088Z</time>
      </trkpt>
      <trkpt lat="42.91796" lon="0.14735">
        <ele>2376</ele>
        <time>2020-07-29T09:07:02.088Z</time>
      </trkpt>
      <trkpt lat="42.91797" lon="0.14734">
        <ele>2376</ele>
        <time>2020-07-29T09:07:03.088Z</time>
      </trkpt>
      <trkpt lat="42.91798" lon="0.14733">
        <ele>2377</ele>
        <time>2020-07-29T09:07:04.088Z</time>
      </trkpt>
      <trkpt lat="42.91799" lon="0.14733">
        <ele>2377</ele>
        <time>2020-07-29T09:07:05.088Z</time>
      </trkpt>
      <trkpt lat="42.91799" lon="0.14732">
        <ele>2377</ele>
        <time>2020-07-29T09:07:06.088Z</time>
      </trkpt>
      <trkpt lat="42.918" lon="0.14731">
        <ele>2377</ele>
        <time>2020-07-29T09:07:07.088Z</time>
      </trkpt>
      <trkpt lat="42.918" lon="0.14731">
        <ele>2378</ele>
        <time>2020-07-29T09:07:08.088Z</time>
      </trkpt>
      <trkpt lat="42.91801" lon="0.14729">
        <ele>2378</ele>
        <time>2020-07-29T09:07:09.088Z</time>
      </trkpt>
      <trkpt lat="42.91802" lon="0.14727">
        <ele>2379</ele>
        <time>2020-07-29T09:07:10.088Z</time>
      </trkpt>
      <trkpt lat="42.91804" lon="0.14726">
        <ele>2379</ele>
        <time>2020-07-29T09:07:11.088Z</time>
      </trkpt>
      <trkpt lat="42.91805" lon="0.14724">
        <ele>2380</ele>
        <time>2020-07-29T09:07:12.088Z</time>
      </trkpt>
      <trkpt lat="42.91806" lon="0.14723">
        <ele>2380</ele>
        <time>2020-07-29T09:07:13.088Z</time>
      </trkpt>
      <trkpt lat="42.91807" lon="0.14722">
        <ele>2380</ele>
        <time>2020-07-29T09:07:14.088Z</time>
      </trkpt>
      <trkpt lat="42.91807" lon="0.14722">
        <ele>2381</ele>
        <time>2020-07-29T09:07:15.088Z</time>
      </trkpt>
      <trkpt lat="42.91814" lon="0.14727">
        <ele>2379</ele>
        <time>2020-07-29T09:07:16.014Z</time>
      </trkpt>
      <trkpt lat="42.91815" lon="0.14727">
        <ele>2379</ele>
        <time>2020-07-29T09:07:17.014Z</time>
      </trkpt>
      <trkpt lat="42.91816" lon="0.14728">
        <ele>2379</ele>
        <time>2020-07-29T09:07:18.014Z</time>
      </trkpt>
      <trkpt lat="42.91818" lon="0.14728">
        <ele>2379</ele>
        <time>2020-07-29T09:07:19.014Z</time>
      </trkpt>
      <trkpt lat="42.91819" lon="0.14728">
        <ele>2378</ele>
        <time>2020-07-29T09:07:20.014Z</time>
      </trkpt>
      <trkpt lat="42.9182" lon="0.14728">
        <ele>2378</ele>
        <time>2020-07-29T09:07:21.014Z</time>
      </trkpt>
      <trkpt lat="42.91822" lon="0.14728">
        <ele>2378</ele>
        <time>2020-07-29T09:07:22.014Z</time>
      </trkpt>
      <trkpt lat="42.91823" lon="0.14727">
        <ele>2378</ele>
        <time>2020-07-29T09:07:23.014Z</time>
      </trkpt>
      <trkpt lat="42.91824" lon="0.14727">
        <ele>2378</ele>
        <time>2020-07-29T09:07:24.014Z</time>
      </trkpt>
      <trkpt lat="42.91825" lon="0.14727">
        <ele>2378</ele>
        <time>2020-07-29T09:07:25.014Z</time>
      </trkpt>
      <trkpt lat="42.91826" lon="0.14726">
        <ele>2379</ele>
        <time>2020-07-29T09:07:26.014Z</time>
      </trkpt>
      <trkpt lat="42.91827" lon="0.14725">
        <ele>2380</ele>
        <time>2020-07-29T09:07:27.014Z</time>
      </trkpt>
      <trkpt lat="42.91828" lon="0.14725">
        <ele>2379</ele>
        <time>2020-07-29T09:07:28.014Z</time>
      </trkpt>
      <trkpt lat="42.91829" lon="0.14724">
        <ele>2380</ele>
        <time>2020-07-29T09:07:29.014Z</time>
      </trkpt>
      <trkpt lat="42.91829" lon="0.14723">
        <ele>2380</ele>
        <time>2020-07-29T09:07:30.014Z</time>
      </trkpt>
      <trkpt lat="42.9183" lon="0.14722">
        <ele>2381</ele>
        <time>2020-07-29T09:07:31.014Z</time>
      </trkpt>
      <trkpt lat="42.9183" lon="0.14721">
        <ele>2382</ele>
        <time>2020-07-29T09:07:32.014Z</time>
      </trkpt>
      <trkpt lat="42.91831" lon="0.14719">
        <ele>2381</ele>
        <time>2020-07-29T09:07:33.014Z</time>
      </trkpt>
      <trkpt lat="42.91831" lon="0.14719">
        <ele>2381</ele>
        <time>2020-07-29T09:07:34.014Z</time>
      </trkpt>
      <trkpt lat="42.91831" lon="0.14718">
        <ele>2381</ele>
        <time>2020-07-29T09:07:35.014Z</time>
      </trkpt>
      <trkpt lat="42.91831" lon="0.14718">
        <ele>2382</ele>
        <time>2020-07-29T09:07:36.014Z</time>
      </trkpt>
      <trkpt lat="42.91831" lon="0.14718">
        <ele>2382</ele>
        <time>2020-07-29T09:07:37.014Z</time>
      </trkpt>
      <trkpt lat="42.91831" lon="0.14718">
        <ele>2382</ele>
        <time>2020-07-29T09:07:38.014Z</time>
      </trkpt>
      <trkpt lat="42.91831" lon="0.14718">
        <ele>2383</ele>
        <time>2020-07-29T09:07:39.014Z</time>
      </trkpt>
      <trkpt lat="42.91831" lon="0.14718">
        <ele>2384</ele>
        <time>2020-07-29T09:07:40.014Z</time>
      </trkpt>
      <trkpt lat="42.91831" lon="0.14718">
        <ele>2384</ele>
        <time>2020-07-29T09:07:41.014Z</time>
      </trkpt>
      <trkpt lat="42.91831" lon="0.14717">
        <ele>2384</ele>
        <time>2020-07-29T09:07:42.014Z</time>
      </trkpt>
      <trkpt lat="42.91831" lon="0.14717">
        <ele>2384</ele>
        <time>2020-07-29T09:07:43.014Z</time>
      </trkpt>
      <trkpt lat="42.91831" lon="0.14716">
        <ele>2383</ele>
        <time>2020-07-29T09:07:44.014Z</time>
      </trkpt>
      <trkpt lat="42.91831" lon="0.14715">
        <ele>2384</ele>
        <time>2020-07-29T09:07:45.014Z</time>
      </trkpt>
      <trkpt lat="42.91831" lon="0.14714">
        <ele>2384</ele>
        <time>2020-07-29T09:07:46.014Z</time>
      </trkpt>
      <trkpt lat="42.91831" lon="0.14713">
        <ele>2384</ele>
        <time>2020-07-29T09:07:47.014Z</time>
      </trkpt>
      <trkpt lat="42.91831" lon="0.14712">
        <ele>2384</ele>
        <time>2020-07-29T09:07:48.014Z</time>
      </trkpt>
      <trkpt lat="42.91832" lon="0.1471">
        <ele>2385</ele>
        <time>2020-07-29T09:07:49.014Z</time>
      </trkpt>
      <trkpt lat="42.91832" lon="0.14709">
        <ele>2385</ele>
        <time>2020-07-29T09:07:50.014Z</time>
      </trkpt>
      <trkpt lat="42.91832" lon="0.14707">
        <ele>2386</ele>
        <time>2020-07-29T09:07:51.014Z</time>
      </trkpt>
      <trkpt lat="42.91832" lon="0.14706">
        <ele>2386</ele>
        <time>2020-07-29T09:07:52.014Z</time>
      </trkpt>
      <trkpt lat="42.91831" lon="0.14705">
        <ele>2386</ele>
        <time>2020-07-29T09:07:53.014Z</time>
      </trkpt>
      <trkpt lat="42.91831" lon="0.14703">
        <ele>2386</ele>
        <time>2020-07-29T09:07:54.014Z</time>
      </trkpt>
      <trkpt lat="42.91831" lon="0.14702">
        <ele>2387</ele>
        <time>2020-07-29T09:07:55.014Z</time>
      </trkpt>
      <trkpt lat="42.91831" lon="0.14701">
        <ele>2387</ele>
        <time>2020-07-29T09:07:56.014Z</time>
      </trkpt>
      <trkpt lat="42.91831" lon="0.14699">
        <ele>2388</ele>
        <time>2020-07-29T09:07:57.014Z</time>
      </trkpt>
      <trkpt lat="42.9183" lon="0.14699">
        <ele>2388</ele>
        <time>2020-07-29T09:07:58.014Z</time>
      </trkpt>
      <trkpt lat="42.9183" lon="0.14698">
        <ele>2388</ele>
        <time>2020-07-29T09:07:59.014Z</time>
      </trkpt>
      <trkpt lat="42.9183" lon="0.14698">
        <ele>2388</ele>
        <time>2020-07-29T09:08:00.014Z</time>
      </trkpt>
      <trkpt lat="42.91829" lon="0.14698">
        <ele>2389</ele>
        <time>2020-07-29T09:08:01.081Z</time>
      </trkpt>
      <trkpt lat="42.91829" lon="0.14698">
        <ele>2388</ele>
        <time>2020-07-29T09:08:02.081Z</time>
      </trkpt>
      <trkpt lat="42.91829" lon="0.14698">
        <ele>2388</ele>
        <time>2020-07-29T09:08:03.081Z</time>
      </trkpt>
      <trkpt lat="42.91829" lon="0.14698">
        <ele>2388</ele>
        <time>2020-07-29T09:08:04.081Z</time>
      </trkpt>
      <trkpt lat="42.9183" lon="0.14698">
        <ele>2388</ele>
        <time>2020-07-29T09:08:05.081Z</time>
      </trkpt>
      <trkpt lat="42.9183" lon="0.14698">
        <ele>2388</ele>
        <time>2020-07-29T09:08:06.081Z</time>
      </trkpt>
      <trkpt lat="42.9183" lon="0.14698">
        <ele>2389</ele>
        <time>2020-07-29T09:08:07.081Z</time>
      </trkpt>
      <trkpt lat="42.9183" lon="0.14699">
        <ele>2388</ele>
        <time>2020-07-29T09:08:08.081Z</time>
      </trkpt>
      <trkpt lat="42.9183" lon="0.14699">
        <ele>2388</ele>
        <time>2020-07-29T09:08:09.081Z</time>
      </trkpt>
      <trkpt lat="42.9183" lon="0.147">
        <ele>2388</ele>
        <time>2020-07-29T09:08:10.081Z</time>
      </trkpt>
      <trkpt lat="42.9183" lon="0.14701">
        <ele>2388</ele>
        <time>2020-07-29T09:08:11.081Z</time>
      </trkpt>
      <trkpt lat="42.91831" lon="0.14702">
        <ele>2388</ele>
        <time>2020-07-29T09:08:12.081Z</time>
      </trkpt>
      <trkpt lat="42.91831" lon="0.14704">
        <ele>2388</ele>
        <time>2020-07-29T09:08:13.081Z</time>
      </trkpt>
      <trkpt lat="42.91831" lon="0.14706">
        <ele>2388</ele>
        <time>2020-07-29T09:08:14.081Z</time>
      </trkpt>
      <trkpt lat="42.91831" lon="0.14707">
        <ele>2387</ele>
        <time>2020-07-29T09:08:15.081Z</time>
      </trkpt>
      <trkpt lat="42.91831" lon="0.14709">
        <ele>2387</ele>
        <time>2020-07-29T09:08:16.081Z</time>
      </trkpt>
      <trkpt lat="42.91831" lon="0.1471">
        <ele>2387</ele>
        <time>2020-07-29T09:08:17.081Z</time>
      </trkpt>
      <trkpt lat="42.91831" lon="0.14711">
        <ele>2387</ele>
        <time>2020-07-29T09:08:18.081Z</time>
      </trkpt>
      <trkpt lat="42.91831" lon="0.14713">
        <ele>2386</ele>
        <time>2020-07-29T09:08:19.081Z</time>
      </trkpt>
      <trkpt lat="42.91831" lon="0.14714">
        <ele>2386</ele>
        <time>2020-07-29T09:08:20.081Z</time>
      </trkpt>
      <trkpt lat="42.91831" lon="0.14715">
        <ele>2386</ele>
        <time>2020-07-29T09:08:21.081Z</time>
      </trkpt>
      <trkpt lat="42.9183" lon="0.14715">
        <ele>2386</ele>
        <time>2020-07-29T09:08:22.081Z</time>
      </trkpt>
      <trkpt lat="42.9183" lon="0.14716">
        <ele>2386</ele>
        <time>2020-07-29T09:08:23.081Z</time>
      </trkpt>
      <trkpt lat="42.9183" lon="0.14716">
        <ele>2386</ele>
        <time>2020-07-29T09:08:24.081Z</time>
      </trkpt>
      <trkpt lat="42.9183" lon="0.14716">
        <ele>2386</ele>
        <time>2020-07-29T09:08:25.081Z</time>
      </trkpt>
      <trkpt lat="42.9183" lon="0.14716">
        <ele>2385</ele>
        <time>2020-07-29T09:08:26.081Z</time>
      </trkpt>
      <trkpt lat="42.9183" lon="0.14716">
        <ele>2385</ele>
        <time>2020-07-29T09:08:27.081Z</time>
      </trkpt>
      <trkpt lat="42.9183" lon="0.14716">
        <ele>2385</ele>
        <time>2020-07-29T09:08:28.081Z</time>
      </trkpt>
      <trkpt lat="42.9183" lon="0.14716">
        <ele>2385</ele>
        <time>2020-07-29T09:08:29.081Z</time>
      </trkpt>
      <trkpt lat="42.9183" lon="0.14716">
        <ele>2385</ele>
        <time>2020-07-29T09:08:30.081Z</time>
      </trkpt>
      <trkpt lat="42.9183" lon="0.14716">
        <ele>2386</ele>
        <time>2020-07-29T09:08:31.081Z</time>
      </trkpt>
      <trkpt lat="42.9183" lon="0.14716">
        <ele>2385</ele>
        <time>2020-07-29T09:08:32.081Z</time>
      </trkpt>
      <trkpt lat="42.9183" lon="0.14717">
        <ele>2385</ele>
        <time>2020-07-29T09:08:33.081Z</time>
      </trkpt>
      <trkpt lat="42.9183" lon="0.14717">
        <ele>2385</ele>
        <time>2020-07-29T09:08:34.081Z</time>
      </trkpt>
      <trkpt lat="42.9183" lon="0.14718">
        <ele>2384</ele>
        <time>2020-07-29T09:08:35.081Z</time>
      </trkpt>
      <trkpt lat="42.9183" lon="0.14718">
        <ele>2384</ele>
        <time>2020-07-29T09:08:36.081Z</time>
      </trkpt>
      <trkpt lat="42.9183" lon="0.14719">
        <ele>2384</ele>
        <time>2020-07-29T09:08:37.081Z</time>
      </trkpt>
      <trkpt lat="42.91829" lon="0.1472">
        <ele>2383</ele>
        <time>2020-07-29T09:08:38.081Z</time>
      </trkpt>
      <trkpt lat="42.91828" lon="0.1472">
        <ele>2383</ele>
        <time>2020-07-29T09:08:39.081Z</time>
      </trkpt>
      <trkpt lat="42.91827" lon="0.14721">
        <ele>2383</ele>
        <time>2020-07-29T09:08:40.081Z</time>
      </trkpt>
      <trkpt lat="42.91826" lon="0.14722">
        <ele>2383</ele>
        <time>2020-07-29T09:08:41.081Z</time>
      </trkpt>
      <trkpt lat="42.91826" lon="0.14722">
        <ele>2382</ele>
        <time>2020-07-29T09:08:42.081Z</time>
      </trkpt>
      <trkpt lat="42.91825" lon="0.14723">
        <ele>2382</ele>
        <time>2020-07-29T09:08:43.081Z</time>
      </trkpt>
      <trkpt lat="42.91824" lon="0.14723">
        <ele>2382</ele>
        <time>2020-07-29T09:08:44.081Z</time>
      </trkpt>
      <trkpt lat="42.91823" lon="0.14723">
        <ele>2382</ele>
        <time>2020-07-29T09:08:45.081Z</time>
      </trkpt>
      <trkpt lat="42.91822" lon="0.14724">
        <ele>2382</ele>
        <time>2020-07-29T09:08:46.081Z</time>
      </trkpt>
      <trkpt lat="42.91822" lon="0.14724">
        <ele>2381</ele>
        <time>2020-07-29T09:08:47.081Z</time>
      </trkpt>
      <trkpt lat="42.91821" lon="0.14724">
        <ele>2381</ele>
        <time>2020-07-29T09:08:48.081Z</time>
      </trkpt>
      <trkpt lat="42.91821" lon="0.14724">
        <ele>2382</ele>
        <time>2020-07-29T09:08:49.081Z</time>
      </trkpt>
      <trkpt lat="42.91821" lon="0.14724">
        <ele>2381</ele>
        <time>2020-07-29T09:08:50.081Z</time>
      </trkpt>
      <trkpt lat="42.9182" lon="0.14725">
        <ele>2381</ele>
        <time>2020-07-29T09:08:51.081Z</time>
      </trkpt>
      <trkpt lat="42.9182" lon="0.14725">
        <ele>2381</ele>
        <time>2020-07-29T09:08:52.081Z</time>
      </trkpt>
      <trkpt lat="42.9182" lon="0.14725">
        <ele>2381</ele>
        <time>2020-07-29T09:08:53.081Z</time>
      </trkpt>
      <trkpt lat="42.91819" lon="0.14725">
        <ele>2380</ele>
        <time>2020-07-29T09:08:54.081Z</time>
      </trkpt>
      <trkpt lat="42.91819" lon="0.14725">
        <ele>2380</ele>
        <time>2020-07-29T09:08:55.081Z</time>
      </trkpt>
      <trkpt lat="42.91819" lon="0.14726">
        <ele>2379</ele>
        <time>2020-07-29T09:08:56.081Z</time>
      </trkpt>
      <trkpt lat="42.91818" lon="0.14727">
        <ele>2379</ele>
        <time>2020-07-29T09:08:57.081Z</time>
      </trkpt>
      <trkpt lat="42.91818" lon="0.14727">
        <ele>2379</ele>
        <time>2020-07-29T09:08:58.081Z</time>
      </trkpt>
      <trkpt lat="42.91817" lon="0.14728">
        <ele>2379</ele>
        <time>2020-07-29T09:08:59.081Z</time>
      </trkpt>
      <trkpt lat="42.91816" lon="0.14728">
        <ele>2379</ele>
        <time>2020-07-29T09:09:00.081Z</time>
      </trkpt>
      <trkpt lat="42.91816" lon="0.14727">
        <ele>2378</ele>
        <time>2020-07-29T09:09:01.081Z</time>
      </trkpt>
      <trkpt lat="42.91815" lon="0.14727">
        <ele>2378</ele>
        <time>2020-07-29T09:09:02.081Z</time>
      </trkpt>
      <trkpt lat="42.91814" lon="0.14727">
        <ele>2378</ele>
        <time>2020-07-29T09:09:03.081Z</time>
      </trkpt>
      <trkpt lat="42.91813" lon="0.14726">
        <ele>2378</ele>
        <time>2020-07-29T09:09:04.081Z</time>
      </trkpt>
      <trkpt lat="42.91813" lon="0.14726">
        <ele>2378</ele>
        <time>2020-07-29T09:09:05.081Z</time>
      </trkpt>
      <trkpt lat="42.91812" lon="0.14725">
        <ele>2378</ele>
        <time>2020-07-29T09:09:06.081Z</time>
      </trkpt>
      <trkpt lat="42.91811" lon="0.14725">
        <ele>2377</ele>
        <time>2020-07-29T09:09:07.081Z</time>
      </trkpt>
      <trkpt lat="42.9181" lon="0.14725">
        <ele>2378</ele>
        <time>2020-07-29T09:09:08.081Z</time>
      </trkpt>
      <trkpt lat="42.91808" lon="0.14725">
        <ele>2378</ele>
        <time>2020-07-29T09:09:09.081Z</time>
      </trkpt>
      <trkpt lat="42.91806" lon="0.14726">
        <ele>2379</ele>
        <time>2020-07-29T09:09:10.081Z</time>
      </trkpt>
      <trkpt lat="42.91805" lon="0.14726">
        <ele>2379</ele>
        <time>2020-07-29T09:09:11.081Z</time>
      </trkpt>
      <trkpt lat="42.91804" lon="0.14727">
        <ele>2378</ele>
        <time>2020-07-29T09:09:12.081Z</time>
      </trkpt>
      <trkpt lat="42.91803" lon="0.14728">
        <ele>2378</ele>
        <time>2020-07-29T09:09:13.081Z</time>
      </trkpt>
      <trkpt lat="42.91803" lon="0.14729">
        <ele>2378</ele>
        <time>2020-07-29T09:09:14.081Z</time>
      </trkpt>
      <trkpt lat="42.91802" lon="0.14729">
        <ele>2379</ele>
        <time>2020-07-29T09:09:15.081Z</time>
      </trkpt>
      <trkpt lat="42.91802" lon="0.1473">
        <ele>2379</ele>
        <time>2020-07-29T09:09:16.081Z</time>
      </trkpt>
      <trkpt lat="42.91802" lon="0.1473">
        <ele>2379</ele>
        <time>2020-07-29T09:09:17.081Z</time>
      </trkpt>
      <trkpt lat="42.91802" lon="0.1473">
        <ele>2379</ele>
        <time>2020-07-29T09:09:18.081Z</time>
      </trkpt>
      <trkpt lat="42.91801" lon="0.14731">
        <ele>2378</ele>
        <time>2020-07-29T09:09:19.081Z</time>
      </trkpt>
      <trkpt lat="42.91801" lon="0.14731">
        <ele>2378</ele>
        <time>2020-07-29T09:09:20.081Z</time>
      </trkpt>
      <trkpt lat="42.918" lon="0.14732">
        <ele>2378</ele>
        <time>2020-07-29T09:09:21.081Z</time>
      </trkpt>
      <trkpt lat="42.91799" lon="0.14732">
        <ele>2378</ele>
        <time>2020-07-29T09:09:22.081Z</time>
      </trkpt>
      <trkpt lat="42.91799" lon="0.14732">
        <ele>2378</ele>
        <time>2020-07-29T09:09:23.081Z</time>
      </trkpt>
      <trkpt lat="42.91799" lon="0.14732">
        <ele>2377</ele>
        <time>2020-07-29T09:09:24.081Z</time>
      </trkpt>
      <trkpt lat="42.91798" lon="0.14733">
        <ele>2377</ele>
        <time>2020-07-29T09:09:25.081Z</time>
      </trkpt>
      <trkpt lat="42.91798" lon="0.14733">
        <ele>2377</ele>
        <time>2020-07-29T09:09:26.081Z</time>
      </trkpt>
      <trkpt lat="42.91798" lon="0.14734">
        <ele>2377</ele>
        <time>2020-07-29T09:09:27.081Z</time>
      </trkpt>
      <trkpt lat="42.91797" lon="0.14734">
        <ele>2377</ele>
        <time>2020-07-29T09:09:28.081Z</time>
      </trkpt>
      <trkpt lat="42.91797" lon="0.14735">
        <ele>2376</ele>
        <time>2020-07-29T09:09:29.081Z</time>
      </trkpt>
      <trkpt lat="42.91796" lon="0.14735">
        <ele>2376</ele>
        <time>2020-07-29T09:09:30.081Z</time>
      </trkpt>
      <trkpt lat="42.91796" lon="0.14736">
        <ele>2376</ele>
        <time>2020-07-29T09:09:31.081Z</time>
      </trkpt>
      <trkpt lat="42.91795" lon="0.14736">
        <ele>2376</ele>
        <time>2020-07-29T09:09:32.081Z</time>
      </trkpt>
      <trkpt lat="42.91795" lon="0.14737">
        <ele>2375</ele>
        <time>2020-07-29T09:09:33.081Z</time>
      </trkpt>
      <trkpt lat="42.91795" lon="0.14738">
        <ele>2375</ele>
        <time>2020-07-29T09:09:34.081Z</time>
      </trkpt>
      <trkpt lat="42.91794" lon="0.14738">
        <ele>2375</ele>
        <time>2020-07-29T09:09:35.081Z</time>
      </trkpt>
      <trkpt lat="42.91794" lon="0.14738">
        <ele>2374</ele>
        <time>2020-07-29T09:09:36.081Z</time>
      </trkpt>
      <trkpt lat="42.91793" lon="0.14738">
        <ele>2373</ele>
        <time>2020-07-29T09:09:37.081Z</time>
      </trkpt>
      <trkpt lat="42.91792" lon="0.14739">
        <ele>2373</ele>
        <time>2020-07-29T09:09:38.081Z</time>
      </trkpt>
      <trkpt lat="42.91791" lon="0.14739">
        <ele>2372</ele>
        <time>2020-07-29T09:09:39.081Z</time>
      </trkpt>
      <trkpt lat="42.9179" lon="0.14739">
        <ele>2372</ele>
        <time>2020-07-29T09:09:40.081Z</time>
      </trkpt>
      <trkpt lat="42.91789" lon="0.14739">
        <ele>2372</ele>
        <time>2020-07-29T09:09:41.081Z</time>
      </trkpt>
      <trkpt lat="42.91788" lon="0.1474">
        <ele>2370</ele>
        <time>2020-07-29T09:09:42.081Z</time>
      </trkpt>
      <trkpt lat="42.91787" lon="0.1474">
        <ele>2370</ele>
        <time>2020-07-29T09:09:43.081Z</time>
      </trkpt>
      <trkpt lat="42.91786" lon="0.14741">
        <ele>2368</ele>
        <time>2020-07-29T09:09:44.081Z</time>
      </trkpt>
      <trkpt lat="42.91786" lon="0.14743">
        <ele>2368</ele>
        <time>2020-07-29T09:09:45.081Z</time>
      </trkpt>
      <trkpt lat="42.91785" lon="0.14744">
        <ele>2367</ele>
        <time>2020-07-29T09:09:46.081Z</time>
      </trkpt>
      <trkpt lat="42.91785" lon="0.14745">
        <ele>2367</ele>
        <time>2020-07-29T09:09:47.081Z</time>
      </trkpt>
      <trkpt lat="42.91785" lon="0.14746">
        <ele>2366</ele>
        <time>2020-07-29T09:09:48.081Z</time>
      </trkpt>
      <trkpt lat="42.91785" lon="0.14747">
        <ele>2366</ele>
        <time>2020-07-29T09:09:49.081Z</time>
      </trkpt>
      <trkpt lat="42.91784" lon="0.14748">
        <ele>2365</ele>
        <time>2020-07-29T09:09:50.081Z</time>
      </trkpt>
      <trkpt lat="42.91784" lon="0.14749">
        <ele>2365</ele>
        <time>2020-07-29T09:09:51.081Z</time>
      </trkpt>
      <trkpt lat="42.91783" lon="0.1475">
        <ele>2365</ele>
        <time>2020-07-29T09:09:52.081Z</time>
      </trkpt>
      <trkpt lat="42.91781" lon="0.14751">
        <ele>2366</ele>
        <time>2020-07-29T09:09:53.081Z</time>
      </trkpt>
      <trkpt lat="42.9178" lon="0.14751">
        <ele>2365</ele>
        <time>2020-07-29T09:09:54.081Z</time>
      </trkpt>
      <trkpt lat="42.91778" lon="0.1475">
        <ele>2364</ele>
        <time>2020-07-29T09:09:55.081Z</time>
      </trkpt>
      <trkpt lat="42.91776" lon="0.1475">
        <ele>2364</ele>
        <time>2020-07-29T09:09:56.081Z</time>
      </trkpt>
      <trkpt lat="42.91775" lon="0.1475">
        <ele>2363</ele>
        <time>2020-07-29T09:09:57.081Z</time>
      </trkpt>
      <trkpt lat="42.91773" lon="0.14751">
        <ele>2362</ele>
        <time>2020-07-29T09:09:58.081Z</time>
      </trkpt>
      <trkpt lat="42.91771" lon="0.14752">
        <ele>2361</ele>
        <time>2020-07-29T09:09:59.081Z</time>
      </trkpt>
      <trkpt lat="42.9177" lon="0.14753">
        <ele>2360</ele>
        <time>2020-07-29T09:10:00.081Z</time>
      </trkpt>
      <trkpt lat="42.91768" lon="0.14754">
        <ele>2359</ele>
        <time>2020-07-29T09:10:01.081Z</time>
      </trkpt>
      <trkpt lat="42.91767" lon="0.14755">
        <ele>2360</ele>
        <time>2020-07-29T09:10:02.081Z</time>
      </trkpt>
      <trkpt lat="42.91766" lon="0.14757">
        <ele>2359</ele>
        <time>2020-07-29T09:10:03.081Z</time>
      </trkpt>
      <trkpt lat="42.91764" lon="0.14758">
        <ele>2359</ele>
        <time>2020-07-29T09:10:04.081Z</time>
      </trkpt>
      <trkpt lat="42.91762" lon="0.14759">
        <ele>2359</ele>
        <time>2020-07-29T09:10:05.081Z</time>
      </trkpt>
      <trkpt lat="42.9176" lon="0.1476">
        <ele>2358</ele>
        <time>2020-07-29T09:10:06.081Z</time>
      </trkpt>
      <trkpt lat="42.91757" lon="0.1476">
        <ele>2357</ele>
        <time>2020-07-29T09:10:07.081Z</time>
      </trkpt>
      <trkpt lat="42.91755" lon="0.1476">
        <ele>2356</ele>
        <time>2020-07-29T09:10:08.081Z</time>
      </trkpt>
      <trkpt lat="42.91752" lon="0.14759">
        <ele>2355</ele>
        <time>2020-07-29T09:10:09.081Z</time>
      </trkpt>
      <trkpt lat="42.91749" lon="0.14758">
        <ele>2355</ele>
        <time>2020-07-29T09:10:10.081Z</time>
      </trkpt>
      <trkpt lat="42.91746" lon="0.14757">
        <ele>2355</ele>
        <time>2020-07-29T09:10:11.081Z</time>
      </trkpt>
      <trkpt lat="42.91743" lon="0.14756">
        <ele>2355</ele>
        <time>2020-07-29T09:10:12.081Z</time>
      </trkpt>
      <trkpt lat="42.9174" lon="0.14754">
        <ele>2355</ele>
        <time>2020-07-29T09:10:13.081Z</time>
      </trkpt>
      <trkpt lat="42.91737" lon="0.14753">
        <ele>2354</ele>
        <time>2020-07-29T09:10:14.081Z</time>
      </trkpt>
      <trkpt lat="42.91734" lon="0.14752">
        <ele>2354</ele>
        <time>2020-07-29T09:10:15.081Z</time>
      </trkpt>
      <trkpt lat="42.91731" lon="0.14752">
        <ele>2354</ele>
        <time>2020-07-29T09:10:16.081Z</time>
      </trkpt>
      <trkpt lat="42.91728" lon="0.14752">
        <ele>2353</ele>
        <time>2020-07-29T09:10:17.081Z</time>
      </trkpt>
      <trkpt lat="42.91725" lon="0.14752">
        <ele>2353</ele>
        <time>2020-07-29T09:10:18.081Z</time>
      </trkpt>
      <trkpt lat="42.91722" lon="0.14752">
        <ele>2353</ele>
        <time>2020-07-29T09:10:19.081Z</time>
      </trkpt>
      <trkpt lat="42.9172" lon="0.14753">
        <ele>2353</ele>
        <time>2020-07-29T09:10:20.081Z</time>
      </trkpt>
      <trkpt lat="42.91717" lon="0.14754">
        <ele>2352</ele>
        <time>2020-07-29T09:10:21.081Z</time>
      </trkpt>
      <trkpt lat="42.91714" lon="0.14755">
        <ele>2351</ele>
        <time>2020-07-29T09:10:22.081Z</time>
      </trkpt>
      <trkpt lat="42.91712" lon="0.14757">
        <ele>2352</ele>
        <time>2020-07-29T09:10:23.081Z</time>
      </trkpt>
      <trkpt lat="42.91709" lon="0.14758">
        <ele>2352</ele>
        <time>2020-07-29T09:10:24.081Z</time>
      </trkpt>
      <trkpt lat="42.91706" lon="0.1476">
        <ele>2352</ele>
        <time>2020-07-29T09:10:25.081Z</time>
      </trkpt>
      <trkpt lat="42.91703" lon="0.14761">
        <ele>2353</ele>
        <time>2020-07-29T09:10:26.081Z</time>
      </trkpt>
      <trkpt lat="42.91701" lon="0.14763">
        <ele>2353</ele>
        <time>2020-07-29T09:10:27.081Z</time>
      </trkpt>
      <trkpt lat="42.91698" lon="0.14765">
        <ele>2352</ele>
        <time>2020-07-29T09:10:28.081Z</time>
      </trkpt>
      <trkpt lat="42.91695" lon="0.14767">
        <ele>2352</ele>
        <time>2020-07-29T09:10:29.081Z</time>
      </trkpt>
      <trkpt lat="42.91692" lon="0.14768">
        <ele>2352</ele>
        <time>2020-07-29T09:10:30.081Z</time>
      </trkpt>
      <trkpt lat="42.9169" lon="0.1477">
        <ele>2352</ele>
        <time>2020-07-29T09:10:31.081Z</time>
      </trkpt>
      <trkpt lat="42.91687" lon="0.14771">
        <ele>2353</ele>
        <time>2020-07-29T09:10:32.081Z</time>
      </trkpt>
      <trkpt lat="42.91684" lon="0.14773">
        <ele>2353</ele>
        <time>2020-07-29T09:10:33.081Z</time>
      </trkpt>
      <trkpt lat="42.91681" lon="0.14775">
        <ele>2353</ele>
        <time>2020-07-29T09:10:34.081Z</time>
      </trkpt>
      <trkpt lat="42.91678" lon="0.14777">
        <ele>2352</ele>
        <time>2020-07-29T09:10:35.081Z</time>
      </trkpt>
      <trkpt lat="42.91675" lon="0.14779">
        <ele>2351</ele>
        <time>2020-07-29T09:10:36.081Z</time>
      </trkpt>
      <trkpt lat="42.91672" lon="0.14781">
        <ele>2350</ele>
        <time>2020-07-29T09:10:37.081Z</time>
      </trkpt>
      <trkpt lat="42.9167" lon="0.14783">
        <ele>2350</ele>
        <time>2020-07-29T09:10:38.081Z</time>
      </trkpt>
      <trkpt lat="42.91667" lon="0.14785">
        <ele>2348</ele>
        <time>2020-07-29T09:10:39.081Z</time>
      </trkpt>
      <trkpt lat="42.91664" lon="0.14787">
        <ele>2348</ele>
        <time>2020-07-29T09:10:40.081Z</time>
      </trkpt>
      <trkpt lat="42.91662" lon="0.14789">
        <ele>2348</ele>
        <time>2020-07-29T09:10:41.081Z</time>
      </trkpt>
      <trkpt lat="42.9166" lon="0.14791">
        <ele>2347</ele>
        <time>2020-07-29T09:10:42.081Z</time>
      </trkpt>
      <trkpt lat="42.91657" lon="0.14793">
        <ele>2347</ele>
        <time>2020-07-29T09:10:43.081Z</time>
      </trkpt>
      <trkpt lat="42.91655" lon="0.14796">
        <ele>2346</ele>
        <time>2020-07-29T09:10:44.081Z</time>
      </trkpt>
      <trkpt lat="42.91652" lon="0.14799">
        <ele>2347</ele>
        <time>2020-07-29T09:10:45.081Z</time>
      </trkpt>
      <trkpt lat="42.9165" lon="0.14802">
        <ele>2347</ele>
        <time>2020-07-29T09:10:46.081Z</time>
      </trkpt>
      <trkpt lat="42.91648" lon="0.14805">
        <ele>2347</ele>
        <time>2020-07-29T09:10:47.081Z</time>
      </trkpt>
      <trkpt lat="42.91645" lon="0.14808">
        <ele>2347</ele>
        <time>2020-07-29T09:10:48.081Z</time>
      </trkpt>
      <trkpt lat="42.91642" lon="0.14811">
        <ele>2346</ele>
        <time>2020-07-29T09:10:49.081Z</time>
      </trkpt>
      <trkpt lat="42.9164" lon="0.14814">
        <ele>2346</ele>
        <time>2020-07-29T09:10:50.081Z</time>
      </trkpt>
      <trkpt lat="42.91638" lon="0.14817">
        <ele>2346</ele>
        <time>2020-07-29T09:10:51.081Z</time>
      </trkpt>
      <trkpt lat="42.91637" lon="0.14819">
        <ele>2346</ele>
        <time>2020-07-29T09:10:52.081Z</time>
      </trkpt>
      <trkpt lat="42.91635" lon="0.14822">
        <ele>2345</ele>
        <time>2020-07-29T09:10:53.081Z</time>
      </trkpt>
      <trkpt lat="42.91634" lon="0.14824">
        <ele>2345</ele>
        <time>2020-07-29T09:10:54.081Z</time>
      </trkpt>
      <trkpt lat="42.91633" lon="0.14825">
        <ele>2346</ele>
        <time>2020-07-29T09:10:55.081Z</time>
      </trkpt>
      <trkpt lat="42.91633" lon="0.14827">
        <ele>2349</ele>
        <time>2020-07-29T09:10:56.081Z</time>
      </trkpt>
      <trkpt lat="42.91632" lon="0.14828">
        <ele>2349</ele>
        <time>2020-07-29T09:10:57.081Z</time>
      </trkpt>
      <trkpt lat="42.91631" lon="0.1483">
        <ele>2349</ele>
        <time>2020-07-29T09:10:58.081Z</time>
      </trkpt>
      <trkpt lat="42.9163" lon="0.14831">
        <ele>2349</ele>
        <time>2020-07-29T09:10:59.081Z</time>
      </trkpt>
      <trkpt lat="42.91629" lon="0.14832">
        <ele>2350</ele>
        <time>2020-07-29T09:11:00.081Z</time>
      </trkpt>
      <trkpt lat="42.91628" lon="0.14834">
        <ele>2350</ele>
        <time>2020-07-29T09:11:01.081Z</time>
      </trkpt>
      <trkpt lat="42.91627" lon="0.14836">
        <ele>2349</ele>
        <time>2020-07-29T09:11:02.081Z</time>
      </trkpt>
      <trkpt lat="42.91625" lon="0.14837">
        <ele>2349</ele>
        <time>2020-07-29T09:11:03.081Z</time>
      </trkpt>
      <trkpt lat="42.91623" lon="0.14839">
        <ele>2349</ele>
        <time>2020-07-29T09:11:04.081Z</time>
      </trkpt>
      <trkpt lat="42.9162" lon="0.14841">
        <ele>2348</ele>
        <time>2020-07-29T09:11:05.081Z</time>
      </trkpt>
      <trkpt lat="42.91618" lon="0.14843">
        <ele>2348</ele>
        <time>2020-07-29T09:11:06.081Z</time>
      </trkpt>
      <trkpt lat="42.91615" lon="0.14845">
        <ele>2348</ele>
        <time>2020-07-29T09:11:07.081Z</time>
      </trkpt>
      <trkpt lat="42.91613" lon="0.14847">
        <ele>2348</ele>
        <time>2020-07-29T09:11:08.081Z</time>
      </trkpt>
      <trkpt lat="42.91611" lon="0.14849">
        <ele>2349</ele>
        <time>2020-07-29T09:11:09.081Z</time>
      </trkpt>
      <trkpt lat="42.9161" lon="0.14851">
        <ele>2349</ele>
        <time>2020-07-29T09:11:10.081Z</time>
      </trkpt>
      <trkpt lat="42.91608" lon="0.14852">
        <ele>2349</ele>
        <time>2020-07-29T09:11:11.081Z</time>
      </trkpt>
      <trkpt lat="42.91608" lon="0.14852">
        <ele>2347</ele>
        <time>2020-07-29T09:11:12.081Z</time>
      </trkpt>
      <trkpt lat="42.91607" lon="0.14852">
        <ele>2347</ele>
        <time>2020-07-29T09:11:13.081Z</time>
      </trkpt>
      <trkpt lat="42.91607" lon="0.14852">
        <ele>2348</ele>
        <time>2020-07-29T09:11:14.081Z</time>
      </trkpt>
      <trkpt lat="42.91607" lon="0.14852">
        <ele>2349</ele>
        <time>2020-07-29T09:11:15.081Z</time>
      </trkpt>
      <trkpt lat="42.91607" lon="0.14851">
        <ele>2349</ele>
        <time>2020-07-29T09:11:16.081Z</time>
      </trkpt>
      <trkpt lat="42.91607" lon="0.14851">
        <ele>2349</ele>
        <time>2020-07-29T09:11:17.081Z</time>
      </trkpt>
      <trkpt lat="42.91607" lon="0.14852">
        <ele>2349</ele>
        <time>2020-07-29T09:11:18.081Z</time>
      </trkpt>
      <trkpt lat="42.91607" lon="0.14852">
        <ele>2349</ele>
        <time>2020-07-29T09:11:19.081Z</time>
      </trkpt>
      <trkpt lat="42.91607" lon="0.14852">
        <ele>2349</ele>
        <time>2020-07-29T09:11:20.081Z</time>
      </trkpt>
      <trkpt lat="42.91607" lon="0.14853">
        <ele>2348</ele>
        <time>2020-07-29T09:11:21.081Z</time>
      </trkpt>
      <trkpt lat="42.91607" lon="0.14853">
        <ele>2348</ele>
        <time>2020-07-29T09:11:22.081Z</time>
      </trkpt>
      <trkpt lat="42.91607" lon="0.14853">
        <ele>2348</ele>
        <time>2020-07-29T09:11:23.081Z</time>
      </trkpt>
      <trkpt lat="42.91606" lon="0.14853">
        <ele>2348</ele>
        <time>2020-07-29T09:11:24.081Z</time>
      </trkpt>
      <trkpt lat="42.91606" lon="0.14854">
        <ele>2347</ele>
        <time>2020-07-29T09:11:25.081Z</time>
      </trkpt>
      <trkpt lat="42.91605" lon="0.14854">
        <ele>2347</ele>
        <time>2020-07-29T09:11:26.081Z</time>
      </trkpt>
      <trkpt lat="42.91605" lon="0.14854">
        <ele>2348</ele>
        <time>2020-07-29T09:11:27.081Z</time>
      </trkpt>
      <trkpt lat="42.91604" lon="0.14855">
        <ele>2347</ele>
        <time>2020-07-29T09:11:28.081Z</time>
      </trkpt>
      <trkpt lat="42.91604" lon="0.14856">
        <ele>2347</ele>
        <time>2020-07-29T09:11:29.081Z</time>
      </trkpt>
      <trkpt lat="42.91603" lon="0.14857">
        <ele>2347</ele>
        <time>2020-07-29T09:11:30.081Z</time>
      </trkpt>
      <trkpt lat="42.91602" lon="0.14858">
        <ele>2347</ele>
        <time>2020-07-29T09:11:31.081Z</time>
      </trkpt>
      <trkpt lat="42.91601" lon="0.14859">
        <ele>2347</ele>
        <time>2020-07-29T09:11:32.081Z</time>
      </trkpt>
      <trkpt lat="42.916" lon="0.1486">
        <ele>2347</ele>
        <time>2020-07-29T09:11:33.081Z</time>
      </trkpt>
      <trkpt lat="42.91599" lon="0.14861">
        <ele>2347</ele>
        <time>2020-07-29T09:11:34.081Z</time>
      </trkpt>
      <trkpt lat="42.91598" lon="0.14862">
        <ele>2347</ele>
        <time>2020-07-29T09:11:35.081Z</time>
      </trkpt>
      <trkpt lat="42.91597" lon="0.14865">
        <ele>2347</ele>
        <time>2020-07-29T09:11:36.081Z</time>
      </trkpt>
      <trkpt lat="42.91596" lon="0.14868">
        <ele>2347</ele>
        <time>2020-07-29T09:11:37.081Z</time>
      </trkpt>
      <trkpt lat="42.91595" lon="0.14871">
        <ele>2347</ele>
        <time>2020-07-29T09:11:38.081Z</time>
      </trkpt>
      <trkpt lat="42.91593" lon="0.14873">
        <ele>2348</ele>
        <time>2020-07-29T09:11:39.081Z</time>
      </trkpt>
      <trkpt lat="42.91592" lon="0.14875">
        <ele>2348</ele>
        <time>2020-07-29T09:11:40.081Z</time>
      </trkpt>
      <trkpt lat="42.9159" lon="0.14877">
        <ele>2349</ele>
        <time>2020-07-29T09:11:41.081Z</time>
      </trkpt>
      <trkpt lat="42.91589" lon="0.14879">
        <ele>2349</ele>
        <time>2020-07-29T09:11:42.081Z</time>
      </trkpt>
      <trkpt lat="42.91586" lon="0.14881">
        <ele>2349</ele>
        <time>2020-07-29T09:11:43.081Z</time>
      </trkpt>
      <trkpt lat="42.91585" lon="0.14883">
        <ele>2350</ele>
        <time>2020-07-29T09:11:44.081Z</time>
      </trkpt>
      <trkpt lat="42.91583" lon="0.14885">
        <ele>2349</ele>
        <time>2020-07-29T09:11:45.081Z</time>
      </trkpt>
      <trkpt lat="42.91581" lon="0.14887">
        <ele>2349</ele>
        <time>2020-07-29T09:11:46.081Z</time>
      </trkpt>
      <trkpt lat="42.91579" lon="0.14889">
        <ele>2350</ele>
        <time>2020-07-29T09:11:47.081Z</time>
      </trkpt>
      <trkpt lat="42.91578" lon="0.1489">
        <ele>2350</ele>
        <time>2020-07-29T09:11:48.081Z</time>
      </trkpt>
      <trkpt lat="42.91577" lon="0.14892">
        <ele>2350</ele>
        <time>2020-07-29T09:11:49.081Z</time>
      </trkpt>
      <trkpt lat="42.91576" lon="0.14894">
        <ele>2349</ele>
        <time>2020-07-29T09:11:50.081Z</time>
      </trkpt>
      <trkpt lat="42.91575" lon="0.14895">
        <ele>2349</ele>
        <time>2020-07-29T09:11:51.081Z</time>
      </trkpt>
      <trkpt lat="42.91574" lon="0.14897">
        <ele>2349</ele>
        <time>2020-07-29T09:11:52.081Z</time>
      </trkpt>
      <trkpt lat="42.91573" lon="0.14899">
        <ele>2349</ele>
        <time>2020-07-29T09:11:53.081Z</time>
      </trkpt>
      <trkpt lat="42.91572" lon="0.149">
        <ele>2349</ele>
        <time>2020-07-29T09:11:54.081Z</time>
      </trkpt>
      <trkpt lat="42.91572" lon="0.14901">
        <ele>2349</ele>
        <time>2020-07-29T09:11:55.081Z</time>
      </trkpt>
      <trkpt lat="42.91571" lon="0.14902">
        <ele>2349</ele>
        <time>2020-07-29T09:11:56.081Z</time>
      </trkpt>
      <trkpt lat="42.91571" lon="0.14904">
        <ele>2349</ele>
        <time>2020-07-29T09:11:57.081Z</time>
      </trkpt>
      <trkpt lat="42.91571" lon="0.14906">
        <ele>2351</ele>
        <time>2020-07-29T09:11:58.081Z</time>
      </trkpt>
      <trkpt lat="42.91571" lon="0.14908">
        <ele>2349</ele>
        <time>2020-07-29T09:11:59.081Z</time>
      </trkpt>
      <trkpt lat="42.9157" lon="0.1491">
        <ele>2350</ele>
        <time>2020-07-29T09:12:00.081Z</time>
      </trkpt>
      <trkpt lat="42.91569" lon="0.14911">
        <ele>2351</ele>
        <time>2020-07-29T09:12:01.081Z</time>
      </trkpt>
      <trkpt lat="42.91568" lon="0.14913">
        <ele>2351</ele>
        <time>2020-07-29T09:12:02.081Z</time>
      </trkpt>
      <trkpt lat="42.91568" lon="0.14914">
        <ele>2351</ele>
        <time>2020-07-29T09:12:03.081Z</time>
      </trkpt>
      <trkpt lat="42.91566" lon="0.14916">
        <ele>2351</ele>
        <time>2020-07-29T09:12:04.081Z</time>
      </trkpt>
      <trkpt lat="42.91566" lon="0.14918">
        <ele>2351</ele>
        <time>2020-07-29T09:12:05.081Z</time>
      </trkpt>
      <trkpt lat="42.91565" lon="0.14921">
        <ele>2351</ele>
        <time>2020-07-29T09:12:06.081Z</time>
      </trkpt>
      <trkpt lat="42.91564" lon="0.14924">
        <ele>2350</ele>
        <time>2020-07-29T09:12:07.081Z</time>
      </trkpt>
      <trkpt lat="42.91562" lon="0.14927">
        <ele>2349</ele>
        <time>2020-07-29T09:12:08.081Z</time>
      </trkpt>
      <trkpt lat="42.9156" lon="0.1493">
        <ele>2349</ele>
        <time>2020-07-29T09:12:09.081Z</time>
      </trkpt>
      <trkpt lat="42.91558" lon="0.14933">
        <ele>2348</ele>
        <time>2020-07-29T09:12:10.081Z</time>
      </trkpt>
      <trkpt lat="42.91557" lon="0.14936">
        <ele>2348</ele>
        <time>2020-07-29T09:12:11.081Z</time>
      </trkpt>
      <trkpt lat="42.91555" lon="0.1494">
        <ele>2348</ele>
        <time>2020-07-29T09:12:12.081Z</time>
      </trkpt>
      <trkpt lat="42.91553" lon="0.14943">
        <ele>2347</ele>
        <time>2020-07-29T09:12:13.081Z</time>
      </trkpt>
      <trkpt lat="42.91552" lon="0.14945">
        <ele>2347</ele>
        <time>2020-07-29T09:12:14.081Z</time>
      </trkpt>
      <trkpt lat="42.9155" lon="0.14948">
        <ele>2346</ele>
        <time>2020-07-29T09:12:15.081Z</time>
      </trkpt>
      <trkpt lat="42.91549" lon="0.14951">
        <ele>2346</ele>
        <time>2020-07-29T09:12:16.081Z</time>
      </trkpt>
      <trkpt lat="42.91547" lon="0.14954">
        <ele>2346</ele>
        <time>2020-07-29T09:12:17.081Z</time>
      </trkpt>
      <trkpt lat="42.91546" lon="0.14956">
        <ele>2346</ele>
        <time>2020-07-29T09:12:18.081Z</time>
      </trkpt>
      <trkpt lat="42.91544" lon="0.14958">
        <ele>2347</ele>
        <time>2020-07-29T09:12:19.081Z</time>
      </trkpt>
      <trkpt lat="42.91543" lon="0.1496">
        <ele>2348</ele>
        <time>2020-07-29T09:12:20.081Z</time>
      </trkpt>
      <trkpt lat="42.91541" lon="0.14961">
        <ele>2349</ele>
        <time>2020-07-29T09:12:21.081Z</time>
      </trkpt>
      <trkpt lat="42.9154" lon="0.14962">
        <ele>2349</ele>
        <time>2020-07-29T09:12:22.081Z</time>
      </trkpt>
      <trkpt lat="42.9154" lon="0.14963">
        <ele>2349</ele>
        <time>2020-07-29T09:12:23.081Z</time>
      </trkpt>
      <trkpt lat="42.91539" lon="0.14964">
        <ele>2349</ele>
        <time>2020-07-29T09:12:24.081Z</time>
      </trkpt>
      <trkpt lat="42.91538" lon="0.14964">
        <ele>2350</ele>
        <time>2020-07-29T09:12:25.081Z</time>
      </trkpt>
      <trkpt lat="42.91537" lon="0.14965">
        <ele>2351</ele>
        <time>2020-07-29T09:12:26.081Z</time>
      </trkpt>
      <trkpt lat="42.91536" lon="0.14966">
        <ele>2352</ele>
        <time>2020-07-29T09:12:27.081Z</time>
      </trkpt>
      <trkpt lat="42.91535" lon="0.14967">
        <ele>2351</ele>
        <time>2020-07-29T09:12:28.081Z</time>
      </trkpt>
      <trkpt lat="42.91534" lon="0.14968">
        <ele>2351</ele>
        <time>2020-07-29T09:12:29.081Z</time>
      </trkpt>
      <trkpt lat="42.91533" lon="0.14968">
        <ele>2350</ele>
        <time>2020-07-29T09:12:30.081Z</time>
      </trkpt>
      <trkpt lat="42.91531" lon="0.14969">
        <ele>2350</ele>
        <time>2020-07-29T09:12:31.081Z</time>
      </trkpt>
      <trkpt lat="42.9153" lon="0.1497">
        <ele>2350</ele>
        <time>2020-07-29T09:12:32.081Z</time>
      </trkpt>
      <trkpt lat="42.91529" lon="0.14971">
        <ele>2351</ele>
        <time>2020-07-29T09:12:33.081Z</time>
      </trkpt>
      <trkpt lat="42.91528" lon="0.14972">
        <ele>2351</ele>
        <time>2020-07-29T09:12:34.081Z</time>
      </trkpt>
      <trkpt lat="42.91527" lon="0.14974">
        <ele>2352</ele>
        <time>2020-07-29T09:12:35.081Z</time>
      </trkpt>
      <trkpt lat="42.91527" lon="0.14976">
        <ele>2352</ele>
        <time>2020-07-29T09:12:36.081Z</time>
      </trkpt>
      <trkpt lat="42.91527" lon="0.14978">
        <ele>2351</ele>
        <time>2020-07-29T09:12:37.081Z</time>
      </trkpt>
      <trkpt lat="42.91527" lon="0.14979">
        <ele>2351</ele>
        <time>2020-07-29T09:12:38.081Z</time>
      </trkpt>
      <trkpt lat="42.91528" lon="0.14981">
        <ele>2351</ele>
        <time>2020-07-29T09:12:39.081Z</time>
      </trkpt>
      <trkpt lat="42.91528" lon="0.14982">
        <ele>2351</ele>
        <time>2020-07-29T09:12:40.081Z</time>
      </trkpt>
      <trkpt lat="42.91528" lon="0.14984">
        <ele>2353</ele>
        <time>2020-07-29T09:12:41.081Z</time>
      </trkpt>
      <trkpt lat="42.91528" lon="0.14985">
        <ele>2354</ele>
        <time>2020-07-29T09:12:42.081Z</time>
      </trkpt>
      <trkpt lat="42.91528" lon="0.14985">
        <ele>2355</ele>
        <time>2020-07-29T09:12:43.081Z</time>
      </trkpt>
      <trkpt lat="42.91528" lon="0.14986">
        <ele>2355</ele>
        <time>2020-07-29T09:12:44.081Z</time>
      </trkpt>
      <trkpt lat="42.91528" lon="0.14987">
        <ele>2356</ele>
        <time>2020-07-29T09:12:45.081Z</time>
      </trkpt>
      <trkpt lat="42.91528" lon="0.14989">
        <ele>2356</ele>
        <time>2020-07-29T09:12:46.081Z</time>
      </trkpt>
      <trkpt lat="42.91528" lon="0.1499">
        <ele>2357</ele>
        <time>2020-07-29T09:12:47.081Z</time>
      </trkpt>
      <trkpt lat="42.91528" lon="0.14991">
        <ele>2357</ele>
        <time>2020-07-29T09:12:48.081Z</time>
      </trkpt>
      <trkpt lat="42.91527" lon="0.14992">
        <ele>2358</ele>
        <time>2020-07-29T09:12:49.081Z</time>
      </trkpt>
      <trkpt lat="42.91527" lon="0.14993">
        <ele>2358</ele>
        <time>2020-07-29T09:12:50.081Z</time>
      </trkpt>
      <trkpt lat="42.91526" lon="0.14994">
        <ele>2358</ele>
        <time>2020-07-29T09:12:51.081Z</time>
      </trkpt>
      <trkpt lat="42.91526" lon="0.14995">
        <ele>2358</ele>
        <time>2020-07-29T09:12:52.081Z</time>
      </trkpt>
      <trkpt lat="42.91525" lon="0.14996">
        <ele>2358</ele>
        <time>2020-07-29T09:12:53.081Z</time>
      </trkpt>
      <trkpt lat="42.91525" lon="0.14998">
        <ele>2359</ele>
        <time>2020-07-29T09:12:54.081Z</time>
      </trkpt>
      <trkpt lat="42.91524" lon="0.14999">
        <ele>2359</ele>
        <time>2020-07-29T09:12:55.081Z</time>
      </trkpt>
      <trkpt lat="42.91524" lon="0.15">
        <ele>2359</ele>
        <time>2020-07-29T09:12:56.081Z</time>
      </trkpt>
      <trkpt lat="42.91523" lon="0.15001">
        <ele>2360</ele>
        <time>2020-07-29T09:12:57.081Z</time>
      </trkpt>
      <trkpt lat="42.91523" lon="0.15002">
        <ele>2360</ele>
        <time>2020-07-29T09:12:58.081Z</time>
      </trkpt>
      <trkpt lat="42.91522" lon="0.15003">
        <ele>2361</ele>
        <time>2020-07-29T09:12:59.081Z</time>
      </trkpt>
      <trkpt lat="42.91521" lon="0.15004">
        <ele>2362</ele>
        <time>2020-07-29T09:13:00.081Z</time>
      </trkpt>
      <trkpt lat="42.91521" lon="0.15005">
        <ele>2362</ele>
        <time>2020-07-29T09:13:01.081Z</time>
      </trkpt>
      <trkpt lat="42.91521" lon="0.15006">
        <ele>2362</ele>
        <time>2020-07-29T09:13:02.081Z</time>
      </trkpt>
      <trkpt lat="42.9152" lon="0.15007">
        <ele>2363</ele>
        <time>2020-07-29T09:13:03.081Z</time>
      </trkpt>
      <trkpt lat="42.9152" lon="0.15007">
        <ele>2363</ele>
        <time>2020-07-29T09:13:04.081Z</time>
      </trkpt>
      <trkpt lat="42.9152" lon="0.15008">
        <ele>2364</ele>
        <time>2020-07-29T09:13:05.081Z</time>
      </trkpt>
      <trkpt lat="42.9152" lon="0.15009">
        <ele>2364</ele>
        <time>2020-07-29T09:13:06.081Z</time>
      </trkpt>
      <trkpt lat="42.91519" lon="0.1501">
        <ele>2365</ele>
        <time>2020-07-29T09:13:07.081Z</time>
      </trkpt>
      <trkpt lat="42.91519" lon="0.1501">
        <ele>2366</ele>
        <time>2020-07-29T09:13:08.081Z</time>
      </trkpt>
      <trkpt lat="42.91518" lon="0.15011">
        <ele>2367</ele>
        <time>2020-07-29T09:13:09.081Z</time>
      </trkpt>
      <trkpt lat="42.91518" lon="0.15012">
        <ele>2368</ele>
        <time>2020-07-29T09:13:10.081Z</time>
      </trkpt>
      <trkpt lat="42.91518" lon="0.15012">
        <ele>2367</ele>
        <time>2020-07-29T09:13:11.081Z</time>
      </trkpt>
      <trkpt lat="42.91517" lon="0.15013">
        <ele>2367</ele>
        <time>2020-07-29T09:13:12.081Z</time>
      </trkpt>
      <trkpt lat="42.91517" lon="0.15013">
        <ele>2368</ele>
        <time>2020-07-29T09:13:13.081Z</time>
      </trkpt>
      <trkpt lat="42.91517" lon="0.15014">
        <ele>2368</ele>
        <time>2020-07-29T09:13:14.081Z</time>
      </trkpt>
      <trkpt lat="42.91516" lon="0.15015">
        <ele>2368</ele>
        <time>2020-07-29T09:13:15.081Z</time>
      </trkpt>
      <trkpt lat="42.91516" lon="0.15015">
        <ele>2369</ele>
        <time>2020-07-29T09:13:16.081Z</time>
      </trkpt>
      <trkpt lat="42.91515" lon="0.15016">
        <ele>2370</ele>
        <time>2020-07-29T09:13:17.081Z</time>
      </trkpt>
      <trkpt lat="42.91515" lon="0.15016">
        <ele>2370</ele>
        <time>2020-07-29T09:13:18.081Z</time>
      </trkpt>
      <trkpt lat="42.91515" lon="0.15017">
        <ele>2370</ele>
        <time>2020-07-29T09:13:19.081Z</time>
      </trkpt>
      <trkpt lat="42.91515" lon="0.15017">
        <ele>2371</ele>
        <time>2020-07-29T09:13:20.081Z</time>
      </trkpt>
      <trkpt lat="42.91515" lon="0.15017">
        <ele>2372</ele>
        <time>2020-07-29T09:13:21.081Z</time>
      </trkpt>
      <trkpt lat="42.91515" lon="0.15018">
        <ele>2373</ele>
        <time>2020-07-29T09:13:22.081Z</time>
      </trkpt>
      <trkpt lat="42.91515" lon="0.15019">
        <ele>2373</ele>
        <time>2020-07-29T09:13:23.081Z</time>
      </trkpt>
      <trkpt lat="42.91515" lon="0.1502">
        <ele>2373</ele>
        <time>2020-07-29T09:13:24.081Z</time>
      </trkpt>
      <trkpt lat="42.91515" lon="0.15021">
        <ele>2373</ele>
        <time>2020-07-29T09:13:25.081Z</time>
      </trkpt>
      <trkpt lat="42.91514" lon="0.15022">
        <ele>2373</ele>
        <time>2020-07-29T09:13:26.081Z</time>
      </trkpt>
      <trkpt lat="42.91513" lon="0.15022">
        <ele>2373</ele>
        <time>2020-07-29T09:13:27.081Z</time>
      </trkpt>
      <trkpt lat="42.91513" lon="0.15024">
        <ele>2373</ele>
        <time>2020-07-29T09:13:28.081Z</time>
      </trkpt>
      <trkpt lat="42.91512" lon="0.15024">
        <ele>2372</ele>
        <time>2020-07-29T09:13:29.081Z</time>
      </trkpt>
      <trkpt lat="42.91512" lon="0.15025">
        <ele>2372</ele>
        <time>2020-07-29T09:13:30.081Z</time>
      </trkpt>
      <trkpt lat="42.91512" lon="0.15026">
        <ele>2372</ele>
        <time>2020-07-29T09:13:31.081Z</time>
      </trkpt>
      <trkpt lat="42.91511" lon="0.15027">
        <ele>2373</ele>
        <time>2020-07-29T09:13:32.081Z</time>
      </trkpt>
      <trkpt lat="42.91511" lon="0.15028">
        <ele>2373</ele>
        <time>2020-07-29T09:13:33.081Z</time>
      </trkpt>
      <trkpt lat="42.9151" lon="0.15029">
        <ele>2374</ele>
        <time>2020-07-29T09:13:34.081Z</time>
      </trkpt>
      <trkpt lat="42.9151" lon="0.1503">
        <ele>2374</ele>
        <time>2020-07-29T09:13:35.081Z</time>
      </trkpt>
      <trkpt lat="42.91509" lon="0.1503">
        <ele>2374</ele>
        <time>2020-07-29T09:13:36.081Z</time>
      </trkpt>
      <trkpt lat="42.91509" lon="0.15031">
        <ele>2374</ele>
        <time>2020-07-29T09:13:37.081Z</time>
      </trkpt>
      <trkpt lat="42.91508" lon="0.15032">
        <ele>2374</ele>
        <time>2020-07-29T09:13:38.081Z</time>
      </trkpt>
      <trkpt lat="42.91508" lon="0.15033">
        <ele>2375</ele>
        <time>2020-07-29T09:13:39.081Z</time>
      </trkpt>
      <trkpt lat="42.91507" lon="0.15034">
        <ele>2375</ele>
        <time>2020-07-29T09:13:40.081Z</time>
      </trkpt>
      <trkpt lat="42.91507" lon="0.15034">
        <ele>2375</ele>
        <time>2020-07-29T09:13:41.081Z</time>
      </trkpt>
      <trkpt lat="42.91507" lon="0.15035">
        <ele>2374</ele>
        <time>2020-07-29T09:13:42.081Z</time>
      </trkpt>
      <trkpt lat="42.91507" lon="0.15035">
        <ele>2375</ele>
        <time>2020-07-29T09:13:43.081Z</time>
      </trkpt>
      <trkpt lat="42.91506" lon="0.15036">
        <ele>2375</ele>
        <time>2020-07-29T09:13:44.081Z</time>
      </trkpt>
      <trkpt lat="42.91506" lon="0.15037">
        <ele>2376</ele>
        <time>2020-07-29T09:13:45.081Z</time>
      </trkpt>
      <trkpt lat="42.91505" lon="0.15038">
        <ele>2377</ele>
        <time>2020-07-29T09:13:46.081Z</time>
      </trkpt>
      <trkpt lat="42.91505" lon="0.15038">
        <ele>2377</ele>
        <time>2020-07-29T09:13:47.081Z</time>
      </trkpt>
      <trkpt lat="42.91505" lon="0.15038">
        <ele>2377</ele>
        <time>2020-07-29T09:13:48.081Z</time>
      </trkpt>
      <trkpt lat="42.91507" lon="0.15036">
        <ele>2372</ele>
        <time>2020-07-29T09:13:49.116Z</time>
      </trkpt>
      <trkpt lat="42.91507" lon="0.15036">
        <ele>2372</ele>
        <time>2020-07-29T09:13:50.116Z</time>
      </trkpt>
      <trkpt lat="42.91507" lon="0.15036">
        <ele>2372</ele>
        <time>2020-07-29T09:13:51.116Z</time>
      </trkpt>
      <trkpt lat="42.91507" lon="0.15036">
        <ele>2371</ele>
        <time>2020-07-29T09:13:52.116Z</time>
      </trkpt>
      <trkpt lat="42.91508" lon="0.15035">
        <ele>2371</ele>
        <time>2020-07-29T09:13:53.116Z</time>
      </trkpt>
      <trkpt lat="42.91508" lon="0.15035">
        <ele>2371</ele>
        <time>2020-07-29T09:13:54.116Z</time>
      </trkpt>
      <trkpt lat="42.91509" lon="0.15034">
        <ele>2370</ele>
        <time>2020-07-29T09:13:55.116Z</time>
      </trkpt>
      <trkpt lat="42.91509" lon="0.15033">
        <ele>2370</ele>
        <time>2020-07-29T09:13:56.116Z</time>
      </trkpt>
      <trkpt lat="42.9151" lon="0.15032">
        <ele>2369</ele>
        <time>2020-07-29T09:13:57.116Z</time>
      </trkpt>
      <trkpt lat="42.9151" lon="0.15032">
        <ele>2369</ele>
        <time>2020-07-29T09:13:58.116Z</time>
      </trkpt>
      <trkpt lat="42.91511" lon="0.15031">
        <ele>2369</ele>
        <time>2020-07-29T09:13:59.116Z</time>
      </trkpt>
      <trkpt lat="42.91511" lon="0.15031">
        <ele>2368</ele>
        <time>2020-07-29T09:14:00.116Z</time>
      </trkpt>
      <trkpt lat="42.91512" lon="0.1503">
        <ele>2368</ele>
        <time>2020-07-29T09:14:01.116Z</time>
      </trkpt>
      <trkpt lat="42.91512" lon="0.15029">
        <ele>2367</ele>
        <time>2020-07-29T09:14:02.116Z</time>
      </trkpt>
      <trkpt lat="42.91513" lon="0.15029">
        <ele>2366</ele>
        <time>2020-07-29T09:14:03.116Z</time>
      </trkpt>
      <trkpt lat="42.91513" lon="0.15028">
        <ele>2366</ele>
        <time>2020-07-29T09:14:04.116Z</time>
      </trkpt>
      <trkpt lat="42.91513" lon="0.15028">
        <ele>2366</ele>
        <time>2020-07-29T09:14:05.116Z</time>
      </trkpt>
      <trkpt lat="42.91513" lon="0.15027">
        <ele>2366</ele>
        <time>2020-07-29T09:14:06.116Z</time>
      </trkpt>
      <trkpt lat="42.91514" lon="0.15026">
        <ele>2366</ele>
        <time>2020-07-29T09:14:07.116Z</time>
      </trkpt>
      <trkpt lat="42.91514" lon="0.15026">
        <ele>2366</ele>
        <time>2020-07-29T09:14:08.116Z</time>
      </trkpt>
      <trkpt lat="42.91515" lon="0.15025">
        <ele>2365</ele>
        <time>2020-07-29T09:14:09.116Z</time>
      </trkpt>
      <trkpt lat="42.91515" lon="0.15024">
        <ele>2365</ele>
        <time>2020-07-29T09:14:10.116Z</time>
      </trkpt>
      <trkpt lat="42.91515" lon="0.15023">
        <ele>2364</ele>
        <time>2020-07-29T09:14:11.116Z</time>
      </trkpt>
      <trkpt lat="42.91515" lon="0.15022">
        <ele>2364</ele>
        <time>2020-07-29T09:14:12.116Z</time>
      </trkpt>
      <trkpt lat="42.91515" lon="0.15021">
        <ele>2363</ele>
        <time>2020-07-29T09:14:13.116Z</time>
      </trkpt>
      <trkpt lat="42.91514" lon="0.1502">
        <ele>2363</ele>
        <time>2020-07-29T09:14:14.116Z</time>
      </trkpt>
      <trkpt lat="42.91514" lon="0.15019">
        <ele>2363</ele>
        <time>2020-07-29T09:14:15.116Z</time>
      </trkpt>
      <trkpt lat="42.91514" lon="0.15018">
        <ele>2362</ele>
        <time>2020-07-29T09:14:16.116Z</time>
      </trkpt>
      <trkpt lat="42.91514" lon="0.15017">
        <ele>2361</ele>
        <time>2020-07-29T09:14:17.116Z</time>
      </trkpt>
      <trkpt lat="42.91514" lon="0.15016">
        <ele>2361</ele>
        <time>2020-07-29T09:14:18.116Z</time>
      </trkpt>
      <trkpt lat="42.91514" lon="0.15016">
        <ele>2361</ele>
        <time>2020-07-29T09:14:19.116Z</time>
      </trkpt>
      <trkpt lat="42.91514" lon="0.15015">
        <ele>2361</ele>
        <time>2020-07-29T09:14:20.116Z</time>
      </trkpt>
      <trkpt lat="42.91514" lon="0.15014">
        <ele>2360</ele>
        <time>2020-07-29T09:14:21.116Z</time>
      </trkpt>
      <trkpt lat="42.91515" lon="0.15013">
        <ele>2360</ele>
        <time>2020-07-29T09:14:22.116Z</time>
      </trkpt>
      <trkpt lat="42.91515" lon="0.15013">
        <ele>2360</ele>
        <time>2020-07-29T09:14:23.116Z</time>
      </trkpt>
      <trkpt lat="42.91515" lon="0.15012">
        <ele>2360</ele>
        <time>2020-07-29T09:14:24.116Z</time>
      </trkpt>
      <trkpt lat="42.91515" lon="0.15012">
        <ele>2359</ele>
        <time>2020-07-29T09:14:25.116Z</time>
      </trkpt>
      <trkpt lat="42.91515" lon="0.15011">
        <ele>2359</ele>
        <time>2020-07-29T09:14:26.116Z</time>
      </trkpt>
      <trkpt lat="42.91515" lon="0.1501">
        <ele>2359</ele>
        <time>2020-07-29T09:14:27.116Z</time>
      </trkpt>
      <trkpt lat="42.91516" lon="0.15009">
        <ele>2359</ele>
        <time>2020-07-29T09:14:28.116Z</time>
      </trkpt>
      <trkpt lat="42.91516" lon="0.15009">
        <ele>2359</ele>
        <time>2020-07-29T09:14:29.116Z</time>
      </trkpt>
      <trkpt lat="42.91516" lon="0.15008">
        <ele>2359</ele>
        <time>2020-07-29T09:14:30.116Z</time>
      </trkpt>
      <trkpt lat="42.91516" lon="0.15007">
        <ele>2359</ele>
        <time>2020-07-29T09:14:31.116Z</time>
      </trkpt>
      <trkpt lat="42.91516" lon="0.15007">
        <ele>2358</ele>
        <time>2020-07-29T09:14:32.116Z</time>
      </trkpt>
      <trkpt lat="42.91517" lon="0.15007">
        <ele>2358</ele>
        <time>2020-07-29T09:14:33.116Z</time>
      </trkpt>
      <trkpt lat="42.91517" lon="0.15006">
        <ele>2357</ele>
        <time>2020-07-29T09:14:34.116Z</time>
      </trkpt>
      <trkpt lat="42.91518" lon="0.15005">
        <ele>2357</ele>
        <time>2020-07-29T09:14:35.116Z</time>
      </trkpt>
      <trkpt lat="42.91519" lon="0.15004">
        <ele>2357</ele>
        <time>2020-07-29T09:14:36.116Z</time>
      </trkpt>
      <trkpt lat="42.91521" lon="0.15003">
        <ele>2357</ele>
        <time>2020-07-29T09:14:37.116Z</time>
      </trkpt>
      <trkpt lat="42.91522" lon="0.15003">
        <ele>2356</ele>
        <time>2020-07-29T09:14:38.116Z</time>
      </trkpt>
      <trkpt lat="42.91523" lon="0.15002">
        <ele>2356</ele>
        <time>2020-07-29T09:14:39.116Z</time>
      </trkpt>
      <trkpt lat="42.91525" lon="0.15001">
        <ele>2355</ele>
        <time>2020-07-29T09:14:40.116Z</time>
      </trkpt>
      <trkpt lat="42.91527" lon="0.15">
        <ele>2354</ele>
        <time>2020-07-29T09:14:41.116Z</time>
      </trkpt>
      <trkpt lat="42.91528" lon="0.14999">
        <ele>2354</ele>
        <time>2020-07-29T09:14:42.116Z</time>
      </trkpt>
      <trkpt lat="42.91529" lon="0.14998">
        <ele>2353</ele>
        <time>2020-07-29T09:14:43.116Z</time>
      </trkpt>
      <trkpt lat="42.9153" lon="0.14997">
        <ele>2352</ele>
        <time>2020-07-29T09:14:44.116Z</time>
      </trkpt>
      <trkpt lat="42.91531" lon="0.14997">
        <ele>2353</ele>
        <time>2020-07-29T09:14:45.116Z</time>
      </trkpt>
      <trkpt lat="42.91531" lon="0.14996">
        <ele>2352</ele>
        <time>2020-07-29T09:14:46.116Z</time>
      </trkpt>
      <trkpt lat="42.91532" lon="0.14996">
        <ele>2352</ele>
        <time>2020-07-29T09:14:47.116Z</time>
      </trkpt>
      <trkpt lat="42.91533" lon="0.14995">
        <ele>2352</ele>
        <time>2020-07-29T09:14:48.116Z</time>
      </trkpt>
      <trkpt lat="42.91534" lon="0.14993">
        <ele>2353</ele>
        <time>2020-07-29T09:14:49.116Z</time>
      </trkpt>
      <trkpt lat="42.91535" lon="0.14992">
        <ele>2352</ele>
        <time>2020-07-29T09:14:50.116Z</time>
      </trkpt>
      <trkpt lat="42.91536" lon="0.1499">
        <ele>2351</ele>
        <time>2020-07-29T09:14:51.116Z</time>
      </trkpt>
      <trkpt lat="42.91538" lon="0.14989">
        <ele>2351</ele>
        <time>2020-07-29T09:14:52.116Z</time>
      </trkpt>
      <trkpt lat="42.91539" lon="0.14988">
        <ele>2351</ele>
        <time>2020-07-29T09:14:53.116Z</time>
      </trkpt>
      <trkpt lat="42.9154" lon="0.14987">
        <ele>2351</ele>
        <time>2020-07-29T09:14:54.116Z</time>
      </trkpt>
      <trkpt lat="42.9154" lon="0.14986">
        <ele>2351</ele>
        <time>2020-07-29T09:14:55.116Z</time>
      </trkpt>
      <trkpt lat="42.91541" lon="0.14984">
        <ele>2350</ele>
        <time>2020-07-29T09:14:56.116Z</time>
      </trkpt>
      <trkpt lat="42.91542" lon="0.14981">
        <ele>2349</ele>
        <time>2020-07-29T09:14:57.116Z</time>
      </trkpt>
      <trkpt lat="42.91544" lon="0.14977">
        <ele>2348</ele>
        <time>2020-07-29T09:14:58.116Z</time>
      </trkpt>
      <trkpt lat="42.91545" lon="0.14972">
        <ele>2348</ele>
        <time>2020-07-29T09:14:59.116Z</time>
      </trkpt>
      <trkpt lat="42.91547" lon="0.14967">
        <ele>2347</ele>
        <time>2020-07-29T09:15:00.116Z</time>
      </trkpt>
      <trkpt lat="42.91548" lon="0.14963">
        <ele>2348</ele>
        <time>2020-07-29T09:15:01.116Z</time>
      </trkpt>
      <trkpt lat="42.9155" lon="0.1496">
        <ele>2348</ele>
        <time>2020-07-29T09:15:02.116Z</time>
      </trkpt>
      <trkpt lat="42.91552" lon="0.14957">
        <ele>2348</ele>
        <time>2020-07-29T09:15:03.116Z</time>
      </trkpt>
      <trkpt lat="42.91553" lon="0.14954">
        <ele>2347</ele>
        <time>2020-07-29T09:15:04.116Z</time>
      </trkpt>
      <trkpt lat="42.91554" lon="0.14951">
        <ele>2346</ele>
        <time>2020-07-29T09:15:05.116Z</time>
      </trkpt>
      <trkpt lat="42.91555" lon="0.14948">
        <ele>2347</ele>
        <time>2020-07-29T09:15:06.116Z</time>
      </trkpt>
      <trkpt lat="42.91557" lon="0.14944">
        <ele>2348</ele>
        <time>2020-07-29T09:15:07.116Z</time>
      </trkpt>
      <trkpt lat="42.91558" lon="0.14941">
        <ele>2348</ele>
        <time>2020-07-29T09:15:08.116Z</time>
      </trkpt>
      <trkpt lat="42.91559" lon="0.14938">
        <ele>2349</ele>
        <time>2020-07-29T09:15:09.116Z</time>
      </trkpt>
      <trkpt lat="42.9156" lon="0.14935">
        <ele>2349</ele>
        <time>2020-07-29T09:15:10.116Z</time>
      </trkpt>
      <trkpt lat="42.91561" lon="0.14933">
        <ele>2349</ele>
        <time>2020-07-29T09:15:11.116Z</time>
      </trkpt>
      <trkpt lat="42.91562" lon="0.14931">
        <ele>2349</ele>
        <time>2020-07-29T09:15:12.116Z</time>
      </trkpt>
      <trkpt lat="42.91563" lon="0.14929">
        <ele>2349</ele>
        <time>2020-07-29T09:15:13.116Z</time>
      </trkpt>
      <trkpt lat="42.91563" lon="0.14928">
        <ele>2350</ele>
        <time>2020-07-29T09:15:14.116Z</time>
      </trkpt>
      <trkpt lat="42.91564" lon="0.14926">
        <ele>2351</ele>
        <time>2020-07-29T09:15:15.116Z</time>
      </trkpt>
      <trkpt lat="42.91564" lon="0.14924">
        <ele>2352</ele>
        <time>2020-07-29T09:15:16.116Z</time>
      </trkpt>
      <trkpt lat="42.91565" lon="0.14922">
        <ele>2352</ele>
        <time>2020-07-29T09:15:17.116Z</time>
      </trkpt>
      <trkpt lat="42.91565" lon="0.14921">
        <ele>2351</ele>
        <time>2020-07-29T09:15:18.116Z</time>
      </trkpt>
      <trkpt lat="42.91566" lon="0.14919">
        <ele>2351</ele>
        <time>2020-07-29T09:15:19.116Z</time>
      </trkpt>
      <trkpt lat="42.91566" lon="0.14917">
        <ele>2351</ele>
        <time>2020-07-29T09:15:20.116Z</time>
      </trkpt>
      <trkpt lat="42.91567" lon="0.14915">
        <ele>2351</ele>
        <time>2020-07-29T09:15:21.116Z</time>
      </trkpt>
      <trkpt lat="42.91568" lon="0.14913">
        <ele>2351</ele>
        <time>2020-07-29T09:15:22.116Z</time>
      </trkpt>
      <trkpt lat="42.91569" lon="0.1491">
        <ele>2351</ele>
        <time>2020-07-29T09:15:23.116Z</time>
      </trkpt>
      <trkpt lat="42.91569" lon="0.14908">
        <ele>2350</ele>
        <time>2020-07-29T09:15:24.116Z</time>
      </trkpt>
      <trkpt lat="42.9157" lon="0.14906">
        <ele>2349</ele>
        <time>2020-07-29T09:15:25.116Z</time>
      </trkpt>
      <trkpt lat="42.91571" lon="0.14903">
        <ele>2349</ele>
        <time>2020-07-29T09:15:26.116Z</time>
      </trkpt>
      <trkpt lat="42.91572" lon="0.149">
        <ele>2349</ele>
        <time>2020-07-29T09:15:27.116Z</time>
      </trkpt>
      <trkpt lat="42.91573" lon="0.14898">
        <ele>2349</ele>
        <time>2020-07-29T09:15:28.116Z</time>
      </trkpt>
      <trkpt lat="42.91574" lon="0.14896">
        <ele>2348</ele>
        <time>2020-07-29T09:15:29.116Z</time>
      </trkpt>
      <trkpt lat="42.91575" lon="0.14894">
        <ele>2347</ele>
        <time>2020-07-29T09:15:30.116Z</time>
      </trkpt>
      <trkpt lat="42.91576" lon="0.14893">
        <ele>2346</ele>
        <time>2020-07-29T09:15:31.116Z</time>
      </trkpt>
      <trkpt lat="42.91577" lon="0.14891">
        <ele>2346</ele>
        <time>2020-07-29T09:15:32.116Z</time>
      </trkpt>
      <trkpt lat="42.91578" lon="0.14889">
        <ele>2345</ele>
        <time>2020-07-29T09:15:33.116Z</time>
      </trkpt>
      <trkpt lat="42.9158" lon="0.14887">
        <ele>2344</ele>
        <time>2020-07-29T09:15:34.116Z</time>
      </trkpt>
      <trkpt lat="42.91581" lon="0.14885">
        <ele>2343</ele>
        <time>2020-07-29T09:15:35.116Z</time>
      </trkpt>
      <trkpt lat="42.91583" lon="0.14884">
        <ele>2343</ele>
        <time>2020-07-29T09:15:36.116Z</time>
      </trkpt>
      <trkpt lat="42.91584" lon="0.14882">
        <ele>2343</ele>
        <time>2020-07-29T09:15:37.116Z</time>
      </trkpt>
      <trkpt lat="42.91586" lon="0.1488">
        <ele>2341</ele>
        <time>2020-07-29T09:15:38.116Z</time>
      </trkpt>
      <trkpt lat="42.91588" lon="0.14878">
        <ele>2341</ele>
        <time>2020-07-29T09:15:39.116Z</time>
      </trkpt>
      <trkpt lat="42.9159" lon="0.14875">
        <ele>2341</ele>
        <time>2020-07-29T09:15:40.116Z</time>
      </trkpt>
      <trkpt lat="42.91592" lon="0.14872">
        <ele>2340</ele>
        <time>2020-07-29T09:15:41.116Z</time>
      </trkpt>
      <trkpt lat="42.91594" lon="0.14869">
        <ele>2340</ele>
        <time>2020-07-29T09:15:42.116Z</time>
      </trkpt>
      <trkpt lat="42.91596" lon="0.14866">
        <ele>2341</ele>
        <time>2020-07-29T09:15:43.116Z</time>
      </trkpt>
      <trkpt lat="42.91598" lon="0.14863">
        <ele>2342</ele>
        <time>2020-07-29T09:15:44.116Z</time>
      </trkpt>
      <trkpt lat="42.91599" lon="0.14861">
        <ele>2341</ele>
        <time>2020-07-29T09:15:45.116Z</time>
      </trkpt>
      <trkpt lat="42.916" lon="0.14858">
        <ele>2344</ele>
        <time>2020-07-29T09:15:46.116Z</time>
      </trkpt>
      <trkpt lat="42.916" lon="0.14856">
        <ele>2343</ele>
        <time>2020-07-29T09:15:47.116Z</time>
      </trkpt>
      <trkpt lat="42.91601" lon="0.14854">
        <ele>2344</ele>
        <time>2020-07-29T09:15:48.116Z</time>
      </trkpt>
      <trkpt lat="42.91602" lon="0.14852">
        <ele>2344</ele>
        <time>2020-07-29T09:15:49.116Z</time>
      </trkpt>
      <trkpt lat="42.91604" lon="0.14849">
        <ele>2345</ele>
        <time>2020-07-29T09:15:50.116Z</time>
      </trkpt>
      <trkpt lat="42.91606" lon="0.14847">
        <ele>2345</ele>
        <time>2020-07-29T09:15:51.116Z</time>
      </trkpt>
      <trkpt lat="42.91608" lon="0.14845">
        <ele>2346</ele>
        <time>2020-07-29T09:15:52.116Z</time>
      </trkpt>
      <trkpt lat="42.9161" lon="0.14843">
        <ele>2346</ele>
        <time>2020-07-29T09:15:53.116Z</time>
      </trkpt>
      <trkpt lat="42.91612" lon="0.14841">
        <ele>2347</ele>
        <time>2020-07-29T09:15:54.116Z</time>
      </trkpt>
      <trkpt lat="42.91614" lon="0.14839">
        <ele>2348</ele>
        <time>2020-07-29T09:15:55.116Z</time>
      </trkpt>
      <trkpt lat="42.91616" lon="0.14837">
        <ele>2349</ele>
        <time>2020-07-29T09:15:56.116Z</time>
      </trkpt>
      <trkpt lat="42.91618" lon="0.14834">
        <ele>2349</ele>
        <time>2020-07-29T09:15:57.116Z</time>
      </trkpt>
      <trkpt lat="42.9162" lon="0.14832">
        <ele>2348</ele>
        <time>2020-07-29T09:15:58.116Z</time>
      </trkpt>
      <trkpt lat="42.91623" lon="0.1483">
        <ele>2349</ele>
        <time>2020-07-29T09:15:59.116Z</time>
      </trkpt>
      <trkpt lat="42.91626" lon="0.14827">
        <ele>2350</ele>
        <time>2020-07-29T09:16:00.116Z</time>
      </trkpt>
      <trkpt lat="42.91628" lon="0.14825">
        <ele>2350</ele>
        <time>2020-07-29T09:16:01.116Z</time>
      </trkpt>
      <trkpt lat="42.91631" lon="0.14823">
        <ele>2350</ele>
        <time>2020-07-29T09:16:02.116Z</time>
      </trkpt>
      <trkpt lat="42.91632" lon="0.14822">
        <ele>2350</ele>
        <time>2020-07-29T09:16:03.116Z</time>
      </trkpt>
      <trkpt lat="42.91634" lon="0.14819">
        <ele>2351</ele>
        <time>2020-07-29T09:16:04.116Z</time>
      </trkpt>
      <trkpt lat="42.91635" lon="0.14817">
        <ele>2351</ele>
        <time>2020-07-29T09:16:05.116Z</time>
      </trkpt>
      <trkpt lat="42.91636" lon="0.14815">
        <ele>2351</ele>
        <time>2020-07-29T09:16:06.116Z</time>
      </trkpt>
      <trkpt lat="42.91638" lon="0.14812">
        <ele>2351</ele>
        <time>2020-07-29T09:16:07.116Z</time>
      </trkpt>
      <trkpt lat="42.91639" lon="0.14809">
        <ele>2351</ele>
        <time>2020-07-29T09:16:08.116Z</time>
      </trkpt>
      <trkpt lat="42.91639" lon="0.14805">
        <ele>2351</ele>
        <time>2020-07-29T09:16:09.116Z</time>
      </trkpt>
      <trkpt lat="42.9164" lon="0.14802">
        <ele>2351</ele>
        <time>2020-07-29T09:16:10.116Z</time>
      </trkpt>
      <trkpt lat="42.9164" lon="0.14798">
        <ele>2352</ele>
        <time>2020-07-29T09:16:11.116Z</time>
      </trkpt>
      <trkpt lat="42.91641" lon="0.14794">
        <ele>2352</ele>
        <time>2020-07-29T09:16:12.116Z</time>
      </trkpt>
      <trkpt lat="42.91641" lon="0.1479">
        <ele>2352</ele>
        <time>2020-07-29T09:16:13.116Z</time>
      </trkpt>
      <trkpt lat="42.91641" lon="0.14787">
        <ele>2351</ele>
        <time>2020-07-29T09:16:14.116Z</time>
      </trkpt>
      <trkpt lat="42.9164" lon="0.14783">
        <ele>2351</ele>
        <time>2020-07-29T09:16:15.116Z</time>
      </trkpt>
      <trkpt lat="42.9164" lon="0.14779">
        <ele>2350</ele>
        <time>2020-07-29T09:16:16.116Z</time>
      </trkpt>
      <trkpt lat="42.91639" lon="0.14775">
        <ele>2349</ele>
        <time>2020-07-29T09:16:17.116Z</time>
      </trkpt>
      <trkpt lat="42.91639" lon="0.14771">
        <ele>2349</ele>
        <time>2020-07-29T09:16:18.116Z</time>
      </trkpt>
      <trkpt lat="42.91639" lon="0.14767">
        <ele>2349</ele>
        <time>2020-07-29T09:16:19.116Z</time>
      </trkpt>
      <trkpt lat="42.91638" lon="0.14763">
        <ele>2348</ele>
        <time>2020-07-29T09:16:20.116Z</time>
      </trkpt>
      <trkpt lat="42.91637" lon="0.14758">
        <ele>2348</ele>
        <time>2020-07-29T09:16:21.116Z</time>
      </trkpt>
      <trkpt lat="42.91637" lon="0.14754">
        <ele>2347</ele>
        <time>2020-07-29T09:16:22.116Z</time>
      </trkpt>
      <trkpt lat="42.91636" lon="0.14749">
        <ele>2346</ele>
        <time>2020-07-29T09:16:23.116Z</time>
      </trkpt>
      <trkpt lat="42.91637" lon="0.14745">
        <ele>2345</ele>
        <time>2020-07-29T09:16:24.116Z</time>
      </trkpt>
      <trkpt lat="42.91637" lon="0.14741">
        <ele>2344</ele>
        <time>2020-07-29T09:16:25.116Z</time>
      </trkpt>
      <trkpt lat="42.91637" lon="0.14737">
        <ele>2344</ele>
        <time>2020-07-29T09:16:26.116Z</time>
      </trkpt>
      <trkpt lat="42.91637" lon="0.14732">
        <ele>2344</ele>
        <time>2020-07-29T09:16:27.116Z</time>
      </trkpt>
      <trkpt lat="42.91636" lon="0.14728">
        <ele>2343</ele>
        <time>2020-07-29T09:16:28.116Z</time>
      </trkpt>
      <trkpt lat="42.91636" lon="0.14724">
        <ele>2342</ele>
        <time>2020-07-29T09:16:29.116Z</time>
      </trkpt>
      <trkpt lat="42.91636" lon="0.14721">
        <ele>2341</ele>
        <time>2020-07-29T09:16:30.116Z</time>
      </trkpt>
      <trkpt lat="42.91635" lon="0.14717">
        <ele>2340</ele>
        <time>2020-07-29T09:16:31.116Z</time>
      </trkpt>
      <trkpt lat="42.91634" lon="0.14713">
        <ele>2340</ele>
        <time>2020-07-29T09:16:32.116Z</time>
      </trkpt>
      <trkpt lat="42.91634" lon="0.14709">
        <ele>2340</ele>
        <time>2020-07-29T09:16:33.116Z</time>
      </trkpt>
      <trkpt lat="42.91632" lon="0.14705">
        <ele>2339</ele>
        <time>2020-07-29T09:16:34.116Z</time>
      </trkpt>
      <trkpt lat="42.91631" lon="0.14701">
        <ele>2339</ele>
        <time>2020-07-29T09:16:35.116Z</time>
      </trkpt>
      <trkpt lat="42.9163" lon="0.14697">
        <ele>2338</ele>
        <time>2020-07-29T09:16:36.116Z</time>
      </trkpt>
      <trkpt lat="42.91629" lon="0.14693">
        <ele>2337</ele>
        <time>2020-07-29T09:16:37.116Z</time>
      </trkpt>
      <trkpt lat="42.91628" lon="0.14689">
        <ele>2336</ele>
        <time>2020-07-29T09:16:38.116Z</time>
      </trkpt>
      <trkpt lat="42.91627" lon="0.14685">
        <ele>2336</ele>
        <time>2020-07-29T09:16:39.116Z</time>
      </trkpt>
      <trkpt lat="42.91626" lon="0.14681">
        <ele>2336</ele>
        <time>2020-07-29T09:16:40.116Z</time>
      </trkpt>
      <trkpt lat="42.91625" lon="0.14677">
        <ele>2335</ele>
        <time>2020-07-29T09:16:41.116Z</time>
      </trkpt>
      <trkpt lat="42.91624" lon="0.14673">
        <ele>2335</ele>
        <time>2020-07-29T09:16:42.116Z</time>
      </trkpt>
      <trkpt lat="42.91622" lon="0.14669">
        <ele>2335</ele>
        <time>2020-07-29T09:16:43.116Z</time>
      </trkpt>
      <trkpt lat="42.91621" lon="0.14665">
        <ele>2334</ele>
        <time>2020-07-29T09:16:44.116Z</time>
      </trkpt>
      <trkpt lat="42.91619" lon="0.14662">
        <ele>2334</ele>
        <time>2020-07-29T09:16:45.116Z</time>
      </trkpt>
      <trkpt lat="42.91617" lon="0.14658">
        <ele>2333</ele>
        <time>2020-07-29T09:16:46.116Z</time>
      </trkpt>
      <trkpt lat="42.91615" lon="0.14655">
        <ele>2333</ele>
        <time>2020-07-29T09:16:47.116Z</time>
      </trkpt>
      <trkpt lat="42.91613" lon="0.14652">
        <ele>2332</ele>
        <time>2020-07-29T09:16:48.116Z</time>
      </trkpt>
      <trkpt lat="42.91611" lon="0.14649">
        <ele>2332</ele>
        <time>2020-07-29T09:16:49.116Z</time>
      </trkpt>
      <trkpt lat="42.91609" lon="0.14646">
        <ele>2332</ele>
        <time>2020-07-29T09:16:50.116Z</time>
      </trkpt>
      <trkpt lat="42.91606" lon="0.14643">
        <ele>2331</ele>
        <time>2020-07-29T09:16:51.116Z</time>
      </trkpt>
      <trkpt lat="42.91604" lon="0.1464">
        <ele>2330</ele>
        <time>2020-07-29T09:16:52.116Z</time>
      </trkpt>
      <trkpt lat="42.91601" lon="0.14637">
        <ele>2329</ele>
        <time>2020-07-29T09:16:53.116Z</time>
      </trkpt>
      <trkpt lat="42.91599" lon="0.14635">
        <ele>2329</ele>
        <time>2020-07-29T09:16:54.116Z</time>
      </trkpt>
      <trkpt lat="42.91597" lon="0.14632">
        <ele>2328</ele>
        <time>2020-07-29T09:16:55.116Z</time>
      </trkpt>
      <trkpt lat="42.91594" lon="0.1463">
        <ele>2327</ele>
        <time>2020-07-29T09:16:56.116Z</time>
      </trkpt>
      <trkpt lat="42.91592" lon="0.14628">
        <ele>2326</ele>
        <time>2020-07-29T09:16:57.116Z</time>
      </trkpt>
      <trkpt lat="42.91589" lon="0.14625">
        <ele>2326</ele>
        <time>2020-07-29T09:16:58.116Z</time>
      </trkpt>
      <trkpt lat="42.91587" lon="0.14623">
        <ele>2325</ele>
        <time>2020-07-29T09:16:59.116Z</time>
      </trkpt>
      <trkpt lat="42.91584" lon="0.14622">
        <ele>2324</ele>
        <time>2020-07-29T09:17:00.116Z</time>
      </trkpt>
      <trkpt lat="42.91581" lon="0.1462">
        <ele>2323</ele>
        <time>2020-07-29T09:17:01.116Z</time>
      </trkpt>
      <trkpt lat="42.91578" lon="0.14618">
        <ele>2321</ele>
        <time>2020-07-29T09:17:02.116Z</time>
      </trkpt>
      <trkpt lat="42.91576" lon="0.14617">
        <ele>2319</ele>
        <time>2020-07-29T09:17:03.116Z</time>
      </trkpt>
      <trkpt lat="42.91573" lon="0.14615">
        <ele>2319</ele>
        <time>2020-07-29T09:17:04.116Z</time>
      </trkpt>
      <trkpt lat="42.9157" lon="0.14614">
        <ele>2318</ele>
        <time>2020-07-29T09:17:05.116Z</time>
      </trkpt>
      <trkpt lat="42.91567" lon="0.14613">
        <ele>2317</ele>
        <time>2020-07-29T09:17:06.116Z</time>
      </trkpt>
      <trkpt lat="42.91565" lon="0.14612">
        <ele>2317</ele>
        <time>2020-07-29T09:17:07.116Z</time>
      </trkpt>
      <trkpt lat="42.91562" lon="0.14612">
        <ele>2316</ele>
        <time>2020-07-29T09:17:08.116Z</time>
      </trkpt>
      <trkpt lat="42.91559" lon="0.14612">
        <ele>2317</ele>
        <time>2020-07-29T09:17:09.116Z</time>
      </trkpt>
      <trkpt lat="42.91557" lon="0.14613">
        <ele>2316</ele>
        <time>2020-07-29T09:17:10.116Z</time>
      </trkpt>
      <trkpt lat="42.91555" lon="0.14615">
        <ele>2315</ele>
        <time>2020-07-29T09:17:11.116Z</time>
      </trkpt>
      <trkpt lat="42.91553" lon="0.14618">
        <ele>2314</ele>
        <time>2020-07-29T09:17:12.116Z</time>
      </trkpt>
      <trkpt lat="42.91551" lon="0.1462">
        <ele>2313</ele>
        <time>2020-07-29T09:17:13.116Z</time>
      </trkpt>
      <trkpt lat="42.91548" lon="0.14622">
        <ele>2312</ele>
        <time>2020-07-29T09:17:14.116Z</time>
      </trkpt>
      <trkpt lat="42.91546" lon="0.14625">
        <ele>2312</ele>
        <time>2020-07-29T09:17:15.116Z</time>
      </trkpt>
      <trkpt lat="42.91543" lon="0.14627">
        <ele>2312</ele>
        <time>2020-07-29T09:17:16.116Z</time>
      </trkpt>
      <trkpt lat="42.9154" lon="0.1463">
        <ele>2311</ele>
        <time>2020-07-29T09:17:17.116Z</time>
      </trkpt>
      <trkpt lat="42.91537" lon="0.14632">
        <ele>2308</ele>
        <time>2020-07-29T09:17:18.116Z</time>
      </trkpt>
      <trkpt lat="42.91534" lon="0.14635">
        <ele>2307</ele>
        <time>2020-07-29T09:17:19.116Z</time>
      </trkpt>
      <trkpt lat="42.91531" lon="0.14637">
        <ele>2304</ele>
        <time>2020-07-29T09:17:20.116Z</time>
      </trkpt>
      <trkpt lat="42.91528" lon="0.1464">
        <ele>2303</ele>
        <time>2020-07-29T09:17:21.116Z</time>
      </trkpt>
      <trkpt lat="42.91525" lon="0.14642">
        <ele>2301</ele>
        <time>2020-07-29T09:17:22.116Z</time>
      </trkpt>
      <trkpt lat="42.91522" lon="0.14645">
        <ele>2300</ele>
        <time>2020-07-29T09:17:23.116Z</time>
      </trkpt>
      <trkpt lat="42.91519" lon="0.14647">
        <ele>2302</ele>
        <time>2020-07-29T09:17:24.116Z</time>
      </trkpt>
      <trkpt lat="42.91515" lon="0.14648">
        <ele>2302</ele>
        <time>2020-07-29T09:17:25.116Z</time>
      </trkpt>
      <trkpt lat="42.91512" lon="0.14648">
        <ele>2301</ele>
        <time>2020-07-29T09:17:26.116Z</time>
      </trkpt>
      <trkpt lat="42.91509" lon="0.14649">
        <ele>2300</ele>
        <time>2020-07-29T09:17:27.116Z</time>
      </trkpt>
      <trkpt lat="42.91505" lon="0.14648">
        <ele>2300</ele>
        <time>2020-07-29T09:17:28.116Z</time>
      </trkpt>
      <trkpt lat="42.91502" lon="0.14648">
        <ele>2298</ele>
        <time>2020-07-29T09:17:29.116Z</time>
      </trkpt>
      <trkpt lat="42.91499" lon="0.14648">
        <ele>2298</ele>
        <time>2020-07-29T09:17:30.116Z</time>
      </trkpt>
      <trkpt lat="42.91495" lon="0.14647">
        <ele>2297</ele>
        <time>2020-07-29T09:17:31.116Z</time>
      </trkpt>
      <trkpt lat="42.91492" lon="0.14646">
        <ele>2297</ele>
        <time>2020-07-29T09:17:32.116Z</time>
      </trkpt>
      <trkpt lat="42.9149" lon="0.14645">
        <ele>2295</ele>
        <time>2020-07-29T09:17:33.116Z</time>
      </trkpt>
      <trkpt lat="42.91487" lon="0.14643">
        <ele>2294</ele>
        <time>2020-07-29T09:17:34.116Z</time>
      </trkpt>
      <trkpt lat="42.91484" lon="0.1464">
        <ele>2293</ele>
        <time>2020-07-29T09:17:35.116Z</time>
      </trkpt>
      <trkpt lat="42.91482" lon="0.14637">
        <ele>2292</ele>
        <time>2020-07-29T09:17:36.116Z</time>
      </trkpt>
      <trkpt lat="42.9148" lon="0.14634">
        <ele>2291</ele>
        <time>2020-07-29T09:17:37.116Z</time>
      </trkpt>
      <trkpt lat="42.91478" lon="0.14631">
        <ele>2290</ele>
        <time>2020-07-29T09:17:38.116Z</time>
      </trkpt>
      <trkpt lat="42.91476" lon="0.14627">
        <ele>2289</ele>
        <time>2020-07-29T09:17:39.116Z</time>
      </trkpt>
      <trkpt lat="42.91474" lon="0.14624">
        <ele>2288</ele>
        <time>2020-07-29T09:17:40.116Z</time>
      </trkpt>
      <trkpt lat="42.91472" lon="0.1462">
        <ele>2287</ele>
        <time>2020-07-29T09:17:41.116Z</time>
      </trkpt>
      <trkpt lat="42.9147" lon="0.14617">
        <ele>2285</ele>
        <time>2020-07-29T09:17:42.116Z</time>
      </trkpt>
      <trkpt lat="42.91468" lon="0.14614">
        <ele>2284</ele>
        <time>2020-07-29T09:17:43.116Z</time>
      </trkpt>
      <trkpt lat="42.91466" lon="0.14611">
        <ele>2282</ele>
        <time>2020-07-29T09:17:44.116Z</time>
      </trkpt>
      <trkpt lat="42.91464" lon="0.14608">
        <ele>2280</ele>
        <time>2020-07-29T09:17:45.116Z</time>
      </trkpt>
      <trkpt lat="42.91462" lon="0.14605">
        <ele>2280</ele>
        <time>2020-07-29T09:17:46.116Z</time>
      </trkpt>
      <trkpt lat="42.91459" lon="0.14601">
        <ele>2279</ele>
        <time>2020-07-29T09:17:47.116Z</time>
      </trkpt>
      <trkpt lat="42.91457" lon="0.14598">
        <ele>2278</ele>
        <time>2020-07-29T09:17:48.116Z</time>
      </trkpt>
      <trkpt lat="42.91455" lon="0.14595">
        <ele>2279</ele>
        <time>2020-07-29T09:17:49.116Z</time>
      </trkpt>
      <trkpt lat="42.91453" lon="0.14591">
        <ele>2278</ele>
        <time>2020-07-29T09:17:50.116Z</time>
      </trkpt>
      <trkpt lat="42.91451" lon="0.14588">
        <ele>2279</ele>
        <time>2020-07-29T09:17:51.116Z</time>
      </trkpt>
      <trkpt lat="42.91449" lon="0.14584">
        <ele>2279</ele>
        <time>2020-07-29T09:17:52.116Z</time>
      </trkpt>
      <trkpt lat="42.91446" lon="0.14581">
        <ele>2278</ele>
        <time>2020-07-29T09:17:53.116Z</time>
      </trkpt>
      <trkpt lat="42.91444" lon="0.14578">
        <ele>2277</ele>
        <time>2020-07-29T09:17:54.116Z</time>
      </trkpt>
      <trkpt lat="42.91442" lon="0.14575">
        <ele>2276</ele>
        <time>2020-07-29T09:17:55.116Z</time>
      </trkpt>
      <trkpt lat="42.9144" lon="0.14571">
        <ele>2276</ele>
        <time>2020-07-29T09:17:56.116Z</time>
      </trkpt>
      <trkpt lat="42.91438" lon="0.14568">
        <ele>2276</ele>
        <time>2020-07-29T09:17:57.116Z</time>
      </trkpt>
      <trkpt lat="42.91436" lon="0.14564">
        <ele>2277</ele>
        <time>2020-07-29T09:17:58.116Z</time>
      </trkpt>
      <trkpt lat="42.91434" lon="0.14561">
        <ele>2276</ele>
        <time>2020-07-29T09:17:59.116Z</time>
      </trkpt>
      <trkpt lat="42.91432" lon="0.14558">
        <ele>2276</ele>
        <time>2020-07-29T09:18:00.116Z</time>
      </trkpt>
      <trkpt lat="42.9143" lon="0.14555">
        <ele>2275</ele>
        <time>2020-07-29T09:18:01.116Z</time>
      </trkpt>
      <trkpt lat="42.91427" lon="0.14552">
        <ele>2275</ele>
        <time>2020-07-29T09:18:02.116Z</time>
      </trkpt>
      <trkpt lat="42.91425" lon="0.14549">
        <ele>2275</ele>
        <time>2020-07-29T09:18:03.116Z</time>
      </trkpt>
      <trkpt lat="42.91422" lon="0.14547">
        <ele>2274</ele>
        <time>2020-07-29T09:18:04.116Z</time>
      </trkpt>
      <trkpt lat="42.91419" lon="0.14543">
        <ele>2274</ele>
        <time>2020-07-29T09:18:05.116Z</time>
      </trkpt>
      <trkpt lat="42.91417" lon="0.1454">
        <ele>2274</ele>
        <time>2020-07-29T09:18:06.116Z</time>
      </trkpt>
      <trkpt lat="42.91414" lon="0.14536">
        <ele>2273</ele>
        <time>2020-07-29T09:18:07.116Z</time>
      </trkpt>
      <trkpt lat="42.91412" lon="0.14533">
        <ele>2273</ele>
        <time>2020-07-29T09:18:08.116Z</time>
      </trkpt>
      <trkpt lat="42.91409" lon="0.14531">
        <ele>2273</ele>
        <time>2020-07-29T09:18:09.116Z</time>
      </trkpt>
      <trkpt lat="42.91407" lon="0.14528">
        <ele>2272</ele>
        <time>2020-07-29T09:18:10.116Z</time>
      </trkpt>
      <trkpt lat="42.91405" lon="0.14525">
        <ele>2271</ele>
        <time>2020-07-29T09:18:11.116Z</time>
      </trkpt>
      <trkpt lat="42.91402" lon="0.14522">
        <ele>2270</ele>
        <time>2020-07-29T09:18:12.116Z</time>
      </trkpt>
      <trkpt lat="42.914" lon="0.14519">
        <ele>2269</ele>
        <time>2020-07-29T09:18:13.116Z</time>
      </trkpt>
      <trkpt lat="42.91397" lon="0.14516">
        <ele>2270</ele>
        <time>2020-07-29T09:18:14.116Z</time>
      </trkpt>
      <trkpt lat="42.91395" lon="0.14513">
        <ele>2270</ele>
        <time>2020-07-29T09:18:15.116Z</time>
      </trkpt>
      <trkpt lat="42.91393" lon="0.1451">
        <ele>2270</ele>
        <time>2020-07-29T09:18:16.116Z</time>
      </trkpt>
      <trkpt lat="42.91391" lon="0.14506">
        <ele>2270</ele>
        <time>2020-07-29T09:18:17.116Z</time>
      </trkpt>
      <trkpt lat="42.91389" lon="0.14502">
        <ele>2269</ele>
        <time>2020-07-29T09:18:18.116Z</time>
      </trkpt>
      <trkpt lat="42.91387" lon="0.14498">
        <ele>2268</ele>
        <time>2020-07-29T09:18:19.116Z</time>
      </trkpt>
      <trkpt lat="42.91385" lon="0.14494">
        <ele>2268</ele>
        <time>2020-07-29T09:18:20.116Z</time>
      </trkpt>
      <trkpt lat="42.91383" lon="0.1449">
        <ele>2268</ele>
        <time>2020-07-29T09:18:21.116Z</time>
      </trkpt>
      <trkpt lat="42.91381" lon="0.14486">
        <ele>2267</ele>
        <time>2020-07-29T09:18:22.116Z</time>
      </trkpt>
      <trkpt lat="42.91379" lon="0.14483">
        <ele>2267</ele>
        <time>2020-07-29T09:18:23.116Z</time>
      </trkpt>
      <trkpt lat="42.91377" lon="0.14479">
        <ele>2267</ele>
        <time>2020-07-29T09:18:24.116Z</time>
      </trkpt>
      <trkpt lat="42.91375" lon="0.14475">
        <ele>2266</ele>
        <time>2020-07-29T09:18:25.116Z</time>
      </trkpt>
      <trkpt lat="42.91372" lon="0.14472">
        <ele>2266</ele>
        <time>2020-07-29T09:18:26.116Z</time>
      </trkpt>
      <trkpt lat="42.9137" lon="0.14468">
        <ele>2266</ele>
        <time>2020-07-29T09:18:27.116Z</time>
      </trkpt>
      <trkpt lat="42.91367" lon="0.14465">
        <ele>2266</ele>
        <time>2020-07-29T09:18:28.116Z</time>
      </trkpt>
      <trkpt lat="42.91365" lon="0.14462">
        <ele>2266</ele>
        <time>2020-07-29T09:18:29.116Z</time>
      </trkpt>
      <trkpt lat="42.91363" lon="0.14459">
        <ele>2267</ele>
        <time>2020-07-29T09:18:30.116Z</time>
      </trkpt>
      <trkpt lat="42.91361" lon="0.14455">
        <ele>2267</ele>
        <time>2020-07-29T09:18:31.116Z</time>
      </trkpt>
      <trkpt lat="42.91358" lon="0.14452">
        <ele>2267</ele>
        <time>2020-07-29T09:18:32.116Z</time>
      </trkpt>
      <trkpt lat="42.91356" lon="0.14449">
        <ele>2267</ele>
        <time>2020-07-29T09:18:33.116Z</time>
      </trkpt>
      <trkpt lat="42.91354" lon="0.14445">
        <ele>2267</ele>
        <time>2020-07-29T09:18:34.116Z</time>
      </trkpt>
      <trkpt lat="42.91352" lon="0.14442">
        <ele>2267</ele>
        <time>2020-07-29T09:18:35.116Z</time>
      </trkpt>
      <trkpt lat="42.91349" lon="0.14439">
        <ele>2266</ele>
        <time>2020-07-29T09:18:36.116Z</time>
      </trkpt>
      <trkpt lat="42.91347" lon="0.14435">
        <ele>2266</ele>
        <time>2020-07-29T09:18:37.116Z</time>
      </trkpt>
      <trkpt lat="42.91345" lon="0.14431">
        <ele>2265</ele>
        <time>2020-07-29T09:18:38.116Z</time>
      </trkpt>
      <trkpt lat="42.91343" lon="0.14428">
        <ele>2264</ele>
        <time>2020-07-29T09:18:39.116Z</time>
      </trkpt>
      <trkpt lat="42.91341" lon="0.14424">
        <ele>2264</ele>
        <time>2020-07-29T09:18:40.116Z</time>
      </trkpt>
      <trkpt lat="42.91339" lon="0.14421">
        <ele>2265</ele>
        <time>2020-07-29T09:18:41.116Z</time>
      </trkpt>
      <trkpt lat="42.91337" lon="0.14417">
        <ele>2264</ele>
        <time>2020-07-29T09:18:42.116Z</time>
      </trkpt>
      <trkpt lat="42.91335" lon="0.14414">
        <ele>2265</ele>
        <time>2020-07-29T09:18:43.116Z</time>
      </trkpt>
      <trkpt lat="42.91333" lon="0.14411">
        <ele>2265</ele>
        <time>2020-07-29T09:18:44.116Z</time>
      </trkpt>
      <trkpt lat="42.9133" lon="0.14407">
        <ele>2264</ele>
        <time>2020-07-29T09:18:45.116Z</time>
      </trkpt>
      <trkpt lat="42.91328" lon="0.14403">
        <ele>2263</ele>
        <time>2020-07-29T09:18:46.116Z</time>
      </trkpt>
      <trkpt lat="42.91326" lon="0.144">
        <ele>2263</ele>
        <time>2020-07-29T09:18:47.116Z</time>
      </trkpt>
      <trkpt lat="42.91323" lon="0.14397">
        <ele>2262</ele>
        <time>2020-07-29T09:18:48.116Z</time>
      </trkpt>
      <trkpt lat="42.9132" lon="0.14394">
        <ele>2260</ele>
        <time>2020-07-29T09:18:49.116Z</time>
      </trkpt>
      <trkpt lat="42.91317" lon="0.14391">
        <ele>2262</ele>
        <time>2020-07-29T09:18:50.116Z</time>
      </trkpt>
      <trkpt lat="42.91314" lon="0.14389">
        <ele>2261</ele>
        <time>2020-07-29T09:18:51.116Z</time>
      </trkpt>
      <trkpt lat="42.91311" lon="0.14386">
        <ele>2262</ele>
        <time>2020-07-29T09:18:52.116Z</time>
      </trkpt>
      <trkpt lat="42.91308" lon="0.14384">
        <ele>2260</ele>
        <time>2020-07-29T09:18:53.116Z</time>
      </trkpt>
      <trkpt lat="42.91304" lon="0.14381">
        <ele>2259</ele>
        <time>2020-07-29T09:18:54.116Z</time>
      </trkpt>
      <trkpt lat="42.91301" lon="0.14379">
        <ele>2258</ele>
        <time>2020-07-29T09:18:55.116Z</time>
      </trkpt>
      <trkpt lat="42.91299" lon="0.14377">
        <ele>2257</ele>
        <time>2020-07-29T09:18:56.116Z</time>
      </trkpt>
      <trkpt lat="42.91295" lon="0.14374">
        <ele>2256</ele>
        <time>2020-07-29T09:18:57.116Z</time>
      </trkpt>
      <trkpt lat="42.91292" lon="0.14372">
        <ele>2255</ele>
        <time>2020-07-29T09:18:58.116Z</time>
      </trkpt>
      <trkpt lat="42.91289" lon="0.1437">
        <ele>2252</ele>
        <time>2020-07-29T09:18:59.116Z</time>
      </trkpt>
      <trkpt lat="42.91286" lon="0.14369">
        <ele>2251</ele>
        <time>2020-07-29T09:19:00.116Z</time>
      </trkpt>
      <trkpt lat="42.91283" lon="0.14368">
        <ele>2251</ele>
        <time>2020-07-29T09:19:01.116Z</time>
      </trkpt>
      <trkpt lat="42.9128" lon="0.14367">
        <ele>2250</ele>
        <time>2020-07-29T09:19:02.116Z</time>
      </trkpt>
      <trkpt lat="42.91276" lon="0.14366">
        <ele>2249</ele>
        <time>2020-07-29T09:19:03.116Z</time>
      </trkpt>
      <trkpt lat="42.91273" lon="0.14366">
        <ele>2249</ele>
        <time>2020-07-29T09:19:04.116Z</time>
      </trkpt>
      <trkpt lat="42.9127" lon="0.14366">
        <ele>2248</ele>
        <time>2020-07-29T09:19:05.116Z</time>
      </trkpt>
      <trkpt lat="42.91267" lon="0.14365">
        <ele>2246</ele>
        <time>2020-07-29T09:19:06.116Z</time>
      </trkpt>
      <trkpt lat="42.91264" lon="0.14365">
        <ele>2245</ele>
        <time>2020-07-29T09:19:07.116Z</time>
      </trkpt>
      <trkpt lat="42.91261" lon="0.14365">
        <ele>2245</ele>
        <time>2020-07-29T09:19:08.116Z</time>
      </trkpt>
      <trkpt lat="42.91259" lon="0.14365">
        <ele>2244</ele>
        <time>2020-07-29T09:19:09.116Z</time>
      </trkpt>
      <trkpt lat="42.91258" lon="0.14365">
        <ele>2245</ele>
        <time>2020-07-29T09:19:10.116Z</time>
      </trkpt>
      <trkpt lat="42.91257" lon="0.14364">
        <ele>2244</ele>
        <time>2020-07-29T09:19:11.116Z</time>
      </trkpt>
      <trkpt lat="42.91254" lon="0.14363">
        <ele>2244</ele>
        <time>2020-07-29T09:19:12.116Z</time>
      </trkpt>
      <trkpt lat="42.91253" lon="0.14362">
        <ele>2244</ele>
        <time>2020-07-29T09:19:13.116Z</time>
      </trkpt>
      <trkpt lat="42.91253" lon="0.14359">
        <ele>2247</ele>
        <time>2020-07-29T09:19:14.089Z</time>
      </trkpt>
      <trkpt lat="42.91253" lon="0.14359">
        <ele>2248</ele>
        <time>2020-07-29T09:19:15.089Z</time>
      </trkpt>
      <trkpt lat="42.91253" lon="0.14358">
        <ele>2247</ele>
        <time>2020-07-29T09:19:16.089Z</time>
      </trkpt>
      <trkpt lat="42.91252" lon="0.14357">
        <ele>2248</ele>
        <time>2020-07-29T09:19:17.089Z</time>
      </trkpt>
      <trkpt lat="42.91252" lon="0.14356">
        <ele>2248</ele>
        <time>2020-07-29T09:19:18.089Z</time>
      </trkpt>
      <trkpt lat="42.91252" lon="0.14356">
        <ele>2248</ele>
        <time>2020-07-29T09:19:19.089Z</time>
      </trkpt>
      <trkpt lat="42.91251" lon="0.14353">
        <ele>2257</ele>
        <time>2020-07-29T09:19:20.061Z</time>
      </trkpt>
      <trkpt lat="42.91251" lon="0.14353">
        <ele>2257</ele>
        <time>2020-07-29T09:19:21.061Z</time>
      </trkpt>
      <trkpt lat="42.91251" lon="0.14353">
        <ele>2258</ele>
        <time>2020-07-29T09:19:22.061Z</time>
      </trkpt>
      <trkpt lat="42.91251" lon="0.14355">
        <ele>2258</ele>
        <time>2020-07-29T09:19:23.061Z</time>
      </trkpt>
      <trkpt lat="42.91251" lon="0.14357">
        <ele>2258</ele>
        <time>2020-07-29T09:19:24.061Z</time>
      </trkpt>
      <trkpt lat="42.91252" lon="0.14359">
        <ele>2257</ele>
        <time>2020-07-29T09:19:25.061Z</time>
      </trkpt>
      <trkpt lat="42.91252" lon="0.14371">
        <ele>2254</ele>
        <time>2020-07-29T09:19:26.097Z</time>
      </trkpt>
      <trkpt lat="42.91252" lon="0.14371">
        <ele>2254</ele>
        <time>2020-07-29T09:19:27.097Z</time>
      </trkpt>
      <trkpt lat="42.91251" lon="0.14371">
        <ele>2253</ele>
        <time>2020-07-29T09:19:28.097Z</time>
      </trkpt>
      <trkpt lat="42.91249" lon="0.14372">
        <ele>2252</ele>
        <time>2020-07-29T09:19:29.097Z</time>
      </trkpt>
      <trkpt lat="42.91247" lon="0.14372">
        <ele>2252</ele>
        <time>2020-07-29T09:19:30.097Z</time>
      </trkpt>
      <trkpt lat="42.91244" lon="0.14373">
        <ele>2252</ele>
        <time>2020-07-29T09:19:31.097Z</time>
      </trkpt>
      <trkpt lat="42.91241" lon="0.14373">
        <ele>2251</ele>
        <time>2020-07-29T09:19:32.097Z</time>
      </trkpt>
      <trkpt lat="42.91239" lon="0.14374">
        <ele>2251</ele>
        <time>2020-07-29T09:19:33.097Z</time>
      </trkpt>
      <trkpt lat="42.91236" lon="0.14374">
        <ele>2251</ele>
        <time>2020-07-29T09:19:34.097Z</time>
      </trkpt>
      <trkpt lat="42.91233" lon="0.14375">
        <ele>2250</ele>
        <time>2020-07-29T09:19:35.097Z</time>
      </trkpt>
      <trkpt lat="42.9123" lon="0.14375">
        <ele>2250</ele>
        <time>2020-07-29T09:19:36.097Z</time>
      </trkpt>
      <trkpt lat="42.91227" lon="0.14375">
        <ele>2250</ele>
        <time>2020-07-29T09:19:37.097Z</time>
      </trkpt>
      <trkpt lat="42.91224" lon="0.14375">
        <ele>2249</ele>
        <time>2020-07-29T09:19:38.097Z</time>
      </trkpt>
      <trkpt lat="42.91221" lon="0.14375">
        <ele>2248</ele>
        <time>2020-07-29T09:19:39.097Z</time>
      </trkpt>
      <trkpt lat="42.91218" lon="0.14374">
        <ele>2247</ele>
        <time>2020-07-29T09:19:40.097Z</time>
      </trkpt>
      <trkpt lat="42.91215" lon="0.14373">
        <ele>2246</ele>
        <time>2020-07-29T09:19:41.097Z</time>
      </trkpt>
      <trkpt lat="42.91212" lon="0.14372">
        <ele>2245</ele>
        <time>2020-07-29T09:19:42.097Z</time>
      </trkpt>
      <trkpt lat="42.91208" lon="0.14371">
        <ele>2245</ele>
        <time>2020-07-29T09:19:43.097Z</time>
      </trkpt>
      <trkpt lat="42.91205" lon="0.14371">
        <ele>2244</ele>
        <time>2020-07-29T09:19:44.097Z</time>
      </trkpt>
      <trkpt lat="42.91202" lon="0.14369">
        <ele>2242</ele>
        <time>2020-07-29T09:19:45.097Z</time>
      </trkpt>
      <trkpt lat="42.91199" lon="0.14368">
        <ele>2241</ele>
        <time>2020-07-29T09:19:46.097Z</time>
      </trkpt>
      <trkpt lat="42.91195" lon="0.14367">
        <ele>2241</ele>
        <time>2020-07-29T09:19:47.097Z</time>
      </trkpt>
      <trkpt lat="42.91192" lon="0.14366">
        <ele>2241</ele>
        <time>2020-07-29T09:19:48.097Z</time>
      </trkpt>
      <trkpt lat="42.91189" lon="0.14366">
        <ele>2240</ele>
        <time>2020-07-29T09:19:49.097Z</time>
      </trkpt>
      <trkpt lat="42.91186" lon="0.14366">
        <ele>2240</ele>
        <time>2020-07-29T09:19:50.097Z</time>
      </trkpt>
      <trkpt lat="42.91183" lon="0.14366">
        <ele>2239</ele>
        <time>2020-07-29T09:19:51.097Z</time>
      </trkpt>
      <trkpt lat="42.91179" lon="0.14365">
        <ele>2238</ele>
        <time>2020-07-29T09:19:52.097Z</time>
      </trkpt>
      <trkpt lat="42.91176" lon="0.14365">
        <ele>2238</ele>
        <time>2020-07-29T09:19:53.097Z</time>
      </trkpt>
      <trkpt lat="42.91173" lon="0.14364">
        <ele>2237</ele>
        <time>2020-07-29T09:19:54.097Z</time>
      </trkpt>
      <trkpt lat="42.9117" lon="0.14364">
        <ele>2237</ele>
        <time>2020-07-29T09:19:55.097Z</time>
      </trkpt>
      <trkpt lat="42.91167" lon="0.14364">
        <ele>2236</ele>
        <time>2020-07-29T09:19:56.097Z</time>
      </trkpt>
      <trkpt lat="42.91163" lon="0.14364">
        <ele>2236</ele>
        <time>2020-07-29T09:19:57.097Z</time>
      </trkpt>
      <trkpt lat="42.9116" lon="0.14364">
        <ele>2235</ele>
        <time>2020-07-29T09:19:58.097Z</time>
      </trkpt>
      <trkpt lat="42.91156" lon="0.14364">
        <ele>2234</ele>
        <time>2020-07-29T09:19:59.097Z</time>
      </trkpt>
      <trkpt lat="42.91153" lon="0.14364">
        <ele>2234</ele>
        <time>2020-07-29T09:20:00.097Z</time>
      </trkpt>
      <trkpt lat="42.9115" lon="0.14365">
        <ele>2234</ele>
        <time>2020-07-29T09:20:01.097Z</time>
      </trkpt>
      <trkpt lat="42.91147" lon="0.14365">
        <ele>2234</ele>
        <time>2020-07-29T09:20:02.097Z</time>
      </trkpt>
      <trkpt lat="42.91144" lon="0.14366">
        <ele>2232</ele>
        <time>2020-07-29T09:20:03.097Z</time>
      </trkpt>
      <trkpt lat="42.91138" lon="0.14363">
        <ele>2230</ele>
        <time>2020-07-29T09:20:04.023Z</time>
      </trkpt>
      <trkpt lat="42.91137" lon="0.14363">
        <ele>2229</ele>
        <time>2020-07-29T09:20:05.023Z</time>
      </trkpt>
      <trkpt lat="42.91137" lon="0.14363">
        <ele>2229</ele>
        <time>2020-07-29T09:20:06.023Z</time>
      </trkpt>
      <trkpt lat="42.91136" lon="0.14363">
        <ele>2229</ele>
        <time>2020-07-29T09:20:07.023Z</time>
      </trkpt>
      <trkpt lat="42.91134" lon="0.14364">
        <ele>2229</ele>
        <time>2020-07-29T09:20:08.023Z</time>
      </trkpt>
      <trkpt lat="42.91132" lon="0.14365">
        <ele>2229</ele>
        <time>2020-07-29T09:20:09.023Z</time>
      </trkpt>
      <trkpt lat="42.9113" lon="0.14367">
        <ele>2228</ele>
        <time>2020-07-29T09:20:10.023Z</time>
      </trkpt>
      <trkpt lat="42.91128" lon="0.14369">
        <ele>2228</ele>
        <time>2020-07-29T09:20:11.023Z</time>
      </trkpt>
      <trkpt lat="42.91126" lon="0.1437">
        <ele>2228</ele>
        <time>2020-07-29T09:20:12.023Z</time>
      </trkpt>
      <trkpt lat="42.91123" lon="0.14371">
        <ele>2227</ele>
        <time>2020-07-29T09:20:13.023Z</time>
      </trkpt>
      <trkpt lat="42.9112" lon="0.14373">
        <ele>2227</ele>
        <time>2020-07-29T09:20:14.023Z</time>
      </trkpt>
      <trkpt lat="42.91117" lon="0.14374">
        <ele>2227</ele>
        <time>2020-07-29T09:20:15.023Z</time>
      </trkpt>
      <trkpt lat="42.91115" lon="0.14376">
        <ele>2226</ele>
        <time>2020-07-29T09:20:16.023Z</time>
      </trkpt>
      <trkpt lat="42.91112" lon="0.14378">
        <ele>2224</ele>
        <time>2020-07-29T09:20:17.023Z</time>
      </trkpt>
      <trkpt lat="42.9111" lon="0.1438">
        <ele>2223</ele>
        <time>2020-07-29T09:20:18.023Z</time>
      </trkpt>
      <trkpt lat="42.91108" lon="0.14383">
        <ele>2222</ele>
        <time>2020-07-29T09:20:19.023Z</time>
      </trkpt>
      <trkpt lat="42.91105" lon="0.14385">
        <ele>2222</ele>
        <time>2020-07-29T09:20:20.023Z</time>
      </trkpt>
      <trkpt lat="42.91103" lon="0.14388">
        <ele>2221</ele>
        <time>2020-07-29T09:20:21.023Z</time>
      </trkpt>
      <trkpt lat="42.911" lon="0.1439">
        <ele>2221</ele>
        <time>2020-07-29T09:20:22.023Z</time>
      </trkpt>
      <trkpt lat="42.91097" lon="0.14393">
        <ele>2220</ele>
        <time>2020-07-29T09:20:23.023Z</time>
      </trkpt>
      <trkpt lat="42.91094" lon="0.14395">
        <ele>2220</ele>
        <time>2020-07-29T09:20:24.023Z</time>
      </trkpt>
      <trkpt lat="42.91091" lon="0.14397">
        <ele>2220</ele>
        <time>2020-07-29T09:20:25.023Z</time>
      </trkpt>
      <trkpt lat="42.91088" lon="0.14399">
        <ele>2219</ele>
        <time>2020-07-29T09:20:26.023Z</time>
      </trkpt>
      <trkpt lat="42.91085" lon="0.14402">
        <ele>2218</ele>
        <time>2020-07-29T09:20:27.023Z</time>
      </trkpt>
      <trkpt lat="42.91083" lon="0.14404">
        <ele>2217</ele>
        <time>2020-07-29T09:20:28.023Z</time>
      </trkpt>
      <trkpt lat="42.9108" lon="0.14407">
        <ele>2217</ele>
        <time>2020-07-29T09:20:29.023Z</time>
      </trkpt>
      <trkpt lat="42.91077" lon="0.1441">
        <ele>2216</ele>
        <time>2020-07-29T09:20:30.023Z</time>
      </trkpt>
      <trkpt lat="42.91074" lon="0.14412">
        <ele>2215</ele>
        <time>2020-07-29T09:20:31.023Z</time>
      </trkpt>
      <trkpt lat="42.91072" lon="0.14415">
        <ele>2215</ele>
        <time>2020-07-29T09:20:32.023Z</time>
      </trkpt>
      <trkpt lat="42.91069" lon="0.14417">
        <ele>2214</ele>
        <time>2020-07-29T09:20:33.023Z</time>
      </trkpt>
      <trkpt lat="42.91066" lon="0.14419">
        <ele>2212</ele>
        <time>2020-07-29T09:20:34.023Z</time>
      </trkpt>
      <trkpt lat="42.91063" lon="0.14421">
        <ele>2211</ele>
        <time>2020-07-29T09:20:35.023Z</time>
      </trkpt>
      <trkpt lat="42.9106" lon="0.14423">
        <ele>2210</ele>
        <time>2020-07-29T09:20:36.023Z</time>
      </trkpt>
      <trkpt lat="42.91057" lon="0.14425">
        <ele>2209</ele>
        <time>2020-07-29T09:20:37.023Z</time>
      </trkpt>
      <trkpt lat="42.91054" lon="0.14428">
        <ele>2209</ele>
        <time>2020-07-29T09:20:38.023Z</time>
      </trkpt>
      <trkpt lat="42.91051" lon="0.14431">
        <ele>2208</ele>
        <time>2020-07-29T09:20:39.023Z</time>
      </trkpt>
      <trkpt lat="42.91048" lon="0.14433">
        <ele>2207</ele>
        <time>2020-07-29T09:20:40.023Z</time>
      </trkpt>
      <trkpt lat="42.91045" lon="0.14435">
        <ele>2207</ele>
        <time>2020-07-29T09:20:41.023Z</time>
      </trkpt>
      <trkpt lat="42.91043" lon="0.14437">
        <ele>2207</ele>
        <time>2020-07-29T09:20:42.023Z</time>
      </trkpt>
      <trkpt lat="42.9104" lon="0.14439">
        <ele>2207</ele>
        <time>2020-07-29T09:20:43.023Z</time>
      </trkpt>
      <trkpt lat="42.91037" lon="0.14441">
        <ele>2206</ele>
        <time>2020-07-29T09:20:44.023Z</time>
      </trkpt>
      <trkpt lat="42.91034" lon="0.14442">
        <ele>2206</ele>
        <time>2020-07-29T09:20:45.023Z</time>
      </trkpt>
      <trkpt lat="42.91031" lon="0.14444">
        <ele>2206</ele>
        <time>2020-07-29T09:20:46.023Z</time>
      </trkpt>
      <trkpt lat="42.91028" lon="0.14444">
        <ele>2204</ele>
        <time>2020-07-29T09:20:47.023Z</time>
      </trkpt>
      <trkpt lat="42.91024" lon="0.14443">
        <ele>2204</ele>
        <time>2020-07-29T09:20:48.023Z</time>
      </trkpt>
      <trkpt lat="42.91021" lon="0.14442">
        <ele>2204</ele>
        <time>2020-07-29T09:20:49.023Z</time>
      </trkpt>
      <trkpt lat="42.91017" lon="0.1444">
        <ele>2203</ele>
        <time>2020-07-29T09:20:50.023Z</time>
      </trkpt>
      <trkpt lat="42.91014" lon="0.14438">
        <ele>2201</ele>
        <time>2020-07-29T09:20:51.023Z</time>
      </trkpt>
      <trkpt lat="42.91011" lon="0.14435">
        <ele>2200</ele>
        <time>2020-07-29T09:20:52.023Z</time>
      </trkpt>
      <trkpt lat="42.91008" lon="0.14432">
        <ele>2198</ele>
        <time>2020-07-29T09:20:53.023Z</time>
      </trkpt>
      <trkpt lat="42.91005" lon="0.1443">
        <ele>2198</ele>
        <time>2020-07-29T09:20:54.023Z</time>
      </trkpt>
      <trkpt lat="42.91003" lon="0.14426">
        <ele>2198</ele>
        <time>2020-07-29T09:20:55.023Z</time>
      </trkpt>
      <trkpt lat="42.91001" lon="0.14423">
        <ele>2197</ele>
        <time>2020-07-29T09:20:56.023Z</time>
      </trkpt>
      <trkpt lat="42.90999" lon="0.14419">
        <ele>2196</ele>
        <time>2020-07-29T09:20:57.023Z</time>
      </trkpt>
      <trkpt lat="42.90997" lon="0.14415">
        <ele>2195</ele>
        <time>2020-07-29T09:20:58.023Z</time>
      </trkpt>
      <trkpt lat="42.90995" lon="0.1441">
        <ele>2195</ele>
        <time>2020-07-29T09:20:59.023Z</time>
      </trkpt>
      <trkpt lat="42.90994" lon="0.14406">
        <ele>2194</ele>
        <time>2020-07-29T09:21:00.023Z</time>
      </trkpt>
      <trkpt lat="42.90992" lon="0.14402">
        <ele>2193</ele>
        <time>2020-07-29T09:21:01.023Z</time>
      </trkpt>
      <trkpt lat="42.90991" lon="0.14397">
        <ele>2193</ele>
        <time>2020-07-29T09:21:02.023Z</time>
      </trkpt>
      <trkpt lat="42.9099" lon="0.14393">
        <ele>2192</ele>
        <time>2020-07-29T09:21:03.023Z</time>
      </trkpt>
      <trkpt lat="42.90988" lon="0.14389">
        <ele>2191</ele>
        <time>2020-07-29T09:21:04.023Z</time>
      </trkpt>
      <trkpt lat="42.90988" lon="0.14384">
        <ele>2191</ele>
        <time>2020-07-29T09:21:05.023Z</time>
      </trkpt>
      <trkpt lat="42.90987" lon="0.1438">
        <ele>2191</ele>
        <time>2020-07-29T09:21:06.023Z</time>
      </trkpt>
      <trkpt lat="42.90987" lon="0.14375">
        <ele>2191</ele>
        <time>2020-07-29T09:21:07.023Z</time>
      </trkpt>
      <trkpt lat="42.90987" lon="0.14371">
        <ele>2190</ele>
        <time>2020-07-29T09:21:08.023Z</time>
      </trkpt>
      <trkpt lat="42.90986" lon="0.14367">
        <ele>2189</ele>
        <time>2020-07-29T09:21:09.023Z</time>
      </trkpt>
      <trkpt lat="42.90986" lon="0.14362">
        <ele>2189</ele>
        <time>2020-07-29T09:21:10.023Z</time>
      </trkpt>
      <trkpt lat="42.90986" lon="0.14358">
        <ele>2188</ele>
        <time>2020-07-29T09:21:11.023Z</time>
      </trkpt>
      <trkpt lat="42.90986" lon="0.14355">
        <ele>2188</ele>
        <time>2020-07-29T09:21:12.023Z</time>
      </trkpt>
      <trkpt lat="42.90986" lon="0.14351">
        <ele>2187</ele>
        <time>2020-07-29T09:21:13.023Z</time>
      </trkpt>
      <trkpt lat="42.90986" lon="0.14347">
        <ele>2187</ele>
        <time>2020-07-29T09:21:14.023Z</time>
      </trkpt>
      <trkpt lat="42.90986" lon="0.14343">
        <ele>2186</ele>
        <time>2020-07-29T09:21:15.023Z</time>
      </trkpt>
      <trkpt lat="42.90987" lon="0.14339">
        <ele>2186</ele>
        <time>2020-07-29T09:21:16.023Z</time>
      </trkpt>
      <trkpt lat="42.90987" lon="0.14335">
        <ele>2185</ele>
        <time>2020-07-29T09:21:17.023Z</time>
      </trkpt>
      <trkpt lat="42.90986" lon="0.1433">
        <ele>2185</ele>
        <time>2020-07-29T09:21:18.023Z</time>
      </trkpt>
      <trkpt lat="42.90986" lon="0.14325">
        <ele>2184</ele>
        <time>2020-07-29T09:21:19.023Z</time>
      </trkpt>
      <trkpt lat="42.90985" lon="0.14321">
        <ele>2183</ele>
        <time>2020-07-29T09:21:20.023Z</time>
      </trkpt>
      <trkpt lat="42.90985" lon="0.14317">
        <ele>2182</ele>
        <time>2020-07-29T09:21:21.023Z</time>
      </trkpt>
      <trkpt lat="42.90984" lon="0.14313">
        <ele>2181</ele>
        <time>2020-07-29T09:21:22.023Z</time>
      </trkpt>
      <trkpt lat="42.90983" lon="0.14308">
        <ele>2182</ele>
        <time>2020-07-29T09:21:23.023Z</time>
      </trkpt>
      <trkpt lat="42.90983" lon="0.14304">
        <ele>2180</ele>
        <time>2020-07-29T09:21:24.023Z</time>
      </trkpt>
      <trkpt lat="42.90982" lon="0.14299">
        <ele>2179</ele>
        <time>2020-07-29T09:21:25.023Z</time>
      </trkpt>
      <trkpt lat="42.90981" lon="0.14295">
        <ele>2177</ele>
        <time>2020-07-29T09:21:26.023Z</time>
      </trkpt>
      <trkpt lat="42.9098" lon="0.14291">
        <ele>2176</ele>
        <time>2020-07-29T09:21:27.023Z</time>
      </trkpt>
      <trkpt lat="42.90978" lon="0.14287">
        <ele>2175</ele>
        <time>2020-07-29T09:21:28.023Z</time>
      </trkpt>
      <trkpt lat="42.90978" lon="0.14283">
        <ele>2174</ele>
        <time>2020-07-29T09:21:29.023Z</time>
      </trkpt>
      <trkpt lat="42.90977" lon="0.14279">
        <ele>2173</ele>
        <time>2020-07-29T09:21:30.023Z</time>
      </trkpt>
      <trkpt lat="42.90976" lon="0.14274">
        <ele>2172</ele>
        <time>2020-07-29T09:21:31.023Z</time>
      </trkpt>
      <trkpt lat="42.90975" lon="0.1427">
        <ele>2170</ele>
        <time>2020-07-29T09:21:32.023Z</time>
      </trkpt>
      <trkpt lat="42.90974" lon="0.14266">
        <ele>2170</ele>
        <time>2020-07-29T09:21:33.023Z</time>
      </trkpt>
      <trkpt lat="42.90974" lon="0.14261">
        <ele>2169</ele>
        <time>2020-07-29T09:21:34.023Z</time>
      </trkpt>
      <trkpt lat="42.90973" lon="0.14259">
        <ele>2168</ele>
        <time>2020-07-29T09:21:35.023Z</time>
      </trkpt>
      <trkpt lat="42.90972" lon="0.14257">
        <ele>2170</ele>
        <time>2020-07-29T09:21:36.023Z</time>
      </trkpt>
      <trkpt lat="42.90972" lon="0.14256">
        <ele>2169</ele>
        <time>2020-07-29T09:21:37.023Z</time>
      </trkpt>
      <trkpt lat="42.90972" lon="0.14256">
        <ele>2170</ele>
        <time>2020-07-29T09:21:38.023Z</time>
      </trkpt>
      <trkpt lat="42.90973" lon="0.14256">
        <ele>2169</ele>
        <time>2020-07-29T09:21:39.023Z</time>
      </trkpt>
      <trkpt lat="42.90973" lon="0.14257">
        <ele>2168</ele>
        <time>2020-07-29T09:21:40.023Z</time>
      </trkpt>
      <trkpt lat="42.90974" lon="0.14257">
        <ele>2167</ele>
        <time>2020-07-29T09:21:41.023Z</time>
      </trkpt>
      <trkpt lat="42.90974" lon="0.14257">
        <ele>2167</ele>
        <time>2020-07-29T09:21:42.023Z</time>
      </trkpt>
      <trkpt lat="42.90974" lon="0.14257">
        <ele>2167</ele>
        <time>2020-07-29T09:21:43.023Z</time>
      </trkpt>
      <trkpt lat="42.90975" lon="0.14257">
        <ele>2166</ele>
        <time>2020-07-29T09:21:44.023Z</time>
      </trkpt>
      <trkpt lat="42.90975" lon="0.14257">
        <ele>2166</ele>
        <time>2020-07-29T09:21:45.023Z</time>
      </trkpt>
      <trkpt lat="42.90975" lon="0.14258">
        <ele>2166</ele>
        <time>2020-07-29T09:21:46.023Z</time>
      </trkpt>
      <trkpt lat="42.90975" lon="0.14257">
        <ele>2166</ele>
        <time>2020-07-29T09:21:47.023Z</time>
      </trkpt>
      <trkpt lat="42.90975" lon="0.14257">
        <ele>2165</ele>
        <time>2020-07-29T09:21:48.023Z</time>
      </trkpt>
      <trkpt lat="42.90975" lon="0.14256">
        <ele>2166</ele>
        <time>2020-07-29T09:21:49.023Z</time>
      </trkpt>
      <trkpt lat="42.90975" lon="0.14255">
        <ele>2166</ele>
        <time>2020-07-29T09:21:50.023Z</time>
      </trkpt>
      <trkpt lat="42.90976" lon="0.14254">
        <ele>2165</ele>
        <time>2020-07-29T09:21:51.023Z</time>
      </trkpt>
      <trkpt lat="42.90976" lon="0.14253">
        <ele>2165</ele>
        <time>2020-07-29T09:21:52.023Z</time>
      </trkpt>
      <trkpt lat="42.90976" lon="0.14253">
        <ele>2165</ele>
        <time>2020-07-29T09:21:53.023Z</time>
      </trkpt>
      <trkpt lat="42.90976" lon="0.14253">
        <ele>2165</ele>
        <time>2020-07-29T09:21:54.023Z</time>
      </trkpt>
      <trkpt lat="42.90976" lon="0.14253">
        <ele>2165</ele>
        <time>2020-07-29T09:21:55.023Z</time>
      </trkpt>
      <trkpt lat="42.90975" lon="0.14253">
        <ele>2165</ele>
        <time>2020-07-29T09:21:56.023Z</time>
      </trkpt>
      <trkpt lat="42.90975" lon="0.14253">
        <ele>2165</ele>
        <time>2020-07-29T09:21:57.023Z</time>
      </trkpt>
      <trkpt lat="42.90975" lon="0.14253">
        <ele>2165</ele>
        <time>2020-07-29T09:21:58.023Z</time>
      </trkpt>
      <trkpt lat="42.90975" lon="0.14254">
        <ele>2165</ele>
        <time>2020-07-29T09:21:59.023Z</time>
      </trkpt>
      <trkpt lat="42.90975" lon="0.14254">
        <ele>2165</ele>
        <time>2020-07-29T09:22:00.023Z</time>
      </trkpt>
      <trkpt lat="42.90975" lon="0.14254">
        <ele>2165</ele>
        <time>2020-07-29T09:22:01.023Z</time>
      </trkpt>
      <trkpt lat="42.90975" lon="0.14254">
        <ele>2165</ele>
        <time>2020-07-29T09:22:02.023Z</time>
      </trkpt>
      <trkpt lat="42.90975" lon="0.14254">
        <ele>2165</ele>
        <time>2020-07-29T09:22:03.023Z</time>
      </trkpt>
      <trkpt lat="42.90975" lon="0.14254">
        <ele>2165</ele>
        <time>2020-07-29T09:22:04.023Z</time>
      </trkpt>
      <trkpt lat="42.90975" lon="0.14253">
        <ele>2165</ele>
        <time>2020-07-29T09:22:05.023Z</time>
      </trkpt>
      <trkpt lat="42.90975" lon="0.14253">
        <ele>2166</ele>
        <time>2020-07-29T09:22:06.023Z</time>
      </trkpt>
      <trkpt lat="42.90974" lon="0.14253">
        <ele>2167</ele>
        <time>2020-07-29T09:22:07.023Z</time>
      </trkpt>
      <trkpt lat="42.90974" lon="0.14252">
        <ele>2166</ele>
        <time>2020-07-29T09:22:08.023Z</time>
      </trkpt>
      <trkpt lat="42.90974" lon="0.14252">
        <ele>2167</ele>
        <time>2020-07-29T09:22:09.023Z</time>
      </trkpt>
      <trkpt lat="42.90974" lon="0.14252">
        <ele>2167</ele>
        <time>2020-07-29T09:22:10.023Z</time>
      </trkpt>
      <trkpt lat="42.90974" lon="0.14252">
        <ele>2167</ele>
        <time>2020-07-29T09:22:11.023Z</time>
      </trkpt>
      <trkpt lat="42.90974" lon="0.14252">
        <ele>2167</ele>
        <time>2020-07-29T09:22:12.023Z</time>
      </trkpt>
      <trkpt lat="42.90974" lon="0.14252">
        <ele>2167</ele>
        <time>2020-07-29T09:22:13.023Z</time>
      </trkpt>
      <trkpt lat="42.90974" lon="0.14252">
        <ele>2167</ele>
        <time>2020-07-29T09:22:14.023Z</time>
      </trkpt>
      <trkpt lat="42.90974" lon="0.14251">
        <ele>2166</ele>
        <time>2020-07-29T09:22:15.023Z</time>
      </trkpt>
      <trkpt lat="42.90974" lon="0.14251">
        <ele>2166</ele>
        <time>2020-07-29T09:22:16.023Z</time>
      </trkpt>
      <trkpt lat="42.90974" lon="0.14251">
        <ele>2166</ele>
        <time>2020-07-29T09:22:17.023Z</time>
      </trkpt>
      <trkpt lat="42.90974" lon="0.14251">
        <ele>2166</ele>
        <time>2020-07-29T09:22:18.023Z</time>
      </trkpt>
      <trkpt lat="42.90974" lon="0.14251">
        <ele>2166</ele>
        <time>2020-07-29T09:22:19.023Z</time>
      </trkpt>
      <trkpt lat="42.90974" lon="0.14251">
        <ele>2166</ele>
        <time>2020-07-29T09:22:20.023Z</time>
      </trkpt>
      <trkpt lat="42.90974" lon="0.14251">
        <ele>2166</ele>
        <time>2020-07-29T09:22:21.023Z</time>
      </trkpt>
      <trkpt lat="42.90974" lon="0.14251">
        <ele>2166</ele>
        <time>2020-07-29T09:22:22.023Z</time>
      </trkpt>
      <trkpt lat="42.90974" lon="0.14251">
        <ele>2166</ele>
        <time>2020-07-29T09:22:23.023Z</time>
      </trkpt>
      <trkpt lat="42.90974" lon="0.14251">
        <ele>2166</ele>
        <time>2020-07-29T09:22:24.023Z</time>
      </trkpt>
      <trkpt lat="42.90974" lon="0.14251">
        <ele>2166</ele>
        <time>2020-07-29T09:22:25.023Z</time>
      </trkpt>
      <trkpt lat="42.90974" lon="0.14251">
        <ele>2166</ele>
        <time>2020-07-29T09:22:26.023Z</time>
      </trkpt>
      <trkpt lat="42.90974" lon="0.14251">
        <ele>2167</ele>
        <time>2020-07-29T09:22:27.023Z</time>
      </trkpt>
      <trkpt lat="42.90974" lon="0.14251">
        <ele>2167</ele>
        <time>2020-07-29T09:22:28.023Z</time>
      </trkpt>
      <trkpt lat="42.90974" lon="0.14251">
        <ele>2167</ele>
        <time>2020-07-29T09:22:29.023Z</time>
      </trkpt>
      <trkpt lat="42.90974" lon="0.1425">
        <ele>2167</ele>
        <time>2020-07-29T09:22:30.023Z</time>
      </trkpt>
      <trkpt lat="42.90973" lon="0.1425">
        <ele>2166</ele>
        <time>2020-07-29T09:22:31.023Z</time>
      </trkpt>
      <trkpt lat="42.90973" lon="0.1425">
        <ele>2165</ele>
        <time>2020-07-29T09:22:32.023Z</time>
      </trkpt>
      <trkpt lat="42.90971" lon="0.14249">
        <ele>2165</ele>
        <time>2020-07-29T09:22:33.023Z</time>
      </trkpt>
      <trkpt lat="42.9097" lon="0.14247">
        <ele>2164</ele>
        <time>2020-07-29T09:22:34.023Z</time>
      </trkpt>
      <trkpt lat="42.90968" lon="0.14246">
        <ele>2164</ele>
        <time>2020-07-29T09:22:35.023Z</time>
      </trkpt>
      <trkpt lat="42.90966" lon="0.14244">
        <ele>2164</ele>
        <time>2020-07-29T09:22:36.023Z</time>
      </trkpt>
      <trkpt lat="42.90963" lon="0.14242">
        <ele>2163</ele>
        <time>2020-07-29T09:22:37.023Z</time>
      </trkpt>
      <trkpt lat="42.90959" lon="0.1424">
        <ele>2163</ele>
        <time>2020-07-29T09:22:38.023Z</time>
      </trkpt>
      <trkpt lat="42.90956" lon="0.14239">
        <ele>2162</ele>
        <time>2020-07-29T09:22:39.023Z</time>
      </trkpt>
      <trkpt lat="42.90953" lon="0.14238">
        <ele>2162</ele>
        <time>2020-07-29T09:22:40.023Z</time>
      </trkpt>
      <trkpt lat="42.90949" lon="0.14237">
        <ele>2161</ele>
        <time>2020-07-29T09:22:41.023Z</time>
      </trkpt>
      <trkpt lat="42.90946" lon="0.14238">
        <ele>2161</ele>
        <time>2020-07-29T09:22:42.023Z</time>
      </trkpt>
      <trkpt lat="42.90943" lon="0.14239">
        <ele>2161</ele>
        <time>2020-07-29T09:22:43.023Z</time>
      </trkpt>
      <trkpt lat="42.90941" lon="0.14241">
        <ele>2160</ele>
        <time>2020-07-29T09:22:44.023Z</time>
      </trkpt>
      <trkpt lat="42.90938" lon="0.14244">
        <ele>2160</ele>
        <time>2020-07-29T09:22:45.023Z</time>
      </trkpt>
      <trkpt lat="42.90936" lon="0.14247">
        <ele>2158</ele>
        <time>2020-07-29T09:22:46.023Z</time>
      </trkpt>
      <trkpt lat="42.90935" lon="0.1425">
        <ele>2158</ele>
        <time>2020-07-29T09:22:47.023Z</time>
      </trkpt>
      <trkpt lat="42.90934" lon="0.14254">
        <ele>2157</ele>
        <time>2020-07-29T09:22:48.023Z</time>
      </trkpt>
      <trkpt lat="42.90933" lon="0.14258">
        <ele>2156</ele>
        <time>2020-07-29T09:22:49.023Z</time>
      </trkpt>
      <trkpt lat="42.90932" lon="0.14261">
        <ele>2155</ele>
        <time>2020-07-29T09:22:50.023Z</time>
      </trkpt>
      <trkpt lat="42.9093" lon="0.14265">
        <ele>2155</ele>
        <time>2020-07-29T09:22:51.023Z</time>
      </trkpt>
      <trkpt lat="42.90929" lon="0.14268">
        <ele>2154</ele>
        <time>2020-07-29T09:22:52.023Z</time>
      </trkpt>
      <trkpt lat="42.90928" lon="0.14272">
        <ele>2153</ele>
        <time>2020-07-29T09:22:53.023Z</time>
      </trkpt>
      <trkpt lat="42.90928" lon="0.14276">
        <ele>2153</ele>
        <time>2020-07-29T09:22:54.023Z</time>
      </trkpt>
      <trkpt lat="42.90927" lon="0.1428">
        <ele>2153</ele>
        <time>2020-07-29T09:22:55.023Z</time>
      </trkpt>
      <trkpt lat="42.90926" lon="0.14284">
        <ele>2152</ele>
        <time>2020-07-29T09:22:56.023Z</time>
      </trkpt>
      <trkpt lat="42.90926" lon="0.14288">
        <ele>2151</ele>
        <time>2020-07-29T09:22:57.023Z</time>
      </trkpt>
      <trkpt lat="42.90925" lon="0.14293">
        <ele>2150</ele>
        <time>2020-07-29T09:22:58.023Z</time>
      </trkpt>
      <trkpt lat="42.90925" lon="0.14297">
        <ele>2149</ele>
        <time>2020-07-29T09:22:59.023Z</time>
      </trkpt>
      <trkpt lat="42.90924" lon="0.14302">
        <ele>2149</ele>
        <time>2020-07-29T09:23:00.023Z</time>
      </trkpt>
      <trkpt lat="42.90924" lon="0.14306">
        <ele>2148</ele>
        <time>2020-07-29T09:23:01.023Z</time>
      </trkpt>
      <trkpt lat="42.90924" lon="0.1431">
        <ele>2148</ele>
        <time>2020-07-29T09:23:02.023Z</time>
      </trkpt>
      <trkpt lat="42.90923" lon="0.14314">
        <ele>2148</ele>
        <time>2020-07-29T09:23:03.023Z</time>
      </trkpt>
      <trkpt lat="42.90923" lon="0.14318">
        <ele>2147</ele>
        <time>2020-07-29T09:23:04.023Z</time>
      </trkpt>
      <trkpt lat="42.90922" lon="0.14322">
        <ele>2147</ele>
        <time>2020-07-29T09:23:05.023Z</time>
      </trkpt>
      <trkpt lat="42.90921" lon="0.14326">
        <ele>2146</ele>
        <time>2020-07-29T09:23:06.023Z</time>
      </trkpt>
      <trkpt lat="42.90919" lon="0.1433">
        <ele>2145</ele>
        <time>2020-07-29T09:23:07.023Z</time>
      </trkpt>
      <trkpt lat="42.90918" lon="0.14334">
        <ele>2144</ele>
        <time>2020-07-29T09:23:08.023Z</time>
      </trkpt>
      <trkpt lat="42.90916" lon="0.14338">
        <ele>2143</ele>
        <time>2020-07-29T09:23:09.023Z</time>
      </trkpt>
      <trkpt lat="42.90915" lon="0.14341">
        <ele>2143</ele>
        <time>2020-07-29T09:23:10.023Z</time>
      </trkpt>
      <trkpt lat="42.90913" lon="0.14345">
        <ele>2142</ele>
        <time>2020-07-29T09:23:11.023Z</time>
      </trkpt>
      <trkpt lat="42.90912" lon="0.14349">
        <ele>2141</ele>
        <time>2020-07-29T09:23:12.023Z</time>
      </trkpt>
      <trkpt lat="42.90911" lon="0.14353">
        <ele>2141</ele>
        <time>2020-07-29T09:23:13.023Z</time>
      </trkpt>
      <trkpt lat="42.90909" lon="0.14356">
        <ele>2140</ele>
        <time>2020-07-29T09:23:14.023Z</time>
      </trkpt>
      <trkpt lat="42.90908" lon="0.1436">
        <ele>2139</ele>
        <time>2020-07-29T09:23:15.023Z</time>
      </trkpt>
      <trkpt lat="42.90907" lon="0.14364">
        <ele>2139</ele>
        <time>2020-07-29T09:23:16.023Z</time>
      </trkpt>
      <trkpt lat="42.90905" lon="0.14368">
        <ele>2138</ele>
        <time>2020-07-29T09:23:17.023Z</time>
      </trkpt>
      <trkpt lat="42.90903" lon="0.14372">
        <ele>2138</ele>
        <time>2020-07-29T09:23:18.023Z</time>
      </trkpt>
      <trkpt lat="42.90901" lon="0.14376">
        <ele>2137</ele>
        <time>2020-07-29T09:23:19.023Z</time>
      </trkpt>
      <trkpt lat="42.909" lon="0.14379">
        <ele>2136</ele>
        <time>2020-07-29T09:23:20.023Z</time>
      </trkpt>
      <trkpt lat="42.90898" lon="0.14383">
        <ele>2136</ele>
        <time>2020-07-29T09:23:21.023Z</time>
      </trkpt>
      <trkpt lat="42.90896" lon="0.14386">
        <ele>2134</ele>
        <time>2020-07-29T09:23:22.023Z</time>
      </trkpt>
      <trkpt lat="42.90895" lon="0.1439">
        <ele>2135</ele>
        <time>2020-07-29T09:23:23.023Z</time>
      </trkpt>
      <trkpt lat="42.90893" lon="0.14394">
        <ele>2134</ele>
        <time>2020-07-29T09:23:24.023Z</time>
      </trkpt>
      <trkpt lat="42.90891" lon="0.14397">
        <ele>2133</ele>
        <time>2020-07-29T09:23:25.023Z</time>
      </trkpt>
      <trkpt lat="42.90889" lon="0.14401">
        <ele>2133</ele>
        <time>2020-07-29T09:23:26.023Z</time>
      </trkpt>
      <trkpt lat="42.90887" lon="0.14404">
        <ele>2132</ele>
        <time>2020-07-29T09:23:27.023Z</time>
      </trkpt>
      <trkpt lat="42.90886" lon="0.14408">
        <ele>2131</ele>
        <time>2020-07-29T09:23:28.023Z</time>
      </trkpt>
      <trkpt lat="42.90884" lon="0.14412">
        <ele>2130</ele>
        <time>2020-07-29T09:23:29.023Z</time>
      </trkpt>
      <trkpt lat="42.90882" lon="0.14416">
        <ele>2129</ele>
        <time>2020-07-29T09:23:30.023Z</time>
      </trkpt>
      <trkpt lat="42.90881" lon="0.14419">
        <ele>2129</ele>
        <time>2020-07-29T09:23:31.023Z</time>
      </trkpt>
      <trkpt lat="42.90879" lon="0.14423">
        <ele>2128</ele>
        <time>2020-07-29T09:23:32.023Z</time>
      </trkpt>
      <trkpt lat="42.90878" lon="0.14427">
        <ele>2127</ele>
        <time>2020-07-29T09:23:33.023Z</time>
      </trkpt>
      <trkpt lat="42.90876" lon="0.1443">
        <ele>2127</ele>
        <time>2020-07-29T09:23:34.023Z</time>
      </trkpt>
      <trkpt lat="42.90874" lon="0.14434">
        <ele>2125</ele>
        <time>2020-07-29T09:23:35.023Z</time>
      </trkpt>
      <trkpt lat="42.90872" lon="0.14437">
        <ele>2125</ele>
        <time>2020-07-29T09:23:36.023Z</time>
      </trkpt>
      <trkpt lat="42.9087" lon="0.14441">
        <ele>2124</ele>
        <time>2020-07-29T09:23:37.023Z</time>
      </trkpt>
      <trkpt lat="42.90868" lon="0.14444">
        <ele>2123</ele>
        <time>2020-07-29T09:23:38.023Z</time>
      </trkpt>
      <trkpt lat="42.90866" lon="0.14447">
        <ele>2123</ele>
        <time>2020-07-29T09:23:39.023Z</time>
      </trkpt>
      <trkpt lat="42.90863" lon="0.14451">
        <ele>2123</ele>
        <time>2020-07-29T09:23:40.023Z</time>
      </trkpt>
      <trkpt lat="42.9086" lon="0.14453">
        <ele>2122</ele>
        <time>2020-07-29T09:23:41.023Z</time>
      </trkpt>
      <trkpt lat="42.90857" lon="0.14456">
        <ele>2121</ele>
        <time>2020-07-29T09:23:42.023Z</time>
      </trkpt>
      <trkpt lat="42.90854" lon="0.14458">
        <ele>2120</ele>
        <time>2020-07-29T09:23:43.023Z</time>
      </trkpt>
      <trkpt lat="42.90851" lon="0.14459">
        <ele>2119</ele>
        <time>2020-07-29T09:23:44.023Z</time>
      </trkpt>
      <trkpt lat="42.90847" lon="0.1446">
        <ele>2118</ele>
        <time>2020-07-29T09:23:45.023Z</time>
      </trkpt>
      <trkpt lat="42.90846" lon="0.14541">
        <ele>2119</ele>
        <time>2020-07-29T09:23:46.089Z</time>
      </trkpt>
      <trkpt lat="42.90846" lon="0.14542">
        <ele>2119</ele>
        <time>2020-07-29T09:23:47.089Z</time>
      </trkpt>
      <trkpt lat="42.90847" lon="0.14543">
        <ele>2119</ele>
        <time>2020-07-29T09:23:48.089Z</time>
      </trkpt>
      <trkpt lat="42.90848" lon="0.14545">
        <ele>2119</ele>
        <time>2020-07-29T09:23:49.089Z</time>
      </trkpt>
      <trkpt lat="42.90848" lon="0.14547">
        <ele>2119</ele>
        <time>2020-07-29T09:23:50.089Z</time>
      </trkpt>
      <trkpt lat="42.90849" lon="0.14549">
        <ele>2118</ele>
        <time>2020-07-29T09:23:51.089Z</time>
      </trkpt>
      <trkpt lat="42.9085" lon="0.14552">
        <ele>2118</ele>
        <time>2020-07-29T09:23:52.089Z</time>
      </trkpt>
      <trkpt lat="42.90852" lon="0.14555">
        <ele>2117</ele>
        <time>2020-07-29T09:23:53.089Z</time>
      </trkpt>
      <trkpt lat="42.90853" lon="0.14558">
        <ele>2116</ele>
        <time>2020-07-29T09:23:54.089Z</time>
      </trkpt>
      <trkpt lat="42.90855" lon="0.14562">
        <ele>2115</ele>
        <time>2020-07-29T09:23:55.089Z</time>
      </trkpt>
      <trkpt lat="42.90857" lon="0.14566">
        <ele>2116</ele>
        <time>2020-07-29T09:23:56.089Z</time>
      </trkpt>
      <trkpt lat="42.90858" lon="0.14571">
        <ele>2117</ele>
        <time>2020-07-29T09:23:57.089Z</time>
      </trkpt>
      <trkpt lat="42.90859" lon="0.14576">
        <ele>2119</ele>
        <time>2020-07-29T09:23:58.089Z</time>
      </trkpt>
      <trkpt lat="42.9086" lon="0.14581">
        <ele>2120</ele>
        <time>2020-07-29T09:23:59.089Z</time>
      </trkpt>
      <trkpt lat="42.90861" lon="0.14586">
        <ele>2119</ele>
        <time>2020-07-29T09:24:00.089Z</time>
      </trkpt>
      <trkpt lat="42.90862" lon="0.1459">
        <ele>2120</ele>
        <time>2020-07-29T09:24:01.089Z</time>
      </trkpt>
      <trkpt lat="42.90861" lon="0.14595">
        <ele>2120</ele>
        <time>2020-07-29T09:24:02.089Z</time>
      </trkpt>
      <trkpt lat="42.90861" lon="0.14599">
        <ele>2119</ele>
        <time>2020-07-29T09:24:03.089Z</time>
      </trkpt>
      <trkpt lat="42.9086" lon="0.14603">
        <ele>2119</ele>
        <time>2020-07-29T09:24:04.089Z</time>
      </trkpt>
      <trkpt lat="42.90859" lon="0.14607">
        <ele>2119</ele>
        <time>2020-07-29T09:24:05.089Z</time>
      </trkpt>
      <trkpt lat="42.90858" lon="0.1461">
        <ele>2119</ele>
        <time>2020-07-29T09:24:06.089Z</time>
      </trkpt>
      <trkpt lat="42.90856" lon="0.14613">
        <ele>2119</ele>
        <time>2020-07-29T09:24:07.089Z</time>
      </trkpt>
      <trkpt lat="42.90854" lon="0.14617">
        <ele>2117</ele>
        <time>2020-07-29T09:24:08.089Z</time>
      </trkpt>
      <trkpt lat="42.90851" lon="0.1462">
        <ele>2116</ele>
        <time>2020-07-29T09:24:09.089Z</time>
      </trkpt>
      <trkpt lat="42.90849" lon="0.14623">
        <ele>2114</ele>
        <time>2020-07-29T09:24:10.089Z</time>
      </trkpt>
      <trkpt lat="42.90846" lon="0.14627">
        <ele>2113</ele>
        <time>2020-07-29T09:24:11.089Z</time>
      </trkpt>
      <trkpt lat="42.90844" lon="0.1463">
        <ele>2112</ele>
        <time>2020-07-29T09:24:12.089Z</time>
      </trkpt>
      <trkpt lat="42.90842" lon="0.14633">
        <ele>2112</ele>
        <time>2020-07-29T09:24:13.089Z</time>
      </trkpt>
      <trkpt lat="42.90839" lon="0.14636">
        <ele>2111</ele>
        <time>2020-07-29T09:24:14.089Z</time>
      </trkpt>
      <trkpt lat="42.90837" lon="0.14639">
        <ele>2110</ele>
        <time>2020-07-29T09:24:15.089Z</time>
      </trkpt>
      <trkpt lat="42.90835" lon="0.14642">
        <ele>2109</ele>
        <time>2020-07-29T09:24:16.089Z</time>
      </trkpt>
      <trkpt lat="42.90832" lon="0.14645">
        <ele>2109</ele>
        <time>2020-07-29T09:24:17.089Z</time>
      </trkpt>
      <trkpt lat="42.90829" lon="0.14648">
        <ele>2108</ele>
        <time>2020-07-29T09:24:18.089Z</time>
      </trkpt>
      <trkpt lat="42.90827" lon="0.14651">
        <ele>2107</ele>
        <time>2020-07-29T09:24:19.089Z</time>
      </trkpt>
      <trkpt lat="42.90825" lon="0.14654">
        <ele>2107</ele>
        <time>2020-07-29T09:24:20.089Z</time>
      </trkpt>
      <trkpt lat="42.90822" lon="0.14657">
        <ele>2105</ele>
        <time>2020-07-29T09:24:21.089Z</time>
      </trkpt>
      <trkpt lat="42.9082" lon="0.14659">
        <ele>2105</ele>
        <time>2020-07-29T09:24:22.089Z</time>
      </trkpt>
      <trkpt lat="42.90818" lon="0.14662">
        <ele>2104</ele>
        <time>2020-07-29T09:24:23.089Z</time>
      </trkpt>
      <trkpt lat="42.90816" lon="0.14664">
        <ele>2106</ele>
        <time>2020-07-29T09:24:24.089Z</time>
      </trkpt>
      <trkpt lat="42.90815" lon="0.14665">
        <ele>2107</ele>
        <time>2020-07-29T09:24:25.089Z</time>
      </trkpt>
      <trkpt lat="42.90814" lon="0.14667">
        <ele>2107</ele>
        <time>2020-07-29T09:24:26.089Z</time>
      </trkpt>
      <trkpt lat="42.90813" lon="0.14668">
        <ele>2108</ele>
        <time>2020-07-29T09:24:27.089Z</time>
      </trkpt>
      <trkpt lat="42.90811" lon="0.14671">
        <ele>2108</ele>
        <time>2020-07-29T09:24:28.089Z</time>
      </trkpt>
      <trkpt lat="42.90809" lon="0.14673">
        <ele>2108</ele>
        <time>2020-07-29T09:24:29.089Z</time>
      </trkpt>
      <trkpt lat="42.90807" lon="0.14676">
        <ele>2108</ele>
        <time>2020-07-29T09:24:30.089Z</time>
      </trkpt>
      <trkpt lat="42.90805" lon="0.14679">
        <ele>2107</ele>
        <time>2020-07-29T09:24:31.089Z</time>
      </trkpt>
      <trkpt lat="42.90802" lon="0.14682">
        <ele>2107</ele>
        <time>2020-07-29T09:24:32.089Z</time>
      </trkpt>
      <trkpt lat="42.908" lon="0.14686">
        <ele>2107</ele>
        <time>2020-07-29T09:24:33.089Z</time>
      </trkpt>
      <trkpt lat="42.90797" lon="0.1469">
        <ele>2107</ele>
        <time>2020-07-29T09:24:34.089Z</time>
      </trkpt>
      <trkpt lat="42.90794" lon="0.14693">
        <ele>2107</ele>
        <time>2020-07-29T09:24:35.089Z</time>
      </trkpt>
      <trkpt lat="42.90791" lon="0.14697">
        <ele>2106</ele>
        <time>2020-07-29T09:24:36.089Z</time>
      </trkpt>
      <trkpt lat="42.90788" lon="0.14701">
        <ele>2106</ele>
        <time>2020-07-29T09:24:37.089Z</time>
      </trkpt>
      <trkpt lat="42.90786" lon="0.14704">
        <ele>2106</ele>
        <time>2020-07-29T09:24:38.089Z</time>
      </trkpt>
      <trkpt lat="42.90783" lon="0.14708">
        <ele>2105</ele>
        <time>2020-07-29T09:24:39.089Z</time>
      </trkpt>
      <trkpt lat="42.9078" lon="0.14711">
        <ele>2105</ele>
        <time>2020-07-29T09:24:40.089Z</time>
      </trkpt>
      <trkpt lat="42.90778" lon="0.14715">
        <ele>2104</ele>
        <time>2020-07-29T09:24:41.089Z</time>
      </trkpt>
      <trkpt lat="42.90775" lon="0.14718">
        <ele>2103</ele>
        <time>2020-07-29T09:24:42.089Z</time>
      </trkpt>
      <trkpt lat="42.90773" lon="0.14721">
        <ele>2103</ele>
        <time>2020-07-29T09:24:43.089Z</time>
      </trkpt>
      <trkpt lat="42.9077" lon="0.14724">
        <ele>2103</ele>
        <time>2020-07-29T09:24:44.089Z</time>
      </trkpt>
      <trkpt lat="42.90768" lon="0.14727">
        <ele>2102</ele>
        <time>2020-07-29T09:24:45.089Z</time>
      </trkpt>
      <trkpt lat="42.90765" lon="0.1473">
        <ele>2101</ele>
        <time>2020-07-29T09:24:46.089Z</time>
      </trkpt>
      <trkpt lat="42.90763" lon="0.14733">
        <ele>2102</ele>
        <time>2020-07-29T09:24:47.089Z</time>
      </trkpt>
      <trkpt lat="42.9076" lon="0.14737">
        <ele>2102</ele>
        <time>2020-07-29T09:24:48.089Z</time>
      </trkpt>
      <trkpt lat="42.90757" lon="0.1474">
        <ele>2101</ele>
        <time>2020-07-29T09:24:49.089Z</time>
      </trkpt>
      <trkpt lat="42.90755" lon="0.14743">
        <ele>2100</ele>
        <time>2020-07-29T09:24:50.089Z</time>
      </trkpt>
      <trkpt lat="42.90752" lon="0.14746">
        <ele>2099</ele>
        <time>2020-07-29T09:24:51.089Z</time>
      </trkpt>
      <trkpt lat="42.9075" lon="0.14749">
        <ele>2099</ele>
        <time>2020-07-29T09:24:52.089Z</time>
      </trkpt>
      <trkpt lat="42.90748" lon="0.14752">
        <ele>2098</ele>
        <time>2020-07-29T09:24:53.089Z</time>
      </trkpt>
      <trkpt lat="42.90745" lon="0.14754">
        <ele>2098</ele>
        <time>2020-07-29T09:24:54.089Z</time>
      </trkpt>
      <trkpt lat="42.90742" lon="0.14757">
        <ele>2096</ele>
        <time>2020-07-29T09:24:55.089Z</time>
      </trkpt>
      <trkpt lat="42.90739" lon="0.14759">
        <ele>2095</ele>
        <time>2020-07-29T09:24:56.089Z</time>
      </trkpt>
      <trkpt lat="42.90735" lon="0.14761">
        <ele>2095</ele>
        <time>2020-07-29T09:24:57.089Z</time>
      </trkpt>
      <trkpt lat="42.90732" lon="0.14763">
        <ele>2095</ele>
        <time>2020-07-29T09:24:58.089Z</time>
      </trkpt>
      <trkpt lat="42.90729" lon="0.14764">
        <ele>2094</ele>
        <time>2020-07-29T09:24:59.089Z</time>
      </trkpt>
      <trkpt lat="42.90725" lon="0.14765">
        <ele>2094</ele>
        <time>2020-07-29T09:25:00.089Z</time>
      </trkpt>
      <trkpt lat="42.90722" lon="0.14766">
        <ele>2093</ele>
        <time>2020-07-29T09:25:01.089Z</time>
      </trkpt>
      <trkpt lat="42.90719" lon="0.14767">
        <ele>2092</ele>
        <time>2020-07-29T09:25:02.089Z</time>
      </trkpt>
      <trkpt lat="42.90715" lon="0.14769">
        <ele>2093</ele>
        <time>2020-07-29T09:25:03.089Z</time>
      </trkpt>
      <trkpt lat="42.90712" lon="0.1477">
        <ele>2092</ele>
        <time>2020-07-29T09:25:04.089Z</time>
      </trkpt>
      <trkpt lat="42.90708" lon="0.14771">
        <ele>2093</ele>
        <time>2020-07-29T09:25:05.089Z</time>
      </trkpt>
      <trkpt lat="42.90705" lon="0.14772">
        <ele>2093</ele>
        <time>2020-07-29T09:25:06.089Z</time>
      </trkpt>
      <trkpt lat="42.90702" lon="0.14774">
        <ele>2092</ele>
        <time>2020-07-29T09:25:07.089Z</time>
      </trkpt>
      <trkpt lat="42.90698" lon="0.14775">
        <ele>2092</ele>
        <time>2020-07-29T09:25:08.089Z</time>
      </trkpt>
      <trkpt lat="42.90695" lon="0.14777">
        <ele>2092</ele>
        <time>2020-07-29T09:25:09.089Z</time>
      </trkpt>
      <trkpt lat="42.90691" lon="0.14778">
        <ele>2091</ele>
        <time>2020-07-29T09:25:10.089Z</time>
      </trkpt>
      <trkpt lat="42.90688" lon="0.14779">
        <ele>2090</ele>
        <time>2020-07-29T09:25:11.089Z</time>
      </trkpt>
      <trkpt lat="42.90684" lon="0.14779">
        <ele>2089</ele>
        <time>2020-07-29T09:25:12.089Z</time>
      </trkpt>
      <trkpt lat="42.9068" lon="0.1478">
        <ele>2089</ele>
        <time>2020-07-29T09:25:13.089Z</time>
      </trkpt>
      <trkpt lat="42.90677" lon="0.14781">
        <ele>2089</ele>
        <time>2020-07-29T09:25:14.089Z</time>
      </trkpt>
      <trkpt lat="42.90673" lon="0.14782">
        <ele>2088</ele>
        <time>2020-07-29T09:25:15.089Z</time>
      </trkpt>
      <trkpt lat="42.9067" lon="0.14783">
        <ele>2087</ele>
        <time>2020-07-29T09:25:16.089Z</time>
      </trkpt>
      <trkpt lat="42.90667" lon="0.14784">
        <ele>2087</ele>
        <time>2020-07-29T09:25:17.089Z</time>
      </trkpt>
      <trkpt lat="42.90664" lon="0.14785">
        <ele>2086</ele>
        <time>2020-07-29T09:25:18.089Z</time>
      </trkpt>
      <trkpt lat="42.9066" lon="0.14786">
        <ele>2086</ele>
        <time>2020-07-29T09:25:19.089Z</time>
      </trkpt>
      <trkpt lat="42.90657" lon="0.14787">
        <ele>2084</ele>
        <time>2020-07-29T09:25:20.089Z</time>
      </trkpt>
      <trkpt lat="42.90653" lon="0.14788">
        <ele>2083</ele>
        <time>2020-07-29T09:25:21.089Z</time>
      </trkpt>
      <trkpt lat="42.9065" lon="0.14788">
        <ele>2082</ele>
        <time>2020-07-29T09:25:22.089Z</time>
      </trkpt>
      <trkpt lat="42.90646" lon="0.14788">
        <ele>2082</ele>
        <time>2020-07-29T09:25:23.089Z</time>
      </trkpt>
      <trkpt lat="42.90643" lon="0.14789">
        <ele>2082</ele>
        <time>2020-07-29T09:25:24.089Z</time>
      </trkpt>
      <trkpt lat="42.9064" lon="0.1479">
        <ele>2082</ele>
        <time>2020-07-29T09:25:25.089Z</time>
      </trkpt>
      <trkpt lat="42.90637" lon="0.14791">
        <ele>2082</ele>
        <time>2020-07-29T09:25:26.089Z</time>
      </trkpt>
      <trkpt lat="42.90634" lon="0.14792">
        <ele>2081</ele>
        <time>2020-07-29T09:25:27.089Z</time>
      </trkpt>
      <trkpt lat="42.90631" lon="0.14793">
        <ele>2080</ele>
        <time>2020-07-29T09:25:28.089Z</time>
      </trkpt>
      <trkpt lat="42.90628" lon="0.14794">
        <ele>2079</ele>
        <time>2020-07-29T09:25:29.089Z</time>
      </trkpt>
      <trkpt lat="42.90625" lon="0.14796">
        <ele>2079</ele>
        <time>2020-07-29T09:25:30.089Z</time>
      </trkpt>
      <trkpt lat="42.90622" lon="0.14798">
        <ele>2079</ele>
        <time>2020-07-29T09:25:31.089Z</time>
      </trkpt>
      <trkpt lat="42.90619" lon="0.148">
        <ele>2080</ele>
        <time>2020-07-29T09:25:32.089Z</time>
      </trkpt>
      <trkpt lat="42.90615" lon="0.14801">
        <ele>2079</ele>
        <time>2020-07-29T09:25:33.089Z</time>
      </trkpt>
      <trkpt lat="42.90612" lon="0.14803">
        <ele>2078</ele>
        <time>2020-07-29T09:25:34.089Z</time>
      </trkpt>
      <trkpt lat="42.9061" lon="0.14805">
        <ele>2076</ele>
        <time>2020-07-29T09:25:35.089Z</time>
      </trkpt>
      <trkpt lat="42.90607" lon="0.14807">
        <ele>2076</ele>
        <time>2020-07-29T09:25:36.089Z</time>
      </trkpt>
      <trkpt lat="42.90605" lon="0.1481">
        <ele>2077</ele>
        <time>2020-07-29T09:25:37.089Z</time>
      </trkpt>
      <trkpt lat="42.90603" lon="0.14814">
        <ele>2075</ele>
        <time>2020-07-29T09:25:38.089Z</time>
      </trkpt>
      <trkpt lat="42.90603" lon="0.14818">
        <ele>2072</ele>
        <time>2020-07-29T09:25:39.089Z</time>
      </trkpt>
      <trkpt lat="42.90603" lon="0.14822">
        <ele>2073</ele>
        <time>2020-07-29T09:25:40.089Z</time>
      </trkpt>
      <trkpt lat="42.90603" lon="0.14825">
        <ele>2072</ele>
        <time>2020-07-29T09:25:41.089Z</time>
      </trkpt>
      <trkpt lat="42.90605" lon="0.14827">
        <ele>2072</ele>
        <time>2020-07-29T09:25:42.089Z</time>
      </trkpt>
      <trkpt lat="42.90606" lon="0.14829">
        <ele>2069</ele>
        <time>2020-07-29T09:25:43.089Z</time>
      </trkpt>
      <trkpt lat="42.90608" lon="0.14829">
        <ele>2067</ele>
        <time>2020-07-29T09:25:44.089Z</time>
      </trkpt>
      <trkpt lat="42.90611" lon="0.14828">
        <ele>2068</ele>
        <time>2020-07-29T09:25:45.089Z</time>
      </trkpt>
      <trkpt lat="42.90615" lon="0.14827">
        <ele>2069</ele>
        <time>2020-07-29T09:25:46.089Z</time>
      </trkpt>
      <trkpt lat="42.90618" lon="0.14825">
        <ele>2069</ele>
        <time>2020-07-29T09:25:47.089Z</time>
      </trkpt>
      <trkpt lat="42.90622" lon="0.14824">
        <ele>2069</ele>
        <time>2020-07-29T09:25:48.089Z</time>
      </trkpt>
      <trkpt lat="42.90626" lon="0.14823">
        <ele>2068</ele>
        <time>2020-07-29T09:25:49.089Z</time>
      </trkpt>
      <trkpt lat="42.90629" lon="0.14822">
        <ele>2068</ele>
        <time>2020-07-29T09:25:50.089Z</time>
      </trkpt>
      <trkpt lat="42.90633" lon="0.14821">
        <ele>2067</ele>
        <time>2020-07-29T09:25:51.089Z</time>
      </trkpt>
      <trkpt lat="42.90636" lon="0.1482">
        <ele>2067</ele>
        <time>2020-07-29T09:25:52.089Z</time>
      </trkpt>
      <trkpt lat="42.90639" lon="0.1482">
        <ele>2066</ele>
        <time>2020-07-29T09:25:53.089Z</time>
      </trkpt>
      <trkpt lat="42.90643" lon="0.1482">
        <ele>2066</ele>
        <time>2020-07-29T09:25:54.089Z</time>
      </trkpt>
      <trkpt lat="42.90646" lon="0.14821">
        <ele>2065</ele>
        <time>2020-07-29T09:25:55.089Z</time>
      </trkpt>
      <trkpt lat="42.90649" lon="0.14821">
        <ele>2064</ele>
        <time>2020-07-29T09:25:56.089Z</time>
      </trkpt>
      <trkpt lat="42.90653" lon="0.14822">
        <ele>2064</ele>
        <time>2020-07-29T09:25:57.089Z</time>
      </trkpt>
      <trkpt lat="42.90657" lon="0.14823">
        <ele>2064</ele>
        <time>2020-07-29T09:25:58.089Z</time>
      </trkpt>
      <trkpt lat="42.9066" lon="0.14824">
        <ele>2065</ele>
        <time>2020-07-29T09:25:59.089Z</time>
      </trkpt>
      <trkpt lat="42.90664" lon="0.14826">
        <ele>2064</ele>
        <time>2020-07-29T09:26:00.089Z</time>
      </trkpt>
      <trkpt lat="42.90667" lon="0.14828">
        <ele>2064</ele>
        <time>2020-07-29T09:26:01.089Z</time>
      </trkpt>
      <trkpt lat="42.90671" lon="0.14829">
        <ele>2064</ele>
        <time>2020-07-29T09:26:02.089Z</time>
      </trkpt>
      <trkpt lat="42.90674" lon="0.1483">
        <ele>2064</ele>
        <time>2020-07-29T09:26:03.089Z</time>
      </trkpt>
      <trkpt lat="42.90677" lon="0.14831">
        <ele>2064</ele>
        <time>2020-07-29T09:26:04.089Z</time>
      </trkpt>
      <trkpt lat="42.90681" lon="0.14833">
        <ele>2064</ele>
        <time>2020-07-29T09:26:05.089Z</time>
      </trkpt>
      <trkpt lat="42.90684" lon="0.14834">
        <ele>2064</ele>
        <time>2020-07-29T09:26:06.089Z</time>
      </trkpt>
      <trkpt lat="42.90687" lon="0.14836">
        <ele>2065</ele>
        <time>2020-07-29T09:26:07.089Z</time>
      </trkpt>
      <trkpt lat="42.90691" lon="0.14838">
        <ele>2065</ele>
        <time>2020-07-29T09:26:08.089Z</time>
      </trkpt>
      <trkpt lat="42.90694" lon="0.1484">
        <ele>2065</ele>
        <time>2020-07-29T09:26:09.089Z</time>
      </trkpt>
      <trkpt lat="42.90697" lon="0.14843">
        <ele>2065</ele>
        <time>2020-07-29T09:26:10.089Z</time>
      </trkpt>
      <trkpt lat="42.90701" lon="0.14845">
        <ele>2066</ele>
        <time>2020-07-29T09:26:11.089Z</time>
      </trkpt>
      <trkpt lat="42.90705" lon="0.14848">
        <ele>2066</ele>
        <time>2020-07-29T09:26:12.089Z</time>
      </trkpt>
      <trkpt lat="42.90708" lon="0.1485">
        <ele>2064</ele>
        <time>2020-07-29T09:26:13.089Z</time>
      </trkpt>
      <trkpt lat="42.90711" lon="0.14852">
        <ele>2064</ele>
        <time>2020-07-29T09:26:14.089Z</time>
      </trkpt>
      <trkpt lat="42.90714" lon="0.14854">
        <ele>2064</ele>
        <time>2020-07-29T09:26:15.089Z</time>
      </trkpt>
      <trkpt lat="42.90717" lon="0.14857">
        <ele>2064</ele>
        <time>2020-07-29T09:26:16.089Z</time>
      </trkpt>
      <trkpt lat="42.9072" lon="0.14859">
        <ele>2063</ele>
        <time>2020-07-29T09:26:17.089Z</time>
      </trkpt>
      <trkpt lat="42.90723" lon="0.14861">
        <ele>2063</ele>
        <time>2020-07-29T09:26:18.089Z</time>
      </trkpt>
      <trkpt lat="42.90727" lon="0.14863">
        <ele>2062</ele>
        <time>2020-07-29T09:26:19.089Z</time>
      </trkpt>
      <trkpt lat="42.9073" lon="0.14865">
        <ele>2063</ele>
        <time>2020-07-29T09:26:20.089Z</time>
      </trkpt>
      <trkpt lat="42.90733" lon="0.14867">
        <ele>2063</ele>
        <time>2020-07-29T09:26:21.089Z</time>
      </trkpt>
      <trkpt lat="42.90737" lon="0.14869">
        <ele>2063</ele>
        <time>2020-07-29T09:26:22.089Z</time>
      </trkpt>
      <trkpt lat="42.9074" lon="0.1487">
        <ele>2062</ele>
        <time>2020-07-29T09:26:23.089Z</time>
      </trkpt>
      <trkpt lat="42.90743" lon="0.14871">
        <ele>2061</ele>
        <time>2020-07-29T09:26:24.089Z</time>
      </trkpt>
      <trkpt lat="42.90747" lon="0.14871">
        <ele>2060</ele>
        <time>2020-07-29T09:26:25.089Z</time>
      </trkpt>
      <trkpt lat="42.9075" lon="0.1487">
        <ele>2060</ele>
        <time>2020-07-29T09:26:26.089Z</time>
      </trkpt>
      <trkpt lat="42.90753" lon="0.1487">
        <ele>2060</ele>
        <time>2020-07-29T09:26:27.089Z</time>
      </trkpt>
      <trkpt lat="42.90756" lon="0.14869">
        <ele>2060</ele>
        <time>2020-07-29T09:26:28.089Z</time>
      </trkpt>
      <trkpt lat="42.90759" lon="0.14868">
        <ele>2060</ele>
        <time>2020-07-29T09:26:29.089Z</time>
      </trkpt>
      <trkpt lat="42.90762" lon="0.14867">
        <ele>2060</ele>
        <time>2020-07-29T09:26:30.089Z</time>
      </trkpt>
      <trkpt lat="42.90765" lon="0.14867">
        <ele>2059</ele>
        <time>2020-07-29T09:26:31.089Z</time>
      </trkpt>
      <trkpt lat="42.90768" lon="0.14868">
        <ele>2059</ele>
        <time>2020-07-29T09:26:32.089Z</time>
      </trkpt>
      <trkpt lat="42.90771" lon="0.14868">
        <ele>2059</ele>
        <time>2020-07-29T09:26:33.089Z</time>
      </trkpt>
      <trkpt lat="42.90775" lon="0.14869">
        <ele>2059</ele>
        <time>2020-07-29T09:26:34.089Z</time>
      </trkpt>
      <trkpt lat="42.90778" lon="0.1487">
        <ele>2060</ele>
        <time>2020-07-29T09:26:35.089Z</time>
      </trkpt>
      <trkpt lat="42.90781" lon="0.14871">
        <ele>2059</ele>
        <time>2020-07-29T09:26:36.089Z</time>
      </trkpt>
      <trkpt lat="42.90784" lon="0.14872">
        <ele>2059</ele>
        <time>2020-07-29T09:26:37.089Z</time>
      </trkpt>
      <trkpt lat="42.90787" lon="0.14874">
        <ele>2058</ele>
        <time>2020-07-29T09:26:38.089Z</time>
      </trkpt>
      <trkpt lat="42.9079" lon="0.14876">
        <ele>2058</ele>
        <time>2020-07-29T09:26:39.089Z</time>
      </trkpt>
      <trkpt lat="42.90794" lon="0.14877">
        <ele>2057</ele>
        <time>2020-07-29T09:26:40.089Z</time>
      </trkpt>
      <trkpt lat="42.90797" lon="0.14878">
        <ele>2057</ele>
        <time>2020-07-29T09:26:41.089Z</time>
      </trkpt>
      <trkpt lat="42.908" lon="0.14879">
        <ele>2057</ele>
        <time>2020-07-29T09:26:42.089Z</time>
      </trkpt>
      <trkpt lat="42.90803" lon="0.1488">
        <ele>2056</ele>
        <time>2020-07-29T09:26:43.089Z</time>
      </trkpt>
      <trkpt lat="42.90807" lon="0.14881">
        <ele>2055</ele>
        <time>2020-07-29T09:26:44.089Z</time>
      </trkpt>
      <trkpt lat="42.9081" lon="0.14881">
        <ele>2055</ele>
        <time>2020-07-29T09:26:45.089Z</time>
      </trkpt>
      <trkpt lat="42.90814" lon="0.14882">
        <ele>2056</ele>
        <time>2020-07-29T09:26:46.089Z</time>
      </trkpt>
      <trkpt lat="42.90818" lon="0.14882">
        <ele>2055</ele>
        <time>2020-07-29T09:26:47.089Z</time>
      </trkpt>
      <trkpt lat="42.90821" lon="0.14882">
        <ele>2055</ele>
        <time>2020-07-29T09:26:48.089Z</time>
      </trkpt>
      <trkpt lat="42.90825" lon="0.14882">
        <ele>2054</ele>
        <time>2020-07-29T09:26:49.089Z</time>
      </trkpt>
      <trkpt lat="42.90828" lon="0.14882">
        <ele>2055</ele>
        <time>2020-07-29T09:26:50.089Z</time>
      </trkpt>
      <trkpt lat="42.90831" lon="0.14882">
        <ele>2054</ele>
        <time>2020-07-29T09:26:51.089Z</time>
      </trkpt>
      <trkpt lat="42.90835" lon="0.14882">
        <ele>2053</ele>
        <time>2020-07-29T09:26:52.089Z</time>
      </trkpt>
      <trkpt lat="42.90838" lon="0.14883">
        <ele>2053</ele>
        <time>2020-07-29T09:26:53.089Z</time>
      </trkpt>
      <trkpt lat="42.90842" lon="0.14883">
        <ele>2052</ele>
        <time>2020-07-29T09:26:54.089Z</time>
      </trkpt>
      <trkpt lat="42.90846" lon="0.14884">
        <ele>2051</ele>
        <time>2020-07-29T09:26:55.089Z</time>
      </trkpt>
      <trkpt lat="42.90849" lon="0.14885">
        <ele>2051</ele>
        <time>2020-07-29T09:26:56.089Z</time>
      </trkpt>
      <trkpt lat="42.90853" lon="0.14887">
        <ele>2050</ele>
        <time>2020-07-29T09:26:57.089Z</time>
      </trkpt>
      <trkpt lat="42.90856" lon="0.14888">
        <ele>2050</ele>
        <time>2020-07-29T09:26:58.089Z</time>
      </trkpt>
      <trkpt lat="42.90859" lon="0.1489">
        <ele>2049</ele>
        <time>2020-07-29T09:26:59.089Z</time>
      </trkpt>
      <trkpt lat="42.90863" lon="0.14893">
        <ele>2050</ele>
        <time>2020-07-29T09:27:00.089Z</time>
      </trkpt>
      <trkpt lat="42.90866" lon="0.14897">
        <ele>2049</ele>
        <time>2020-07-29T09:27:01.089Z</time>
      </trkpt>
      <trkpt lat="42.90869" lon="0.14901">
        <ele>2049</ele>
        <time>2020-07-29T09:27:02.089Z</time>
      </trkpt>
      <trkpt lat="42.90871" lon="0.14905">
        <ele>2049</ele>
        <time>2020-07-29T09:27:03.089Z</time>
      </trkpt>
      <trkpt lat="42.90872" lon="0.1491">
        <ele>2049</ele>
        <time>2020-07-29T09:27:04.089Z</time>
      </trkpt>
      <trkpt lat="42.90871" lon="0.14914">
        <ele>2050</ele>
        <time>2020-07-29T09:27:05.089Z</time>
      </trkpt>
      <trkpt lat="42.9087" lon="0.14918">
        <ele>2050</ele>
        <time>2020-07-29T09:27:06.089Z</time>
      </trkpt>
      <trkpt lat="42.9087" lon="0.14923">
        <ele>2050</ele>
        <time>2020-07-29T09:27:07.089Z</time>
      </trkpt>
      <trkpt lat="42.90869" lon="0.14927">
        <ele>2050</ele>
        <time>2020-07-29T09:27:08.089Z</time>
      </trkpt>
      <trkpt lat="42.90868" lon="0.14931">
        <ele>2049</ele>
        <time>2020-07-29T09:27:09.089Z</time>
      </trkpt>
      <trkpt lat="42.90868" lon="0.14935">
        <ele>2049</ele>
        <time>2020-07-29T09:27:10.089Z</time>
      </trkpt>
      <trkpt lat="42.90867" lon="0.14939">
        <ele>2048</ele>
        <time>2020-07-29T09:27:11.089Z</time>
      </trkpt>
      <trkpt lat="42.90867" lon="0.14943">
        <ele>2047</ele>
        <time>2020-07-29T09:27:12.089Z</time>
      </trkpt>
      <trkpt lat="42.90866" lon="0.14948">
        <ele>2046</ele>
        <time>2020-07-29T09:27:13.089Z</time>
      </trkpt>
      <trkpt lat="42.90865" lon="0.14952">
        <ele>2046</ele>
        <time>2020-07-29T09:27:14.089Z</time>
      </trkpt>
      <trkpt lat="42.90864" lon="0.14956">
        <ele>2045</ele>
        <time>2020-07-29T09:27:15.089Z</time>
      </trkpt>
      <trkpt lat="42.90864" lon="0.14961">
        <ele>2044</ele>
        <time>2020-07-29T09:27:16.089Z</time>
      </trkpt>
      <trkpt lat="42.90863" lon="0.14965">
        <ele>2044</ele>
        <time>2020-07-29T09:27:17.089Z</time>
      </trkpt>
      <trkpt lat="42.90863" lon="0.1497">
        <ele>2044</ele>
        <time>2020-07-29T09:27:18.089Z</time>
      </trkpt>
      <trkpt lat="42.90863" lon="0.14974">
        <ele>2044</ele>
        <time>2020-07-29T09:27:19.089Z</time>
      </trkpt>
      <trkpt lat="42.90863" lon="0.14979">
        <ele>2043</ele>
        <time>2020-07-29T09:27:20.089Z</time>
      </trkpt>
      <trkpt lat="42.90863" lon="0.14983">
        <ele>2043</ele>
        <time>2020-07-29T09:27:21.089Z</time>
      </trkpt>
      <trkpt lat="42.90864" lon="0.14988">
        <ele>2043</ele>
        <time>2020-07-29T09:27:22.089Z</time>
      </trkpt>
      <trkpt lat="42.90864" lon="0.14992">
        <ele>2042</ele>
        <time>2020-07-29T09:27:23.089Z</time>
      </trkpt>
      <trkpt lat="42.90865" lon="0.14997">
        <ele>2042</ele>
        <time>2020-07-29T09:27:24.089Z</time>
      </trkpt>
      <trkpt lat="42.90866" lon="0.15001">
        <ele>2041</ele>
        <time>2020-07-29T09:27:25.089Z</time>
      </trkpt>
      <trkpt lat="42.90867" lon="0.15005">
        <ele>2040</ele>
        <time>2020-07-29T09:27:26.089Z</time>
      </trkpt>
      <trkpt lat="42.90868" lon="0.1501">
        <ele>2040</ele>
        <time>2020-07-29T09:27:27.089Z</time>
      </trkpt>
      <trkpt lat="42.9087" lon="0.15014">
        <ele>2040</ele>
        <time>2020-07-29T09:27:28.089Z</time>
      </trkpt>
      <trkpt lat="42.90872" lon="0.15018">
        <ele>2040</ele>
        <time>2020-07-29T09:27:29.089Z</time>
      </trkpt>
      <trkpt lat="42.90874" lon="0.15022">
        <ele>2040</ele>
        <time>2020-07-29T09:27:30.089Z</time>
      </trkpt>
      <trkpt lat="42.90876" lon="0.15026">
        <ele>2039</ele>
        <time>2020-07-29T09:27:31.089Z</time>
      </trkpt>
      <trkpt lat="42.90877" lon="0.1503">
        <ele>2039</ele>
        <time>2020-07-29T09:27:32.089Z</time>
      </trkpt>
      <trkpt lat="42.90879" lon="0.15033">
        <ele>2038</ele>
        <time>2020-07-29T09:27:33.089Z</time>
      </trkpt>
      <trkpt lat="42.90881" lon="0.15037">
        <ele>2037</ele>
        <time>2020-07-29T09:27:34.089Z</time>
      </trkpt>
      <trkpt lat="42.90883" lon="0.15041">
        <ele>2037</ele>
        <time>2020-07-29T09:27:35.089Z</time>
      </trkpt>
      <trkpt lat="42.90885" lon="0.15045">
        <ele>2037</ele>
        <time>2020-07-29T09:27:36.089Z</time>
      </trkpt>
      <trkpt lat="42.90886" lon="0.15049">
        <ele>2037</ele>
        <time>2020-07-29T09:27:37.089Z</time>
      </trkpt>
      <trkpt lat="42.90888" lon="0.15053">
        <ele>2037</ele>
        <time>2020-07-29T09:27:38.089Z</time>
      </trkpt>
      <trkpt lat="42.90889" lon="0.15057">
        <ele>2037</ele>
        <time>2020-07-29T09:27:39.089Z</time>
      </trkpt>
      <trkpt lat="42.90891" lon="0.15061">
        <ele>2037</ele>
        <time>2020-07-29T09:27:40.089Z</time>
      </trkpt>
      <trkpt lat="42.90892" lon="0.15065">
        <ele>2037</ele>
        <time>2020-07-29T09:27:41.089Z</time>
      </trkpt>
      <trkpt lat="42.90894" lon="0.15069">
        <ele>2037</ele>
        <time>2020-07-29T09:27:42.089Z</time>
      </trkpt>
      <trkpt lat="42.90895" lon="0.15073">
        <ele>2036</ele>
        <time>2020-07-29T09:27:43.089Z</time>
      </trkpt>
      <trkpt lat="42.90896" lon="0.15077">
        <ele>2036</ele>
        <time>2020-07-29T09:27:44.089Z</time>
      </trkpt>
      <trkpt lat="42.90897" lon="0.15082">
        <ele>2036</ele>
        <time>2020-07-29T09:27:45.089Z</time>
      </trkpt>
      <trkpt lat="42.90898" lon="0.15086">
        <ele>2035</ele>
        <time>2020-07-29T09:27:46.089Z</time>
      </trkpt>
      <trkpt lat="42.90899" lon="0.1509">
        <ele>2034</ele>
        <time>2020-07-29T09:27:47.089Z</time>
      </trkpt>
      <trkpt lat="42.909" lon="0.15094">
        <ele>2034</ele>
        <time>2020-07-29T09:27:48.089Z</time>
      </trkpt>
      <trkpt lat="42.90901" lon="0.15099">
        <ele>2034</ele>
        <time>2020-07-29T09:27:49.089Z</time>
      </trkpt>
      <trkpt lat="42.90902" lon="0.15103">
        <ele>2033</ele>
        <time>2020-07-29T09:27:50.089Z</time>
      </trkpt>
      <trkpt lat="42.90902" lon="0.15107">
        <ele>2032</ele>
        <time>2020-07-29T09:27:51.089Z</time>
      </trkpt>
      <trkpt lat="42.90903" lon="0.15112">
        <ele>2032</ele>
        <time>2020-07-29T09:27:52.089Z</time>
      </trkpt>
      <trkpt lat="42.90903" lon="0.15116">
        <ele>2032</ele>
        <time>2020-07-29T09:27:53.089Z</time>
      </trkpt>
      <trkpt lat="42.90904" lon="0.15121">
        <ele>2032</ele>
        <time>2020-07-29T09:27:54.089Z</time>
      </trkpt>
      <trkpt lat="42.90904" lon="0.15126">
        <ele>2032</ele>
        <time>2020-07-29T09:27:55.089Z</time>
      </trkpt>
      <trkpt lat="42.90905" lon="0.1513">
        <ele>2032</ele>
        <time>2020-07-29T09:27:56.089Z</time>
      </trkpt>
      <trkpt lat="42.90905" lon="0.15135">
        <ele>2032</ele>
        <time>2020-07-29T09:27:57.089Z</time>
      </trkpt>
      <trkpt lat="42.90904" lon="0.15139">
        <ele>2033</ele>
        <time>2020-07-29T09:27:58.089Z</time>
      </trkpt>
      <trkpt lat="42.90903" lon="0.15144">
        <ele>2032</ele>
        <time>2020-07-29T09:27:59.089Z</time>
      </trkpt>
      <trkpt lat="42.90902" lon="0.15148">
        <ele>2033</ele>
        <time>2020-07-29T09:28:00.089Z</time>
      </trkpt>
      <trkpt lat="42.90901" lon="0.15152">
        <ele>2033</ele>
        <time>2020-07-29T09:28:01.089Z</time>
      </trkpt>
      <trkpt lat="42.909" lon="0.15156">
        <ele>2033</ele>
        <time>2020-07-29T09:28:02.089Z</time>
      </trkpt>
      <trkpt lat="42.90898" lon="0.15161">
        <ele>2033</ele>
        <time>2020-07-29T09:28:03.089Z</time>
      </trkpt>
      <trkpt lat="42.90898" lon="0.15165">
        <ele>2033</ele>
        <time>2020-07-29T09:28:04.089Z</time>
      </trkpt>
      <trkpt lat="42.90896" lon="0.15169">
        <ele>2032</ele>
        <time>2020-07-29T09:28:05.089Z</time>
      </trkpt>
      <trkpt lat="42.90895" lon="0.15173">
        <ele>2032</ele>
        <time>2020-07-29T09:28:06.089Z</time>
      </trkpt>
      <trkpt lat="42.90894" lon="0.15178">
        <ele>2033</ele>
        <time>2020-07-29T09:28:07.089Z</time>
      </trkpt>
      <trkpt lat="42.90893" lon="0.15182">
        <ele>2032</ele>
        <time>2020-07-29T09:28:08.089Z</time>
      </trkpt>
      <trkpt lat="42.90892" lon="0.15187">
        <ele>2032</ele>
        <time>2020-07-29T09:28:09.089Z</time>
      </trkpt>
      <trkpt lat="42.90891" lon="0.15191">
        <ele>2031</ele>
        <time>2020-07-29T09:28:10.089Z</time>
      </trkpt>
      <trkpt lat="42.9089" lon="0.15195">
        <ele>2030</ele>
        <time>2020-07-29T09:28:11.089Z</time>
      </trkpt>
      <trkpt lat="42.90889" lon="0.152">
        <ele>2029</ele>
        <time>2020-07-29T09:28:12.089Z</time>
      </trkpt>
      <trkpt lat="42.90888" lon="0.15204">
        <ele>2028</ele>
        <time>2020-07-29T09:28:13.089Z</time>
      </trkpt>
      <trkpt lat="42.90887" lon="0.15208">
        <ele>2027</ele>
        <time>2020-07-29T09:28:14.089Z</time>
      </trkpt>
      <trkpt lat="42.90886" lon="0.15212">
        <ele>2026</ele>
        <time>2020-07-29T09:28:15.089Z</time>
      </trkpt>
      <trkpt lat="42.90885" lon="0.15217">
        <ele>2026</ele>
        <time>2020-07-29T09:28:16.089Z</time>
      </trkpt>
      <trkpt lat="42.90884" lon="0.15222">
        <ele>2025</ele>
        <time>2020-07-29T09:28:17.089Z</time>
      </trkpt>
      <trkpt lat="42.90883" lon="0.15226">
        <ele>2025</ele>
        <time>2020-07-29T09:28:18.089Z</time>
      </trkpt>
      <trkpt lat="42.90882" lon="0.1523">
        <ele>2023</ele>
        <time>2020-07-29T09:28:19.089Z</time>
      </trkpt>
      <trkpt lat="42.90881" lon="0.15235">
        <ele>2022</ele>
        <time>2020-07-29T09:28:20.089Z</time>
      </trkpt>
      <trkpt lat="42.9088" lon="0.15239">
        <ele>2022</ele>
        <time>2020-07-29T09:28:21.089Z</time>
      </trkpt>
      <trkpt lat="42.90879" lon="0.15243">
        <ele>2022</ele>
        <time>2020-07-29T09:28:22.089Z</time>
      </trkpt>
      <trkpt lat="42.90878" lon="0.15247">
        <ele>2021</ele>
        <time>2020-07-29T09:28:23.089Z</time>
      </trkpt>
      <trkpt lat="42.90876" lon="0.15251">
        <ele>2021</ele>
        <time>2020-07-29T09:28:24.089Z</time>
      </trkpt>
      <trkpt lat="42.90874" lon="0.15255">
        <ele>2021</ele>
        <time>2020-07-29T09:28:25.089Z</time>
      </trkpt>
      <trkpt lat="42.90872" lon="0.15259">
        <ele>2021</ele>
        <time>2020-07-29T09:28:26.089Z</time>
      </trkpt>
      <trkpt lat="42.90871" lon="0.15264">
        <ele>2021</ele>
        <time>2020-07-29T09:28:27.089Z</time>
      </trkpt>
      <trkpt lat="42.9087" lon="0.15268">
        <ele>2021</ele>
        <time>2020-07-29T09:28:28.089Z</time>
      </trkpt>
      <trkpt lat="42.90869" lon="0.15272">
        <ele>2021</ele>
        <time>2020-07-29T09:28:29.089Z</time>
      </trkpt>
      <trkpt lat="42.90867" lon="0.15275">
        <ele>2020</ele>
        <time>2020-07-29T09:28:30.089Z</time>
      </trkpt>
      <trkpt lat="42.90866" lon="0.15279">
        <ele>2019</ele>
        <time>2020-07-29T09:28:31.089Z</time>
      </trkpt>
      <trkpt lat="42.90864" lon="0.15283">
        <ele>2019</ele>
        <time>2020-07-29T09:28:32.089Z</time>
      </trkpt>
      <trkpt lat="42.90863" lon="0.15287">
        <ele>2018</ele>
        <time>2020-07-29T09:28:33.089Z</time>
      </trkpt>
      <trkpt lat="42.90861" lon="0.15291">
        <ele>2017</ele>
        <time>2020-07-29T09:28:34.089Z</time>
      </trkpt>
      <trkpt lat="42.9086" lon="0.15295">
        <ele>2016</ele>
        <time>2020-07-29T09:28:35.089Z</time>
      </trkpt>
      <trkpt lat="42.90858" lon="0.15299">
        <ele>2016</ele>
        <time>2020-07-29T09:28:36.089Z</time>
      </trkpt>
      <trkpt lat="42.90856" lon="0.15303">
        <ele>2016</ele>
        <time>2020-07-29T09:28:37.089Z</time>
      </trkpt>
      <trkpt lat="42.90855" lon="0.15306">
        <ele>2016</ele>
        <time>2020-07-29T09:28:38.089Z</time>
      </trkpt>
      <trkpt lat="42.90854" lon="0.15311">
        <ele>2015</ele>
        <time>2020-07-29T09:28:39.089Z</time>
      </trkpt>
      <trkpt lat="42.90852" lon="0.15315">
        <ele>2014</ele>
        <time>2020-07-29T09:28:40.089Z</time>
      </trkpt>
      <trkpt lat="42.9085" lon="0.15319">
        <ele>2014</ele>
        <time>2020-07-29T09:28:41.089Z</time>
      </trkpt>
      <trkpt lat="42.90848" lon="0.15323">
        <ele>2014</ele>
        <time>2020-07-29T09:28:42.089Z</time>
      </trkpt>
      <trkpt lat="42.90847" lon="0.15327">
        <ele>2014</ele>
        <time>2020-07-29T09:28:43.089Z</time>
      </trkpt>
      <trkpt lat="42.90846" lon="0.15331">
        <ele>2014</ele>
        <time>2020-07-29T09:28:44.089Z</time>
      </trkpt>
      <trkpt lat="42.90846" lon="0.15336">
        <ele>2013</ele>
        <time>2020-07-29T09:28:45.089Z</time>
      </trkpt>
      <trkpt lat="42.90845" lon="0.1534">
        <ele>2013</ele>
        <time>2020-07-29T09:28:46.089Z</time>
      </trkpt>
      <trkpt lat="42.90845" lon="0.15344">
        <ele>2013</ele>
        <time>2020-07-29T09:28:47.089Z</time>
      </trkpt>
      <trkpt lat="42.90844" lon="0.15349">
        <ele>2013</ele>
        <time>2020-07-29T09:28:48.089Z</time>
      </trkpt>
      <trkpt lat="42.90844" lon="0.15353">
        <ele>2012</ele>
        <time>2020-07-29T09:28:49.089Z</time>
      </trkpt>
      <trkpt lat="42.90845" lon="0.15357">
        <ele>2012</ele>
        <time>2020-07-29T09:28:50.089Z</time>
      </trkpt>
      <trkpt lat="42.90845" lon="0.15361">
        <ele>2012</ele>
        <time>2020-07-29T09:28:51.089Z</time>
      </trkpt>
      <trkpt lat="42.90846" lon="0.15366">
        <ele>2011</ele>
        <time>2020-07-29T09:28:52.089Z</time>
      </trkpt>
      <trkpt lat="42.90846" lon="0.1537">
        <ele>2011</ele>
        <time>2020-07-29T09:28:53.089Z</time>
      </trkpt>
      <trkpt lat="42.90847" lon="0.15374">
        <ele>2011</ele>
        <time>2020-07-29T09:28:54.089Z</time>
      </trkpt>
      <trkpt lat="42.90848" lon="0.15378">
        <ele>2010</ele>
        <time>2020-07-29T09:28:55.089Z</time>
      </trkpt>
      <trkpt lat="42.90849" lon="0.15382">
        <ele>2010</ele>
        <time>2020-07-29T09:28:56.089Z</time>
      </trkpt>
      <trkpt lat="42.9085" lon="0.15386">
        <ele>2010</ele>
        <time>2020-07-29T09:28:57.089Z</time>
      </trkpt>
      <trkpt lat="42.90851" lon="0.1539">
        <ele>2009</ele>
        <time>2020-07-29T09:28:58.089Z</time>
      </trkpt>
      <trkpt lat="42.90852" lon="0.15394">
        <ele>2009</ele>
        <time>2020-07-29T09:28:59.089Z</time>
      </trkpt>
      <trkpt lat="42.90853" lon="0.15398">
        <ele>2008</ele>
        <time>2020-07-29T09:29:00.089Z</time>
      </trkpt>
      <trkpt lat="42.90854" lon="0.15403">
        <ele>2009</ele>
        <time>2020-07-29T09:29:01.089Z</time>
      </trkpt>
      <trkpt lat="42.90856" lon="0.15406">
        <ele>2009</ele>
        <time>2020-07-29T09:29:02.089Z</time>
      </trkpt>
      <trkpt lat="42.90858" lon="0.1541">
        <ele>2009</ele>
        <time>2020-07-29T09:29:03.089Z</time>
      </trkpt>
      <trkpt lat="42.90859" lon="0.15414">
        <ele>2009</ele>
        <time>2020-07-29T09:29:04.089Z</time>
      </trkpt>
      <trkpt lat="42.9086" lon="0.15417">
        <ele>2009</ele>
        <time>2020-07-29T09:29:05.089Z</time>
      </trkpt>
      <trkpt lat="42.90861" lon="0.15421">
        <ele>2008</ele>
        <time>2020-07-29T09:29:06.089Z</time>
      </trkpt>
      <trkpt lat="42.90862" lon="0.15426">
        <ele>2008</ele>
        <time>2020-07-29T09:29:07.089Z</time>
      </trkpt>
      <trkpt lat="42.90864" lon="0.1543">
        <ele>2007</ele>
        <time>2020-07-29T09:29:08.089Z</time>
      </trkpt>
      <trkpt lat="42.90865" lon="0.15434">
        <ele>2008</ele>
        <time>2020-07-29T09:29:09.089Z</time>
      </trkpt>
      <trkpt lat="42.90867" lon="0.15438">
        <ele>2007</ele>
        <time>2020-07-29T09:29:10.089Z</time>
      </trkpt>
      <trkpt lat="42.90869" lon="0.15442">
        <ele>2007</ele>
        <time>2020-07-29T09:29:11.089Z</time>
      </trkpt>
      <trkpt lat="42.90871" lon="0.15446">
        <ele>2007</ele>
        <time>2020-07-29T09:29:12.089Z</time>
      </trkpt>
      <trkpt lat="42.90873" lon="0.1545">
        <ele>2007</ele>
        <time>2020-07-29T09:29:13.089Z</time>
      </trkpt>
      <trkpt lat="42.90875" lon="0.15453">
        <ele>2007</ele>
        <time>2020-07-29T09:29:14.089Z</time>
      </trkpt>
      <trkpt lat="42.90878" lon="0.15456">
        <ele>2007</ele>
        <time>2020-07-29T09:29:15.089Z</time>
      </trkpt>
      <trkpt lat="42.90881" lon="0.15459">
        <ele>2005</ele>
        <time>2020-07-29T09:29:16.089Z</time>
      </trkpt>
      <trkpt lat="42.90884" lon="0.1546">
        <ele>2005</ele>
        <time>2020-07-29T09:29:17.089Z</time>
      </trkpt>
      <trkpt lat="42.90887" lon="0.15461">
        <ele>2005</ele>
        <time>2020-07-29T09:29:18.089Z</time>
      </trkpt>
      <trkpt lat="42.9089" lon="0.15462">
        <ele>2005</ele>
        <time>2020-07-29T09:29:19.089Z</time>
      </trkpt>
      <trkpt lat="42.90894" lon="0.15462">
        <ele>2004</ele>
        <time>2020-07-29T09:29:20.089Z</time>
      </trkpt>
      <trkpt lat="42.90898" lon="0.15461">
        <ele>2004</ele>
        <time>2020-07-29T09:29:21.089Z</time>
      </trkpt>
      <trkpt lat="42.90902" lon="0.15462">
        <ele>2003</ele>
        <time>2020-07-29T09:29:22.089Z</time>
      </trkpt>
      <trkpt lat="42.90906" lon="0.15463">
        <ele>2003</ele>
        <time>2020-07-29T09:29:23.089Z</time>
      </trkpt>
      <trkpt lat="42.90909" lon="0.15464">
        <ele>2003</ele>
        <time>2020-07-29T09:29:24.089Z</time>
      </trkpt>
      <trkpt lat="42.90913" lon="0.15465">
        <ele>2003</ele>
        <time>2020-07-29T09:29:25.089Z</time>
      </trkpt>
      <trkpt lat="42.90916" lon="0.15467">
        <ele>2002</ele>
        <time>2020-07-29T09:29:26.089Z</time>
      </trkpt>
      <trkpt lat="42.90919" lon="0.1547">
        <ele>2002</ele>
        <time>2020-07-29T09:29:27.089Z</time>
      </trkpt>
      <trkpt lat="42.90922" lon="0.15472">
        <ele>2001</ele>
        <time>2020-07-29T09:29:28.089Z</time>
      </trkpt>
      <trkpt lat="42.90924" lon="0.15475">
        <ele>2001</ele>
        <time>2020-07-29T09:29:29.089Z</time>
      </trkpt>
      <trkpt lat="42.90927" lon="0.15478">
        <ele>2000</ele>
        <time>2020-07-29T09:29:30.089Z</time>
      </trkpt>
      <trkpt lat="42.90929" lon="0.15482">
        <ele>2000</ele>
        <time>2020-07-29T09:29:31.089Z</time>
      </trkpt>
      <trkpt lat="42.90931" lon="0.15485">
        <ele>2000</ele>
        <time>2020-07-29T09:29:32.089Z</time>
      </trkpt>
      <trkpt lat="42.90934" lon="0.15488">
        <ele>1999</ele>
        <time>2020-07-29T09:29:33.089Z</time>
      </trkpt>
      <trkpt lat="42.90936" lon="0.15491">
        <ele>1998</ele>
        <time>2020-07-29T09:29:34.089Z</time>
      </trkpt>
      <trkpt lat="42.90938" lon="0.15494">
        <ele>1998</ele>
        <time>2020-07-29T09:29:35.089Z</time>
      </trkpt>
      <trkpt lat="42.9094" lon="0.15497">
        <ele>1998</ele>
        <time>2020-07-29T09:29:36.089Z</time>
      </trkpt>
      <trkpt lat="42.90943" lon="0.15501">
        <ele>1997</ele>
        <time>2020-07-29T09:29:37.089Z</time>
      </trkpt>
      <trkpt lat="42.90945" lon="0.15504">
        <ele>1998</ele>
        <time>2020-07-29T09:29:38.089Z</time>
      </trkpt>
      <trkpt lat="42.90948" lon="0.15507">
        <ele>1997</ele>
        <time>2020-07-29T09:29:39.089Z</time>
      </trkpt>
      <trkpt lat="42.9095" lon="0.1551">
        <ele>1998</ele>
        <time>2020-07-29T09:29:40.089Z</time>
      </trkpt>
      <trkpt lat="42.90952" lon="0.15514">
        <ele>1998</ele>
        <time>2020-07-29T09:29:41.089Z</time>
      </trkpt>
      <trkpt lat="42.90954" lon="0.15517">
        <ele>1997</ele>
        <time>2020-07-29T09:29:42.089Z</time>
      </trkpt>
      <trkpt lat="42.90956" lon="0.15521">
        <ele>1997</ele>
        <time>2020-07-29T09:29:43.089Z</time>
      </trkpt>
      <trkpt lat="42.90958" lon="0.15524">
        <ele>1997</ele>
        <time>2020-07-29T09:29:44.089Z</time>
      </trkpt>
      <trkpt lat="42.9096" lon="0.15527">
        <ele>1996</ele>
        <time>2020-07-29T09:29:45.089Z</time>
      </trkpt>
      <trkpt lat="42.90962" lon="0.1553">
        <ele>1995</ele>
        <time>2020-07-29T09:29:46.089Z</time>
      </trkpt>
      <trkpt lat="42.90964" lon="0.15533">
        <ele>1994</ele>
        <time>2020-07-29T09:29:47.089Z</time>
      </trkpt>
      <trkpt lat="42.90967" lon="0.15536">
        <ele>1994</ele>
        <time>2020-07-29T09:29:48.089Z</time>
      </trkpt>
      <trkpt lat="42.9097" lon="0.15539">
        <ele>1993</ele>
        <time>2020-07-29T09:29:49.089Z</time>
      </trkpt>
      <trkpt lat="42.90973" lon="0.15541">
        <ele>1992</ele>
        <time>2020-07-29T09:29:50.089Z</time>
      </trkpt>
      <trkpt lat="42.90975" lon="0.15543">
        <ele>1992</ele>
        <time>2020-07-29T09:29:51.089Z</time>
      </trkpt>
      <trkpt lat="42.90978" lon="0.15546">
        <ele>1991</ele>
        <time>2020-07-29T09:29:52.089Z</time>
      </trkpt>
      <trkpt lat="42.90981" lon="0.15548">
        <ele>1991</ele>
        <time>2020-07-29T09:29:53.089Z</time>
      </trkpt>
      <trkpt lat="42.90985" lon="0.1555">
        <ele>1991</ele>
        <time>2020-07-29T09:29:54.089Z</time>
      </trkpt>
      <trkpt lat="42.90988" lon="0.15553">
        <ele>1992</ele>
        <time>2020-07-29T09:29:55.089Z</time>
      </trkpt>
      <trkpt lat="42.90991" lon="0.15555">
        <ele>1992</ele>
        <time>2020-07-29T09:29:56.089Z</time>
      </trkpt>
      <trkpt lat="42.90993" lon="0.15558">
        <ele>1991</ele>
        <time>2020-07-29T09:29:57.089Z</time>
      </trkpt>
      <trkpt lat="42.90996" lon="0.15561">
        <ele>1990</ele>
        <time>2020-07-29T09:29:58.089Z</time>
      </trkpt>
      <trkpt lat="42.90998" lon="0.15564">
        <ele>1990</ele>
        <time>2020-07-29T09:29:59.089Z</time>
      </trkpt>
      <trkpt lat="42.91" lon="0.15566">
        <ele>1989</ele>
        <time>2020-07-29T09:30:00.089Z</time>
      </trkpt>
      <trkpt lat="42.91001" lon="0.1557">
        <ele>1989</ele>
        <time>2020-07-29T09:30:01.089Z</time>
      </trkpt>
      <trkpt lat="42.91003" lon="0.15573">
        <ele>1989</ele>
        <time>2020-07-29T09:30:02.089Z</time>
      </trkpt>
      <trkpt lat="42.91006" lon="0.15577">
        <ele>1989</ele>
        <time>2020-07-29T09:30:03.089Z</time>
      </trkpt>
      <trkpt lat="42.91008" lon="0.15581">
        <ele>1989</ele>
        <time>2020-07-29T09:30:04.089Z</time>
      </trkpt>
      <trkpt lat="42.9101" lon="0.15584">
        <ele>1988</ele>
        <time>2020-07-29T09:30:05.089Z</time>
      </trkpt>
      <trkpt lat="42.91012" lon="0.15588">
        <ele>1989</ele>
        <time>2020-07-29T09:30:06.089Z</time>
      </trkpt>
      <trkpt lat="42.91015" lon="0.15593">
        <ele>1987</ele>
        <time>2020-07-29T09:30:07.089Z</time>
      </trkpt>
      <trkpt lat="42.91017" lon="0.15598">
        <ele>1987</ele>
        <time>2020-07-29T09:30:08.089Z</time>
      </trkpt>
      <trkpt lat="42.91018" lon="0.15602">
        <ele>1988</ele>
        <time>2020-07-29T09:30:09.089Z</time>
      </trkpt>
      <trkpt lat="42.91018" lon="0.15607">
        <ele>1987</ele>
        <time>2020-07-29T09:30:10.089Z</time>
      </trkpt>
      <trkpt lat="42.91018" lon="0.15611">
        <ele>1986</ele>
        <time>2020-07-29T09:30:11.089Z</time>
      </trkpt>
      <trkpt lat="42.91017" lon="0.15615">
        <ele>1986</ele>
        <time>2020-07-29T09:30:12.089Z</time>
      </trkpt>
      <trkpt lat="42.91015" lon="0.15618">
        <ele>1985</ele>
        <time>2020-07-29T09:30:13.089Z</time>
      </trkpt>
      <trkpt lat="42.91013" lon="0.15621">
        <ele>1985</ele>
        <time>2020-07-29T09:30:14.089Z</time>
      </trkpt>
      <trkpt lat="42.9101" lon="0.15625">
        <ele>1985</ele>
        <time>2020-07-29T09:30:15.089Z</time>
      </trkpt>
      <trkpt lat="42.91007" lon="0.15627">
        <ele>1984</ele>
        <time>2020-07-29T09:30:16.089Z</time>
      </trkpt>
      <trkpt lat="42.91004" lon="0.1563">
        <ele>1984</ele>
        <time>2020-07-29T09:30:17.089Z</time>
      </trkpt>
      <trkpt lat="42.91001" lon="0.15631">
        <ele>1985</ele>
        <time>2020-07-29T09:30:18.089Z</time>
      </trkpt>
      <trkpt lat="42.90997" lon="0.15632">
        <ele>1987</ele>
        <time>2020-07-29T09:30:19.089Z</time>
      </trkpt>
      <trkpt lat="42.90994" lon="0.15632">
        <ele>1987</ele>
        <time>2020-07-29T09:30:20.089Z</time>
      </trkpt>
      <trkpt lat="42.9099" lon="0.15632">
        <ele>1985</ele>
        <time>2020-07-29T09:30:21.089Z</time>
      </trkpt>
      <trkpt lat="42.90987" lon="0.1563">
        <ele>1983</ele>
        <time>2020-07-29T09:30:22.089Z</time>
      </trkpt>
      <trkpt lat="42.90984" lon="0.15628">
        <ele>1983</ele>
        <time>2020-07-29T09:30:23.089Z</time>
      </trkpt>
      <trkpt lat="42.90981" lon="0.15625">
        <ele>1984</ele>
        <time>2020-07-29T09:30:24.089Z</time>
      </trkpt>
      <trkpt lat="42.90978" lon="0.15623">
        <ele>1984</ele>
        <time>2020-07-29T09:30:25.089Z</time>
      </trkpt>
      <trkpt lat="42.90976" lon="0.15621">
        <ele>1983</ele>
        <time>2020-07-29T09:30:26.089Z</time>
      </trkpt>
      <trkpt lat="42.90973" lon="0.15618">
        <ele>1983</ele>
        <time>2020-07-29T09:30:27.089Z</time>
      </trkpt>
      <trkpt lat="42.9097" lon="0.15615">
        <ele>1983</ele>
        <time>2020-07-29T09:30:28.089Z</time>
      </trkpt>
      <trkpt lat="42.90967" lon="0.15613">
        <ele>1982</ele>
        <time>2020-07-29T09:30:29.089Z</time>
      </trkpt>
      <trkpt lat="42.90964" lon="0.15611">
        <ele>1981</ele>
        <time>2020-07-29T09:30:30.089Z</time>
      </trkpt>
      <trkpt lat="42.9096" lon="0.1561">
        <ele>1980</ele>
        <time>2020-07-29T09:30:31.089Z</time>
      </trkpt>
      <trkpt lat="42.90957" lon="0.15609">
        <ele>1979</ele>
        <time>2020-07-29T09:30:32.089Z</time>
      </trkpt>
      <trkpt lat="42.90953" lon="0.15609">
        <ele>1979</ele>
        <time>2020-07-29T09:30:33.089Z</time>
      </trkpt>
      <trkpt lat="42.9095" lon="0.15609">
        <ele>1978</ele>
        <time>2020-07-29T09:30:34.089Z</time>
      </trkpt>
      <trkpt lat="42.90946" lon="0.1561">
        <ele>1978</ele>
        <time>2020-07-29T09:30:35.089Z</time>
      </trkpt>
      <trkpt lat="42.90943" lon="0.15611">
        <ele>1977</ele>
        <time>2020-07-29T09:30:36.089Z</time>
      </trkpt>
      <trkpt lat="42.9094" lon="0.15612">
        <ele>1977</ele>
        <time>2020-07-29T09:30:37.089Z</time>
      </trkpt>
      <trkpt lat="42.90937" lon="0.15613">
        <ele>1977</ele>
        <time>2020-07-29T09:30:38.089Z</time>
      </trkpt>
      <trkpt lat="42.90934" lon="0.15616">
        <ele>1977</ele>
        <time>2020-07-29T09:30:39.089Z</time>
      </trkpt>
      <trkpt lat="42.90931" lon="0.15618">
        <ele>1977</ele>
        <time>2020-07-29T09:30:40.089Z</time>
      </trkpt>
      <trkpt lat="42.90928" lon="0.15621">
        <ele>1977</ele>
        <time>2020-07-29T09:30:41.089Z</time>
      </trkpt>
      <trkpt lat="42.90925" lon="0.15623">
        <ele>1978</ele>
        <time>2020-07-29T09:30:42.089Z</time>
      </trkpt>
      <trkpt lat="42.90922" lon="0.15624">
        <ele>1977</ele>
        <time>2020-07-29T09:30:43.089Z</time>
      </trkpt>
      <trkpt lat="42.90919" lon="0.15626">
        <ele>1977</ele>
        <time>2020-07-29T09:30:44.089Z</time>
      </trkpt>
      <trkpt lat="42.90916" lon="0.15628">
        <ele>1977</ele>
        <time>2020-07-29T09:30:45.089Z</time>
      </trkpt>
      <trkpt lat="42.90913" lon="0.1563">
        <ele>1976</ele>
        <time>2020-07-29T09:30:46.089Z</time>
      </trkpt>
      <trkpt lat="42.9091" lon="0.15633">
        <ele>1976</ele>
        <time>2020-07-29T09:30:47.089Z</time>
      </trkpt>
      <trkpt lat="42.90908" lon="0.15635">
        <ele>1975</ele>
        <time>2020-07-29T09:30:48.089Z</time>
      </trkpt>
      <trkpt lat="42.90905" lon="0.15637">
        <ele>1975</ele>
        <time>2020-07-29T09:30:49.089Z</time>
      </trkpt>
      <trkpt lat="42.90902" lon="0.15639">
        <ele>1975</ele>
        <time>2020-07-29T09:30:50.089Z</time>
      </trkpt>
      <trkpt lat="42.90899" lon="0.15641">
        <ele>1975</ele>
        <time>2020-07-29T09:30:51.089Z</time>
      </trkpt>
      <trkpt lat="42.90896" lon="0.15643">
        <ele>1975</ele>
        <time>2020-07-29T09:30:52.089Z</time>
      </trkpt>
      <trkpt lat="42.90893" lon="0.15645">
        <ele>1975</ele>
        <time>2020-07-29T09:30:53.089Z</time>
      </trkpt>
      <trkpt lat="42.9089" lon="0.15646">
        <ele>1975</ele>
        <time>2020-07-29T09:30:54.089Z</time>
      </trkpt>
      <trkpt lat="42.90886" lon="0.15647">
        <ele>1975</ele>
        <time>2020-07-29T09:30:55.089Z</time>
      </trkpt>
      <trkpt lat="42.90883" lon="0.15647">
        <ele>1975</ele>
        <time>2020-07-29T09:30:56.089Z</time>
      </trkpt>
      <trkpt lat="42.90879" lon="0.15647">
        <ele>1976</ele>
        <time>2020-07-29T09:30:57.089Z</time>
      </trkpt>
      <trkpt lat="42.90875" lon="0.15646">
        <ele>1975</ele>
        <time>2020-07-29T09:30:58.089Z</time>
      </trkpt>
      <trkpt lat="42.90872" lon="0.15645">
        <ele>1973</ele>
        <time>2020-07-29T09:30:59.089Z</time>
      </trkpt>
      <trkpt lat="42.90869" lon="0.15645">
        <ele>1972</ele>
        <time>2020-07-29T09:31:00.089Z</time>
      </trkpt>
      <trkpt lat="42.90866" lon="0.15644">
        <ele>1972</ele>
        <time>2020-07-29T09:31:01.089Z</time>
      </trkpt>
      <trkpt lat="42.90862" lon="0.15643">
        <ele>1972</ele>
        <time>2020-07-29T09:31:02.089Z</time>
      </trkpt>
      <trkpt lat="42.90859" lon="0.15643">
        <ele>1970</ele>
        <time>2020-07-29T09:31:03.089Z</time>
      </trkpt>
      <trkpt lat="42.90856" lon="0.15642">
        <ele>1970</ele>
        <time>2020-07-29T09:31:04.089Z</time>
      </trkpt>
      <trkpt lat="42.90853" lon="0.15641">
        <ele>1970</ele>
        <time>2020-07-29T09:31:05.089Z</time>
      </trkpt>
      <trkpt lat="42.9085" lon="0.1564">
        <ele>1970</ele>
        <time>2020-07-29T09:31:06.089Z</time>
      </trkpt>
      <trkpt lat="42.90848" lon="0.15638">
        <ele>1970</ele>
        <time>2020-07-29T09:31:07.089Z</time>
      </trkpt>
      <trkpt lat="42.90845" lon="0.15636">
        <ele>1970</ele>
        <time>2020-07-29T09:31:08.089Z</time>
      </trkpt>
      <trkpt lat="42.90842" lon="0.15633">
        <ele>1968</ele>
        <time>2020-07-29T09:31:09.089Z</time>
      </trkpt>
      <trkpt lat="42.90839" lon="0.15631">
        <ele>1968</ele>
        <time>2020-07-29T09:31:10.089Z</time>
      </trkpt>
      <trkpt lat="42.90836" lon="0.15629">
        <ele>1967</ele>
        <time>2020-07-29T09:31:11.089Z</time>
      </trkpt>
      <trkpt lat="42.90833" lon="0.15628">
        <ele>1965</ele>
        <time>2020-07-29T09:31:12.089Z</time>
      </trkpt>
      <trkpt lat="42.9083" lon="0.15627">
        <ele>1965</ele>
        <time>2020-07-29T09:31:13.089Z</time>
      </trkpt>
      <trkpt lat="42.90826" lon="0.15627">
        <ele>1964</ele>
        <time>2020-07-29T09:31:14.089Z</time>
      </trkpt>
      <trkpt lat="42.90823" lon="0.15628">
        <ele>1964</ele>
        <time>2020-07-29T09:31:15.089Z</time>
      </trkpt>
      <trkpt lat="42.90819" lon="0.15628">
        <ele>1963</ele>
        <time>2020-07-29T09:31:16.089Z</time>
      </trkpt>
      <trkpt lat="42.90816" lon="0.15629">
        <ele>1962</ele>
        <time>2020-07-29T09:31:17.089Z</time>
      </trkpt>
      <trkpt lat="42.90813" lon="0.15629">
        <ele>1961</ele>
        <time>2020-07-29T09:31:18.089Z</time>
      </trkpt>
      <trkpt lat="42.9081" lon="0.15629">
        <ele>1960</ele>
        <time>2020-07-29T09:31:19.089Z</time>
      </trkpt>
      <trkpt lat="42.90807" lon="0.15628">
        <ele>1960</ele>
        <time>2020-07-29T09:31:20.089Z</time>
      </trkpt>
      <trkpt lat="42.90804" lon="0.15627">
        <ele>1960</ele>
        <time>2020-07-29T09:31:21.089Z</time>
      </trkpt>
      <trkpt lat="42.90801" lon="0.15625">
        <ele>1959</ele>
        <time>2020-07-29T09:31:22.089Z</time>
      </trkpt>
      <trkpt lat="42.90799" lon="0.15623">
        <ele>1959</ele>
        <time>2020-07-29T09:31:23.089Z</time>
      </trkpt>
      <trkpt lat="42.90796" lon="0.15621">
        <ele>1957</ele>
        <time>2020-07-29T09:31:24.089Z</time>
      </trkpt>
      <trkpt lat="42.90794" lon="0.15618">
        <ele>1957</ele>
        <time>2020-07-29T09:31:25.089Z</time>
      </trkpt>
      <trkpt lat="42.90791" lon="0.15616">
        <ele>1956</ele>
        <time>2020-07-29T09:31:26.089Z</time>
      </trkpt>
      <trkpt lat="42.90789" lon="0.15613">
        <ele>1955</ele>
        <time>2020-07-29T09:31:27.089Z</time>
      </trkpt>
      <trkpt lat="42.90787" lon="0.15609">
        <ele>1954</ele>
        <time>2020-07-29T09:31:28.089Z</time>
      </trkpt>
      <trkpt lat="42.90785" lon="0.15606">
        <ele>1953</ele>
        <time>2020-07-29T09:31:29.089Z</time>
      </trkpt>
      <trkpt lat="42.90783" lon="0.15603">
        <ele>1953</ele>
        <time>2020-07-29T09:31:30.089Z</time>
      </trkpt>
      <trkpt lat="42.90781" lon="0.156">
        <ele>1951</ele>
        <time>2020-07-29T09:31:31.089Z</time>
      </trkpt>
      <trkpt lat="42.90778" lon="0.15596">
        <ele>1951</ele>
        <time>2020-07-29T09:31:32.089Z</time>
      </trkpt>
      <trkpt lat="42.90776" lon="0.15594">
        <ele>1951</ele>
        <time>2020-07-29T09:31:33.089Z</time>
      </trkpt>
      <trkpt lat="42.90773" lon="0.1559">
        <ele>1950</ele>
        <time>2020-07-29T09:31:34.089Z</time>
      </trkpt>
      <trkpt lat="42.90773" lon="0.1559">
        <ele>1950</ele>
        <time>2020-07-29T09:31:35.089Z</time>
      </trkpt>
      <trkpt lat="42.9077" lon="0.15586">
        <ele>1949</ele>
        <time>2020-07-29T09:31:36.089Z</time>
      </trkpt>
      <trkpt lat="42.90767" lon="0.15582">
        <ele>1948</ele>
        <time>2020-07-29T09:31:37.089Z</time>
      </trkpt>
      <trkpt lat="42.90765" lon="0.15579">
        <ele>1946</ele>
        <time>2020-07-29T09:31:38.089Z</time>
      </trkpt>
      <trkpt lat="42.90762" lon="0.15576">
        <ele>1945</ele>
        <time>2020-07-29T09:31:39.089Z</time>
      </trkpt>
      <trkpt lat="42.90759" lon="0.15573">
        <ele>1945</ele>
        <time>2020-07-29T09:31:40.089Z</time>
      </trkpt>
      <trkpt lat="42.90756" lon="0.1557">
        <ele>1944</ele>
        <time>2020-07-29T09:31:41.089Z</time>
      </trkpt>
      <trkpt lat="42.90753" lon="0.15568">
        <ele>1944</ele>
        <time>2020-07-29T09:31:42.089Z</time>
      </trkpt>
      <trkpt lat="42.9075" lon="0.15566">
        <ele>1943</ele>
        <time>2020-07-29T09:31:43.089Z</time>
      </trkpt>
      <trkpt lat="42.90747" lon="0.15564">
        <ele>1943</ele>
        <time>2020-07-29T09:31:44.089Z</time>
      </trkpt>
      <trkpt lat="42.90744" lon="0.15563">
        <ele>1943</ele>
        <time>2020-07-29T09:31:45.089Z</time>
      </trkpt>
      <trkpt lat="42.90741" lon="0.15561">
        <ele>1943</ele>
        <time>2020-07-29T09:31:46.089Z</time>
      </trkpt>
      <trkpt lat="42.90738" lon="0.15559">
        <ele>1943</ele>
        <time>2020-07-29T09:31:47.089Z</time>
      </trkpt>
      <trkpt lat="42.90735" lon="0.15557">
        <ele>1943</ele>
        <time>2020-07-29T09:31:48.089Z</time>
      </trkpt>
      <trkpt lat="42.90732" lon="0.15554">
        <ele>1942</ele>
        <time>2020-07-29T09:31:49.089Z</time>
      </trkpt>
      <trkpt lat="42.9073" lon="0.15551">
        <ele>1942</ele>
        <time>2020-07-29T09:31:50.089Z</time>
      </trkpt>
      <trkpt lat="42.90727" lon="0.15549">
        <ele>1942</ele>
        <time>2020-07-29T09:31:51.089Z</time>
      </trkpt>
      <trkpt lat="42.90724" lon="0.15546">
        <ele>1943</ele>
        <time>2020-07-29T09:31:52.089Z</time>
      </trkpt>
      <trkpt lat="42.90722" lon="0.15544">
        <ele>1943</ele>
        <time>2020-07-29T09:31:53.089Z</time>
      </trkpt>
      <trkpt lat="42.90719" lon="0.15541">
        <ele>1943</ele>
        <time>2020-07-29T09:31:54.089Z</time>
      </trkpt>
      <trkpt lat="42.90717" lon="0.15537">
        <ele>1942</ele>
        <time>2020-07-29T09:31:55.089Z</time>
      </trkpt>
      <trkpt lat="42.90715" lon="0.15534">
        <ele>1942</ele>
        <time>2020-07-29T09:31:56.089Z</time>
      </trkpt>
      <trkpt lat="42.90712" lon="0.15531">
        <ele>1942</ele>
        <time>2020-07-29T09:31:57.089Z</time>
      </trkpt>
      <trkpt lat="42.9071" lon="0.15527">
        <ele>1942</ele>
        <time>2020-07-29T09:31:58.089Z</time>
      </trkpt>
      <trkpt lat="42.90708" lon="0.15524">
        <ele>1942</ele>
        <time>2020-07-29T09:31:59.089Z</time>
      </trkpt>
      <trkpt lat="42.90706" lon="0.15521">
        <ele>1940</ele>
        <time>2020-07-29T09:32:00.089Z</time>
      </trkpt>
      <trkpt lat="42.90703" lon="0.15518">
        <ele>1941</ele>
        <time>2020-07-29T09:32:01.089Z</time>
      </trkpt>
      <trkpt lat="42.90701" lon="0.15515">
        <ele>1941</ele>
        <time>2020-07-29T09:32:02.089Z</time>
      </trkpt>
      <trkpt lat="42.90698" lon="0.15512">
        <ele>1940</ele>
        <time>2020-07-29T09:32:03.089Z</time>
      </trkpt>
      <trkpt lat="42.90696" lon="0.15509">
        <ele>1940</ele>
        <time>2020-07-29T09:32:04.089Z</time>
      </trkpt>
      <trkpt lat="42.90693" lon="0.15506">
        <ele>1939</ele>
        <time>2020-07-29T09:32:05.089Z</time>
      </trkpt>
      <trkpt lat="42.90691" lon="0.15503">
        <ele>1940</ele>
        <time>2020-07-29T09:32:06.089Z</time>
      </trkpt>
      <trkpt lat="42.90689" lon="0.155">
        <ele>1940</ele>
        <time>2020-07-29T09:32:07.089Z</time>
      </trkpt>
      <trkpt lat="42.90686" lon="0.15497">
        <ele>1939</ele>
        <time>2020-07-29T09:32:08.089Z</time>
      </trkpt>
      <trkpt lat="42.90684" lon="0.15493">
        <ele>1939</ele>
        <time>2020-07-29T09:32:09.089Z</time>
      </trkpt>
      <trkpt lat="42.90681" lon="0.1549">
        <ele>1939</ele>
        <time>2020-07-29T09:32:10.089Z</time>
      </trkpt>
      <trkpt lat="42.90679" lon="0.15487">
        <ele>1939</ele>
        <time>2020-07-29T09:32:11.089Z</time>
      </trkpt>
      <trkpt lat="42.90677" lon="0.15483">
        <ele>1939</ele>
        <time>2020-07-29T09:32:12.089Z</time>
      </trkpt>
      <trkpt lat="42.90675" lon="0.1548">
        <ele>1938</ele>
        <time>2020-07-29T09:32:13.089Z</time>
      </trkpt>
      <trkpt lat="42.90673" lon="0.15475">
        <ele>1937</ele>
        <time>2020-07-29T09:32:14.089Z</time>
      </trkpt>
      <trkpt lat="42.90672" lon="0.15471">
        <ele>1941</ele>
        <time>2020-07-29T09:32:15.089Z</time>
      </trkpt>
      <trkpt lat="42.90671" lon="0.15466">
        <ele>1942</ele>
        <time>2020-07-29T09:32:16.089Z</time>
      </trkpt>
      <trkpt lat="42.9067" lon="0.15462">
        <ele>1942</ele>
        <time>2020-07-29T09:32:17.089Z</time>
      </trkpt>
      <trkpt lat="42.9067" lon="0.15457">
        <ele>1942</ele>
        <time>2020-07-29T09:32:18.089Z</time>
      </trkpt>
      <trkpt lat="42.90669" lon="0.15453">
        <ele>1942</ele>
        <time>2020-07-29T09:32:19.089Z</time>
      </trkpt>
      <trkpt lat="42.90669" lon="0.15448">
        <ele>1942</ele>
        <time>2020-07-29T09:32:20.089Z</time>
      </trkpt>
      <trkpt lat="42.90669" lon="0.15444">
        <ele>1943</ele>
        <time>2020-07-29T09:32:21.089Z</time>
      </trkpt>
      <trkpt lat="42.90669" lon="0.15439">
        <ele>1943</ele>
        <time>2020-07-29T09:32:22.089Z</time>
      </trkpt>
      <trkpt lat="42.9067" lon="0.15435">
        <ele>1944</ele>
        <time>2020-07-29T09:32:23.089Z</time>
      </trkpt>
      <trkpt lat="42.9067" lon="0.1543">
        <ele>1944</ele>
        <time>2020-07-29T09:32:24.089Z</time>
      </trkpt>
      <trkpt lat="42.90671" lon="0.15425">
        <ele>1944</ele>
        <time>2020-07-29T09:32:25.089Z</time>
      </trkpt>
      <trkpt lat="42.90671" lon="0.15421">
        <ele>1945</ele>
        <time>2020-07-29T09:32:26.089Z</time>
      </trkpt>
      <trkpt lat="42.90671" lon="0.15416">
        <ele>1945</ele>
        <time>2020-07-29T09:32:27.089Z</time>
      </trkpt>
      <trkpt lat="42.90672" lon="0.15412">
        <ele>1945</ele>
        <time>2020-07-29T09:32:28.089Z</time>
      </trkpt>
      <trkpt lat="42.90672" lon="0.15408">
        <ele>1944</ele>
        <time>2020-07-29T09:32:29.089Z</time>
      </trkpt>
      <trkpt lat="42.90672" lon="0.15404">
        <ele>1944</ele>
        <time>2020-07-29T09:32:30.089Z</time>
      </trkpt>
      <trkpt lat="42.90671" lon="0.154">
        <ele>1946</ele>
        <time>2020-07-29T09:32:31.089Z</time>
      </trkpt>
      <trkpt lat="42.9067" lon="0.15396">
        <ele>1944</ele>
        <time>2020-07-29T09:32:32.089Z</time>
      </trkpt>
      <trkpt lat="42.90668" lon="0.15393">
        <ele>1942</ele>
        <time>2020-07-29T09:32:33.089Z</time>
      </trkpt>
      <trkpt lat="42.90665" lon="0.15392">
        <ele>1941</ele>
        <time>2020-07-29T09:32:34.089Z</time>
      </trkpt>
      <trkpt lat="42.90662" lon="0.15392">
        <ele>1942</ele>
        <time>2020-07-29T09:32:35.089Z</time>
      </trkpt>
      <trkpt lat="42.9066" lon="0.15392">
        <ele>1941</ele>
        <time>2020-07-29T09:32:36.089Z</time>
      </trkpt>
      <trkpt lat="42.90657" lon="0.15393">
        <ele>1940</ele>
        <time>2020-07-29T09:32:37.089Z</time>
      </trkpt>
      <trkpt lat="42.90655" lon="0.15394">
        <ele>1939</ele>
        <time>2020-07-29T09:32:38.089Z</time>
      </trkpt>
      <trkpt lat="42.90652" lon="0.15395">
        <ele>1940</ele>
        <time>2020-07-29T09:32:39.089Z</time>
      </trkpt>
      <trkpt lat="42.90651" lon="0.15397">
        <ele>1940</ele>
        <time>2020-07-29T09:32:40.089Z</time>
      </trkpt>
      <trkpt lat="42.90651" lon="0.15399">
        <ele>1939</ele>
        <time>2020-07-29T09:32:41.089Z</time>
      </trkpt>
      <trkpt lat="42.90651" lon="0.15401">
        <ele>1939</ele>
        <time>2020-07-29T09:32:42.089Z</time>
      </trkpt>
      <trkpt lat="42.9065" lon="0.15402">
        <ele>1938</ele>
        <time>2020-07-29T09:32:43.089Z</time>
      </trkpt>
      <trkpt lat="42.9065" lon="0.15404">
        <ele>1938</ele>
        <time>2020-07-29T09:32:44.089Z</time>
      </trkpt>
      <trkpt lat="42.9065" lon="0.15406">
        <ele>1937</ele>
        <time>2020-07-29T09:32:45.089Z</time>
      </trkpt>
      <trkpt lat="42.90649" lon="0.15408">
        <ele>1938</ele>
        <time>2020-07-29T09:32:46.089Z</time>
      </trkpt>
      <trkpt lat="42.90649" lon="0.1541">
        <ele>1938</ele>
        <time>2020-07-29T09:32:47.089Z</time>
      </trkpt>
      <trkpt lat="42.90649" lon="0.15414">
        <ele>1940</ele>
        <time>2020-07-29T09:32:48.089Z</time>
      </trkpt>
      <trkpt lat="42.9065" lon="0.15417">
        <ele>1939</ele>
        <time>2020-07-29T09:32:49.089Z</time>
      </trkpt>
      <trkpt lat="42.9065" lon="0.15422">
        <ele>1941</ele>
        <time>2020-07-29T09:32:50.089Z</time>
      </trkpt>
      <trkpt lat="42.9065" lon="0.15426">
        <ele>1940</ele>
        <time>2020-07-29T09:32:51.089Z</time>
      </trkpt>
      <trkpt lat="42.9065" lon="0.15431">
        <ele>1940</ele>
        <time>2020-07-29T09:32:52.089Z</time>
      </trkpt>
      <trkpt lat="42.9065" lon="0.15435">
        <ele>1939</ele>
        <time>2020-07-29T09:32:53.089Z</time>
      </trkpt>
      <trkpt lat="42.90651" lon="0.15439">
        <ele>1940</ele>
        <time>2020-07-29T09:32:54.089Z</time>
      </trkpt>
      <trkpt lat="42.90651" lon="0.15443">
        <ele>1939</ele>
        <time>2020-07-29T09:32:55.089Z</time>
      </trkpt>
      <trkpt lat="42.90651" lon="0.15447">
        <ele>1939</ele>
        <time>2020-07-29T09:32:56.089Z</time>
      </trkpt>
      <trkpt lat="42.90651" lon="0.15451">
        <ele>1938</ele>
        <time>2020-07-29T09:32:57.089Z</time>
      </trkpt>
      <trkpt lat="42.9065" lon="0.15454">
        <ele>1938</ele>
        <time>2020-07-29T09:32:58.089Z</time>
      </trkpt>
      <trkpt lat="42.9065" lon="0.15457">
        <ele>1937</ele>
        <time>2020-07-29T09:32:59.089Z</time>
      </trkpt>
      <trkpt lat="42.90649" lon="0.1546">
        <ele>1938</ele>
        <time>2020-07-29T09:33:00.089Z</time>
      </trkpt>
      <trkpt lat="42.90648" lon="0.15463">
        <ele>1937</ele>
        <time>2020-07-29T09:33:01.089Z</time>
      </trkpt>
      <trkpt lat="42.90647" lon="0.15465">
        <ele>1937</ele>
        <time>2020-07-29T09:33:02.089Z</time>
      </trkpt>
      <trkpt lat="42.90646" lon="0.15467">
        <ele>1937</ele>
        <time>2020-07-29T09:33:03.089Z</time>
      </trkpt>
      <trkpt lat="42.90644" lon="0.15469">
        <ele>1937</ele>
        <time>2020-07-29T09:33:04.089Z</time>
      </trkpt>
      <trkpt lat="42.90643" lon="0.1547">
        <ele>1937</ele>
        <time>2020-07-29T09:33:05.089Z</time>
      </trkpt>
      <trkpt lat="42.90642" lon="0.15471">
        <ele>1936</ele>
        <time>2020-07-29T09:33:06.089Z</time>
      </trkpt>
      <trkpt lat="42.90641" lon="0.15472">
        <ele>1936</ele>
        <time>2020-07-29T09:33:07.089Z</time>
      </trkpt>
      <trkpt lat="42.90639" lon="0.15473">
        <ele>1935</ele>
        <time>2020-07-29T09:33:08.089Z</time>
      </trkpt>
      <trkpt lat="42.90638" lon="0.15474">
        <ele>1934</ele>
        <time>2020-07-29T09:33:09.089Z</time>
      </trkpt>
      <trkpt lat="42.90636" lon="0.15475">
        <ele>1934</ele>
        <time>2020-07-29T09:33:10.089Z</time>
      </trkpt>
      <trkpt lat="42.90634" lon="0.15476">
        <ele>1933</ele>
        <time>2020-07-29T09:33:11.089Z</time>
      </trkpt>
      <trkpt lat="42.90632" lon="0.15478">
        <ele>1933</ele>
        <time>2020-07-29T09:33:12.089Z</time>
      </trkpt>
      <trkpt lat="42.90631" lon="0.1548">
        <ele>1932</ele>
        <time>2020-07-29T09:33:13.089Z</time>
      </trkpt>
      <trkpt lat="42.90629" lon="0.15481">
        <ele>1931</ele>
        <time>2020-07-29T09:33:14.089Z</time>
      </trkpt>
      <trkpt lat="42.90627" lon="0.15483">
        <ele>1929</ele>
        <time>2020-07-29T09:33:15.089Z</time>
      </trkpt>
      <trkpt lat="42.90625" lon="0.15485">
        <ele>1928</ele>
        <time>2020-07-29T09:33:16.089Z</time>
      </trkpt>
      <trkpt lat="42.90624" lon="0.15487">
        <ele>1927</ele>
        <time>2020-07-29T09:33:17.089Z</time>
      </trkpt>
      <trkpt lat="42.90622" lon="0.1549">
        <ele>1926</ele>
        <time>2020-07-29T09:33:18.089Z</time>
      </trkpt>
      <trkpt lat="42.9062" lon="0.15492">
        <ele>1925</ele>
        <time>2020-07-29T09:33:19.089Z</time>
      </trkpt>
      <trkpt lat="42.90619" lon="0.15494">
        <ele>1925</ele>
        <time>2020-07-29T09:33:20.089Z</time>
      </trkpt>
      <trkpt lat="42.90618" lon="0.15497">
        <ele>1924</ele>
        <time>2020-07-29T09:33:21.089Z</time>
      </trkpt>
      <trkpt lat="42.90616" lon="0.15499">
        <ele>1924</ele>
        <time>2020-07-29T09:33:22.089Z</time>
      </trkpt>
      <trkpt lat="42.90615" lon="0.15502">
        <ele>1923</ele>
        <time>2020-07-29T09:33:23.089Z</time>
      </trkpt>
      <trkpt lat="42.90614" lon="0.15504">
        <ele>1922</ele>
        <time>2020-07-29T09:33:24.089Z</time>
      </trkpt>
      <trkpt lat="42.90613" lon="0.15506">
        <ele>1922</ele>
        <time>2020-07-29T09:33:25.089Z</time>
      </trkpt>
      <trkpt lat="42.90613" lon="0.15508">
        <ele>1922</ele>
        <time>2020-07-29T09:33:26.089Z</time>
      </trkpt>
      <trkpt lat="42.90612" lon="0.1551">
        <ele>1921</ele>
        <time>2020-07-29T09:33:27.089Z</time>
      </trkpt>
      <trkpt lat="42.90611" lon="0.15512">
        <ele>1920</ele>
        <time>2020-07-29T09:33:28.089Z</time>
      </trkpt>
      <trkpt lat="42.9061" lon="0.15513">
        <ele>1919</ele>
        <time>2020-07-29T09:33:29.089Z</time>
      </trkpt>
      <trkpt lat="42.90609" lon="0.15515">
        <ele>1918</ele>
        <time>2020-07-29T09:33:30.089Z</time>
      </trkpt>
      <trkpt lat="42.90609" lon="0.15517">
        <ele>1918</ele>
        <time>2020-07-29T09:33:31.089Z</time>
      </trkpt>
      <trkpt lat="42.90608" lon="0.15519">
        <ele>1917</ele>
        <time>2020-07-29T09:33:32.089Z</time>
      </trkpt>
      <trkpt lat="42.90607" lon="0.15521">
        <ele>1917</ele>
        <time>2020-07-29T09:33:33.089Z</time>
      </trkpt>
      <trkpt lat="42.90606" lon="0.15524">
        <ele>1916</ele>
        <time>2020-07-29T09:33:34.089Z</time>
      </trkpt>
      <trkpt lat="42.90605" lon="0.15526">
        <ele>1916</ele>
        <time>2020-07-29T09:33:35.089Z</time>
      </trkpt>
      <trkpt lat="42.90603" lon="0.15529">
        <ele>1916</ele>
        <time>2020-07-29T09:33:36.089Z</time>
      </trkpt>
      <trkpt lat="42.90602" lon="0.15531">
        <ele>1915</ele>
        <time>2020-07-29T09:33:37.089Z</time>
      </trkpt>
      <trkpt lat="42.906" lon="0.15534">
        <ele>1914</ele>
        <time>2020-07-29T09:33:38.089Z</time>
      </trkpt>
      <trkpt lat="42.90598" lon="0.15537">
        <ele>1914</ele>
        <time>2020-07-29T09:33:39.089Z</time>
      </trkpt>
      <trkpt lat="42.90596" lon="0.1554">
        <ele>1913</ele>
        <time>2020-07-29T09:33:40.089Z</time>
      </trkpt>
      <trkpt lat="42.90594" lon="0.15542">
        <ele>1911</ele>
        <time>2020-07-29T09:33:41.089Z</time>
      </trkpt>
      <trkpt lat="42.90591" lon="0.15543">
        <ele>1910</ele>
        <time>2020-07-29T09:33:42.089Z</time>
      </trkpt>
      <trkpt lat="42.90588" lon="0.15544">
        <ele>1909</ele>
        <time>2020-07-29T09:33:43.089Z</time>
      </trkpt>
      <trkpt lat="42.90586" lon="0.15545">
        <ele>1909</ele>
        <time>2020-07-29T09:33:44.089Z</time>
      </trkpt>
      <trkpt lat="42.90583" lon="0.15546">
        <ele>1909</ele>
        <time>2020-07-29T09:33:45.089Z</time>
      </trkpt>
      <trkpt lat="42.90581" lon="0.15546">
        <ele>1909</ele>
        <time>2020-07-29T09:33:46.089Z</time>
      </trkpt>
      <trkpt lat="42.90578" lon="0.15545">
        <ele>1909</ele>
        <time>2020-07-29T09:33:47.089Z</time>
      </trkpt>
      <trkpt lat="42.90576" lon="0.15545">
        <ele>1908</ele>
        <time>2020-07-29T09:33:48.089Z</time>
      </trkpt>
      <trkpt lat="42.90574" lon="0.15545">
        <ele>1908</ele>
        <time>2020-07-29T09:33:49.089Z</time>
      </trkpt>
      <trkpt lat="42.90571" lon="0.15545">
        <ele>1908</ele>
        <time>2020-07-29T09:33:50.089Z</time>
      </trkpt>
      <trkpt lat="42.90569" lon="0.15544">
        <ele>1908</ele>
        <time>2020-07-29T09:33:51.089Z</time>
      </trkpt>
      <trkpt lat="42.90567" lon="0.15544">
        <ele>1908</ele>
        <time>2020-07-29T09:33:52.089Z</time>
      </trkpt>
      <trkpt lat="42.90565" lon="0.15543">
        <ele>1907</ele>
        <time>2020-07-29T09:33:53.089Z</time>
      </trkpt>
      <trkpt lat="42.90562" lon="0.15542">
        <ele>1907</ele>
        <time>2020-07-29T09:33:54.089Z</time>
      </trkpt>
      <trkpt lat="42.9056" lon="0.15541">
        <ele>1906</ele>
        <time>2020-07-29T09:33:55.089Z</time>
      </trkpt>
      <trkpt lat="42.90558" lon="0.15539">
        <ele>1906</ele>
        <time>2020-07-29T09:33:56.089Z</time>
      </trkpt>
      <trkpt lat="42.90555" lon="0.15538">
        <ele>1905</ele>
        <time>2020-07-29T09:33:57.089Z</time>
      </trkpt>
      <trkpt lat="42.90553" lon="0.15537">
        <ele>1905</ele>
        <time>2020-07-29T09:33:58.089Z</time>
      </trkpt>
      <trkpt lat="42.9055" lon="0.15535">
        <ele>1903</ele>
        <time>2020-07-29T09:33:59.089Z</time>
      </trkpt>
      <trkpt lat="42.90548" lon="0.15534">
        <ele>1903</ele>
        <time>2020-07-29T09:34:00.089Z</time>
      </trkpt>
      <trkpt lat="42.90545" lon="0.15531">
        <ele>1902</ele>
        <time>2020-07-29T09:34:01.089Z</time>
      </trkpt>
      <trkpt lat="42.90542" lon="0.15529">
        <ele>1902</ele>
        <time>2020-07-29T09:34:02.089Z</time>
      </trkpt>
      <trkpt lat="42.90538" lon="0.15526">
        <ele>1901</ele>
        <time>2020-07-29T09:34:03.089Z</time>
      </trkpt>
      <trkpt lat="42.90535" lon="0.15525">
        <ele>1901</ele>
        <time>2020-07-29T09:34:04.089Z</time>
      </trkpt>
      <trkpt lat="42.90533" lon="0.15522">
        <ele>1901</ele>
        <time>2020-07-29T09:34:05.089Z</time>
      </trkpt>
      <trkpt lat="42.9053" lon="0.1552">
        <ele>1900</ele>
        <time>2020-07-29T09:34:06.089Z</time>
      </trkpt>
      <trkpt lat="42.90528" lon="0.15518">
        <ele>1900</ele>
        <time>2020-07-29T09:34:07.089Z</time>
      </trkpt>
      <trkpt lat="42.90527" lon="0.15515">
        <ele>1900</ele>
        <time>2020-07-29T09:34:08.089Z</time>
      </trkpt>
      <trkpt lat="42.90525" lon="0.15512">
        <ele>1899</ele>
        <time>2020-07-29T09:34:09.089Z</time>
      </trkpt>
      <trkpt lat="42.90523" lon="0.15509">
        <ele>1899</ele>
        <time>2020-07-29T09:34:10.089Z</time>
      </trkpt>
      <trkpt lat="42.90521" lon="0.15506">
        <ele>1900</ele>
        <time>2020-07-29T09:34:11.089Z</time>
      </trkpt>
      <trkpt lat="42.90519" lon="0.15503">
        <ele>1901</ele>
        <time>2020-07-29T09:34:12.089Z</time>
      </trkpt>
      <trkpt lat="42.90517" lon="0.15501">
        <ele>1901</ele>
        <time>2020-07-29T09:34:13.089Z</time>
      </trkpt>
      <trkpt lat="42.90515" lon="0.15498">
        <ele>1902</ele>
        <time>2020-07-29T09:34:14.089Z</time>
      </trkpt>
      <trkpt lat="42.90513" lon="0.15496">
        <ele>1901</ele>
        <time>2020-07-29T09:34:15.089Z</time>
      </trkpt>
      <trkpt lat="42.90511" lon="0.15494">
        <ele>1902</ele>
        <time>2020-07-29T09:34:16.089Z</time>
      </trkpt>
      <trkpt lat="42.9051" lon="0.15492">
        <ele>1902</ele>
        <time>2020-07-29T09:34:17.089Z</time>
      </trkpt>
      <trkpt lat="42.90508" lon="0.1549">
        <ele>1902</ele>
        <time>2020-07-29T09:34:18.089Z</time>
      </trkpt>
      <trkpt lat="42.90507" lon="0.15488">
        <ele>1903</ele>
        <time>2020-07-29T09:34:19.089Z</time>
      </trkpt>
      <trkpt lat="42.90506" lon="0.15486">
        <ele>1904</ele>
        <time>2020-07-29T09:34:20.089Z</time>
      </trkpt>
      <trkpt lat="42.90504" lon="0.15484">
        <ele>1904</ele>
        <time>2020-07-29T09:34:21.089Z</time>
      </trkpt>
      <trkpt lat="42.90502" lon="0.15482">
        <ele>1905</ele>
        <time>2020-07-29T09:34:22.089Z</time>
      </trkpt>
      <trkpt lat="42.90501" lon="0.1548">
        <ele>1906</ele>
        <time>2020-07-29T09:34:23.089Z</time>
      </trkpt>
      <trkpt lat="42.90499" lon="0.15479">
        <ele>1905</ele>
        <time>2020-07-29T09:34:24.089Z</time>
      </trkpt>
      <trkpt lat="42.90497" lon="0.15478">
        <ele>1905</ele>
        <time>2020-07-29T09:34:25.089Z</time>
      </trkpt>
      <trkpt lat="42.90495" lon="0.15477">
        <ele>1905</ele>
        <time>2020-07-29T09:34:26.089Z</time>
      </trkpt>
      <trkpt lat="42.90493" lon="0.15477">
        <ele>1905</ele>
        <time>2020-07-29T09:34:27.089Z</time>
      </trkpt>
      <trkpt lat="42.90491" lon="0.15477">
        <ele>1903</ele>
        <time>2020-07-29T09:34:28.089Z</time>
      </trkpt>
      <trkpt lat="42.90489" lon="0.15478">
        <ele>1905</ele>
        <time>2020-07-29T09:34:29.089Z</time>
      </trkpt>
      <trkpt lat="42.90487" lon="0.1548">
        <ele>1906</ele>
        <time>2020-07-29T09:34:30.089Z</time>
      </trkpt>
      <trkpt lat="42.90485" lon="0.15482">
        <ele>1905</ele>
        <time>2020-07-29T09:34:31.089Z</time>
      </trkpt>
      <trkpt lat="42.90482" lon="0.15483">
        <ele>1905</ele>
        <time>2020-07-29T09:34:32.089Z</time>
      </trkpt>
      <trkpt lat="42.9048" lon="0.15485">
        <ele>1905</ele>
        <time>2020-07-29T09:34:33.089Z</time>
      </trkpt>
      <trkpt lat="42.90477" lon="0.15486">
        <ele>1905</ele>
        <time>2020-07-29T09:34:34.089Z</time>
      </trkpt>
      <trkpt lat="42.90474" lon="0.15488">
        <ele>1905</ele>
        <time>2020-07-29T09:34:35.089Z</time>
      </trkpt>
      <trkpt lat="42.90472" lon="0.1549">
        <ele>1905</ele>
        <time>2020-07-29T09:34:36.089Z</time>
      </trkpt>
      <trkpt lat="42.90469" lon="0.15492">
        <ele>1905</ele>
        <time>2020-07-29T09:34:37.089Z</time>
      </trkpt>
      <trkpt lat="42.90466" lon="0.15494">
        <ele>1905</ele>
        <time>2020-07-29T09:34:38.089Z</time>
      </trkpt>
      <trkpt lat="42.90463" lon="0.15495">
        <ele>1905</ele>
        <time>2020-07-29T09:34:39.089Z</time>
      </trkpt>
      <trkpt lat="42.9046" lon="0.15497">
        <ele>1905</ele>
        <time>2020-07-29T09:34:40.089Z</time>
      </trkpt>
      <trkpt lat="42.90457" lon="0.15498">
        <ele>1905</ele>
        <time>2020-07-29T09:34:41.089Z</time>
      </trkpt>
      <trkpt lat="42.90454" lon="0.155">
        <ele>1905</ele>
        <time>2020-07-29T09:34:42.089Z</time>
      </trkpt>
      <trkpt lat="42.90451" lon="0.15501">
        <ele>1904</ele>
        <time>2020-07-29T09:34:43.089Z</time>
      </trkpt>
      <trkpt lat="42.90447" lon="0.15502">
        <ele>1903</ele>
        <time>2020-07-29T09:34:44.089Z</time>
      </trkpt>
      <trkpt lat="42.90444" lon="0.15504">
        <ele>1904</ele>
        <time>2020-07-29T09:34:45.089Z</time>
      </trkpt>
      <trkpt lat="42.9044" lon="0.15505">
        <ele>1905</ele>
        <time>2020-07-29T09:34:46.089Z</time>
      </trkpt>
      <trkpt lat="42.90438" lon="0.15507">
        <ele>1905</ele>
        <time>2020-07-29T09:34:47.089Z</time>
      </trkpt>
      <trkpt lat="42.90435" lon="0.15509">
        <ele>1906</ele>
        <time>2020-07-29T09:34:48.089Z</time>
      </trkpt>
      <trkpt lat="42.90432" lon="0.15511">
        <ele>1907</ele>
        <time>2020-07-29T09:34:49.089Z</time>
      </trkpt>
      <trkpt lat="42.9043" lon="0.15513">
        <ele>1907</ele>
        <time>2020-07-29T09:34:50.089Z</time>
      </trkpt>
      <trkpt lat="42.90427" lon="0.15514">
        <ele>1908</ele>
        <time>2020-07-29T09:34:51.089Z</time>
      </trkpt>
      <trkpt lat="42.90425" lon="0.15516">
        <ele>1908</ele>
        <time>2020-07-29T09:34:52.089Z</time>
      </trkpt>
      <trkpt lat="42.90422" lon="0.15517">
        <ele>1909</ele>
        <time>2020-07-29T09:34:53.089Z</time>
      </trkpt>
      <trkpt lat="42.90419" lon="0.15519">
        <ele>1911</ele>
        <time>2020-07-29T09:34:54.089Z</time>
      </trkpt>
      <trkpt lat="42.90417" lon="0.15521">
        <ele>1912</ele>
        <time>2020-07-29T09:34:55.089Z</time>
      </trkpt>
      <trkpt lat="42.90415" lon="0.15522">
        <ele>1912</ele>
        <time>2020-07-29T09:34:56.089Z</time>
      </trkpt>
      <trkpt lat="42.90412" lon="0.15524">
        <ele>1911</ele>
        <time>2020-07-29T09:34:57.089Z</time>
      </trkpt>
      <trkpt lat="42.90409" lon="0.15526">
        <ele>1911</ele>
        <time>2020-07-29T09:34:58.089Z</time>
      </trkpt>
      <trkpt lat="42.90407" lon="0.15528">
        <ele>1912</ele>
        <time>2020-07-29T09:34:59.089Z</time>
      </trkpt>
      <trkpt lat="42.90404" lon="0.1553">
        <ele>1912</ele>
        <time>2020-07-29T09:35:00.089Z</time>
      </trkpt>
      <trkpt lat="42.90402" lon="0.15532">
        <ele>1913</ele>
        <time>2020-07-29T09:35:01.089Z</time>
      </trkpt>
      <trkpt lat="42.90399" lon="0.15534">
        <ele>1913</ele>
        <time>2020-07-29T09:35:02.089Z</time>
      </trkpt>
      <trkpt lat="42.90397" lon="0.15535">
        <ele>1913</ele>
        <time>2020-07-29T09:35:03.089Z</time>
      </trkpt>
      <trkpt lat="42.90395" lon="0.15537">
        <ele>1913</ele>
        <time>2020-07-29T09:35:04.089Z</time>
      </trkpt>
      <trkpt lat="42.90393" lon="0.15539">
        <ele>1912</ele>
        <time>2020-07-29T09:35:05.089Z</time>
      </trkpt>
      <trkpt lat="42.9039" lon="0.15541">
        <ele>1913</ele>
        <time>2020-07-29T09:35:06.089Z</time>
      </trkpt>
      <trkpt lat="42.90388" lon="0.15543">
        <ele>1912</ele>
        <time>2020-07-29T09:35:07.089Z</time>
      </trkpt>
      <trkpt lat="42.90385" lon="0.15546">
        <ele>1912</ele>
        <time>2020-07-29T09:35:08.089Z</time>
      </trkpt>
      <trkpt lat="42.90383" lon="0.15548">
        <ele>1913</ele>
        <time>2020-07-29T09:35:09.089Z</time>
      </trkpt>
      <trkpt lat="42.9038" lon="0.1555">
        <ele>1912</ele>
        <time>2020-07-29T09:35:10.089Z</time>
      </trkpt>
      <trkpt lat="42.90377" lon="0.15552">
        <ele>1913</ele>
        <time>2020-07-29T09:35:11.089Z</time>
      </trkpt>
      <trkpt lat="42.90374" lon="0.15553">
        <ele>1913</ele>
        <time>2020-07-29T09:35:12.089Z</time>
      </trkpt>
      <trkpt lat="42.90371" lon="0.15555">
        <ele>1914</ele>
        <time>2020-07-29T09:35:13.089Z</time>
      </trkpt>
      <trkpt lat="42.90368" lon="0.15557">
        <ele>1913</ele>
        <time>2020-07-29T09:35:14.089Z</time>
      </trkpt>
      <trkpt lat="42.90365" lon="0.15558">
        <ele>1914</ele>
        <time>2020-07-29T09:35:15.089Z</time>
      </trkpt>
      <trkpt lat="42.90363" lon="0.1556">
        <ele>1913</ele>
        <time>2020-07-29T09:35:16.089Z</time>
      </trkpt>
      <trkpt lat="42.9036" lon="0.15561">
        <ele>1913</ele>
        <time>2020-07-29T09:35:17.089Z</time>
      </trkpt>
      <trkpt lat="42.90357" lon="0.15563">
        <ele>1914</ele>
        <time>2020-07-29T09:35:18.089Z</time>
      </trkpt>
      <trkpt lat="42.90354" lon="0.15564">
        <ele>1914</ele>
        <time>2020-07-29T09:35:19.089Z</time>
      </trkpt>
      <trkpt lat="42.90351" lon="0.15566">
        <ele>1915</ele>
        <time>2020-07-29T09:35:20.089Z</time>
      </trkpt>
      <trkpt lat="42.90349" lon="0.15567">
        <ele>1915</ele>
        <time>2020-07-29T09:35:21.089Z</time>
      </trkpt>
      <trkpt lat="42.90346" lon="0.15568">
        <ele>1914</ele>
        <time>2020-07-29T09:35:22.089Z</time>
      </trkpt>
      <trkpt lat="42.90343" lon="0.15569">
        <ele>1914</ele>
        <time>2020-07-29T09:35:23.089Z</time>
      </trkpt>
      <trkpt lat="42.9034" lon="0.15569">
        <ele>1914</ele>
        <time>2020-07-29T09:35:24.089Z</time>
      </trkpt>
      <trkpt lat="42.90338" lon="0.15569">
        <ele>1913</ele>
        <time>2020-07-29T09:35:25.089Z</time>
      </trkpt>
      <trkpt lat="42.90335" lon="0.15569">
        <ele>1914</ele>
        <time>2020-07-29T09:35:26.089Z</time>
      </trkpt>
      <trkpt lat="42.90333" lon="0.15569">
        <ele>1914</ele>
        <time>2020-07-29T09:35:27.089Z</time>
      </trkpt>
      <trkpt lat="42.9033" lon="0.15569">
        <ele>1915</ele>
        <time>2020-07-29T09:35:28.089Z</time>
      </trkpt>
      <trkpt lat="42.90328" lon="0.15568">
        <ele>1915</ele>
        <time>2020-07-29T09:35:29.089Z</time>
      </trkpt>
      <trkpt lat="42.90325" lon="0.15568">
        <ele>1917</ele>
        <time>2020-07-29T09:35:30.089Z</time>
      </trkpt>
      <trkpt lat="42.90322" lon="0.15568">
        <ele>1916</ele>
        <time>2020-07-29T09:35:31.089Z</time>
      </trkpt>
      <trkpt lat="42.90319" lon="0.15568">
        <ele>1916</ele>
        <time>2020-07-29T09:35:32.089Z</time>
      </trkpt>
      <trkpt lat="42.90316" lon="0.15569">
        <ele>1917</ele>
        <time>2020-07-29T09:35:33.089Z</time>
      </trkpt>
      <trkpt lat="42.90313" lon="0.1557">
        <ele>1917</ele>
        <time>2020-07-29T09:35:34.089Z</time>
      </trkpt>
      <trkpt lat="42.90311" lon="0.1557">
        <ele>1917</ele>
        <time>2020-07-29T09:35:35.089Z</time>
      </trkpt>
      <trkpt lat="42.90308" lon="0.15571">
        <ele>1917</ele>
        <time>2020-07-29T09:35:36.089Z</time>
      </trkpt>
      <trkpt lat="42.90306" lon="0.15572">
        <ele>1917</ele>
        <time>2020-07-29T09:35:37.089Z</time>
      </trkpt>
      <trkpt lat="42.90304" lon="0.15572">
        <ele>1918</ele>
        <time>2020-07-29T09:35:38.089Z</time>
      </trkpt>
      <trkpt lat="42.90302" lon="0.15571">
        <ele>1918</ele>
        <time>2020-07-29T09:35:39.089Z</time>
      </trkpt>
      <trkpt lat="42.903" lon="0.1557">
        <ele>1919</ele>
        <time>2020-07-29T09:35:40.089Z</time>
      </trkpt>
      <trkpt lat="42.90299" lon="0.15568">
        <ele>1919</ele>
        <time>2020-07-29T09:35:41.089Z</time>
      </trkpt>
      <trkpt lat="42.90299" lon="0.15564">
        <ele>1917</ele>
        <time>2020-07-29T09:35:42.089Z</time>
      </trkpt>
      <trkpt lat="42.90299" lon="0.1556">
        <ele>1918</ele>
        <time>2020-07-29T09:35:43.089Z</time>
      </trkpt>
      <trkpt lat="42.903" lon="0.15556">
        <ele>1920</ele>
        <time>2020-07-29T09:35:44.089Z</time>
      </trkpt>
      <trkpt lat="42.903" lon="0.15554">
        <ele>1921</ele>
        <time>2020-07-29T09:35:45.089Z</time>
      </trkpt>
      <trkpt lat="42.903" lon="0.15551">
        <ele>1922</ele>
        <time>2020-07-29T09:35:46.089Z</time>
      </trkpt>
      <trkpt lat="42.903" lon="0.15548">
        <ele>1922</ele>
        <time>2020-07-29T09:35:47.089Z</time>
      </trkpt>
      <trkpt lat="42.90301" lon="0.15545">
        <ele>1922</ele>
        <time>2020-07-29T09:35:48.089Z</time>
      </trkpt>
      <trkpt lat="42.90302" lon="0.15543">
        <ele>1922</ele>
        <time>2020-07-29T09:35:49.089Z</time>
      </trkpt>
      <trkpt lat="42.90302" lon="0.1554">
        <ele>1923</ele>
        <time>2020-07-29T09:35:50.089Z</time>
      </trkpt>
      <trkpt lat="42.90303" lon="0.15538">
        <ele>1923</ele>
        <time>2020-07-29T09:35:51.089Z</time>
      </trkpt>
      <trkpt lat="42.90303" lon="0.15535">
        <ele>1924</ele>
        <time>2020-07-29T09:35:52.089Z</time>
      </trkpt>
      <trkpt lat="42.90304" lon="0.15532">
        <ele>1925</ele>
        <time>2020-07-29T09:35:53.089Z</time>
      </trkpt>
      <trkpt lat="42.90305" lon="0.1553">
        <ele>1925</ele>
        <time>2020-07-29T09:35:54.089Z</time>
      </trkpt>
      <trkpt lat="42.90305" lon="0.15528">
        <ele>1926</ele>
        <time>2020-07-29T09:35:55.089Z</time>
      </trkpt>
      <trkpt lat="42.90305" lon="0.15526">
        <ele>1927</ele>
        <time>2020-07-29T09:35:56.089Z</time>
      </trkpt>
      <trkpt lat="42.90306" lon="0.15523">
        <ele>1928</ele>
        <time>2020-07-29T09:35:57.089Z</time>
      </trkpt>
      <trkpt lat="42.90307" lon="0.15521">
        <ele>1927</ele>
        <time>2020-07-29T09:35:58.089Z</time>
      </trkpt>
      <trkpt lat="42.90307" lon="0.15519">
        <ele>1928</ele>
        <time>2020-07-29T09:35:59.089Z</time>
      </trkpt>
      <trkpt lat="42.90308" lon="0.15516">
        <ele>1928</ele>
        <time>2020-07-29T09:36:00.089Z</time>
      </trkpt>
      <trkpt lat="42.90308" lon="0.15513">
        <ele>1929</ele>
        <time>2020-07-29T09:36:01.089Z</time>
      </trkpt>
      <trkpt lat="42.90309" lon="0.1551">
        <ele>1929</ele>
        <time>2020-07-29T09:36:02.089Z</time>
      </trkpt>
      <trkpt lat="42.90309" lon="0.15507">
        <ele>1929</ele>
        <time>2020-07-29T09:36:03.089Z</time>
      </trkpt>
      <trkpt lat="42.9031" lon="0.15504">
        <ele>1930</ele>
        <time>2020-07-29T09:36:04.089Z</time>
      </trkpt>
      <trkpt lat="42.90311" lon="0.15502">
        <ele>1931</ele>
        <time>2020-07-29T09:36:05.089Z</time>
      </trkpt>
      <trkpt lat="42.90312" lon="0.155">
        <ele>1931</ele>
        <time>2020-07-29T09:36:06.089Z</time>
      </trkpt>
      <trkpt lat="42.90313" lon="0.15498">
        <ele>1931</ele>
        <time>2020-07-29T09:36:07.089Z</time>
      </trkpt>
      <trkpt lat="42.90313" lon="0.15495">
        <ele>1931</ele>
        <time>2020-07-29T09:36:08.089Z</time>
      </trkpt>
      <trkpt lat="42.90314" lon="0.15493">
        <ele>1931</ele>
        <time>2020-07-29T09:36:09.089Z</time>
      </trkpt>
      <trkpt lat="42.90314" lon="0.1549">
        <ele>1931</ele>
        <time>2020-07-29T09:36:10.089Z</time>
      </trkpt>
      <trkpt lat="42.90315" lon="0.15488">
        <ele>1931</ele>
        <time>2020-07-29T09:36:11.089Z</time>
      </trkpt>
      <trkpt lat="42.90315" lon="0.15486">
        <ele>1931</ele>
        <time>2020-07-29T09:36:12.089Z</time>
      </trkpt>
      <trkpt lat="42.90315" lon="0.15483">
        <ele>1932</ele>
        <time>2020-07-29T09:36:13.089Z</time>
      </trkpt>
      <trkpt lat="42.90314" lon="0.15481">
        <ele>1933</ele>
        <time>2020-07-29T09:36:14.089Z</time>
      </trkpt>
      <trkpt lat="42.90312" lon="0.15479">
        <ele>1934</ele>
        <time>2020-07-29T09:36:15.089Z</time>
      </trkpt>
      <trkpt lat="42.9031" lon="0.15477">
        <ele>1934</ele>
        <time>2020-07-29T09:36:16.089Z</time>
      </trkpt>
      <trkpt lat="42.90308" lon="0.15476">
        <ele>1934</ele>
        <time>2020-07-29T09:36:17.089Z</time>
      </trkpt>
      <trkpt lat="42.90307" lon="0.15476">
        <ele>1934</ele>
        <time>2020-07-29T09:36:18.089Z</time>
      </trkpt>
      <trkpt lat="42.90305" lon="0.15477">
        <ele>1933</ele>
        <time>2020-07-29T09:36:19.089Z</time>
      </trkpt>
      <trkpt lat="42.90304" lon="0.15477">
        <ele>1933</ele>
        <time>2020-07-29T09:36:20.089Z</time>
      </trkpt>
      <trkpt lat="42.90302" lon="0.15479">
        <ele>1933</ele>
        <time>2020-07-29T09:36:21.089Z</time>
      </trkpt>
      <trkpt lat="42.90301" lon="0.15481">
        <ele>1933</ele>
        <time>2020-07-29T09:36:22.089Z</time>
      </trkpt>
      <trkpt lat="42.90299" lon="0.15483">
        <ele>1934</ele>
        <time>2020-07-29T09:36:23.089Z</time>
      </trkpt>
      <trkpt lat="42.90298" lon="0.15485">
        <ele>1935</ele>
        <time>2020-07-29T09:36:24.089Z</time>
      </trkpt>
      <trkpt lat="42.90296" lon="0.15487">
        <ele>1934</ele>
        <time>2020-07-29T09:36:25.089Z</time>
      </trkpt>
      <trkpt lat="42.90294" lon="0.15488">
        <ele>1934</ele>
        <time>2020-07-29T09:36:26.089Z</time>
      </trkpt>
      <trkpt lat="42.90292" lon="0.1549">
        <ele>1935</ele>
        <time>2020-07-29T09:36:27.089Z</time>
      </trkpt>
      <trkpt lat="42.9029" lon="0.15492">
        <ele>1934</ele>
        <time>2020-07-29T09:36:28.089Z</time>
      </trkpt>
      <trkpt lat="42.90288" lon="0.15493">
        <ele>1935</ele>
        <time>2020-07-29T09:36:29.089Z</time>
      </trkpt>
      <trkpt lat="42.90286" lon="0.15495">
        <ele>1935</ele>
        <time>2020-07-29T09:36:30.089Z</time>
      </trkpt>
      <trkpt lat="42.90284" lon="0.15496">
        <ele>1935</ele>
        <time>2020-07-29T09:36:31.089Z</time>
      </trkpt>
      <trkpt lat="42.90282" lon="0.15497">
        <ele>1936</ele>
        <time>2020-07-29T09:36:32.089Z</time>
      </trkpt>
      <trkpt lat="42.9028" lon="0.15498">
        <ele>1936</ele>
        <time>2020-07-29T09:36:33.089Z</time>
      </trkpt>
      <trkpt lat="42.90279" lon="0.155">
        <ele>1938</ele>
        <time>2020-07-29T09:36:34.089Z</time>
      </trkpt>
      <trkpt lat="42.90277" lon="0.15501">
        <ele>1938</ele>
        <time>2020-07-29T09:36:35.089Z</time>
      </trkpt>
      <trkpt lat="42.90275" lon="0.15502">
        <ele>1938</ele>
        <time>2020-07-29T09:36:36.089Z</time>
      </trkpt>
      <trkpt lat="42.90273" lon="0.15504">
        <ele>1939</ele>
        <time>2020-07-29T09:36:37.089Z</time>
      </trkpt>
      <trkpt lat="42.90271" lon="0.15505">
        <ele>1938</ele>
        <time>2020-07-29T09:36:38.089Z</time>
      </trkpt>
      <trkpt lat="42.90269" lon="0.15507">
        <ele>1938</ele>
        <time>2020-07-29T09:36:39.089Z</time>
      </trkpt>
      <trkpt lat="42.90267" lon="0.15508">
        <ele>1939</ele>
        <time>2020-07-29T09:36:40.089Z</time>
      </trkpt>
      <trkpt lat="42.90264" lon="0.15509">
        <ele>1939</ele>
        <time>2020-07-29T09:36:41.089Z</time>
      </trkpt>
      <trkpt lat="42.90262" lon="0.1551">
        <ele>1940</ele>
        <time>2020-07-29T09:36:42.089Z</time>
      </trkpt>
      <trkpt lat="42.9026" lon="0.1551">
        <ele>1939</ele>
        <time>2020-07-29T09:36:43.089Z</time>
      </trkpt>
      <trkpt lat="42.90258" lon="0.15511">
        <ele>1940</ele>
        <time>2020-07-29T09:36:44.089Z</time>
      </trkpt>
      <trkpt lat="42.90255" lon="0.15512">
        <ele>1940</ele>
        <time>2020-07-29T09:36:45.089Z</time>
      </trkpt>
      <trkpt lat="42.90253" lon="0.15513">
        <ele>1940</ele>
        <time>2020-07-29T09:36:46.089Z</time>
      </trkpt>
      <trkpt lat="42.9025" lon="0.15514">
        <ele>1940</ele>
        <time>2020-07-29T09:36:47.089Z</time>
      </trkpt>
      <trkpt lat="42.90248" lon="0.15515">
        <ele>1940</ele>
        <time>2020-07-29T09:36:48.089Z</time>
      </trkpt>
      <trkpt lat="42.90247" lon="0.15516">
        <ele>1940</ele>
        <time>2020-07-29T09:36:49.089Z</time>
      </trkpt>
      <trkpt lat="42.90245" lon="0.15517">
        <ele>1940</ele>
        <time>2020-07-29T09:36:50.089Z</time>
      </trkpt>
      <trkpt lat="42.90244" lon="0.15517">
        <ele>1940</ele>
        <time>2020-07-29T09:36:51.089Z</time>
      </trkpt>
      <trkpt lat="42.90243" lon="0.15518">
        <ele>1940</ele>
        <time>2020-07-29T09:36:52.089Z</time>
      </trkpt>
      <trkpt lat="42.90242" lon="0.15519">
        <ele>1940</ele>
        <time>2020-07-29T09:36:53.089Z</time>
      </trkpt>
      <trkpt lat="42.90241" lon="0.1552">
        <ele>1941</ele>
        <time>2020-07-29T09:36:54.089Z</time>
      </trkpt>
      <trkpt lat="42.9024" lon="0.1552">
        <ele>1942</ele>
        <time>2020-07-29T09:36:55.089Z</time>
      </trkpt>
      <trkpt lat="42.90239" lon="0.15521">
        <ele>1941</ele>
        <time>2020-07-29T09:36:56.089Z</time>
      </trkpt>
      <trkpt lat="42.90238" lon="0.15521">
        <ele>1941</ele>
        <time>2020-07-29T09:36:57.089Z</time>
      </trkpt>
      <trkpt lat="42.90237" lon="0.15522">
        <ele>1941</ele>
        <time>2020-07-29T09:36:58.089Z</time>
      </trkpt>
      <trkpt lat="42.90236" lon="0.15523">
        <ele>1942</ele>
        <time>2020-07-29T09:36:59.089Z</time>
      </trkpt>
      <trkpt lat="42.90235" lon="0.15523">
        <ele>1941</ele>
        <time>2020-07-29T09:37:00.089Z</time>
      </trkpt>
      <trkpt lat="42.90235" lon="0.15524">
        <ele>1942</ele>
        <time>2020-07-29T09:37:01.089Z</time>
      </trkpt>
      <trkpt lat="42.90234" lon="0.15525">
        <ele>1943</ele>
        <time>2020-07-29T09:37:02.089Z</time>
      </trkpt>
      <trkpt lat="42.90234" lon="0.15526">
        <ele>1943</ele>
        <time>2020-07-29T09:37:03.089Z</time>
      </trkpt>
      <trkpt lat="42.90233" lon="0.15527">
        <ele>1943</ele>
        <time>2020-07-29T09:37:04.089Z</time>
      </trkpt>
      <trkpt lat="42.90232" lon="0.15528">
        <ele>1944</ele>
        <time>2020-07-29T09:37:05.089Z</time>
      </trkpt>
      <trkpt lat="42.90232" lon="0.15529">
        <ele>1943</ele>
        <time>2020-07-29T09:37:06.089Z</time>
      </trkpt>
      <trkpt lat="42.90231" lon="0.15529">
        <ele>1943</ele>
        <time>2020-07-29T09:37:07.089Z</time>
      </trkpt>
      <trkpt lat="42.9023" lon="0.1553">
        <ele>1944</ele>
        <time>2020-07-29T09:37:08.089Z</time>
      </trkpt>
      <trkpt lat="42.90229" lon="0.15531">
        <ele>1943</ele>
        <time>2020-07-29T09:37:09.089Z</time>
      </trkpt>
      <trkpt lat="42.90228" lon="0.15532">
        <ele>1944</ele>
        <time>2020-07-29T09:37:10.089Z</time>
      </trkpt>
      <trkpt lat="42.90228" lon="0.15532">
        <ele>1943</ele>
        <time>2020-07-29T09:37:11.089Z</time>
      </trkpt>
      <trkpt lat="42.90227" lon="0.15533">
        <ele>1944</ele>
        <time>2020-07-29T09:37:12.089Z</time>
      </trkpt>
      <trkpt lat="42.90226" lon="0.15534">
        <ele>1945</ele>
        <time>2020-07-29T09:37:13.089Z</time>
      </trkpt>
      <trkpt lat="42.90226" lon="0.15535">
        <ele>1945</ele>
        <time>2020-07-29T09:37:14.089Z</time>
      </trkpt>
      <trkpt lat="42.90225" lon="0.15536">
        <ele>1946</ele>
        <time>2020-07-29T09:37:15.089Z</time>
      </trkpt>
      <trkpt lat="42.90224" lon="0.15537">
        <ele>1946</ele>
        <time>2020-07-29T09:37:16.089Z</time>
      </trkpt>
      <trkpt lat="42.90223" lon="0.15538">
        <ele>1946</ele>
        <time>2020-07-29T09:37:17.089Z</time>
      </trkpt>
      <trkpt lat="42.90222" lon="0.15539">
        <ele>1945</ele>
        <time>2020-07-29T09:37:18.089Z</time>
      </trkpt>
      <trkpt lat="42.90222" lon="0.15539">
        <ele>1945</ele>
        <time>2020-07-29T09:37:19.089Z</time>
      </trkpt>
      <trkpt lat="42.90221" lon="0.1554">
        <ele>1945</ele>
        <time>2020-07-29T09:37:20.089Z</time>
      </trkpt>
      <trkpt lat="42.9022" lon="0.1554">
        <ele>1946</ele>
        <time>2020-07-29T09:37:21.089Z</time>
      </trkpt>
      <trkpt lat="42.9022" lon="0.15541">
        <ele>1947</ele>
        <time>2020-07-29T09:37:22.089Z</time>
      </trkpt>
      <trkpt lat="42.90219" lon="0.15542">
        <ele>1946</ele>
        <time>2020-07-29T09:37:23.089Z</time>
      </trkpt>
      <trkpt lat="42.90218" lon="0.15543">
        <ele>1946</ele>
        <time>2020-07-29T09:37:24.089Z</time>
      </trkpt>
      <trkpt lat="42.90217" lon="0.15544">
        <ele>1947</ele>
        <time>2020-07-29T09:37:25.089Z</time>
      </trkpt>
      <trkpt lat="42.90216" lon="0.15544">
        <ele>1948</ele>
        <time>2020-07-29T09:37:26.089Z</time>
      </trkpt>
      <trkpt lat="42.90216" lon="0.15545">
        <ele>1947</ele>
        <time>2020-07-29T09:37:27.089Z</time>
      </trkpt>
      <trkpt lat="42.90215" lon="0.15546">
        <ele>1947</ele>
        <time>2020-07-29T09:37:28.089Z</time>
      </trkpt>
      <trkpt lat="42.90215" lon="0.15547">
        <ele>1946</ele>
        <time>2020-07-29T09:37:29.089Z</time>
      </trkpt>
      <trkpt lat="42.90214" lon="0.15548">
        <ele>1945</ele>
        <time>2020-07-29T09:37:30.089Z</time>
      </trkpt>
      <trkpt lat="42.90213" lon="0.15549">
        <ele>1945</ele>
        <time>2020-07-29T09:37:31.089Z</time>
      </trkpt>
      <trkpt lat="42.90213" lon="0.15549">
        <ele>1946</ele>
        <time>2020-07-29T09:37:32.089Z</time>
      </trkpt>
      <trkpt lat="42.90213" lon="0.1555">
        <ele>1945</ele>
        <time>2020-07-29T09:37:33.089Z</time>
      </trkpt>
      <trkpt lat="42.90213" lon="0.1555">
        <ele>1945</ele>
        <time>2020-07-29T09:37:34.089Z</time>
      </trkpt>
      <trkpt lat="42.90212" lon="0.1555">
        <ele>1946</ele>
        <time>2020-07-29T09:37:35.089Z</time>
      </trkpt>
      <trkpt lat="42.90212" lon="0.15551">
        <ele>1946</ele>
        <time>2020-07-29T09:37:36.089Z</time>
      </trkpt>
      <trkpt lat="42.90212" lon="0.15552">
        <ele>1947</ele>
        <time>2020-07-29T09:37:37.089Z</time>
      </trkpt>
      <trkpt lat="42.90211" lon="0.15553">
        <ele>1948</ele>
        <time>2020-07-29T09:37:38.089Z</time>
      </trkpt>
      <trkpt lat="42.90211" lon="0.15554">
        <ele>1949</ele>
        <time>2020-07-29T09:37:39.089Z</time>
      </trkpt>
      <trkpt lat="42.9021" lon="0.15555">
        <ele>1948</ele>
        <time>2020-07-29T09:37:40.089Z</time>
      </trkpt>
      <trkpt lat="42.9021" lon="0.15556">
        <ele>1948</ele>
        <time>2020-07-29T09:37:41.089Z</time>
      </trkpt>
      <trkpt lat="42.90209" lon="0.15557">
        <ele>1947</ele>
        <time>2020-07-29T09:37:42.089Z</time>
      </trkpt>
      <trkpt lat="42.90208" lon="0.15558">
        <ele>1947</ele>
        <time>2020-07-29T09:37:43.089Z</time>
      </trkpt>
      <trkpt lat="42.90207" lon="0.15559">
        <ele>1947</ele>
        <time>2020-07-29T09:37:44.089Z</time>
      </trkpt>
      <trkpt lat="42.90206" lon="0.15559">
        <ele>1948</ele>
        <time>2020-07-29T09:37:45.089Z</time>
      </trkpt>
      <trkpt lat="42.90205" lon="0.1556">
        <ele>1948</ele>
        <time>2020-07-29T09:37:46.089Z</time>
      </trkpt>
      <trkpt lat="42.90204" lon="0.15561">
        <ele>1949</ele>
        <time>2020-07-29T09:37:47.089Z</time>
      </trkpt>
      <trkpt lat="42.90203" lon="0.15561">
        <ele>1948</ele>
        <time>2020-07-29T09:37:48.089Z</time>
      </trkpt>
      <trkpt lat="42.90202" lon="0.15562">
        <ele>1949</ele>
        <time>2020-07-29T09:37:49.089Z</time>
      </trkpt>
      <trkpt lat="42.90201" lon="0.15563">
        <ele>1949</ele>
        <time>2020-07-29T09:37:50.089Z</time>
      </trkpt>
      <trkpt lat="42.90201" lon="0.15563">
        <ele>1950</ele>
        <time>2020-07-29T09:37:51.089Z</time>
      </trkpt>
      <trkpt lat="42.902" lon="0.15564">
        <ele>1950</ele>
        <time>2020-07-29T09:37:52.089Z</time>
      </trkpt>
      <trkpt lat="42.90199" lon="0.15565">
        <ele>1949</ele>
        <time>2020-07-29T09:37:53.089Z</time>
      </trkpt>
      <trkpt lat="42.90198" lon="0.15566">
        <ele>1949</ele>
        <time>2020-07-29T09:37:54.089Z</time>
      </trkpt>
      <trkpt lat="42.90197" lon="0.15566">
        <ele>1949</ele>
        <time>2020-07-29T09:37:55.089Z</time>
      </trkpt>
      <trkpt lat="42.90197" lon="0.15567">
        <ele>1949</ele>
        <time>2020-07-29T09:37:56.089Z</time>
      </trkpt>
      <trkpt lat="42.90196" lon="0.15568">
        <ele>1950</ele>
        <time>2020-07-29T09:37:57.089Z</time>
      </trkpt>
      <trkpt lat="42.90196" lon="0.15569">
        <ele>1951</ele>
        <time>2020-07-29T09:37:58.089Z</time>
      </trkpt>
      <trkpt lat="42.90196" lon="0.15569">
        <ele>1951</ele>
        <time>2020-07-29T09:37:59.089Z</time>
      </trkpt>
      <trkpt lat="42.90195" lon="0.1557">
        <ele>1952</ele>
        <time>2020-07-29T09:38:00.089Z</time>
      </trkpt>
      <trkpt lat="42.90194" lon="0.15571">
        <ele>1952</ele>
        <time>2020-07-29T09:38:01.089Z</time>
      </trkpt>
      <trkpt lat="42.90193" lon="0.15572">
        <ele>1953</ele>
        <time>2020-07-29T09:38:02.089Z</time>
      </trkpt>
      <trkpt lat="42.90193" lon="0.15572">
        <ele>1953</ele>
        <time>2020-07-29T09:38:03.089Z</time>
      </trkpt>
      <trkpt lat="42.90192" lon="0.15573">
        <ele>1954</ele>
        <time>2020-07-29T09:38:04.089Z</time>
      </trkpt>
      <trkpt lat="42.90192" lon="0.15574">
        <ele>1955</ele>
        <time>2020-07-29T09:38:05.089Z</time>
      </trkpt>
      <trkpt lat="42.90191" lon="0.15575">
        <ele>1956</ele>
        <time>2020-07-29T09:38:06.089Z</time>
      </trkpt>
      <trkpt lat="42.9019" lon="0.15576">
        <ele>1957</ele>
        <time>2020-07-29T09:38:07.089Z</time>
      </trkpt>
      <trkpt lat="42.9019" lon="0.15576">
        <ele>1957</ele>
        <time>2020-07-29T09:38:08.089Z</time>
      </trkpt>
      <trkpt lat="42.90189" lon="0.15577">
        <ele>1958</ele>
        <time>2020-07-29T09:38:09.089Z</time>
      </trkpt>
      <trkpt lat="42.90188" lon="0.15578">
        <ele>1958</ele>
        <time>2020-07-29T09:38:10.089Z</time>
      </trkpt>
      <trkpt lat="42.90187" lon="0.15579">
        <ele>1958</ele>
        <time>2020-07-29T09:38:11.089Z</time>
      </trkpt>
      <trkpt lat="42.90186" lon="0.15579">
        <ele>1959</ele>
        <time>2020-07-29T09:38:12.089Z</time>
      </trkpt>
      <trkpt lat="42.90185" lon="0.1558">
        <ele>1960</ele>
        <time>2020-07-29T09:38:13.089Z</time>
      </trkpt>
      <trkpt lat="42.90185" lon="0.15581">
        <ele>1960</ele>
        <time>2020-07-29T09:38:14.089Z</time>
      </trkpt>
      <trkpt lat="42.90184" lon="0.15582">
        <ele>1960</ele>
        <time>2020-07-29T09:38:15.089Z</time>
      </trkpt>
      <trkpt lat="42.90183" lon="0.15583">
        <ele>1961</ele>
        <time>2020-07-29T09:38:16.089Z</time>
      </trkpt>
      <trkpt lat="42.90183" lon="0.15584">
        <ele>1961</ele>
        <time>2020-07-29T09:38:17.089Z</time>
      </trkpt>
      <trkpt lat="42.90182" lon="0.15585">
        <ele>1961</ele>
        <time>2020-07-29T09:38:18.089Z</time>
      </trkpt>
      <trkpt lat="42.90182" lon="0.15586">
        <ele>1961</ele>
        <time>2020-07-29T09:38:19.089Z</time>
      </trkpt>
      <trkpt lat="42.90182" lon="0.15587">
        <ele>1962</ele>
        <time>2020-07-29T09:38:20.089Z</time>
      </trkpt>
      <trkpt lat="42.90181" lon="0.15588">
        <ele>1961</ele>
        <time>2020-07-29T09:38:21.089Z</time>
      </trkpt>
      <trkpt lat="42.9018" lon="0.15589">
        <ele>1962</ele>
        <time>2020-07-29T09:38:22.089Z</time>
      </trkpt>
      <trkpt lat="42.9018" lon="0.1559">
        <ele>1962</ele>
        <time>2020-07-29T09:38:23.089Z</time>
      </trkpt>
      <trkpt lat="42.90179" lon="0.15591">
        <ele>1962</ele>
        <time>2020-07-29T09:38:24.089Z</time>
      </trkpt>
      <trkpt lat="42.90178" lon="0.15591">
        <ele>1963</ele>
        <time>2020-07-29T09:38:25.089Z</time>
      </trkpt>
      <trkpt lat="42.90178" lon="0.15592">
        <ele>1963</ele>
        <time>2020-07-29T09:38:26.089Z</time>
      </trkpt>
      <trkpt lat="42.90178" lon="0.15593">
        <ele>1964</ele>
        <time>2020-07-29T09:38:27.089Z</time>
      </trkpt>
      <trkpt lat="42.90177" lon="0.15594">
        <ele>1965</ele>
        <time>2020-07-29T09:38:28.089Z</time>
      </trkpt>
      <trkpt lat="42.90177" lon="0.15595">
        <ele>1966</ele>
        <time>2020-07-29T09:38:29.089Z</time>
      </trkpt>
      <trkpt lat="42.90176" lon="0.15596">
        <ele>1966</ele>
        <time>2020-07-29T09:38:30.089Z</time>
      </trkpt>
      <trkpt lat="42.90175" lon="0.15597">
        <ele>1967</ele>
        <time>2020-07-29T09:38:31.089Z</time>
      </trkpt>
      <trkpt lat="42.90175" lon="0.15598">
        <ele>1967</ele>
        <time>2020-07-29T09:38:32.089Z</time>
      </trkpt>
      <trkpt lat="42.90174" lon="0.15599">
        <ele>1968</ele>
        <time>2020-07-29T09:38:33.089Z</time>
      </trkpt>
      <trkpt lat="42.90173" lon="0.156">
        <ele>1968</ele>
        <time>2020-07-29T09:38:34.089Z</time>
      </trkpt>
      <trkpt lat="42.90172" lon="0.156">
        <ele>1968</ele>
        <time>2020-07-29T09:38:35.089Z</time>
      </trkpt>
      <trkpt lat="42.90171" lon="0.15601">
        <ele>1969</ele>
        <time>2020-07-29T09:38:36.089Z</time>
      </trkpt>
      <trkpt lat="42.90171" lon="0.15602">
        <ele>1969</ele>
        <time>2020-07-29T09:38:37.089Z</time>
      </trkpt>
      <trkpt lat="42.9017" lon="0.15603">
        <ele>1969</ele>
        <time>2020-07-29T09:38:38.089Z</time>
      </trkpt>
      <trkpt lat="42.90169" lon="0.15604">
        <ele>1968</ele>
        <time>2020-07-29T09:38:39.089Z</time>
      </trkpt>
      <trkpt lat="42.90169" lon="0.15605">
        <ele>1969</ele>
        <time>2020-07-29T09:38:40.089Z</time>
      </trkpt>
      <trkpt lat="42.90168" lon="0.15606">
        <ele>1970</ele>
        <time>2020-07-29T09:38:41.089Z</time>
      </trkpt>
      <trkpt lat="42.90167" lon="0.15607">
        <ele>1970</ele>
        <time>2020-07-29T09:38:42.089Z</time>
      </trkpt>
      <trkpt lat="42.90167" lon="0.15608">
        <ele>1969</ele>
        <time>2020-07-29T09:38:43.089Z</time>
      </trkpt>
      <trkpt lat="42.90166" lon="0.15609">
        <ele>1970</ele>
        <time>2020-07-29T09:38:44.089Z</time>
      </trkpt>
      <trkpt lat="42.90165" lon="0.1561">
        <ele>1970</ele>
        <time>2020-07-29T09:38:45.089Z</time>
      </trkpt>
      <trkpt lat="42.90164" lon="0.1561">
        <ele>1971</ele>
        <time>2020-07-29T09:38:46.089Z</time>
      </trkpt>
      <trkpt lat="42.90163" lon="0.15611">
        <ele>1971</ele>
        <time>2020-07-29T09:38:47.089Z</time>
      </trkpt>
      <trkpt lat="42.90163" lon="0.15612">
        <ele>1971</ele>
        <time>2020-07-29T09:38:48.089Z</time>
      </trkpt>
      <trkpt lat="42.90162" lon="0.15613">
        <ele>1971</ele>
        <time>2020-07-29T09:38:49.089Z</time>
      </trkpt>
      <trkpt lat="42.90162" lon="0.15614">
        <ele>1970</ele>
        <time>2020-07-29T09:38:50.089Z</time>
      </trkpt>
      <trkpt lat="42.90161" lon="0.15616">
        <ele>1970</ele>
        <time>2020-07-29T09:38:51.089Z</time>
      </trkpt>
      <trkpt lat="42.9016" lon="0.15617">
        <ele>1969</ele>
        <time>2020-07-29T09:38:52.089Z</time>
      </trkpt>
      <trkpt lat="42.90159" lon="0.15619">
        <ele>1970</ele>
        <time>2020-07-29T09:38:53.089Z</time>
      </trkpt>
      <trkpt lat="42.90159" lon="0.1562">
        <ele>1970</ele>
        <time>2020-07-29T09:38:54.089Z</time>
      </trkpt>
      <trkpt lat="42.90158" lon="0.15622">
        <ele>1970</ele>
        <time>2020-07-29T09:38:55.089Z</time>
      </trkpt>
      <trkpt lat="42.90158" lon="0.15624">
        <ele>1971</ele>
        <time>2020-07-29T09:38:56.089Z</time>
      </trkpt>
      <trkpt lat="42.90157" lon="0.15627">
        <ele>1971</ele>
        <time>2020-07-29T09:38:57.089Z</time>
      </trkpt>
      <trkpt lat="42.90156" lon="0.15629">
        <ele>1969</ele>
        <time>2020-07-29T09:38:58.089Z</time>
      </trkpt>
      <trkpt lat="42.90155" lon="0.1563">
        <ele>1970</ele>
        <time>2020-07-29T09:38:59.089Z</time>
      </trkpt>
      <trkpt lat="42.90155" lon="0.15631">
        <ele>1970</ele>
        <time>2020-07-29T09:39:00.089Z</time>
      </trkpt>
      <trkpt lat="42.90154" lon="0.15633">
        <ele>1971</ele>
        <time>2020-07-29T09:39:01.089Z</time>
      </trkpt>
      <trkpt lat="42.90154" lon="0.15635">
        <ele>1972</ele>
        <time>2020-07-29T09:39:02.089Z</time>
      </trkpt>
      <trkpt lat="42.90153" lon="0.15637">
        <ele>1972</ele>
        <time>2020-07-29T09:39:03.089Z</time>
      </trkpt>
      <trkpt lat="42.90153" lon="0.15638">
        <ele>1972</ele>
        <time>2020-07-29T09:39:04.089Z</time>
      </trkpt>
      <trkpt lat="42.90152" lon="0.1564">
        <ele>1973</ele>
        <time>2020-07-29T09:39:05.089Z</time>
      </trkpt>
      <trkpt lat="42.90152" lon="0.15641">
        <ele>1974</ele>
        <time>2020-07-29T09:39:06.089Z</time>
      </trkpt>
      <trkpt lat="42.90151" lon="0.15643">
        <ele>1974</ele>
        <time>2020-07-29T09:39:07.089Z</time>
      </trkpt>
      <trkpt lat="42.90151" lon="0.15644">
        <ele>1974</ele>
        <time>2020-07-29T09:39:08.089Z</time>
      </trkpt>
      <trkpt lat="42.9015" lon="0.15645">
        <ele>1973</ele>
        <time>2020-07-29T09:39:09.089Z</time>
      </trkpt>
      <trkpt lat="42.90149" lon="0.15647">
        <ele>1974</ele>
        <time>2020-07-29T09:39:10.089Z</time>
      </trkpt>
      <trkpt lat="42.90149" lon="0.15648">
        <ele>1974</ele>
        <time>2020-07-29T09:39:11.089Z</time>
      </trkpt>
      <trkpt lat="42.90148" lon="0.1565">
        <ele>1974</ele>
        <time>2020-07-29T09:39:12.089Z</time>
      </trkpt>
      <trkpt lat="42.90148" lon="0.15651">
        <ele>1974</ele>
        <time>2020-07-29T09:39:13.089Z</time>
      </trkpt>
      <trkpt lat="42.90147" lon="0.15653">
        <ele>1974</ele>
        <time>2020-07-29T09:39:14.089Z</time>
      </trkpt>
      <trkpt lat="42.90146" lon="0.15654">
        <ele>1974</ele>
        <time>2020-07-29T09:39:15.089Z</time>
      </trkpt>
      <trkpt lat="42.90146" lon="0.15656">
        <ele>1975</ele>
        <time>2020-07-29T09:39:16.089Z</time>
      </trkpt>
      <trkpt lat="42.90145" lon="0.15659">
        <ele>1975</ele>
        <time>2020-07-29T09:39:17.089Z</time>
      </trkpt>
      <trkpt lat="42.90145" lon="0.15661">
        <ele>1975</ele>
        <time>2020-07-29T09:39:18.089Z</time>
      </trkpt>
      <trkpt lat="42.90144" lon="0.15664">
        <ele>1977</ele>
        <time>2020-07-29T09:39:19.089Z</time>
      </trkpt>
      <trkpt lat="42.90143" lon="0.15667">
        <ele>1977</ele>
        <time>2020-07-29T09:39:20.089Z</time>
      </trkpt>
      <trkpt lat="42.90142" lon="0.15669">
        <ele>1978</ele>
        <time>2020-07-29T09:39:21.089Z</time>
      </trkpt>
      <trkpt lat="42.90141" lon="0.15671">
        <ele>1978</ele>
        <time>2020-07-29T09:39:22.089Z</time>
      </trkpt>
      <trkpt lat="42.9014" lon="0.15674">
        <ele>1978</ele>
        <time>2020-07-29T09:39:23.089Z</time>
      </trkpt>
      <trkpt lat="42.90139" lon="0.15676">
        <ele>1979</ele>
        <time>2020-07-29T09:39:24.089Z</time>
      </trkpt>
      <trkpt lat="42.90138" lon="0.15678">
        <ele>1979</ele>
        <time>2020-07-29T09:39:25.089Z</time>
      </trkpt>
      <trkpt lat="42.90137" lon="0.15679">
        <ele>1979</ele>
        <time>2020-07-29T09:39:26.089Z</time>
      </trkpt>
      <trkpt lat="42.90136" lon="0.15681">
        <ele>1981</ele>
        <time>2020-07-29T09:39:27.089Z</time>
      </trkpt>
      <trkpt lat="42.90136" lon="0.15682">
        <ele>1982</ele>
        <time>2020-07-29T09:39:28.089Z</time>
      </trkpt>
      <trkpt lat="42.90135" lon="0.15683">
        <ele>1981</ele>
        <time>2020-07-29T09:39:29.089Z</time>
      </trkpt>
      <trkpt lat="42.90135" lon="0.15685">
        <ele>1981</ele>
        <time>2020-07-29T09:39:30.089Z</time>
      </trkpt>
      <trkpt lat="42.90134" lon="0.15686">
        <ele>1982</ele>
        <time>2020-07-29T09:39:31.089Z</time>
      </trkpt>
      <trkpt lat="42.90133" lon="0.15687">
        <ele>1983</ele>
        <time>2020-07-29T09:39:32.089Z</time>
      </trkpt>
      <trkpt lat="42.90133" lon="0.15688">
        <ele>1984</ele>
        <time>2020-07-29T09:39:33.089Z</time>
      </trkpt>
      <trkpt lat="42.90133" lon="0.15689">
        <ele>1984</ele>
        <time>2020-07-29T09:39:34.089Z</time>
      </trkpt>
      <trkpt lat="42.90132" lon="0.15691">
        <ele>1985</ele>
        <time>2020-07-29T09:39:35.089Z</time>
      </trkpt>
      <trkpt lat="42.90132" lon="0.15692">
        <ele>1986</ele>
        <time>2020-07-29T09:39:36.089Z</time>
      </trkpt>
      <trkpt lat="42.90131" lon="0.15693">
        <ele>1986</ele>
        <time>2020-07-29T09:39:37.089Z</time>
      </trkpt>
      <trkpt lat="42.90131" lon="0.15694">
        <ele>1986</ele>
        <time>2020-07-29T09:39:38.089Z</time>
      </trkpt>
      <trkpt lat="42.9013" lon="0.15695">
        <ele>1986</ele>
        <time>2020-07-29T09:39:39.089Z</time>
      </trkpt>
      <trkpt lat="42.9013" lon="0.15696">
        <ele>1987</ele>
        <time>2020-07-29T09:39:40.089Z</time>
      </trkpt>
      <trkpt lat="42.90129" lon="0.15697">
        <ele>1987</ele>
        <time>2020-07-29T09:39:41.089Z</time>
      </trkpt>
      <trkpt lat="42.90128" lon="0.15698">
        <ele>1987</ele>
        <time>2020-07-29T09:39:42.089Z</time>
      </trkpt>
      <trkpt lat="42.90128" lon="0.15699">
        <ele>1987</ele>
        <time>2020-07-29T09:39:43.089Z</time>
      </trkpt>
      <trkpt lat="42.90127" lon="0.15699">
        <ele>1987</ele>
        <time>2020-07-29T09:39:44.089Z</time>
      </trkpt>
      <trkpt lat="42.90126" lon="0.157">
        <ele>1987</ele>
        <time>2020-07-29T09:39:45.089Z</time>
      </trkpt>
      <trkpt lat="42.90125" lon="0.15701">
        <ele>1988</ele>
        <time>2020-07-29T09:39:46.089Z</time>
      </trkpt>
      <trkpt lat="42.90125" lon="0.15702">
        <ele>1987</ele>
        <time>2020-07-29T09:39:47.089Z</time>
      </trkpt>
      <trkpt lat="42.90124" lon="0.15703">
        <ele>1988</ele>
        <time>2020-07-29T09:39:48.089Z</time>
      </trkpt>
      <trkpt lat="42.90124" lon="0.15704">
        <ele>1988</ele>
        <time>2020-07-29T09:39:49.089Z</time>
      </trkpt>
      <trkpt lat="42.90123" lon="0.15705">
        <ele>1989</ele>
        <time>2020-07-29T09:39:50.089Z</time>
      </trkpt>
      <trkpt lat="42.90122" lon="0.15706">
        <ele>1990</ele>
        <time>2020-07-29T09:39:51.089Z</time>
      </trkpt>
      <trkpt lat="42.90122" lon="0.15707">
        <ele>1990</ele>
        <time>2020-07-29T09:39:52.089Z</time>
      </trkpt>
      <trkpt lat="42.90121" lon="0.15709">
        <ele>1989</ele>
        <time>2020-07-29T09:39:53.089Z</time>
      </trkpt>
      <trkpt lat="42.9012" lon="0.1571">
        <ele>1990</ele>
        <time>2020-07-29T09:39:54.089Z</time>
      </trkpt>
      <trkpt lat="42.90119" lon="0.15711">
        <ele>1990</ele>
        <time>2020-07-29T09:39:55.089Z</time>
      </trkpt>
      <trkpt lat="42.90118" lon="0.15713">
        <ele>1991</ele>
        <time>2020-07-29T09:39:56.089Z</time>
      </trkpt>
      <trkpt lat="42.90117" lon="0.15715">
        <ele>1991</ele>
        <time>2020-07-29T09:39:57.089Z</time>
      </trkpt>
      <trkpt lat="42.90116" lon="0.15716">
        <ele>1991</ele>
        <time>2020-07-29T09:39:58.089Z</time>
      </trkpt>
      <trkpt lat="42.90116" lon="0.15717">
        <ele>1992</ele>
        <time>2020-07-29T09:39:59.089Z</time>
      </trkpt>
      <trkpt lat="42.90115" lon="0.15717">
        <ele>1992</ele>
        <time>2020-07-29T09:40:00.089Z</time>
      </trkpt>
      <trkpt lat="42.90115" lon="0.15718">
        <ele>1992</ele>
        <time>2020-07-29T09:40:01.089Z</time>
      </trkpt>
      <trkpt lat="42.90114" lon="0.1572">
        <ele>1993</ele>
        <time>2020-07-29T09:40:02.089Z</time>
      </trkpt>
      <trkpt lat="42.90113" lon="0.15721">
        <ele>1993</ele>
        <time>2020-07-29T09:40:03.089Z</time>
      </trkpt>
      <trkpt lat="42.90112" lon="0.15722">
        <ele>1993</ele>
        <time>2020-07-29T09:40:04.089Z</time>
      </trkpt>
      <trkpt lat="42.90112" lon="0.15723">
        <ele>1993</ele>
        <time>2020-07-29T09:40:05.089Z</time>
      </trkpt>
      <trkpt lat="42.90111" lon="0.15724">
        <ele>1994</ele>
        <time>2020-07-29T09:40:06.089Z</time>
      </trkpt>
      <trkpt lat="42.90111" lon="0.15725">
        <ele>1994</ele>
        <time>2020-07-29T09:40:07.089Z</time>
      </trkpt>
      <trkpt lat="42.90111" lon="0.15726">
        <ele>1994</ele>
        <time>2020-07-29T09:40:08.089Z</time>
      </trkpt>
      <trkpt lat="42.9011" lon="0.15727">
        <ele>1995</ele>
        <time>2020-07-29T09:40:09.089Z</time>
      </trkpt>
      <trkpt lat="42.9011" lon="0.15728">
        <ele>1994</ele>
        <time>2020-07-29T09:40:10.089Z</time>
      </trkpt>
      <trkpt lat="42.9011" lon="0.15729">
        <ele>1994</ele>
        <time>2020-07-29T09:40:11.089Z</time>
      </trkpt>
      <trkpt lat="42.9011" lon="0.1573">
        <ele>1994</ele>
        <time>2020-07-29T09:40:12.089Z</time>
      </trkpt>
      <trkpt lat="42.9011" lon="0.15732">
        <ele>1995</ele>
        <time>2020-07-29T09:40:13.089Z</time>
      </trkpt>
      <trkpt lat="42.9011" lon="0.15733">
        <ele>1995</ele>
        <time>2020-07-29T09:40:14.089Z</time>
      </trkpt>
      <trkpt lat="42.90109" lon="0.15735">
        <ele>1994</ele>
        <time>2020-07-29T09:40:15.089Z</time>
      </trkpt>
      <trkpt lat="42.90109" lon="0.15736">
        <ele>1994</ele>
        <time>2020-07-29T09:40:16.089Z</time>
      </trkpt>
      <trkpt lat="42.90108" lon="0.15737">
        <ele>1995</ele>
        <time>2020-07-29T09:40:17.089Z</time>
      </trkpt>
      <trkpt lat="42.90107" lon="0.15738">
        <ele>1995</ele>
        <time>2020-07-29T09:40:18.089Z</time>
      </trkpt>
      <trkpt lat="42.90105" lon="0.15739">
        <ele>1995</ele>
        <time>2020-07-29T09:40:19.089Z</time>
      </trkpt>
      <trkpt lat="42.90103" lon="0.1574">
        <ele>1995</ele>
        <time>2020-07-29T09:40:20.089Z</time>
      </trkpt>
      <trkpt lat="42.90102" lon="0.15741">
        <ele>1994</ele>
        <time>2020-07-29T09:40:21.089Z</time>
      </trkpt>
      <trkpt lat="42.901" lon="0.15742">
        <ele>1994</ele>
        <time>2020-07-29T09:40:22.089Z</time>
      </trkpt>
      <trkpt lat="42.90098" lon="0.15743">
        <ele>1995</ele>
        <time>2020-07-29T09:40:23.089Z</time>
      </trkpt>
      <trkpt lat="42.90097" lon="0.15744">
        <ele>1996</ele>
        <time>2020-07-29T09:40:24.089Z</time>
      </trkpt>
      <trkpt lat="42.90095" lon="0.15746">
        <ele>1997</ele>
        <time>2020-07-29T09:40:25.089Z</time>
      </trkpt>
      <trkpt lat="42.90094" lon="0.15747">
        <ele>1996</ele>
        <time>2020-07-29T09:40:26.089Z</time>
      </trkpt>
      <trkpt lat="42.90092" lon="0.15749">
        <ele>1996</ele>
        <time>2020-07-29T09:40:27.089Z</time>
      </trkpt>
      <trkpt lat="42.90091" lon="0.1575">
        <ele>1997</ele>
        <time>2020-07-29T09:40:28.089Z</time>
      </trkpt>
      <trkpt lat="42.90089" lon="0.15752">
        <ele>1997</ele>
        <time>2020-07-29T09:40:29.089Z</time>
      </trkpt>
      <trkpt lat="42.90087" lon="0.15754">
        <ele>1997</ele>
        <time>2020-07-29T09:40:30.089Z</time>
      </trkpt>
      <trkpt lat="42.90086" lon="0.15755">
        <ele>1998</ele>
        <time>2020-07-29T09:40:31.089Z</time>
      </trkpt>
      <trkpt lat="42.90084" lon="0.15757">
        <ele>1999</ele>
        <time>2020-07-29T09:40:32.089Z</time>
      </trkpt>
      <trkpt lat="42.90082" lon="0.15759">
        <ele>1999</ele>
        <time>2020-07-29T09:40:33.089Z</time>
      </trkpt>
      <trkpt lat="42.90081" lon="0.15761">
        <ele>1999</ele>
        <time>2020-07-29T09:40:34.089Z</time>
      </trkpt>
      <trkpt lat="42.90079" lon="0.15763">
        <ele>2000</ele>
        <time>2020-07-29T09:40:35.089Z</time>
      </trkpt>
      <trkpt lat="42.90077" lon="0.15765">
        <ele>2000</ele>
        <time>2020-07-29T09:40:36.089Z</time>
      </trkpt>
      <trkpt lat="42.90076" lon="0.15766">
        <ele>2001</ele>
        <time>2020-07-29T09:40:37.089Z</time>
      </trkpt>
      <trkpt lat="42.90074" lon="0.15768">
        <ele>2002</ele>
        <time>2020-07-29T09:40:38.089Z</time>
      </trkpt>
      <trkpt lat="42.90072" lon="0.1577">
        <ele>2002</ele>
        <time>2020-07-29T09:40:39.089Z</time>
      </trkpt>
      <trkpt lat="42.90071" lon="0.15771">
        <ele>2002</ele>
        <time>2020-07-29T09:40:40.089Z</time>
      </trkpt>
      <trkpt lat="42.90069" lon="0.15773">
        <ele>2003</ele>
        <time>2020-07-29T09:40:41.089Z</time>
      </trkpt>
      <trkpt lat="42.90067" lon="0.15775">
        <ele>2003</ele>
        <time>2020-07-29T09:40:42.089Z</time>
      </trkpt>
      <trkpt lat="42.90066" lon="0.15776">
        <ele>2003</ele>
        <time>2020-07-29T09:40:43.089Z</time>
      </trkpt>
      <trkpt lat="42.90065" lon="0.15778">
        <ele>2004</ele>
        <time>2020-07-29T09:40:44.089Z</time>
      </trkpt>
      <trkpt lat="42.90063" lon="0.1578">
        <ele>2004</ele>
        <time>2020-07-29T09:40:45.089Z</time>
      </trkpt>
      <trkpt lat="42.90062" lon="0.15781">
        <ele>2005</ele>
        <time>2020-07-29T09:40:46.089Z</time>
      </trkpt>
      <trkpt lat="42.9006" lon="0.15783">
        <ele>2005</ele>
        <time>2020-07-29T09:40:47.089Z</time>
      </trkpt>
      <trkpt lat="42.90058" lon="0.15785">
        <ele>2005</ele>
        <time>2020-07-29T09:40:48.089Z</time>
      </trkpt>
      <trkpt lat="42.90056" lon="0.15787">
        <ele>2006</ele>
        <time>2020-07-29T09:40:49.089Z</time>
      </trkpt>
      <trkpt lat="42.90055" lon="0.15789">
        <ele>2006</ele>
        <time>2020-07-29T09:40:50.089Z</time>
      </trkpt>
      <trkpt lat="42.90053" lon="0.15791">
        <ele>2006</ele>
        <time>2020-07-29T09:40:51.089Z</time>
      </trkpt>
      <trkpt lat="42.90052" lon="0.15793">
        <ele>2006</ele>
        <time>2020-07-29T09:40:52.089Z</time>
      </trkpt>
      <trkpt lat="42.9005" lon="0.15794">
        <ele>2007</ele>
        <time>2020-07-29T09:40:53.089Z</time>
      </trkpt>
      <trkpt lat="42.90049" lon="0.15796">
        <ele>2008</ele>
        <time>2020-07-29T09:40:54.089Z</time>
      </trkpt>
      <trkpt lat="42.90049" lon="0.15797">
        <ele>2009</ele>
        <time>2020-07-29T09:40:55.089Z</time>
      </trkpt>
      <trkpt lat="42.90047" lon="0.15798">
        <ele>2010</ele>
        <time>2020-07-29T09:40:56.089Z</time>
      </trkpt>
      <trkpt lat="42.90046" lon="0.158">
        <ele>2009</ele>
        <time>2020-07-29T09:40:57.089Z</time>
      </trkpt>
      <trkpt lat="42.90045" lon="0.15801">
        <ele>2010</ele>
        <time>2020-07-29T09:40:58.089Z</time>
      </trkpt>
      <trkpt lat="42.90044" lon="0.15802">
        <ele>2011</ele>
        <time>2020-07-29T09:40:59.089Z</time>
      </trkpt>
      <trkpt lat="42.90042" lon="0.15804">
        <ele>2011</ele>
        <time>2020-07-29T09:41:00.089Z</time>
      </trkpt>
      <trkpt lat="42.90041" lon="0.15805">
        <ele>2011</ele>
        <time>2020-07-29T09:41:01.089Z</time>
      </trkpt>
      <trkpt lat="42.90039" lon="0.15807">
        <ele>2011</ele>
        <time>2020-07-29T09:41:02.089Z</time>
      </trkpt>
      <trkpt lat="42.90037" lon="0.15808">
        <ele>2011</ele>
        <time>2020-07-29T09:41:03.089Z</time>
      </trkpt>
      <trkpt lat="42.90036" lon="0.15809">
        <ele>2013</ele>
        <time>2020-07-29T09:41:04.089Z</time>
      </trkpt>
      <trkpt lat="42.90035" lon="0.1581">
        <ele>2013</ele>
        <time>2020-07-29T09:41:05.089Z</time>
      </trkpt>
      <trkpt lat="42.90033" lon="0.15811">
        <ele>2014</ele>
        <time>2020-07-29T09:41:06.089Z</time>
      </trkpt>
      <trkpt lat="42.90032" lon="0.15812">
        <ele>2014</ele>
        <time>2020-07-29T09:41:07.089Z</time>
      </trkpt>
      <trkpt lat="42.90031" lon="0.15813">
        <ele>2014</ele>
        <time>2020-07-29T09:41:08.089Z</time>
      </trkpt>
      <trkpt lat="42.9003" lon="0.15814">
        <ele>2014</ele>
        <time>2020-07-29T09:41:09.089Z</time>
      </trkpt>
      <trkpt lat="42.90028" lon="0.15815">
        <ele>2014</ele>
        <time>2020-07-29T09:41:10.089Z</time>
      </trkpt>
      <trkpt lat="42.90027" lon="0.15816">
        <ele>2014</ele>
        <time>2020-07-29T09:41:11.089Z</time>
      </trkpt>
      <trkpt lat="42.90026" lon="0.15817">
        <ele>2013</ele>
        <time>2020-07-29T09:41:12.089Z</time>
      </trkpt>
      <trkpt lat="42.90024" lon="0.15817">
        <ele>2014</ele>
        <time>2020-07-29T09:41:13.089Z</time>
      </trkpt>
      <trkpt lat="42.90023" lon="0.15818">
        <ele>2014</ele>
        <time>2020-07-29T09:41:14.089Z</time>
      </trkpt>
      <trkpt lat="42.90021" lon="0.15819">
        <ele>2014</ele>
        <time>2020-07-29T09:41:15.089Z</time>
      </trkpt>
      <trkpt lat="42.9002" lon="0.1582">
        <ele>2013</ele>
        <time>2020-07-29T09:41:16.089Z</time>
      </trkpt>
      <trkpt lat="42.90018" lon="0.1582">
        <ele>2012</ele>
        <time>2020-07-29T09:41:17.089Z</time>
      </trkpt>
      <trkpt lat="42.90017" lon="0.15821">
        <ele>2012</ele>
        <time>2020-07-29T09:41:18.089Z</time>
      </trkpt>
      <trkpt lat="42.90015" lon="0.15821">
        <ele>2012</ele>
        <time>2020-07-29T09:41:19.089Z</time>
      </trkpt>
      <trkpt lat="42.90014" lon="0.15822">
        <ele>2012</ele>
        <time>2020-07-29T09:41:20.089Z</time>
      </trkpt>
      <trkpt lat="42.90013" lon="0.15823">
        <ele>2012</ele>
        <time>2020-07-29T09:41:21.089Z</time>
      </trkpt>
      <trkpt lat="42.90012" lon="0.15824">
        <ele>2012</ele>
        <time>2020-07-29T09:41:22.089Z</time>
      </trkpt>
      <trkpt lat="42.90011" lon="0.15825">
        <ele>2013</ele>
        <time>2020-07-29T09:41:23.089Z</time>
      </trkpt>
      <trkpt lat="42.9001" lon="0.15825">
        <ele>2013</ele>
        <time>2020-07-29T09:41:24.089Z</time>
      </trkpt>
      <trkpt lat="42.90008" lon="0.15826">
        <ele>2013</ele>
        <time>2020-07-29T09:41:25.089Z</time>
      </trkpt>
      <trkpt lat="42.90007" lon="0.15827">
        <ele>2014</ele>
        <time>2020-07-29T09:41:26.089Z</time>
      </trkpt>
      <trkpt lat="42.90006" lon="0.15828">
        <ele>2014</ele>
        <time>2020-07-29T09:41:27.089Z</time>
      </trkpt>
      <trkpt lat="42.90005" lon="0.15829">
        <ele>2014</ele>
        <time>2020-07-29T09:41:28.089Z</time>
      </trkpt>
      <trkpt lat="42.90003" lon="0.15829">
        <ele>2015</ele>
        <time>2020-07-29T09:41:29.089Z</time>
      </trkpt>
      <trkpt lat="42.90002" lon="0.1583">
        <ele>2015</ele>
        <time>2020-07-29T09:41:30.089Z</time>
      </trkpt>
      <trkpt lat="42.90001" lon="0.15831">
        <ele>2015</ele>
        <time>2020-07-29T09:41:31.089Z</time>
      </trkpt>
      <trkpt lat="42.89999" lon="0.15832">
        <ele>2015</ele>
        <time>2020-07-29T09:41:32.089Z</time>
      </trkpt>
      <trkpt lat="42.89998" lon="0.15832">
        <ele>2015</ele>
        <time>2020-07-29T09:41:33.089Z</time>
      </trkpt>
      <trkpt lat="42.89997" lon="0.15833">
        <ele>2015</ele>
        <time>2020-07-29T09:41:34.089Z</time>
      </trkpt>
      <trkpt lat="42.89996" lon="0.15834">
        <ele>2016</ele>
        <time>2020-07-29T09:41:35.089Z</time>
      </trkpt>
      <trkpt lat="42.89996" lon="0.15835">
        <ele>2017</ele>
        <time>2020-07-29T09:41:36.089Z</time>
      </trkpt>
      <trkpt lat="42.89995" lon="0.15837">
        <ele>2017</ele>
        <time>2020-07-29T09:41:37.089Z</time>
      </trkpt>
      <trkpt lat="42.89995" lon="0.15837">
        <ele>2016</ele>
        <time>2020-07-29T09:41:38.089Z</time>
      </trkpt>
      <trkpt lat="42.89994" lon="0.15838">
        <ele>2016</ele>
        <time>2020-07-29T09:41:39.089Z</time>
      </trkpt>
      <trkpt lat="42.89994" lon="0.15838">
        <ele>2015</ele>
        <time>2020-07-29T09:41:40.089Z</time>
      </trkpt>
      <trkpt lat="42.89994" lon="0.15837">
        <ele>2014</ele>
        <time>2020-07-29T09:41:41.089Z</time>
      </trkpt>
      <trkpt lat="42.89994" lon="0.15837">
        <ele>2011</ele>
        <time>2020-07-29T09:41:42.089Z</time>
      </trkpt>
      <trkpt lat="42.89995" lon="0.15836">
        <ele>2011</ele>
        <time>2020-07-29T09:41:43.089Z</time>
      </trkpt>
      <trkpt lat="42.89995" lon="0.15836">
        <ele>2011</ele>
        <time>2020-07-29T09:41:44.089Z</time>
      </trkpt>
      <trkpt lat="42.89997" lon="0.15835">
        <ele>2010</ele>
        <time>2020-07-29T09:41:45.089Z</time>
      </trkpt>
      <trkpt lat="42.89998" lon="0.15834">
        <ele>2009</ele>
        <time>2020-07-29T09:41:46.089Z</time>
      </trkpt>
      <trkpt lat="42.90001" lon="0.15833">
        <ele>2009</ele>
        <time>2020-07-29T09:41:47.089Z</time>
      </trkpt>
      <trkpt lat="42.90003" lon="0.15832">
        <ele>2009</ele>
        <time>2020-07-29T09:41:48.089Z</time>
      </trkpt>
      <trkpt lat="42.90006" lon="0.15831">
        <ele>2008</ele>
        <time>2020-07-29T09:41:49.089Z</time>
      </trkpt>
      <trkpt lat="42.90013" lon="0.1583">
        <ele>2007</ele>
        <time>2020-07-29T09:41:50.030Z</time>
      </trkpt>
      <trkpt lat="42.90013" lon="0.1583">
        <ele>2007</ele>
        <time>2020-07-29T09:41:51.030Z</time>
      </trkpt>
      <trkpt lat="42.90013" lon="0.1583">
        <ele>2006</ele>
        <time>2020-07-29T09:41:52.030Z</time>
      </trkpt>
      <trkpt lat="42.90015" lon="0.15829">
        <ele>2004</ele>
        <time>2020-07-29T09:41:53.030Z</time>
      </trkpt>
      <trkpt lat="42.90016" lon="0.15829">
        <ele>2003</ele>
        <time>2020-07-29T09:41:54.030Z</time>
      </trkpt>
      <trkpt lat="42.90018" lon="0.15828">
        <ele>2002</ele>
        <time>2020-07-29T09:41:55.030Z</time>
      </trkpt>
      <trkpt lat="42.9002" lon="0.15828">
        <ele>2002</ele>
        <time>2020-07-29T09:41:56.030Z</time>
      </trkpt>
      <trkpt lat="42.90022" lon="0.15829">
        <ele>2001</ele>
        <time>2020-07-29T09:41:57.030Z</time>
      </trkpt>
      <trkpt lat="42.90024" lon="0.15829">
        <ele>2000</ele>
        <time>2020-07-29T09:41:58.030Z</time>
      </trkpt>
      <trkpt lat="42.90026" lon="0.1583">
        <ele>1999</ele>
        <time>2020-07-29T09:41:59.030Z</time>
      </trkpt>
      <trkpt lat="42.90028" lon="0.1583">
        <ele>1999</ele>
        <time>2020-07-29T09:42:00.030Z</time>
      </trkpt>
      <trkpt lat="42.90032" lon="0.15829">
        <ele>1999</ele>
        <time>2020-07-29T09:42:01.030Z</time>
      </trkpt>
      <trkpt lat="42.90035" lon="0.15829">
        <ele>1999</ele>
        <time>2020-07-29T09:42:02.030Z</time>
      </trkpt>
      <trkpt lat="42.90038" lon="0.15828">
        <ele>1998</ele>
        <time>2020-07-29T09:42:03.030Z</time>
      </trkpt>
      <trkpt lat="42.90042" lon="0.15827">
        <ele>1998</ele>
        <time>2020-07-29T09:42:04.030Z</time>
      </trkpt>
      <trkpt lat="42.90045" lon="0.15826">
        <ele>1998</ele>
        <time>2020-07-29T09:42:05.030Z</time>
      </trkpt>
      <trkpt lat="42.90047" lon="0.15825">
        <ele>1997</ele>
        <time>2020-07-29T09:42:06.030Z</time>
      </trkpt>
      <trkpt lat="42.9005" lon="0.15823">
        <ele>1997</ele>
        <time>2020-07-29T09:42:07.030Z</time>
      </trkpt>
      <trkpt lat="42.90052" lon="0.15822">
        <ele>1996</ele>
        <time>2020-07-29T09:42:08.030Z</time>
      </trkpt>
      <trkpt lat="42.90055" lon="0.15821">
        <ele>1996</ele>
        <time>2020-07-29T09:42:09.030Z</time>
      </trkpt>
      <trkpt lat="42.90058" lon="0.1582">
        <ele>1995</ele>
        <time>2020-07-29T09:42:10.030Z</time>
      </trkpt>
      <trkpt lat="42.90061" lon="0.15819">
        <ele>1994</ele>
        <time>2020-07-29T09:42:11.030Z</time>
      </trkpt>
      <trkpt lat="42.90064" lon="0.15818">
        <ele>1993</ele>
        <time>2020-07-29T09:42:12.030Z</time>
      </trkpt>
      <trkpt lat="42.90066" lon="0.15818">
        <ele>1993</ele>
        <time>2020-07-29T09:42:13.030Z</time>
      </trkpt>
      <trkpt lat="42.90069" lon="0.15818">
        <ele>1992</ele>
        <time>2020-07-29T09:42:14.030Z</time>
      </trkpt>
      <trkpt lat="42.90071" lon="0.15819">
        <ele>1992</ele>
        <time>2020-07-29T09:42:15.030Z</time>
      </trkpt>
      <trkpt lat="42.90074" lon="0.1582">
        <ele>1992</ele>
        <time>2020-07-29T09:42:16.030Z</time>
      </trkpt>
      <trkpt lat="42.90076" lon="0.15822">
        <ele>1991</ele>
        <time>2020-07-29T09:42:17.030Z</time>
      </trkpt>
      <trkpt lat="42.90078" lon="0.15824">
        <ele>1989</ele>
        <time>2020-07-29T09:42:18.030Z</time>
      </trkpt>
      <trkpt lat="42.9008" lon="0.15826">
        <ele>1988</ele>
        <time>2020-07-29T09:42:19.030Z</time>
      </trkpt>
      <trkpt lat="42.90081" lon="0.15828">
        <ele>1988</ele>
        <time>2020-07-29T09:42:20.030Z</time>
      </trkpt>
      <trkpt lat="42.90082" lon="0.15831">
        <ele>1987</ele>
        <time>2020-07-29T09:42:21.030Z</time>
      </trkpt>
      <trkpt lat="42.90083" lon="0.15833">
        <ele>1987</ele>
        <time>2020-07-29T09:42:22.030Z</time>
      </trkpt>
      <trkpt lat="42.90083" lon="0.15835">
        <ele>1987</ele>
        <time>2020-07-29T09:42:23.030Z</time>
      </trkpt>
      <trkpt lat="42.90084" lon="0.15838">
        <ele>1987</ele>
        <time>2020-07-29T09:42:24.030Z</time>
      </trkpt>
      <trkpt lat="42.90085" lon="0.15841">
        <ele>1986</ele>
        <time>2020-07-29T09:42:25.030Z</time>
      </trkpt>
      <trkpt lat="42.90085" lon="0.15843">
        <ele>1986</ele>
        <time>2020-07-29T09:42:26.030Z</time>
      </trkpt>
      <trkpt lat="42.90086" lon="0.15846">
        <ele>1985</ele>
        <time>2020-07-29T09:42:27.030Z</time>
      </trkpt>
      <trkpt lat="42.90086" lon="0.15849">
        <ele>1985</ele>
        <time>2020-07-29T09:42:28.030Z</time>
      </trkpt>
      <trkpt lat="42.90086" lon="0.15852">
        <ele>1986</ele>
        <time>2020-07-29T09:42:29.030Z</time>
      </trkpt>
      <trkpt lat="42.90086" lon="0.15855">
        <ele>1985</ele>
        <time>2020-07-29T09:42:30.030Z</time>
      </trkpt>
      <trkpt lat="42.90086" lon="0.15858">
        <ele>1984</ele>
        <time>2020-07-29T09:42:31.030Z</time>
      </trkpt>
      <trkpt lat="42.90086" lon="0.15861">
        <ele>1983</ele>
        <time>2020-07-29T09:42:32.030Z</time>
      </trkpt>
      <trkpt lat="42.90086" lon="0.15863">
        <ele>1982</ele>
        <time>2020-07-29T09:42:33.030Z</time>
      </trkpt>
      <trkpt lat="42.90086" lon="0.15866">
        <ele>1981</ele>
        <time>2020-07-29T09:42:34.030Z</time>
      </trkpt>
      <trkpt lat="42.90087" lon="0.15868">
        <ele>1980</ele>
        <time>2020-07-29T09:42:35.030Z</time>
      </trkpt>
      <trkpt lat="42.90088" lon="0.15871">
        <ele>1979</ele>
        <time>2020-07-29T09:42:36.030Z</time>
      </trkpt>
      <trkpt lat="42.90088" lon="0.15874">
        <ele>1979</ele>
        <time>2020-07-29T09:42:37.030Z</time>
      </trkpt>
      <trkpt lat="42.90088" lon="0.15876">
        <ele>1978</ele>
        <time>2020-07-29T09:42:38.030Z</time>
      </trkpt>
      <trkpt lat="42.90089" lon="0.15878">
        <ele>1977</ele>
        <time>2020-07-29T09:42:39.030Z</time>
      </trkpt>
      <trkpt lat="42.9009" lon="0.1588">
        <ele>1979</ele>
        <time>2020-07-29T09:42:40.030Z</time>
      </trkpt>
      <trkpt lat="42.9009" lon="0.15882">
        <ele>1979</ele>
        <time>2020-07-29T09:42:41.030Z</time>
      </trkpt>
      <trkpt lat="42.90091" lon="0.15884">
        <ele>1979</ele>
        <time>2020-07-29T09:42:42.030Z</time>
      </trkpt>
      <trkpt lat="42.90092" lon="0.15886">
        <ele>1979</ele>
        <time>2020-07-29T09:42:43.030Z</time>
      </trkpt>
      <trkpt lat="42.90093" lon="0.15888">
        <ele>1978</ele>
        <time>2020-07-29T09:42:44.030Z</time>
      </trkpt>
      <trkpt lat="42.90094" lon="0.1589">
        <ele>1977</ele>
        <time>2020-07-29T09:42:45.030Z</time>
      </trkpt>
      <trkpt lat="42.90094" lon="0.15892">
        <ele>1977</ele>
        <time>2020-07-29T09:42:46.030Z</time>
      </trkpt>
      <trkpt lat="42.90095" lon="0.15895">
        <ele>1977</ele>
        <time>2020-07-29T09:42:47.030Z</time>
      </trkpt>
      <trkpt lat="42.90096" lon="0.15897">
        <ele>1976</ele>
        <time>2020-07-29T09:42:48.030Z</time>
      </trkpt>
      <trkpt lat="42.90097" lon="0.15899">
        <ele>1975</ele>
        <time>2020-07-29T09:42:49.030Z</time>
      </trkpt>
      <trkpt lat="42.90098" lon="0.15901">
        <ele>1975</ele>
        <time>2020-07-29T09:42:50.030Z</time>
      </trkpt>
      <trkpt lat="42.90098" lon="0.15903">
        <ele>1974</ele>
        <time>2020-07-29T09:42:51.030Z</time>
      </trkpt>
      <trkpt lat="42.901" lon="0.15905">
        <ele>1973</ele>
        <time>2020-07-29T09:42:52.030Z</time>
      </trkpt>
      <trkpt lat="42.90101" lon="0.15908">
        <ele>1972</ele>
        <time>2020-07-29T09:42:53.030Z</time>
      </trkpt>
      <trkpt lat="42.90101" lon="0.1591">
        <ele>1972</ele>
        <time>2020-07-29T09:42:54.030Z</time>
      </trkpt>
      <trkpt lat="42.90102" lon="0.15912">
        <ele>1971</ele>
        <time>2020-07-29T09:42:55.030Z</time>
      </trkpt>
      <trkpt lat="42.90103" lon="0.15915">
        <ele>1971</ele>
        <time>2020-07-29T09:42:56.030Z</time>
      </trkpt>
      <trkpt lat="42.90104" lon="0.15917">
        <ele>1970</ele>
        <time>2020-07-29T09:42:57.030Z</time>
      </trkpt>
      <trkpt lat="42.90105" lon="0.15918">
        <ele>1968</ele>
        <time>2020-07-29T09:42:58.030Z</time>
      </trkpt>
      <trkpt lat="42.90106" lon="0.1592">
        <ele>1967</ele>
        <time>2020-07-29T09:42:59.030Z</time>
      </trkpt>
      <trkpt lat="42.90106" lon="0.15921">
        <ele>1966</ele>
        <time>2020-07-29T09:43:00.030Z</time>
      </trkpt>
      <trkpt lat="42.90106" lon="0.15924">
        <ele>1966</ele>
        <time>2020-07-29T09:43:01.030Z</time>
      </trkpt>
      <trkpt lat="42.90107" lon="0.15927">
        <ele>1966</ele>
        <time>2020-07-29T09:43:02.030Z</time>
      </trkpt>
      <trkpt lat="42.90107" lon="0.15929">
        <ele>1965</ele>
        <time>2020-07-29T09:43:03.030Z</time>
      </trkpt>
      <trkpt lat="42.90108" lon="0.15932">
        <ele>1965</ele>
        <time>2020-07-29T09:43:04.030Z</time>
      </trkpt>
      <trkpt lat="42.90109" lon="0.15934">
        <ele>1965</ele>
        <time>2020-07-29T09:43:05.030Z</time>
      </trkpt>
      <trkpt lat="42.9011" lon="0.15937">
        <ele>1964</ele>
        <time>2020-07-29T09:43:06.030Z</time>
      </trkpt>
      <trkpt lat="42.90111" lon="0.1594">
        <ele>1964</ele>
        <time>2020-07-29T09:43:07.030Z</time>
      </trkpt>
      <trkpt lat="42.90112" lon="0.15942">
        <ele>1963</ele>
        <time>2020-07-29T09:43:08.030Z</time>
      </trkpt>
      <trkpt lat="42.90112" lon="0.15945">
        <ele>1962</ele>
        <time>2020-07-29T09:43:09.030Z</time>
      </trkpt>
      <trkpt lat="42.90113" lon="0.15947">
        <ele>1962</ele>
        <time>2020-07-29T09:43:10.030Z</time>
      </trkpt>
      <trkpt lat="42.90114" lon="0.1595">
        <ele>1962</ele>
        <time>2020-07-29T09:43:11.030Z</time>
      </trkpt>
      <trkpt lat="42.90115" lon="0.15953">
        <ele>1962</ele>
        <time>2020-07-29T09:43:12.030Z</time>
      </trkpt>
      <trkpt lat="42.90116" lon="0.15956">
        <ele>1961</ele>
        <time>2020-07-29T09:43:13.030Z</time>
      </trkpt>
      <trkpt lat="42.90117" lon="0.15959">
        <ele>1960</ele>
        <time>2020-07-29T09:43:14.030Z</time>
      </trkpt>
      <trkpt lat="42.90118" lon="0.15962">
        <ele>1960</ele>
        <time>2020-07-29T09:43:15.030Z</time>
      </trkpt>
      <trkpt lat="42.90119" lon="0.15965">
        <ele>1959</ele>
        <time>2020-07-29T09:43:16.030Z</time>
      </trkpt>
      <trkpt lat="42.90121" lon="0.15968">
        <ele>1959</ele>
        <time>2020-07-29T09:43:17.030Z</time>
      </trkpt>
      <trkpt lat="42.90122" lon="0.15972">
        <ele>1959</ele>
        <time>2020-07-29T09:43:18.030Z</time>
      </trkpt>
      <trkpt lat="42.90124" lon="0.15975">
        <ele>1959</ele>
        <time>2020-07-29T09:43:19.030Z</time>
      </trkpt>
      <trkpt lat="42.90126" lon="0.15979">
        <ele>1959</ele>
        <time>2020-07-29T09:43:20.030Z</time>
      </trkpt>
      <trkpt lat="42.90127" lon="0.15983">
        <ele>1958</ele>
        <time>2020-07-29T09:43:21.030Z</time>
      </trkpt>
      <trkpt lat="42.90129" lon="0.15987">
        <ele>1957</ele>
        <time>2020-07-29T09:43:22.030Z</time>
      </trkpt>
      <trkpt lat="42.9013" lon="0.15991">
        <ele>1956</ele>
        <time>2020-07-29T09:43:23.030Z</time>
      </trkpt>
      <trkpt lat="42.90131" lon="0.15995">
        <ele>1956</ele>
        <time>2020-07-29T09:43:24.030Z</time>
      </trkpt>
      <trkpt lat="42.90133" lon="0.15999">
        <ele>1955</ele>
        <time>2020-07-29T09:43:25.030Z</time>
      </trkpt>
      <trkpt lat="42.90134" lon="0.16003">
        <ele>1954</ele>
        <time>2020-07-29T09:43:26.030Z</time>
      </trkpt>
      <trkpt lat="42.90136" lon="0.16007">
        <ele>1953</ele>
        <time>2020-07-29T09:43:27.030Z</time>
      </trkpt>
      <trkpt lat="42.90137" lon="0.16011">
        <ele>1952</ele>
        <time>2020-07-29T09:43:28.030Z</time>
      </trkpt>
      <trkpt lat="42.90138" lon="0.16015">
        <ele>1952</ele>
        <time>2020-07-29T09:43:29.030Z</time>
      </trkpt>
      <trkpt lat="42.9014" lon="0.16019">
        <ele>1951</ele>
        <time>2020-07-29T09:43:30.030Z</time>
      </trkpt>
      <trkpt lat="42.90142" lon="0.16023">
        <ele>1951</ele>
        <time>2020-07-29T09:43:31.030Z</time>
      </trkpt>
      <trkpt lat="42.90143" lon="0.16027">
        <ele>1951</ele>
        <time>2020-07-29T09:43:32.030Z</time>
      </trkpt>
      <trkpt lat="42.90145" lon="0.16031">
        <ele>1950</ele>
        <time>2020-07-29T09:43:33.030Z</time>
      </trkpt>
      <trkpt lat="42.90146" lon="0.16035">
        <ele>1950</ele>
        <time>2020-07-29T09:43:34.030Z</time>
      </trkpt>
      <trkpt lat="42.90147" lon="0.16039">
        <ele>1950</ele>
        <time>2020-07-29T09:43:35.030Z</time>
      </trkpt>
      <trkpt lat="42.90148" lon="0.16043">
        <ele>1949</ele>
        <time>2020-07-29T09:43:36.030Z</time>
      </trkpt>
      <trkpt lat="42.9015" lon="0.16046">
        <ele>1948</ele>
        <time>2020-07-29T09:43:37.030Z</time>
      </trkpt>
      <trkpt lat="42.90151" lon="0.1605">
        <ele>1948</ele>
        <time>2020-07-29T09:43:38.030Z</time>
      </trkpt>
      <trkpt lat="42.90152" lon="0.16053">
        <ele>1948</ele>
        <time>2020-07-29T09:43:39.030Z</time>
      </trkpt>
      <trkpt lat="42.90153" lon="0.16056">
        <ele>1947</ele>
        <time>2020-07-29T09:43:40.030Z</time>
      </trkpt>
      <trkpt lat="42.90155" lon="0.1606">
        <ele>1947</ele>
        <time>2020-07-29T09:43:41.030Z</time>
      </trkpt>
      <trkpt lat="42.90156" lon="0.16063">
        <ele>1946</ele>
        <time>2020-07-29T09:43:42.030Z</time>
      </trkpt>
      <trkpt lat="42.90157" lon="0.16066">
        <ele>1946</ele>
        <time>2020-07-29T09:43:43.030Z</time>
      </trkpt>
      <trkpt lat="42.90157" lon="0.16069">
        <ele>1946</ele>
        <time>2020-07-29T09:43:44.030Z</time>
      </trkpt>
      <trkpt lat="42.90158" lon="0.16072">
        <ele>1945</ele>
        <time>2020-07-29T09:43:45.030Z</time>
      </trkpt>
      <trkpt lat="42.90159" lon="0.16075">
        <ele>1943</ele>
        <time>2020-07-29T09:43:46.030Z</time>
      </trkpt>
      <trkpt lat="42.9016" lon="0.16077">
        <ele>1942</ele>
        <time>2020-07-29T09:43:47.030Z</time>
      </trkpt>
      <trkpt lat="42.90162" lon="0.16079">
        <ele>1942</ele>
        <time>2020-07-29T09:43:48.030Z</time>
      </trkpt>
      <trkpt lat="42.90163" lon="0.16081">
        <ele>1940</ele>
        <time>2020-07-29T09:43:49.030Z</time>
      </trkpt>
      <trkpt lat="42.90164" lon="0.16083">
        <ele>1938</ele>
        <time>2020-07-29T09:43:50.030Z</time>
      </trkpt>
      <trkpt lat="42.90166" lon="0.16084">
        <ele>1937</ele>
        <time>2020-07-29T09:43:51.030Z</time>
      </trkpt>
      <trkpt lat="42.90167" lon="0.16086">
        <ele>1936</ele>
        <time>2020-07-29T09:43:52.030Z</time>
      </trkpt>
      <trkpt lat="42.90169" lon="0.16088">
        <ele>1935</ele>
        <time>2020-07-29T09:43:53.030Z</time>
      </trkpt>
      <trkpt lat="42.9017" lon="0.16091">
        <ele>1935</ele>
        <time>2020-07-29T09:43:54.030Z</time>
      </trkpt>
      <trkpt lat="42.90171" lon="0.16092">
        <ele>1934</ele>
        <time>2020-07-29T09:43:55.030Z</time>
      </trkpt>
      <trkpt lat="42.90173" lon="0.16094">
        <ele>1932</ele>
        <time>2020-07-29T09:43:56.030Z</time>
      </trkpt>
      <trkpt lat="42.90174" lon="0.16096">
        <ele>1932</ele>
        <time>2020-07-29T09:43:57.030Z</time>
      </trkpt>
      <trkpt lat="42.90175" lon="0.16098">
        <ele>1931</ele>
        <time>2020-07-29T09:43:58.030Z</time>
      </trkpt>
      <trkpt lat="42.90176" lon="0.16099">
        <ele>1930</ele>
        <time>2020-07-29T09:43:59.030Z</time>
      </trkpt>
      <trkpt lat="42.90178" lon="0.16101">
        <ele>1929</ele>
        <time>2020-07-29T09:44:00.030Z</time>
      </trkpt>
      <trkpt lat="42.90179" lon="0.16103">
        <ele>1929</ele>
        <time>2020-07-29T09:44:01.030Z</time>
      </trkpt>
      <trkpt lat="42.9018" lon="0.16106">
        <ele>1928</ele>
        <time>2020-07-29T09:44:02.030Z</time>
      </trkpt>
      <trkpt lat="42.90181" lon="0.16108">
        <ele>1927</ele>
        <time>2020-07-29T09:44:03.030Z</time>
      </trkpt>
      <trkpt lat="42.90182" lon="0.1611">
        <ele>1926</ele>
        <time>2020-07-29T09:44:04.030Z</time>
      </trkpt>
      <trkpt lat="42.90182" lon="0.16113">
        <ele>1926</ele>
        <time>2020-07-29T09:44:05.030Z</time>
      </trkpt>
      <trkpt lat="42.90183" lon="0.16117">
        <ele>1926</ele>
        <time>2020-07-29T09:44:06.030Z</time>
      </trkpt>
      <trkpt lat="42.90183" lon="0.16121">
        <ele>1926</ele>
        <time>2020-07-29T09:44:07.030Z</time>
      </trkpt>
      <trkpt lat="42.90184" lon="0.16125">
        <ele>1926</ele>
        <time>2020-07-29T09:44:08.030Z</time>
      </trkpt>
      <trkpt lat="42.90184" lon="0.16128">
        <ele>1927</ele>
        <time>2020-07-29T09:44:09.030Z</time>
      </trkpt>
      <trkpt lat="42.90185" lon="0.16132">
        <ele>1927</ele>
        <time>2020-07-29T09:44:10.030Z</time>
      </trkpt>
      <trkpt lat="42.90186" lon="0.16135">
        <ele>1927</ele>
        <time>2020-07-29T09:44:11.030Z</time>
      </trkpt>
      <trkpt lat="42.90187" lon="0.16138">
        <ele>1928</ele>
        <time>2020-07-29T09:44:12.030Z</time>
      </trkpt>
      <trkpt lat="42.90189" lon="0.16142">
        <ele>1928</ele>
        <time>2020-07-29T09:44:13.030Z</time>
      </trkpt>
      <trkpt lat="42.9019" lon="0.16145">
        <ele>1928</ele>
        <time>2020-07-29T09:44:14.030Z</time>
      </trkpt>
      <trkpt lat="42.90191" lon="0.16149">
        <ele>1929</ele>
        <time>2020-07-29T09:44:15.030Z</time>
      </trkpt>
      <trkpt lat="42.90192" lon="0.16152">
        <ele>1928</ele>
        <time>2020-07-29T09:44:16.030Z</time>
      </trkpt>
      <trkpt lat="42.90193" lon="0.16155">
        <ele>1929</ele>
        <time>2020-07-29T09:44:17.030Z</time>
      </trkpt>
      <trkpt lat="42.90194" lon="0.16158">
        <ele>1928</ele>
        <time>2020-07-29T09:44:18.030Z</time>
      </trkpt>
      <trkpt lat="42.90195" lon="0.16162">
        <ele>1928</ele>
        <time>2020-07-29T09:44:19.030Z</time>
      </trkpt>
      <trkpt lat="42.90196" lon="0.16165">
        <ele>1928</ele>
        <time>2020-07-29T09:44:20.030Z</time>
      </trkpt>
      <trkpt lat="42.90197" lon="0.16169">
        <ele>1928</ele>
        <time>2020-07-29T09:44:21.030Z</time>
      </trkpt>
      <trkpt lat="42.90198" lon="0.16172">
        <ele>1928</ele>
        <time>2020-07-29T09:44:22.030Z</time>
      </trkpt>
      <trkpt lat="42.90199" lon="0.16175">
        <ele>1927</ele>
        <time>2020-07-29T09:44:23.030Z</time>
      </trkpt>
      <trkpt lat="42.90201" lon="0.16178">
        <ele>1927</ele>
        <time>2020-07-29T09:44:24.030Z</time>
      </trkpt>
      <trkpt lat="42.90202" lon="0.16181">
        <ele>1927</ele>
        <time>2020-07-29T09:44:25.030Z</time>
      </trkpt>
      <trkpt lat="42.90203" lon="0.16185">
        <ele>1927</ele>
        <time>2020-07-29T09:44:26.030Z</time>
      </trkpt>
      <trkpt lat="42.90204" lon="0.16189">
        <ele>1927</ele>
        <time>2020-07-29T09:44:27.030Z</time>
      </trkpt>
      <trkpt lat="42.90205" lon="0.16192">
        <ele>1926</ele>
        <time>2020-07-29T09:44:28.030Z</time>
      </trkpt>
      <trkpt lat="42.90206" lon="0.16196">
        <ele>1926</ele>
        <time>2020-07-29T09:44:29.030Z</time>
      </trkpt>
      <trkpt lat="42.90208" lon="0.162">
        <ele>1926</ele>
        <time>2020-07-29T09:44:30.030Z</time>
      </trkpt>
      <trkpt lat="42.90209" lon="0.16204">
        <ele>1925</ele>
        <time>2020-07-29T09:44:31.030Z</time>
      </trkpt>
      <trkpt lat="42.9021" lon="0.16208">
        <ele>1926</ele>
        <time>2020-07-29T09:44:32.030Z</time>
      </trkpt>
      <trkpt lat="42.90211" lon="0.16212">
        <ele>1926</ele>
        <time>2020-07-29T09:44:33.030Z</time>
      </trkpt>
      <trkpt lat="42.90212" lon="0.16215">
        <ele>1927</ele>
        <time>2020-07-29T09:44:34.030Z</time>
      </trkpt>
      <trkpt lat="42.90212" lon="0.16219">
        <ele>1925</ele>
        <time>2020-07-29T09:44:35.030Z</time>
      </trkpt>
      <trkpt lat="42.90213" lon="0.16222">
        <ele>1925</ele>
        <time>2020-07-29T09:44:36.030Z</time>
      </trkpt>
      <trkpt lat="42.90214" lon="0.16225">
        <ele>1924</ele>
        <time>2020-07-29T09:44:37.030Z</time>
      </trkpt>
      <trkpt lat="42.90215" lon="0.16229">
        <ele>1924</ele>
        <time>2020-07-29T09:44:38.030Z</time>
      </trkpt>
      <trkpt lat="42.90215" lon="0.16232">
        <ele>1923</ele>
        <time>2020-07-29T09:44:39.030Z</time>
      </trkpt>
      <trkpt lat="42.90216" lon="0.16235">
        <ele>1923</ele>
        <time>2020-07-29T09:44:40.030Z</time>
      </trkpt>
      <trkpt lat="42.90217" lon="0.16239">
        <ele>1922</ele>
        <time>2020-07-29T09:44:41.030Z</time>
      </trkpt>
      <trkpt lat="42.90218" lon="0.16242">
        <ele>1922</ele>
        <time>2020-07-29T09:44:42.030Z</time>
      </trkpt>
      <trkpt lat="42.90218" lon="0.16246">
        <ele>1921</ele>
        <time>2020-07-29T09:44:43.030Z</time>
      </trkpt>
      <trkpt lat="42.90219" lon="0.1625">
        <ele>1921</ele>
        <time>2020-07-29T09:44:44.030Z</time>
      </trkpt>
      <trkpt lat="42.9022" lon="0.16253">
        <ele>1920</ele>
        <time>2020-07-29T09:44:45.030Z</time>
      </trkpt>
      <trkpt lat="42.90221" lon="0.16256">
        <ele>1919</ele>
        <time>2020-07-29T09:44:46.030Z</time>
      </trkpt>
      <trkpt lat="42.90223" lon="0.1626">
        <ele>1919</ele>
        <time>2020-07-29T09:44:47.030Z</time>
      </trkpt>
      <trkpt lat="42.90224" lon="0.16263">
        <ele>1918</ele>
        <time>2020-07-29T09:44:48.030Z</time>
      </trkpt>
      <trkpt lat="42.90225" lon="0.16266">
        <ele>1917</ele>
        <time>2020-07-29T09:44:49.030Z</time>
      </trkpt>
      <trkpt lat="42.90227" lon="0.16269">
        <ele>1916</ele>
        <time>2020-07-29T09:44:50.030Z</time>
      </trkpt>
      <trkpt lat="42.90228" lon="0.16273">
        <ele>1915</ele>
        <time>2020-07-29T09:44:51.030Z</time>
      </trkpt>
      <trkpt lat="42.90229" lon="0.16276">
        <ele>1915</ele>
        <time>2020-07-29T09:44:52.030Z</time>
      </trkpt>
      <trkpt lat="42.90231" lon="0.16279">
        <ele>1914</ele>
        <time>2020-07-29T09:44:53.030Z</time>
      </trkpt>
      <trkpt lat="42.90232" lon="0.16282">
        <ele>1913</ele>
        <time>2020-07-29T09:44:54.030Z</time>
      </trkpt>
      <trkpt lat="42.90234" lon="0.16284">
        <ele>1912</ele>
        <time>2020-07-29T09:44:55.030Z</time>
      </trkpt>
      <trkpt lat="42.90236" lon="0.16287">
        <ele>1911</ele>
        <time>2020-07-29T09:44:56.030Z</time>
      </trkpt>
      <trkpt lat="42.90237" lon="0.16291">
        <ele>1911</ele>
        <time>2020-07-29T09:44:57.030Z</time>
      </trkpt>
      <trkpt lat="42.90238" lon="0.16294">
        <ele>1911</ele>
        <time>2020-07-29T09:44:58.030Z</time>
      </trkpt>
      <trkpt lat="42.9024" lon="0.16297">
        <ele>1910</ele>
        <time>2020-07-29T09:44:59.030Z</time>
      </trkpt>
      <trkpt lat="42.90242" lon="0.163">
        <ele>1909</ele>
        <time>2020-07-29T09:45:00.030Z</time>
      </trkpt>
      <trkpt lat="42.90243" lon="0.16302">
        <ele>1908</ele>
        <time>2020-07-29T09:45:01.030Z</time>
      </trkpt>
      <trkpt lat="42.90244" lon="0.16305">
        <ele>1907</ele>
        <time>2020-07-29T09:45:02.030Z</time>
      </trkpt>
      <trkpt lat="42.90246" lon="0.16308">
        <ele>1907</ele>
        <time>2020-07-29T09:45:03.030Z</time>
      </trkpt>
      <trkpt lat="42.90248" lon="0.16311">
        <ele>1907</ele>
        <time>2020-07-29T09:45:04.030Z</time>
      </trkpt>
      <trkpt lat="42.9025" lon="0.16314">
        <ele>1906</ele>
        <time>2020-07-29T09:45:05.030Z</time>
      </trkpt>
      <trkpt lat="42.90252" lon="0.16316">
        <ele>1906</ele>
        <time>2020-07-29T09:45:06.030Z</time>
      </trkpt>
      <trkpt lat="42.90254" lon="0.16319">
        <ele>1905</ele>
        <time>2020-07-29T09:45:07.030Z</time>
      </trkpt>
      <trkpt lat="42.90256" lon="0.16322">
        <ele>1904</ele>
        <time>2020-07-29T09:45:08.030Z</time>
      </trkpt>
      <trkpt lat="42.90259" lon="0.16324">
        <ele>1903</ele>
        <time>2020-07-29T09:45:09.030Z</time>
      </trkpt>
      <trkpt lat="42.90261" lon="0.16326">
        <ele>1903</ele>
        <time>2020-07-29T09:45:10.030Z</time>
      </trkpt>
      <trkpt lat="42.90263" lon="0.16328">
        <ele>1902</ele>
        <time>2020-07-29T09:45:11.030Z</time>
      </trkpt>
      <trkpt lat="42.90266" lon="0.1633">
        <ele>1902</ele>
        <time>2020-07-29T09:45:12.030Z</time>
      </trkpt>
      <trkpt lat="42.90268" lon="0.16332">
        <ele>1901</ele>
        <time>2020-07-29T09:45:13.030Z</time>
      </trkpt>
      <trkpt lat="42.9027" lon="0.16334">
        <ele>1901</ele>
        <time>2020-07-29T09:45:14.030Z</time>
      </trkpt>
      <trkpt lat="42.90273" lon="0.16337">
        <ele>1899</ele>
        <time>2020-07-29T09:45:15.030Z</time>
      </trkpt>
      <trkpt lat="42.90275" lon="0.16339">
        <ele>1899</ele>
        <time>2020-07-29T09:45:16.030Z</time>
      </trkpt>
      <trkpt lat="42.90277" lon="0.1634">
        <ele>1899</ele>
        <time>2020-07-29T09:45:17.030Z</time>
      </trkpt>
      <trkpt lat="42.90279" lon="0.16342">
        <ele>1898</ele>
        <time>2020-07-29T09:45:18.030Z</time>
      </trkpt>
      <trkpt lat="42.90282" lon="0.16345">
        <ele>1898</ele>
        <time>2020-07-29T09:45:19.030Z</time>
      </trkpt>
      <trkpt lat="42.90284" lon="0.16347">
        <ele>1898</ele>
        <time>2020-07-29T09:45:20.030Z</time>
      </trkpt>
      <trkpt lat="42.90287" lon="0.16349">
        <ele>1897</ele>
        <time>2020-07-29T09:45:21.030Z</time>
      </trkpt>
      <trkpt lat="42.9029" lon="0.16351">
        <ele>1896</ele>
        <time>2020-07-29T09:45:22.030Z</time>
      </trkpt>
      <trkpt lat="42.90293" lon="0.16353">
        <ele>1895</ele>
        <time>2020-07-29T09:45:23.030Z</time>
      </trkpt>
      <trkpt lat="42.90295" lon="0.16355">
        <ele>1894</ele>
        <time>2020-07-29T09:45:24.030Z</time>
      </trkpt>
      <trkpt lat="42.90298" lon="0.16357">
        <ele>1894</ele>
        <time>2020-07-29T09:45:25.030Z</time>
      </trkpt>
      <trkpt lat="42.903" lon="0.16359">
        <ele>1893</ele>
        <time>2020-07-29T09:45:26.030Z</time>
      </trkpt>
      <trkpt lat="42.90302" lon="0.16362">
        <ele>1893</ele>
        <time>2020-07-29T09:45:27.030Z</time>
      </trkpt>
      <trkpt lat="42.90304" lon="0.16365">
        <ele>1893</ele>
        <time>2020-07-29T09:45:28.030Z</time>
      </trkpt>
      <trkpt lat="42.90305" lon="0.16368">
        <ele>1893</ele>
        <time>2020-07-29T09:45:29.030Z</time>
      </trkpt>
      <trkpt lat="42.90307" lon="0.1637">
        <ele>1893</ele>
        <time>2020-07-29T09:45:30.030Z</time>
      </trkpt>
      <trkpt lat="42.90308" lon="0.16372">
        <ele>1893</ele>
        <time>2020-07-29T09:45:31.030Z</time>
      </trkpt>
      <trkpt lat="42.9031" lon="0.16375">
        <ele>1893</ele>
        <time>2020-07-29T09:45:32.030Z</time>
      </trkpt>
      <trkpt lat="42.90311" lon="0.16378">
        <ele>1894</ele>
        <time>2020-07-29T09:45:33.030Z</time>
      </trkpt>
      <trkpt lat="42.90312" lon="0.16381">
        <ele>1895</ele>
        <time>2020-07-29T09:45:34.030Z</time>
      </trkpt>
      <trkpt lat="42.90313" lon="0.16385">
        <ele>1896</ele>
        <time>2020-07-29T09:45:35.030Z</time>
      </trkpt>
      <trkpt lat="42.90313" lon="0.16387">
        <ele>1898</ele>
        <time>2020-07-29T09:45:36.030Z</time>
      </trkpt>
      <trkpt lat="42.90314" lon="0.1639">
        <ele>1899</ele>
        <time>2020-07-29T09:45:37.030Z</time>
      </trkpt>
      <trkpt lat="42.90314" lon="0.16392">
        <ele>1899</ele>
        <time>2020-07-29T09:45:38.030Z</time>
      </trkpt>
      <trkpt lat="42.90314" lon="0.16394">
        <ele>1900</ele>
        <time>2020-07-29T09:45:39.030Z</time>
      </trkpt>
      <trkpt lat="42.90314" lon="0.16395">
        <ele>1899</ele>
        <time>2020-07-29T09:45:40.030Z</time>
      </trkpt>
      <trkpt lat="42.90313" lon="0.16396">
        <ele>1899</ele>
        <time>2020-07-29T09:45:41.030Z</time>
      </trkpt>
      <trkpt lat="42.90313" lon="0.16397">
        <ele>1899</ele>
        <time>2020-07-29T09:45:42.030Z</time>
      </trkpt>
      <trkpt lat="42.90313" lon="0.16404">
        <ele>1899</ele>
        <time>2020-07-29T09:45:43.034Z</time>
      </trkpt>
      <trkpt lat="42.90313" lon="0.16405">
        <ele>1899</ele>
        <time>2020-07-29T09:45:44.034Z</time>
      </trkpt>
      <trkpt lat="42.90313" lon="0.16406">
        <ele>1899</ele>
        <time>2020-07-29T09:45:45.034Z</time>
      </trkpt>
      <trkpt lat="42.90313" lon="0.16407">
        <ele>1899</ele>
        <time>2020-07-29T09:45:46.034Z</time>
      </trkpt>
      <trkpt lat="42.90314" lon="0.16409">
        <ele>1899</ele>
        <time>2020-07-29T09:45:47.034Z</time>
      </trkpt>
      <trkpt lat="42.90314" lon="0.16412">
        <ele>1900</ele>
        <time>2020-07-29T09:45:48.034Z</time>
      </trkpt>
      <trkpt lat="42.90314" lon="0.16415">
        <ele>1900</ele>
        <time>2020-07-29T09:45:49.034Z</time>
      </trkpt>
      <trkpt lat="42.90314" lon="0.16419">
        <ele>1901</ele>
        <time>2020-07-29T09:45:50.034Z</time>
      </trkpt>
      <trkpt lat="42.90313" lon="0.16422">
        <ele>1901</ele>
        <time>2020-07-29T09:45:51.034Z</time>
      </trkpt>
      <trkpt lat="42.90313" lon="0.16425">
        <ele>1901</ele>
        <time>2020-07-29T09:45:52.034Z</time>
      </trkpt>
      <trkpt lat="42.90312" lon="0.16428">
        <ele>1902</ele>
        <time>2020-07-29T09:45:53.034Z</time>
      </trkpt>
      <trkpt lat="42.90312" lon="0.16431">
        <ele>1902</ele>
        <time>2020-07-29T09:45:54.034Z</time>
      </trkpt>
      <trkpt lat="42.90311" lon="0.16433">
        <ele>1902</ele>
        <time>2020-07-29T09:45:55.034Z</time>
      </trkpt>
      <trkpt lat="42.90311" lon="0.16435">
        <ele>1903</ele>
        <time>2020-07-29T09:45:56.034Z</time>
      </trkpt>
      <trkpt lat="42.90311" lon="0.16438">
        <ele>1903</ele>
        <time>2020-07-29T09:45:57.034Z</time>
      </trkpt>
      <trkpt lat="42.90311" lon="0.16441">
        <ele>1903</ele>
        <time>2020-07-29T09:45:58.034Z</time>
      </trkpt>
      <trkpt lat="42.90311" lon="0.16443">
        <ele>1904</ele>
        <time>2020-07-29T09:45:59.034Z</time>
      </trkpt>
      <trkpt lat="42.90311" lon="0.16445">
        <ele>1906</ele>
        <time>2020-07-29T09:46:00.034Z</time>
      </trkpt>
      <trkpt lat="42.90311" lon="0.16447">
        <ele>1905</ele>
        <time>2020-07-29T09:46:01.034Z</time>
      </trkpt>
      <trkpt lat="42.90311" lon="0.16449">
        <ele>1906</ele>
        <time>2020-07-29T09:46:02.034Z</time>
      </trkpt>
      <trkpt lat="42.90311" lon="0.16451">
        <ele>1906</ele>
        <time>2020-07-29T09:46:03.034Z</time>
      </trkpt>
      <trkpt lat="42.90311" lon="0.16453">
        <ele>1907</ele>
        <time>2020-07-29T09:46:04.034Z</time>
      </trkpt>
      <trkpt lat="42.90311" lon="0.16455">
        <ele>1907</ele>
        <time>2020-07-29T09:46:05.034Z</time>
      </trkpt>
      <trkpt lat="42.90311" lon="0.16457">
        <ele>1907</ele>
        <time>2020-07-29T09:46:06.034Z</time>
      </trkpt>
      <trkpt lat="42.90311" lon="0.16459">
        <ele>1908</ele>
        <time>2020-07-29T09:46:07.034Z</time>
      </trkpt>
      <trkpt lat="42.90311" lon="0.16462">
        <ele>1908</ele>
        <time>2020-07-29T09:46:08.034Z</time>
      </trkpt>
      <trkpt lat="42.90312" lon="0.16465">
        <ele>1908</ele>
        <time>2020-07-29T09:46:09.034Z</time>
      </trkpt>
      <trkpt lat="42.90312" lon="0.16467">
        <ele>1909</ele>
        <time>2020-07-29T09:46:10.034Z</time>
      </trkpt>
      <trkpt lat="42.90312" lon="0.1647">
        <ele>1909</ele>
        <time>2020-07-29T09:46:11.034Z</time>
      </trkpt>
      <trkpt lat="42.90312" lon="0.16472">
        <ele>1909</ele>
        <time>2020-07-29T09:46:12.034Z</time>
      </trkpt>
      <trkpt lat="42.90311" lon="0.16474">
        <ele>1909</ele>
        <time>2020-07-29T09:46:13.034Z</time>
      </trkpt>
      <trkpt lat="42.90311" lon="0.16476">
        <ele>1909</ele>
        <time>2020-07-29T09:46:14.034Z</time>
      </trkpt>
      <trkpt lat="42.90311" lon="0.16477">
        <ele>1910</ele>
        <time>2020-07-29T09:46:15.034Z</time>
      </trkpt>
      <trkpt lat="42.90311" lon="0.16479">
        <ele>1910</ele>
        <time>2020-07-29T09:46:16.034Z</time>
      </trkpt>
      <trkpt lat="42.90312" lon="0.16481">
        <ele>1910</ele>
        <time>2020-07-29T09:46:17.034Z</time>
      </trkpt>
      <trkpt lat="42.90312" lon="0.16483">
        <ele>1911</ele>
        <time>2020-07-29T09:46:18.034Z</time>
      </trkpt>
      <trkpt lat="42.90312" lon="0.16485">
        <ele>1911</ele>
        <time>2020-07-29T09:46:19.034Z</time>
      </trkpt>
      <trkpt lat="42.90312" lon="0.16487">
        <ele>1912</ele>
        <time>2020-07-29T09:46:20.034Z</time>
      </trkpt>
      <trkpt lat="42.90312" lon="0.16489">
        <ele>1912</ele>
        <time>2020-07-29T09:46:21.034Z</time>
      </trkpt>
      <trkpt lat="42.90312" lon="0.16491">
        <ele>1912</ele>
        <time>2020-07-29T09:46:22.034Z</time>
      </trkpt>
      <trkpt lat="42.90312" lon="0.16493">
        <ele>1912</ele>
        <time>2020-07-29T09:46:23.034Z</time>
      </trkpt>
      <trkpt lat="42.90312" lon="0.16494">
        <ele>1912</ele>
        <time>2020-07-29T09:46:24.034Z</time>
      </trkpt>
      <trkpt lat="42.90312" lon="0.16496">
        <ele>1912</ele>
        <time>2020-07-29T09:46:25.034Z</time>
      </trkpt>
      <trkpt lat="42.90312" lon="0.16498">
        <ele>1912</ele>
        <time>2020-07-29T09:46:26.034Z</time>
      </trkpt>
      <trkpt lat="42.90312" lon="0.16499">
        <ele>1913</ele>
        <time>2020-07-29T09:46:27.034Z</time>
      </trkpt>
      <trkpt lat="42.90313" lon="0.16501">
        <ele>1913</ele>
        <time>2020-07-29T09:46:28.034Z</time>
      </trkpt>
      <trkpt lat="42.90313" lon="0.16503">
        <ele>1914</ele>
        <time>2020-07-29T09:46:29.034Z</time>
      </trkpt>
      <trkpt lat="42.90313" lon="0.16504">
        <ele>1914</ele>
        <time>2020-07-29T09:46:30.034Z</time>
      </trkpt>
      <trkpt lat="42.90313" lon="0.16506">
        <ele>1915</ele>
        <time>2020-07-29T09:46:31.034Z</time>
      </trkpt>
      <trkpt lat="42.90313" lon="0.16508">
        <ele>1915</ele>
        <time>2020-07-29T09:46:32.034Z</time>
      </trkpt>
      <trkpt lat="42.90313" lon="0.1651">
        <ele>1915</ele>
        <time>2020-07-29T09:46:33.034Z</time>
      </trkpt>
      <trkpt lat="42.90314" lon="0.16512">
        <ele>1916</ele>
        <time>2020-07-29T09:46:34.034Z</time>
      </trkpt>
      <trkpt lat="42.90314" lon="0.16514">
        <ele>1916</ele>
        <time>2020-07-29T09:46:35.034Z</time>
      </trkpt>
      <trkpt lat="42.90314" lon="0.16515">
        <ele>1916</ele>
        <time>2020-07-29T09:46:36.034Z</time>
      </trkpt>
      <trkpt lat="42.90314" lon="0.16517">
        <ele>1916</ele>
        <time>2020-07-29T09:46:37.034Z</time>
      </trkpt>
      <trkpt lat="42.90314" lon="0.16518">
        <ele>1917</ele>
        <time>2020-07-29T09:46:38.034Z</time>
      </trkpt>
      <trkpt lat="42.90314" lon="0.1652">
        <ele>1917</ele>
        <time>2020-07-29T09:46:39.034Z</time>
      </trkpt>
      <trkpt lat="42.90314" lon="0.16522">
        <ele>1918</ele>
        <time>2020-07-29T09:46:40.034Z</time>
      </trkpt>
      <trkpt lat="42.90315" lon="0.16523">
        <ele>1917</ele>
        <time>2020-07-29T09:46:41.034Z</time>
      </trkpt>
      <trkpt lat="42.90315" lon="0.16525">
        <ele>1918</ele>
        <time>2020-07-29T09:46:42.034Z</time>
      </trkpt>
      <trkpt lat="42.90315" lon="0.16528">
        <ele>1919</ele>
        <time>2020-07-29T09:46:43.034Z</time>
      </trkpt>
      <trkpt lat="42.90316" lon="0.1653">
        <ele>1920</ele>
        <time>2020-07-29T09:46:44.034Z</time>
      </trkpt>
      <trkpt lat="42.90316" lon="0.16531">
        <ele>1920</ele>
        <time>2020-07-29T09:46:45.034Z</time>
      </trkpt>
      <trkpt lat="42.90316" lon="0.16533">
        <ele>1920</ele>
        <time>2020-07-29T09:46:46.034Z</time>
      </trkpt>
      <trkpt lat="42.90316" lon="0.16534">
        <ele>1920</ele>
        <time>2020-07-29T09:46:47.034Z</time>
      </trkpt>
      <trkpt lat="42.90316" lon="0.16536">
        <ele>1921</ele>
        <time>2020-07-29T09:46:48.034Z</time>
      </trkpt>
      <trkpt lat="42.90316" lon="0.16538">
        <ele>1921</ele>
        <time>2020-07-29T09:46:49.034Z</time>
      </trkpt>
      <trkpt lat="42.90316" lon="0.16539">
        <ele>1922</ele>
        <time>2020-07-29T09:46:50.034Z</time>
      </trkpt>
      <trkpt lat="42.90316" lon="0.16541">
        <ele>1922</ele>
        <time>2020-07-29T09:46:51.034Z</time>
      </trkpt>
      <trkpt lat="42.90316" lon="0.16543">
        <ele>1923</ele>
        <time>2020-07-29T09:46:52.034Z</time>
      </trkpt>
      <trkpt lat="42.90316" lon="0.16545">
        <ele>1923</ele>
        <time>2020-07-29T09:46:53.034Z</time>
      </trkpt>
      <trkpt lat="42.90316" lon="0.16546">
        <ele>1923</ele>
        <time>2020-07-29T09:46:54.034Z</time>
      </trkpt>
      <trkpt lat="42.90316" lon="0.16547">
        <ele>1924</ele>
        <time>2020-07-29T09:46:55.034Z</time>
      </trkpt>
      <trkpt lat="42.90316" lon="0.16549">
        <ele>1924</ele>
        <time>2020-07-29T09:46:56.034Z</time>
      </trkpt>
      <trkpt lat="42.90316" lon="0.16551">
        <ele>1924</ele>
        <time>2020-07-29T09:46:57.034Z</time>
      </trkpt>
      <trkpt lat="42.90316" lon="0.16552">
        <ele>1925</ele>
        <time>2020-07-29T09:46:58.034Z</time>
      </trkpt>
      <trkpt lat="42.90317" lon="0.16554">
        <ele>1925</ele>
        <time>2020-07-29T09:46:59.034Z</time>
      </trkpt>
      <trkpt lat="42.90317" lon="0.16556">
        <ele>1926</ele>
        <time>2020-07-29T09:47:00.034Z</time>
      </trkpt>
      <trkpt lat="42.90317" lon="0.16558">
        <ele>1926</ele>
        <time>2020-07-29T09:47:01.034Z</time>
      </trkpt>
      <trkpt lat="42.90317" lon="0.1656">
        <ele>1927</ele>
        <time>2020-07-29T09:47:02.034Z</time>
      </trkpt>
      <trkpt lat="42.90318" lon="0.16561">
        <ele>1927</ele>
        <time>2020-07-29T09:47:03.034Z</time>
      </trkpt>
      <trkpt lat="42.90318" lon="0.16563">
        <ele>1928</ele>
        <time>2020-07-29T09:47:04.034Z</time>
      </trkpt>
      <trkpt lat="42.90318" lon="0.16565">
        <ele>1928</ele>
        <time>2020-07-29T09:47:05.034Z</time>
      </trkpt>
      <trkpt lat="42.90318" lon="0.16566">
        <ele>1928</ele>
        <time>2020-07-29T09:47:06.034Z</time>
      </trkpt>
      <trkpt lat="42.90319" lon="0.16568">
        <ele>1928</ele>
        <time>2020-07-29T09:47:07.034Z</time>
      </trkpt>
      <trkpt lat="42.90319" lon="0.16569">
        <ele>1928</ele>
        <time>2020-07-29T09:47:08.034Z</time>
      </trkpt>
      <trkpt lat="42.90319" lon="0.16571">
        <ele>1928</ele>
        <time>2020-07-29T09:47:09.034Z</time>
      </trkpt>
      <trkpt lat="42.90319" lon="0.16573">
        <ele>1928</ele>
        <time>2020-07-29T09:47:10.034Z</time>
      </trkpt>
      <trkpt lat="42.90319" lon="0.16574">
        <ele>1929</ele>
        <time>2020-07-29T09:47:11.034Z</time>
      </trkpt>
      <trkpt lat="42.9032" lon="0.16576">
        <ele>1930</ele>
        <time>2020-07-29T09:47:12.034Z</time>
      </trkpt>
      <trkpt lat="42.9032" lon="0.16578">
        <ele>1930</ele>
        <time>2020-07-29T09:47:13.034Z</time>
      </trkpt>
      <trkpt lat="42.9032" lon="0.1658">
        <ele>1930</ele>
        <time>2020-07-29T09:47:14.034Z</time>
      </trkpt>
      <trkpt lat="42.90321" lon="0.16581">
        <ele>1930</ele>
        <time>2020-07-29T09:47:15.034Z</time>
      </trkpt>
      <trkpt lat="42.90321" lon="0.16583">
        <ele>1930</ele>
        <time>2020-07-29T09:47:16.034Z</time>
      </trkpt>
      <trkpt lat="42.90321" lon="0.16585">
        <ele>1931</ele>
        <time>2020-07-29T09:47:17.034Z</time>
      </trkpt>
      <trkpt lat="42.90321" lon="0.16587">
        <ele>1931</ele>
        <time>2020-07-29T09:47:18.034Z</time>
      </trkpt>
      <trkpt lat="42.90321" lon="0.16589">
        <ele>1931</ele>
        <time>2020-07-29T09:47:19.034Z</time>
      </trkpt>
      <trkpt lat="42.90321" lon="0.1659">
        <ele>1932</ele>
        <time>2020-07-29T09:47:20.034Z</time>
      </trkpt>
      <trkpt lat="42.90322" lon="0.16591">
        <ele>1933</ele>
        <time>2020-07-29T09:47:21.034Z</time>
      </trkpt>
      <trkpt lat="42.90322" lon="0.16592">
        <ele>1933</ele>
        <time>2020-07-29T09:47:22.034Z</time>
      </trkpt>
      <trkpt lat="42.90322" lon="0.16593">
        <ele>1933</ele>
        <time>2020-07-29T09:47:23.034Z</time>
      </trkpt>
      <trkpt lat="42.90322" lon="0.16595">
        <ele>1933</ele>
        <time>2020-07-29T09:47:24.034Z</time>
      </trkpt>
      <trkpt lat="42.90322" lon="0.16596">
        <ele>1934</ele>
        <time>2020-07-29T09:47:25.034Z</time>
      </trkpt>
      <trkpt lat="42.90322" lon="0.16598">
        <ele>1934</ele>
        <time>2020-07-29T09:47:26.034Z</time>
      </trkpt>
      <trkpt lat="42.90322" lon="0.16599">
        <ele>1935</ele>
        <time>2020-07-29T09:47:27.034Z</time>
      </trkpt>
      <trkpt lat="42.90322" lon="0.16601">
        <ele>1935</ele>
        <time>2020-07-29T09:47:28.034Z</time>
      </trkpt>
      <trkpt lat="42.90322" lon="0.16601">
        <ele>1934</ele>
        <time>2020-07-29T09:47:29.034Z</time>
      </trkpt>
      <trkpt lat="42.90322" lon="0.16601">
        <ele>1934</ele>
        <time>2020-07-29T09:47:30.034Z</time>
      </trkpt>
      <trkpt lat="42.90323" lon="0.16602">
        <ele>1934</ele>
        <time>2020-07-29T09:47:31.034Z</time>
      </trkpt>
      <trkpt lat="42.90323" lon="0.16602">
        <ele>1934</ele>
        <time>2020-07-29T09:47:32.034Z</time>
      </trkpt>
      <trkpt lat="42.90323" lon="0.16602">
        <ele>1934</ele>
        <time>2020-07-29T09:47:33.034Z</time>
      </trkpt>
      <trkpt lat="42.90323" lon="0.16602">
        <ele>1934</ele>
        <time>2020-07-29T09:47:34.034Z</time>
      </trkpt>
      <trkpt lat="42.90323" lon="0.16602">
        <ele>1934</ele>
        <time>2020-07-29T09:47:35.034Z</time>
      </trkpt>
      <trkpt lat="42.90323" lon="0.16602">
        <ele>1933</ele>
        <time>2020-07-29T09:47:36.034Z</time>
      </trkpt>
      <trkpt lat="42.90323" lon="0.16601">
        <ele>1933</ele>
        <time>2020-07-29T09:47:37.034Z</time>
      </trkpt>
      <trkpt lat="42.90323" lon="0.16601">
        <ele>1934</ele>
        <time>2020-07-29T09:47:38.034Z</time>
      </trkpt>
      <trkpt lat="42.90322" lon="0.16599">
        <ele>1934</ele>
        <time>2020-07-29T09:47:39.034Z</time>
      </trkpt>
      <trkpt lat="42.90322" lon="0.16597">
        <ele>1934</ele>
        <time>2020-07-29T09:47:40.034Z</time>
      </trkpt>
      <trkpt lat="42.90322" lon="0.16594">
        <ele>1934</ele>
        <time>2020-07-29T09:47:41.034Z</time>
      </trkpt>
      <trkpt lat="42.90322" lon="0.16591">
        <ele>1933</ele>
        <time>2020-07-29T09:47:42.034Z</time>
      </trkpt>
      <trkpt lat="42.90322" lon="0.16588">
        <ele>1933</ele>
        <time>2020-07-29T09:47:43.034Z</time>
      </trkpt>
      <trkpt lat="42.90322" lon="0.16586">
        <ele>1933</ele>
        <time>2020-07-29T09:47:44.034Z</time>
      </trkpt>
      <trkpt lat="42.90322" lon="0.16582">
        <ele>1932</ele>
        <time>2020-07-29T09:47:45.034Z</time>
      </trkpt>
      <trkpt lat="42.90321" lon="0.16579">
        <ele>1931</ele>
        <time>2020-07-29T09:47:46.034Z</time>
      </trkpt>
      <trkpt lat="42.90322" lon="0.16576">
        <ele>1931</ele>
        <time>2020-07-29T09:47:47.034Z</time>
      </trkpt>
      <trkpt lat="42.90322" lon="0.16573">
        <ele>1931</ele>
        <time>2020-07-29T09:47:48.034Z</time>
      </trkpt>
      <trkpt lat="42.90321" lon="0.1657">
        <ele>1930</ele>
        <time>2020-07-29T09:47:49.034Z</time>
      </trkpt>
      <trkpt lat="42.90321" lon="0.16567">
        <ele>1929</ele>
        <time>2020-07-29T09:47:50.034Z</time>
      </trkpt>
      <trkpt lat="42.90321" lon="0.16563">
        <ele>1929</ele>
        <time>2020-07-29T09:47:51.034Z</time>
      </trkpt>
      <trkpt lat="42.9032" lon="0.1656">
        <ele>1928</ele>
        <time>2020-07-29T09:47:52.034Z</time>
      </trkpt>
      <trkpt lat="42.9032" lon="0.16557">
        <ele>1928</ele>
        <time>2020-07-29T09:47:53.034Z</time>
      </trkpt>
      <trkpt lat="42.9032" lon="0.16554">
        <ele>1927</ele>
        <time>2020-07-29T09:47:54.034Z</time>
      </trkpt>
      <trkpt lat="42.9032" lon="0.1655">
        <ele>1927</ele>
        <time>2020-07-29T09:47:55.034Z</time>
      </trkpt>
      <trkpt lat="42.90319" lon="0.16546">
        <ele>1926</ele>
        <time>2020-07-29T09:47:56.034Z</time>
      </trkpt>
      <trkpt lat="42.90319" lon="0.16543">
        <ele>1925</ele>
        <time>2020-07-29T09:47:57.034Z</time>
      </trkpt>
      <trkpt lat="42.90318" lon="0.1654">
        <ele>1924</ele>
        <time>2020-07-29T09:47:58.034Z</time>
      </trkpt>
      <trkpt lat="42.90318" lon="0.16536">
        <ele>1923</ele>
        <time>2020-07-29T09:47:59.034Z</time>
      </trkpt>
      <trkpt lat="42.90317" lon="0.16533">
        <ele>1923</ele>
        <time>2020-07-29T09:48:00.034Z</time>
      </trkpt>
      <trkpt lat="42.90317" lon="0.1653">
        <ele>1922</ele>
        <time>2020-07-29T09:48:01.034Z</time>
      </trkpt>
      <trkpt lat="42.90317" lon="0.16526">
        <ele>1920</ele>
        <time>2020-07-29T09:48:02.034Z</time>
      </trkpt>
      <trkpt lat="42.90317" lon="0.16522">
        <ele>1920</ele>
        <time>2020-07-29T09:48:03.034Z</time>
      </trkpt>
      <trkpt lat="42.90316" lon="0.16519">
        <ele>1920</ele>
        <time>2020-07-29T09:48:04.034Z</time>
      </trkpt>
      <trkpt lat="42.90315" lon="0.16515">
        <ele>1919</ele>
        <time>2020-07-29T09:48:05.034Z</time>
      </trkpt>
      <trkpt lat="42.90315" lon="0.16511">
        <ele>1919</ele>
        <time>2020-07-29T09:48:06.034Z</time>
      </trkpt>
      <trkpt lat="42.90315" lon="0.16508">
        <ele>1918</ele>
        <time>2020-07-29T09:48:07.034Z</time>
      </trkpt>
      <trkpt lat="42.90314" lon="0.16505">
        <ele>1918</ele>
        <time>2020-07-29T09:48:08.034Z</time>
      </trkpt>
      <trkpt lat="42.90314" lon="0.16501">
        <ele>1917</ele>
        <time>2020-07-29T09:48:09.034Z</time>
      </trkpt>
      <trkpt lat="42.90313" lon="0.16498">
        <ele>1916</ele>
        <time>2020-07-29T09:48:10.034Z</time>
      </trkpt>
      <trkpt lat="42.90313" lon="0.16494">
        <ele>1915</ele>
        <time>2020-07-29T09:48:11.034Z</time>
      </trkpt>
      <trkpt lat="42.90313" lon="0.1649">
        <ele>1915</ele>
        <time>2020-07-29T09:48:12.034Z</time>
      </trkpt>
      <trkpt lat="42.90313" lon="0.16487">
        <ele>1914</ele>
        <time>2020-07-29T09:48:13.034Z</time>
      </trkpt>
      <trkpt lat="42.90313" lon="0.16483">
        <ele>1914</ele>
        <time>2020-07-29T09:48:14.034Z</time>
      </trkpt>
      <trkpt lat="42.90313" lon="0.16478">
        <ele>1913</ele>
        <time>2020-07-29T09:48:15.034Z</time>
      </trkpt>
      <trkpt lat="42.90313" lon="0.16474">
        <ele>1913</ele>
        <time>2020-07-29T09:48:16.034Z</time>
      </trkpt>
      <trkpt lat="42.90313" lon="0.16469">
        <ele>1913</ele>
        <time>2020-07-29T09:48:17.034Z</time>
      </trkpt>
      <trkpt lat="42.90313" lon="0.16465">
        <ele>1912</ele>
        <time>2020-07-29T09:48:18.034Z</time>
      </trkpt>
      <trkpt lat="42.90313" lon="0.16461">
        <ele>1912</ele>
        <time>2020-07-29T09:48:19.034Z</time>
      </trkpt>
      <trkpt lat="42.90313" lon="0.16457">
        <ele>1911</ele>
        <time>2020-07-29T09:48:20.034Z</time>
      </trkpt>
      <trkpt lat="42.90313" lon="0.16453">
        <ele>1911</ele>
        <time>2020-07-29T09:48:21.034Z</time>
      </trkpt>
      <trkpt lat="42.90313" lon="0.16449">
        <ele>1911</ele>
        <time>2020-07-29T09:48:22.034Z</time>
      </trkpt>
      <trkpt lat="42.90313" lon="0.16446">
        <ele>1909</ele>
        <time>2020-07-29T09:48:23.034Z</time>
      </trkpt>
      <trkpt lat="42.90313" lon="0.16442">
        <ele>1908</ele>
        <time>2020-07-29T09:48:24.034Z</time>
      </trkpt>
      <trkpt lat="42.90314" lon="0.16439">
        <ele>1906</ele>
        <time>2020-07-29T09:48:25.034Z</time>
      </trkpt>
      <trkpt lat="42.90315" lon="0.16435">
        <ele>1905</ele>
        <time>2020-07-29T09:48:26.034Z</time>
      </trkpt>
      <trkpt lat="42.90315" lon="0.16431">
        <ele>1905</ele>
        <time>2020-07-29T09:48:27.034Z</time>
      </trkpt>
      <trkpt lat="42.90316" lon="0.16427">
        <ele>1904</ele>
        <time>2020-07-29T09:48:28.034Z</time>
      </trkpt>
      <trkpt lat="42.90316" lon="0.16424">
        <ele>1903</ele>
        <time>2020-07-29T09:48:29.034Z</time>
      </trkpt>
      <trkpt lat="42.90316" lon="0.1642">
        <ele>1903</ele>
        <time>2020-07-29T09:48:30.034Z</time>
      </trkpt>
      <trkpt lat="42.90315" lon="0.16416">
        <ele>1902</ele>
        <time>2020-07-29T09:48:31.034Z</time>
      </trkpt>
      <trkpt lat="42.90315" lon="0.16412">
        <ele>1902</ele>
        <time>2020-07-29T09:48:32.034Z</time>
      </trkpt>
      <trkpt lat="42.90315" lon="0.16408">
        <ele>1901</ele>
        <time>2020-07-29T09:48:33.034Z</time>
      </trkpt>
      <trkpt lat="42.90314" lon="0.16405">
        <ele>1901</ele>
        <time>2020-07-29T09:48:34.034Z</time>
      </trkpt>
      <trkpt lat="42.90313" lon="0.16401">
        <ele>1900</ele>
        <time>2020-07-29T09:48:35.034Z</time>
      </trkpt>
      <trkpt lat="42.90312" lon="0.16397">
        <ele>1899</ele>
        <time>2020-07-29T09:48:36.034Z</time>
      </trkpt>
      <trkpt lat="42.90311" lon="0.16394">
        <ele>1899</ele>
        <time>2020-07-29T09:48:37.034Z</time>
      </trkpt>
      <trkpt lat="42.9031" lon="0.1639">
        <ele>1899</ele>
        <time>2020-07-29T09:48:38.034Z</time>
      </trkpt>
      <trkpt lat="42.90308" lon="0.16386">
        <ele>1898</ele>
        <time>2020-07-29T09:48:39.034Z</time>
      </trkpt>
      <trkpt lat="42.90307" lon="0.16383">
        <ele>1898</ele>
        <time>2020-07-29T09:48:40.034Z</time>
      </trkpt>
      <trkpt lat="42.90306" lon="0.1638">
        <ele>1898</ele>
        <time>2020-07-29T09:48:41.034Z</time>
      </trkpt>
      <trkpt lat="42.90304" lon="0.16376">
        <ele>1898</ele>
        <time>2020-07-29T09:48:42.034Z</time>
      </trkpt>
      <trkpt lat="42.90302" lon="0.16373">
        <ele>1897</ele>
        <time>2020-07-29T09:48:43.034Z</time>
      </trkpt>
      <trkpt lat="42.90302" lon="0.16369">
        <ele>1895</ele>
        <time>2020-07-29T09:48:44.034Z</time>
      </trkpt>
      <trkpt lat="42.90302" lon="0.16366">
        <ele>1894</ele>
        <time>2020-07-29T09:48:45.034Z</time>
      </trkpt>
      <trkpt lat="42.90304" lon="0.16365">
        <ele>1891</ele>
        <time>2020-07-29T09:48:46.034Z</time>
      </trkpt>
      <trkpt lat="42.90306" lon="0.16366">
        <ele>1889</ele>
        <time>2020-07-29T09:48:47.034Z</time>
      </trkpt>
      <trkpt lat="42.90308" lon="0.16367">
        <ele>1888</ele>
        <time>2020-07-29T09:48:48.034Z</time>
      </trkpt>
      <trkpt lat="42.90312" lon="0.16368">
        <ele>1893</ele>
        <time>2020-07-29T09:48:50.022Z</time>
      </trkpt>
      <trkpt lat="42.90312" lon="0.16368">
        <ele>1892</ele>
        <time>2020-07-29T09:48:51.022Z</time>
      </trkpt>
      <trkpt lat="42.90313" lon="0.16367">
        <ele>1892</ele>
        <time>2020-07-29T09:48:52.022Z</time>
      </trkpt>
      <trkpt lat="42.90314" lon="0.16367">
        <ele>1892</ele>
        <time>2020-07-29T09:48:53.022Z</time>
      </trkpt>
      <trkpt lat="42.90316" lon="0.16367">
        <ele>1893</ele>
        <time>2020-07-29T09:48:54.022Z</time>
      </trkpt>
      <trkpt lat="42.90318" lon="0.16368">
        <ele>1893</ele>
        <time>2020-07-29T09:48:55.022Z</time>
      </trkpt>
      <trkpt lat="42.9032" lon="0.1637">
        <ele>1893</ele>
        <time>2020-07-29T09:48:56.022Z</time>
      </trkpt>
      <trkpt lat="42.90323" lon="0.16371">
        <ele>1892</ele>
        <time>2020-07-29T09:48:57.022Z</time>
      </trkpt>
      <trkpt lat="42.90325" lon="0.16372">
        <ele>1891</ele>
        <time>2020-07-29T09:48:58.022Z</time>
      </trkpt>
      <trkpt lat="42.90327" lon="0.16373">
        <ele>1891</ele>
        <time>2020-07-29T09:48:59.022Z</time>
      </trkpt>
      <trkpt lat="42.9033" lon="0.16374">
        <ele>1890</ele>
        <time>2020-07-29T09:49:00.022Z</time>
      </trkpt>
      <trkpt lat="42.90332" lon="0.16375">
        <ele>1889</ele>
        <time>2020-07-29T09:49:01.022Z</time>
      </trkpt>
      <trkpt lat="42.90334" lon="0.16376">
        <ele>1889</ele>
        <time>2020-07-29T09:49:02.022Z</time>
      </trkpt>
      <trkpt lat="42.90337" lon="0.16377">
        <ele>1888</ele>
        <time>2020-07-29T09:49:03.022Z</time>
      </trkpt>
      <trkpt lat="42.90339" lon="0.16379">
        <ele>1887</ele>
        <time>2020-07-29T09:49:04.022Z</time>
      </trkpt>
      <trkpt lat="42.90342" lon="0.16381">
        <ele>1886</ele>
        <time>2020-07-29T09:49:05.022Z</time>
      </trkpt>
      <trkpt lat="42.90344" lon="0.16383">
        <ele>1885</ele>
        <time>2020-07-29T09:49:06.022Z</time>
      </trkpt>
      <trkpt lat="42.90346" lon="0.16385">
        <ele>1885</ele>
        <time>2020-07-29T09:49:07.022Z</time>
      </trkpt>
      <trkpt lat="42.90348" lon="0.16387">
        <ele>1884</ele>
        <time>2020-07-29T09:49:08.022Z</time>
      </trkpt>
      <trkpt lat="42.9035" lon="0.16388">
        <ele>1883</ele>
        <time>2020-07-29T09:49:09.022Z</time>
      </trkpt>
      <trkpt lat="42.90353" lon="0.1639">
        <ele>1883</ele>
        <time>2020-07-29T09:49:10.022Z</time>
      </trkpt>
      <trkpt lat="42.90355" lon="0.16392">
        <ele>1883</ele>
        <time>2020-07-29T09:49:11.022Z</time>
      </trkpt>
      <trkpt lat="42.90358" lon="0.16394">
        <ele>1882</ele>
        <time>2020-07-29T09:49:12.022Z</time>
      </trkpt>
      <trkpt lat="42.9036" lon="0.16396">
        <ele>1882</ele>
        <time>2020-07-29T09:49:13.022Z</time>
      </trkpt>
      <trkpt lat="42.90362" lon="0.16398">
        <ele>1881</ele>
        <time>2020-07-29T09:49:14.022Z</time>
      </trkpt>
      <trkpt lat="42.90364" lon="0.164">
        <ele>1880</ele>
        <time>2020-07-29T09:49:15.022Z</time>
      </trkpt>
      <trkpt lat="42.90366" lon="0.16403">
        <ele>1880</ele>
        <time>2020-07-29T09:49:16.022Z</time>
      </trkpt>
      <trkpt lat="42.90368" lon="0.16405">
        <ele>1879</ele>
        <time>2020-07-29T09:49:17.022Z</time>
      </trkpt>
      <trkpt lat="42.90371" lon="0.16407">
        <ele>1878</ele>
        <time>2020-07-29T09:49:18.022Z</time>
      </trkpt>
      <trkpt lat="42.90373" lon="0.16409">
        <ele>1878</ele>
        <time>2020-07-29T09:49:19.022Z</time>
      </trkpt>
      <trkpt lat="42.90375" lon="0.16412">
        <ele>1877</ele>
        <time>2020-07-29T09:49:20.022Z</time>
      </trkpt>
      <trkpt lat="42.90377" lon="0.16415">
        <ele>1876</ele>
        <time>2020-07-29T09:49:21.022Z</time>
      </trkpt>
      <trkpt lat="42.90379" lon="0.16417">
        <ele>1876</ele>
        <time>2020-07-29T09:49:22.022Z</time>
      </trkpt>
      <trkpt lat="42.90381" lon="0.16419">
        <ele>1876</ele>
        <time>2020-07-29T09:49:23.022Z</time>
      </trkpt>
      <trkpt lat="42.90384" lon="0.16421">
        <ele>1875</ele>
        <time>2020-07-29T09:49:24.022Z</time>
      </trkpt>
      <trkpt lat="42.90387" lon="0.16424">
        <ele>1874</ele>
        <time>2020-07-29T09:49:25.022Z</time>
      </trkpt>
      <trkpt lat="42.90389" lon="0.16426">
        <ele>1873</ele>
        <time>2020-07-29T09:49:26.022Z</time>
      </trkpt>
      <trkpt lat="42.90392" lon="0.16428">
        <ele>1873</ele>
        <time>2020-07-29T09:49:27.022Z</time>
      </trkpt>
      <trkpt lat="42.90394" lon="0.16431">
        <ele>1871</ele>
        <time>2020-07-29T09:49:28.022Z</time>
      </trkpt>
      <trkpt lat="42.90396" lon="0.16433">
        <ele>1870</ele>
        <time>2020-07-29T09:49:29.022Z</time>
      </trkpt>
      <trkpt lat="42.90399" lon="0.16436">
        <ele>1870</ele>
        <time>2020-07-29T09:49:30.022Z</time>
      </trkpt>
      <trkpt lat="42.90401" lon="0.16439">
        <ele>1868</ele>
        <time>2020-07-29T09:49:31.022Z</time>
      </trkpt>
      <trkpt lat="42.90404" lon="0.16442">
        <ele>1867</ele>
        <time>2020-07-29T09:49:32.022Z</time>
      </trkpt>
      <trkpt lat="42.90406" lon="0.16445">
        <ele>1867</ele>
        <time>2020-07-29T09:49:33.022Z</time>
      </trkpt>
      <trkpt lat="42.90408" lon="0.16448">
        <ele>1866</ele>
        <time>2020-07-29T09:49:34.022Z</time>
      </trkpt>
      <trkpt lat="42.90411" lon="0.16451">
        <ele>1866</ele>
        <time>2020-07-29T09:49:35.022Z</time>
      </trkpt>
      <trkpt lat="42.90413" lon="0.16454">
        <ele>1866</ele>
        <time>2020-07-29T09:49:36.022Z</time>
      </trkpt>
      <trkpt lat="42.90415" lon="0.16458">
        <ele>1865</ele>
        <time>2020-07-29T09:49:37.022Z</time>
      </trkpt>
      <trkpt lat="42.90418" lon="0.16461">
        <ele>1864</ele>
        <time>2020-07-29T09:49:38.022Z</time>
      </trkpt>
      <trkpt lat="42.90419" lon="0.16465">
        <ele>1864</ele>
        <time>2020-07-29T09:49:39.022Z</time>
      </trkpt>
      <trkpt lat="42.90421" lon="0.16469">
        <ele>1864</ele>
        <time>2020-07-29T09:49:40.022Z</time>
      </trkpt>
      <trkpt lat="42.90422" lon="0.16473">
        <ele>1863</ele>
        <time>2020-07-29T09:49:41.022Z</time>
      </trkpt>
      <trkpt lat="42.90423" lon="0.16478">
        <ele>1863</ele>
        <time>2020-07-29T09:49:42.022Z</time>
      </trkpt>
      <trkpt lat="42.90424" lon="0.16482">
        <ele>1863</ele>
        <time>2020-07-29T09:49:43.022Z</time>
      </trkpt>
      <trkpt lat="42.90425" lon="0.16486">
        <ele>1863</ele>
        <time>2020-07-29T09:49:44.022Z</time>
      </trkpt>
      <trkpt lat="42.90426" lon="0.1649">
        <ele>1863</ele>
        <time>2020-07-29T09:49:45.022Z</time>
      </trkpt>
      <trkpt lat="42.90427" lon="0.16493">
        <ele>1862</ele>
        <time>2020-07-29T09:49:46.022Z</time>
      </trkpt>
      <trkpt lat="42.90428" lon="0.16497">
        <ele>1862</ele>
        <time>2020-07-29T09:49:47.022Z</time>
      </trkpt>
      <trkpt lat="42.90429" lon="0.16501">
        <ele>1862</ele>
        <time>2020-07-29T09:49:48.022Z</time>
      </trkpt>
      <trkpt lat="42.9043" lon="0.16504">
        <ele>1863</ele>
        <time>2020-07-29T09:49:49.022Z</time>
      </trkpt>
      <trkpt lat="42.9043" lon="0.16507">
        <ele>1863</ele>
        <time>2020-07-29T09:49:50.022Z</time>
      </trkpt>
      <trkpt lat="42.9043" lon="0.1651">
        <ele>1864</ele>
        <time>2020-07-29T09:49:51.022Z</time>
      </trkpt>
      <trkpt lat="42.90431" lon="0.16513">
        <ele>1864</ele>
        <time>2020-07-29T09:49:52.022Z</time>
      </trkpt>
      <trkpt lat="42.90431" lon="0.16516">
        <ele>1865</ele>
        <time>2020-07-29T09:49:53.022Z</time>
      </trkpt>
      <trkpt lat="42.90432" lon="0.16519">
        <ele>1865</ele>
        <time>2020-07-29T09:49:54.022Z</time>
      </trkpt>
      <trkpt lat="42.90433" lon="0.16522">
        <ele>1865</ele>
        <time>2020-07-29T09:49:55.022Z</time>
      </trkpt>
      <trkpt lat="42.90433" lon="0.16525">
        <ele>1865</ele>
        <time>2020-07-29T09:49:56.022Z</time>
      </trkpt>
      <trkpt lat="42.90434" lon="0.16528">
        <ele>1866</ele>
        <time>2020-07-29T09:49:57.022Z</time>
      </trkpt>
      <trkpt lat="42.90435" lon="0.16531">
        <ele>1866</ele>
        <time>2020-07-29T09:49:58.022Z</time>
      </trkpt>
      <trkpt lat="42.90436" lon="0.16534">
        <ele>1866</ele>
        <time>2020-07-29T09:49:59.022Z</time>
      </trkpt>
      <trkpt lat="42.90437" lon="0.16537">
        <ele>1867</ele>
        <time>2020-07-29T09:50:00.022Z</time>
      </trkpt>
      <trkpt lat="42.90438" lon="0.1654">
        <ele>1867</ele>
        <time>2020-07-29T09:50:01.022Z</time>
      </trkpt>
      <trkpt lat="42.90439" lon="0.16543">
        <ele>1867</ele>
        <time>2020-07-29T09:50:02.022Z</time>
      </trkpt>
      <trkpt lat="42.9044" lon="0.16546">
        <ele>1867</ele>
        <time>2020-07-29T09:50:03.022Z</time>
      </trkpt>
      <trkpt lat="42.90441" lon="0.16549">
        <ele>1867</ele>
        <time>2020-07-29T09:50:04.022Z</time>
      </trkpt>
      <trkpt lat="42.90442" lon="0.16552">
        <ele>1867</ele>
        <time>2020-07-29T09:50:05.022Z</time>
      </trkpt>
      <trkpt lat="42.90443" lon="0.16553">
        <ele>1867</ele>
        <time>2020-07-29T09:50:06.022Z</time>
      </trkpt>
      <trkpt lat="42.90444" lon="0.16554">
        <ele>1866</ele>
        <time>2020-07-29T09:50:07.022Z</time>
      </trkpt>
      <trkpt lat="42.90445" lon="0.16555">
        <ele>1865</ele>
        <time>2020-07-29T09:50:08.022Z</time>
      </trkpt>
      <trkpt lat="42.90446" lon="0.16556">
        <ele>1865</ele>
        <time>2020-07-29T09:50:09.022Z</time>
      </trkpt>
      <trkpt lat="42.90448" lon="0.16557">
        <ele>1864</ele>
        <time>2020-07-29T09:50:10.022Z</time>
      </trkpt>
      <trkpt lat="42.90449" lon="0.16557">
        <ele>1863</ele>
        <time>2020-07-29T09:50:11.022Z</time>
      </trkpt>
      <trkpt lat="42.90451" lon="0.16557">
        <ele>1863</ele>
        <time>2020-07-29T09:50:12.022Z</time>
      </trkpt>
      <trkpt lat="42.90452" lon="0.16557">
        <ele>1862</ele>
        <time>2020-07-29T09:50:13.022Z</time>
      </trkpt>
      <trkpt lat="42.90454" lon="0.16557">
        <ele>1861</ele>
        <time>2020-07-29T09:50:14.022Z</time>
      </trkpt>
      <trkpt lat="42.90455" lon="0.16556">
        <ele>1860</ele>
        <time>2020-07-29T09:50:15.022Z</time>
      </trkpt>
      <trkpt lat="42.90456" lon="0.16555">
        <ele>1859</ele>
        <time>2020-07-29T09:50:16.022Z</time>
      </trkpt>
      <trkpt lat="42.90457" lon="0.16553">
        <ele>1858</ele>
        <time>2020-07-29T09:50:17.022Z</time>
      </trkpt>
      <trkpt lat="42.90459" lon="0.16554">
        <ele>1856</ele>
        <time>2020-07-29T09:50:18.022Z</time>
      </trkpt>
      <trkpt lat="42.90462" lon="0.16556">
        <ele>1855</ele>
        <time>2020-07-29T09:50:19.022Z</time>
      </trkpt>
      <trkpt lat="42.90464" lon="0.16559">
        <ele>1854</ele>
        <time>2020-07-29T09:50:20.022Z</time>
      </trkpt>
      <trkpt lat="42.90466" lon="0.16562">
        <ele>1854</ele>
        <time>2020-07-29T09:50:21.022Z</time>
      </trkpt>
      <trkpt lat="42.90468" lon="0.16564">
        <ele>1853</ele>
        <time>2020-07-29T09:50:22.022Z</time>
      </trkpt>
      <trkpt lat="42.9047" lon="0.16565">
        <ele>1852</ele>
        <time>2020-07-29T09:50:23.022Z</time>
      </trkpt>
      <trkpt lat="42.90472" lon="0.16567">
        <ele>1851</ele>
        <time>2020-07-29T09:50:24.022Z</time>
      </trkpt>
      <trkpt lat="42.90474" lon="0.16568">
        <ele>1850</ele>
        <time>2020-07-29T09:50:25.022Z</time>
      </trkpt>
      <trkpt lat="42.90476" lon="0.16568">
        <ele>1849</ele>
        <time>2020-07-29T09:50:26.022Z</time>
      </trkpt>
      <trkpt lat="42.90479" lon="0.16568">
        <ele>1848</ele>
        <time>2020-07-29T09:50:27.022Z</time>
      </trkpt>
      <trkpt lat="42.90481" lon="0.16568">
        <ele>1848</ele>
        <time>2020-07-29T09:50:28.022Z</time>
      </trkpt>
      <trkpt lat="42.90484" lon="0.16568">
        <ele>1847</ele>
        <time>2020-07-29T09:50:29.022Z</time>
      </trkpt>
      <trkpt lat="42.90487" lon="0.16569">
        <ele>1846</ele>
        <time>2020-07-29T09:50:30.022Z</time>
      </trkpt>
      <trkpt lat="42.90489" lon="0.16569">
        <ele>1846</ele>
        <time>2020-07-29T09:50:31.022Z</time>
      </trkpt>
      <trkpt lat="42.90492" lon="0.1657">
        <ele>1846</ele>
        <time>2020-07-29T09:50:32.022Z</time>
      </trkpt>
      <trkpt lat="42.90494" lon="0.1657">
        <ele>1846</ele>
        <time>2020-07-29T09:50:33.022Z</time>
      </trkpt>
      <trkpt lat="42.90497" lon="0.16571">
        <ele>1845</ele>
        <time>2020-07-29T09:50:34.022Z</time>
      </trkpt>
      <trkpt lat="42.90499" lon="0.16572">
        <ele>1845</ele>
        <time>2020-07-29T09:50:35.022Z</time>
      </trkpt>
      <trkpt lat="42.90502" lon="0.16573">
        <ele>1844</ele>
        <time>2020-07-29T09:50:36.022Z</time>
      </trkpt>
      <trkpt lat="42.90505" lon="0.16574">
        <ele>1844</ele>
        <time>2020-07-29T09:50:37.022Z</time>
      </trkpt>
      <trkpt lat="42.90507" lon="0.16574">
        <ele>1843</ele>
        <time>2020-07-29T09:50:38.022Z</time>
      </trkpt>
      <trkpt lat="42.90509" lon="0.16573">
        <ele>1841</ele>
        <time>2020-07-29T09:50:39.022Z</time>
      </trkpt>
      <trkpt lat="42.90511" lon="0.16571">
        <ele>1840</ele>
        <time>2020-07-29T09:50:40.022Z</time>
      </trkpt>
      <trkpt lat="42.90512" lon="0.16567">
        <ele>1840</ele>
        <time>2020-07-29T09:50:41.022Z</time>
      </trkpt>
      <trkpt lat="42.90513" lon="0.16563">
        <ele>1840</ele>
        <time>2020-07-29T09:50:42.022Z</time>
      </trkpt>
      <trkpt lat="42.90513" lon="0.16559">
        <ele>1840</ele>
        <time>2020-07-29T09:50:43.022Z</time>
      </trkpt>
      <trkpt lat="42.90514" lon="0.16555">
        <ele>1839</ele>
        <time>2020-07-29T09:50:44.022Z</time>
      </trkpt>
      <trkpt lat="42.90514" lon="0.16551">
        <ele>1839</ele>
        <time>2020-07-29T09:50:45.022Z</time>
      </trkpt>
      <trkpt lat="42.90515" lon="0.16548">
        <ele>1837</ele>
        <time>2020-07-29T09:50:46.022Z</time>
      </trkpt>
      <trkpt lat="42.90517" lon="0.16544">
        <ele>1837</ele>
        <time>2020-07-29T09:50:47.022Z</time>
      </trkpt>
      <trkpt lat="42.90518" lon="0.16541">
        <ele>1836</ele>
        <time>2020-07-29T09:50:48.022Z</time>
      </trkpt>
      <trkpt lat="42.90519" lon="0.16538">
        <ele>1836</ele>
        <time>2020-07-29T09:50:49.022Z</time>
      </trkpt>
      <trkpt lat="42.90521" lon="0.16535">
        <ele>1836</ele>
        <time>2020-07-29T09:50:50.022Z</time>
      </trkpt>
      <trkpt lat="42.90523" lon="0.16533">
        <ele>1834</ele>
        <time>2020-07-29T09:50:51.022Z</time>
      </trkpt>
      <trkpt lat="42.90525" lon="0.16531">
        <ele>1833</ele>
        <time>2020-07-29T09:50:52.022Z</time>
      </trkpt>
      <trkpt lat="42.90528" lon="0.1653">
        <ele>1830</ele>
        <time>2020-07-29T09:50:53.022Z</time>
      </trkpt>
      <trkpt lat="42.90531" lon="0.1653">
        <ele>1828</ele>
        <time>2020-07-29T09:50:54.022Z</time>
      </trkpt>
      <trkpt lat="42.90534" lon="0.16531">
        <ele>1825</ele>
        <time>2020-07-29T09:50:55.022Z</time>
      </trkpt>
      <trkpt lat="42.90536" lon="0.16532">
        <ele>1824</ele>
        <time>2020-07-29T09:50:56.022Z</time>
      </trkpt>
      <trkpt lat="42.90539" lon="0.16534">
        <ele>1823</ele>
        <time>2020-07-29T09:50:57.022Z</time>
      </trkpt>
      <trkpt lat="42.90541" lon="0.16536">
        <ele>1822</ele>
        <time>2020-07-29T09:50:58.022Z</time>
      </trkpt>
      <trkpt lat="42.90543" lon="0.16538">
        <ele>1822</ele>
        <time>2020-07-29T09:50:59.022Z</time>
      </trkpt>
      <trkpt lat="42.90545" lon="0.16542">
        <ele>1822</ele>
        <time>2020-07-29T09:51:00.022Z</time>
      </trkpt>
      <trkpt lat="42.90547" lon="0.16546">
        <ele>1822</ele>
        <time>2020-07-29T09:51:01.022Z</time>
      </trkpt>
      <trkpt lat="42.90549" lon="0.1655">
        <ele>1823</ele>
        <time>2020-07-29T09:51:02.022Z</time>
      </trkpt>
      <trkpt lat="42.90551" lon="0.16553">
        <ele>1822</ele>
        <time>2020-07-29T09:51:03.022Z</time>
      </trkpt>
      <trkpt lat="42.90552" lon="0.16556">
        <ele>1822</ele>
        <time>2020-07-29T09:51:04.022Z</time>
      </trkpt>
      <trkpt lat="42.90554" lon="0.16559">
        <ele>1822</ele>
        <time>2020-07-29T09:51:05.022Z</time>
      </trkpt>
      <trkpt lat="42.90555" lon="0.16562">
        <ele>1821</ele>
        <time>2020-07-29T09:51:06.022Z</time>
      </trkpt>
      <trkpt lat="42.90557" lon="0.16565">
        <ele>1821</ele>
        <time>2020-07-29T09:51:07.022Z</time>
      </trkpt>
      <trkpt lat="42.90559" lon="0.16568">
        <ele>1821</ele>
        <time>2020-07-29T09:51:08.022Z</time>
      </trkpt>
      <trkpt lat="42.9056" lon="0.16571">
        <ele>1821</ele>
        <time>2020-07-29T09:51:09.022Z</time>
      </trkpt>
      <trkpt lat="42.90562" lon="0.16574">
        <ele>1820</ele>
        <time>2020-07-29T09:51:10.022Z</time>
      </trkpt>
      <trkpt lat="42.90564" lon="0.16577">
        <ele>1819</ele>
        <time>2020-07-29T09:51:11.022Z</time>
      </trkpt>
      <trkpt lat="42.90565" lon="0.1658">
        <ele>1819</ele>
        <time>2020-07-29T09:51:12.022Z</time>
      </trkpt>
      <trkpt lat="42.90567" lon="0.16583">
        <ele>1819</ele>
        <time>2020-07-29T09:51:13.022Z</time>
      </trkpt>
      <trkpt lat="42.90569" lon="0.16586">
        <ele>1818</ele>
        <time>2020-07-29T09:51:14.022Z</time>
      </trkpt>
      <trkpt lat="42.90571" lon="0.16589">
        <ele>1817</ele>
        <time>2020-07-29T09:51:15.022Z</time>
      </trkpt>
      <trkpt lat="42.90573" lon="0.16592">
        <ele>1817</ele>
        <time>2020-07-29T09:51:16.022Z</time>
      </trkpt>
      <trkpt lat="42.90575" lon="0.16595">
        <ele>1815</ele>
        <time>2020-07-29T09:51:17.022Z</time>
      </trkpt>
      <trkpt lat="42.90577" lon="0.16597">
        <ele>1814</ele>
        <time>2020-07-29T09:51:18.022Z</time>
      </trkpt>
      <trkpt lat="42.90579" lon="0.16599">
        <ele>1813</ele>
        <time>2020-07-29T09:51:19.022Z</time>
      </trkpt>
      <trkpt lat="42.90581" lon="0.16601">
        <ele>1813</ele>
        <time>2020-07-29T09:51:20.022Z</time>
      </trkpt>
      <trkpt lat="42.90583" lon="0.16603">
        <ele>1812</ele>
        <time>2020-07-29T09:51:21.022Z</time>
      </trkpt>
      <trkpt lat="42.90585" lon="0.16606">
        <ele>1812</ele>
        <time>2020-07-29T09:51:22.022Z</time>
      </trkpt>
      <trkpt lat="42.90587" lon="0.16609">
        <ele>1812</ele>
        <time>2020-07-29T09:51:23.022Z</time>
      </trkpt>
      <trkpt lat="42.90588" lon="0.16611">
        <ele>1813</ele>
        <time>2020-07-29T09:51:24.022Z</time>
      </trkpt>
      <trkpt lat="42.9059" lon="0.16613">
        <ele>1813</ele>
        <time>2020-07-29T09:51:25.022Z</time>
      </trkpt>
      <trkpt lat="42.90591" lon="0.16615">
        <ele>1813</ele>
        <time>2020-07-29T09:51:26.022Z</time>
      </trkpt>
      <trkpt lat="42.90591" lon="0.16616">
        <ele>1812</ele>
        <time>2020-07-29T09:51:27.022Z</time>
      </trkpt>
      <trkpt lat="42.90592" lon="0.16618">
        <ele>1813</ele>
        <time>2020-07-29T09:51:28.022Z</time>
      </trkpt>
      <trkpt lat="42.90592" lon="0.16619">
        <ele>1813</ele>
        <time>2020-07-29T09:51:29.022Z</time>
      </trkpt>
      <trkpt lat="42.90593" lon="0.1662">
        <ele>1812</ele>
        <time>2020-07-29T09:51:30.022Z</time>
      </trkpt>
      <trkpt lat="42.90593" lon="0.16621">
        <ele>1811</ele>
        <time>2020-07-29T09:51:31.022Z</time>
      </trkpt>
      <trkpt lat="42.90594" lon="0.16622">
        <ele>1810</ele>
        <time>2020-07-29T09:51:32.022Z</time>
      </trkpt>
      <trkpt lat="42.90595" lon="0.16624">
        <ele>1809</ele>
        <time>2020-07-29T09:51:33.022Z</time>
      </trkpt>
      <trkpt lat="42.90596" lon="0.16627">
        <ele>1808</ele>
        <time>2020-07-29T09:51:34.022Z</time>
      </trkpt>
      <trkpt lat="42.90597" lon="0.16629">
        <ele>1807</ele>
        <time>2020-07-29T09:51:35.022Z</time>
      </trkpt>
      <trkpt lat="42.90598" lon="0.16631">
        <ele>1807</ele>
        <time>2020-07-29T09:51:36.022Z</time>
      </trkpt>
      <trkpt lat="42.90599" lon="0.16631">
        <ele>1806</ele>
        <time>2020-07-29T09:51:37.022Z</time>
      </trkpt>
      <trkpt lat="42.90599" lon="0.16631">
        <ele>1805</ele>
        <time>2020-07-29T09:51:38.022Z</time>
      </trkpt>
      <trkpt lat="42.906" lon="0.16631">
        <ele>1804</ele>
        <time>2020-07-29T09:51:39.022Z</time>
      </trkpt>
      <trkpt lat="42.906" lon="0.1663">
        <ele>1804</ele>
        <time>2020-07-29T09:51:40.022Z</time>
      </trkpt>
      <trkpt lat="42.906" lon="0.16629">
        <ele>1804</ele>
        <time>2020-07-29T09:51:41.022Z</time>
      </trkpt>
      <trkpt lat="42.906" lon="0.16629">
        <ele>1804</ele>
        <time>2020-07-29T09:51:42.022Z</time>
      </trkpt>
      <trkpt lat="42.90601" lon="0.16629">
        <ele>1804</ele>
        <time>2020-07-29T09:51:43.022Z</time>
      </trkpt>
      <trkpt lat="42.90602" lon="0.16629">
        <ele>1803</ele>
        <time>2020-07-29T09:51:44.022Z</time>
      </trkpt>
      <trkpt lat="42.90602" lon="0.16629">
        <ele>1804</ele>
        <time>2020-07-29T09:51:45.022Z</time>
      </trkpt>
      <trkpt lat="42.90602" lon="0.16629">
        <ele>1804</ele>
        <time>2020-07-29T09:51:46.022Z</time>
      </trkpt>
      <trkpt lat="42.90602" lon="0.16629">
        <ele>1805</ele>
        <time>2020-07-29T09:51:47.022Z</time>
      </trkpt>
      <trkpt lat="42.90601" lon="0.16629">
        <ele>1805</ele>
        <time>2020-07-29T09:51:48.022Z</time>
      </trkpt>
      <trkpt lat="42.90601" lon="0.16628">
        <ele>1805</ele>
        <time>2020-07-29T09:51:49.022Z</time>
      </trkpt>
      <trkpt lat="42.90601" lon="0.16628">
        <ele>1805</ele>
        <time>2020-07-29T09:51:50.022Z</time>
      </trkpt>
      <trkpt lat="42.90601" lon="0.16629">
        <ele>1805</ele>
        <time>2020-07-29T09:51:51.022Z</time>
      </trkpt>
      <trkpt lat="42.90601" lon="0.16629">
        <ele>1805</ele>
        <time>2020-07-29T09:51:52.022Z</time>
      </trkpt>
      <trkpt lat="42.90601" lon="0.16629">
        <ele>1805</ele>
        <time>2020-07-29T09:51:53.022Z</time>
      </trkpt>
      <trkpt lat="42.90601" lon="0.16629">
        <ele>1805</ele>
        <time>2020-07-29T09:51:54.022Z</time>
      </trkpt>
      <trkpt lat="42.90601" lon="0.16628">
        <ele>1806</ele>
        <time>2020-07-29T09:51:55.022Z</time>
      </trkpt>
      <trkpt lat="42.90601" lon="0.16628">
        <ele>1806</ele>
        <time>2020-07-29T09:51:56.022Z</time>
      </trkpt>
      <trkpt lat="42.90601" lon="0.16628">
        <ele>1806</ele>
        <time>2020-07-29T09:51:57.022Z</time>
      </trkpt>
      <trkpt lat="42.90601" lon="0.16628">
        <ele>1806</ele>
        <time>2020-07-29T09:51:58.022Z</time>
      </trkpt>
      <trkpt lat="42.90601" lon="0.16628">
        <ele>1805</ele>
        <time>2020-07-29T09:51:59.022Z</time>
      </trkpt>
      <trkpt lat="42.90602" lon="0.16626">
        <ele>1805</ele>
        <time>2020-07-29T09:52:00.022Z</time>
      </trkpt>
      <trkpt lat="42.90602" lon="0.16625">
        <ele>1805</ele>
        <time>2020-07-29T09:52:01.022Z</time>
      </trkpt>
      <trkpt lat="42.90602" lon="0.16623">
        <ele>1805</ele>
        <time>2020-07-29T09:52:02.022Z</time>
      </trkpt>
      <trkpt lat="42.90603" lon="0.16622">
        <ele>1805</ele>
        <time>2020-07-29T09:52:03.022Z</time>
      </trkpt>
      <trkpt lat="42.90603" lon="0.16621">
        <ele>1805</ele>
        <time>2020-07-29T09:52:04.022Z</time>
      </trkpt>
      <trkpt lat="42.90604" lon="0.1662">
        <ele>1805</ele>
        <time>2020-07-29T09:52:05.022Z</time>
      </trkpt>
      <trkpt lat="42.90605" lon="0.1662">
        <ele>1805</ele>
        <time>2020-07-29T09:52:06.022Z</time>
      </trkpt>
      <trkpt lat="42.90605" lon="0.1662">
        <ele>1805</ele>
        <time>2020-07-29T09:52:07.022Z</time>
      </trkpt>
      <trkpt lat="42.90606" lon="0.1662">
        <ele>1806</ele>
        <time>2020-07-29T09:52:08.022Z</time>
      </trkpt>
      <trkpt lat="42.90606" lon="0.1662">
        <ele>1806</ele>
        <time>2020-07-29T09:52:09.022Z</time>
      </trkpt>
      <trkpt lat="42.90606" lon="0.1662">
        <ele>1806</ele>
        <time>2020-07-29T09:52:10.022Z</time>
      </trkpt>
      <trkpt lat="42.90606" lon="0.16619">
        <ele>1806</ele>
        <time>2020-07-29T09:52:11.022Z</time>
      </trkpt>
      <trkpt lat="42.90605" lon="0.16617">
        <ele>1806</ele>
        <time>2020-07-29T09:52:12.022Z</time>
      </trkpt>
      <trkpt lat="42.90605" lon="0.16613">
        <ele>1806</ele>
        <time>2020-07-29T09:52:13.022Z</time>
      </trkpt>
      <trkpt lat="42.90605" lon="0.1661">
        <ele>1806</ele>
        <time>2020-07-29T09:52:14.022Z</time>
      </trkpt>
      <trkpt lat="42.90603" lon="0.16606">
        <ele>1806</ele>
        <time>2020-07-29T09:52:15.022Z</time>
      </trkpt>
      <trkpt lat="42.90603" lon="0.16603">
        <ele>1806</ele>
        <time>2020-07-29T09:52:16.022Z</time>
      </trkpt>
      <trkpt lat="42.90602" lon="0.16599">
        <ele>1806</ele>
        <time>2020-07-29T09:52:17.022Z</time>
      </trkpt>
      <trkpt lat="42.90602" lon="0.16596">
        <ele>1805</ele>
        <time>2020-07-29T09:52:18.022Z</time>
      </trkpt>
      <trkpt lat="42.90603" lon="0.16592">
        <ele>1805</ele>
        <time>2020-07-29T09:52:19.022Z</time>
      </trkpt>
      <trkpt lat="42.90603" lon="0.16588">
        <ele>1804</ele>
        <time>2020-07-29T09:52:20.022Z</time>
      </trkpt>
      <trkpt lat="42.90603" lon="0.16584">
        <ele>1804</ele>
        <time>2020-07-29T09:52:21.022Z</time>
      </trkpt>
      <trkpt lat="42.90604" lon="0.16581">
        <ele>1804</ele>
        <time>2020-07-29T09:52:22.022Z</time>
      </trkpt>
      <trkpt lat="42.90604" lon="0.16577">
        <ele>1803</ele>
        <time>2020-07-29T09:52:23.022Z</time>
      </trkpt>
      <trkpt lat="42.90605" lon="0.16573">
        <ele>1803</ele>
        <time>2020-07-29T09:52:24.022Z</time>
      </trkpt>
      <trkpt lat="42.90606" lon="0.16569">
        <ele>1803</ele>
        <time>2020-07-29T09:52:25.022Z</time>
      </trkpt>
      <trkpt lat="42.90606" lon="0.16565">
        <ele>1802</ele>
        <time>2020-07-29T09:52:26.022Z</time>
      </trkpt>
      <trkpt lat="42.90607" lon="0.16561">
        <ele>1801</ele>
        <time>2020-07-29T09:52:27.022Z</time>
      </trkpt>
      <trkpt lat="42.90608" lon="0.16557">
        <ele>1801</ele>
        <time>2020-07-29T09:52:28.022Z</time>
      </trkpt>
      <trkpt lat="42.90608" lon="0.16554">
        <ele>1802</ele>
        <time>2020-07-29T09:52:29.022Z</time>
      </trkpt>
      <trkpt lat="42.90608" lon="0.1655">
        <ele>1802</ele>
        <time>2020-07-29T09:52:30.022Z</time>
      </trkpt>
      <trkpt lat="42.90609" lon="0.16546">
        <ele>1802</ele>
        <time>2020-07-29T09:52:31.022Z</time>
      </trkpt>
      <trkpt lat="42.9061" lon="0.16542">
        <ele>1802</ele>
        <time>2020-07-29T09:52:32.022Z</time>
      </trkpt>
      <trkpt lat="42.9061" lon="0.16538">
        <ele>1801</ele>
        <time>2020-07-29T09:52:33.022Z</time>
      </trkpt>
      <trkpt lat="42.90611" lon="0.16534">
        <ele>1801</ele>
        <time>2020-07-29T09:52:34.022Z</time>
      </trkpt>
      <trkpt lat="42.90612" lon="0.1653">
        <ele>1801</ele>
        <time>2020-07-29T09:52:35.022Z</time>
      </trkpt>
      <trkpt lat="42.90612" lon="0.16526">
        <ele>1801</ele>
        <time>2020-07-29T09:52:36.022Z</time>
      </trkpt>
      <trkpt lat="42.90613" lon="0.16522">
        <ele>1801</ele>
        <time>2020-07-29T09:52:37.022Z</time>
      </trkpt>
      <trkpt lat="42.90613" lon="0.16518">
        <ele>1801</ele>
        <time>2020-07-29T09:52:38.022Z</time>
      </trkpt>
      <trkpt lat="42.90614" lon="0.16514">
        <ele>1801</ele>
        <time>2020-07-29T09:52:39.022Z</time>
      </trkpt>
      <trkpt lat="42.90614" lon="0.1651">
        <ele>1801</ele>
        <time>2020-07-29T09:52:40.022Z</time>
      </trkpt>
      <trkpt lat="42.90614" lon="0.16506">
        <ele>1800</ele>
        <time>2020-07-29T09:52:41.022Z</time>
      </trkpt>
      <trkpt lat="42.90614" lon="0.16502">
        <ele>1800</ele>
        <time>2020-07-29T09:52:42.022Z</time>
      </trkpt>
      <trkpt lat="42.90615" lon="0.16498">
        <ele>1800</ele>
        <time>2020-07-29T09:52:43.022Z</time>
      </trkpt>
      <trkpt lat="42.90615" lon="0.16494">
        <ele>1800</ele>
        <time>2020-07-29T09:52:44.022Z</time>
      </trkpt>
      <trkpt lat="42.90616" lon="0.1649">
        <ele>1800</ele>
        <time>2020-07-29T09:52:45.022Z</time>
      </trkpt>
      <trkpt lat="42.90616" lon="0.16486">
        <ele>1800</ele>
        <time>2020-07-29T09:52:46.022Z</time>
      </trkpt>
      <trkpt lat="42.90617" lon="0.16482">
        <ele>1799</ele>
        <time>2020-07-29T09:52:47.022Z</time>
      </trkpt>
      <trkpt lat="42.90617" lon="0.16478">
        <ele>1799</ele>
        <time>2020-07-29T09:52:48.022Z</time>
      </trkpt>
      <trkpt lat="42.90618" lon="0.16474">
        <ele>1801</ele>
        <time>2020-07-29T09:52:49.022Z</time>
      </trkpt>
      <trkpt lat="42.90619" lon="0.16471">
        <ele>1800</ele>
        <time>2020-07-29T09:52:50.022Z</time>
      </trkpt>
      <trkpt lat="42.9062" lon="0.16469">
        <ele>1801</ele>
        <time>2020-07-29T09:52:51.022Z</time>
      </trkpt>
      <trkpt lat="42.90622" lon="0.16467">
        <ele>1799</ele>
        <time>2020-07-29T09:52:52.022Z</time>
      </trkpt>
      <trkpt lat="42.90624" lon="0.16466">
        <ele>1798</ele>
        <time>2020-07-29T09:52:53.022Z</time>
      </trkpt>
      <trkpt lat="42.90627" lon="0.16465">
        <ele>1797</ele>
        <time>2020-07-29T09:52:54.022Z</time>
      </trkpt>
      <trkpt lat="42.9063" lon="0.16465">
        <ele>1794</ele>
        <time>2020-07-29T09:52:55.022Z</time>
      </trkpt>
      <trkpt lat="42.90633" lon="0.16465">
        <ele>1792</ele>
        <time>2020-07-29T09:52:56.022Z</time>
      </trkpt>
      <trkpt lat="42.90635" lon="0.16466">
        <ele>1791</ele>
        <time>2020-07-29T09:52:57.022Z</time>
      </trkpt>
      <trkpt lat="42.90638" lon="0.16467">
        <ele>1789</ele>
        <time>2020-07-29T09:52:58.022Z</time>
      </trkpt>
      <trkpt lat="42.90641" lon="0.16469">
        <ele>1788</ele>
        <time>2020-07-29T09:52:59.022Z</time>
      </trkpt>
      <trkpt lat="42.90644" lon="0.16471">
        <ele>1787</ele>
        <time>2020-07-29T09:53:00.022Z</time>
      </trkpt>
      <trkpt lat="42.90646" lon="0.16472">
        <ele>1786</ele>
        <time>2020-07-29T09:53:01.022Z</time>
      </trkpt>
      <trkpt lat="42.90649" lon="0.16474">
        <ele>1786</ele>
        <time>2020-07-29T09:53:02.022Z</time>
      </trkpt>
      <trkpt lat="42.90652" lon="0.16475">
        <ele>1785</ele>
        <time>2020-07-29T09:53:03.022Z</time>
      </trkpt>
      <trkpt lat="42.90655" lon="0.16478">
        <ele>1784</ele>
        <time>2020-07-29T09:53:04.022Z</time>
      </trkpt>
      <trkpt lat="42.90658" lon="0.1648">
        <ele>1785</ele>
        <time>2020-07-29T09:53:05.022Z</time>
      </trkpt>
      <trkpt lat="42.9066" lon="0.16483">
        <ele>1784</ele>
        <time>2020-07-29T09:53:06.022Z</time>
      </trkpt>
      <trkpt lat="42.90663" lon="0.16486">
        <ele>1783</ele>
        <time>2020-07-29T09:53:07.022Z</time>
      </trkpt>
      <trkpt lat="42.90666" lon="0.16489">
        <ele>1782</ele>
        <time>2020-07-29T09:53:08.022Z</time>
      </trkpt>
      <trkpt lat="42.90669" lon="0.16492">
        <ele>1782</ele>
        <time>2020-07-29T09:53:09.022Z</time>
      </trkpt>
      <trkpt lat="42.90672" lon="0.16495">
        <ele>1782</ele>
        <time>2020-07-29T09:53:10.022Z</time>
      </trkpt>
      <trkpt lat="42.90674" lon="0.16497">
        <ele>1781</ele>
        <time>2020-07-29T09:53:11.022Z</time>
      </trkpt>
      <trkpt lat="42.90677" lon="0.165">
        <ele>1782</ele>
        <time>2020-07-29T09:53:12.022Z</time>
      </trkpt>
      <trkpt lat="42.9068" lon="0.16502">
        <ele>1782</ele>
        <time>2020-07-29T09:53:13.022Z</time>
      </trkpt>
      <trkpt lat="42.90682" lon="0.16504">
        <ele>1782</ele>
        <time>2020-07-29T09:53:14.022Z</time>
      </trkpt>
      <trkpt lat="42.90685" lon="0.16506">
        <ele>1782</ele>
        <time>2020-07-29T09:53:15.022Z</time>
      </trkpt>
      <trkpt lat="42.90687" lon="0.16508">
        <ele>1782</ele>
        <time>2020-07-29T09:53:16.022Z</time>
      </trkpt>
      <trkpt lat="42.9069" lon="0.16509">
        <ele>1782</ele>
        <time>2020-07-29T09:53:17.022Z</time>
      </trkpt>
      <trkpt lat="42.90692" lon="0.16511">
        <ele>1781</ele>
        <time>2020-07-29T09:53:18.022Z</time>
      </trkpt>
      <trkpt lat="42.90695" lon="0.16512">
        <ele>1781</ele>
        <time>2020-07-29T09:53:19.022Z</time>
      </trkpt>
      <trkpt lat="42.90697" lon="0.16513">
        <ele>1781</ele>
        <time>2020-07-29T09:53:20.022Z</time>
      </trkpt>
      <trkpt lat="42.907" lon="0.16515">
        <ele>1781</ele>
        <time>2020-07-29T09:53:21.022Z</time>
      </trkpt>
      <trkpt lat="42.90703" lon="0.16516">
        <ele>1781</ele>
        <time>2020-07-29T09:53:22.022Z</time>
      </trkpt>
      <trkpt lat="42.90705" lon="0.16517">
        <ele>1782</ele>
        <time>2020-07-29T09:53:23.022Z</time>
      </trkpt>
      <trkpt lat="42.90708" lon="0.16518">
        <ele>1782</ele>
        <time>2020-07-29T09:53:24.022Z</time>
      </trkpt>
      <trkpt lat="42.90711" lon="0.1652">
        <ele>1782</ele>
        <time>2020-07-29T09:53:25.022Z</time>
      </trkpt>
      <trkpt lat="42.90713" lon="0.16521">
        <ele>1783</ele>
        <time>2020-07-29T09:53:26.022Z</time>
      </trkpt>
      <trkpt lat="42.90716" lon="0.16522">
        <ele>1783</ele>
        <time>2020-07-29T09:53:27.022Z</time>
      </trkpt>
      <trkpt lat="42.90719" lon="0.16523">
        <ele>1785</ele>
        <time>2020-07-29T09:53:28.022Z</time>
      </trkpt>
      <trkpt lat="42.90721" lon="0.16524">
        <ele>1785</ele>
        <time>2020-07-29T09:53:29.022Z</time>
      </trkpt>
      <trkpt lat="42.90724" lon="0.16525">
        <ele>1785</ele>
        <time>2020-07-29T09:53:30.022Z</time>
      </trkpt>
      <trkpt lat="42.90727" lon="0.16526">
        <ele>1786</ele>
        <time>2020-07-29T09:53:31.022Z</time>
      </trkpt>
      <trkpt lat="42.9073" lon="0.16527">
        <ele>1786</ele>
        <time>2020-07-29T09:53:32.022Z</time>
      </trkpt>
      <trkpt lat="42.90733" lon="0.16528">
        <ele>1786</ele>
        <time>2020-07-29T09:53:33.022Z</time>
      </trkpt>
      <trkpt lat="42.90736" lon="0.16529">
        <ele>1786</ele>
        <time>2020-07-29T09:53:34.022Z</time>
      </trkpt>
      <trkpt lat="42.90739" lon="0.16531">
        <ele>1786</ele>
        <time>2020-07-29T09:53:35.022Z</time>
      </trkpt>
      <trkpt lat="42.90742" lon="0.16533">
        <ele>1786</ele>
        <time>2020-07-29T09:53:36.022Z</time>
      </trkpt>
      <trkpt lat="42.90745" lon="0.16534">
        <ele>1787</ele>
        <time>2020-07-29T09:53:37.022Z</time>
      </trkpt>
      <trkpt lat="42.90748" lon="0.16536">
        <ele>1787</ele>
        <time>2020-07-29T09:53:38.022Z</time>
      </trkpt>
      <trkpt lat="42.9075" lon="0.16539">
        <ele>1787</ele>
        <time>2020-07-29T09:53:39.022Z</time>
      </trkpt>
      <trkpt lat="42.90752" lon="0.16541">
        <ele>1787</ele>
        <time>2020-07-29T09:53:40.022Z</time>
      </trkpt>
      <trkpt lat="42.90753" lon="0.16543">
        <ele>1787</ele>
        <time>2020-07-29T09:53:41.022Z</time>
      </trkpt>
      <trkpt lat="42.90755" lon="0.16545">
        <ele>1788</ele>
        <time>2020-07-29T09:53:42.022Z</time>
      </trkpt>
      <trkpt lat="42.90757" lon="0.16547">
        <ele>1788</ele>
        <time>2020-07-29T09:53:43.022Z</time>
      </trkpt>
      <trkpt lat="42.90759" lon="0.1655">
        <ele>1788</ele>
        <time>2020-07-29T09:53:44.022Z</time>
      </trkpt>
      <trkpt lat="42.90761" lon="0.16553">
        <ele>1788</ele>
        <time>2020-07-29T09:53:45.022Z</time>
      </trkpt>
      <trkpt lat="42.90763" lon="0.16556">
        <ele>1788</ele>
        <time>2020-07-29T09:53:46.022Z</time>
      </trkpt>
      <trkpt lat="42.90767" lon="0.16567">
        <ele>1789</ele>
        <time>2020-07-29T09:53:47.042Z</time>
      </trkpt>
      <trkpt lat="42.90768" lon="0.16568">
        <ele>1788</ele>
        <time>2020-07-29T09:53:48.042Z</time>
      </trkpt>
      <trkpt lat="42.90768" lon="0.1657">
        <ele>1788</ele>
        <time>2020-07-29T09:53:49.042Z</time>
      </trkpt>
      <trkpt lat="42.90769" lon="0.16572">
        <ele>1788</ele>
        <time>2020-07-29T09:53:50.042Z</time>
      </trkpt>
      <trkpt lat="42.9077" lon="0.16574">
        <ele>1787</ele>
        <time>2020-07-29T09:53:51.042Z</time>
      </trkpt>
      <trkpt lat="42.90771" lon="0.16577">
        <ele>1788</ele>
        <time>2020-07-29T09:53:52.042Z</time>
      </trkpt>
      <trkpt lat="42.90772" lon="0.1658">
        <ele>1788</ele>
        <time>2020-07-29T09:53:53.042Z</time>
      </trkpt>
      <trkpt lat="42.90773" lon="0.16583">
        <ele>1788</ele>
        <time>2020-07-29T09:53:54.042Z</time>
      </trkpt>
      <trkpt lat="42.90774" lon="0.16586">
        <ele>1788</ele>
        <time>2020-07-29T09:53:55.042Z</time>
      </trkpt>
      <trkpt lat="42.90775" lon="0.16589">
        <ele>1788</ele>
        <time>2020-07-29T09:53:56.042Z</time>
      </trkpt>
      <trkpt lat="42.90776" lon="0.16592">
        <ele>1788</ele>
        <time>2020-07-29T09:53:57.042Z</time>
      </trkpt>
      <trkpt lat="42.90777" lon="0.16595">
        <ele>1788</ele>
        <time>2020-07-29T09:53:58.042Z</time>
      </trkpt>
      <trkpt lat="42.90779" lon="0.16598">
        <ele>1789</ele>
        <time>2020-07-29T09:53:59.042Z</time>
      </trkpt>
      <trkpt lat="42.9078" lon="0.16601">
        <ele>1789</ele>
        <time>2020-07-29T09:54:00.042Z</time>
      </trkpt>
      <trkpt lat="42.90781" lon="0.16604">
        <ele>1788</ele>
        <time>2020-07-29T09:54:01.042Z</time>
      </trkpt>
      <trkpt lat="42.90782" lon="0.16607">
        <ele>1789</ele>
        <time>2020-07-29T09:54:02.042Z</time>
      </trkpt>
      <trkpt lat="42.90784" lon="0.1661">
        <ele>1789</ele>
        <time>2020-07-29T09:54:03.042Z</time>
      </trkpt>
      <trkpt lat="42.90785" lon="0.16613">
        <ele>1789</ele>
        <time>2020-07-29T09:54:04.042Z</time>
      </trkpt>
      <trkpt lat="42.90787" lon="0.16616">
        <ele>1790</ele>
        <time>2020-07-29T09:54:05.042Z</time>
      </trkpt>
      <trkpt lat="42.90789" lon="0.16618">
        <ele>1790</ele>
        <time>2020-07-29T09:54:06.042Z</time>
      </trkpt>
      <trkpt lat="42.9079" lon="0.16622">
        <ele>1789</ele>
        <time>2020-07-29T09:54:07.042Z</time>
      </trkpt>
      <trkpt lat="42.90792" lon="0.16625">
        <ele>1790</ele>
        <time>2020-07-29T09:54:08.042Z</time>
      </trkpt>
      <trkpt lat="42.90793" lon="0.16628">
        <ele>1791</ele>
        <time>2020-07-29T09:54:09.042Z</time>
      </trkpt>
      <trkpt lat="42.90795" lon="0.16631">
        <ele>1791</ele>
        <time>2020-07-29T09:54:10.042Z</time>
      </trkpt>
      <trkpt lat="42.90797" lon="0.16634">
        <ele>1791</ele>
        <time>2020-07-29T09:54:11.042Z</time>
      </trkpt>
      <trkpt lat="42.90799" lon="0.16637">
        <ele>1792</ele>
        <time>2020-07-29T09:54:12.042Z</time>
      </trkpt>
      <trkpt lat="42.908" lon="0.1664">
        <ele>1793</ele>
        <time>2020-07-29T09:54:13.042Z</time>
      </trkpt>
      <trkpt lat="42.90802" lon="0.16643">
        <ele>1793</ele>
        <time>2020-07-29T09:54:14.042Z</time>
      </trkpt>
      <trkpt lat="42.90803" lon="0.16646">
        <ele>1793</ele>
        <time>2020-07-29T09:54:15.042Z</time>
      </trkpt>
      <trkpt lat="42.90804" lon="0.16649">
        <ele>1793</ele>
        <time>2020-07-29T09:54:16.042Z</time>
      </trkpt>
      <trkpt lat="42.90806" lon="0.16652">
        <ele>1793</ele>
        <time>2020-07-29T09:54:17.042Z</time>
      </trkpt>
      <trkpt lat="42.90807" lon="0.16655">
        <ele>1794</ele>
        <time>2020-07-29T09:54:18.042Z</time>
      </trkpt>
      <trkpt lat="42.90809" lon="0.16658">
        <ele>1794</ele>
        <time>2020-07-29T09:54:19.042Z</time>
      </trkpt>
      <trkpt lat="42.90811" lon="0.16662">
        <ele>1794</ele>
        <time>2020-07-29T09:54:20.042Z</time>
      </trkpt>
      <trkpt lat="42.90812" lon="0.16665">
        <ele>1794</ele>
        <time>2020-07-29T09:54:21.042Z</time>
      </trkpt>
      <trkpt lat="42.90814" lon="0.16669">
        <ele>1794</ele>
        <time>2020-07-29T09:54:22.042Z</time>
      </trkpt>
      <trkpt lat="42.90815" lon="0.16672">
        <ele>1794</ele>
        <time>2020-07-29T09:54:23.042Z</time>
      </trkpt>
      <trkpt lat="42.90817" lon="0.16676">
        <ele>1795</ele>
        <time>2020-07-29T09:54:24.042Z</time>
      </trkpt>
      <trkpt lat="42.90818" lon="0.16679">
        <ele>1795</ele>
        <time>2020-07-29T09:54:25.042Z</time>
      </trkpt>
      <trkpt lat="42.9082" lon="0.16682">
        <ele>1795</ele>
        <time>2020-07-29T09:54:26.042Z</time>
      </trkpt>
      <trkpt lat="42.90821" lon="0.16685">
        <ele>1795</ele>
        <time>2020-07-29T09:54:27.042Z</time>
      </trkpt>
      <trkpt lat="42.90822" lon="0.16689">
        <ele>1795</ele>
        <time>2020-07-29T09:54:28.042Z</time>
      </trkpt>
      <trkpt lat="42.90824" lon="0.16692">
        <ele>1796</ele>
        <time>2020-07-29T09:54:29.042Z</time>
      </trkpt>
      <trkpt lat="42.90825" lon="0.16696">
        <ele>1796</ele>
        <time>2020-07-29T09:54:30.042Z</time>
      </trkpt>
      <trkpt lat="42.90827" lon="0.16699">
        <ele>1796</ele>
        <time>2020-07-29T09:54:31.042Z</time>
      </trkpt>
      <trkpt lat="42.90828" lon="0.16702">
        <ele>1796</ele>
        <time>2020-07-29T09:54:32.042Z</time>
      </trkpt>
      <trkpt lat="42.9083" lon="0.16706">
        <ele>1797</ele>
        <time>2020-07-29T09:54:33.042Z</time>
      </trkpt>
      <trkpt lat="42.90832" lon="0.16709">
        <ele>1797</ele>
        <time>2020-07-29T09:54:34.042Z</time>
      </trkpt>
      <trkpt lat="42.90833" lon="0.16712">
        <ele>1797</ele>
        <time>2020-07-29T09:54:35.042Z</time>
      </trkpt>
      <trkpt lat="42.90835" lon="0.16716">
        <ele>1798</ele>
        <time>2020-07-29T09:54:36.042Z</time>
      </trkpt>
      <trkpt lat="42.90836" lon="0.16719">
        <ele>1798</ele>
        <time>2020-07-29T09:54:37.042Z</time>
      </trkpt>
      <trkpt lat="42.90837" lon="0.16723">
        <ele>1797</ele>
        <time>2020-07-29T09:54:38.042Z</time>
      </trkpt>
      <trkpt lat="42.90838" lon="0.16726">
        <ele>1798</ele>
        <time>2020-07-29T09:54:39.042Z</time>
      </trkpt>
      <trkpt lat="42.90838" lon="0.1673">
        <ele>1799</ele>
        <time>2020-07-29T09:54:40.042Z</time>
      </trkpt>
      <trkpt lat="42.90839" lon="0.16733">
        <ele>1799</ele>
        <time>2020-07-29T09:54:41.042Z</time>
      </trkpt>
      <trkpt lat="42.9084" lon="0.16737">
        <ele>1799</ele>
        <time>2020-07-29T09:54:42.042Z</time>
      </trkpt>
      <trkpt lat="42.90841" lon="0.1674">
        <ele>1798</ele>
        <time>2020-07-29T09:54:43.042Z</time>
      </trkpt>
      <trkpt lat="42.90842" lon="0.16744">
        <ele>1798</ele>
        <time>2020-07-29T09:54:44.042Z</time>
      </trkpt>
      <trkpt lat="42.90842" lon="0.16747">
        <ele>1799</ele>
        <time>2020-07-29T09:54:45.042Z</time>
      </trkpt>
      <trkpt lat="42.90843" lon="0.1675">
        <ele>1799</ele>
        <time>2020-07-29T09:54:46.042Z</time>
      </trkpt>
      <trkpt lat="42.90844" lon="0.16754">
        <ele>1800</ele>
        <time>2020-07-29T09:54:47.042Z</time>
      </trkpt>
      <trkpt lat="42.90844" lon="0.16757">
        <ele>1800</ele>
        <time>2020-07-29T09:54:48.042Z</time>
      </trkpt>
      <trkpt lat="42.90845" lon="0.1676">
        <ele>1801</ele>
        <time>2020-07-29T09:54:49.042Z</time>
      </trkpt>
      <trkpt lat="42.90846" lon="0.16763">
        <ele>1801</ele>
        <time>2020-07-29T09:54:50.042Z</time>
      </trkpt>
      <trkpt lat="42.90847" lon="0.16767">
        <ele>1802</ele>
        <time>2020-07-29T09:54:51.042Z</time>
      </trkpt>
      <trkpt lat="42.90848" lon="0.1677">
        <ele>1802</ele>
        <time>2020-07-29T09:54:52.042Z</time>
      </trkpt>
      <trkpt lat="42.90849" lon="0.16772">
        <ele>1802</ele>
        <time>2020-07-29T09:54:53.042Z</time>
      </trkpt>
      <trkpt lat="42.9085" lon="0.16774">
        <ele>1802</ele>
        <time>2020-07-29T09:54:54.042Z</time>
      </trkpt>
      <trkpt lat="42.90851" lon="0.16777">
        <ele>1802</ele>
        <time>2020-07-29T09:54:55.042Z</time>
      </trkpt>
      <trkpt lat="42.90852" lon="0.1678">
        <ele>1802</ele>
        <time>2020-07-29T09:54:56.042Z</time>
      </trkpt>
      <trkpt lat="42.90853" lon="0.16783">
        <ele>1803</ele>
        <time>2020-07-29T09:54:57.042Z</time>
      </trkpt>
      <trkpt lat="42.90855" lon="0.16786">
        <ele>1802</ele>
        <time>2020-07-29T09:54:58.042Z</time>
      </trkpt>
      <trkpt lat="42.90856" lon="0.1679">
        <ele>1803</ele>
        <time>2020-07-29T09:54:59.042Z</time>
      </trkpt>
      <trkpt lat="42.90857" lon="0.16793">
        <ele>1803</ele>
        <time>2020-07-29T09:55:00.042Z</time>
      </trkpt>
      <trkpt lat="42.90858" lon="0.16796">
        <ele>1803</ele>
        <time>2020-07-29T09:55:01.042Z</time>
      </trkpt>
      <trkpt lat="42.90859" lon="0.168">
        <ele>1804</ele>
        <time>2020-07-29T09:55:02.042Z</time>
      </trkpt>
      <trkpt lat="42.90861" lon="0.16803">
        <ele>1805</ele>
        <time>2020-07-29T09:55:03.042Z</time>
      </trkpt>
      <trkpt lat="42.90862" lon="0.16807">
        <ele>1805</ele>
        <time>2020-07-29T09:55:04.042Z</time>
      </trkpt>
      <trkpt lat="42.90864" lon="0.1681">
        <ele>1805</ele>
        <time>2020-07-29T09:55:05.042Z</time>
      </trkpt>
      <trkpt lat="42.90866" lon="0.16813">
        <ele>1804</ele>
        <time>2020-07-29T09:55:06.042Z</time>
      </trkpt>
      <trkpt lat="42.90868" lon="0.16816">
        <ele>1803</ele>
        <time>2020-07-29T09:55:07.042Z</time>
      </trkpt>
      <trkpt lat="42.90869" lon="0.16818">
        <ele>1803</ele>
        <time>2020-07-29T09:55:08.042Z</time>
      </trkpt>
      <trkpt lat="42.90871" lon="0.1682">
        <ele>1803</ele>
        <time>2020-07-29T09:55:09.042Z</time>
      </trkpt>
      <trkpt lat="42.90873" lon="0.16822">
        <ele>1804</ele>
        <time>2020-07-29T09:55:10.042Z</time>
      </trkpt>
      <trkpt lat="42.90875" lon="0.16824">
        <ele>1804</ele>
        <time>2020-07-29T09:55:11.042Z</time>
      </trkpt>
      <trkpt lat="42.90878" lon="0.16826">
        <ele>1804</ele>
        <time>2020-07-29T09:55:12.042Z</time>
      </trkpt>
      <trkpt lat="42.9088" lon="0.16828">
        <ele>1804</ele>
        <time>2020-07-29T09:55:13.042Z</time>
      </trkpt>
      <trkpt lat="42.90883" lon="0.1683">
        <ele>1804</ele>
        <time>2020-07-29T09:55:14.042Z</time>
      </trkpt>
      <trkpt lat="42.90885" lon="0.16832">
        <ele>1804</ele>
        <time>2020-07-29T09:55:15.042Z</time>
      </trkpt>
      <trkpt lat="42.90887" lon="0.16834">
        <ele>1804</ele>
        <time>2020-07-29T09:55:16.042Z</time>
      </trkpt>
      <trkpt lat="42.90889" lon="0.16835">
        <ele>1804</ele>
        <time>2020-07-29T09:55:17.042Z</time>
      </trkpt>
      <trkpt lat="42.90892" lon="0.16837">
        <ele>1804</ele>
        <time>2020-07-29T09:55:18.042Z</time>
      </trkpt>
      <trkpt lat="42.90894" lon="0.16838">
        <ele>1804</ele>
        <time>2020-07-29T09:55:19.042Z</time>
      </trkpt>
      <trkpt lat="42.90896" lon="0.16839">
        <ele>1804</ele>
        <time>2020-07-29T09:55:20.042Z</time>
      </trkpt>
      <trkpt lat="42.90898" lon="0.1684">
        <ele>1805</ele>
        <time>2020-07-29T09:55:21.042Z</time>
      </trkpt>
      <trkpt lat="42.90901" lon="0.16842">
        <ele>1805</ele>
        <time>2020-07-29T09:55:22.042Z</time>
      </trkpt>
      <trkpt lat="42.90903" lon="0.16843">
        <ele>1806</ele>
        <time>2020-07-29T09:55:23.042Z</time>
      </trkpt>
      <trkpt lat="42.90905" lon="0.16845">
        <ele>1806</ele>
        <time>2020-07-29T09:55:24.042Z</time>
      </trkpt>
      <trkpt lat="42.90907" lon="0.16846">
        <ele>1807</ele>
        <time>2020-07-29T09:55:25.042Z</time>
      </trkpt>
      <trkpt lat="42.90909" lon="0.16848">
        <ele>1807</ele>
        <time>2020-07-29T09:55:26.042Z</time>
      </trkpt>
      <trkpt lat="42.90911" lon="0.16849">
        <ele>1807</ele>
        <time>2020-07-29T09:55:27.042Z</time>
      </trkpt>
      <trkpt lat="42.90913" lon="0.1685">
        <ele>1808</ele>
        <time>2020-07-29T09:55:28.042Z</time>
      </trkpt>
      <trkpt lat="42.90915" lon="0.16852">
        <ele>1809</ele>
        <time>2020-07-29T09:55:29.042Z</time>
      </trkpt>
      <trkpt lat="42.90918" lon="0.16853">
        <ele>1809</ele>
        <time>2020-07-29T09:55:30.042Z</time>
      </trkpt>
      <trkpt lat="42.9092" lon="0.16854">
        <ele>1810</ele>
        <time>2020-07-29T09:55:31.042Z</time>
      </trkpt>
      <trkpt lat="42.90922" lon="0.16854">
        <ele>1809</ele>
        <time>2020-07-29T09:55:32.042Z</time>
      </trkpt>
      <trkpt lat="42.90924" lon="0.16854">
        <ele>1810</ele>
        <time>2020-07-29T09:55:33.042Z</time>
      </trkpt>
      <trkpt lat="42.90927" lon="0.16855">
        <ele>1810</ele>
        <time>2020-07-29T09:55:34.042Z</time>
      </trkpt>
      <trkpt lat="42.90929" lon="0.16857">
        <ele>1810</ele>
        <time>2020-07-29T09:55:35.042Z</time>
      </trkpt>
      <trkpt lat="42.90931" lon="0.16859">
        <ele>1810</ele>
        <time>2020-07-29T09:55:36.042Z</time>
      </trkpt>
      <trkpt lat="42.90933" lon="0.16862">
        <ele>1809</ele>
        <time>2020-07-29T09:55:37.042Z</time>
      </trkpt>
      <trkpt lat="42.90935" lon="0.16865">
        <ele>1808</ele>
        <time>2020-07-29T09:55:38.042Z</time>
      </trkpt>
      <trkpt lat="42.90937" lon="0.16867">
        <ele>1808</ele>
        <time>2020-07-29T09:55:39.042Z</time>
      </trkpt>
      <trkpt lat="42.9094" lon="0.16869">
        <ele>1807</ele>
        <time>2020-07-29T09:55:40.042Z</time>
      </trkpt>
      <trkpt lat="42.90942" lon="0.16871">
        <ele>1807</ele>
        <time>2020-07-29T09:55:41.042Z</time>
      </trkpt>
      <trkpt lat="42.90944" lon="0.16874">
        <ele>1808</ele>
        <time>2020-07-29T09:55:42.042Z</time>
      </trkpt>
      <trkpt lat="42.90947" lon="0.16876">
        <ele>1809</ele>
        <time>2020-07-29T09:55:43.042Z</time>
      </trkpt>
      <trkpt lat="42.90949" lon="0.16879">
        <ele>1809</ele>
        <time>2020-07-29T09:55:44.042Z</time>
      </trkpt>
      <trkpt lat="42.90952" lon="0.16881">
        <ele>1809</ele>
        <time>2020-07-29T09:55:45.042Z</time>
      </trkpt>
      <trkpt lat="42.90953" lon="0.16884">
        <ele>1809</ele>
        <time>2020-07-29T09:55:46.042Z</time>
      </trkpt>
      <trkpt lat="42.90955" lon="0.16887">
        <ele>1809</ele>
        <time>2020-07-29T09:55:47.042Z</time>
      </trkpt>
      <trkpt lat="42.90956" lon="0.1689">
        <ele>1809</ele>
        <time>2020-07-29T09:55:48.042Z</time>
      </trkpt>
      <trkpt lat="42.90957" lon="0.16893">
        <ele>1809</ele>
        <time>2020-07-29T09:55:49.042Z</time>
      </trkpt>
      <trkpt lat="42.90959" lon="0.16896">
        <ele>1810</ele>
        <time>2020-07-29T09:55:50.042Z</time>
      </trkpt>
      <trkpt lat="42.9096" lon="0.16899">
        <ele>1811</ele>
        <time>2020-07-29T09:55:51.042Z</time>
      </trkpt>
      <trkpt lat="42.90961" lon="0.16901">
        <ele>1811</ele>
        <time>2020-07-29T09:55:52.042Z</time>
      </trkpt>
      <trkpt lat="42.90963" lon="0.16904">
        <ele>1811</ele>
        <time>2020-07-29T09:55:53.042Z</time>
      </trkpt>
      <trkpt lat="42.90964" lon="0.16907">
        <ele>1811</ele>
        <time>2020-07-29T09:55:54.042Z</time>
      </trkpt>
      <trkpt lat="42.90966" lon="0.16909">
        <ele>1811</ele>
        <time>2020-07-29T09:55:55.042Z</time>
      </trkpt>
      <trkpt lat="42.90968" lon="0.16912">
        <ele>1812</ele>
        <time>2020-07-29T09:55:56.042Z</time>
      </trkpt>
      <trkpt lat="42.90969" lon="0.16915">
        <ele>1812</ele>
        <time>2020-07-29T09:55:57.042Z</time>
      </trkpt>
      <trkpt lat="42.90971" lon="0.16918">
        <ele>1812</ele>
        <time>2020-07-29T09:55:58.042Z</time>
      </trkpt>
      <trkpt lat="42.90972" lon="0.1692">
        <ele>1812</ele>
        <time>2020-07-29T09:55:59.042Z</time>
      </trkpt>
      <trkpt lat="42.90974" lon="0.16923">
        <ele>1812</ele>
        <time>2020-07-29T09:56:00.042Z</time>
      </trkpt>
      <trkpt lat="42.90975" lon="0.16925">
        <ele>1812</ele>
        <time>2020-07-29T09:56:01.042Z</time>
      </trkpt>
      <trkpt lat="42.90977" lon="0.16928">
        <ele>1813</ele>
        <time>2020-07-29T09:56:02.042Z</time>
      </trkpt>
      <trkpt lat="42.90979" lon="0.1693">
        <ele>1813</ele>
        <time>2020-07-29T09:56:03.042Z</time>
      </trkpt>
      <trkpt lat="42.90981" lon="0.16932">
        <ele>1813</ele>
        <time>2020-07-29T09:56:04.042Z</time>
      </trkpt>
      <trkpt lat="42.90982" lon="0.16933">
        <ele>1814</ele>
        <time>2020-07-29T09:56:05.042Z</time>
      </trkpt>
      <trkpt lat="42.90982" lon="0.16935">
        <ele>1815</ele>
        <time>2020-07-29T09:56:06.042Z</time>
      </trkpt>
      <trkpt lat="42.90983" lon="0.16936">
        <ele>1815</ele>
        <time>2020-07-29T09:56:07.042Z</time>
      </trkpt>
      <trkpt lat="42.90983" lon="0.16937">
        <ele>1814</ele>
        <time>2020-07-29T09:56:08.042Z</time>
      </trkpt>
      <trkpt lat="42.90983" lon="0.16939">
        <ele>1815</ele>
        <time>2020-07-29T09:56:09.042Z</time>
      </trkpt>
      <trkpt lat="42.90984" lon="0.1694">
        <ele>1815</ele>
        <time>2020-07-29T09:56:10.042Z</time>
      </trkpt>
      <trkpt lat="42.90984" lon="0.16942">
        <ele>1815</ele>
        <time>2020-07-29T09:56:11.042Z</time>
      </trkpt>
      <trkpt lat="42.90985" lon="0.16944">
        <ele>1815</ele>
        <time>2020-07-29T09:56:12.042Z</time>
      </trkpt>
      <trkpt lat="42.90986" lon="0.16946">
        <ele>1815</ele>
        <time>2020-07-29T09:56:13.042Z</time>
      </trkpt>
      <trkpt lat="42.90986" lon="0.16948">
        <ele>1815</ele>
        <time>2020-07-29T09:56:14.042Z</time>
      </trkpt>
      <trkpt lat="42.90987" lon="0.16951">
        <ele>1814</ele>
        <time>2020-07-29T09:56:15.042Z</time>
      </trkpt>
      <trkpt lat="42.90988" lon="0.16954">
        <ele>1814</ele>
        <time>2020-07-29T09:56:16.042Z</time>
      </trkpt>
      <trkpt lat="42.90989" lon="0.16958">
        <ele>1815</ele>
        <time>2020-07-29T09:56:17.042Z</time>
      </trkpt>
      <trkpt lat="42.90991" lon="0.16961">
        <ele>1815</ele>
        <time>2020-07-29T09:56:18.042Z</time>
      </trkpt>
      <trkpt lat="42.90991" lon="0.16965">
        <ele>1815</ele>
        <time>2020-07-29T09:56:19.042Z</time>
      </trkpt>
      <trkpt lat="42.90992" lon="0.16968">
        <ele>1815</ele>
        <time>2020-07-29T09:56:20.042Z</time>
      </trkpt>
      <trkpt lat="42.90993" lon="0.16972">
        <ele>1815</ele>
        <time>2020-07-29T09:56:21.042Z</time>
      </trkpt>
      <trkpt lat="42.90995" lon="0.16975">
        <ele>1815</ele>
        <time>2020-07-29T09:56:22.042Z</time>
      </trkpt>
      <trkpt lat="42.90996" lon="0.16978">
        <ele>1815</ele>
        <time>2020-07-29T09:56:23.042Z</time>
      </trkpt>
      <trkpt lat="42.90997" lon="0.16981">
        <ele>1815</ele>
        <time>2020-07-29T09:56:24.042Z</time>
      </trkpt>
      <trkpt lat="42.90998" lon="0.16984">
        <ele>1815</ele>
        <time>2020-07-29T09:56:25.042Z</time>
      </trkpt>
      <trkpt lat="42.91" lon="0.16987">
        <ele>1816</ele>
        <time>2020-07-29T09:56:26.042Z</time>
      </trkpt>
      <trkpt lat="42.91001" lon="0.1699">
        <ele>1816</ele>
        <time>2020-07-29T09:56:27.042Z</time>
      </trkpt>
      <trkpt lat="42.91003" lon="0.16993">
        <ele>1816</ele>
        <time>2020-07-29T09:56:28.042Z</time>
      </trkpt>
      <trkpt lat="42.91005" lon="0.16996">
        <ele>1816</ele>
        <time>2020-07-29T09:56:29.042Z</time>
      </trkpt>
      <trkpt lat="42.91007" lon="0.16999">
        <ele>1815</ele>
        <time>2020-07-29T09:56:30.042Z</time>
      </trkpt>
      <trkpt lat="42.91009" lon="0.17002">
        <ele>1814</ele>
        <time>2020-07-29T09:56:31.042Z</time>
      </trkpt>
      <trkpt lat="42.91011" lon="0.17005">
        <ele>1814</ele>
        <time>2020-07-29T09:56:32.042Z</time>
      </trkpt>
      <trkpt lat="42.91014" lon="0.17008">
        <ele>1814</ele>
        <time>2020-07-29T09:56:33.042Z</time>
      </trkpt>
      <trkpt lat="42.91015" lon="0.17011">
        <ele>1814</ele>
        <time>2020-07-29T09:56:34.042Z</time>
      </trkpt>
      <trkpt lat="42.91017" lon="0.17015">
        <ele>1813</ele>
        <time>2020-07-29T09:56:35.042Z</time>
      </trkpt>
      <trkpt lat="42.91018" lon="0.17018">
        <ele>1813</ele>
        <time>2020-07-29T09:56:36.042Z</time>
      </trkpt>
      <trkpt lat="42.91019" lon="0.17022">
        <ele>1812</ele>
        <time>2020-07-29T09:56:37.042Z</time>
      </trkpt>
      <trkpt lat="42.9102" lon="0.17025">
        <ele>1812</ele>
        <time>2020-07-29T09:56:38.042Z</time>
      </trkpt>
      <trkpt lat="42.91021" lon="0.17029">
        <ele>1811</ele>
        <time>2020-07-29T09:56:39.042Z</time>
      </trkpt>
      <trkpt lat="42.91022" lon="0.17033">
        <ele>1811</ele>
        <time>2020-07-29T09:56:40.042Z</time>
      </trkpt>
      <trkpt lat="42.91023" lon="0.17036">
        <ele>1811</ele>
        <time>2020-07-29T09:56:41.042Z</time>
      </trkpt>
      <trkpt lat="42.91023" lon="0.1704">
        <ele>1810</ele>
        <time>2020-07-29T09:56:42.042Z</time>
      </trkpt>
      <trkpt lat="42.91024" lon="0.17044">
        <ele>1810</ele>
        <time>2020-07-29T09:56:43.042Z</time>
      </trkpt>
      <trkpt lat="42.91024" lon="0.17048">
        <ele>1809</ele>
        <time>2020-07-29T09:56:44.042Z</time>
      </trkpt>
      <trkpt lat="42.91025" lon="0.17052">
        <ele>1809</ele>
        <time>2020-07-29T09:56:45.042Z</time>
      </trkpt>
      <trkpt lat="42.91025" lon="0.17056">
        <ele>1809</ele>
        <time>2020-07-29T09:56:46.042Z</time>
      </trkpt>
      <trkpt lat="42.91025" lon="0.1706">
        <ele>1809</ele>
        <time>2020-07-29T09:56:47.042Z</time>
      </trkpt>
      <trkpt lat="42.91026" lon="0.17064">
        <ele>1809</ele>
        <time>2020-07-29T09:56:48.042Z</time>
      </trkpt>
      <trkpt lat="42.91026" lon="0.17068">
        <ele>1809</ele>
        <time>2020-07-29T09:56:49.042Z</time>
      </trkpt>
      <trkpt lat="42.91027" lon="0.17072">
        <ele>1808</ele>
        <time>2020-07-29T09:56:50.042Z</time>
      </trkpt>
      <trkpt lat="42.91027" lon="0.17076">
        <ele>1808</ele>
        <time>2020-07-29T09:56:51.042Z</time>
      </trkpt>
      <trkpt lat="42.91028" lon="0.1708">
        <ele>1807</ele>
        <time>2020-07-29T09:56:52.042Z</time>
      </trkpt>
      <trkpt lat="42.91028" lon="0.17084">
        <ele>1807</ele>
        <time>2020-07-29T09:56:53.042Z</time>
      </trkpt>
      <trkpt lat="42.91028" lon="0.17088">
        <ele>1807</ele>
        <time>2020-07-29T09:56:54.042Z</time>
      </trkpt>
      <trkpt lat="42.91029" lon="0.17092">
        <ele>1807</ele>
        <time>2020-07-29T09:56:55.042Z</time>
      </trkpt>
      <trkpt lat="42.91029" lon="0.17096">
        <ele>1807</ele>
        <time>2020-07-29T09:56:56.042Z</time>
      </trkpt>
      <trkpt lat="42.91029" lon="0.171">
        <ele>1806</ele>
        <time>2020-07-29T09:56:57.042Z</time>
      </trkpt>
      <trkpt lat="42.91029" lon="0.17104">
        <ele>1807</ele>
        <time>2020-07-29T09:56:58.042Z</time>
      </trkpt>
      <trkpt lat="42.9103" lon="0.17109">
        <ele>1807</ele>
        <time>2020-07-29T09:56:59.042Z</time>
      </trkpt>
      <trkpt lat="42.9103" lon="0.17113">
        <ele>1807</ele>
        <time>2020-07-29T09:57:00.042Z</time>
      </trkpt>
      <trkpt lat="42.9103" lon="0.17117">
        <ele>1807</ele>
        <time>2020-07-29T09:57:01.042Z</time>
      </trkpt>
      <trkpt lat="42.9103" lon="0.17121">
        <ele>1808</ele>
        <time>2020-07-29T09:57:02.042Z</time>
      </trkpt>
      <trkpt lat="42.9103" lon="0.17125">
        <ele>1807</ele>
        <time>2020-07-29T09:57:03.042Z</time>
      </trkpt>
      <trkpt lat="42.9103" lon="0.17129">
        <ele>1807</ele>
        <time>2020-07-29T09:57:04.042Z</time>
      </trkpt>
      <trkpt lat="42.9103" lon="0.17133">
        <ele>1807</ele>
        <time>2020-07-29T09:57:05.042Z</time>
      </trkpt>
      <trkpt lat="42.9103" lon="0.17137">
        <ele>1807</ele>
        <time>2020-07-29T09:57:06.042Z</time>
      </trkpt>
      <trkpt lat="42.91031" lon="0.17141">
        <ele>1807</ele>
        <time>2020-07-29T09:57:07.042Z</time>
      </trkpt>
      <trkpt lat="42.91031" lon="0.17145">
        <ele>1807</ele>
        <time>2020-07-29T09:57:08.042Z</time>
      </trkpt>
      <trkpt lat="42.91031" lon="0.1715">
        <ele>1808</ele>
        <time>2020-07-29T09:57:09.042Z</time>
      </trkpt>
      <trkpt lat="42.91031" lon="0.17154">
        <ele>1807</ele>
        <time>2020-07-29T09:57:10.042Z</time>
      </trkpt>
      <trkpt lat="42.91031" lon="0.17158">
        <ele>1807</ele>
        <time>2020-07-29T09:57:11.042Z</time>
      </trkpt>
      <trkpt lat="42.91031" lon="0.17162">
        <ele>1806</ele>
        <time>2020-07-29T09:57:12.042Z</time>
      </trkpt>
      <trkpt lat="42.91031" lon="0.17165">
        <ele>1805</ele>
        <time>2020-07-29T09:57:13.042Z</time>
      </trkpt>
      <trkpt lat="42.91031" lon="0.17169">
        <ele>1805</ele>
        <time>2020-07-29T09:57:14.042Z</time>
      </trkpt>
      <trkpt lat="42.91031" lon="0.17173">
        <ele>1804</ele>
        <time>2020-07-29T09:57:15.042Z</time>
      </trkpt>
      <trkpt lat="42.91031" lon="0.17177">
        <ele>1803</ele>
        <time>2020-07-29T09:57:16.042Z</time>
      </trkpt>
      <trkpt lat="42.91031" lon="0.17181">
        <ele>1803</ele>
        <time>2020-07-29T09:57:17.042Z</time>
      </trkpt>
      <trkpt lat="42.9103" lon="0.17185">
        <ele>1802</ele>
        <time>2020-07-29T09:57:18.042Z</time>
      </trkpt>
      <trkpt lat="42.9103" lon="0.17189">
        <ele>1802</ele>
        <time>2020-07-29T09:57:19.042Z</time>
      </trkpt>
      <trkpt lat="42.9103" lon="0.17193">
        <ele>1802</ele>
        <time>2020-07-29T09:57:20.042Z</time>
      </trkpt>
      <trkpt lat="42.9103" lon="0.17197">
        <ele>1802</ele>
        <time>2020-07-29T09:57:21.042Z</time>
      </trkpt>
      <trkpt lat="42.9103" lon="0.17202">
        <ele>1801</ele>
        <time>2020-07-29T09:57:22.042Z</time>
      </trkpt>
      <trkpt lat="42.9103" lon="0.17206">
        <ele>1801</ele>
        <time>2020-07-29T09:57:23.042Z</time>
      </trkpt>
      <trkpt lat="42.91029" lon="0.1721">
        <ele>1800</ele>
        <time>2020-07-29T09:57:24.042Z</time>
      </trkpt>
      <trkpt lat="42.91029" lon="0.17214">
        <ele>1800</ele>
        <time>2020-07-29T09:57:25.042Z</time>
      </trkpt>
      <trkpt lat="42.91029" lon="0.17218">
        <ele>1799</ele>
        <time>2020-07-29T09:57:26.042Z</time>
      </trkpt>
      <trkpt lat="42.91029" lon="0.17223">
        <ele>1799</ele>
        <time>2020-07-29T09:57:27.042Z</time>
      </trkpt>
      <trkpt lat="42.91029" lon="0.17227">
        <ele>1798</ele>
        <time>2020-07-29T09:57:28.042Z</time>
      </trkpt>
      <trkpt lat="42.91028" lon="0.17231">
        <ele>1798</ele>
        <time>2020-07-29T09:57:29.042Z</time>
      </trkpt>
      <trkpt lat="42.91028" lon="0.17235">
        <ele>1797</ele>
        <time>2020-07-29T09:57:30.042Z</time>
      </trkpt>
      <trkpt lat="42.91027" lon="0.1724">
        <ele>1797</ele>
        <time>2020-07-29T09:57:31.042Z</time>
      </trkpt>
      <trkpt lat="42.91027" lon="0.17244">
        <ele>1797</ele>
        <time>2020-07-29T09:57:32.042Z</time>
      </trkpt>
      <trkpt lat="42.91026" lon="0.17248">
        <ele>1796</ele>
        <time>2020-07-29T09:57:33.042Z</time>
      </trkpt>
      <trkpt lat="42.91025" lon="0.17252">
        <ele>1795</ele>
        <time>2020-07-29T09:57:34.042Z</time>
      </trkpt>
      <trkpt lat="42.91025" lon="0.17256">
        <ele>1795</ele>
        <time>2020-07-29T09:57:35.042Z</time>
      </trkpt>
      <trkpt lat="42.91024" lon="0.1726">
        <ele>1795</ele>
        <time>2020-07-29T09:57:36.042Z</time>
      </trkpt>
      <trkpt lat="42.91024" lon="0.17265">
        <ele>1795</ele>
        <time>2020-07-29T09:57:37.042Z</time>
      </trkpt>
      <trkpt lat="42.91024" lon="0.17269">
        <ele>1795</ele>
        <time>2020-07-29T09:57:38.042Z</time>
      </trkpt>
      <trkpt lat="42.91023" lon="0.17273">
        <ele>1795</ele>
        <time>2020-07-29T09:57:39.042Z</time>
      </trkpt>
      <trkpt lat="42.91023" lon="0.17278">
        <ele>1795</ele>
        <time>2020-07-29T09:57:40.042Z</time>
      </trkpt>
      <trkpt lat="42.91023" lon="0.17282">
        <ele>1794</ele>
        <time>2020-07-29T09:57:41.042Z</time>
      </trkpt>
      <trkpt lat="42.91023" lon="0.17287">
        <ele>1794</ele>
        <time>2020-07-29T09:57:42.042Z</time>
      </trkpt>
      <trkpt lat="42.91023" lon="0.17291">
        <ele>1794</ele>
        <time>2020-07-29T09:57:43.042Z</time>
      </trkpt>
      <trkpt lat="42.91023" lon="0.17295">
        <ele>1794</ele>
        <time>2020-07-29T09:57:44.042Z</time>
      </trkpt>
      <trkpt lat="42.91023" lon="0.17299">
        <ele>1794</ele>
        <time>2020-07-29T09:57:45.042Z</time>
      </trkpt>
      <trkpt lat="42.91023" lon="0.17303">
        <ele>1793</ele>
        <time>2020-07-29T09:57:46.042Z</time>
      </trkpt>
      <trkpt lat="42.91023" lon="0.17307">
        <ele>1793</ele>
        <time>2020-07-29T09:57:47.042Z</time>
      </trkpt>
      <trkpt lat="42.91023" lon="0.17311">
        <ele>1793</ele>
        <time>2020-07-29T09:57:48.042Z</time>
      </trkpt>
      <trkpt lat="42.91023" lon="0.17315">
        <ele>1792</ele>
        <time>2020-07-29T09:57:49.042Z</time>
      </trkpt>
      <trkpt lat="42.91024" lon="0.17319">
        <ele>1792</ele>
        <time>2020-07-29T09:57:50.042Z</time>
      </trkpt>
      <trkpt lat="42.91024" lon="0.17323">
        <ele>1792</ele>
        <time>2020-07-29T09:57:51.042Z</time>
      </trkpt>
      <trkpt lat="42.91024" lon="0.17328">
        <ele>1792</ele>
        <time>2020-07-29T09:57:52.042Z</time>
      </trkpt>
      <trkpt lat="42.91025" lon="0.17332">
        <ele>1792</ele>
        <time>2020-07-29T09:57:53.042Z</time>
      </trkpt>
      <trkpt lat="42.91026" lon="0.17336">
        <ele>1792</ele>
        <time>2020-07-29T09:57:54.042Z</time>
      </trkpt>
      <trkpt lat="42.91027" lon="0.1734">
        <ele>1792</ele>
        <time>2020-07-29T09:57:55.042Z</time>
      </trkpt>
      <trkpt lat="42.91028" lon="0.17344">
        <ele>1791</ele>
        <time>2020-07-29T09:57:56.042Z</time>
      </trkpt>
      <trkpt lat="42.91029" lon="0.17348">
        <ele>1790</ele>
        <time>2020-07-29T09:57:57.042Z</time>
      </trkpt>
      <trkpt lat="42.9103" lon="0.17352">
        <ele>1790</ele>
        <time>2020-07-29T09:57:58.042Z</time>
      </trkpt>
      <trkpt lat="42.91031" lon="0.17355">
        <ele>1790</ele>
        <time>2020-07-29T09:57:59.042Z</time>
      </trkpt>
      <trkpt lat="42.91032" lon="0.17359">
        <ele>1790</ele>
        <time>2020-07-29T09:58:00.042Z</time>
      </trkpt>
      <trkpt lat="42.91033" lon="0.17362">
        <ele>1789</ele>
        <time>2020-07-29T09:58:01.042Z</time>
      </trkpt>
      <trkpt lat="42.91034" lon="0.17366">
        <ele>1788</ele>
        <time>2020-07-29T09:58:02.042Z</time>
      </trkpt>
      <trkpt lat="42.91036" lon="0.1737">
        <ele>1788</ele>
        <time>2020-07-29T09:58:03.042Z</time>
      </trkpt>
      <trkpt lat="42.91037" lon="0.17374">
        <ele>1788</ele>
        <time>2020-07-29T09:58:04.042Z</time>
      </trkpt>
      <trkpt lat="42.91038" lon="0.17377">
        <ele>1787</ele>
        <time>2020-07-29T09:58:05.042Z</time>
      </trkpt>
      <trkpt lat="42.9104" lon="0.17381">
        <ele>1787</ele>
        <time>2020-07-29T09:58:06.042Z</time>
      </trkpt>
      <trkpt lat="42.91041" lon="0.17385">
        <ele>1787</ele>
        <time>2020-07-29T09:58:07.042Z</time>
      </trkpt>
      <trkpt lat="42.91042" lon="0.17388">
        <ele>1786</ele>
        <time>2020-07-29T09:58:08.042Z</time>
      </trkpt>
      <trkpt lat="42.91043" lon="0.17392">
        <ele>1786</ele>
        <time>2020-07-29T09:58:09.042Z</time>
      </trkpt>
      <trkpt lat="42.91044" lon="0.17396">
        <ele>1786</ele>
        <time>2020-07-29T09:58:10.042Z</time>
      </trkpt>
      <trkpt lat="42.91045" lon="0.174">
        <ele>1786</ele>
        <time>2020-07-29T09:58:11.042Z</time>
      </trkpt>
      <trkpt lat="42.91046" lon="0.17404">
        <ele>1785</ele>
        <time>2020-07-29T09:58:12.042Z</time>
      </trkpt>
      <trkpt lat="42.91046" lon="0.17408">
        <ele>1786</ele>
        <time>2020-07-29T09:58:13.042Z</time>
      </trkpt>
      <trkpt lat="42.91047" lon="0.17412">
        <ele>1785</ele>
        <time>2020-07-29T09:58:14.042Z</time>
      </trkpt>
      <trkpt lat="42.91047" lon="0.17416">
        <ele>1786</ele>
        <time>2020-07-29T09:58:15.042Z</time>
      </trkpt>
      <trkpt lat="42.91048" lon="0.1742">
        <ele>1786</ele>
        <time>2020-07-29T09:58:16.042Z</time>
      </trkpt>
      <trkpt lat="42.91049" lon="0.17424">
        <ele>1785</ele>
        <time>2020-07-29T09:58:17.042Z</time>
      </trkpt>
      <trkpt lat="42.9105" lon="0.17428">
        <ele>1785</ele>
        <time>2020-07-29T09:58:18.042Z</time>
      </trkpt>
      <trkpt lat="42.91051" lon="0.17432">
        <ele>1785</ele>
        <time>2020-07-29T09:58:19.042Z</time>
      </trkpt>
      <trkpt lat="42.91052" lon="0.17436">
        <ele>1785</ele>
        <time>2020-07-29T09:58:20.042Z</time>
      </trkpt>
      <trkpt lat="42.91052" lon="0.17441">
        <ele>1785</ele>
        <time>2020-07-29T09:58:21.042Z</time>
      </trkpt>
      <trkpt lat="42.91052" lon="0.17445">
        <ele>1784</ele>
        <time>2020-07-29T09:58:22.042Z</time>
      </trkpt>
      <trkpt lat="42.91053" lon="0.17449">
        <ele>1784</ele>
        <time>2020-07-29T09:58:23.042Z</time>
      </trkpt>
      <trkpt lat="42.91053" lon="0.17453">
        <ele>1784</ele>
        <time>2020-07-29T09:58:24.042Z</time>
      </trkpt>
      <trkpt lat="42.91053" lon="0.17458">
        <ele>1784</ele>
        <time>2020-07-29T09:58:25.042Z</time>
      </trkpt>
      <trkpt lat="42.91053" lon="0.17462">
        <ele>1783</ele>
        <time>2020-07-29T09:58:26.042Z</time>
      </trkpt>
      <trkpt lat="42.91053" lon="0.17466">
        <ele>1783</ele>
        <time>2020-07-29T09:58:27.042Z</time>
      </trkpt>
      <trkpt lat="42.91054" lon="0.17471">
        <ele>1783</ele>
        <time>2020-07-29T09:58:28.042Z</time>
      </trkpt>
      <trkpt lat="42.91054" lon="0.17475">
        <ele>1783</ele>
        <time>2020-07-29T09:58:29.042Z</time>
      </trkpt>
      <trkpt lat="42.91054" lon="0.17479">
        <ele>1782</ele>
        <time>2020-07-29T09:58:30.042Z</time>
      </trkpt>
      <trkpt lat="42.91054" lon="0.17483">
        <ele>1782</ele>
        <time>2020-07-29T09:58:31.042Z</time>
      </trkpt>
      <trkpt lat="42.91055" lon="0.17487">
        <ele>1781</ele>
        <time>2020-07-29T09:58:32.042Z</time>
      </trkpt>
      <trkpt lat="42.91055" lon="0.17491">
        <ele>1781</ele>
        <time>2020-07-29T09:58:33.042Z</time>
      </trkpt>
      <trkpt lat="42.91055" lon="0.17495">
        <ele>1780</ele>
        <time>2020-07-29T09:58:34.042Z</time>
      </trkpt>
      <trkpt lat="42.91056" lon="0.17499">
        <ele>1779</ele>
        <time>2020-07-29T09:58:35.042Z</time>
      </trkpt>
      <trkpt lat="42.91056" lon="0.17503">
        <ele>1779</ele>
        <time>2020-07-29T09:58:36.042Z</time>
      </trkpt>
      <trkpt lat="42.91056" lon="0.17507">
        <ele>1779</ele>
        <time>2020-07-29T09:58:37.042Z</time>
      </trkpt>
      <trkpt lat="42.91056" lon="0.17511">
        <ele>1779</ele>
        <time>2020-07-29T09:58:38.042Z</time>
      </trkpt>
      <trkpt lat="42.91056" lon="0.17515">
        <ele>1778</ele>
        <time>2020-07-29T09:58:39.042Z</time>
      </trkpt>
      <trkpt lat="42.91055" lon="0.17519">
        <ele>1778</ele>
        <time>2020-07-29T09:58:40.042Z</time>
      </trkpt>
      <trkpt lat="42.91055" lon="0.17523">
        <ele>1777</ele>
        <time>2020-07-29T09:58:41.042Z</time>
      </trkpt>
      <trkpt lat="42.91055" lon="0.17528">
        <ele>1777</ele>
        <time>2020-07-29T09:58:42.042Z</time>
      </trkpt>
      <trkpt lat="42.91054" lon="0.17532">
        <ele>1777</ele>
        <time>2020-07-29T09:58:43.042Z</time>
      </trkpt>
      <trkpt lat="42.91054" lon="0.17536">
        <ele>1778</ele>
        <time>2020-07-29T09:58:44.042Z</time>
      </trkpt>
      <trkpt lat="42.91054" lon="0.1754">
        <ele>1777</ele>
        <time>2020-07-29T09:58:45.042Z</time>
      </trkpt>
      <trkpt lat="42.91054" lon="0.17544">
        <ele>1777</ele>
        <time>2020-07-29T09:58:46.042Z</time>
      </trkpt>
      <trkpt lat="42.91054" lon="0.17548">
        <ele>1776</ele>
        <time>2020-07-29T09:58:47.042Z</time>
      </trkpt>
      <trkpt lat="42.91054" lon="0.17552">
        <ele>1776</ele>
        <time>2020-07-29T09:58:48.042Z</time>
      </trkpt>
      <trkpt lat="42.91054" lon="0.17556">
        <ele>1776</ele>
        <time>2020-07-29T09:58:49.042Z</time>
      </trkpt>
      <trkpt lat="42.91054" lon="0.1756">
        <ele>1776</ele>
        <time>2020-07-29T09:58:50.042Z</time>
      </trkpt>
      <trkpt lat="42.91054" lon="0.17564">
        <ele>1776</ele>
        <time>2020-07-29T09:58:51.042Z</time>
      </trkpt>
      <trkpt lat="42.91054" lon="0.17568">
        <ele>1775</ele>
        <time>2020-07-29T09:58:52.042Z</time>
      </trkpt>
      <trkpt lat="42.91055" lon="0.17572">
        <ele>1775</ele>
        <time>2020-07-29T09:58:53.042Z</time>
      </trkpt>
      <trkpt lat="42.91055" lon="0.17577">
        <ele>1775</ele>
        <time>2020-07-29T09:58:54.042Z</time>
      </trkpt>
      <trkpt lat="42.91055" lon="0.17581">
        <ele>1775</ele>
        <time>2020-07-29T09:58:55.042Z</time>
      </trkpt>
      <trkpt lat="42.91055" lon="0.17585">
        <ele>1775</ele>
        <time>2020-07-29T09:58:56.042Z</time>
      </trkpt>
      <trkpt lat="42.91056" lon="0.17589">
        <ele>1774</ele>
        <time>2020-07-29T09:58:57.042Z</time>
      </trkpt>
      <trkpt lat="42.91056" lon="0.17593">
        <ele>1774</ele>
        <time>2020-07-29T09:58:58.042Z</time>
      </trkpt>
      <trkpt lat="42.91057" lon="0.17597">
        <ele>1773</ele>
        <time>2020-07-29T09:58:59.042Z</time>
      </trkpt>
      <trkpt lat="42.91057" lon="0.17601">
        <ele>1772</ele>
        <time>2020-07-29T09:59:00.042Z</time>
      </trkpt>
      <trkpt lat="42.91058" lon="0.17605">
        <ele>1772</ele>
        <time>2020-07-29T09:59:01.042Z</time>
      </trkpt>
      <trkpt lat="42.91059" lon="0.17609">
        <ele>1771</ele>
        <time>2020-07-29T09:59:02.042Z</time>
      </trkpt>
      <trkpt lat="42.9106" lon="0.17613">
        <ele>1771</ele>
        <time>2020-07-29T09:59:03.042Z</time>
      </trkpt>
      <trkpt lat="42.91061" lon="0.17617">
        <ele>1771</ele>
        <time>2020-07-29T09:59:04.042Z</time>
      </trkpt>
      <trkpt lat="42.91062" lon="0.17621">
        <ele>1770</ele>
        <time>2020-07-29T09:59:05.042Z</time>
      </trkpt>
      <trkpt lat="42.91063" lon="0.17625">
        <ele>1770</ele>
        <time>2020-07-29T09:59:06.042Z</time>
      </trkpt>
      <trkpt lat="42.91064" lon="0.17629">
        <ele>1770</ele>
        <time>2020-07-29T09:59:07.042Z</time>
      </trkpt>
      <trkpt lat="42.91065" lon="0.17633">
        <ele>1770</ele>
        <time>2020-07-29T09:59:08.042Z</time>
      </trkpt>
      <trkpt lat="42.91067" lon="0.17636">
        <ele>1770</ele>
        <time>2020-07-29T09:59:09.042Z</time>
      </trkpt>
      <trkpt lat="42.91067" lon="0.1764">
        <ele>1769</ele>
        <time>2020-07-29T09:59:10.042Z</time>
      </trkpt>
      <trkpt lat="42.91069" lon="0.17644">
        <ele>1770</ele>
        <time>2020-07-29T09:59:11.042Z</time>
      </trkpt>
      <trkpt lat="42.9107" lon="0.17648">
        <ele>1769</ele>
        <time>2020-07-29T09:59:12.042Z</time>
      </trkpt>
      <trkpt lat="42.91071" lon="0.17652">
        <ele>1769</ele>
        <time>2020-07-29T09:59:13.042Z</time>
      </trkpt>
      <trkpt lat="42.91072" lon="0.17655">
        <ele>1768</ele>
        <time>2020-07-29T09:59:14.042Z</time>
      </trkpt>
      <trkpt lat="42.91074" lon="0.17659">
        <ele>1767</ele>
        <time>2020-07-29T09:59:15.042Z</time>
      </trkpt>
      <trkpt lat="42.91075" lon="0.17663">
        <ele>1766</ele>
        <time>2020-07-29T09:59:16.042Z</time>
      </trkpt>
      <trkpt lat="42.91077" lon="0.17666">
        <ele>1766</ele>
        <time>2020-07-29T09:59:17.042Z</time>
      </trkpt>
      <trkpt lat="42.91079" lon="0.1767">
        <ele>1766</ele>
        <time>2020-07-29T09:59:18.042Z</time>
      </trkpt>
      <trkpt lat="42.91081" lon="0.17674">
        <ele>1766</ele>
        <time>2020-07-29T09:59:19.042Z</time>
      </trkpt>
      <trkpt lat="42.91083" lon="0.17677">
        <ele>1766</ele>
        <time>2020-07-29T09:59:20.042Z</time>
      </trkpt>
      <trkpt lat="42.91085" lon="0.17681">
        <ele>1766</ele>
        <time>2020-07-29T09:59:21.042Z</time>
      </trkpt>
      <trkpt lat="42.91087" lon="0.17684">
        <ele>1765</ele>
        <time>2020-07-29T09:59:22.042Z</time>
      </trkpt>
      <trkpt lat="42.91089" lon="0.17687">
        <ele>1765</ele>
        <time>2020-07-29T09:59:23.042Z</time>
      </trkpt>
      <trkpt lat="42.91091" lon="0.17691">
        <ele>1764</ele>
        <time>2020-07-29T09:59:24.042Z</time>
      </trkpt>
      <trkpt lat="42.91092" lon="0.17695">
        <ele>1764</ele>
        <time>2020-07-29T09:59:25.042Z</time>
      </trkpt>
      <trkpt lat="42.91092" lon="0.17698">
        <ele>1764</ele>
        <time>2020-07-29T09:59:26.042Z</time>
      </trkpt>
      <trkpt lat="42.91092" lon="0.17702">
        <ele>1763</ele>
        <time>2020-07-29T09:59:27.042Z</time>
      </trkpt>
      <trkpt lat="42.91093" lon="0.17705">
        <ele>1763</ele>
        <time>2020-07-29T09:59:28.042Z</time>
      </trkpt>
      <trkpt lat="42.91094" lon="0.17709">
        <ele>1764</ele>
        <time>2020-07-29T09:59:29.042Z</time>
      </trkpt>
      <trkpt lat="42.91095" lon="0.17713">
        <ele>1762</ele>
        <time>2020-07-29T09:59:30.042Z</time>
      </trkpt>
      <trkpt lat="42.91096" lon="0.17716">
        <ele>1763</ele>
        <time>2020-07-29T09:59:31.042Z</time>
      </trkpt>
      <trkpt lat="42.91098" lon="0.1772">
        <ele>1763</ele>
        <time>2020-07-29T09:59:32.042Z</time>
      </trkpt>
      <trkpt lat="42.911" lon="0.17724">
        <ele>1763</ele>
        <time>2020-07-29T09:59:33.042Z</time>
      </trkpt>
      <trkpt lat="42.91103" lon="0.17728">
        <ele>1763</ele>
        <time>2020-07-29T09:59:34.042Z</time>
      </trkpt>
      <trkpt lat="42.91104" lon="0.17732">
        <ele>1764</ele>
        <time>2020-07-29T09:59:35.042Z</time>
      </trkpt>
      <trkpt lat="42.91105" lon="0.17736">
        <ele>1764</ele>
        <time>2020-07-29T09:59:36.042Z</time>
      </trkpt>
      <trkpt lat="42.91106" lon="0.1774">
        <ele>1764</ele>
        <time>2020-07-29T09:59:37.042Z</time>
      </trkpt>
      <trkpt lat="42.91107" lon="0.17744">
        <ele>1764</ele>
        <time>2020-07-29T09:59:38.042Z</time>
      </trkpt>
      <trkpt lat="42.91109" lon="0.17748">
        <ele>1765</ele>
        <time>2020-07-29T09:59:39.042Z</time>
      </trkpt>
      <trkpt lat="42.9111" lon="0.17752">
        <ele>1765</ele>
        <time>2020-07-29T09:59:40.042Z</time>
      </trkpt>
      <trkpt lat="42.91111" lon="0.17756">
        <ele>1765</ele>
        <time>2020-07-29T09:59:41.042Z</time>
      </trkpt>
      <trkpt lat="42.91111" lon="0.1776">
        <ele>1765</ele>
        <time>2020-07-29T09:59:42.042Z</time>
      </trkpt>
      <trkpt lat="42.91112" lon="0.17764">
        <ele>1764</ele>
        <time>2020-07-29T09:59:43.042Z</time>
      </trkpt>
      <trkpt lat="42.91113" lon="0.17768">
        <ele>1762</ele>
        <time>2020-07-29T09:59:44.042Z</time>
      </trkpt>
      <trkpt lat="42.91114" lon="0.17772">
        <ele>1762</ele>
        <time>2020-07-29T09:59:45.042Z</time>
      </trkpt>
      <trkpt lat="42.91115" lon="0.17776">
        <ele>1761</ele>
        <time>2020-07-29T09:59:46.042Z</time>
      </trkpt>
      <trkpt lat="42.91116" lon="0.17779">
        <ele>1760</ele>
        <time>2020-07-29T09:59:47.042Z</time>
      </trkpt>
      <trkpt lat="42.91116" lon="0.17783">
        <ele>1761</ele>
        <time>2020-07-29T09:59:48.042Z</time>
      </trkpt>
      <trkpt lat="42.91117" lon="0.17787">
        <ele>1760</ele>
        <time>2020-07-29T09:59:49.042Z</time>
      </trkpt>
      <trkpt lat="42.91117" lon="0.17791">
        <ele>1760</ele>
        <time>2020-07-29T09:59:50.042Z</time>
      </trkpt>
      <trkpt lat="42.91117" lon="0.17795">
        <ele>1760</ele>
        <time>2020-07-29T09:59:51.042Z</time>
      </trkpt>
      <trkpt lat="42.91117" lon="0.17799">
        <ele>1759</ele>
        <time>2020-07-29T09:59:52.042Z</time>
      </trkpt>
      <trkpt lat="42.91116" lon="0.17803">
        <ele>1759</ele>
        <time>2020-07-29T09:59:53.042Z</time>
      </trkpt>
      <trkpt lat="42.91116" lon="0.17807">
        <ele>1759</ele>
        <time>2020-07-29T09:59:54.042Z</time>
      </trkpt>
      <trkpt lat="42.91116" lon="0.17811">
        <ele>1759</ele>
        <time>2020-07-29T09:59:55.042Z</time>
      </trkpt>
      <trkpt lat="42.91115" lon="0.17815">
        <ele>1759</ele>
        <time>2020-07-29T09:59:56.042Z</time>
      </trkpt>
      <trkpt lat="42.91115" lon="0.17818">
        <ele>1759</ele>
        <time>2020-07-29T09:59:57.042Z</time>
      </trkpt>
      <trkpt lat="42.91115" lon="0.17822">
        <ele>1758</ele>
        <time>2020-07-29T09:59:58.042Z</time>
      </trkpt>
      <trkpt lat="42.91115" lon="0.17827">
        <ele>1757</ele>
        <time>2020-07-29T09:59:59.042Z</time>
      </trkpt>
      <trkpt lat="42.91115" lon="0.17831">
        <ele>1757</ele>
        <time>2020-07-29T10:00:00.042Z</time>
      </trkpt>
      <trkpt lat="42.91114" lon="0.17835">
        <ele>1758</ele>
        <time>2020-07-29T10:00:01.042Z</time>
      </trkpt>
      <trkpt lat="42.91114" lon="0.17839">
        <ele>1757</ele>
        <time>2020-07-29T10:00:02.042Z</time>
      </trkpt>
      <trkpt lat="42.91114" lon="0.17843">
        <ele>1758</ele>
        <time>2020-07-29T10:00:03.042Z</time>
      </trkpt>
      <trkpt lat="42.91113" lon="0.17848">
        <ele>1757</ele>
        <time>2020-07-29T10:00:04.042Z</time>
      </trkpt>
      <trkpt lat="42.91112" lon="0.17852">
        <ele>1757</ele>
        <time>2020-07-29T10:00:05.042Z</time>
      </trkpt>
      <trkpt lat="42.91111" lon="0.17856">
        <ele>1757</ele>
        <time>2020-07-29T10:00:06.042Z</time>
      </trkpt>
      <trkpt lat="42.9111" lon="0.1786">
        <ele>1758</ele>
        <time>2020-07-29T10:00:07.042Z</time>
      </trkpt>
      <trkpt lat="42.91109" lon="0.17863">
        <ele>1756</ele>
        <time>2020-07-29T10:00:08.042Z</time>
      </trkpt>
      <trkpt lat="42.91107" lon="0.17867">
        <ele>1757</ele>
        <time>2020-07-29T10:00:09.042Z</time>
      </trkpt>
      <trkpt lat="42.91106" lon="0.1787">
        <ele>1756</ele>
        <time>2020-07-29T10:00:10.042Z</time>
      </trkpt>
      <trkpt lat="42.91104" lon="0.17873">
        <ele>1756</ele>
        <time>2020-07-29T10:00:11.042Z</time>
      </trkpt>
      <trkpt lat="42.91102" lon="0.17877">
        <ele>1755</ele>
        <time>2020-07-29T10:00:12.042Z</time>
      </trkpt>
      <trkpt lat="42.91099" lon="0.1788">
        <ele>1754</ele>
        <time>2020-07-29T10:00:13.042Z</time>
      </trkpt>
      <trkpt lat="42.91097" lon="0.17883">
        <ele>1754</ele>
        <time>2020-07-29T10:00:14.042Z</time>
      </trkpt>
      <trkpt lat="42.91094" lon="0.17885">
        <ele>1755</ele>
        <time>2020-07-29T10:00:15.042Z</time>
      </trkpt>
      <trkpt lat="42.91092" lon="0.17887">
        <ele>1755</ele>
        <time>2020-07-29T10:00:16.042Z</time>
      </trkpt>
      <trkpt lat="42.91089" lon="0.17889">
        <ele>1755</ele>
        <time>2020-07-29T10:00:17.042Z</time>
      </trkpt>
      <trkpt lat="42.91086" lon="0.17891">
        <ele>1754</ele>
        <time>2020-07-29T10:00:18.042Z</time>
      </trkpt>
      <trkpt lat="42.91084" lon="0.17894">
        <ele>1754</ele>
        <time>2020-07-29T10:00:19.042Z</time>
      </trkpt>
      <trkpt lat="42.91081" lon="0.17896">
        <ele>1754</ele>
        <time>2020-07-29T10:00:20.042Z</time>
      </trkpt>
      <trkpt lat="42.91078" lon="0.17898">
        <ele>1754</ele>
        <time>2020-07-29T10:00:21.042Z</time>
      </trkpt>
      <trkpt lat="42.91075" lon="0.17901">
        <ele>1753</ele>
        <time>2020-07-29T10:00:22.042Z</time>
      </trkpt>
      <trkpt lat="42.91072" lon="0.17903">
        <ele>1753</ele>
        <time>2020-07-29T10:00:23.042Z</time>
      </trkpt>
      <trkpt lat="42.91069" lon="0.17905">
        <ele>1753</ele>
        <time>2020-07-29T10:00:24.042Z</time>
      </trkpt>
      <trkpt lat="42.91067" lon="0.17908">
        <ele>1752</ele>
        <time>2020-07-29T10:00:25.042Z</time>
      </trkpt>
      <trkpt lat="42.91065" lon="0.1791">
        <ele>1752</ele>
        <time>2020-07-29T10:00:26.042Z</time>
      </trkpt>
      <trkpt lat="42.91062" lon="0.17912">
        <ele>1752</ele>
        <time>2020-07-29T10:00:27.042Z</time>
      </trkpt>
      <trkpt lat="42.91059" lon="0.17914">
        <ele>1753</ele>
        <time>2020-07-29T10:00:28.042Z</time>
      </trkpt>
      <trkpt lat="42.91056" lon="0.17915">
        <ele>1751</ele>
        <time>2020-07-29T10:00:29.042Z</time>
      </trkpt>
      <trkpt lat="42.91053" lon="0.17917">
        <ele>1751</ele>
        <time>2020-07-29T10:00:30.042Z</time>
      </trkpt>
      <trkpt lat="42.9105" lon="0.17919">
        <ele>1751</ele>
        <time>2020-07-29T10:00:31.042Z</time>
      </trkpt>
      <trkpt lat="42.91046" lon="0.1792">
        <ele>1751</ele>
        <time>2020-07-29T10:00:32.042Z</time>
      </trkpt>
      <trkpt lat="42.91043" lon="0.17921">
        <ele>1752</ele>
        <time>2020-07-29T10:00:33.042Z</time>
      </trkpt>
      <trkpt lat="42.9104" lon="0.17922">
        <ele>1752</ele>
        <time>2020-07-29T10:00:34.042Z</time>
      </trkpt>
      <trkpt lat="42.91036" lon="0.17923">
        <ele>1753</ele>
        <time>2020-07-29T10:00:35.042Z</time>
      </trkpt>
      <trkpt lat="42.91033" lon="0.17925">
        <ele>1753</ele>
        <time>2020-07-29T10:00:36.042Z</time>
      </trkpt>
      <trkpt lat="42.9103" lon="0.17926">
        <ele>1754</ele>
        <time>2020-07-29T10:00:37.042Z</time>
      </trkpt>
      <trkpt lat="42.91027" lon="0.17927">
        <ele>1754</ele>
        <time>2020-07-29T10:00:38.042Z</time>
      </trkpt>
      <trkpt lat="42.91025" lon="0.17929">
        <ele>1754</ele>
        <time>2020-07-29T10:00:39.042Z</time>
      </trkpt>
      <trkpt lat="42.91022" lon="0.17931">
        <ele>1754</ele>
        <time>2020-07-29T10:00:40.042Z</time>
      </trkpt>
      <trkpt lat="42.9102" lon="0.17934">
        <ele>1753</ele>
        <time>2020-07-29T10:00:41.042Z</time>
      </trkpt>
      <trkpt lat="42.91018" lon="0.17936">
        <ele>1753</ele>
        <time>2020-07-29T10:00:42.042Z</time>
      </trkpt>
      <trkpt lat="42.91016" lon="0.17939">
        <ele>1752</ele>
        <time>2020-07-29T10:00:43.042Z</time>
      </trkpt>
      <trkpt lat="42.91015" lon="0.17942">
        <ele>1752</ele>
        <time>2020-07-29T10:00:44.042Z</time>
      </trkpt>
      <trkpt lat="42.91014" lon="0.17945">
        <ele>1752</ele>
        <time>2020-07-29T10:00:45.042Z</time>
      </trkpt>
      <trkpt lat="42.91013" lon="0.17948">
        <ele>1752</ele>
        <time>2020-07-29T10:00:46.042Z</time>
      </trkpt>
      <trkpt lat="42.91012" lon="0.17952">
        <ele>1752</ele>
        <time>2020-07-29T10:00:47.042Z</time>
      </trkpt>
      <trkpt lat="42.91012" lon="0.17956">
        <ele>1750</ele>
        <time>2020-07-29T10:00:48.042Z</time>
      </trkpt>
      <trkpt lat="42.91011" lon="0.1796">
        <ele>1749</ele>
        <time>2020-07-29T10:00:49.042Z</time>
      </trkpt>
      <trkpt lat="42.91011" lon="0.17964">
        <ele>1749</ele>
        <time>2020-07-29T10:00:50.042Z</time>
      </trkpt>
      <trkpt lat="42.9101" lon="0.17968">
        <ele>1748</ele>
        <time>2020-07-29T10:00:51.042Z</time>
      </trkpt>
      <trkpt lat="42.9101" lon="0.17972">
        <ele>1748</ele>
        <time>2020-07-29T10:00:52.042Z</time>
      </trkpt>
      <trkpt lat="42.9101" lon="0.17975">
        <ele>1749</ele>
        <time>2020-07-29T10:00:53.042Z</time>
      </trkpt>
      <trkpt lat="42.91011" lon="0.17979">
        <ele>1749</ele>
        <time>2020-07-29T10:00:54.042Z</time>
      </trkpt>
      <trkpt lat="42.91011" lon="0.17983">
        <ele>1749</ele>
        <time>2020-07-29T10:00:55.042Z</time>
      </trkpt>
      <trkpt lat="42.91011" lon="0.17987">
        <ele>1749</ele>
        <time>2020-07-29T10:00:56.042Z</time>
      </trkpt>
      <trkpt lat="42.9101" lon="0.17991">
        <ele>1749</ele>
        <time>2020-07-29T10:00:57.042Z</time>
      </trkpt>
      <trkpt lat="42.9101" lon="0.17994">
        <ele>1748</ele>
        <time>2020-07-29T10:00:58.042Z</time>
      </trkpt>
      <trkpt lat="42.9101" lon="0.17998">
        <ele>1747</ele>
        <time>2020-07-29T10:00:59.042Z</time>
      </trkpt>
      <trkpt lat="42.9101" lon="0.18002">
        <ele>1747</ele>
        <time>2020-07-29T10:01:00.042Z</time>
      </trkpt>
      <trkpt lat="42.91011" lon="0.18005">
        <ele>1746</ele>
        <time>2020-07-29T10:01:01.042Z</time>
      </trkpt>
      <trkpt lat="42.91011" lon="0.18009">
        <ele>1746</ele>
        <time>2020-07-29T10:01:02.042Z</time>
      </trkpt>
      <trkpt lat="42.91011" lon="0.18013">
        <ele>1745</ele>
        <time>2020-07-29T10:01:03.042Z</time>
      </trkpt>
      <trkpt lat="42.91012" lon="0.18016">
        <ele>1744</ele>
        <time>2020-07-29T10:01:04.042Z</time>
      </trkpt>
      <trkpt lat="42.91012" lon="0.1802">
        <ele>1743</ele>
        <time>2020-07-29T10:01:05.042Z</time>
      </trkpt>
      <trkpt lat="42.91013" lon="0.18024">
        <ele>1743</ele>
        <time>2020-07-29T10:01:06.042Z</time>
      </trkpt>
      <trkpt lat="42.91013" lon="0.18028">
        <ele>1742</ele>
        <time>2020-07-29T10:01:07.042Z</time>
      </trkpt>
      <trkpt lat="42.91013" lon="0.18032">
        <ele>1741</ele>
        <time>2020-07-29T10:01:08.042Z</time>
      </trkpt>
      <trkpt lat="42.91014" lon="0.18036">
        <ele>1740</ele>
        <time>2020-07-29T10:01:09.042Z</time>
      </trkpt>
      <trkpt lat="42.91014" lon="0.1804">
        <ele>1740</ele>
        <time>2020-07-29T10:01:10.042Z</time>
      </trkpt>
      <trkpt lat="42.91015" lon="0.18044">
        <ele>1739</ele>
        <time>2020-07-29T10:01:11.042Z</time>
      </trkpt>
      <trkpt lat="42.91016" lon="0.18047">
        <ele>1739</ele>
        <time>2020-07-29T10:01:12.042Z</time>
      </trkpt>
      <trkpt lat="42.91017" lon="0.18051">
        <ele>1738</ele>
        <time>2020-07-29T10:01:13.042Z</time>
      </trkpt>
      <trkpt lat="42.91018" lon="0.18055">
        <ele>1737</ele>
        <time>2020-07-29T10:01:14.042Z</time>
      </trkpt>
      <trkpt lat="42.91019" lon="0.18059">
        <ele>1737</ele>
        <time>2020-07-29T10:01:15.042Z</time>
      </trkpt>
      <trkpt lat="42.9102" lon="0.18063">
        <ele>1735</ele>
        <time>2020-07-29T10:01:16.042Z</time>
      </trkpt>
      <trkpt lat="42.91021" lon="0.18067">
        <ele>1734</ele>
        <time>2020-07-29T10:01:17.042Z</time>
      </trkpt>
      <trkpt lat="42.91021" lon="0.1807">
        <ele>1734</ele>
        <time>2020-07-29T10:01:18.042Z</time>
      </trkpt>
      <trkpt lat="42.91022" lon="0.18074">
        <ele>1734</ele>
        <time>2020-07-29T10:01:19.042Z</time>
      </trkpt>
      <trkpt lat="42.91023" lon="0.18078">
        <ele>1733</ele>
        <time>2020-07-29T10:01:20.042Z</time>
      </trkpt>
      <trkpt lat="42.91023" lon="0.18082">
        <ele>1735</ele>
        <time>2020-07-29T10:01:21.042Z</time>
      </trkpt>
      <trkpt lat="42.91021" lon="0.18086">
        <ele>1735</ele>
        <time>2020-07-29T10:01:22.042Z</time>
      </trkpt>
      <trkpt lat="42.91019" lon="0.18089">
        <ele>1735</ele>
        <time>2020-07-29T10:01:23.042Z</time>
      </trkpt>
      <trkpt lat="42.91016" lon="0.18092">
        <ele>1734</ele>
        <time>2020-07-29T10:01:24.042Z</time>
      </trkpt>
      <trkpt lat="42.91013" lon="0.18094">
        <ele>1735</ele>
        <time>2020-07-29T10:01:25.042Z</time>
      </trkpt>
      <trkpt lat="42.91009" lon="0.18094">
        <ele>1735</ele>
        <time>2020-07-29T10:01:26.042Z</time>
      </trkpt>
      <trkpt lat="42.91006" lon="0.18092">
        <ele>1733</ele>
        <time>2020-07-29T10:01:27.042Z</time>
      </trkpt>
    </trkseg>
  </trk>
</gpx>